<?xml version='1.0' encoding='UTF-8'?><gpx version="1.1" creator="JPX - https://github.com/jenetics/jpx" xmlns="http://www.topografix.com/GPX/1/1"><trk><trkseg><trkpt lat="43.18340132296455" lon="13.021822336649965"><ele>348.0</ele><time>2026-05-02T08:39:36Z</time></trkpt><trkpt lat="43.18338192346217" lon="13.021932905369127"><ele>348.0</ele><time>2026-05-02T08:39:38Z</time></trkpt><trkpt lat="43.18330649505086" lon="13.021912263397816"><ele>348.0</ele><time>2026-05-02T08:39:41Z</time></trkpt><trkpt lat="43.18332145181482" lon="13.021818915394356"><ele>348.0</ele><time>2026-05-02T08:39:43Z</time></trkpt><trkpt lat="43.18338726045699" lon="13.021827878709894"><ele>348.0</ele><time>2026-05-02T08:39:45Z</time></trkpt><trkpt lat="43.18343238718503" lon="13.021924697805078"><ele>348.0</ele><time>2026-05-02T08:39:47Z</time></trkpt><trkpt lat="43.18347902216866" lon="13.02202298191206"><ele>348.0</ele><time>2026-05-02T08:39:49Z</time></trkpt><trkpt lat="43.18352925037143" lon="13.02211513985253"><ele>348.0</ele><time>2026-05-02T08:39:51Z</time></trkpt><trkpt lat="43.183606027409795" lon="13.022214397132169"><ele>348.0</ele><time>2026-05-02T08:39:53Z</time></trkpt><trkpt lat="43.18367560913885" lon="13.02230650772339"><ele>348.0</ele><time>2026-05-02T08:39:55Z</time></trkpt><trkpt lat="43.18372237820128" lon="13.022417718619508"><ele>348.0</ele><time>2026-05-02T08:39:57Z</time></trkpt><trkpt lat="43.183762694080066" lon="13.022518553303197"><ele>347.59999999999997</ele><time>2026-05-02T08:39:59Z</time></trkpt><trkpt lat="43.183787585926765" lon="13.022621791351545"><ele>347.2</ele><time>2026-05-02T08:40:02Z</time></trkpt><trkpt lat="43.1838339358143" lon="13.02274322071239"><ele>346.8</ele><time>2026-05-02T08:46:26Z</time></trkpt><trkpt lat="43.18387132610249" lon="13.022876589304008"><ele>346.4</ele><time>2026-05-02T08:46:28Z</time></trkpt><trkpt lat="43.18389230299851" lon="13.02303533831515"><ele>346.0</ele><time>2026-05-02T08:46:30Z</time></trkpt><trkpt lat="43.18388669817711" lon="13.023135146640625"><ele>346.0</ele><time>2026-05-02T08:46:31Z</time></trkpt><trkpt lat="43.183904138090874" lon="13.02323818413404"><ele>346.0</ele><time>2026-05-02T08:46:32Z</time></trkpt><trkpt lat="43.18392117440177" lon="13.023338837082978"><ele>346.0</ele><time>2026-05-02T08:46:33Z</time></trkpt><trkpt lat="43.18394165871233" lon="13.023447561297711"><ele>346.0</ele><time>2026-05-02T08:46:34Z</time></trkpt><trkpt lat="43.183963194902454" lon="13.023555334087913"><ele>346.0</ele><time>2026-05-02T08:46:35Z</time></trkpt><trkpt lat="43.183987418863005" lon="13.02366968174884"><ele>346.0</ele><time>2026-05-02T08:46:36Z</time></trkpt><trkpt lat="43.18403553495401" lon="13.023788639073285"><ele>345.6</ele><time>2026-05-02T08:46:37Z</time></trkpt><trkpt lat="43.18406992943052" lon="13.02392249989929"><ele>345.20000000000005</ele><time>2026-05-02T08:46:38Z</time></trkpt><trkpt lat="43.18412111644796" lon="13.02405000592754"><ele>344.79999999999995</ele><time>2026-05-02T08:46:38.999Z</time></trkpt><trkpt lat="43.184172104328944" lon="13.024181722857314"><ele>344.4</ele><time>2026-05-02T08:46:39.999Z</time></trkpt><trkpt lat="43.18422717818734" lon="13.024310285928285"><ele>344.0</ele><time>2026-05-02T08:46:40.999Z</time></trkpt><trkpt lat="43.18428283774332" lon="13.024449154691228"><ele>343.5</ele><time>2026-05-02T08:46:41.999Z</time></trkpt><trkpt lat="43.18433823731498" lon="13.024584623526648"><ele>343.0</ele><time>2026-05-02T08:46:42.999Z</time></trkpt><trkpt lat="43.18439432907095" lon="13.024720602210751"><ele>342.5</ele><time>2026-05-02T08:46:43.999Z</time></trkpt><trkpt lat="43.184453024662105" lon="13.024855357386034"><ele>342.0</ele><time>2026-05-02T08:46:44.999Z</time></trkpt><trkpt lat="43.18450561205979" lon="13.02499211233979"><ele>342.0</ele><time>2026-05-02T08:46:45.999Z</time></trkpt><trkpt lat="43.18457043820436" lon="13.02511917618962"><ele>342.0</ele><time>2026-05-02T08:46:46.999Z</time></trkpt><trkpt lat="43.184613092827696" lon="13.025251123169106"><ele>342.0</ele><time>2026-05-02T08:46:47.999Z</time></trkpt><trkpt lat="43.18466139233685" lon="13.025362009552408"><ele>342.0</ele><time>2026-05-02T08:46:48.999Z</time></trkpt><trkpt lat="43.18478229401103" lon="13.025414699726353"><ele>342.0</ele><time>2026-05-02T08:46:49.999Z</time></trkpt><trkpt lat="43.18483297022069" lon="13.025528847455128"><ele>342.0</ele><time>2026-05-02T08:46:50.999Z</time></trkpt><trkpt lat="43.18486819826001" lon="13.025665049715606"><ele>342.0</ele><time>2026-05-02T08:46:51.999Z</time></trkpt><trkpt lat="43.184904188286716" lon="13.025813167104134"><ele>342.0</ele><time>2026-05-02T08:46:52.999Z</time></trkpt><trkpt lat="43.18495320236541" lon="13.025956564612194"><ele>342.0</ele><time>2026-05-02T08:46:53.999Z</time></trkpt><trkpt lat="43.18501869986819" lon="13.026097929988259"><ele>341.75</ele><time>2026-05-02T08:46:54.999Z</time></trkpt><trkpt lat="43.185096761823495" lon="13.026256509462664"><ele>341.5</ele><time>2026-05-02T08:46:55.999Z</time></trkpt><trkpt lat="43.18518263068901" lon="13.026437364507391"><ele>341.25</ele><time>2026-05-02T08:46:56.999Z</time></trkpt><trkpt lat="43.18526628819989" lon="13.026597833878933"><ele>341.0</ele><time>2026-05-02T08:46:57.999Z</time></trkpt><trkpt lat="43.18534845903217" lon="13.026792394723799"><ele>341.0</ele><time>2026-05-02T08:46:58.999Z</time></trkpt><trkpt lat="43.18541670028891" lon="13.026942982433486"><ele>341.0</ele><time>2026-05-02T08:46:59.999Z</time></trkpt><trkpt lat="43.18547703659309" lon="13.027072963126457"><ele>341.0</ele><time>2026-05-02T08:47:00.999Z</time></trkpt><trkpt lat="43.18553339694138" lon="13.027190623082737"><ele>341.0</ele><time>2026-05-02T08:47:01.999Z</time></trkpt><trkpt lat="43.18558547576979" lon="13.027289412357549"><ele>341.0</ele><time>2026-05-02T08:47:02.999Z</time></trkpt><trkpt lat="43.1856315423534" lon="13.027367564957798"><ele>341.0</ele><time>2026-05-02T08:47:03.999Z</time></trkpt><trkpt lat="43.18569439114408" lon="13.027480837928342"><ele>341.0</ele><time>2026-05-02T08:47:05.999Z</time></trkpt><trkpt lat="43.185857438843" lon="13.027383605848305"><ele>341.0</ele><time>2026-05-02T08:47:06.999Z</time></trkpt><trkpt lat="43.185957750048004" lon="13.027314157295727"><ele>341.0</ele><time>2026-05-02T08:47:07.999Z</time></trkpt><trkpt lat="43.186052398740124" lon="13.027219896517147"><ele>341.0</ele><time>2026-05-02T08:47:08.999Z</time></trkpt><trkpt lat="43.18614140767148" lon="13.02710683978821"><ele>341.0</ele><time>2026-05-02T08:47:09.999Z</time></trkpt><trkpt lat="43.18623110373666" lon="13.027004282620348"><ele>341.0</ele><time>2026-05-02T08:47:10.999Z</time></trkpt><trkpt lat="43.186318294494214" lon="13.02690999819382"><ele>341.0</ele><time>2026-05-02T08:47:11.999Z</time></trkpt><trkpt lat="43.1864003041766" lon="13.026817568906722"><ele>341.0</ele><time>2026-05-02T08:47:12.999Z</time></trkpt><trkpt lat="43.186489880102705" lon="13.026775110578017"><ele>341.0</ele><time>2026-05-02T08:47:13.999Z</time></trkpt><trkpt lat="43.18655380614131" lon="13.026712143929466"><ele>341.0</ele><time>2026-05-02T08:47:14.999Z</time></trkpt><trkpt lat="43.18663364235019" lon="13.026607292652365"><ele>341.0</ele><time>2026-05-02T08:47:17.001Z</time></trkpt><trkpt lat="43.18670279313211" lon="13.026565392842231"><ele>341.0</ele><time>2026-05-02T08:47:19.001Z</time></trkpt><trkpt lat="43.186698107570244" lon="13.026374640421025"><ele>342.6</ele><time>2026-05-02T08:47:21.001Z</time></trkpt><trkpt lat="43.18667641001736" lon="13.026239046981095"><ele>344.20000000000005</ele><time>2026-05-02T08:47:22.001Z</time></trkpt><trkpt lat="43.18666105884119" lon="13.026103466916728"><ele>345.79999999999995</ele><time>2026-05-02T08:47:23.001Z</time></trkpt><trkpt lat="43.186650606096315" lon="13.025962768177846"><ele>347.4</ele><time>2026-05-02T08:47:24.001Z</time></trkpt><trkpt lat="43.186636025682446" lon="13.025806327982048"><ele>349.0</ele><time>2026-05-02T08:47:25Z</time></trkpt><trkpt lat="43.18662097632649" lon="13.025664293463489"><ele>351.75</ele><time>2026-05-02T08:47:26Z</time></trkpt><trkpt lat="43.18660453956684" lon="13.025522811705684"><ele>354.5</ele><time>2026-05-02T08:47:27Z</time></trkpt><trkpt lat="43.186586283305886" lon="13.025372455382083"><ele>357.25</ele><time>2026-05-02T08:47:28Z</time></trkpt><trkpt lat="43.18656644811095" lon="13.025209522267431"><ele>360.0</ele><time>2026-05-02T08:47:29Z</time></trkpt><trkpt lat="43.18654396840047" lon="13.025031960996547"><ele>360.5</ele><time>2026-05-02T08:47:30Z</time></trkpt><trkpt lat="43.186515515487216" lon="13.024848572181021"><ele>361.0</ele><time>2026-05-02T08:47:31Z</time></trkpt><trkpt lat="43.18648605192482" lon="13.024681701004694"><ele>361.5</ele><time>2026-05-02T08:47:32Z</time></trkpt><trkpt lat="43.186452033771026" lon="13.02450288127332"><ele>362.0</ele><time>2026-05-02T08:47:33Z</time></trkpt><trkpt lat="43.186406213063705" lon="13.024317681259342"><ele>363.75</ele><time>2026-05-02T08:47:34Z</time></trkpt><trkpt lat="43.18636024109519" lon="13.024140684020447"><ele>365.5</ele><time>2026-05-02T08:47:35Z</time></trkpt><trkpt lat="43.186320771538895" lon="13.023953736747337"><ele>367.25</ele><time>2026-05-02T08:47:36Z</time></trkpt><trkpt lat="43.18629304215351" lon="13.023788094234183"><ele>369.0</ele><time>2026-05-02T08:47:37Z</time></trkpt><trkpt lat="43.18626901424209" lon="13.023597151353075"><ele>369.0</ele><time>2026-05-02T08:47:38Z</time></trkpt><trkpt lat="43.186260419127066" lon="13.023403332315612"><ele>369.0</ele><time>2026-05-02T08:47:39Z</time></trkpt><trkpt lat="43.18629023181609" lon="13.023233590149056"><ele>369.0</ele><time>2026-05-02T08:47:40Z</time></trkpt><trkpt lat="43.1863476746921" lon="13.023005534423369"><ele>369.0</ele><time>2026-05-02T08:47:41Z</time></trkpt><trkpt lat="43.186417535721915" lon="13.022793226047126"><ele>372.0</ele><time>2026-05-02T08:47:42Z</time></trkpt><trkpt lat="43.186474825637845" lon="13.022588354642313"><ele>375.0</ele><time>2026-05-02T08:47:43Z</time></trkpt><trkpt lat="43.18653613377853" lon="13.022362158486763"><ele>378.0</ele><time>2026-05-02T08:47:44Z</time></trkpt><trkpt lat="43.186594993194824" lon="13.022179818925048"><ele>379.59999999999997</ele><time>2026-05-02T08:47:45Z</time></trkpt><trkpt lat="43.186646190845956" lon="13.022012729165727"><ele>381.2</ele><time>2026-05-02T08:47:46Z</time></trkpt><trkpt lat="43.18668490872884" lon="13.021875703717576"><ele>382.8</ele><time>2026-05-02T08:47:47Z</time></trkpt><trkpt lat="43.186707718821204" lon="13.021762726894591"><ele>384.4</ele><time>2026-05-02T08:47:48Z</time></trkpt><trkpt lat="43.18670352608268" lon="13.021671675004049"><ele>386.0</ele><time>2026-05-02T08:47:49Z</time></trkpt><trkpt lat="43.186664003587204" lon="13.021542061933332"><ele>386.4</ele><time>2026-05-02T08:47:50Z</time></trkpt><trkpt lat="43.18658628973563" lon="13.021398217026894"><ele>386.8</ele><time>2026-05-02T08:47:51Z</time></trkpt><trkpt lat="43.18653577232734" lon="13.021301877487215"><ele>387.2</ele><time>2026-05-02T08:47:52Z</time></trkpt><trkpt lat="43.18649904331023" lon="13.021209891705782"><ele>387.59999999999997</ele><time>2026-05-02T08:47:53Z</time></trkpt><trkpt lat="43.18650879931172" lon="13.02111106018342"><ele>388.0</ele><time>2026-05-02T08:47:55Z</time></trkpt><trkpt lat="43.18659961038759" lon="13.021075188803636"><ele>388.0</ele><time>2026-05-02T08:47:57Z</time></trkpt><trkpt lat="43.18664483894566" lon="13.020987382498236"><ele>388.0</ele><time>2026-05-02T08:48:00Z</time></trkpt><trkpt lat="43.18667236082962" lon="13.020881674692529"><ele>388.0</ele><time>2026-05-02T08:48:02Z</time></trkpt><trkpt lat="43.18666436357464" lon="13.020691118669124"><ele>388.0</ele><time>2026-05-02T08:48:04Z</time></trkpt><trkpt lat="43.18665642246957" lon="13.020573662488031"><ele>388.0</ele><time>2026-05-02T08:48:05Z</time></trkpt><trkpt lat="43.18664441743536" lon="13.020454856280024"><ele>388.79999999999995</ele><time>2026-05-02T08:48:06Z</time></trkpt><trkpt lat="43.18663092853287" lon="13.02033235864197"><ele>389.6</ele><time>2026-05-02T08:48:07Z</time></trkpt><trkpt lat="43.186616911061414" lon="13.02020506088729"><ele>390.4</ele><time>2026-05-02T08:48:08Z</time></trkpt><trkpt lat="43.18660625010032" lon="13.020075113276912"><ele>391.20000000000005</ele><time>2026-05-02T08:48:09Z</time></trkpt><trkpt lat="43.18660435119706" lon="13.019937456355676"><ele>392.0</ele><time>2026-05-02T08:48:10Z</time></trkpt><trkpt lat="43.18662532860107" lon="13.019810266642983"><ele>393.40000000000003</ele><time>2026-05-02T08:48:11Z</time></trkpt><trkpt lat="43.186657228775424" lon="13.019686460062658"><ele>394.8</ele><time>2026-05-02T08:48:12Z</time></trkpt><trkpt lat="43.18672680925357" lon="13.019606245777018"><ele>396.2</ele><time>2026-05-02T08:48:13Z</time></trkpt><trkpt lat="43.186819007212414" lon="13.019566557195597"><ele>397.6</ele><time>2026-05-02T08:48:14Z</time></trkpt><trkpt lat="43.18693547298874" lon="13.019554729415809"><ele>399.0</ele><time>2026-05-02T08:48:15Z</time></trkpt><trkpt lat="43.18704393152895" lon="13.019548618766922"><ele>399.0</ele><time>2026-05-02T08:48:16Z</time></trkpt><trkpt lat="43.18714713669419" lon="13.019531786723205"><ele>399.0</ele><time>2026-05-02T08:48:17Z</time></trkpt><trkpt lat="43.18725147741661" lon="13.019514201732507"><ele>399.0</ele><time>2026-05-02T08:48:18Z</time></trkpt><trkpt lat="43.187365746907744" lon="13.019498910520786"><ele>399.0</ele><time>2026-05-02T08:48:19Z</time></trkpt><trkpt lat="43.187485915548386" lon="13.019475672909659"><ele>399.0</ele><time>2026-05-02T08:48:20Z</time></trkpt><trkpt lat="43.18760717456233" lon="13.019451966344008"><ele>400.75</ele><time>2026-05-02T08:48:21Z</time></trkpt><trkpt lat="43.18772909116595" lon="13.019429432945321"><ele>402.5</ele><time>2026-05-02T08:48:22Z</time></trkpt><trkpt lat="43.18785384808524" lon="13.019403821288012"><ele>404.25</ele><time>2026-05-02T08:48:23Z</time></trkpt><trkpt lat="43.18798197650284" lon="13.019384183469342"><ele>406.0</ele><time>2026-05-02T08:48:24Z</time></trkpt><trkpt lat="43.188113069886285" lon="13.019367742187825"><ele>407.4</ele><time>2026-05-02T08:48:25Z</time></trkpt><trkpt lat="43.18823684463525" lon="13.0193528998222"><ele>408.8</ele><time>2026-05-02T08:48:26Z</time></trkpt><trkpt lat="43.18835676882235" lon="13.019326808471341"><ele>410.2</ele><time>2026-05-02T08:48:27Z</time></trkpt><trkpt lat="43.18845050101579" lon="13.019281298738075"><ele>411.59999999999997</ele><time>2026-05-02T08:48:28Z</time></trkpt><trkpt lat="43.18852165148738" lon="13.019192505761522"><ele>413.0</ele><time>2026-05-02T08:48:29Z</time></trkpt><trkpt lat="43.18859784762472" lon="13.019071021189374"><ele>413.75</ele><time>2026-05-02T08:48:30Z</time></trkpt><trkpt lat="43.18868222833165" lon="13.018948575013114"><ele>414.5</ele><time>2026-05-02T08:48:31Z</time></trkpt><trkpt lat="43.18877318763647" lon="13.018836558370083"><ele>415.25</ele><time>2026-05-02T08:48:32Z</time></trkpt><trkpt lat="43.188856770280665" lon="13.018734249628434"><ele>416.0</ele><time>2026-05-02T08:48:33Z</time></trkpt><trkpt lat="43.18894365714608" lon="13.01863284481817"><ele>418.25</ele><time>2026-05-02T08:48:34Z</time></trkpt><trkpt lat="43.18903482847267" lon="13.018531770563932"><ele>420.5</ele><time>2026-05-02T08:48:35Z</time></trkpt><trkpt lat="43.18912171853528" lon="13.018432482584094"><ele>422.75</ele><time>2026-05-02T08:48:36Z</time></trkpt><trkpt lat="43.18918113653442" lon="13.018301625405403"><ele>425.0</ele><time>2026-05-02T08:48:37Z</time></trkpt><trkpt lat="43.18921051376311" lon="13.018128179255335"><ele>426.4</ele><time>2026-05-02T08:48:38Z</time></trkpt><trkpt lat="43.18922479438907" lon="13.017958221552519"><ele>427.8</ele><time>2026-05-02T08:48:39Z</time></trkpt><trkpt lat="43.189260787074545" lon="13.01780805189745"><ele>429.20000000000005</ele><time>2026-05-02T08:48:40Z</time></trkpt><trkpt lat="43.18931537088564" lon="13.017706342836394"><ele>430.6</ele><time>2026-05-02T08:48:41Z</time></trkpt><trkpt lat="43.18940499298077" lon="13.017654970878267"><ele>432.0</ele><time>2026-05-02T08:48:42Z</time></trkpt><trkpt lat="43.18948928370095" lon="13.017653936397226"><ele>432.0</ele><time>2026-05-02T08:48:43Z</time></trkpt><trkpt lat="43.189575360221724" lon="13.017678239828635"><ele>432.00000000000006</ele><time>2026-05-02T08:48:44Z</time></trkpt><trkpt lat="43.189690151064404" lon="13.017687594278339"><ele>432.00000000000006</ele><time>2026-05-02T08:48:45Z</time></trkpt><trkpt lat="43.18979373107165" lon="13.017671669115456"><ele>432.0</ele><time>2026-05-02T08:48:46Z</time></trkpt><trkpt lat="43.18987797124998" lon="13.017653953848823"><ele>432.0</ele><time>2026-05-02T08:48:47Z</time></trkpt><trkpt lat="43.189938874044906" lon="13.017585662565732"><ele>434.20000000000005</ele><time>2026-05-02T08:48:48Z</time></trkpt><trkpt lat="43.18995951463235" lon="13.017473102054069"><ele>436.40000000000003</ele><time>2026-05-02T08:48:49Z</time></trkpt><trkpt lat="43.18994845316405" lon="13.017355427242519"><ele>438.59999999999997</ele><time>2026-05-02T08:48:50Z</time></trkpt><trkpt lat="43.18992808512974" lon="13.017230505826"><ele>440.79999999999995</ele><time>2026-05-02T08:48:51Z</time></trkpt><trkpt lat="43.189933636717974" lon="13.017094312751546"><ele>443.0</ele><time>2026-05-02T08:48:52Z</time></trkpt><trkpt lat="43.18993750370063" lon="13.016955480805665"><ele>443.0</ele><time>2026-05-02T08:48:53Z</time></trkpt><trkpt lat="43.189960527665356" lon="13.016818435747135"><ele>443.0</ele><time>2026-05-02T08:48:54Z</time></trkpt><trkpt lat="43.18999406821652" lon="13.016658654771653"><ele>443.0</ele><time>2026-05-02T08:48:55Z</time></trkpt><trkpt lat="43.19003431667073" lon="13.01649726488943"><ele>443.0</ele><time>2026-05-02T08:48:55.999Z</time></trkpt><trkpt lat="43.190064760872104" lon="13.016329867068896"><ele>444.25</ele><time>2026-05-02T08:48:56.999Z</time></trkpt><trkpt lat="43.19010876735843" lon="13.01614618173346"><ele>445.5</ele><time>2026-05-02T08:48:57.999Z</time></trkpt><trkpt lat="43.19014695078152" lon="13.015975444176847"><ele>446.75</ele><time>2026-05-02T08:48:58.999Z</time></trkpt><trkpt lat="43.1901941511637" lon="13.01580389695457"><ele>448.0</ele><time>2026-05-02T08:48:59.999Z</time></trkpt><trkpt lat="43.190250099094904" lon="13.015620948060059"><ele>449.6666666666667</ele><time>2026-05-02T08:49:00.999Z</time></trkpt><trkpt lat="43.19029827913162" lon="13.01543767214683"><ele>451.33333333333337</ele><time>2026-05-02T08:49:01.999Z</time></trkpt><trkpt lat="43.190332735643125" lon="13.015243124138383"><ele>453.0</ele><time>2026-05-02T08:49:02.999Z</time></trkpt><trkpt lat="43.190358975123495" lon="13.015021101980246"><ele>456.0</ele><time>2026-05-02T08:49:03.999Z</time></trkpt><trkpt lat="43.19037870028624" lon="13.014790452229391"><ele>459.0</ele><time>2026-05-02T08:49:04.999Z</time></trkpt><trkpt lat="43.19039323365521" lon="13.014558667946012"><ele>462.0</ele><time>2026-05-02T08:49:05.999Z</time></trkpt><trkpt lat="43.1904025231575" lon="13.014334481734531"><ele>465.33333333333337</ele><time>2026-05-02T08:49:06.999Z</time></trkpt><trkpt lat="43.190407724189335" lon="13.01410995074521"><ele>468.6666666666667</ele><time>2026-05-02T08:49:07.999Z</time></trkpt><trkpt lat="43.19040352827749" lon="13.013896133599035"><ele>472.0</ele><time>2026-05-02T08:49:08.999Z</time></trkpt><trkpt lat="43.190394270865404" lon="13.013690782490707"><ele>472.0</ele><time>2026-05-02T08:49:09.999Z</time></trkpt><trkpt lat="43.19039266229621" lon="13.01349097325766"><ele>472.0</ele><time>2026-05-02T08:49:10.999Z</time></trkpt><trkpt lat="43.19035589080676" lon="13.013320201646591"><ele>472.0</ele><time>2026-05-02T08:49:11.999Z</time></trkpt><trkpt lat="43.19032486418604" lon="13.013154311141744"><ele>472.0</ele><time>2026-05-02T08:49:12.999Z</time></trkpt><trkpt lat="43.19028870226206" lon="13.012987214348875"><ele>475.0</ele><time>2026-05-02T08:49:13.999Z</time></trkpt><trkpt lat="43.190228491763634" lon="13.012839166730776"><ele>478.0</ele><time>2026-05-02T08:49:14.999Z</time></trkpt><trkpt lat="43.190135773541456" lon="13.012727547396093"><ele>481.0</ele><time>2026-05-02T08:49:15.999Z</time></trkpt><trkpt lat="43.19000270976505" lon="13.012669813667747"><ele>484.0</ele><time>2026-05-02T08:49:16.999Z</time></trkpt><trkpt lat="43.18988468260289" lon="13.012588605414294"><ele>483.79999999999995</ele><time>2026-05-02T08:49:17.999Z</time></trkpt><trkpt lat="43.18977911279668" lon="13.01250433674882"><ele>483.59999999999997</ele><time>2026-05-02T08:49:18.999Z</time></trkpt><trkpt lat="43.189702525419555" lon="13.012415825096276"><ele>483.4</ele><time>2026-05-02T08:49:19.999Z</time></trkpt><trkpt lat="43.189676251648535" lon="13.012291468927955"><ele>483.2</ele><time>2026-05-02T08:49:20.999Z</time></trkpt><trkpt lat="43.18964121792012" lon="13.01214933355321"><ele>483.0</ele><time>2026-05-02T08:49:22.001Z</time></trkpt><trkpt lat="43.189589593445994" lon="13.012017117487263"><ele>485.0</ele><time>2026-05-02T08:49:23.001Z</time></trkpt><trkpt lat="43.18956242676946" lon="13.011905893219126"><ele>487.0</ele><time>2026-05-02T08:49:24.001Z</time></trkpt><trkpt lat="43.18953640226838" lon="13.011805518003175"><ele>489.0</ele><time>2026-05-02T08:49:25.001Z</time></trkpt><trkpt lat="43.189515668573144" lon="13.011698857384092"><ele>491.0</ele><time>2026-05-02T08:49:26.001Z</time></trkpt><trkpt lat="43.18950436050185" lon="13.011607166724497"><ele>493.0</ele><time>2026-05-02T08:49:27.001Z</time></trkpt><trkpt lat="43.189512597540585" lon="13.011468721503915"><ele>495.0</ele><time>2026-05-02T08:49:29.001Z</time></trkpt><trkpt lat="43.18955486606265" lon="13.011402386545024"><ele>497.2</ele><time>2026-05-02T08:49:31.001Z</time></trkpt><trkpt lat="43.18954961021805" lon="13.011274336366789"><ele>499.4</ele><time>2026-05-02T08:49:33.001Z</time></trkpt><trkpt lat="43.18949723038459" lon="13.011156996589877"><ele>501.6</ele><time>2026-05-02T08:49:35Z</time></trkpt><trkpt lat="43.189419640745335" lon="13.011139914801356"><ele>503.8</ele><time>2026-05-02T08:49:36Z</time></trkpt><trkpt lat="43.18932103093141" lon="13.01111170377805"><ele>506.0</ele><time>2026-05-02T08:49:37Z</time></trkpt><trkpt lat="43.18923778025468" lon="13.01108469384668"><ele>505.99999999999994</ele><time>2026-05-02T08:49:38Z</time></trkpt><trkpt lat="43.18914756155111" lon="13.011087979848092"><ele>506.0</ele><time>2026-05-02T08:49:39Z</time></trkpt><trkpt lat="43.1890667373257" lon="13.011148103206557"><ele>506.0</ele><time>2026-05-02T08:49:40Z</time></trkpt><trkpt lat="43.18899986163085" lon="13.011217247413308"><ele>506.0</ele><time>2026-05-02T08:49:41Z</time></trkpt><trkpt lat="43.18892658170801" lon="13.011242984106849"><ele>505.99999999999994</ele><time>2026-05-02T08:49:42Z</time></trkpt><trkpt lat="43.18885181057391" lon="13.011209116066134"><ele>506.0</ele><time>2026-05-02T08:49:43Z</time></trkpt><trkpt lat="43.18878255294736" lon="13.01116388529805"><ele>504.6</ele><time>2026-05-02T08:49:44Z</time></trkpt><trkpt lat="43.18870663881299" lon="13.011110388694572"><ele>503.20000000000005</ele><time>2026-05-02T08:49:45Z</time></trkpt><trkpt lat="43.18860961840429" lon="13.011056855109974"><ele>501.79999999999995</ele><time>2026-05-02T08:49:46Z</time></trkpt><trkpt lat="43.18851714199023" lon="13.011029518475745"><ele>500.4</ele><time>2026-05-02T08:49:47Z</time></trkpt><trkpt lat="43.18841784604009" lon="13.011065383420798"><ele>499.0</ele><time>2026-05-02T08:49:48Z</time></trkpt><trkpt lat="43.18831964434614" lon="13.011098672097669"><ele>499.0</ele><time>2026-05-02T08:49:49Z</time></trkpt><trkpt lat="43.18824621790177" lon="13.011102192716002"><ele>499.0</ele><time>2026-05-02T08:49:50Z</time></trkpt><trkpt lat="43.188157592954525" lon="13.011064819296944"><ele>499.0</ele><time>2026-05-02T08:49:51Z</time></trkpt><trkpt lat="43.188057530049264" lon="13.011025337126975"><ele>499.0</ele><time>2026-05-02T08:49:52Z</time></trkpt><trkpt lat="43.187958063180346" lon="13.01097331203382"><ele>499.0</ele><time>2026-05-02T08:49:53Z</time></trkpt><trkpt lat="43.18786796896424" lon="13.010924105055116"><ele>498.0</ele><time>2026-05-02T08:49:54Z</time></trkpt><trkpt lat="43.18777614019195" lon="13.01086773147882"><ele>497.0</ele><time>2026-05-02T08:49:55Z</time></trkpt><trkpt lat="43.187695320518145" lon="13.0108387574047"><ele>496.0</ele><time>2026-05-02T08:49:56Z</time></trkpt><trkpt lat="43.187612749629935" lon="13.010854658199566"><ele>495.0</ele><time>2026-05-02T08:49:57Z</time></trkpt><trkpt lat="43.187508042812894" lon="13.01090814426203"><ele>494.0</ele><time>2026-05-02T08:49:58Z</time></trkpt><trkpt lat="43.1874116175043" lon="13.01097038076464"><ele>492.16666666666663</ele><time>2026-05-02T08:49:59Z</time></trkpt><trkpt lat="43.18732714135568" lon="13.010980989565091"><ele>490.3333333333333</ele><time>2026-05-02T08:50:00Z</time></trkpt><trkpt lat="43.187244523338464" lon="13.010935276609754"><ele>488.5</ele><time>2026-05-02T08:50:01Z</time></trkpt><trkpt lat="43.187177360902034" lon="13.01086378165484"><ele>486.66666666666663</ele><time>2026-05-02T08:50:02Z</time></trkpt><trkpt lat="43.187127871198406" lon="13.010759010189446"><ele>484.8333333333333</ele><time>2026-05-02T08:50:03Z</time></trkpt><trkpt lat="43.18707281432989" lon="13.01069767355331"><ele>483.0</ele><time>2026-05-02T08:50:04Z</time></trkpt><trkpt lat="43.18700176900245" lon="13.010684393305732"><ele>482.6666666666667</ele><time>2026-05-02T08:50:05Z</time></trkpt><trkpt lat="43.18693804922142" lon="13.010633704603933"><ele>482.33333333333337</ele><time>2026-05-02T08:50:07Z</time></trkpt><trkpt lat="43.18696552884133" lon="13.010466125648962"><ele>482.0</ele><time>2026-05-02T08:50:09Z</time></trkpt><trkpt lat="43.18699763783815" lon="13.010368297722739"><ele>481.6666666666667</ele><time>2026-05-02T08:50:10Z</time></trkpt><trkpt lat="43.18703677023047" lon="13.010290657584743"><ele>481.33333333333337</ele><time>2026-05-02T08:50:11Z</time></trkpt><trkpt lat="43.18707126745268" lon="13.01020342788105"><ele>481.0</ele><time>2026-05-02T08:50:12Z</time></trkpt><trkpt lat="43.187101964428116" lon="13.010082835118363"><ele>482.8</ele><time>2026-05-02T08:50:13Z</time></trkpt><trkpt lat="43.1871317351389" lon="13.009942068127849"><ele>484.6</ele><time>2026-05-02T08:50:14Z</time></trkpt><trkpt lat="43.18717131483601" lon="13.009840472093767"><ele>486.4</ele><time>2026-05-02T08:50:15Z</time></trkpt><trkpt lat="43.18716005986258" lon="13.009704158809642"><ele>488.2</ele><time>2026-05-02T08:50:17Z</time></trkpt><trkpt lat="43.18707283558658" lon="13.009670185278742"><ele>490.0</ele><time>2026-05-02T08:50:19Z</time></trkpt><trkpt lat="43.18700558552804" lon="13.009698409427953"><ele>490.00000000000006</ele><time>2026-05-02T08:50:21Z</time></trkpt><trkpt lat="43.18696137576336" lon="13.009812709949601"><ele>490.0</ele><time>2026-05-02T08:50:23Z</time></trkpt><trkpt lat="43.1868588878954" lon="13.00990417392852"><ele>490.0</ele><time>2026-05-02T08:50:25Z</time></trkpt><trkpt lat="43.18679446789623" lon="13.009922072910397"><ele>490.0</ele><time>2026-05-02T08:50:26Z</time></trkpt><trkpt lat="43.18669778330599" lon="13.00995280238901"><ele>490.00000000000006</ele><time>2026-05-02T08:50:28Z</time></trkpt><trkpt lat="43.18663632733103" lon="13.009924023586104"><ele>490.0</ele><time>2026-05-02T08:50:30Z</time></trkpt><trkpt lat="43.18658751560495" lon="13.009817167765368"><ele>490.0</ele><time>2026-05-02T08:50:32Z</time></trkpt><trkpt lat="43.186514183763386" lon="13.009724627344047"><ele>490.0</ele><time>2026-05-02T08:50:33Z</time></trkpt><trkpt lat="43.18645214285654" lon="13.009673495950523"><ele>490.0</ele><time>2026-05-02T08:50:34Z</time></trkpt><trkpt lat="43.18632850962209" lon="13.009662382840133"><ele>490.0</ele><time>2026-05-02T08:50:36Z</time></trkpt><trkpt lat="43.18624607496261" lon="13.00964813578473"><ele>490.0</ele><time>2026-05-02T08:50:37Z</time></trkpt><trkpt lat="43.18617230061302" lon="13.00960382808121"><ele>486.6</ele><time>2026-05-02T08:50:38Z</time></trkpt><trkpt lat="43.186082346881044" lon="13.009562351381764"><ele>483.2</ele><time>2026-05-02T08:50:39Z</time></trkpt><trkpt lat="43.18598931015157" lon="13.00954573143855"><ele>479.79999999999995</ele><time>2026-05-02T08:50:40Z</time></trkpt><trkpt lat="43.185893684604856" lon="13.009454895071979"><ele>476.4</ele><time>2026-05-02T08:50:42Z</time></trkpt><trkpt lat="43.185811699941326" lon="13.009376742393496"><ele>473.0</ele><time>2026-05-02T08:50:44Z</time></trkpt><trkpt lat="43.18574635258469" lon="13.009407217370143"><ele>470.8571428571429</ele><time>2026-05-02T08:50:45Z</time></trkpt><trkpt lat="43.18567613236293" lon="13.009431122750238"><ele>468.71428571428567</ele><time>2026-05-02T08:50:45.999Z</time></trkpt><trkpt lat="43.18560951849782" lon="13.009404843339167"><ele>466.57142857142856</ele><time>2026-05-02T08:50:46.999Z</time></trkpt><trkpt lat="43.18553548362632" lon="13.009360008970681"><ele>464.42857142857144</ele><time>2026-05-02T08:50:47.999Z</time></trkpt><trkpt lat="43.185468100695665" lon="13.009311863849504"><ele>462.28571428571433</ele><time>2026-05-02T08:50:48.999Z</time></trkpt><trkpt lat="43.185406386391" lon="13.009273073918319"><ele>460.1428571428571</ele><time>2026-05-02T08:50:49.999Z</time></trkpt><trkpt lat="43.18533172616637" lon="13.009241412394179"><ele>458.0</ele><time>2026-05-02T08:50:50.999Z</time></trkpt><trkpt lat="43.18525181408434" lon="13.009239714864599"><ele>458.0</ele><time>2026-05-02T08:50:51.999Z</time></trkpt><trkpt lat="43.18513940663609" lon="13.009199884106064"><ele>457.99999999999994</ele><time>2026-05-02T08:50:53.999Z</time></trkpt><trkpt lat="43.1850703467864" lon="13.009167254209029"><ele>457.99999999999994</ele><time>2026-05-02T08:50:54.999Z</time></trkpt><trkpt lat="43.184964200690196" lon="13.009083661214301"><ele>458.0</ele><time>2026-05-02T08:50:56.999Z</time></trkpt><trkpt lat="43.18490217870683" lon="13.009041364150855"><ele>458.0</ele><time>2026-05-02T08:50:57.999Z</time></trkpt><trkpt lat="43.18479790503164" lon="13.008956211433517"><ele>462.0</ele><time>2026-05-02T08:50:59.999Z</time></trkpt><trkpt lat="43.18473427903287" lon="13.008916375114614"><ele>465.99999999999994</ele><time>2026-05-02T08:51:00.999Z</time></trkpt><trkpt lat="43.184612730085135" lon="13.008871419393447"><ele>469.99999999999994</ele><time>2026-05-02T08:51:02.999Z</time></trkpt><trkpt lat="43.184527717978064" lon="13.008849877739088"><ele>474.0</ele><time>2026-05-02T08:51:03.999Z</time></trkpt><trkpt lat="43.18444863643529" lon="13.008821339241736"><ele>478.0</ele><time>2026-05-02T08:51:04.999Z</time></trkpt><trkpt lat="43.18435947216848" lon="13.008787657131169"><ele>478.0</ele><time>2026-05-02T08:51:05.999Z</time></trkpt><trkpt lat="43.18427961429806" lon="13.008746801057828"><ele>477.99999999999994</ele><time>2026-05-02T08:51:06.999Z</time></trkpt><trkpt lat="43.184186025075654" lon="13.008732536946667"><ele>477.99999999999994</ele><time>2026-05-02T08:51:07.999Z</time></trkpt><trkpt lat="43.184076652230374" lon="13.008772382347223"><ele>478.0</ele><time>2026-05-02T08:51:08.999Z</time></trkpt><trkpt lat="43.18395268649276" lon="13.008817803567357"><ele>478.0</ele><time>2026-05-02T08:51:09.999Z</time></trkpt><trkpt lat="43.18385621412298" lon="13.008871477065629"><ele>478.50000000000006</ele><time>2026-05-02T08:51:10.999Z</time></trkpt><trkpt lat="43.183798832778734" lon="13.008924931131686"><ele>479.0</ele><time>2026-05-02T08:51:11.999Z</time></trkpt><trkpt lat="43.183726841182946" lon="13.008965748826752"><ele>479.5</ele><time>2026-05-02T08:51:12.999Z</time></trkpt><trkpt lat="43.18364076564428" lon="13.00895628809765"><ele>480.0</ele><time>2026-05-02T08:51:13.999Z</time></trkpt><trkpt lat="43.18354779282005" lon="13.008903390246479"><ele>480.50000000000006</ele><time>2026-05-02T08:51:14.999Z</time></trkpt><trkpt lat="43.18346859160947" lon="13.008838212440383"><ele>481.0</ele><time>2026-05-02T08:51:15.999Z</time></trkpt><trkpt lat="43.18332205532895" lon="13.008847551834522"><ele>481.0</ele><time>2026-05-02T08:51:17.999Z</time></trkpt><trkpt lat="43.18322297618197" lon="13.008829255476737"><ele>481.0</ele><time>2026-05-02T08:51:18.999Z</time></trkpt><trkpt lat="43.18313922854973" lon="13.008788319247122"><ele>481.0</ele><time>2026-05-02T08:51:19.999Z</time></trkpt><trkpt lat="43.183052900525745" lon="13.008713049071163"><ele>481.0</ele><time>2026-05-02T08:51:20.999Z</time></trkpt><trkpt lat="43.182952653314" lon="13.008651647523077"><ele>481.0</ele><time>2026-05-02T08:51:21.999Z</time></trkpt><trkpt lat="43.18288375910173" lon="13.008586224429413"><ele>478.4</ele><time>2026-05-02T08:51:22.999Z</time></trkpt><trkpt lat="43.1828129110311" lon="13.008512872463061"><ele>475.8</ele><time>2026-05-02T08:51:24.999Z</time></trkpt><trkpt lat="43.18273384685629" lon="13.008501737905998"><ele>473.19999999999993</ele><time>2026-05-02T08:51:25.999Z</time></trkpt><trkpt lat="43.18260265353886" lon="13.008437690100902"><ele>470.59999999999997</ele><time>2026-05-02T08:51:28Z</time></trkpt><trkpt lat="43.1825435307455" lon="13.008404498725124"><ele>468.0</ele><time>2026-05-02T08:51:29Z</time></trkpt><trkpt lat="43.1824512689465" lon="13.008380092412466"><ele>467.59999999999997</ele><time>2026-05-02T08:51:30Z</time></trkpt><trkpt lat="43.18234228150836" lon="13.008367703942431"><ele>467.19999999999993</ele><time>2026-05-02T08:51:31Z</time></trkpt><trkpt lat="43.1822427366561" lon="13.008354867430533"><ele>466.8</ele><time>2026-05-02T08:51:32Z</time></trkpt><trkpt lat="43.18215684652432" lon="13.008324501355599"><ele>466.4</ele><time>2026-05-02T08:51:33Z</time></trkpt><trkpt lat="43.18206014521907" lon="13.008256615164063"><ele>466.0</ele><time>2026-05-02T08:51:34Z</time></trkpt><trkpt lat="43.18198792899825" lon="13.0081941475918"><ele>466.0</ele><time>2026-05-02T08:51:35Z</time></trkpt><trkpt lat="43.18190807176666" lon="13.008122940451207"><ele>466.0</ele><time>2026-05-02T08:51:36Z</time></trkpt><trkpt lat="43.18183613571092" lon="13.008033261193097"><ele>466.0</ele><time>2026-05-02T08:51:37Z</time></trkpt><trkpt lat="43.181781157616165" lon="13.007927995411082"><ele>466.0</ele><time>2026-05-02T08:51:38Z</time></trkpt><trkpt lat="43.18172330371783" lon="13.007846689871814"><ele>466.0</ele><time>2026-05-02T08:51:39Z</time></trkpt><trkpt lat="43.18162880476625" lon="13.007766334143302"><ele>466.0</ele><time>2026-05-02T08:51:40Z</time></trkpt><trkpt lat="43.1815430407859" lon="13.007741488504825"><ele>466.0</ele><time>2026-05-02T08:51:41Z</time></trkpt><trkpt lat="43.18145183212512" lon="13.00767523400266"><ele>466.0</ele><time>2026-05-02T08:51:42Z</time></trkpt><trkpt lat="43.18134948241193" lon="13.007601151485142"><ele>466.0</ele><time>2026-05-02T08:51:43Z</time></trkpt><trkpt lat="43.18127628927515" lon="13.007509501208308"><ele>466.0</ele><time>2026-05-02T08:51:44Z</time></trkpt><trkpt lat="43.18120812496971" lon="13.007404666519744"><ele>463.83333333333337</ele><time>2026-05-02T08:51:45Z</time></trkpt><trkpt lat="43.181155181331384" lon="13.007314606695287"><ele>461.6666666666667</ele><time>2026-05-02T08:51:46Z</time></trkpt><trkpt lat="43.181189151272484" lon="13.00724082590201"><ele>459.5</ele><time>2026-05-02T08:51:55Z</time></trkpt><trkpt lat="43.18126912904309" lon="13.00720937140962"><ele>457.33333333333337</ele><time>2026-05-02T08:51:57Z</time></trkpt><trkpt lat="43.18134174598069" lon="13.00721163095664"><ele>455.1666666666667</ele><time>2026-05-02T08:51:58Z</time></trkpt><trkpt lat="43.18141526378792" lon="13.007192543595817"><ele>453.0</ele><time>2026-05-02T08:51:59Z</time></trkpt><trkpt lat="43.18150508902094" lon="13.00722288150623"><ele>456.1666666666667</ele><time>2026-05-02T08:52:00Z</time></trkpt><trkpt lat="43.18157020906834" lon="13.00724900527852"><ele>459.33333333333337</ele><time>2026-05-02T08:52:01Z</time></trkpt><trkpt lat="43.18163397661255" lon="13.007243706951042"><ele>462.5</ele><time>2026-05-02T08:52:02Z</time></trkpt><trkpt lat="43.181710430425476" lon="13.007224546551715"><ele>465.6666666666667</ele><time>2026-05-02T08:52:03Z</time></trkpt><trkpt lat="43.18178512695386" lon="13.007214754261435"><ele>468.83333333333337</ele><time>2026-05-02T08:52:04Z</time></trkpt><trkpt lat="43.18191735399603" lon="13.00720068032833"><ele>472.0</ele><time>2026-05-02T08:52:06Z</time></trkpt><trkpt lat="43.18198280469233" lon="13.00722968817463"><ele>472.0</ele><time>2026-05-02T08:52:07Z</time></trkpt><trkpt lat="43.18207760852523" lon="13.007376185847278"><ele>472.00000000000006</ele><time>2026-05-02T08:52:09Z</time></trkpt><trkpt lat="43.182140760681094" lon="13.007441820883827"><ele>472.00000000000006</ele><time>2026-05-02T08:52:10Z</time></trkpt><trkpt lat="43.18222081206919" lon="13.007510796093163"><ele>472.0</ele><time>2026-05-02T08:52:11Z</time></trkpt><trkpt lat="43.18229118506182" lon="13.007554288663075"><ele>472.0</ele><time>2026-05-02T08:52:12Z</time></trkpt><trkpt lat="43.182356499809565" lon="13.00761825067434"><ele>474.40000000000003</ele><time>2026-05-02T08:52:13Z</time></trkpt><trkpt lat="43.18244865189186" lon="13.007626972311314"><ele>476.80000000000007</ele><time>2026-05-02T08:52:15Z</time></trkpt><trkpt lat="43.18254317199049" lon="13.007525642398745"><ele>479.2</ele><time>2026-05-02T08:52:17Z</time></trkpt><trkpt lat="43.18263571782925" lon="13.007398694968602"><ele>481.6</ele><time>2026-05-02T08:52:19Z</time></trkpt><trkpt lat="43.182667724975" lon="13.007304223682652"><ele>484.0</ele><time>2026-05-02T08:52:20Z</time></trkpt><trkpt lat="43.182701643826086" lon="13.007229955281261"><ele>484.83333333333337</ele><time>2026-05-02T08:52:21Z</time></trkpt><trkpt lat="43.182729996876304" lon="13.007143302562612"><ele>485.6666666666667</ele><time>2026-05-02T08:52:22Z</time></trkpt><trkpt lat="43.1827583415937" lon="13.007032904617029"><ele>486.5</ele><time>2026-05-02T08:52:23Z</time></trkpt><trkpt lat="43.18278249478724" lon="13.006927231480462"><ele>487.33333333333337</ele><time>2026-05-02T08:52:24Z</time></trkpt><trkpt lat="43.18282918473329" lon="13.006799508269406"><ele>488.1666666666667</ele><time>2026-05-02T08:52:25Z</time></trkpt><trkpt lat="43.18286312884932" lon="13.00669359864809"><ele>489.0</ele><time>2026-05-02T08:52:26Z</time></trkpt><trkpt lat="43.18290466520651" lon="13.006592929425173"><ele>489.0</ele><time>2026-05-02T08:52:28Z</time></trkpt><trkpt lat="43.183014161104694" lon="13.0066789863129"><ele>489.0</ele><time>2026-05-02T08:52:30Z</time></trkpt><trkpt lat="43.1830894662368" lon="13.006764019039702"><ele>489.0</ele><time>2026-05-02T08:52:31Z</time></trkpt><trkpt lat="43.1831933108948" lon="13.006801748990194"><ele>489.0</ele><time>2026-05-02T08:52:32Z</time></trkpt><trkpt lat="43.18329684129523" lon="13.006804054343531"><ele>489.0</ele><time>2026-05-02T08:52:33Z</time></trkpt><trkpt lat="43.18339616918488" lon="13.00681096559339"><ele>490.8333333333333</ele><time>2026-05-02T08:52:34Z</time></trkpt><trkpt lat="43.183467467172036" lon="13.006817021409109"><ele>492.66666666666663</ele><time>2026-05-02T08:52:35Z</time></trkpt><trkpt lat="43.183549160039206" lon="13.006853952467289"><ele>494.5</ele><time>2026-05-02T08:52:36Z</time></trkpt><trkpt lat="43.18365204497354" lon="13.00688704296151"><ele>496.3333333333333</ele><time>2026-05-02T08:52:38Z</time></trkpt><trkpt lat="43.18372597446211" lon="13.006898357253002"><ele>498.16666666666663</ele><time>2026-05-02T08:52:39Z</time></trkpt><trkpt lat="43.18379953347982" lon="13.006904199439475"><ele>500.0</ele><time>2026-05-02T08:52:40Z</time></trkpt><trkpt lat="43.18388801358" lon="13.006908223764562"><ele>499.99999999999994</ele><time>2026-05-02T08:52:41Z</time></trkpt><trkpt lat="43.18396966197511" lon="13.006888364793523"><ele>500.0</ele><time>2026-05-02T08:52:42Z</time></trkpt><trkpt lat="43.18405299693379" lon="13.00688082595414"><ele>500.0</ele><time>2026-05-02T08:52:43Z</time></trkpt><trkpt lat="43.18412607316248" lon="13.006883191515737"><ele>500.0</ele><time>2026-05-02T08:52:44Z</time></trkpt><trkpt lat="43.184188045561754" lon="13.006845536444223"><ele>499.99999999999994</ele><time>2026-05-02T08:52:45Z</time></trkpt><trkpt lat="43.18426253495974" lon="13.006774449391195"><ele>500.0</ele><time>2026-05-02T08:52:45.999Z</time></trkpt><trkpt lat="43.18436502123896" lon="13.006715600096715"><ele>502.3333333333333</ele><time>2026-05-02T08:53:19.999Z</time></trkpt><trkpt lat="43.18447187083393" lon="13.006722469378436"><ele>504.66666666666663</ele><time>2026-05-02T08:53:21.999Z</time></trkpt><trkpt lat="43.18454844342665" lon="13.006734905926303"><ele>507.0</ele><time>2026-05-02T08:53:22.999Z</time></trkpt><trkpt lat="43.18463242461728" lon="13.006720808946527"><ele>509.33333333333337</ele><time>2026-05-02T08:53:23.999Z</time></trkpt><trkpt lat="43.184721561568594" lon="13.00669453423037"><ele>511.6666666666667</ele><time>2026-05-02T08:53:24.999Z</time></trkpt><trkpt lat="43.18478957829999" lon="13.006666389662694"><ele>514.0</ele><time>2026-05-02T08:53:25.999Z</time></trkpt><trkpt lat="43.18487330267932" lon="13.006649297100447"><ele>518.0</ele><time>2026-05-02T08:53:26.999Z</time></trkpt><trkpt lat="43.18495853500489" lon="13.00660258829432"><ele>522.0</ele><time>2026-05-02T08:53:27.999Z</time></trkpt><trkpt lat="43.185019764930544" lon="13.006546743573221"><ele>526.0</ele><time>2026-05-02T08:53:28.999Z</time></trkpt><trkpt lat="43.18508586680044" lon="13.00650244388384"><ele>530.0</ele><time>2026-05-02T08:53:29.999Z</time></trkpt><trkpt lat="43.18517432490044" lon="13.00648414141104"><ele>534.0</ele><time>2026-05-02T08:53:30.999Z</time></trkpt><trkpt lat="43.185252234965766" lon="13.006461468614384"><ele>538.0</ele><time>2026-05-02T08:53:31.999Z</time></trkpt><trkpt lat="43.18532445743155" lon="13.006437598793957"><ele>538.0</ele><time>2026-05-02T08:53:32.999Z</time></trkpt><trkpt lat="43.18539263649188" lon="13.006400736902805"><ele>538.0</ele><time>2026-05-02T08:53:37Z</time></trkpt><trkpt lat="43.185495423750815" lon="13.006378219084924"><ele>538.0</ele><time>2026-05-02T08:53:40Z</time></trkpt><trkpt lat="43.18559150611209" lon="13.006360300714285"><ele>538.0</ele><time>2026-05-02T08:53:42Z</time></trkpt><trkpt lat="43.18570671354125" lon="13.00635106712877"><ele>538.0</ele><time>2026-05-02T08:53:44Z</time></trkpt><trkpt lat="43.18583131293729" lon="13.006366523984541"><ele>539.1666666666667</ele><time>2026-05-02T08:53:46Z</time></trkpt><trkpt lat="43.18590186951972" lon="13.006393681016892"><ele>540.3333333333334</ele><time>2026-05-02T08:53:47Z</time></trkpt><trkpt lat="43.185985569683204" lon="13.006411636749256"><ele>541.5</ele><time>2026-05-02T08:53:48Z</time></trkpt><trkpt lat="43.18607566082149" lon="13.006441626532176"><ele>542.6666666666666</ele><time>2026-05-02T08:53:49Z</time></trkpt><trkpt lat="43.18617965576468" lon="13.006460594037925"><ele>543.8333333333333</ele><time>2026-05-02T08:53:50Z</time></trkpt><trkpt lat="43.18625364303264" lon="13.0064810928279"><ele>545.0</ele><time>2026-05-02T08:53:51Z</time></trkpt><trkpt lat="43.18631447398204" lon="13.006513661145258"><ele>545.0</ele><time>2026-05-02T08:53:52Z</time></trkpt><trkpt lat="43.18639316461745" lon="13.00654210349193"><ele>545.0</ele><time>2026-05-02T08:53:53Z</time></trkpt><trkpt lat="43.18648909246014" lon="13.006544612702706"><ele>545.0</ele><time>2026-05-02T08:53:54Z</time></trkpt><trkpt lat="43.18659673354591" lon="13.006553899246885"><ele>545.0</ele><time>2026-05-02T08:53:55Z</time></trkpt><trkpt lat="43.18665860428768" lon="13.006577171242082"><ele>545.0</ele><time>2026-05-02T08:53:56Z</time></trkpt><trkpt lat="43.18674213855929" lon="13.00661719638213"><ele>545.0</ele><time>2026-05-02T08:53:57Z</time></trkpt><trkpt lat="43.18682013084338" lon="13.006629355214772"><ele>544.6666666666666</ele><time>2026-05-02T08:53:58Z</time></trkpt><trkpt lat="43.1868873737098" lon="13.006657289028682"><ele>544.3333333333333</ele><time>2026-05-02T08:53:59Z</time></trkpt><trkpt lat="43.186951337288015" lon="13.006718390712564"><ele>544.0</ele><time>2026-05-02T08:54:00Z</time></trkpt><trkpt lat="43.187005605550816" lon="13.006800970765893"><ele>543.6666666666666</ele><time>2026-05-02T08:54:01Z</time></trkpt><trkpt lat="43.1870548626436" lon="13.006888408055323"><ele>543.3333333333334</ele><time>2026-05-02T08:54:02Z</time></trkpt><trkpt lat="43.187117613618625" lon="13.006977530855714"><ele>543.0</ele><time>2026-05-02T08:54:03Z</time></trkpt><trkpt lat="43.187200775634956" lon="13.007060565668048"><ele>543.0</ele><time>2026-05-02T08:54:04Z</time></trkpt><trkpt lat="43.18728567444732" lon="13.007112438492317"><ele>543.0</ele><time>2026-05-02T08:54:05Z</time></trkpt><trkpt lat="43.187368802336636" lon="13.007108090157706"><ele>543.0</ele><time>2026-05-02T08:54:06Z</time></trkpt><trkpt lat="43.187472179445244" lon="13.007078353079049"><ele>543.0</ele><time>2026-05-02T08:54:07Z</time></trkpt><trkpt lat="43.18756783439305" lon="13.007086417814175"><ele>543.0</ele><time>2026-05-02T08:54:08Z</time></trkpt><trkpt lat="43.18766122633835" lon="13.007086187348463"><ele>546.1666666666666</ele><time>2026-05-02T08:54:09Z</time></trkpt><trkpt lat="43.18774087167982" lon="13.00708525369144"><ele>549.3333333333334</ele><time>2026-05-02T08:54:10Z</time></trkpt><trkpt lat="43.18781359461573" lon="13.007059677782404"><ele>552.5</ele><time>2026-05-02T08:54:11Z</time></trkpt><trkpt lat="43.187880336737024" lon="13.007007109783338"><ele>555.6666666666667</ele><time>2026-05-02T08:54:12Z</time></trkpt><trkpt lat="43.18795654934219" lon="13.00696042557483"><ele>558.8333333333334</ele><time>2026-05-02T08:54:13Z</time></trkpt><trkpt lat="43.18801658404174" lon="13.006925782970187"><ele>562.0</ele><time>2026-05-02T08:54:14Z</time></trkpt><trkpt lat="43.18810890163534" lon="13.006923956492988"><ele>564.8000000000001</ele><time>2026-05-02T08:54:15Z</time></trkpt><trkpt lat="43.1881897861254" lon="13.006924418883548"><ele>567.6</ele><time>2026-05-02T08:54:16Z</time></trkpt><trkpt lat="43.18826217431399" lon="13.006932277408376"><ele>570.4000000000001</ele><time>2026-05-02T08:54:17Z</time></trkpt><trkpt lat="43.18834646761246" lon="13.006976497059076"><ele>573.2</ele><time>2026-05-02T08:54:19Z</time></trkpt><trkpt lat="43.188433625303034" lon="13.00688854369463"><ele>576.0</ele><time>2026-05-02T08:54:21Z</time></trkpt><trkpt lat="43.18854639251276" lon="13.006778003035398"><ele>576.0</ele><time>2026-05-02T08:54:23Z</time></trkpt><trkpt lat="43.18859490526776" lon="13.006714651569975"><ele>576.0</ele><time>2026-05-02T08:54:24Z</time></trkpt><trkpt lat="43.18864054364631" lon="13.0065950059546"><ele>576.0</ele><time>2026-05-02T08:54:26Z</time></trkpt><trkpt lat="43.18865679583542" lon="13.006453272723498"><ele>576.0</ele><time>2026-05-02T08:54:28Z</time></trkpt><trkpt lat="43.188729412687984" lon="13.006420233656526"><ele>576.0</ele><time>2026-05-02T08:54:30Z</time></trkpt><trkpt lat="43.188763147801765" lon="13.006309115340278"><ele>576.0</ele><time>2026-05-02T08:54:32Z</time></trkpt><trkpt lat="43.18883203086444" lon="13.00627487872134"><ele>579.6666666666666</ele><time>2026-05-02T08:54:35Z</time></trkpt><trkpt lat="43.188922465587964" lon="13.006259024760775"><ele>583.3333333333334</ele><time>2026-05-02T08:54:38Z</time></trkpt><trkpt lat="43.18900568160376" lon="13.006237926584465"><ele>587.0</ele><time>2026-05-02T08:54:40Z</time></trkpt><trkpt lat="43.18908945786056" lon="13.006158445841418"><ele>590.6666666666667</ele><time>2026-05-02T08:54:42Z</time></trkpt><trkpt lat="43.189046687968315" lon="13.006062935519108"><ele>594.3333333333334</ele><time>2026-05-02T08:54:45Z</time></trkpt><trkpt lat="43.18896540340807" lon="13.00602529635404"><ele>598.0</ele><time>2026-05-02T08:55:14.999Z</time></trkpt><trkpt lat="43.18885699132679" lon="13.005974262494068"><ele>598.0</ele><time>2026-05-02T08:55:16.999Z</time></trkpt><trkpt lat="43.188792617988675" lon="13.005935512835821"><ele>598.0</ele><time>2026-05-02T08:55:17.999Z</time></trkpt><trkpt lat="43.1887256246658" lon="13.0058948592206"><ele>598.0</ele><time>2026-05-02T08:55:18.999Z</time></trkpt><trkpt lat="43.18861953518181" lon="13.005838395437284"><ele>598.0</ele><time>2026-05-02T08:55:19.999Z</time></trkpt><trkpt lat="43.18850818957333" lon="13.005772132056846"><ele>598.0</ele><time>2026-05-02T08:55:20.999Z</time></trkpt><trkpt lat="43.18842405356489" lon="13.005728097766154"><ele>599.3333333333334</ele><time>2026-05-02T08:55:21.999Z</time></trkpt><trkpt lat="43.18837002565204" lon="13.005671561104318"><ele>600.6666666666667</ele><time>2026-05-02T08:55:22.999Z</time></trkpt><trkpt lat="43.1883101797482" lon="13.00562092142635"><ele>602.0</ele><time>2026-05-02T08:55:23.999Z</time></trkpt><trkpt lat="43.188245407237844" lon="13.005548325638749"><ele>603.3333333333334</ele><time>2026-05-02T08:55:24.999Z</time></trkpt><trkpt lat="43.188187175299916" lon="13.005462371143407"><ele>604.6666666666666</ele><time>2026-05-02T08:55:25.999Z</time></trkpt><trkpt lat="43.18812655044106" lon="13.005369364877632"><ele>606.0</ele><time>2026-05-02T08:55:26.999Z</time></trkpt><trkpt lat="43.188061932657035" lon="13.00528348930462"><ele>606.0</ele><time>2026-05-02T08:55:27.999Z</time></trkpt><trkpt lat="43.18800195495922" lon="13.005189127079943"><ele>606.0</ele><time>2026-05-02T08:55:28.999Z</time></trkpt><trkpt lat="43.18794620397539" lon="13.00509639750408"><ele>606.0</ele><time>2026-05-02T08:55:29.999Z</time></trkpt><trkpt lat="43.18789372683752" lon="13.00501581447205"><ele>606.0</ele><time>2026-05-02T08:55:30.999Z</time></trkpt><trkpt lat="43.187833444336434" lon="13.004928606538291"><ele>606.0</ele><time>2026-05-02T08:55:31.999Z</time></trkpt><trkpt lat="43.187774593338304" lon="13.004851984546285"><ele>606.0</ele><time>2026-05-02T08:55:32.999Z</time></trkpt><trkpt lat="43.18771600848972" lon="13.004783028047026"><ele>609.0</ele><time>2026-05-02T08:55:33.999Z</time></trkpt><trkpt lat="43.18766311894316" lon="13.004725211932836"><ele>612.0</ele><time>2026-05-02T08:55:34.999Z</time></trkpt><trkpt lat="43.18761337562703" lon="13.004627832041088"><ele>615.0</ele><time>2026-05-02T08:55:36.999Z</time></trkpt><trkpt lat="43.1876686402522" lon="13.004538910237287"><ele>618.0</ele><time>2026-05-02T08:55:38.999Z</time></trkpt><trkpt lat="43.18781520425989" lon="13.004517694999379"><ele>621.0</ele><time>2026-05-02T08:55:41Z</time></trkpt><trkpt lat="43.1879207069902" lon="13.004514519500658"><ele>621.0</ele><time>2026-05-02T08:55:42Z</time></trkpt><trkpt lat="43.188027600802215" lon="13.004511991263595"><ele>621.0</ele><time>2026-05-02T08:55:43Z</time></trkpt><trkpt lat="43.188122957231776" lon="13.004507069554714"><ele>621.0</ele><time>2026-05-02T08:55:44Z</time></trkpt><trkpt lat="43.18822131659428" lon="13.004500460283353"><ele>621.0</ele><time>2026-05-02T08:55:45Z</time></trkpt><trkpt lat="43.18832520391075" lon="13.004489495427597"><ele>621.0</ele><time>2026-05-02T08:55:46Z</time></trkpt><trkpt lat="43.18843290804616" lon="13.004471674279484"><ele>623.5</ele><time>2026-05-02T08:55:47Z</time></trkpt><trkpt lat="43.18854935540458" lon="13.004449647002643"><ele>626.0</ele><time>2026-05-02T08:55:48Z</time></trkpt><trkpt lat="43.18867120913035" lon="13.004426273738012"><ele>628.5</ele><time>2026-05-02T08:55:49Z</time></trkpt><trkpt lat="43.18879246884944" lon="13.004407398322057"><ele>631.0</ele><time>2026-05-02T08:55:50Z</time></trkpt><trkpt lat="43.18890974126959" lon="13.00440937992852"><ele>632.2</ele><time>2026-05-02T08:55:51Z</time></trkpt><trkpt lat="43.18902393503033" lon="13.004427020188798"><ele>633.4000000000001</ele><time>2026-05-02T08:55:52Z</time></trkpt><trkpt lat="43.18912857504545" lon="13.004461225836573"><ele>634.6</ele><time>2026-05-02T08:55:53Z</time></trkpt><trkpt lat="43.189233626962796" lon="13.004501055344122"><ele>635.8000000000001</ele><time>2026-05-02T08:55:54Z</time></trkpt><trkpt lat="43.189334481595886" lon="13.00454883560158"><ele>637.0</ele><time>2026-05-02T08:55:55Z</time></trkpt><trkpt lat="43.18942686883402" lon="13.004600498130081"><ele>637.0</ele><time>2026-05-02T08:55:56Z</time></trkpt><trkpt lat="43.18950137138963" lon="13.004639803800655"><ele>637.0</ele><time>2026-05-02T08:55:57Z</time></trkpt><trkpt lat="43.18958182314181" lon="13.004641921176887"><ele>637.0</ele><time>2026-05-02T08:55:59Z</time></trkpt><trkpt lat="43.18959132755283" lon="13.004504128785534"><ele>637.0</ele><time>2026-05-02T08:56:01Z</time></trkpt><trkpt lat="43.189575827261166" lon="13.00440741211351"><ele>637.0</ele><time>2026-05-02T08:56:02Z</time></trkpt><trkpt lat="43.18955999813727" lon="13.004308558763181"><ele>637.0</ele><time>2026-05-02T08:56:03Z</time></trkpt><trkpt lat="43.18953881708197" lon="13.004205551359055"><ele>640.6666666666667</ele><time>2026-05-02T08:56:04Z</time></trkpt><trkpt lat="43.18950627702345" lon="13.004092571032418"><ele>644.3333333333334</ele><time>2026-05-02T08:56:05Z</time></trkpt><trkpt lat="43.18947725439301" lon="13.003993114074081"><ele>648.0</ele><time>2026-05-02T08:56:06Z</time></trkpt><trkpt lat="43.18943746955956" lon="13.003904357352164"><ele>651.6666666666666</ele><time>2026-05-02T08:56:07Z</time></trkpt><trkpt lat="43.18938633734439" lon="13.003827632809951"><ele>655.3333333333333</ele><time>2026-05-02T08:56:08Z</time></trkpt><trkpt lat="43.189346397845874" lon="13.003758927669914"><ele>659.0</ele><time>2026-05-02T08:56:09Z</time></trkpt><trkpt lat="43.18933469655417" lon="13.003640721910136"><ele>659.0</ele><time>2026-05-02T08:56:11Z</time></trkpt><trkpt lat="43.18934555455522" lon="13.003551365729946"><ele>659.0</ele><time>2026-05-02T08:56:12Z</time></trkpt><trkpt lat="43.189329749506044" lon="13.003458075555962"><ele>659.0</ele><time>2026-05-02T08:56:14Z</time></trkpt><trkpt lat="43.18923696996649" lon="13.003419099455346"><ele>659.0</ele><time>2026-05-02T08:56:16Z</time></trkpt><trkpt lat="43.18917073854788" lon="13.00337687738459"><ele>659.0</ele><time>2026-05-02T08:56:17Z</time></trkpt><trkpt lat="43.18910022995711" lon="13.003330391394051"><ele>659.0</ele><time>2026-05-02T08:56:18Z</time></trkpt><trkpt lat="43.189018305815786" lon="13.003293224182713"><ele>662.8333333333333</ele><time>2026-05-02T08:56:19Z</time></trkpt><trkpt lat="43.18894235399325" lon="13.00324880118782"><ele>666.6666666666666</ele><time>2026-05-02T08:56:20Z</time></trkpt><trkpt lat="43.18886665779569" lon="13.003217043633674"><ele>670.5</ele><time>2026-05-02T08:56:21Z</time></trkpt><trkpt lat="43.18880375887016" lon="13.003178946035304"><ele>674.3333333333334</ele><time>2026-05-02T08:56:22Z</time></trkpt><trkpt lat="43.18874418535373" lon="13.003114707033356"><ele>678.1666666666667</ele><time>2026-05-02T08:56:23Z</time></trkpt><trkpt lat="43.18868862458111" lon="13.003042094800207"><ele>682.0</ele><time>2026-05-02T08:56:24Z</time></trkpt><trkpt lat="43.18862754141946" lon="13.00297932856574"><ele>682.0</ele><time>2026-05-02T08:56:25Z</time></trkpt><trkpt lat="43.188551315513074" lon="13.002909683320821"><ele>682.0</ele><time>2026-05-02T08:56:26Z</time></trkpt><trkpt lat="43.1884840030492" lon="13.002833963559858"><ele>682.0</ele><time>2026-05-02T08:56:27Z</time></trkpt><trkpt lat="43.18844112641958" lon="13.002747104234764"><ele>682.0</ele><time>2026-05-02T08:56:28Z</time></trkpt><trkpt lat="43.18839822798424" lon="13.002654589032971"><ele>682.0</ele><time>2026-05-02T08:56:29Z</time></trkpt><trkpt lat="43.18835097958607" lon="13.002584165099615"><ele>682.0</ele><time>2026-05-02T08:56:30Z</time></trkpt><trkpt lat="43.18828837998897" lon="13.00254380463157"><ele>680.5</ele><time>2026-05-02T08:56:31Z</time></trkpt><trkpt lat="43.1882487176784" lon="13.002474800257513"><ele>679.0</ele><time>2026-05-02T08:56:32Z</time></trkpt><trkpt lat="43.18823199636116" lon="13.002372574332663"><ele>677.5</ele><time>2026-05-02T08:56:33Z</time></trkpt><trkpt lat="43.18821210317375" lon="13.002258230411881"><ele>676.0</ele><time>2026-05-02T08:56:34Z</time></trkpt><trkpt lat="43.18818638934734" lon="13.00216310816357"><ele>674.5</ele><time>2026-05-02T08:56:35Z</time></trkpt><trkpt lat="43.18816029064484" lon="13.002059897488676"><ele>673.0</ele><time>2026-05-02T08:56:36Z</time></trkpt><trkpt lat="43.18814162047183" lon="13.001961890828712"><ele>673.0</ele><time>2026-05-02T08:56:37Z</time></trkpt><trkpt lat="43.18814164678972" lon="13.001855597765031"><ele>673.0</ele><time>2026-05-02T08:56:38Z</time></trkpt><trkpt lat="43.1881641133459" lon="13.001738841350582"><ele>673.0</ele><time>2026-05-02T08:56:39Z</time></trkpt><trkpt lat="43.18819112167686" lon="13.001647536769143"><ele>673.0</ele><time>2026-05-02T08:56:40Z</time></trkpt><trkpt lat="43.18824325008196" lon="13.001546768334027"><ele>673.0</ele><time>2026-05-02T08:56:42Z</time></trkpt><trkpt lat="43.1883137048876" lon="13.00147412365359"><ele>673.0</ele><time>2026-05-02T08:56:44Z</time></trkpt><trkpt lat="43.18840327782124" lon="13.001403462347474"><ele>680.5999999999999</ele><time>2026-05-02T08:56:47Z</time></trkpt><trkpt lat="43.18846511309158" lon="13.001374210364048"><ele>688.1999999999999</ele><time>2026-05-02T08:56:48Z</time></trkpt><trkpt lat="43.18857043635256" lon="13.001309911883174"><ele>695.8</ele><time>2026-05-02T08:56:50Z</time></trkpt><trkpt lat="43.188654189184746" lon="13.001222469486184"><ele>703.4</ele><time>2026-05-02T08:56:51.999Z</time></trkpt><trkpt lat="43.18876762355257" lon="13.001176409368842"><ele>711.0</ele><time>2026-05-02T08:56:53.999Z</time></trkpt><trkpt lat="43.18885408094703" lon="13.001105687399182"><ele>711.0</ele><time>2026-05-02T08:56:55.999Z</time></trkpt><trkpt lat="43.18891088916756" lon="13.00105272030073"><ele>711.0</ele><time>2026-05-02T08:56:56.999Z</time></trkpt><trkpt lat="43.18899335091841" lon="13.000905521417137"><ele>711.0</ele><time>2026-05-02T08:56:58.999Z</time></trkpt><trkpt lat="43.18903143084122" lon="13.00082007309335"><ele>711.0</ele><time>2026-05-02T08:56:59.999Z</time></trkpt><trkpt lat="43.189083128490346" lon="13.00072684880982"><ele>711.0</ele><time>2026-05-02T08:57:00.999Z</time></trkpt><trkpt lat="43.189146219975036" lon="13.000657437597539"><ele>711.0</ele><time>2026-05-02T08:57:01.999Z</time></trkpt><trkpt lat="43.18920161877402" lon="13.000608684866032"><ele>716.5</ele><time>2026-05-02T08:57:02.999Z</time></trkpt><trkpt lat="43.18924767421333" lon="13.000535133521893"><ele>722.0</ele><time>2026-05-02T08:57:03.999Z</time></trkpt><trkpt lat="43.1892907738368" lon="13.000457715926796"><ele>727.5</ele><time>2026-05-02T08:57:04.999Z</time></trkpt><trkpt lat="43.18934057103521" lon="13.000373722710695"><ele>733.0</ele><time>2026-05-02T08:57:05.999Z</time></trkpt><trkpt lat="43.18939234593031" lon="13.00030177968459"><ele>738.5</ele><time>2026-05-02T08:57:06.999Z</time></trkpt><trkpt lat="43.189440251434426" lon="13.000215578119102"><ele>744.0</ele><time>2026-05-02T08:57:07.999Z</time></trkpt><trkpt lat="43.18949131362148" lon="13.00012639832221"><ele>744.0</ele><time>2026-05-02T08:57:08.999Z</time></trkpt><trkpt lat="43.18953810355037" lon="13.00003258878709"><ele>744.0</ele><time>2026-05-02T08:57:09.999Z</time></trkpt><trkpt lat="43.189577933748154" lon="12.999940623082532"><ele>744.0</ele><time>2026-05-02T08:57:10.999Z</time></trkpt><trkpt lat="43.18962133529962" lon="12.999859220196349"><ele>744.0</ele><time>2026-05-02T08:57:11.999Z</time></trkpt><trkpt lat="43.18969645265067" lon="12.99978844183899"><ele>744.0</ele><time>2026-05-02T08:57:12.999Z</time></trkpt><trkpt lat="43.18976146240425" lon="12.99970907432793"><ele>744.0</ele><time>2026-05-02T08:57:13.999Z</time></trkpt><trkpt lat="43.18989361760649" lon="12.999622840140997"><ele>743.8333333333334</ele><time>2026-05-02T08:57:15.999Z</time></trkpt><trkpt lat="43.19001770362116" lon="12.999566030689813"><ele>743.6666666666666</ele><time>2026-05-02T08:57:17.999Z</time></trkpt><trkpt lat="43.19008832044894" lon="12.99952717148127"><ele>743.5</ele><time>2026-05-02T08:57:18.999Z</time></trkpt><trkpt lat="43.19016273682501" lon="12.999447005656723"><ele>743.3333333333333</ele><time>2026-05-02T08:57:20.999Z</time></trkpt><trkpt lat="43.190216254716226" lon="12.999380321837746"><ele>743.1666666666666</ele><time>2026-05-02T08:57:22.999Z</time></trkpt><trkpt lat="43.19026543509045" lon="12.999325353426451"><ele>743.0</ele><time>2026-05-02T08:57:25.999Z</time></trkpt><trkpt lat="43.1903208369413" lon="12.999268985824825"><ele>743.0</ele><time>2026-05-02T08:57:28.999Z</time></trkpt><trkpt lat="43.19029012345063" lon="12.999181940240062"><ele>743.0</ele><time>2026-05-02T08:57:31.999Z</time></trkpt><trkpt lat="43.19020438132342" lon="12.999211638350815"><ele>743.0</ele><time>2026-05-02T08:57:36.999Z</time></trkpt><trkpt lat="43.190115328464536" lon="12.9991815918588"><ele>743.0</ele><time>2026-05-02T08:57:38.999Z</time></trkpt><trkpt lat="43.19001068191801" lon="12.9990952656596"><ele>743.0</ele><time>2026-05-02T08:57:40.999Z</time></trkpt><trkpt lat="43.1899684341573" lon="12.99902978629148"><ele>743.0</ele><time>2026-05-02T08:57:41.999Z</time></trkpt><trkpt lat="43.18990669660433" lon="12.998990158914015"><ele>749.4</ele><time>2026-05-02T08:57:43.999Z</time></trkpt><trkpt lat="43.1897861469513" lon="12.998996060209212"><ele>755.8</ele><time>2026-05-02T08:57:46Z</time></trkpt><trkpt lat="43.189694746277944" lon="12.998959520968608"><ele>762.2</ele><time>2026-05-02T08:57:47Z</time></trkpt><trkpt lat="43.18962948982731" lon="12.998948381161725"><ele>768.6</ele><time>2026-05-02T08:57:48Z</time></trkpt><trkpt lat="43.18956894468799" lon="12.998914498586565"><ele>775.0</ele><time>2026-05-02T08:57:49Z</time></trkpt><trkpt lat="43.18944406545724" lon="12.998881369857367"><ele>774.9999999999999</ele><time>2026-05-02T08:57:51Z</time></trkpt><trkpt lat="43.18938087086614" lon="12.998876339497528"><ele>775.0</ele><time>2026-05-02T08:57:53Z</time></trkpt><trkpt lat="43.189273242680635" lon="12.998914362077462"><ele>775.0</ele><time>2026-05-02T08:58:37Z</time></trkpt><trkpt lat="43.1891511780191" lon="12.998905693458612"><ele>775.0</ele><time>2026-05-02T08:58:39Z</time></trkpt><trkpt lat="43.18908297524949" lon="12.998867060525022"><ele>774.9999999999999</ele><time>2026-05-02T08:58:40Z</time></trkpt><trkpt lat="43.18901577249113" lon="12.998834159681513"><ele>775.0</ele><time>2026-05-02T08:58:41Z</time></trkpt><trkpt lat="43.188913712573836" lon="12.998817100296876"><ele>776.2</ele><time>2026-05-02T08:58:43Z</time></trkpt><trkpt lat="43.188804947146714" lon="12.998804880931832"><ele>777.4</ele><time>2026-05-02T08:58:45Z</time></trkpt><trkpt lat="43.1886918098629" lon="12.998725555572003"><ele>778.5999999999999</ele><time>2026-05-02T08:58:47Z</time></trkpt><trkpt lat="43.18861107539206" lon="12.998732490226516"><ele>779.8</ele><time>2026-05-02T08:58:49Z</time></trkpt><trkpt lat="43.18851470001737" lon="12.998685165883337"><ele>781.0</ele><time>2026-05-02T08:58:51Z</time></trkpt><trkpt lat="43.188423532859616" lon="12.998626701735533"><ele>780.9999999999999</ele><time>2026-05-02T08:58:53Z</time></trkpt><trkpt lat="43.18834782892934" lon="12.99856565969126"><ele>781.0</ele><time>2026-05-02T08:58:54.999Z</time></trkpt><trkpt lat="43.18828690266428" lon="12.998538972530383"><ele>781.0</ele><time>2026-05-02T08:59:00.999Z</time></trkpt><trkpt lat="43.188223405553586" lon="12.99849240128973"><ele>781.0</ele><time>2026-05-02T08:59:02.999Z</time></trkpt><trkpt lat="43.18813364934889" lon="12.998475764660512"><ele>780.9999999999999</ele><time>2026-05-02T08:59:06.999Z</time></trkpt><trkpt lat="43.188079204142944" lon="12.998424118766676"><ele>781.0</ele><time>2026-05-02T08:59:08.999Z</time></trkpt><trkpt lat="43.18800163969257" lon="12.998388829176143"><ele>781.3333333333333</ele><time>2026-05-02T08:59:11.999Z</time></trkpt><trkpt lat="43.187930525825706" lon="12.99836056453971"><ele>781.6666666666666</ele><time>2026-05-02T08:59:45.999Z</time></trkpt><trkpt lat="43.187847288945306" lon="12.998318725532163"><ele>782.0</ele><time>2026-05-02T08:59:48.999Z</time></trkpt><trkpt lat="43.187769640445" lon="12.998252599840786"><ele>782.3333333333333</ele><time>2026-05-02T08:59:50.999Z</time></trkpt><trkpt lat="43.18769927980491" lon="12.998208315309173"><ele>782.6666666666666</ele><time>2026-05-02T08:59:53Z</time></trkpt><trkpt lat="43.18762624463205" lon="12.998167417502453"><ele>783.0</ele><time>2026-05-02T08:59:55Z</time></trkpt><trkpt lat="43.18754727217494" lon="12.998127544415594"><ele>790.4</ele><time>2026-05-02T08:59:58Z</time></trkpt><trkpt lat="43.18746213018178" lon="12.998075420046266"><ele>797.8</ele><time>2026-05-02T09:00:01Z</time></trkpt><trkpt lat="43.18740454071996" lon="12.998032765025663"><ele>805.2</ele><time>2026-05-02T09:00:03Z</time></trkpt><trkpt lat="43.18732599920065" lon="12.997971940964534"><ele>812.6</ele><time>2026-05-02T09:00:05Z</time></trkpt><trkpt lat="43.18722609773883" lon="12.997914390927752"><ele>820.0</ele><time>2026-05-02T09:00:07Z</time></trkpt><trkpt lat="43.187143762558165" lon="12.997856519899177"><ele>820.0</ele><time>2026-05-02T09:00:09Z</time></trkpt><trkpt lat="43.187046817918336" lon="12.99778624244977"><ele>820.0</ele><time>2026-05-02T09:00:11Z</time></trkpt><trkpt lat="43.18696688845249" lon="12.997766351525906"><ele>820.0</ele><time>2026-05-02T09:00:13Z</time></trkpt><trkpt lat="43.18685121087515" lon="12.997718888769858"><ele>820.0</ele><time>2026-05-02T09:00:15Z</time></trkpt><trkpt lat="43.18676394926008" lon="12.99768430775469"><ele>820.0</ele><time>2026-05-02T09:00:17Z</time></trkpt><trkpt lat="43.18666278138121" lon="12.997659171007214"><ele>820.0</ele><time>2026-05-02T09:00:19Z</time></trkpt><trkpt lat="43.186551344599025" lon="12.997603538178634"><ele>820.0</ele><time>2026-05-02T09:00:21Z</time></trkpt><trkpt lat="43.18648303590905" lon="12.997569060483043"><ele>820.0</ele><time>2026-05-02T09:00:22Z</time></trkpt><trkpt lat="43.18637920949499" lon="12.997504864378364"><ele>820.0</ele><time>2026-05-02T09:00:24Z</time></trkpt><trkpt lat="43.186289606693094" lon="12.997437872911576"><ele>820.0</ele><time>2026-05-02T09:00:26Z</time></trkpt><trkpt lat="43.18622234993773" lon="12.997394183895265"><ele>825.1666666666666</ele><time>2026-05-02T09:00:28Z</time></trkpt><trkpt lat="43.18616948482143" lon="12.997347090805786"><ele>830.3333333333333</ele><time>2026-05-02T09:00:30Z</time></trkpt><trkpt lat="43.18607632630854" lon="12.997283234476528"><ele>835.5</ele><time>2026-05-02T09:00:32Z</time></trkpt><trkpt lat="43.18601722441037" lon="12.997231921434462"><ele>840.6666666666667</ele><time>2026-05-02T09:00:34Z</time></trkpt><trkpt lat="43.185956402592296" lon="12.99717361263514"><ele>845.8333333333334</ele><time>2026-05-02T09:00:36Z</time></trkpt><trkpt lat="43.18586993750016" lon="12.997101667492894"><ele>851.0</ele><time>2026-05-02T09:00:38Z</time></trkpt><trkpt lat="43.18578211449695" lon="12.997029462021082"><ele>851.0</ele><time>2026-05-02T09:00:40Z</time></trkpt><trkpt lat="43.185716109571814" lon="12.996968291363793"><ele>851.0</ele><time>2026-05-02T09:00:42Z</time></trkpt><trkpt lat="43.18563760438968" lon="12.996900860292735"><ele>851.0</ele><time>2026-05-02T09:00:44Z</time></trkpt><trkpt lat="43.18557539094649" lon="12.99682076707035"><ele>851.0</ele><time>2026-05-02T09:00:46Z</time></trkpt><trkpt lat="43.18552223326516" lon="12.996709400172016"><ele>851.0</ele><time>2026-05-02T09:00:48Z</time></trkpt><trkpt lat="43.18551154889535" lon="12.996571626878213"><ele>851.5000000000001</ele><time>2026-05-02T09:00:50Z</time></trkpt><trkpt lat="43.18552144169525" lon="12.996439355395204"><ele>852.0</ele><time>2026-05-02T09:00:52Z</time></trkpt><trkpt lat="43.18554583647647" lon="12.996340582391197"><ele>852.5</ele><time>2026-05-02T09:00:54Z</time></trkpt><trkpt lat="43.18559570786424" lon="12.996250188983863"><ele>853.0</ele><time>2026-05-02T09:00:56Z</time></trkpt><trkpt lat="43.18567448745229" lon="12.996201594303713"><ele>853.5000000000001</ele><time>2026-05-02T09:00:58Z</time></trkpt><trkpt lat="43.18576209096842" lon="12.996170363731371"><ele>854.0</ele><time>2026-05-02T09:00:59.999Z</time></trkpt><trkpt lat="43.1858298480099" lon="12.996094440284157"><ele>859.6</ele><time>2026-05-02T09:01:01.999Z</time></trkpt><trkpt lat="43.18586364083345" lon="12.995995484532857"><ele>865.2</ele><time>2026-05-02T09:01:03.999Z</time></trkpt><trkpt lat="43.18587958549498" lon="12.99586911867901"><ele>870.8000000000001</ele><time>2026-05-02T09:01:05.999Z</time></trkpt><trkpt lat="43.18589378126781" lon="12.995748254919791"><ele>876.4000000000001</ele><time>2026-05-02T09:01:07.999Z</time></trkpt><trkpt lat="43.185905839874636" lon="12.99561827542379"><ele>882.0</ele><time>2026-05-02T09:01:09.999Z</time></trkpt><trkpt lat="43.185905180498665" lon="12.995484672146041"><ele>885.2</ele><time>2026-05-02T09:01:11.999Z</time></trkpt><trkpt lat="43.185946551958025" lon="12.995349153720326"><ele>888.4000000000001</ele><time>2026-05-02T09:01:13.999Z</time></trkpt><trkpt lat="43.18598959267707" lon="12.995273542651654"><ele>891.5999999999999</ele><time>2026-05-02T09:01:15.999Z</time></trkpt><trkpt lat="43.18608156628415" lon="12.99524198061371"><ele>894.8</ele><time>2026-05-02T09:01:17.999Z</time></trkpt><trkpt lat="43.186191502850384" lon="12.995226715656386"><ele>898.0</ele><time>2026-05-02T09:01:19.999Z</time></trkpt><trkpt lat="43.18629100685804" lon="12.995256788895144"><ele>898.0</ele><time>2026-05-02T09:01:21.999Z</time></trkpt><trkpt lat="43.18639101495536" lon="12.99528082406523"><ele>898.0</ele><time>2026-05-02T09:01:23.999Z</time></trkpt><trkpt lat="43.1864895818024" lon="12.99526832605691"><ele>898.0</ele><time>2026-05-02T09:01:25.999Z</time></trkpt><trkpt lat="43.18657478316511" lon="12.995200377341044"><ele>898.0</ele><time>2026-05-02T09:01:27.999Z</time></trkpt><trkpt lat="43.186660587926646" lon="12.99506193332375"><ele>898.0</ele><time>2026-05-02T09:01:29.999Z</time></trkpt><trkpt lat="43.18672173497797" lon="12.994931707422008"><ele>905.4</ele><time>2026-05-02T09:01:31.999Z</time></trkpt><trkpt lat="43.186778590609705" lon="12.994792175237976"><ele>912.8</ele><time>2026-05-02T09:01:33.999Z</time></trkpt><trkpt lat="43.18682499068189" lon="12.994665693152692"><ele>920.2</ele><time>2026-05-02T09:01:35.999Z</time></trkpt><trkpt lat="43.18687856153015" lon="12.99453973308038"><ele>927.6</ele><time>2026-05-02T09:01:37.999Z</time></trkpt><trkpt lat="43.186925090404635" lon="12.994408540746749"><ele>935.0</ele><time>2026-05-02T09:01:39.999Z</time></trkpt><trkpt lat="43.18697642526877" lon="12.994291090036128"><ele>937.8</ele><time>2026-05-02T09:01:41.999Z</time></trkpt><trkpt lat="43.18700632198282" lon="12.994160548346716"><ele>940.6</ele><time>2026-05-02T09:01:43.999Z</time></trkpt><trkpt lat="43.18705902571456" lon="12.994032443116634"><ele>943.4000000000001</ele><time>2026-05-02T09:01:45.999Z</time></trkpt><trkpt lat="43.187117051825716" lon="12.99391524605902"><ele>946.2</ele><time>2026-05-02T09:01:47.999Z</time></trkpt><trkpt lat="43.18716061081193" lon="12.993792871684494"><ele>949.0</ele><time>2026-05-02T09:01:49.999Z</time></trkpt><trkpt lat="43.18721862863499" lon="12.99366562817033"><ele>948.9999999999999</ele><time>2026-05-02T09:01:51.999Z</time></trkpt><trkpt lat="43.187248464193885" lon="12.993574034997495"><ele>949.0</ele><time>2026-05-02T09:01:53.999Z</time></trkpt><trkpt lat="43.18727219334689" lon="12.993491118179799"><ele>949.0</ele><time>2026-05-02T09:01:56.999Z</time></trkpt><trkpt lat="43.187343325480576" lon="12.993481849754266"><ele>949.0</ele><time>2026-05-02T09:03:23.999Z</time></trkpt><trkpt lat="43.1874617196814" lon="12.993519119687873"><ele>948.9999999999999</ele><time>2026-05-02T09:03:25.999Z</time></trkpt><trkpt lat="43.18752895105995" lon="12.993517459025295"><ele>949.0</ele><time>2026-05-02T09:03:26.999Z</time></trkpt><trkpt lat="43.18760992417508" lon="12.993511270167248"><ele>953.1428571428573</ele><time>2026-05-02T09:03:27.999Z</time></trkpt><trkpt lat="43.18769016404096" lon="12.9935315805246"><ele>957.2857142857143</ele><time>2026-05-02T09:03:28.999Z</time></trkpt><trkpt lat="43.18774665798501" lon="12.993577251287975"><ele>961.4285714285716</ele><time>2026-05-02T09:03:29.999Z</time></trkpt><trkpt lat="43.18780238722505" lon="12.993651990019536"><ele>965.5714285714287</ele><time>2026-05-02T09:03:30.999Z</time></trkpt><trkpt lat="43.1878444112063" lon="12.993722696377796"><ele>969.7142857142858</ele><time>2026-05-02T09:03:31.999Z</time></trkpt><trkpt lat="43.18788753755731" lon="12.993798595795838"><ele>973.8571428571429</ele><time>2026-05-02T09:03:32.999Z</time></trkpt><trkpt lat="43.18793897532031" lon="12.993860002153106"><ele>978.0</ele><time>2026-05-02T09:03:33.999Z</time></trkpt><trkpt lat="43.18800315605263" lon="12.99391734027644"><ele>978.0</ele><time>2026-05-02T09:03:34.999Z</time></trkpt><trkpt lat="43.18811720079914" lon="12.994004769058991"><ele>978.0</ele><time>2026-05-02T09:03:36.999Z</time></trkpt><trkpt lat="43.18817583125657" lon="12.994054109339443"><ele>978.0</ele><time>2026-05-02T09:03:37.999Z</time></trkpt><trkpt lat="43.188237108162745" lon="12.994143452021687"><ele>978.0</ele><time>2026-05-02T09:03:39.999Z</time></trkpt><trkpt lat="43.188295840722084" lon="12.994180322400526"><ele>978.0</ele><time>2026-05-02T09:04:11Z</time></trkpt><trkpt lat="43.188385355453526" lon="12.994194754879011"><ele>978.0</ele><time>2026-05-02T09:04:14Z</time></trkpt><trkpt lat="43.18831878081523" lon="12.994216282405278"><ele>978.0</ele><time>2026-05-02T09:04:41Z</time></trkpt><trkpt lat="43.18825673765442" lon="12.994168083660938"><ele>978.0000000000001</ele><time>2026-05-02T09:05:02Z</time></trkpt><trkpt lat="43.18820257759627" lon="12.994082707692089"><ele>978.0</ele><time>2026-05-02T09:05:13Z</time></trkpt><trkpt lat="43.18813659346496" lon="12.99401770014403"><ele>978.0</ele><time>2026-05-02T09:05:15.999Z</time></trkpt><trkpt lat="43.18807650260218" lon="12.993971719737246"><ele>978.0000000000001</ele><time>2026-05-02T09:05:17.999Z</time></trkpt><trkpt lat="43.18801907429881" lon="12.99392906655914"><ele>978.0</ele><time>2026-05-02T09:05:19.999Z</time></trkpt><trkpt lat="43.18796060055661" lon="12.993893356714567"><ele>978.0</ele><time>2026-05-02T09:05:21.999Z</time></trkpt><trkpt lat="43.18804713329251" lon="12.993943465655361"><ele>978.0</ele><time>2026-05-02T09:05:40.999Z</time></trkpt><trkpt lat="43.188121450335586" lon="12.994003828998581"><ele>978.0000000000001</ele><time>2026-05-02T09:05:44.999Z</time></trkpt><trkpt lat="43.18818610057761" lon="12.99407109848132"><ele>978.0</ele><time>2026-05-02T09:06:10Z</time></trkpt><trkpt lat="43.18825028817044" lon="12.99413462145768"><ele>978.0</ele><time>2026-05-02T09:06:13Z</time></trkpt><trkpt lat="43.18831915959134" lon="12.99414178928892"><ele>978.0000000000001</ele><time>2026-05-02T09:06:16Z</time></trkpt><trkpt lat="43.18838396101715" lon="12.994151679857563"><ele>978.0</ele><time>2026-05-02T09:06:19Z</time></trkpt><trkpt lat="43.18844786512761" lon="12.994143461992326"><ele>978.0</ele><time>2026-05-02T09:06:25Z</time></trkpt><trkpt lat="43.18850667404568" lon="12.994107774703158"><ele>983.3333333333334</ele><time>2026-05-02T09:06:36Z</time></trkpt><trkpt lat="43.18857778612326" lon="12.994075157409734"><ele>988.6666666666667</ele><time>2026-05-02T09:06:40Z</time></trkpt><trkpt lat="43.18864187070337" lon="12.994108640775892"><ele>994.0</ele><time>2026-05-02T09:07:49.999Z</time></trkpt><trkpt lat="43.18870241058791" lon="12.994060747809126"><ele>999.3333333333334</ele><time>2026-05-02T09:07:54.999Z</time></trkpt><trkpt lat="43.1887361144655" lon="12.993939484802064"><ele>1004.6666666666667</ele><time>2026-05-02T09:14:39.999Z</time></trkpt><trkpt lat="43.18874780394157" lon="12.993818314081086"><ele>1010.0</ele><time>2026-05-02T09:14:41.999Z</time></trkpt><trkpt lat="43.18877460974576" lon="12.993720288269472"><ele>1010.0000000000001</ele><time>2026-05-02T09:14:43.999Z</time></trkpt><trkpt lat="43.188785525224056" lon="12.993595459868454"><ele>1010.0</ele><time>2026-05-02T09:14:46.999Z</time></trkpt><trkpt lat="43.18882108954122" lon="12.993508847810746"><ele>1010.0</ele><time>2026-05-02T09:14:48.999Z</time></trkpt><trkpt lat="43.18884161261063" lon="12.993403654322204"><ele>1010.0</ele><time>2026-05-02T09:14:50.999Z</time></trkpt><trkpt lat="43.18887585886918" lon="12.993289733030915"><ele>1010.0000000000001</ele><time>2026-05-02T09:14:52.999Z</time></trkpt><trkpt lat="43.18892205608508" lon="12.993168556326488"><ele>1010.0</ele><time>2026-05-02T09:14:54.999Z</time></trkpt><trkpt lat="43.188956919618" lon="12.993064798669668"><ele>1011.5000000000001</ele><time>2026-05-02T09:14:56.999Z</time></trkpt><trkpt lat="43.188995859010795" lon="12.99296030057393"><ele>1013.0</ele><time>2026-05-02T09:14:58.999Z</time></trkpt><trkpt lat="43.18903110883385" lon="12.992873344185284"><ele>1014.5</ele><time>2026-05-02T09:15:00.999Z</time></trkpt><trkpt lat="43.18905439341059" lon="12.99278659282418"><ele>1016.0</ele><time>2026-05-02T09:15:02.999Z</time></trkpt><trkpt lat="43.18908660058564" lon="12.992697029413014"><ele>1017.5000000000001</ele><time>2026-05-02T09:15:04.999Z</time></trkpt><trkpt lat="43.18912044335037" lon="12.992595472999424"><ele>1019.0</ele><time>2026-05-02T09:16:09.998Z</time></trkpt><trkpt lat="43.18917473425377" lon="12.992492631160756"><ele>1024.0</ele><time>2026-05-02T09:16:11.998Z</time></trkpt><trkpt lat="43.189215280895766" lon="12.99238394803437"><ele>1029.0</ele><time>2026-05-02T09:16:13.998Z</time></trkpt><trkpt lat="43.18924720207673" lon="12.992281275864597"><ele>1034.0</ele><time>2026-05-02T09:16:15.998Z</time></trkpt><trkpt lat="43.18930102579163" lon="12.992189557000792"><ele>1039.0</ele><time>2026-05-02T09:16:17.998Z</time></trkpt><trkpt lat="43.1893549244027" lon="12.992104734081636"><ele>1044.0</ele><time>2026-05-02T09:16:19.998Z</time></trkpt><trkpt lat="43.18941784454407" lon="12.992012853867491"><ele>1049.0</ele><time>2026-05-02T09:16:21.998Z</time></trkpt><trkpt lat="43.189486610278735" lon="12.99193427332411"><ele>1049.0</ele><time>2026-05-02T09:16:23.998Z</time></trkpt><trkpt lat="43.18954541983111" lon="12.991827201115502"><ele>1049.0</ele><time>2026-05-02T09:16:25.998Z</time></trkpt><trkpt lat="43.189597162189315" lon="12.991722342613997"><ele>1049.0</ele><time>2026-05-02T09:16:27.998Z</time></trkpt><trkpt lat="43.18965735227367" lon="12.991612289031556"><ele>1049.0</ele><time>2026-05-02T09:16:29.998Z</time></trkpt><trkpt lat="43.189693047617574" lon="12.991499323182756"><ele>1049.0</ele><time>2026-05-02T09:16:32.998Z</time></trkpt><trkpt lat="43.18972393271414" lon="12.99141498743856"><ele>1049.0</ele><time>2026-05-02T09:16:34.998Z</time></trkpt><trkpt lat="43.18976479838185" lon="12.991346280111376"><ele>1048.8333333333335</ele><time>2026-05-02T09:16:36.998Z</time></trkpt><trkpt lat="43.189838176692014" lon="12.991286020119125"><ele>1048.6666666666667</ele><time>2026-05-02T09:16:39.999Z</time></trkpt><trkpt lat="43.18990968802298" lon="12.991256449897406"><ele>1048.5</ele><time>2026-05-02T09:16:41.999Z</time></trkpt><trkpt lat="43.189978992985765" lon="12.991282280699025"><ele>1048.3333333333333</ele><time>2026-05-02T09:16:43.999Z</time></trkpt><trkpt lat="43.19007500980626" lon="12.991320076027373"><ele>1048.1666666666665</ele><time>2026-05-02T09:17:10.999Z</time></trkpt><trkpt lat="43.19017820147041" lon="12.991379140680788"><ele>1048.0</ele><time>2026-05-02T09:17:12.999Z</time></trkpt><trkpt lat="43.190291575419906" lon="12.991390521788507"><ele>1050.8333333333333</ele><time>2026-05-02T09:17:14.999Z</time></trkpt><trkpt lat="43.19036185529492" lon="12.991390885777141"><ele>1053.6666666666665</ele><time>2026-05-02T09:17:15.999Z</time></trkpt><trkpt lat="43.190452765475804" lon="12.991438222502705"><ele>1056.5</ele><time>2026-05-02T09:17:17.999Z</time></trkpt><trkpt lat="43.19053698264389" lon="12.991512959288071"><ele>1059.3333333333333</ele><time>2026-05-02T09:17:19.999Z</time></trkpt><trkpt lat="43.19059416076626" lon="12.991552116957843"><ele>1062.1666666666667</ele><time>2026-05-02T09:17:22.999Z</time></trkpt><trkpt lat="43.19066016918824" lon="12.991543640657492"><ele>1065.0</ele><time>2026-05-02T09:17:40.999Z</time></trkpt><trkpt lat="43.19073049506103" lon="12.991544708914791"><ele>1069.142857142857</ele><time>2026-05-02T09:17:49.999Z</time></trkpt><trkpt lat="43.19081122655266" lon="12.991561461863785"><ele>1073.2857142857142</ele><time>2026-05-02T09:19:13Z</time></trkpt><trkpt lat="43.19087189586413" lon="12.991587155200731"><ele>1077.4285714285713</ele><time>2026-05-02T09:19:15Z</time></trkpt><trkpt lat="43.19095093840317" lon="12.991594531358302"><ele>1081.5714285714284</ele><time>2026-05-02T09:19:17Z</time></trkpt><trkpt lat="43.19101664094298" lon="12.991616888375919"><ele>1085.7142857142856</ele><time>2026-05-02T09:19:19Z</time></trkpt><trkpt lat="43.191092035959144" lon="12.99164960043074"><ele>1089.857142857143</ele><time>2026-05-02T09:19:23Z</time></trkpt><trkpt lat="43.19116583697827" lon="12.991657515042416"><ele>1094.0</ele><time>2026-05-02T09:19:26Z</time></trkpt><trkpt lat="43.19118212947102" lon="12.991531521089328"><ele>1094.0</ele><time>2026-05-02T09:20:34.999Z</time></trkpt><trkpt lat="43.19118387556386" lon="12.991440108391114"><ele>1094.0</ele><time>2026-05-02T09:20:36.999Z</time></trkpt><trkpt lat="43.19121348067555" lon="12.99135310097802"><ele>1094.0</ele><time>2026-05-02T09:20:39.999Z</time></trkpt><trkpt lat="43.19122778685311" lon="12.991244460752718"><ele>1094.0</ele><time>2026-05-02T09:20:42.999Z</time></trkpt><trkpt lat="43.191240020758386" lon="12.991122808786054"><ele>1094.0</ele><time>2026-05-02T09:20:44.999Z</time></trkpt><trkpt lat="43.19124892993279" lon="12.991022946174544"><ele>1094.0</ele><time>2026-05-02T09:20:47.999Z</time></trkpt><trkpt lat="43.19118158369965" lon="12.990978104348851"><ele>1094.0</ele><time>2026-05-02T09:20:52Z</time></trkpt><trkpt lat="43.191098978926036" lon="12.99090574551099"><ele>1094.0</ele><time>2026-05-02T09:20:55Z</time></trkpt><trkpt lat="43.19108328170666" lon="12.990791142551425"><ele>1094.0</ele><time>2026-05-02T09:20:57Z</time></trkpt><trkpt lat="43.191075339432636" lon="12.990660995115919"><ele>1094.0</ele><time>2026-05-02T09:20:59Z</time></trkpt><trkpt lat="43.191079689037764" lon="12.990488849179185"><ele>1094.0</ele><time>2026-05-02T09:21:01Z</time></trkpt><trkpt lat="43.19108594555905" lon="12.99033217347565"><ele>1099.0</ele><time>2026-05-02T09:21:03Z</time></trkpt><trkpt lat="43.191088632450125" lon="12.990226391892985"><ele>1104.0</ele><time>2026-05-02T09:21:04Z</time></trkpt><trkpt lat="43.19106717101828" lon="12.990092626021914"><ele>1109.0</ele><time>2026-05-02T09:21:06Z</time></trkpt><trkpt lat="43.19107219690297" lon="12.989998816805779"><ele>1114.0</ele><time>2026-05-02T09:21:08Z</time></trkpt><trkpt lat="43.19106295364677" lon="12.989882060973382"><ele>1119.0</ele><time>2026-05-02T09:22:14.999Z</time></trkpt><trkpt lat="43.191064770601024" lon="12.989708232509917"><ele>1122.2</ele><time>2026-05-02T09:22:16.999Z</time></trkpt><trkpt lat="43.191073740560014" lon="12.989600605466222"><ele>1125.4</ele><time>2026-05-02T09:22:17.999Z</time></trkpt><trkpt lat="43.19109531956672" lon="12.989514138351087"><ele>1128.6</ele><time>2026-05-02T09:22:18.999Z</time></trkpt><trkpt lat="43.191175718444065" lon="12.989375837320159"><ele>1131.8</ele><time>2026-05-02T09:22:20.999Z</time></trkpt><trkpt lat="43.19124975278127" lon="12.98923334268887"><ele>1135.0</ele><time>2026-05-02T09:22:22.999Z</time></trkpt><trkpt lat="43.19128318546704" lon="12.989128609899971"><ele>1136.0</ele><time>2026-05-02T09:22:23.999Z</time></trkpt><trkpt lat="43.191305583703624" lon="12.989039821351904"><ele>1137.0</ele><time>2026-05-02T09:22:24.999Z</time></trkpt><trkpt lat="43.191340165258445" lon="12.988858801648153"><ele>1138.0</ele><time>2026-05-02T09:22:26.999Z</time></trkpt><trkpt lat="43.1913690528424" lon="12.98869112109962"><ele>1139.0</ele><time>2026-05-02T09:22:28.999Z</time></trkpt><trkpt lat="43.191386428240214" lon="12.988586720248417"><ele>1140.0</ele><time>2026-05-02T09:22:29.999Z</time></trkpt><trkpt lat="43.19143820431252" lon="12.988447579320075"><ele>1140.0</ele><time>2026-05-02T09:22:31.999Z</time></trkpt><trkpt lat="43.19148058977306" lon="12.988282316783216"><ele>1140.0</ele><time>2026-05-02T09:22:33.999Z</time></trkpt><trkpt lat="43.19149846387054" lon="12.988198390184177"><ele>1140.0</ele><time>2026-05-02T09:22:34.999Z</time></trkpt><trkpt lat="43.191529822386585" lon="12.988067544086618"><ele>1140.0</ele><time>2026-05-02T09:22:36.999Z</time></trkpt><trkpt lat="43.191567487256" lon="12.987916977156388"><ele>1140.0</ele><time>2026-05-02T09:22:38.999Z</time></trkpt><trkpt lat="43.19161204432292" lon="12.98777146152203"><ele>1142.5</ele><time>2026-05-02T09:22:40.999Z</time></trkpt><trkpt lat="43.19164368819611" lon="12.987691191939655"><ele>1145.0</ele><time>2026-05-02T09:22:41.999Z</time></trkpt><trkpt lat="43.191714079679244" lon="12.987542278959062"><ele>1147.5</ele><time>2026-05-02T09:22:43.999Z</time></trkpt><trkpt lat="43.19176172977646" lon="12.987463644888498"><ele>1150.0</ele><time>2026-05-02T09:22:44.999Z</time></trkpt><trkpt lat="43.19180733428066" lon="12.98736903026333"><ele>1152.5</ele><time>2026-05-02T09:22:45.999Z</time></trkpt><trkpt lat="43.19185006194775" lon="12.987285824709652"><ele>1155.0</ele><time>2026-05-02T09:22:46.999Z</time></trkpt><trkpt lat="43.191896108520524" lon="12.987185631850032"><ele>1156.8333333333333</ele><time>2026-05-02T09:22:47.999Z</time></trkpt><trkpt lat="43.19194792403221" lon="12.987082620537782"><ele>1158.6666666666667</ele><time>2026-05-02T09:22:48.999Z</time></trkpt><trkpt lat="43.19198976531111" lon="12.987004549687969"><ele>1160.5</ele><time>2026-05-02T09:22:49.999Z</time></trkpt><trkpt lat="43.19203489876663" lon="12.986911508875197"><ele>1162.3333333333335</ele><time>2026-05-02T09:22:50.999Z</time></trkpt><trkpt lat="43.192076813663235" lon="12.98681989548336"><ele>1164.1666666666667</ele><time>2026-05-02T09:22:51.999Z</time></trkpt><trkpt lat="43.19212127861099" lon="12.986728363770993"><ele>1166.0</ele><time>2026-05-02T09:22:52.999Z</time></trkpt><trkpt lat="43.19217017103519" lon="12.986633772216935"><ele>1167.0</ele><time>2026-05-02T09:22:53.999Z</time></trkpt><trkpt lat="43.19220783571361" lon="12.98655311256798"><ele>1168.0</ele><time>2026-05-02T09:22:54.999Z</time></trkpt><trkpt lat="43.192248268180535" lon="12.986459305083105"><ele>1169.0</ele><time>2026-05-02T09:22:55.999Z</time></trkpt><trkpt lat="43.19228937803329" lon="12.986353467922687"><ele>1170.0</ele><time>2026-05-02T09:22:57Z</time></trkpt><trkpt lat="43.192328084642966" lon="12.986256015917446"><ele>1171.0</ele><time>2026-05-02T09:22:58Z</time></trkpt><trkpt lat="43.19236513000677" lon="12.986171443903684"><ele>1172.0</ele><time>2026-05-02T09:22:59Z</time></trkpt><trkpt lat="43.19241373280727" lon="12.986034956883717"><ele>1174.8333333333335</ele><time>2026-05-02T09:23:00Z</time></trkpt><trkpt lat="43.192454232019166" lon="12.98591949385062"><ele>1177.6666666666667</ele><time>2026-05-02T09:23:01Z</time></trkpt><trkpt lat="43.192512718206444" lon="12.985833340962484"><ele>1180.5</ele><time>2026-05-02T09:23:02Z</time></trkpt><trkpt lat="43.19257829705762" lon="12.985769081754523"><ele>1183.3333333333333</ele><time>2026-05-02T09:23:03Z</time></trkpt><trkpt lat="43.19264359306967" lon="12.9857032487932"><ele>1186.1666666666665</ele><time>2026-05-02T09:23:04Z</time></trkpt><trkpt lat="43.192711148017466" lon="12.985632329981069"><ele>1189.0</ele><time>2026-05-02T09:23:05Z</time></trkpt><trkpt lat="43.19278479100194" lon="12.985542660104175"><ele>1191.6666666666665</ele><time>2026-05-02T09:23:06Z</time></trkpt><trkpt lat="43.19283605080911" lon="12.985479798279876"><ele>1194.3333333333333</ele><time>2026-05-02T09:23:07Z</time></trkpt><trkpt lat="43.1928956738772" lon="12.98539836089631"><ele>1197.0</ele><time>2026-05-02T09:23:08Z</time></trkpt><trkpt lat="43.192951978496424" lon="12.985331279488927"><ele>1199.6666666666667</ele><time>2026-05-02T09:23:09Z</time></trkpt><trkpt lat="43.193006819884594" lon="12.985266289960652"><ele>1202.3333333333335</ele><time>2026-05-02T09:23:10Z</time></trkpt><trkpt lat="43.193064348509736" lon="12.985197152772878"><ele>1205.0</ele><time>2026-05-02T09:23:11Z</time></trkpt><trkpt lat="43.193124666959626" lon="12.985123923114342"><ele>1205.2</ele><time>2026-05-02T09:23:12Z</time></trkpt><trkpt lat="43.193220986262425" lon="12.98501836342879"><ele>1205.4</ele><time>2026-05-02T09:23:14Z</time></trkpt><trkpt lat="43.19329718774879" lon="12.984928836214966"><ele>1205.6</ele><time>2026-05-02T09:23:16Z</time></trkpt><trkpt lat="43.19336706132485" lon="12.984829347344633"><ele>1205.8</ele><time>2026-05-02T09:23:18Z</time></trkpt><trkpt lat="43.19342389819124" lon="12.984711748707277"><ele>1206.0</ele><time>2026-05-02T09:23:20Z</time></trkpt><trkpt lat="43.193460972876906" lon="12.984606541629095"><ele>1206.0</ele><time>2026-05-02T09:23:22Z</time></trkpt><trkpt lat="43.193502918568434" lon="12.98451143954693"><ele>1206.0</ele><time>2026-05-02T09:23:24Z</time></trkpt><trkpt lat="43.193585480667885" lon="12.984394374362079"><ele>1206.0</ele><time>2026-05-02T09:23:26Z</time></trkpt><trkpt lat="43.19368200745883" lon="12.984281266234706"><ele>1206.0</ele><time>2026-05-02T09:23:28Z</time></trkpt><trkpt lat="43.19376961929241" lon="12.984188519787615"><ele>1206.0</ele><time>2026-05-02T09:23:30Z</time></trkpt><trkpt lat="43.19384920415186" lon="12.984121079027117"><ele>1204.75</ele><time>2026-05-02T09:23:31Z</time></trkpt><trkpt lat="43.193954249186135" lon="12.984025359430388"><ele>1203.5</ele><time>2026-05-02T09:23:32Z</time></trkpt><trkpt lat="43.19408117661939" lon="12.983927585585446"><ele>1202.25</ele><time>2026-05-02T09:23:33Z</time></trkpt><trkpt lat="43.19421363226881" lon="12.983852187065228"><ele>1201.0</ele><time>2026-05-02T09:23:34Z</time></trkpt><trkpt lat="43.19433396166076" lon="12.983791927006461"><ele>1201.0</ele><time>2026-05-02T09:23:35Z</time></trkpt><trkpt lat="43.194435637778625" lon="12.983732934678958"><ele>1201.0</ele><time>2026-05-02T09:23:36Z</time></trkpt><trkpt lat="43.194538151062815" lon="12.983684303642058"><ele>1201.0</ele><time>2026-05-02T09:23:37Z</time></trkpt><trkpt lat="43.19463226372814" lon="12.983626069549421"><ele>1201.0</ele><time>2026-05-02T09:23:38Z</time></trkpt><trkpt lat="43.194717439289604" lon="12.983555075277238"><ele>1201.0</ele><time>2026-05-02T09:23:39Z</time></trkpt><trkpt lat="43.194807214451856" lon="12.98347851850089"><ele>1200.3333333333333</ele><time>2026-05-02T09:23:40Z</time></trkpt><trkpt lat="43.19489107225427" lon="12.983413963110944"><ele>1199.6666666666665</ele><time>2026-05-02T09:23:41Z</time></trkpt><trkpt lat="43.19497963769957" lon="12.98336848650746"><ele>1199.0</ele><time>2026-05-02T09:23:43Z</time></trkpt><trkpt lat="43.19503962965562" lon="12.983341717877806"><ele>1198.3333333333333</ele><time>2026-05-02T09:26:15.999Z</time></trkpt><trkpt lat="43.19507395797515" lon="12.98324372060248"><ele>1197.6666666666667</ele><time>2026-05-02T09:26:17.999Z</time></trkpt><trkpt lat="43.19510816503725" lon="12.983109672200113"><ele>1197.0</ele><time>2026-05-02T09:26:19.999Z</time></trkpt><trkpt lat="43.195147365405255" lon="12.982979170468537"><ele>1199.4</ele><time>2026-05-02T09:26:21.999Z</time></trkpt><trkpt lat="43.19519000517775" lon="12.982861196732156"><ele>1201.8000000000002</ele><time>2026-05-02T09:26:23.999Z</time></trkpt><trkpt lat="43.195246670065444" lon="12.98275365516274"><ele>1204.2</ele><time>2026-05-02T09:26:25.999Z</time></trkpt><trkpt lat="43.19531864485731" lon="12.982652819294996"><ele>1206.6000000000001</ele><time>2026-05-02T09:26:27.999Z</time></trkpt><trkpt lat="43.19539516825862" lon="12.982560018340143"><ele>1209.0</ele><time>2026-05-02T09:26:29.999Z</time></trkpt><trkpt lat="43.19547769715643" lon="12.982461414862101"><ele>1209.0</ele><time>2026-05-02T09:26:31.999Z</time></trkpt><trkpt lat="43.195553672443594" lon="12.982345932943069"><ele>1209.0</ele><time>2026-05-02T09:26:33.999Z</time></trkpt><trkpt lat="43.195632507166714" lon="12.982215402413628"><ele>1209.0</ele><time>2026-05-02T09:26:35.999Z</time></trkpt><trkpt lat="43.19566917923629" lon="12.982144532355205"><ele>1209.0</ele><time>2026-05-02T09:26:36.999Z</time></trkpt><trkpt lat="43.195709208195375" lon="12.982074304427789"><ele>1209.0</ele><time>2026-05-02T09:26:37.999Z</time></trkpt><trkpt lat="43.19575400727162" lon="12.981987565373423"><ele>1209.0</ele><time>2026-05-02T09:26:38.999Z</time></trkpt><trkpt lat="43.19582731450952" lon="12.98185819007176"><ele>1203.2</ele><time>2026-05-02T09:26:40.999Z</time></trkpt><trkpt lat="43.19590635729722" lon="12.981722767969094"><ele>1197.4</ele><time>2026-05-02T09:26:42.999Z</time></trkpt><trkpt lat="43.19595930367218" lon="12.981652743014822"><ele>1191.6</ele><time>2026-05-02T09:26:43.999Z</time></trkpt><trkpt lat="43.19604716739582" lon="12.98156669874415"><ele>1185.8</ele><time>2026-05-02T09:26:45.999Z</time></trkpt><trkpt lat="43.19612669454502" lon="12.98155073898909"><ele>1180.0</ele><time>2026-05-02T09:26:47.999Z</time></trkpt><trkpt lat="43.196233722966795" lon="12.981554237578008"><ele>1178.6</ele><time>2026-05-02T09:26:49.999Z</time></trkpt><trkpt lat="43.19633058380701" lon="12.981573572141569"><ele>1177.2</ele><time>2026-05-02T09:26:51.999Z</time></trkpt><trkpt lat="43.19642550090932" lon="12.981578981422626"><ele>1175.8</ele><time>2026-05-02T09:26:53.999Z</time></trkpt><trkpt lat="43.196547973646744" lon="12.981580994761199"><ele>1174.4</ele><time>2026-05-02T09:26:55.999Z</time></trkpt><trkpt lat="43.19665663110891" lon="12.98157972027984"><ele>1173.0</ele><time>2026-05-02T09:26:57.999Z</time></trkpt><trkpt lat="43.196756420446256" lon="12.981592496209542"><ele>1169.8</ele><time>2026-05-02T09:26:59.999Z</time></trkpt><trkpt lat="43.196862767400546" lon="12.981636502548453"><ele>1166.6</ele><time>2026-05-02T09:27:01.999Z</time></trkpt><trkpt lat="43.19696971517383" lon="12.981688403445697"><ele>1163.4</ele><time>2026-05-02T09:27:03.999Z</time></trkpt><trkpt lat="43.1970604535613" lon="12.98172274863586"><ele>1160.2</ele><time>2026-05-02T09:27:05.999Z</time></trkpt><trkpt lat="43.197163198977165" lon="12.981748889444486"><ele>1157.0</ele><time>2026-05-02T09:27:07.999Z</time></trkpt><trkpt lat="43.19726020269586" lon="12.981775045693555"><ele>1153.0</ele><time>2026-05-02T09:27:10Z</time></trkpt><trkpt lat="43.19736505894272" lon="12.981802535360753"><ele>1149.0</ele><time>2026-05-02T09:27:12Z</time></trkpt><trkpt lat="43.19745880601819" lon="12.981774528118057"><ele>1145.0</ele><time>2026-05-02T09:27:14Z</time></trkpt><trkpt lat="43.19756680952169" lon="12.981737664767037"><ele>1141.0</ele><time>2026-05-02T09:27:16Z</time></trkpt><trkpt lat="43.19765096051922" lon="12.981678940150331"><ele>1137.0</ele><time>2026-05-02T09:27:18Z</time></trkpt><trkpt lat="43.19775962437959" lon="12.981623341977246"><ele>1137.0</ele><time>2026-05-02T09:27:20Z</time></trkpt><trkpt lat="43.197858856113896" lon="12.98161166646332"><ele>1137.0</ele><time>2026-05-02T09:27:22Z</time></trkpt><trkpt lat="43.19795877637161" lon="12.981618139271058"><ele>1137.0</ele><time>2026-05-02T09:27:24Z</time></trkpt><trkpt lat="43.19802175244993" lon="12.981610510400564"><ele>1137.0</ele><time>2026-05-02T09:27:25Z</time></trkpt><trkpt lat="43.19810862335558" lon="12.98157770399662"><ele>1137.0</ele><time>2026-05-02T09:27:27Z</time></trkpt><trkpt lat="43.19819804586896" lon="12.981589712361298"><ele>1137.0</ele><time>2026-05-02T09:27:29Z</time></trkpt><trkpt lat="43.198298971408725" lon="12.981587170928853"><ele>1132.4</ele><time>2026-05-02T09:27:31Z</time></trkpt><trkpt lat="43.19839406909456" lon="12.981580702382885"><ele>1127.8000000000002</ele><time>2026-05-02T09:27:33Z</time></trkpt><trkpt lat="43.198496349388805" lon="12.981559869769994"><ele>1123.2</ele><time>2026-05-02T09:27:35Z</time></trkpt><trkpt lat="43.19859840894902" lon="12.98150699961009"><ele>1118.6000000000001</ele><time>2026-05-02T09:27:37Z</time></trkpt><trkpt lat="43.1986650056256" lon="12.981498170991028"><ele>1114.0</ele><time>2026-05-02T09:27:39Z</time></trkpt><trkpt lat="43.198779768090496" lon="12.98147754378609"><ele>1114.0</ele><time>2026-05-02T09:27:41Z</time></trkpt><trkpt lat="43.198863330059424" lon="12.981424023607453"><ele>1114.0</ele><time>2026-05-02T09:27:43Z</time></trkpt><trkpt lat="43.19896114906247" lon="12.981381737254468"><ele>1114.0</ele><time>2026-05-02T09:27:45Z</time></trkpt><trkpt lat="43.19905660811709" lon="12.981377089469536"><ele>1114.0</ele><time>2026-05-02T09:27:47Z</time></trkpt><trkpt lat="43.1991611762632" lon="12.981337179156643"><ele>1114.0</ele><time>2026-05-02T09:27:49Z</time></trkpt><trkpt lat="43.1992721395427" lon="12.981283217403597"><ele>1108.6000000000001</ele><time>2026-05-02T09:27:51Z</time></trkpt><trkpt lat="43.19938857770341" lon="12.981219429719204"><ele>1103.2</ele><time>2026-05-02T09:27:53Z</time></trkpt><trkpt lat="43.19950052317493" lon="12.98114239946389"><ele>1097.8000000000002</ele><time>2026-05-02T09:27:55Z</time></trkpt><trkpt lat="43.19956198339651" lon="12.981108006176301"><ele>1092.4</ele><time>2026-05-02T09:27:56Z</time></trkpt><trkpt lat="43.19962670279584" lon="12.981072336639752"><ele>1087.0</ele><time>2026-05-02T09:27:57Z</time></trkpt><trkpt lat="43.199687868337584" lon="12.981039313586427"><ele>1087.0</ele><time>2026-05-02T09:27:58Z</time></trkpt><trkpt lat="43.19980110815595" lon="12.980989653288415"><ele>1087.0</ele><time>2026-05-02T09:28:00Z</time></trkpt><trkpt lat="43.1999078503836" lon="12.980941725642294"><ele>1087.0</ele><time>2026-05-02T09:28:02Z</time></trkpt><trkpt lat="43.20001707915528" lon="12.980859927085135"><ele>1087.0</ele><time>2026-05-02T09:28:04Z</time></trkpt><trkpt lat="43.20009103965131" lon="12.980841545877302"><ele>1087.0</ele><time>2026-05-02T09:28:05Z</time></trkpt><trkpt lat="43.200167398526006" lon="12.980835814578837"><ele>1084.5</ele><time>2026-05-02T09:28:06Z</time></trkpt><trkpt lat="43.20023725654658" lon="12.980796860220378"><ele>1082.0</ele><time>2026-05-02T09:28:07Z</time></trkpt><trkpt lat="43.200315023765754" lon="12.980752719279812"><ele>1079.5</ele><time>2026-05-02T09:28:08Z</time></trkpt><trkpt lat="43.200404980743016" lon="12.980703056165504"><ele>1077.0</ele><time>2026-05-02T09:28:09Z</time></trkpt><trkpt lat="43.20047526753489" lon="12.980661656119757"><ele>1074.5</ele><time>2026-05-02T09:28:10Z</time></trkpt><trkpt lat="43.200561245734285" lon="12.980618886167923"><ele>1072.0</ele><time>2026-05-02T09:28:11Z</time></trkpt><trkpt lat="43.20063341659621" lon="12.980584244299699"><ele>1069.0</ele><time>2026-05-02T09:28:12Z</time></trkpt><trkpt lat="43.200729962135405" lon="12.980541287437836"><ele>1066.0</ele><time>2026-05-02T09:28:12.999Z</time></trkpt><trkpt lat="43.20081644952981" lon="12.980529649112821"><ele>1063.0</ele><time>2026-05-02T09:28:13.999Z</time></trkpt><trkpt lat="43.200902702896535" lon="12.980523905513571"><ele>1060.0</ele><time>2026-05-02T09:28:14.999Z</time></trkpt><trkpt lat="43.200988399815635" lon="12.980503938056462"><ele>1057.0</ele><time>2026-05-02T09:28:15.999Z</time></trkpt><trkpt lat="43.20105355919194" lon="12.980468383182401"><ele>1054.0</ele><time>2026-05-02T09:28:16.999Z</time></trkpt><trkpt lat="43.201133167760595" lon="12.980440824106957"><ele>1054.0</ele><time>2026-05-02T09:28:17.999Z</time></trkpt><trkpt lat="43.20121711879594" lon="12.980410835979551"><ele>1054.0</ele><time>2026-05-02T09:28:18.999Z</time></trkpt><trkpt lat="43.201314276605295" lon="12.980385186976793"><ele>1054.0</ele><time>2026-05-02T09:28:19.999Z</time></trkpt><trkpt lat="43.201401561952046" lon="12.980352349325221"><ele>1054.0</ele><time>2026-05-02T09:28:20.999Z</time></trkpt><trkpt lat="43.2014879632953" lon="12.980312085642081"><ele>1054.0</ele><time>2026-05-02T09:28:21.999Z</time></trkpt><trkpt lat="43.201556949638025" lon="12.980291619531522"><ele>1054.0</ele><time>2026-05-02T09:28:22.999Z</time></trkpt><trkpt lat="43.201632990943416" lon="12.980277461060153"><ele>1049.6000000000001</ele><time>2026-05-02T09:28:23.999Z</time></trkpt><trkpt lat="43.201761858154626" lon="12.980218574405965"><ele>1045.2</ele><time>2026-05-02T09:28:25.999Z</time></trkpt><trkpt lat="43.20184436837562" lon="12.980180157675338"><ele>1040.8000000000002</ele><time>2026-05-02T09:28:26.999Z</time></trkpt><trkpt lat="43.201925500313024" lon="12.980141586360947"><ele>1036.4</ele><time>2026-05-02T09:28:27.999Z</time></trkpt><trkpt lat="43.20200750954516" lon="12.980107031341227"><ele>1032.0</ele><time>2026-05-02T09:28:28.999Z</time></trkpt><trkpt lat="43.20208321078368" lon="12.980082412156799"><ele>1032.0</ele><time>2026-05-02T09:28:29.999Z</time></trkpt><trkpt lat="43.202155899964396" lon="12.980060904041864"><ele>1032.0</ele><time>2026-05-02T09:28:30.999Z</time></trkpt><trkpt lat="43.20222469686244" lon="12.980058996991767"><ele>1032.0</ele><time>2026-05-02T09:28:31.999Z</time></trkpt><trkpt lat="43.20231286865059" lon="12.980056598420571"><ele>1032.0</ele><time>2026-05-02T09:28:32.999Z</time></trkpt><trkpt lat="43.20243593288377" lon="12.980008727388265"><ele>1032.0</ele><time>2026-05-02T09:28:34.999Z</time></trkpt><trkpt lat="43.20251196218036" lon="12.979979896733594"><ele>1032.0</ele><time>2026-05-02T09:28:35.999Z</time></trkpt><trkpt lat="43.20260155826051" lon="12.979972968000464"><ele>1029.6</ele><time>2026-05-02T09:28:36.999Z</time></trkpt><trkpt lat="43.20268383053316" lon="12.979969613694532"><ele>1027.2</ele><time>2026-05-02T09:28:37.999Z</time></trkpt><trkpt lat="43.20279857694886" lon="12.979970048846821"><ele>1024.8</ele><time>2026-05-02T09:28:39.999Z</time></trkpt><trkpt lat="43.20290111547631" lon="12.979972090965436"><ele>1022.4</ele><time>2026-05-02T09:28:41.999Z</time></trkpt><trkpt lat="43.20299498136982" lon="12.979976153324813"><ele>1020.0</ele><time>2026-05-02T09:28:43.999Z</time></trkpt><trkpt lat="43.20299157594957" lon="12.98006602278452"><ele>1018.1666666666666</ele><time>2026-05-02T09:28:45.999Z</time></trkpt><trkpt lat="43.20300923187783" lon="12.980181918273967"><ele>1016.3333333333333</ele><time>2026-05-02T09:28:49.999Z</time></trkpt><trkpt lat="43.20306561122012" lon="12.980228030223255"><ele>1014.5</ele><time>2026-05-02T09:28:56.999Z</time></trkpt><trkpt lat="43.20312249457614" lon="12.9801704428169"><ele>1012.6666666666666</ele><time>2026-05-02T09:28:59.999Z</time></trkpt><trkpt lat="43.203190071601334" lon="12.980092853853025"><ele>1010.8333333333333</ele><time>2026-05-02T09:29:01.999Z</time></trkpt><trkpt lat="43.203246513592056" lon="12.980052709703433"><ele>1009.0</ele><time>2026-05-02T09:29:02.999Z</time></trkpt><trkpt lat="43.203343164035346" lon="12.980039586838075"><ele>1005.0</ele><time>2026-05-02T09:29:04.999Z</time></trkpt><trkpt lat="43.203410818627574" lon="12.980025662678164"><ele>1001.0000000000001</ele><time>2026-05-02T09:29:05.999Z</time></trkpt><trkpt lat="43.20348362265516" lon="12.979932889884845"><ele>997.0000000000001</ele><time>2026-05-02T09:29:07.999Z</time></trkpt><trkpt lat="43.20358401433358" lon="12.979839241039398"><ele>993.0</ele><time>2026-05-02T09:29:09.999Z</time></trkpt><trkpt lat="43.20365239097726" lon="12.979780751547276"><ele>989.0</ele><time>2026-05-02T09:29:10.999Z</time></trkpt><trkpt lat="43.203737675686206" lon="12.979682648713885"><ele>989.0000000000001</ele><time>2026-05-02T09:29:12.999Z</time></trkpt><trkpt lat="43.2037969953588" lon="12.979631632012307"><ele>989.0</ele><time>2026-05-02T09:29:13.999Z</time></trkpt><trkpt lat="43.203860797170506" lon="12.979594355200168"><ele>989.0</ele><time>2026-05-02T09:29:15Z</time></trkpt><trkpt lat="43.2039217691942" lon="12.97955836351209"><ele>989.0</ele><time>2026-05-02T09:29:16Z</time></trkpt><trkpt lat="43.203978908545196" lon="12.979514130964283"><ele>989.0000000000001</ele><time>2026-05-02T09:29:17Z</time></trkpt><trkpt lat="43.20408152267831" lon="12.979417095155906"><ele>989.0</ele><time>2026-05-02T09:29:19Z</time></trkpt><trkpt lat="43.20414863462788" lon="12.979380369553141"><ele>981.6</ele><time>2026-05-02T09:29:20Z</time></trkpt><trkpt lat="43.20425437073511" lon="12.979333352541133"><ele>974.2</ele><time>2026-05-02T09:29:22Z</time></trkpt><trkpt lat="43.20434189215696" lon="12.979297880114094"><ele>966.8000000000001</ele><time>2026-05-02T09:29:24Z</time></trkpt><trkpt lat="43.204413552766525" lon="12.979339003488452"><ele>959.4000000000001</ele><time>2026-05-02T09:29:26Z</time></trkpt><trkpt lat="43.204507807806785" lon="12.97938461512299"><ele>952.0</ele><time>2026-05-02T09:29:28Z</time></trkpt><trkpt lat="43.20458852401005" lon="12.979443699290307"><ele>951.9999999999999</ele><time>2026-05-02T09:29:30Z</time></trkpt><trkpt lat="43.204665644796144" lon="12.979513459951082"><ele>952.0</ele><time>2026-05-02T09:29:32Z</time></trkpt><trkpt lat="43.20474176408827" lon="12.979482761728017"><ele>952.0</ele><time>2026-05-02T09:29:34Z</time></trkpt><trkpt lat="43.20483183287035" lon="12.979420775975154"><ele>952.0</ele><time>2026-05-02T09:29:36Z</time></trkpt><trkpt lat="43.204903210016894" lon="12.979452201736926"><ele>951.9999999999999</ele><time>2026-05-02T09:29:38Z</time></trkpt><trkpt lat="43.20494498275249" lon="12.979381428907004"><ele>952.0</ele><time>2026-05-02T09:29:41Z</time></trkpt><trkpt lat="43.20495866013969" lon="12.979263536759301"><ele>947.2</ele><time>2026-05-02T09:29:43Z</time></trkpt><trkpt lat="43.20497682640848" lon="12.979146498408765"><ele>942.4000000000001</ele><time>2026-05-02T09:29:45Z</time></trkpt><trkpt lat="43.204997647408916" lon="12.979030935708817"><ele>937.5999999999999</ele><time>2026-05-02T09:29:47Z</time></trkpt><trkpt lat="43.20504513528407" lon="12.97887989151423"><ele>932.8</ele><time>2026-05-02T09:29:49Z</time></trkpt><trkpt lat="43.20511307484297" lon="12.978780629729375"><ele>928.0</ele><time>2026-05-02T09:29:50Z</time></trkpt><trkpt lat="43.20518118793199" lon="12.978672095219839"><ele>928.0</ele><time>2026-05-02T09:29:51Z</time></trkpt><trkpt lat="43.20524248191788" lon="12.978557978959515"><ele>928.0</ele><time>2026-05-02T09:29:52Z</time></trkpt><trkpt lat="43.2052902593684" lon="12.978447850939292"><ele>928.0</ele><time>2026-05-02T09:29:53Z</time></trkpt><trkpt lat="43.20534336980655" lon="12.978308315357943"><ele>928.0</ele><time>2026-05-02T09:29:54Z</time></trkpt><trkpt lat="43.20539635617655" lon="12.97816963072752"><ele>928.0</ele><time>2026-05-02T09:29:55Z</time></trkpt><trkpt lat="43.205453185792805" lon="12.97805600066961"><ele>924.9999999999999</ele><time>2026-05-02T09:29:56Z</time></trkpt><trkpt lat="43.205504908191955" lon="12.977975402526766"><ele>922.0</ele><time>2026-05-02T09:29:57Z</time></trkpt><trkpt lat="43.205557645739965" lon="12.977919392896995"><ele>919.0</ele><time>2026-05-02T09:29:58Z</time></trkpt><trkpt lat="43.20561564089893" lon="12.977830149995434"><ele>916.0</ele><time>2026-05-02T09:29:59Z</time></trkpt><trkpt lat="43.20567367040059" lon="12.977737812365731"><ele>912.9999999999999</ele><time>2026-05-02T09:30:00Z</time></trkpt><trkpt lat="43.20573703157819" lon="12.977634134172911"><ele>910.0</ele><time>2026-05-02T09:30:01Z</time></trkpt><trkpt lat="43.20578657442936" lon="12.977562596887473"><ele>913.0</ele><time>2026-05-02T09:30:02Z</time></trkpt><trkpt lat="43.20584502843473" lon="12.977406513816325"><ele>916.0</ele><time>2026-05-02T09:30:04Z</time></trkpt><trkpt lat="43.20586351884957" lon="12.977293118693568"><ele>919.0</ele><time>2026-05-02T09:30:05Z</time></trkpt><trkpt lat="43.2058793801834" lon="12.977153273427032"><ele>922.0</ele><time>2026-05-02T09:30:06Z</time></trkpt><trkpt lat="43.20589798071119" lon="12.97704158808019"><ele>925.0</ele><time>2026-05-02T09:30:07Z</time></trkpt><trkpt lat="43.20592001986431" lon="12.976960054214896"><ele>925.0</ele><time>2026-05-02T09:30:08Z</time></trkpt><trkpt lat="43.20595232941463" lon="12.976804020236319"><ele>925.0</ele><time>2026-05-02T09:30:10Z</time></trkpt><trkpt lat="43.20600904644635" lon="12.97664924912953"><ele>925.0</ele><time>2026-05-02T09:30:12Z</time></trkpt><trkpt lat="43.20605010782112" lon="12.97654060716955"><ele>925.0</ele><time>2026-05-02T09:30:13Z</time></trkpt><trkpt lat="43.20607969159855" lon="12.976440463938424"><ele>925.0</ele><time>2026-05-02T09:30:14Z</time></trkpt><trkpt lat="43.206089775468634" lon="12.976334762740699"><ele>927.6666666666666</ele><time>2026-05-02T09:30:15Z</time></trkpt><trkpt lat="43.206114594295" lon="12.976225765459795"><ele>930.3333333333333</ele><time>2026-05-02T09:30:16Z</time></trkpt><trkpt lat="43.20613273675011" lon="12.976123726530847"><ele>933.0</ele><time>2026-05-02T09:30:17Z</time></trkpt><trkpt lat="43.2061419565742" lon="12.976023788884266"><ele>935.6666666666667</ele><time>2026-05-02T09:30:18Z</time></trkpt><trkpt lat="43.20615845578534" lon="12.97591511336521"><ele>938.3333333333334</ele><time>2026-05-02T09:30:19Z</time></trkpt><trkpt lat="43.20616035080729" lon="12.975814952070962"><ele>941.0</ele><time>2026-05-02T09:30:19.999Z</time></trkpt><trkpt lat="43.206170315245494" lon="12.975688518083336"><ele>946.1999999999999</ele><time>2026-05-02T09:30:20.999Z</time></trkpt><trkpt lat="43.20617086099565" lon="12.975589443428868"><ele>951.3999999999999</ele><time>2026-05-02T09:30:21.999Z</time></trkpt><trkpt lat="43.206180749870036" lon="12.975463021834662"><ele>956.6</ele><time>2026-05-02T09:30:22.999Z</time></trkpt><trkpt lat="43.206203021533405" lon="12.975338393565126"><ele>961.8</ele><time>2026-05-02T09:30:23.999Z</time></trkpt><trkpt lat="43.206231787595556" lon="12.975206999878825"><ele>967.0</ele><time>2026-05-02T09:30:24.999Z</time></trkpt><trkpt lat="43.20625262127818" lon="12.975081373116062"><ele>971.0</ele><time>2026-05-02T09:30:25.999Z</time></trkpt><trkpt lat="43.20628249749781" lon="12.974943010447765"><ele>975.0</ele><time>2026-05-02T09:30:26.999Z</time></trkpt><trkpt lat="43.20629704001111" lon="12.974821494679265"><ele>979.0</ele><time>2026-05-02T09:30:27.999Z</time></trkpt><trkpt lat="43.206323662860775" lon="12.974699321131151"><ele>983.0</ele><time>2026-05-02T09:30:28.999Z</time></trkpt><trkpt lat="43.206356386292605" lon="12.974566226559583"><ele>987.0</ele><time>2026-05-02T09:30:29.999Z</time></trkpt><trkpt lat="43.206400153786845" lon="12.974442713616629"><ele>987.0</ele><time>2026-05-02T09:30:30.999Z</time></trkpt><trkpt lat="43.20642756678343" lon="12.974325673725556"><ele>987.0</ele><time>2026-05-02T09:30:31.999Z</time></trkpt><trkpt lat="43.206443421376726" lon="12.974191899738058"><ele>987.0</ele><time>2026-05-02T09:30:32.999Z</time></trkpt><trkpt lat="43.20644981050638" lon="12.974077879344158"><ele>987.0</ele><time>2026-05-02T09:30:33.999Z</time></trkpt><trkpt lat="43.20646712217603" lon="12.973963409436749"><ele>987.0</ele><time>2026-05-02T09:30:34.999Z</time></trkpt><trkpt lat="43.20650922786007" lon="12.973828236939852"><ele>986.4000000000001</ele><time>2026-05-02T09:30:36.999Z</time></trkpt><trkpt lat="43.20655445463261" lon="12.973701570799989"><ele>985.8000000000001</ele><time>2026-05-02T09:30:38.999Z</time></trkpt><trkpt lat="43.20658800630536" lon="12.97359719555867"><ele>985.2</ele><time>2026-05-02T09:30:40.999Z</time></trkpt><trkpt lat="43.20663247366454" lon="12.97351448993486"><ele>984.6</ele><time>2026-05-02T09:30:41.999Z</time></trkpt><trkpt lat="43.2066870504762" lon="12.97336349964302"><ele>984.0</ele><time>2026-05-02T09:30:43.999Z</time></trkpt><trkpt lat="43.20672529461491" lon="12.973267700985872"><ele>984.0</ele><time>2026-05-02T09:30:45.999Z</time></trkpt><trkpt lat="43.20675913638306" lon="12.973122186566489"><ele>984.0000000000001</ele><time>2026-05-02T09:30:47.999Z</time></trkpt><trkpt lat="43.20679769465644" lon="12.972998166007477"><ele>984.0000000000001</ele><time>2026-05-02T09:30:49.999Z</time></trkpt><trkpt lat="43.20684426796114" lon="12.97284009434729"><ele>984.0</ele><time>2026-05-02T09:30:51.999Z</time></trkpt><trkpt lat="43.20688561369779" lon="12.972773070003981"><ele>984.0</ele><time>2026-05-02T09:30:52.999Z</time></trkpt><trkpt lat="43.20695102611874" lon="12.97262218012883"><ele>984.0</ele><time>2026-05-02T09:30:54.999Z</time></trkpt><trkpt lat="43.206988583901605" lon="12.97255010668339"><ele>984.0000000000001</ele><time>2026-05-02T09:30:55.999Z</time></trkpt><trkpt lat="43.20704375003277" lon="12.972408555250867"><ele>984.0000000000001</ele><time>2026-05-02T09:30:57.999Z</time></trkpt><trkpt lat="43.207076091213224" lon="12.972323291561999"><ele>984.0</ele><time>2026-05-02T09:30:58.999Z</time></trkpt><trkpt lat="43.20713850495411" lon="12.972142603833884"><ele>984.0</ele><time>2026-05-02T09:31:00.999Z</time></trkpt><trkpt lat="43.207150627199226" lon="12.972049551695164"><ele>991.0</ele><time>2026-05-02T09:31:01.999Z</time></trkpt><trkpt lat="43.20717410990475" lon="12.971961694129384"><ele>998.0000000000001</ele><time>2026-05-02T09:31:02.999Z</time></trkpt><trkpt lat="43.207200423180325" lon="12.971827692695532"><ele>1005.0000000000001</ele><time>2026-05-02T09:31:04.999Z</time></trkpt><trkpt lat="43.20724457816604" lon="12.971676086656975"><ele>1012.0</ele><time>2026-05-02T09:31:06.999Z</time></trkpt><trkpt lat="43.207344473561186" lon="12.971629311788952"><ele>1019.0</ele><time>2026-05-02T09:31:08.999Z</time></trkpt><trkpt lat="43.20748357798824" lon="12.971573148530158"><ele>1019.0000000000001</ele><time>2026-05-02T09:31:10.999Z</time></trkpt><trkpt lat="43.20756156978887" lon="12.971482620627715"><ele>1019.0</ele><time>2026-05-02T09:31:12.999Z</time></trkpt><trkpt lat="43.20762282067033" lon="12.971389645623274"><ele>1019.0</ele><time>2026-05-02T09:31:14.999Z</time></trkpt><trkpt lat="43.20764676026695" lon="12.971275849130093"><ele>1019.0</ele><time>2026-05-02T09:31:16.999Z</time></trkpt><trkpt lat="43.207661746064076" lon="12.971174570740969"><ele>1019.0000000000001</ele><time>2026-05-02T09:31:18.999Z</time></trkpt><trkpt lat="43.207656182374954" lon="12.971069691256798"><ele>1019.0</ele><time>2026-05-02T09:31:22Z</time></trkpt><trkpt lat="43.20764371916845" lon="12.970971628199543"><ele>1019.0000000000001</ele><time>2026-05-02T09:31:25Z</time></trkpt><trkpt lat="43.2076005780014" lon="12.970868533953436"><ele>1019.0</ele><time>2026-05-02T09:31:28Z</time></trkpt><trkpt lat="43.20752844507429" lon="12.970839134429458"><ele>1019.0</ele><time>2026-05-02T09:31:31Z</time></trkpt><trkpt lat="43.207449656812265" lon="12.970794671026221"><ele>1019.0</ele><time>2026-05-02T09:31:34Z</time></trkpt><trkpt lat="43.20738634460372" lon="12.970789007899388"><ele>1019.0000000000001</ele><time>2026-05-02T09:31:43Z</time></trkpt><trkpt lat="43.20727001943055" lon="12.970780757172168"><ele>1019.0</ele><time>2026-05-02T09:31:46Z</time></trkpt><trkpt lat="43.20718499735915" lon="12.970756296009968"><ele>1030.75</ele><time>2026-05-02T09:31:48Z</time></trkpt><trkpt lat="43.207115365223146" lon="12.970724328561614"><ele>1042.5</ele><time>2026-05-02T09:31:50Z</time></trkpt><trkpt lat="43.207073255071045" lon="12.97062401013365"><ele>1054.25</ele><time>2026-05-02T09:31:52Z</time></trkpt><trkpt lat="43.207020463857084" lon="12.97049282286614"><ele>1066.0</ele><time>2026-05-02T09:31:54Z</time></trkpt><trkpt lat="43.20684675397433" lon="12.970413160536493"><ele>1066.0</ele><time>2026-05-02T09:31:56Z</time></trkpt><trkpt lat="43.20678242959245" lon="12.970423317446965"><ele>1066.0</ele><time>2026-05-02T09:31:57Z</time></trkpt><trkpt lat="43.20670584379695" lon="12.970427101973087"><ele>1066.0</ele><time>2026-05-02T09:31:58Z</time></trkpt><trkpt lat="43.20664129128031" lon="12.970410864708173"><ele>1066.0</ele><time>2026-05-02T09:31:59Z</time></trkpt><trkpt lat="43.206564583741894" lon="12.970373582727259"><ele>1066.0</ele><time>2026-05-02T09:32:00Z</time></trkpt><trkpt lat="43.20647000586026" lon="12.970329241463268"><ele>1066.0</ele><time>2026-05-02T09:32:01Z</time></trkpt><trkpt lat="43.20636814690221" lon="12.970273600775196"><ele>1070.0</ele><time>2026-05-02T09:32:02Z</time></trkpt><trkpt lat="43.206264570174895" lon="12.970206921516032"><ele>1074.0</ele><time>2026-05-02T09:32:03Z</time></trkpt><trkpt lat="43.20615550855634" lon="12.970157756068073"><ele>1078.0</ele><time>2026-05-02T09:32:04Z</time></trkpt><trkpt lat="43.206062468528465" lon="12.970097541209217"><ele>1082.0</ele><time>2026-05-02T09:32:05Z</time></trkpt><trkpt lat="43.20597193785515" lon="12.970041791379213"><ele>1086.0</ele><time>2026-05-02T09:32:06Z</time></trkpt><trkpt lat="43.20588160574053" lon="12.969988133375676"><ele>1087.3999999999999</ele><time>2026-05-02T09:32:07Z</time></trkpt><trkpt lat="43.20578744435058" lon="12.96994556381689"><ele>1088.8</ele><time>2026-05-02T09:32:08Z</time></trkpt><trkpt lat="43.20568963999495" lon="12.969889822484134"><ele>1090.1999999999998</ele><time>2026-05-02T09:32:09Z</time></trkpt><trkpt lat="43.205601822222" lon="12.96981153634624"><ele>1091.6</ele><time>2026-05-02T09:32:10Z</time></trkpt><trkpt lat="43.20551680969157" lon="12.969726031988577"><ele>1093.0</ele><time>2026-05-02T09:32:11Z</time></trkpt><trkpt lat="43.20543179090676" lon="12.969638244357414"><ele>1097.25</ele><time>2026-05-02T09:32:12Z</time></trkpt><trkpt lat="43.20533931017908" lon="12.969541944755129"><ele>1101.5</ele><time>2026-05-02T09:32:13Z</time></trkpt><trkpt lat="43.20523546223258" lon="12.969441024053713"><ele>1105.75</ele><time>2026-05-02T09:32:14Z</time></trkpt><trkpt lat="43.20513606939705" lon="12.969343259585719"><ele>1110.0</ele><time>2026-05-02T09:32:15Z</time></trkpt><trkpt lat="43.20505270444272" lon="12.969287642537367"><ele>1110.0</ele><time>2026-05-02T09:32:16Z</time></trkpt><trkpt lat="43.20495640493956" lon="12.969232954228692"><ele>1110.0</ele><time>2026-05-02T09:32:17Z</time></trkpt><trkpt lat="43.20487387967225" lon="12.969222822224296"><ele>1110.0</ele><time>2026-05-02T09:32:19Z</time></trkpt><trkpt lat="43.20478590454061" lon="12.969138871358973"><ele>1110.0</ele><time>2026-05-02T09:32:38.999Z</time></trkpt><trkpt lat="43.20469434751665" lon="12.969061268315391"><ele>1110.0</ele><time>2026-05-02T09:32:40.999Z</time></trkpt><trkpt lat="43.20458897475405" lon="12.969002833953091"><ele>1114.3333333333333</ele><time>2026-05-02T09:32:42.999Z</time></trkpt><trkpt lat="43.204522244023764" lon="12.968971416329687"><ele>1118.6666666666667</ele><time>2026-05-02T09:32:43.999Z</time></trkpt><trkpt lat="43.2044138274814" lon="12.968930099305803"><ele>1123.0</ele><time>2026-05-02T09:32:45.999Z</time></trkpt><trkpt lat="43.204339544850995" lon="12.968895628668502"><ele>1127.3333333333335</ele><time>2026-05-02T09:32:46.999Z</time></trkpt><trkpt lat="43.20426729294939" lon="12.968866056359927"><ele>1131.6666666666667</ele><time>2026-05-02T09:32:47.999Z</time></trkpt><trkpt lat="43.204206156213175" lon="12.968841264501824"><ele>1136.0</ele><time>2026-05-02T09:32:48.999Z</time></trkpt><trkpt lat="43.204126559426115" lon="12.968812971600126"><ele>1136.0</ele><time>2026-05-02T09:32:49.999Z</time></trkpt><trkpt lat="43.20404828735271" lon="12.96877099417857"><ele>1136.0</ele><time>2026-05-02T09:32:50.999Z</time></trkpt><trkpt lat="43.203964035027695" lon="12.968731767673152"><ele>1136.0</ele><time>2026-05-02T09:32:51.999Z</time></trkpt><trkpt lat="43.20388531838935" lon="12.968691027463228"><ele>1136.0</ele><time>2026-05-02T09:32:52.999Z</time></trkpt><trkpt lat="43.20380020501946" lon="12.96864921426032"><ele>1136.0</ele><time>2026-05-02T09:32:53.999Z</time></trkpt><trkpt lat="43.20371252991956" lon="12.968600938629418"><ele>1136.0</ele><time>2026-05-02T09:32:54.999Z</time></trkpt><trkpt lat="43.203619057925685" lon="12.968548587615963"><ele>1137.8333333333335</ele><time>2026-05-02T09:32:55.999Z</time></trkpt><trkpt lat="43.20353401590825" lon="12.96850988376164"><ele>1139.6666666666667</ele><time>2026-05-02T09:32:56.999Z</time></trkpt><trkpt lat="43.20344612129237" lon="12.968490003159957"><ele>1141.5</ele><time>2026-05-02T09:32:57.999Z</time></trkpt><trkpt lat="43.2033565524641" lon="12.968489346434207"><ele>1143.3333333333333</ele><time>2026-05-02T09:32:58.999Z</time></trkpt><trkpt lat="43.203263567640285" lon="12.968502278563616"><ele>1145.1666666666665</ele><time>2026-05-02T09:32:59.999Z</time></trkpt><trkpt lat="43.20319128129311" lon="12.968531404473584"><ele>1147.0</ele><time>2026-05-02T09:33:00.999Z</time></trkpt><trkpt lat="43.203089397587576" lon="12.968606909911706"><ele>1148.3333333333333</ele><time>2026-05-02T09:33:02.999Z</time></trkpt><trkpt lat="43.20301268872652" lon="12.96867468423956"><ele>1149.6666666666665</ele><time>2026-05-02T09:33:04.999Z</time></trkpt><trkpt lat="43.20296433325044" lon="12.968614892196891"><ele>1151.0</ele><time>2026-05-02T09:33:14.999Z</time></trkpt><trkpt lat="43.202982401846114" lon="12.968467996432942"><ele>1152.3333333333333</ele><time>2026-05-02T09:33:16.999Z</time></trkpt><trkpt lat="43.20301765687287" lon="12.96838520014157"><ele>1153.6666666666667</ele><time>2026-05-02T09:33:17.999Z</time></trkpt><trkpt lat="43.203048547438335" lon="12.968298497205973"><ele>1155.0</ele><time>2026-05-02T09:33:18.999Z</time></trkpt><trkpt lat="43.20308266252769" lon="12.968188691535055"><ele>1155.0</ele><time>2026-05-02T09:33:19.999Z</time></trkpt><trkpt lat="43.20310808329014" lon="12.968083611772949"><ele>1155.0</ele><time>2026-05-02T09:33:20.999Z</time></trkpt><trkpt lat="43.2031451445767" lon="12.967949866125199"><ele>1155.0</ele><time>2026-05-02T09:33:21.999Z</time></trkpt><trkpt lat="43.203183404346504" lon="12.967826273752198"><ele>1155.0</ele><time>2026-05-02T09:33:22.999Z</time></trkpt><trkpt lat="43.20322006177285" lon="12.967707629448892"><ele>1155.0</ele><time>2026-05-02T09:33:23.999Z</time></trkpt><trkpt lat="43.203272546247334" lon="12.967576493498603"><ele>1158.0</ele><time>2026-05-02T09:33:24.999Z</time></trkpt><trkpt lat="43.2033365416332" lon="12.967428740801777"><ele>1161.0</ele><time>2026-05-02T09:33:25.999Z</time></trkpt><trkpt lat="43.203385055007395" lon="12.967321793463423"><ele>1164.0</ele><time>2026-05-02T09:33:27Z</time></trkpt><trkpt lat="43.203424848838154" lon="12.967237804965665"><ele>1167.0</ele><time>2026-05-02T09:33:28Z</time></trkpt><trkpt lat="43.203467006404054" lon="12.967146292420907"><ele>1170.0</ele><time>2026-05-02T09:33:29Z</time></trkpt><trkpt lat="43.20350811322267" lon="12.967068675732461"><ele>1173.0</ele><time>2026-05-02T09:33:30Z</time></trkpt><trkpt lat="43.20356533472327" lon="12.966958661782575"><ele>1173.0</ele><time>2026-05-02T09:33:31Z</time></trkpt><trkpt lat="43.20360983136622" lon="12.966868479484395"><ele>1173.0</ele><time>2026-05-02T09:33:32Z</time></trkpt><trkpt lat="43.20367057765427" lon="12.966735699600498"><ele>1173.0</ele><time>2026-05-02T09:33:33Z</time></trkpt><trkpt lat="43.20373073027857" lon="12.966623303711174"><ele>1173.0</ele><time>2026-05-02T09:33:34Z</time></trkpt><trkpt lat="43.20379885068983" lon="12.966497421560069"><ele>1173.0</ele><time>2026-05-02T09:33:35Z</time></trkpt><trkpt lat="43.203869172200996" lon="12.966383224455798"><ele>1171.0</ele><time>2026-05-02T09:33:36Z</time></trkpt><trkpt lat="43.203932838399496" lon="12.966293915544355"><ele>1169.0</ele><time>2026-05-02T09:33:37Z</time></trkpt><trkpt lat="43.203981077974305" lon="12.966222432971394"><ele>1167.0</ele><time>2026-05-02T09:33:38Z</time></trkpt><trkpt lat="43.204022466926396" lon="12.966148894601435"><ele>1165.0</ele><time>2026-05-02T09:33:39Z</time></trkpt><trkpt lat="43.20406563351029" lon="12.9660603642908"><ele>1163.0</ele><time>2026-05-02T09:33:40Z</time></trkpt><trkpt lat="43.20410585407417" lon="12.965984265185757"><ele>1161.0</ele><time>2026-05-02T09:33:41Z</time></trkpt><trkpt lat="43.20416285466161" lon="12.9658709622787"><ele>1158.0</ele><time>2026-05-02T09:33:42Z</time></trkpt><trkpt lat="43.204207510637595" lon="12.965782519035136"><ele>1155.0</ele><time>2026-05-02T09:33:43Z</time></trkpt><trkpt lat="43.20424501141608" lon="12.96570472774727"><ele>1152.0</ele><time>2026-05-02T09:33:44Z</time></trkpt><trkpt lat="43.204283205388144" lon="12.965617593672649"><ele>1149.0</ele><time>2026-05-02T09:33:45Z</time></trkpt><trkpt lat="43.20428481322737" lon="12.965491316125377"><ele>1146.0</ele><time>2026-05-02T09:33:47Z</time></trkpt><trkpt lat="43.20420805033445" lon="12.965397051631859"><ele>1143.0</ele><time>2026-05-02T09:33:49Z</time></trkpt><trkpt lat="43.20415313418733" lon="12.965339804779013"><ele>1143.0</ele><time>2026-05-02T09:33:50Z</time></trkpt><trkpt lat="43.20405983707477" lon="12.965243723856364"><ele>1143.0</ele><time>2026-05-02T09:33:52Z</time></trkpt><trkpt lat="43.203969746990396" lon="12.965112940445685"><ele>1143.0</ele><time>2026-05-02T09:33:54Z</time></trkpt><trkpt lat="43.20391741231882" lon="12.965049280284406"><ele>1143.0</ele><time>2026-05-02T09:33:55Z</time></trkpt><trkpt lat="43.20386394482462" lon="12.964995823683873"><ele>1143.0</ele><time>2026-05-02T09:33:56Z</time></trkpt><trkpt lat="43.20379846862929" lon="12.964945810574378"><ele>1139.1666666666667</ele><time>2026-05-02T09:33:57Z</time></trkpt><trkpt lat="43.20371674276589" lon="12.964898073518688"><ele>1135.3333333333333</ele><time>2026-05-02T09:33:58Z</time></trkpt><trkpt lat="43.20365162417175" lon="12.964861577681411"><ele>1131.5</ele><time>2026-05-02T09:33:59Z</time></trkpt><trkpt lat="43.203593261478126" lon="12.964819328273345"><ele>1127.6666666666665</ele><time>2026-05-02T09:34:00Z</time></trkpt><trkpt lat="43.203539085195494" lon="12.964753032102076"><ele>1123.8333333333333</ele><time>2026-05-02T09:34:01Z</time></trkpt><trkpt lat="43.203488307610755" lon="12.964669381604233"><ele>1120.0</ele><time>2026-05-02T09:34:02Z</time></trkpt><trkpt lat="43.20343204507815" lon="12.964599362277584"><ele>1120.0</ele><time>2026-05-02T09:34:03Z</time></trkpt><trkpt lat="43.20333973028682" lon="12.964512860884689"><ele>1120.0</ele><time>2026-05-02T09:34:04Z</time></trkpt><trkpt lat="43.20326586027822" lon="12.96448114611862"><ele>1120.0</ele><time>2026-05-02T09:34:05Z</time></trkpt><trkpt lat="43.20317370497301" lon="12.964454538337142"><ele>1120.0</ele><time>2026-05-02T09:34:06Z</time></trkpt><trkpt lat="43.20306753568497" lon="12.964435698296619"><ele>1120.0</ele><time>2026-05-02T09:34:07Z</time></trkpt><trkpt lat="43.20295384564744" lon="12.964427348291437"><ele>1113.5</ele><time>2026-05-02T09:34:08Z</time></trkpt><trkpt lat="43.20284299965389" lon="12.96442410489149"><ele>1107.0</ele><time>2026-05-02T09:34:09Z</time></trkpt><trkpt lat="43.20272191594629" lon="12.964424654141009"><ele>1100.5</ele><time>2026-05-02T09:34:10Z</time></trkpt><trkpt lat="43.2026001126795" lon="12.964416294819706"><ele>1094.0</ele><time>2026-05-02T09:34:11Z</time></trkpt><trkpt lat="43.202469164484825" lon="12.964404030476322"><ele>1094.0</ele><time>2026-05-02T09:34:12Z</time></trkpt><trkpt lat="43.20234065512177" lon="12.96439337932469"><ele>1094.0</ele><time>2026-05-02T09:34:13Z</time></trkpt><trkpt lat="43.202214308617165" lon="12.964382006444232"><ele>1094.0</ele><time>2026-05-02T09:34:14Z</time></trkpt><trkpt lat="43.2020887743673" lon="12.96435579678871"><ele>1094.0</ele><time>2026-05-02T09:34:15Z</time></trkpt><trkpt lat="43.201963919913915" lon="12.964321162789108"><ele>1088.25</ele><time>2026-05-02T09:34:16Z</time></trkpt><trkpt lat="43.201834878495454" lon="12.964291461200714"><ele>1082.5</ele><time>2026-05-02T09:34:17Z</time></trkpt><trkpt lat="43.201714160491434" lon="12.964256881951682"><ele>1076.75</ele><time>2026-05-02T09:34:18Z</time></trkpt><trkpt lat="43.20160389770108" lon="12.96421359208782"><ele>1071.0</ele><time>2026-05-02T09:34:19Z</time></trkpt><trkpt lat="43.201524062364975" lon="12.964178508547569"><ele>1070.3333333333333</ele><time>2026-05-02T09:34:20Z</time></trkpt><trkpt lat="43.201452162195665" lon="12.964147561244905"><ele>1069.6666666666667</ele><time>2026-05-02T09:34:21Z</time></trkpt><trkpt lat="43.201374949223236" lon="12.964116434220513"><ele>1069.0</ele><time>2026-05-02T09:34:23Z</time></trkpt><trkpt lat="43.20139285857552" lon="12.964203265419197"><ele>1068.3333333333335</ele><time>2026-05-02T09:34:59.999Z</time></trkpt><trkpt lat="43.20145849851307" lon="12.964263341700558"><ele>1067.6666666666667</ele><time>2026-05-02T09:35:01.999Z</time></trkpt><trkpt lat="43.20156678077081" lon="12.964326333293572"><ele>1067.0</ele><time>2026-05-02T09:35:03.999Z</time></trkpt><trkpt lat="43.201670140025" lon="12.96441777987059"><ele>1067.0</ele><time>2026-05-02T09:35:05.999Z</time></trkpt><trkpt lat="43.20171374505815" lon="12.964482348734077"><ele>1067.0</ele><time>2026-05-02T09:35:06.999Z</time></trkpt><trkpt lat="43.20174872946647" lon="12.96455433344354"><ele>1067.0</ele><time>2026-05-02T09:35:07.999Z</time></trkpt><trkpt lat="43.20181757798556" lon="12.964700216874503"><ele>1067.0</ele><time>2026-05-02T09:35:09.999Z</time></trkpt><trkpt lat="43.201844873847655" lon="12.964786707046684"><ele>1067.0</ele><time>2026-05-02T09:35:10.999Z</time></trkpt><trkpt lat="43.20183987791457" lon="12.964877403385932"><ele>1067.0</ele><time>2026-05-02T09:35:11.999Z</time></trkpt><trkpt lat="43.201810566207904" lon="12.96496867413912"><ele>1069.3333333333335</ele><time>2026-05-02T09:35:12.999Z</time></trkpt><trkpt lat="43.20177462676307" lon="12.965040052481532"><ele>1071.6666666666667</ele><time>2026-05-02T09:35:13.999Z</time></trkpt><trkpt lat="43.20172295307817" lon="12.965104988447585"><ele>1074.0</ele><time>2026-05-02T09:35:14.999Z</time></trkpt><trkpt lat="43.20164340935797" lon="12.965162424932313"><ele>1076.3333333333333</ele><time>2026-05-02T09:35:15.999Z</time></trkpt><trkpt lat="43.201559074011215" lon="12.965216525020347"><ele>1078.6666666666665</ele><time>2026-05-02T09:35:16.999Z</time></trkpt><trkpt lat="43.20147696199035" lon="12.965266849174313"><ele>1081.0</ele><time>2026-05-02T09:35:17.999Z</time></trkpt><trkpt lat="43.20139215840571" lon="12.965319929580644"><ele>1074.6666666666665</ele><time>2026-05-02T09:35:18.999Z</time></trkpt><trkpt lat="43.2013080266805" lon="12.965368307339226"><ele>1068.3333333333333</ele><time>2026-05-02T09:35:19.999Z</time></trkpt><trkpt lat="43.20123178269612" lon="12.965417176275071"><ele>1062.0</ele><time>2026-05-02T09:35:20.999Z</time></trkpt><trkpt lat="43.20115100283925" lon="12.965476781432605"><ele>1055.6666666666667</ele><time>2026-05-02T09:35:21.999Z</time></trkpt><trkpt lat="43.20107347427696" lon="12.965538793415028"><ele>1049.3333333333335</ele><time>2026-05-02T09:35:22.999Z</time></trkpt><trkpt lat="43.20099724078379" lon="12.965601761635996"><ele>1043.0</ele><time>2026-05-02T09:35:23.999Z</time></trkpt><trkpt lat="43.20092227246639" lon="12.965674556379668"><ele>1043.0</ele><time>2026-05-02T09:35:24.999Z</time></trkpt><trkpt lat="43.200863270839704" lon="12.965756898798263"><ele>1043.0</ele><time>2026-05-02T09:35:25.999Z</time></trkpt><trkpt lat="43.200802766898555" lon="12.965835542064184"><ele>1043.0</ele><time>2026-05-02T09:35:26.999Z</time></trkpt><trkpt lat="43.20074496023259" lon="12.96589693345698"><ele>1043.0</ele><time>2026-05-02T09:35:27.999Z</time></trkpt><trkpt lat="43.200685222382575" lon="12.96596158192665"><ele>1043.0</ele><time>2026-05-02T09:35:28.999Z</time></trkpt><trkpt lat="43.20062338719389" lon="12.966043120346228"><ele>1043.0</ele><time>2026-05-02T09:35:29.999Z</time></trkpt><trkpt lat="43.20057511628081" lon="12.966113665898382"><ele>1039.5</ele><time>2026-05-02T09:35:30.999Z</time></trkpt><trkpt lat="43.200532059893334" lon="12.96618464083748"><ele>1036.0</ele><time>2026-05-02T09:35:31.999Z</time></trkpt><trkpt lat="43.20043791201301" lon="12.966280330469905"><ele>1032.5</ele><time>2026-05-02T09:35:34Z</time></trkpt><trkpt lat="43.20038353016996" lon="12.966411119439464"><ele>1029.0</ele><time>2026-05-02T09:35:36Z</time></trkpt><trkpt lat="43.20033569849702" lon="12.966483431902834"><ele>1025.5</ele><time>2026-05-02T09:35:37Z</time></trkpt><trkpt lat="43.200281377046316" lon="12.966528687462453"><ele>1022.0</ele><time>2026-05-02T09:35:38Z</time></trkpt><trkpt lat="43.20017738930019" lon="12.966591491250826"><ele>1022.0</ele><time>2026-05-02T09:35:40Z</time></trkpt><trkpt lat="43.200081670294175" lon="12.966634617159583"><ele>1022.0</ele><time>2026-05-02T09:35:42Z</time></trkpt><trkpt lat="43.19999900078653" lon="12.96666894063617"><ele>1022.0</ele><time>2026-05-02T09:35:44Z</time></trkpt><trkpt lat="43.19990434582738" lon="12.966695660856104"><ele>1022.0</ele><time>2026-05-02T09:35:47Z</time></trkpt><trkpt lat="43.19980073987684" lon="12.966731819505341"><ele>1022.0</ele><time>2026-05-02T09:35:49Z</time></trkpt><trkpt lat="43.1996920637181" lon="12.966775666066019"><ele>1017.2</ele><time>2026-05-02T09:35:51Z</time></trkpt><trkpt lat="43.19960417426492" lon="12.966817502227117"><ele>1012.4000000000001</ele><time>2026-05-02T09:35:53Z</time></trkpt><trkpt lat="43.19953007704909" lon="12.96682877613725"><ele>1007.5999999999999</ele><time>2026-05-02T09:35:55Z</time></trkpt><trkpt lat="43.19945261092759" lon="12.966870815612808"><ele>1002.8</ele><time>2026-05-02T09:35:57Z</time></trkpt><trkpt lat="43.199359593370794" lon="12.9669442374945"><ele>998.0</ele><time>2026-05-02T09:35:59Z</time></trkpt><trkpt lat="43.19924188811254" lon="12.966969125536979"><ele>998.0000000000001</ele><time>2026-05-02T09:36:01Z</time></trkpt><trkpt lat="43.19915420333802" lon="12.966997738643444"><ele>998.0</ele><time>2026-05-02T09:36:03Z</time></trkpt><trkpt lat="43.19908281991266" lon="12.967047591904109"><ele>998.0</ele><time>2026-05-02T09:36:05Z</time></trkpt><trkpt lat="43.19901626003871" lon="12.96712878921976"><ele>998.0</ele><time>2026-05-02T09:36:07Z</time></trkpt><trkpt lat="43.198938190289944" lon="12.967210231812322"><ele>998.0000000000001</ele><time>2026-05-02T09:36:09Z</time></trkpt><trkpt lat="43.198877823707704" lon="12.967302092110248"><ele>998.0</ele><time>2026-05-02T09:36:11Z</time></trkpt><trkpt lat="43.19882670090468" lon="12.967404147619645"><ele>996.0000000000001</ele><time>2026-05-02T09:36:13Z</time></trkpt><trkpt lat="43.19876051337391" lon="12.967502135865589"><ele>994.0</ele><time>2026-05-02T09:36:15Z</time></trkpt><trkpt lat="43.198692861295356" lon="12.967585773505625"><ele>992.0</ele><time>2026-05-02T09:36:17Z</time></trkpt><trkpt lat="43.19861107166888" lon="12.967662142698256"><ele>990.0</ele><time>2026-05-02T09:36:19Z</time></trkpt><trkpt lat="43.1985360658514" lon="12.96770308341712"><ele>988.0000000000001</ele><time>2026-05-02T09:36:21Z</time></trkpt><trkpt lat="43.19846593871611" lon="12.967710177802843"><ele>986.0</ele><time>2026-05-02T09:36:23Z</time></trkpt><trkpt lat="43.19840136168275" lon="12.967756146851936"><ele>986.0</ele><time>2026-05-02T09:36:26Z</time></trkpt><trkpt lat="43.19834455417223" lon="12.967826335377874"><ele>985.9999999999999</ele><time>2026-05-02T09:36:30Z</time></trkpt><trkpt lat="43.19826506223683" lon="12.967873605485654"><ele>985.9999999999999</ele><time>2026-05-02T09:36:32Z</time></trkpt><trkpt lat="43.19815493246482" lon="12.967918275535038"><ele>986.0</ele><time>2026-05-02T09:36:34Z</time></trkpt><trkpt lat="43.19803767682915" lon="12.967965296878766"><ele>986.0</ele><time>2026-05-02T09:36:36Z</time></trkpt><trkpt lat="43.19797673856124" lon="12.967991763145"><ele>981.4</ele><time>2026-05-02T09:36:37Z</time></trkpt><trkpt lat="43.19788027596601" lon="12.968072040894514"><ele>976.8</ele><time>2026-05-02T09:36:38.999Z</time></trkpt><trkpt lat="43.19778389308959" lon="12.968154674495056"><ele>972.1999999999999</ele><time>2026-05-02T09:36:40.999Z</time></trkpt><trkpt lat="43.19770731615554" lon="12.968220061053076"><ele>967.5999999999999</ele><time>2026-05-02T09:36:42.999Z</time></trkpt><trkpt lat="43.19762521417343" lon="12.968247395431833"><ele>963.0</ele><time>2026-05-02T09:36:46.999Z</time></trkpt><trkpt lat="43.19756167413094" lon="12.968286661395593"><ele>963.0</ele><time>2026-05-02T09:36:49.999Z</time></trkpt><trkpt lat="43.19747617172443" lon="12.968344531634013"><ele>963.0</ele><time>2026-05-02T09:36:52.999Z</time></trkpt><trkpt lat="43.19740105292006" lon="12.968396552860264"><ele>963.0</ele><time>2026-05-02T09:36:55.999Z</time></trkpt><trkpt lat="43.19734198079398" lon="12.968438045698758"><ele>963.0</ele><time>2026-05-02T09:36:57.999Z</time></trkpt><trkpt lat="43.197283244858724" lon="12.968481529402121"><ele>963.0</ele><time>2026-05-02T09:36:59.999Z</time></trkpt><trkpt lat="43.1972220710769" lon="12.96854468165045"><ele>963.0</ele><time>2026-05-02T09:37:01.999Z</time></trkpt><trkpt lat="43.19717002720552" lon="12.968621976110075"><ele>958.0</ele><time>2026-05-02T09:37:03.999Z</time></trkpt><trkpt lat="43.19709470844322" lon="12.96860637127416"><ele>953.0</ele><time>2026-05-02T09:37:05.999Z</time></trkpt><trkpt lat="43.19699591500957" lon="12.968588156113466"><ele>948.0</ele><time>2026-05-02T09:37:08.999Z</time></trkpt><trkpt lat="43.19690522853011" lon="12.968636967677346"><ele>943.0</ele><time>2026-05-02T09:37:10.999Z</time></trkpt><trkpt lat="43.19683100048253" lon="12.96867744740838"><ele>938.0</ele><time>2026-05-02T09:37:12.999Z</time></trkpt><trkpt lat="43.19680510976154" lon="12.96882348216496"><ele>938.0</ele><time>2026-05-02T09:37:15.999Z</time></trkpt><trkpt lat="43.19674871304559" lon="12.968936410367068"><ele>938.0</ele><time>2026-05-02T09:37:17.999Z</time></trkpt><trkpt lat="43.19667192991818" lon="12.969023346798934"><ele>938.0</ele><time>2026-05-02T09:37:19.999Z</time></trkpt><trkpt lat="43.1965778119154" lon="12.969045115425871"><ele>938.0</ele><time>2026-05-02T09:37:21.999Z</time></trkpt><trkpt lat="43.19652317784077" lon="12.969160015066814"><ele>938.0</ele><time>2026-05-02T09:37:23.999Z</time></trkpt><trkpt lat="43.19646915691237" lon="12.969223899943827"><ele>932.8333333333334</ele><time>2026-05-02T09:37:24.999Z</time></trkpt><trkpt lat="43.19641012952282" lon="12.96927303477015"><ele>927.6666666666667</ele><time>2026-05-02T09:37:25.999Z</time></trkpt><trkpt lat="43.19636161722282" lon="12.969359305903543"><ele>922.5</ele><time>2026-05-02T09:37:27.999Z</time></trkpt><trkpt lat="43.19628935407146" lon="12.969390935131127"><ele>917.3333333333333</ele><time>2026-05-02T09:37:29.999Z</time></trkpt><trkpt lat="43.19626876748262" lon="12.969476873684327"><ele>912.1666666666666</ele><time>2026-05-02T09:37:30.999Z</time></trkpt><trkpt lat="43.196233444751435" lon="12.96956933658064"><ele>907.0</ele><time>2026-05-02T09:37:31.999Z</time></trkpt><trkpt lat="43.19613458901451" lon="12.969681302641508"><ele>907.0</ele><time>2026-05-02T09:37:33.999Z</time></trkpt><trkpt lat="43.1960436349845" lon="12.969763556009198"><ele>907.0</ele><time>2026-05-02T09:37:35.999Z</time></trkpt><trkpt lat="43.19596694314103" lon="12.969887754248187"><ele>907.0</ele><time>2026-05-02T09:37:37.999Z</time></trkpt><trkpt lat="43.19588202275046" lon="12.969956875846776"><ele>907.0</ele><time>2026-05-02T09:37:40Z</time></trkpt><trkpt lat="43.19579762077808" lon="12.970026404666314"><ele>907.0</ele><time>2026-05-02T09:37:42Z</time></trkpt><trkpt lat="43.19573972384118" lon="12.970093465260462"><ele>899.2</ele><time>2026-05-02T09:37:44Z</time></trkpt><trkpt lat="43.195667256709335" lon="12.970177772471212"><ele>891.4000000000001</ele><time>2026-05-02T09:37:46Z</time></trkpt><trkpt lat="43.19563156742438" lon="12.970272390659034"><ele>883.5999999999999</ele><time>2026-05-02T09:37:48Z</time></trkpt><trkpt lat="43.195535628964834" lon="12.970345175984157"><ele>875.8</ele><time>2026-05-02T09:37:50Z</time></trkpt><trkpt lat="43.19541752686396" lon="12.970363903685048"><ele>868.0</ele><time>2026-05-02T09:37:52Z</time></trkpt><trkpt lat="43.19533369852273" lon="12.970415922826444"><ele>868.0</ele><time>2026-05-02T09:37:54Z</time></trkpt><trkpt lat="43.19526173733794" lon="12.970435576286695"><ele>868.0</ele><time>2026-05-02T09:37:55Z</time></trkpt><trkpt lat="43.1951864269239" lon="12.97045139034781"><ele>868.0</ele><time>2026-05-02T09:37:56Z</time></trkpt><trkpt lat="43.19512021400613" lon="12.970519863993063"><ele>868.0</ele><time>2026-05-02T09:37:57Z</time></trkpt><trkpt lat="43.19507391465426" lon="12.970592344046697"><ele>868.0</ele><time>2026-05-02T09:37:58Z</time></trkpt><trkpt lat="43.1950409628108" lon="12.970669123037405"><ele>868.0</ele><time>2026-05-02T09:37:59Z</time></trkpt><trkpt lat="43.19500057598835" lon="12.970741859122077"><ele>868.0</ele><time>2026-05-02T09:38:00Z</time></trkpt><trkpt lat="43.19496291834482" lon="12.970819773340605"><ele>867.1666666666666</ele><time>2026-05-02T09:38:01Z</time></trkpt><trkpt lat="43.19492544291771" lon="12.970897075467398"><ele>866.3333333333333</ele><time>2026-05-02T09:38:02Z</time></trkpt><trkpt lat="43.194864776367744" lon="12.971002340757407"><ele>865.5</ele><time>2026-05-02T09:38:04Z</time></trkpt><trkpt lat="43.19479772618349" lon="12.97112392319101"><ele>864.6666666666667</ele><time>2026-05-02T09:38:07Z</time></trkpt><trkpt lat="43.19474621427022" lon="12.97120211978537"><ele>863.8333333333334</ele><time>2026-05-02T09:38:08Z</time></trkpt><trkpt lat="43.194703643819985" lon="12.971303679951992"><ele>863.0</ele><time>2026-05-02T09:38:10Z</time></trkpt><trkpt lat="43.19463378492017" lon="12.971382351175164"><ele>858.1666666666667</ele><time>2026-05-02T09:38:12Z</time></trkpt><trkpt lat="43.194574137673676" lon="12.971444887771778"><ele>853.3333333333334</ele><time>2026-05-02T09:38:14Z</time></trkpt><trkpt lat="43.194517720813224" lon="12.971535741422127"><ele>848.5</ele><time>2026-05-02T09:38:16Z</time></trkpt><trkpt lat="43.194441758168075" lon="12.971595393146991"><ele>843.6666666666667</ele><time>2026-05-02T09:38:18Z</time></trkpt><trkpt lat="43.194390364294016" lon="12.9716593884639"><ele>838.8333333333334</ele><time>2026-05-02T09:38:20Z</time></trkpt><trkpt lat="43.19431385927272" lon="12.971669309746614"><ele>834.0</ele><time>2026-05-02T09:38:51Z</time></trkpt><trkpt lat="43.19424274330918" lon="12.971676917856136"><ele>835.1666666666666</ele><time>2026-05-02T09:38:53Z</time></trkpt><trkpt lat="43.194123650509304" lon="12.971714380634834"><ele>836.3333333333333</ele><time>2026-05-02T09:38:54.999Z</time></trkpt><trkpt lat="43.19405822359757" lon="12.97173224914887"><ele>837.5</ele><time>2026-05-02T09:38:55.999Z</time></trkpt><trkpt lat="43.193987889623145" lon="12.971772001032734"><ele>838.6666666666666</ele><time>2026-05-02T09:38:56.999Z</time></trkpt><trkpt lat="43.19392816105879" lon="12.971831217974856"><ele>839.8333333333333</ele><time>2026-05-02T09:38:57.999Z</time></trkpt><trkpt lat="43.19385844595165" lon="12.971871179543069"><ele>841.0</ele><time>2026-05-02T09:38:58.999Z</time></trkpt><trkpt lat="43.19379787882681" lon="12.971909384137406"><ele>834.8333333333333</ele><time>2026-05-02T09:38:59.999Z</time></trkpt><trkpt lat="43.193740769679756" lon="12.971957870832071"><ele>828.6666666666666</ele><time>2026-05-02T09:39:00.999Z</time></trkpt><trkpt lat="43.193650693599245" lon="12.972042787416065"><ele>822.5</ele><time>2026-05-02T09:39:02.999Z</time></trkpt><trkpt lat="43.1936022677353" lon="12.972101646554457"><ele>816.3333333333333</ele><time>2026-05-02T09:39:03.999Z</time></trkpt><trkpt lat="43.19350497504124" lon="12.972181666128389"><ele>810.1666666666666</ele><time>2026-05-02T09:39:05.999Z</time></trkpt><trkpt lat="43.193449559528396" lon="12.972225409864347"><ele>804.0</ele><time>2026-05-02T09:39:06.999Z</time></trkpt><trkpt lat="43.193342523483544" lon="12.97228792304235"><ele>804.0</ele><time>2026-05-02T09:39:08.999Z</time></trkpt><trkpt lat="43.193261775500524" lon="12.972384682439987"><ele>804.0</ele><time>2026-05-02T09:39:10.999Z</time></trkpt><trkpt lat="43.19316049825098" lon="12.972475111637872"><ele>804.0</ele><time>2026-05-02T09:39:12.999Z</time></trkpt><trkpt lat="43.19311179067098" lon="12.972530895914362"><ele>804.0</ele><time>2026-05-02T09:39:13.999Z</time></trkpt><trkpt lat="43.19303048399919" lon="12.97259197881408"><ele>804.0</ele><time>2026-05-02T09:39:15.999Z</time></trkpt><trkpt lat="43.192954129314245" lon="12.972631092266223"><ele>798.8000000000001</ele><time>2026-05-02T09:39:17.999Z</time></trkpt><trkpt lat="43.19287915838201" lon="12.972747258253966"><ele>793.6</ele><time>2026-05-02T09:39:19.999Z</time></trkpt><trkpt lat="43.19280393831393" lon="12.972838277644183"><ele>788.4</ele><time>2026-05-02T09:39:21.999Z</time></trkpt><trkpt lat="43.192708468575674" lon="12.972847607074701"><ele>783.2</ele><time>2026-05-02T09:39:23.999Z</time></trkpt><trkpt lat="43.19261966784455" lon="12.972868857539872"><ele>778.0</ele><time>2026-05-02T09:39:25.999Z</time></trkpt><trkpt lat="43.19256557194779" lon="12.97298684996485"><ele>778.0</ele><time>2026-05-02T09:39:27.999Z</time></trkpt><trkpt lat="43.19249145708684" lon="12.973075706529107"><ele>778.0</ele><time>2026-05-02T09:39:29.999Z</time></trkpt><trkpt lat="43.1924655378921" lon="12.973217092152161"><ele>778.0</ele><time>2026-05-02T09:39:31.999Z</time></trkpt><trkpt lat="43.1924158559451" lon="12.973354136293048"><ele>778.0</ele><time>2026-05-02T09:39:33.999Z</time></trkpt><trkpt lat="43.19235022074002" lon="12.973359155252535"><ele>778.0</ele><time>2026-05-02T09:39:34.999Z</time></trkpt><trkpt lat="43.19225521759224" lon="12.97339507881291"><ele>771.5999999999999</ele><time>2026-05-02T09:39:36.999Z</time></trkpt><trkpt lat="43.19218101021634" lon="12.973512221955122"><ele>765.1999999999999</ele><time>2026-05-02T09:39:38.999Z</time></trkpt><trkpt lat="43.192085176945476" lon="12.973542223933089"><ele>758.8</ele><time>2026-05-02T09:39:40.999Z</time></trkpt><trkpt lat="43.19198692950838" lon="12.973650632425953"><ele>752.4</ele><time>2026-05-02T09:39:42.999Z</time></trkpt><trkpt lat="43.19190310322099" lon="12.973619462561956"><ele>746.0</ele><time>2026-05-02T09:39:45Z</time></trkpt><trkpt lat="43.1918641773441" lon="12.973535735729884"><ele>746.0</ele><time>2026-05-02T09:39:48Z</time></trkpt><trkpt lat="43.19180642188279" lon="12.973492491213468"><ele>746.0</ele><time>2026-05-02T09:40:04Z</time></trkpt><trkpt lat="43.19172659241511" lon="12.97348463841737"><ele>746.0</ele><time>2026-05-02T09:40:27Z</time></trkpt><trkpt lat="43.19162825548983" lon="12.973525356213193"><ele>746.0</ele><time>2026-05-02T09:40:34Z</time></trkpt><trkpt lat="43.19153543431749" lon="12.97363754304737"><ele>746.0</ele><time>2026-05-02T09:40:36Z</time></trkpt><trkpt lat="43.191483727135214" lon="12.973728421583907"><ele>741.5999999999999</ele><time>2026-05-02T09:40:38Z</time></trkpt><trkpt lat="43.19144323408882" lon="12.973832468062806"><ele>737.2</ele><time>2026-05-02T09:40:40Z</time></trkpt><trkpt lat="43.19137921921512" lon="12.973955832103679"><ele>732.8</ele><time>2026-05-02T09:40:42Z</time></trkpt><trkpt lat="43.19135592978674" lon="12.974103835523577"><ele>728.4000000000001</ele><time>2026-05-02T09:40:44Z</time></trkpt><trkpt lat="43.19132890572381" lon="12.974191945105312"><ele>724.0</ele><time>2026-05-02T09:40:45Z</time></trkpt><trkpt lat="43.19123016610336" lon="12.974207680516123"><ele>724.0</ele><time>2026-05-02T09:40:47Z</time></trkpt><trkpt lat="43.19116726197297" lon="12.974202060840605"><ele>724.0</ele><time>2026-05-02T09:40:48Z</time></trkpt><trkpt lat="43.19110089434285" lon="12.974289276130408"><ele>724.0</ele><time>2026-05-02T09:40:50Z</time></trkpt><trkpt lat="43.191024061902944" lon="12.974377210701489"><ele>724.0</ele><time>2026-05-02T09:40:52Z</time></trkpt><trkpt lat="43.1909415581558" lon="12.974459798521938"><ele>724.0</ele><time>2026-05-02T09:40:54Z</time></trkpt><trkpt lat="43.190852378410156" lon="12.97445717199296"><ele>724.0</ele><time>2026-05-02T09:40:56Z</time></trkpt><trkpt lat="43.19078796067547" lon="12.974373043842585"><ele>724.0</ele><time>2026-05-02T09:40:58Z</time></trkpt><trkpt lat="43.19069323274121" lon="12.974395677159848"><ele>724.0</ele><time>2026-05-02T09:40:59.999Z</time></trkpt><trkpt lat="43.19062773406835" lon="12.974439232866805"><ele>724.0</ele><time>2026-05-02T09:41:00.999Z</time></trkpt><trkpt lat="43.190562778322445" lon="12.974459871025756"><ele>724.0</ele><time>2026-05-02T09:41:01.999Z</time></trkpt><trkpt lat="43.19048362787107" lon="12.974477386991472"><ele>724.0</ele><time>2026-05-02T09:41:03.999Z</time></trkpt><trkpt lat="43.190385369562705" lon="12.974529620662455"><ele>724.0</ele><time>2026-05-02T09:41:05.999Z</time></trkpt><trkpt lat="43.190274240564335" lon="12.974556604468475"><ele>718.8333333333334</ele><time>2026-05-02T09:41:07.999Z</time></trkpt><trkpt lat="43.190165859166854" lon="12.97451314378013"><ele>713.6666666666667</ele><time>2026-05-02T09:41:09.999Z</time></trkpt><trkpt lat="43.1900950345629" lon="12.97448462539558"><ele>708.5</ele><time>2026-05-02T09:41:10.999Z</time></trkpt><trkpt lat="43.19002914719347" lon="12.974468998892046"><ele>703.3333333333334</ele><time>2026-05-02T09:41:11.999Z</time></trkpt><trkpt lat="43.18993556743905" lon="12.97445233961889"><ele>698.1666666666666</ele><time>2026-05-02T09:41:13.999Z</time></trkpt><trkpt lat="43.18986859645481" lon="12.974500293767607"><ele>693.0</ele><time>2026-05-02T09:41:16.999Z</time></trkpt><trkpt lat="43.18984353629506" lon="12.974581026261742"><ele>687.8333333333334</ele><time>2026-05-02T09:41:19.999Z</time></trkpt><trkpt lat="43.18978832424012" lon="12.974661504962377"><ele>682.6666666666666</ele><time>2026-05-02T09:41:21.999Z</time></trkpt><trkpt lat="43.18970178526785" lon="12.974701074982308"><ele>677.5</ele><time>2026-05-02T09:41:23.999Z</time></trkpt><trkpt lat="43.18964503823937" lon="12.974784980080912"><ele>672.3333333333333</ele><time>2026-05-02T09:41:25.999Z</time></trkpt><trkpt lat="43.18958198765971" lon="12.974830467536508"><ele>667.1666666666666</ele><time>2026-05-02T09:41:27.999Z</time></trkpt><trkpt lat="43.18948781314663" lon="12.974788409931683"><ele>662.0</ele><time>2026-05-02T09:41:29.999Z</time></trkpt><trkpt lat="43.189397287867486" lon="12.974766774032327"><ele>662.0</ele><time>2026-05-02T09:41:31.999Z</time></trkpt><trkpt lat="43.189299635094436" lon="12.974787238423303"><ele>662.0</ele><time>2026-05-02T09:41:33.999Z</time></trkpt><trkpt lat="43.1892022031147" lon="12.974812057629316"><ele>662.0</ele><time>2026-05-02T09:41:35.999Z</time></trkpt><trkpt lat="43.189087266730276" lon="12.974815486513089"><ele>662.0</ele><time>2026-05-02T09:41:37.999Z</time></trkpt><trkpt lat="43.18899436149228" lon="12.974807144203057"><ele>662.0</ele><time>2026-05-02T09:41:39.999Z</time></trkpt><trkpt lat="43.1888853342264" lon="12.974828451546863"><ele>657.0</ele><time>2026-05-02T09:41:41.999Z</time></trkpt><trkpt lat="43.1888161667945" lon="12.974831738948046"><ele>652.0</ele><time>2026-05-02T09:41:42.999Z</time></trkpt><trkpt lat="43.188746159609245" lon="12.974841470256562"><ele>647.0</ele><time>2026-05-02T09:41:43.999Z</time></trkpt><trkpt lat="43.1886409076261" lon="12.974802752605816"><ele>642.0</ele><time>2026-05-02T09:41:45.999Z</time></trkpt><trkpt lat="43.18853734613151" lon="12.97479173265097"><ele>637.0</ele><time>2026-05-02T09:41:47.999Z</time></trkpt><trkpt lat="43.18842789857621" lon="12.974816534180071"><ele>637.0</ele><time>2026-05-02T09:41:50Z</time></trkpt><trkpt lat="43.188363152766264" lon="12.974830095688143"><ele>637.0</ele><time>2026-05-02T09:41:51Z</time></trkpt><trkpt lat="43.18829992848955" lon="12.97481857564578"><ele>637.0</ele><time>2026-05-02T09:41:52Z</time></trkpt><trkpt lat="43.18818035684501" lon="12.974824662293834"><ele>637.0</ele><time>2026-05-02T09:41:54Z</time></trkpt><trkpt lat="43.18807601676408" lon="12.974856233985964"><ele>637.0</ele><time>2026-05-02T09:41:56Z</time></trkpt><trkpt lat="43.18799297377972" lon="12.974878402942432"><ele>637.0</ele><time>2026-05-02T09:41:58Z</time></trkpt><trkpt lat="43.187866881125046" lon="12.974888772486922"><ele>631.8000000000001</ele><time>2026-05-02T09:42:00Z</time></trkpt><trkpt lat="43.18780233865182" lon="12.974878998097509"><ele>626.6</ele><time>2026-05-02T09:42:01Z</time></trkpt><trkpt lat="43.18773834787716" lon="12.974877209736778"><ele>621.4000000000001</ele><time>2026-05-02T09:42:02Z</time></trkpt><trkpt lat="43.18765571645058" lon="12.974921189054273"><ele>616.2</ele><time>2026-05-02T09:42:04Z</time></trkpt><trkpt lat="43.1875355202943" lon="12.97493737738786"><ele>611.0</ele><time>2026-05-02T09:42:06Z</time></trkpt><trkpt lat="43.187422986359984" lon="12.974963198980216"><ele>611.0</ele><time>2026-05-02T09:42:08Z</time></trkpt><trkpt lat="43.18735859623688" lon="12.974997961556797"><ele>611.0</ele><time>2026-05-02T09:42:09Z</time></trkpt><trkpt lat="43.187281611412715" lon="12.975091452207636"><ele>611.0</ele><time>2026-05-02T09:42:11Z</time></trkpt><trkpt lat="43.18723298344413" lon="12.975166697600976"><ele>611.0</ele><time>2026-05-02T09:42:12Z</time></trkpt><trkpt lat="43.187185221006075" lon="12.97524004484958"><ele>611.0</ele><time>2026-05-02T09:42:13Z</time></trkpt><trkpt lat="43.18711980965397" lon="12.975276000619846"><ele>611.0</ele><time>2026-05-02T09:42:14Z</time></trkpt><trkpt lat="43.18705313197295" lon="12.975304152488263"><ele>606.6</ele><time>2026-05-02T09:42:15Z</time></trkpt><trkpt lat="43.18693893005962" lon="12.975321749298862"><ele>602.2</ele><time>2026-05-02T09:42:17Z</time></trkpt><trkpt lat="43.186837531615446" lon="12.975329319890596"><ele>597.8</ele><time>2026-05-02T09:42:19Z</time></trkpt><trkpt lat="43.186705135376016" lon="12.975364349273102"><ele>593.4</ele><time>2026-05-02T09:42:21Z</time></trkpt><trkpt lat="43.186636749326134" lon="12.97542245352239"><ele>589.0</ele><time>2026-05-02T09:42:22Z</time></trkpt><trkpt lat="43.186578233279185" lon="12.975482897087552"><ele>589.0</ele><time>2026-05-02T09:42:23Z</time></trkpt><trkpt lat="43.18652215981585" lon="12.975536287860164"><ele>589.0</ele><time>2026-05-02T09:42:24Z</time></trkpt><trkpt lat="43.18641134534762" lon="12.97559520655173"><ele>589.0</ele><time>2026-05-02T09:42:26Z</time></trkpt><trkpt lat="43.18627378783491" lon="12.975632124606935"><ele>589.0</ele><time>2026-05-02T09:42:28Z</time></trkpt><trkpt lat="43.18620525375835" lon="12.975625912531493"><ele>589.0</ele><time>2026-05-02T09:42:29Z</time></trkpt><trkpt lat="43.186139925300786" lon="12.97564105659736"><ele>588.0</ele><time>2026-05-02T09:42:30Z</time></trkpt><trkpt lat="43.186073421673875" lon="12.97568617373973"><ele>587.0</ele><time>2026-05-02T09:42:31Z</time></trkpt><trkpt lat="43.186017266453" lon="12.975733690328598"><ele>586.0</ele><time>2026-05-02T09:42:32Z</time></trkpt><trkpt lat="43.185915716849266" lon="12.97577643396592"><ele>585.0</ele><time>2026-05-02T09:42:34Z</time></trkpt><trkpt lat="43.18585043070353" lon="12.97579778814517"><ele>584.0</ele><time>2026-05-02T09:42:35Z</time></trkpt><trkpt lat="43.18577902162201" lon="12.975838427082941"><ele>583.0</ele><time>2026-05-02T09:42:36Z</time></trkpt><trkpt lat="43.18570593873089" lon="12.975879433109371"><ele>576.8</ele><time>2026-05-02T09:42:37Z</time></trkpt><trkpt lat="43.18563225692011" lon="12.975902616638173"><ele>570.5999999999999</ele><time>2026-05-02T09:42:38Z</time></trkpt><trkpt lat="43.185494070671155" lon="12.975902768116491"><ele>564.4000000000001</ele><time>2026-05-02T09:42:40Z</time></trkpt><trkpt lat="43.18541659160217" lon="12.975928687758636"><ele>558.2</ele><time>2026-05-02T09:42:41Z</time></trkpt><trkpt lat="43.18534875139012" lon="12.975955191316384"><ele>552.0</ele><time>2026-05-02T09:42:42Z</time></trkpt><trkpt lat="43.18526580185168" lon="12.976002464427724"><ele>552.0</ele><time>2026-05-02T09:42:44Z</time></trkpt><trkpt lat="43.185197786725446" lon="12.97603572881349"><ele>552.0</ele><time>2026-05-02T09:42:45Z</time></trkpt><trkpt lat="43.18509736434264" lon="12.976090715523728"><ele>552.0</ele><time>2026-05-02T09:42:47Z</time></trkpt><trkpt lat="43.18500801969641" lon="12.976147916185399"><ele>552.0</ele><time>2026-05-02T09:42:49Z</time></trkpt><trkpt lat="43.18492791633528" lon="12.97619188367278"><ele>552.0</ele><time>2026-05-02T09:42:51Z</time></trkpt><trkpt lat="43.184839140928275" lon="12.976257646719423"><ele>547.6</ele><time>2026-05-02T09:42:53Z</time></trkpt><trkpt lat="43.18473842363746" lon="12.9763046413091"><ele>543.2</ele><time>2026-05-02T09:42:55Z</time></trkpt><trkpt lat="43.18463764022544" lon="12.976317071286834"><ele>538.8</ele><time>2026-05-02T09:42:57Z</time></trkpt><trkpt lat="43.184539101803324" lon="12.97634065774854"><ele>534.4</ele><time>2026-05-02T09:42:59Z</time></trkpt><trkpt lat="43.18446181141703" lon="12.976336621397657"><ele>530.0</ele><time>2026-05-02T09:43:01Z</time></trkpt><trkpt lat="43.18437181875324" lon="12.976359658475497"><ele>530.0</ele><time>2026-05-02T09:43:03Z</time></trkpt><trkpt lat="43.18430098740806" lon="12.976383004025257"><ele>530.0</ele><time>2026-05-02T09:43:05Z</time></trkpt><trkpt lat="43.18422176709513" lon="12.976365017720504"><ele>530.0</ele><time>2026-05-02T09:43:07Z</time></trkpt><trkpt lat="43.18410916253988" lon="12.976369633800795"><ele>530.0</ele><time>2026-05-02T09:43:09Z</time></trkpt><trkpt lat="43.18398862600044" lon="12.976364245334576"><ele>530.0</ele><time>2026-05-02T09:43:11Z</time></trkpt><trkpt lat="43.18390727750723" lon="12.976376634471324"><ele>528.5</ele><time>2026-05-02T09:43:12Z</time></trkpt><trkpt lat="43.18382187187577" lon="12.976384714231159"><ele>527.0</ele><time>2026-05-02T09:43:13Z</time></trkpt><trkpt lat="43.18374332540865" lon="12.976393253839074"><ele>525.5</ele><time>2026-05-02T09:43:14Z</time></trkpt><trkpt lat="43.18366388566992" lon="12.9763821335794"><ele>524.0</ele><time>2026-05-02T09:43:15Z</time></trkpt><trkpt lat="43.18358335612833" lon="12.976361691047767"><ele>522.5</ele><time>2026-05-02T09:43:16Z</time></trkpt><trkpt lat="43.18351582966366" lon="12.976342386772098"><ele>521.0</ele><time>2026-05-02T09:43:17Z</time></trkpt><trkpt lat="43.18345103999785" lon="12.976332160903443"><ele>521.0</ele><time>2026-05-02T09:43:18Z</time></trkpt><trkpt lat="43.18338392998993" lon="12.97632144142493"><ele>521.0</ele><time>2026-05-02T09:43:19Z</time></trkpt><trkpt lat="43.18324410187076" lon="12.976275311610385"><ele>521.0</ele><time>2026-05-02T09:43:20.999Z</time></trkpt><trkpt lat="43.183173655122" lon="12.97624996270567"><ele>521.0</ele><time>2026-05-02T09:43:21.999Z</time></trkpt><trkpt lat="43.18309614692722" lon="12.976218838658067"><ele>521.0</ele><time>2026-05-02T09:43:22.999Z</time></trkpt><trkpt lat="43.183027221063995" lon="12.976194038526257"><ele>521.0</ele><time>2026-05-02T09:43:23.999Z</time></trkpt><trkpt lat="43.182903515138435" lon="12.97615738109927"><ele>520.5</ele><time>2026-05-02T09:43:25.999Z</time></trkpt><trkpt lat="43.18277921454633" lon="12.97614409233593"><ele>520.0</ele><time>2026-05-02T09:43:27.999Z</time></trkpt><trkpt lat="43.18271264570465" lon="12.976132727927913"><ele>519.5</ele><time>2026-05-02T09:43:28.999Z</time></trkpt><trkpt lat="43.182643421843544" lon="12.976093616186546"><ele>519.0</ele><time>2026-05-02T09:43:29.999Z</time></trkpt><trkpt lat="43.18257926593264" lon="12.976046922388203"><ele>518.5</ele><time>2026-05-02T09:43:30.999Z</time></trkpt><trkpt lat="43.18251725610659" lon="12.976007593166871"><ele>518.0</ele><time>2026-05-02T09:43:31.999Z</time></trkpt><trkpt lat="43.18241207126441" lon="12.975943271789978"><ele>515.0</ele><time>2026-05-02T09:43:33.999Z</time></trkpt><trkpt lat="43.182313681461146" lon="12.97587730904299"><ele>511.99999999999994</ele><time>2026-05-02T09:43:35.999Z</time></trkpt><trkpt lat="43.1822056639188" lon="12.975820561011671"><ele>508.99999999999994</ele><time>2026-05-02T09:43:37.999Z</time></trkpt><trkpt lat="43.18212941448598" lon="12.9757650077115"><ele>506.0</ele><time>2026-05-02T09:43:39.999Z</time></trkpt><trkpt lat="43.18207878249297" lon="12.975713327781625"><ele>503.0</ele><time>2026-05-02T09:43:41.999Z</time></trkpt><trkpt lat="43.18200315725022" lon="12.975674499104242"><ele>497.99999999999994</ele><time>2026-05-02T09:43:43.999Z</time></trkpt><trkpt lat="43.18191764238695" lon="12.975622142541747"><ele>493.0</ele><time>2026-05-02T09:43:45.999Z</time></trkpt><trkpt lat="43.18185062485131" lon="12.975540050136134"><ele>488.0</ele><time>2026-05-02T09:43:47.999Z</time></trkpt><trkpt lat="43.18185448770645" lon="12.975420297966476"><ele>483.0</ele><time>2026-05-02T09:43:49.999Z</time></trkpt><trkpt lat="43.18190018913118" lon="12.975341078982105"><ele>477.99999999999994</ele><time>2026-05-02T09:43:50.999Z</time></trkpt><trkpt lat="43.18196194235361" lon="12.975236632800879"><ele>473.0</ele><time>2026-05-02T09:43:51.999Z</time></trkpt><trkpt lat="43.18199477177821" lon="12.975112224016694"><ele>469.99999999999994</ele><time>2026-05-02T09:43:52.999Z</time></trkpt><trkpt lat="43.18199626204931" lon="12.974994417865993"><ele>467.0</ele><time>2026-05-02T09:43:53.999Z</time></trkpt><trkpt lat="43.18198089453443" lon="12.974878164713857"><ele>464.0</ele><time>2026-05-02T09:43:54.999Z</time></trkpt><trkpt lat="43.18195985507608" lon="12.97476311961888"><ele>461.0</ele><time>2026-05-02T09:43:56Z</time></trkpt><trkpt lat="43.18194390028199" lon="12.974643543011753"><ele>457.99999999999994</ele><time>2026-05-02T09:43:57Z</time></trkpt><trkpt lat="43.181932966072964" lon="12.974550322276144"><ele>455.0</ele><time>2026-05-02T09:43:58Z</time></trkpt><trkpt lat="43.18193552615479" lon="12.97444877818824"><ele>455.0</ele><time>2026-05-02T09:44:00Z</time></trkpt><trkpt lat="43.181973043511036" lon="12.97436329135077"><ele>455.0</ele><time>2026-05-02T09:44:04Z</time></trkpt><trkpt lat="43.18190620707923" lon="12.974291455523199"><ele>455.0</ele><time>2026-05-02T09:44:08Z</time></trkpt><trkpt lat="43.18187187968352" lon="12.974205118017345"><ele>455.0</ele><time>2026-05-02T09:44:10Z</time></trkpt><trkpt lat="43.18185227134319" lon="12.974082166339903"><ele>455.0</ele><time>2026-05-02T09:44:12Z</time></trkpt><trkpt lat="43.181835149034825" lon="12.973901381581733"><ele>453.99999999999994</ele><time>2026-05-02T09:44:14Z</time></trkpt><trkpt lat="43.181819228317075" lon="12.973807364327694"><ele>453.0</ele><time>2026-05-02T09:44:15Z</time></trkpt><trkpt lat="43.18179696249969" lon="12.973717592961389"><ele>452.0</ele><time>2026-05-02T09:44:16Z</time></trkpt><trkpt lat="43.18177283639451" lon="12.9736266340714"><ele>451.0</ele><time>2026-05-02T09:44:17Z</time></trkpt><trkpt lat="43.18171214129008" lon="12.973487799269389"><ele>449.99999999999994</ele><time>2026-05-02T09:44:19Z</time></trkpt><trkpt lat="43.181635379173784" lon="12.973433741486922"><ele>449.0</ele><time>2026-05-02T09:44:21Z</time></trkpt><trkpt lat="43.181553811194924" lon="12.973473887670806"><ele>447.8333333333333</ele><time>2026-05-02T09:44:23Z</time></trkpt><trkpt lat="43.1815007405308" lon="12.97354688549451"><ele>446.66666666666663</ele><time>2026-05-02T09:44:24Z</time></trkpt><trkpt lat="43.18145480633985" lon="12.97363467974805"><ele>445.5</ele><time>2026-05-02T09:44:25Z</time></trkpt><trkpt lat="43.18140200859211" lon="12.973727359770525"><ele>444.33333333333337</ele><time>2026-05-02T09:44:26Z</time></trkpt><trkpt lat="43.18134105329429" lon="12.97382185103643"><ele>443.1666666666667</ele><time>2026-05-02T09:44:27Z</time></trkpt><trkpt lat="43.181272456456604" lon="12.973913757794003"><ele>442.0</ele><time>2026-05-02T09:44:28Z</time></trkpt><trkpt lat="43.18121204699142" lon="12.973996551639758"><ele>442.0</ele><time>2026-05-02T09:44:29Z</time></trkpt><trkpt lat="43.181163968427825" lon="12.974072124725762"><ele>442.00000000000006</ele><time>2026-05-02T09:44:30Z</time></trkpt><trkpt lat="43.18111857212667" lon="12.974137887099891"><ele>442.00000000000006</ele><time>2026-05-02T09:44:31Z</time></trkpt><trkpt lat="43.18102157680649" lon="12.974224856791508"><ele>442.0</ele><time>2026-05-02T09:44:33Z</time></trkpt><trkpt lat="43.180923188513646" lon="12.974208215914043"><ele>442.0</ele><time>2026-05-02T09:44:35Z</time></trkpt><trkpt lat="43.18082013180115" lon="12.97413109190658"><ele>442.00000000000006</ele><time>2026-05-02T09:44:37Z</time></trkpt><trkpt lat="43.18076451321875" lon="12.97408409682651"><ele>442.0</ele><time>2026-05-02T09:44:38Z</time></trkpt><trkpt lat="43.18065948483675" lon="12.973986281584194"><ele>442.0</ele><time>2026-05-02T09:44:40Z</time></trkpt><trkpt lat="43.18059586540332" lon="12.973939107499069"><ele>442.0</ele><time>2026-05-02T09:44:41Z</time></trkpt><trkpt lat="43.18053615566507" lon="12.973898843163136"><ele>442.00000000000006</ele><time>2026-05-02T09:44:42Z</time></trkpt><trkpt lat="43.180476576772186" lon="12.97385620299268"><ele>442.0</ele><time>2026-05-02T09:44:43Z</time></trkpt><trkpt lat="43.18041360230459" lon="12.973808652383497"><ele>441.8571428571429</ele><time>2026-05-02T09:44:44Z</time></trkpt><trkpt lat="43.18035850927341" lon="12.973760952708554"><ele>441.7142857142857</ele><time>2026-05-02T09:44:45Z</time></trkpt><trkpt lat="43.180301375559154" lon="12.973713048947111"><ele>441.57142857142856</ele><time>2026-05-02T09:44:46Z</time></trkpt><trkpt lat="43.180235961330396" lon="12.973664273438656"><ele>441.42857142857144</ele><time>2026-05-02T09:44:47Z</time></trkpt><trkpt lat="43.180172570906365" lon="12.973632491287974"><ele>441.2857142857143</ele><time>2026-05-02T09:44:48Z</time></trkpt><trkpt lat="43.18009687711542" lon="12.973586793276809"><ele>441.14285714285717</ele><time>2026-05-02T09:44:49Z</time></trkpt><trkpt lat="43.18002247309435" lon="12.97354243924933"><ele>441.0</ele><time>2026-05-02T09:44:50Z</time></trkpt><trkpt lat="43.17994280199295" lon="12.97351011550406"><ele>441.0</ele><time>2026-05-02T09:44:51Z</time></trkpt><trkpt lat="43.179868439430884" lon="12.973494071041953"><ele>441.0</ele><time>2026-05-02T09:44:52Z</time></trkpt><trkpt lat="43.179758634532284" lon="12.973456004400862"><ele>441.0</ele><time>2026-05-02T09:44:54Z</time></trkpt><trkpt lat="43.17964926915956" lon="12.973410241697387"><ele>441.0</ele><time>2026-05-02T09:44:56Z</time></trkpt><trkpt lat="43.179546753991325" lon="12.973372199907885"><ele>441.0</ele><time>2026-05-02T09:44:58Z</time></trkpt><trkpt lat="43.17948884193542" lon="12.973253728507341"><ele>445.6</ele><time>2026-05-02T09:45:00Z</time></trkpt><trkpt lat="43.17952903866085" lon="12.973100772600391"><ele>450.20000000000005</ele><time>2026-05-02T09:45:02Z</time></trkpt><trkpt lat="43.17958905343696" lon="12.972988898170541"><ele>454.79999999999995</ele><time>2026-05-02T09:45:04Z</time></trkpt><trkpt lat="43.17959706183163" lon="12.972891937477627"><ele>459.4</ele><time>2026-05-02T09:45:07Z</time></trkpt><trkpt lat="43.17955342026184" lon="12.97280649317093"><ele>464.0</ele><time>2026-05-02T09:45:10Z</time></trkpt><trkpt lat="43.17953095234909" lon="12.972683142930947"><ele>463.99999999999994</ele><time>2026-05-02T09:45:12Z</time></trkpt><trkpt lat="43.17945178107079" lon="12.972568498698546"><ele>464.0</ele><time>2026-05-02T09:45:14Z</time></trkpt><trkpt lat="43.179399451686464" lon="12.972501554891043"><ele>464.0</ele><time>2026-05-02T09:45:15Z</time></trkpt><trkpt lat="43.179340789136894" lon="12.97244785861709"><ele>464.0</ele><time>2026-05-02T09:45:16Z</time></trkpt><trkpt lat="43.179305185850296" lon="12.97237170457221"><ele>463.99999999999994</ele><time>2026-05-02T09:45:17Z</time></trkpt><trkpt lat="43.17925587924224" lon="12.972281497452457"><ele>464.0</ele><time>2026-05-02T09:45:18Z</time></trkpt><trkpt lat="43.17921621077242" lon="12.972183057435831"><ele>464.3333333333333</ele><time>2026-05-02T09:45:19Z</time></trkpt><trkpt lat="43.17915300728804" lon="12.972043648845535"><ele>464.66666666666663</ele><time>2026-05-02T09:45:20Z</time></trkpt><trkpt lat="43.17910752033835" lon="12.971922256318607"><ele>465.0</ele><time>2026-05-02T09:45:21Z</time></trkpt><trkpt lat="43.17905947414368" lon="12.971818907396774"><ele>465.33333333333337</ele><time>2026-05-02T09:45:22Z</time></trkpt><trkpt lat="43.17901332204788" lon="12.971745849884813"><ele>465.6666666666667</ele><time>2026-05-02T09:45:23Z</time></trkpt><trkpt lat="43.178972331942035" lon="12.971668526812852"><ele>466.0</ele><time>2026-05-02T09:45:24Z</time></trkpt><trkpt lat="43.17889643685822" lon="12.971511255154734"><ele>472.00000000000006</ele><time>2026-05-02T09:45:25.999Z</time></trkpt><trkpt lat="43.178831926111606" lon="12.97144196012953"><ele>478.0</ele><time>2026-05-02T09:45:27.999Z</time></trkpt><trkpt lat="43.17873991209329" lon="12.971353787765793"><ele>484.0</ele><time>2026-05-02T09:45:29.999Z</time></trkpt><trkpt lat="43.17868990211206" lon="12.97129727690093"><ele>490.0</ele><time>2026-05-02T09:45:31.999Z</time></trkpt><trkpt lat="43.17863019344633" lon="12.971188362104286"><ele>496.00000000000006</ele><time>2026-05-02T09:45:33.999Z</time></trkpt><trkpt lat="43.17857708674915" lon="12.97113235207183"><ele>502.0</ele><time>2026-05-02T09:45:34.999Z</time></trkpt><trkpt lat="43.17853114775341" lon="12.97107034720707"><ele>502.00000000000006</ele><time>2026-05-02T09:45:35.999Z</time></trkpt><trkpt lat="43.17843670254286" lon="12.970995666807054"><ele>502.0</ele><time>2026-05-02T09:45:37.999Z</time></trkpt><trkpt lat="43.17838345955502" lon="12.970945942171493"><ele>502.0</ele><time>2026-05-02T09:45:38.999Z</time></trkpt><trkpt lat="43.17832724491729" lon="12.970893362590608"><ele>502.0</ele><time>2026-05-02T09:45:39.999Z</time></trkpt><trkpt lat="43.17823105843814" lon="12.970869313372276"><ele>502.00000000000006</ele><time>2026-05-02T09:45:41.999Z</time></trkpt><trkpt lat="43.17816447005147" lon="12.970805157700632"><ele>502.0</ele><time>2026-05-02T09:46:19Z</time></trkpt><trkpt lat="43.17818004259632" lon="12.970904246102984"><ele>502.00000000000006</ele><time>2026-05-02T09:46:23Z</time></trkpt><trkpt lat="43.17820550072373" lon="12.970991791566428"><ele>502.0</ele><time>2026-05-02T09:46:24Z</time></trkpt><trkpt lat="43.1782385303909" lon="12.971153755814909"><ele>502.0</ele><time>2026-05-02T09:46:26Z</time></trkpt><trkpt lat="43.17824417230082" lon="12.971242908023305"><ele>502.0</ele><time>2026-05-02T09:46:27Z</time></trkpt><trkpt lat="43.17825784962868" lon="12.971328496148583"><ele>502.00000000000006</ele><time>2026-05-02T09:46:28Z</time></trkpt><trkpt lat="43.17826900087804" lon="12.971419104341187"><ele>502.0</ele><time>2026-05-02T09:46:29Z</time></trkpt><trkpt lat="43.178276915520314" lon="12.97151905010067"><ele>502.0</ele><time>2026-05-02T09:46:30Z</time></trkpt><trkpt lat="43.178279260889134" lon="12.971627128882844"><ele>502.00000000000006</ele><time>2026-05-02T09:46:31Z</time></trkpt><trkpt lat="43.17829137023078" lon="12.971738661390663"><ele>502.00000000000006</ele><time>2026-05-02T09:46:32Z</time></trkpt><trkpt lat="43.17830746669247" lon="12.97183378126572"><ele>502.0</ele><time>2026-05-02T09:46:33Z</time></trkpt><trkpt lat="43.178311617501635" lon="12.971996625392084"><ele>502.0</ele><time>2026-05-02T09:46:35Z</time></trkpt><trkpt lat="43.17830767772201" lon="12.972163345945773"><ele>502.20000000000005</ele><time>2026-05-02T09:46:37Z</time></trkpt><trkpt lat="43.178287865495584" lon="12.972312114081323"><ele>502.40000000000003</ele><time>2026-05-02T09:46:39Z</time></trkpt><trkpt lat="43.17824367394878" lon="12.972459135893578"><ele>502.59999999999997</ele><time>2026-05-02T09:46:41Z</time></trkpt><trkpt lat="43.17822743480474" lon="12.972615875395592"><ele>502.79999999999995</ele><time>2026-05-02T09:46:43Z</time></trkpt><trkpt lat="43.17820967910415" lon="12.972704038052692"><ele>503.0</ele><time>2026-05-02T09:46:45Z</time></trkpt><trkpt lat="43.178163492439545" lon="12.972798791340344"><ele>511.2</ele><time>2026-05-02T09:46:47Z</time></trkpt><trkpt lat="43.17808958291759" lon="12.972853801223557"><ele>519.4</ele><time>2026-05-02T09:46:49Z</time></trkpt><trkpt lat="43.17799739075082" lon="12.972894832462305"><ele>527.5999999999999</ele><time>2026-05-02T09:46:51Z</time></trkpt><trkpt lat="43.17791151253805" lon="12.972952450493375"><ele>535.8</ele><time>2026-05-02T09:46:53Z</time></trkpt><trkpt lat="43.17783269032978" lon="12.97302751364105"><ele>544.0</ele><time>2026-05-02T09:46:55Z</time></trkpt><trkpt lat="43.17775932972221" lon="12.973077374683665"><ele>544.0</ele><time>2026-05-02T09:46:58Z</time></trkpt><trkpt lat="43.177721822219965" lon="12.973153943200337"><ele>544.0</ele><time>2026-05-02T09:47:00Z</time></trkpt><trkpt lat="43.177670480616044" lon="12.973205755010566"><ele>544.0</ele><time>2026-05-02T09:47:01Z</time></trkpt><trkpt lat="43.17750098435253" lon="12.973324302423952"><ele>544.0</ele><time>2026-05-02T09:47:03Z</time></trkpt><trkpt lat="43.17743815738685" lon="12.973359084141022"><ele>544.0</ele><time>2026-05-02T09:47:05Z</time></trkpt><trkpt lat="43.17738246625987" lon="12.973420788631639"><ele>544.0</ele><time>2026-05-02T09:47:08Z</time></trkpt><trkpt lat="43.17732578787551" lon="12.973467881090977"><ele>544.0</ele><time>2026-05-02T09:48:28.999Z</time></trkpt><trkpt lat="43.177373730695166" lon="12.97337915475324"><ele>544.0</ele><time>2026-05-02T09:48:38.999Z</time></trkpt><trkpt lat="43.17745017790464" lon="12.973322066659655"><ele>544.0</ele><time>2026-05-02T09:48:41.999Z</time></trkpt><trkpt lat="43.177508332461464" lon="12.973275514815404"><ele>544.0</ele><time>2026-05-02T09:48:44.999Z</time></trkpt><trkpt lat="43.17755992225418" lon="12.97319715397915"><ele>544.0</ele><time>2026-05-02T09:48:52.999Z</time></trkpt><trkpt lat="43.17761358546948" lon="12.97312800637086"><ele>544.0</ele><time>2026-05-02T09:48:54.999Z</time></trkpt><trkpt lat="43.17769819768288" lon="12.973066875750963"><ele>544.0</ele><time>2026-05-02T09:48:56.999Z</time></trkpt><trkpt lat="43.1777848485897" lon="12.972999160051842"><ele>544.0</ele><time>2026-05-02T09:48:58.999Z</time></trkpt><trkpt lat="43.17785389221229" lon="12.9729655522312"><ele>544.0</ele><time>2026-05-02T09:49:00.999Z</time></trkpt><trkpt lat="43.177980263788314" lon="12.97292382410539"><ele>544.0</ele><time>2026-05-02T09:49:02.999Z</time></trkpt><trkpt lat="43.17807405369423" lon="12.972819618488517"><ele>544.0</ele><time>2026-05-02T09:49:04.999Z</time></trkpt><trkpt lat="43.17812876045067" lon="12.97267995935971"><ele>544.0</ele><time>2026-05-02T09:49:06.999Z</time></trkpt><trkpt lat="43.17814843778924" lon="12.972583398599637"><ele>544.0</ele><time>2026-05-02T09:49:07.999Z</time></trkpt><trkpt lat="43.17818921902734" lon="12.972430980078201"><ele>544.0</ele><time>2026-05-02T09:49:09.999Z</time></trkpt><trkpt lat="43.178227231474814" lon="12.972345735372631"><ele>544.0</ele><time>2026-05-02T09:49:11.999Z</time></trkpt><trkpt lat="43.17826251714382" lon="12.97225296807148"><ele>537.8</ele><time>2026-05-02T09:49:13.999Z</time></trkpt><trkpt lat="43.17827653747493" lon="12.972130346029926"><ele>531.5999999999999</ele><time>2026-05-02T09:49:15.999Z</time></trkpt><trkpt lat="43.17829140874008" lon="12.97199471775128"><ele>525.4</ele><time>2026-05-02T09:49:17.999Z</time></trkpt><trkpt lat="43.17827484791574" lon="12.971841000781277"><ele>519.1999999999999</ele><time>2026-05-02T09:49:19.999Z</time></trkpt><trkpt lat="43.17826038506741" lon="12.971694189738205"><ele>513.0</ele><time>2026-05-02T09:49:21.999Z</time></trkpt><trkpt lat="43.17824793781563" lon="12.971559798562371"><ele>510.79999999999995</ele><time>2026-05-02T09:49:23.999Z</time></trkpt><trkpt lat="43.17823862892102" lon="12.971413177378162"><ele>508.59999999999997</ele><time>2026-05-02T09:49:25.999Z</time></trkpt><trkpt lat="43.178215927033825" lon="12.971263603463443"><ele>506.40000000000003</ele><time>2026-05-02T09:49:27.999Z</time></trkpt><trkpt lat="43.178205201524996" lon="12.971125035206109"><ele>504.20000000000005</ele><time>2026-05-02T09:49:29.999Z</time></trkpt><trkpt lat="43.17818409792482" lon="12.971027065185664"><ele>502.0</ele><time>2026-05-02T09:49:31.999Z</time></trkpt><trkpt lat="43.17814288870489" lon="12.97095786765833"><ele>502.00000000000006</ele><time>2026-05-02T09:49:33.999Z</time></trkpt><trkpt lat="43.178183240929535" lon="12.9708726989461"><ele>502.0</ele><time>2026-05-02T09:49:36.999Z</time></trkpt><trkpt lat="43.178270430733015" lon="12.970879611240116"><ele>502.0</ele><time>2026-05-02T09:49:40.999Z</time></trkpt><trkpt lat="43.17833772558747" lon="12.97091937549625"><ele>502.0</ele><time>2026-05-02T09:49:43.999Z</time></trkpt><trkpt lat="43.17842344192824" lon="12.970972711806596"><ele>502.00000000000006</ele><time>2026-05-02T09:49:46.999Z</time></trkpt><trkpt lat="43.178479021935125" lon="12.97102701894961"><ele>502.0</ele><time>2026-05-02T09:49:48.998Z</time></trkpt><trkpt lat="43.17857011021342" lon="12.971120486499117"><ele>502.00000000000006</ele><time>2026-05-02T09:49:50.998Z</time></trkpt><trkpt lat="43.17864439022645" lon="12.971216129724281"><ele>502.0</ele><time>2026-05-02T09:49:52.998Z</time></trkpt><trkpt lat="43.17871355830638" lon="12.97128455269314"><ele>502.0</ele><time>2026-05-02T09:49:55.998Z</time></trkpt><trkpt lat="43.17877098063007" lon="12.971348804603688"><ele>502.0</ele><time>2026-05-02T09:49:58.998Z</time></trkpt><trkpt lat="43.17882828081752" lon="12.971397819939455"><ele>502.00000000000006</ele><time>2026-05-02T09:50:02.998Z</time></trkpt><trkpt lat="43.178791775154224" lon="12.971310923890895"><ele>502.0</ele><time>2026-05-02T09:50:18Z</time></trkpt><trkpt lat="43.178754734359345" lon="12.971232894336216"><ele>502.00000000000006</ele><time>2026-05-02T09:50:20Z</time></trkpt><trkpt lat="43.17869503980722" lon="12.971134849726504"><ele>502.0</ele><time>2026-05-02T09:50:22Z</time></trkpt><trkpt lat="43.17864621296947" lon="12.971053945724785"><ele>502.0</ele><time>2026-05-02T09:50:23Z</time></trkpt><trkpt lat="43.17859757459269" lon="12.97097206564576"><ele>502.0</ele><time>2026-05-02T09:50:24Z</time></trkpt><trkpt lat="43.178552990296865" lon="12.97090388089949"><ele>502.00000000000006</ele><time>2026-05-02T09:50:25Z</time></trkpt><trkpt lat="43.17850054513513" lon="12.9708306629073"><ele>502.0</ele><time>2026-05-02T09:50:26Z</time></trkpt><trkpt lat="43.17841031630999" lon="12.970728566124967"><ele>499.33333333333337</ele><time>2026-05-02T09:50:28Z</time></trkpt><trkpt lat="43.17835656035866" lon="12.970671661424879"><ele>496.6666666666667</ele><time>2026-05-02T09:50:29Z</time></trkpt><trkpt lat="43.17827169628121" lon="12.970572407604852"><ele>494.0</ele><time>2026-05-02T09:50:31Z</time></trkpt><trkpt lat="43.178199138928406" lon="12.970522874503926"><ele>491.33333333333337</ele><time>2026-05-02T09:50:33Z</time></trkpt><trkpt lat="43.178133257616444" lon="12.970437207424363"><ele>488.6666666666667</ele><time>2026-05-02T09:50:37Z</time></trkpt><trkpt lat="43.178069886484494" lon="12.970359053969354"><ele>486.0</ele><time>2026-05-02T09:50:38.999Z</time></trkpt><trkpt lat="43.17801150666621" lon="12.970260635877318"><ele>493.20000000000005</ele><time>2026-05-02T09:50:40.999Z</time></trkpt><trkpt lat="43.177981691491084" lon="12.970154232153199"><ele>500.40000000000003</ele><time>2026-05-02T09:50:42.999Z</time></trkpt><trkpt lat="43.17800275264774" lon="12.97000079594045"><ele>507.6</ele><time>2026-05-02T09:50:44.999Z</time></trkpt><trkpt lat="43.178013698752544" lon="12.969882700321003"><ele>514.8000000000001</ele><time>2026-05-02T09:50:45.999Z</time></trkpt><trkpt lat="43.17802168144626" lon="12.969791640667971"><ele>522.0</ele><time>2026-05-02T09:50:46.999Z</time></trkpt><trkpt lat="43.17803102593787" lon="12.969621402154035"><ele>522.0</ele><time>2026-05-02T09:50:48.999Z</time></trkpt><trkpt lat="43.17801978955408" lon="12.969524068897195"><ele>522.0</ele><time>2026-05-02T09:50:49.999Z</time></trkpt><trkpt lat="43.17794808617157" lon="12.969355041272609"><ele>522.0</ele><time>2026-05-02T09:50:51.999Z</time></trkpt><trkpt lat="43.177891885755" lon="12.969262634747292"><ele>522.0</ele><time>2026-05-02T09:50:52.999Z</time></trkpt><trkpt lat="43.1778438508295" lon="12.969175146824716"><ele>522.0</ele><time>2026-05-02T09:50:53.999Z</time></trkpt><trkpt lat="43.177796345787456" lon="12.969099519006445"><ele>523.6666666666666</ele><time>2026-05-02T09:50:54.999Z</time></trkpt><trkpt lat="43.17774562148984" lon="12.968996981713111"><ele>525.3333333333334</ele><time>2026-05-02T09:50:55.999Z</time></trkpt><trkpt lat="43.17770532937005" lon="12.968899802918152"><ele>527.0</ele><time>2026-05-02T09:50:56.999Z</time></trkpt><trkpt lat="43.17766319261346" lon="12.96881074929761"><ele>528.6666666666667</ele><time>2026-05-02T09:50:57.999Z</time></trkpt><trkpt lat="43.177670583882986" lon="12.968645469066198"><ele>530.3333333333334</ele><time>2026-05-02T09:50:59.999Z</time></trkpt><trkpt lat="43.17764835058628" lon="12.968554135904437"><ele>532.0</ele><time>2026-05-02T09:51:00.999Z</time></trkpt><trkpt lat="43.17762782349463" lon="12.968456901602565"><ele>532.0</ele><time>2026-05-02T09:51:02.999Z</time></trkpt><trkpt lat="43.177585696471894" lon="12.968385419583905"><ele>532.0</ele><time>2026-05-02T09:56:36Z</time></trkpt><trkpt lat="43.17758548769388" lon="12.968270807321868"><ele>532.0</ele><time>2026-05-02T10:08:09.999Z</time></trkpt><trkpt lat="43.17760053870179" lon="12.968179918828467"><ele>532.0</ele><time>2026-05-02T10:08:12.999Z</time></trkpt><trkpt lat="43.17758277692977" lon="12.96808807456755"><ele>532.0</ele><time>2026-05-02T10:08:14.999Z</time></trkpt><trkpt lat="43.17761014765255" lon="12.967986595077077"><ele>532.0</ele><time>2026-05-02T10:08:16.999Z</time></trkpt><trkpt lat="43.177638585815295" lon="12.967878768591858"><ele>532.6666666666667</ele><time>2026-05-02T10:08:19.999Z</time></trkpt><trkpt lat="43.17764168257873" lon="12.967733067962774"><ele>533.3333333333334</ele><time>2026-05-02T10:08:22.999Z</time></trkpt><trkpt lat="43.17763301949848" lon="12.96762324484018"><ele>534.0</ele><time>2026-05-02T10:08:24.999Z</time></trkpt><trkpt lat="43.17764233833391" lon="12.967525307111666"><ele>534.6666666666666</ele><time>2026-05-02T10:08:26.999Z</time></trkpt><trkpt lat="43.17764119335413" lon="12.967415707429483"><ele>535.3333333333333</ele><time>2026-05-02T10:08:28.999Z</time></trkpt><trkpt lat="43.1776399714554" lon="12.967312921045146"><ele>536.0</ele><time>2026-05-02T10:08:31.999Z</time></trkpt><trkpt lat="43.17764486399204" lon="12.967178823882847"><ele>536.5</ele><time>2026-05-02T10:09:55Z</time></trkpt><trkpt lat="43.17763712717386" lon="12.967085611102034"><ele>537.0</ele><time>2026-05-02T10:09:57Z</time></trkpt><trkpt lat="43.17760787963761" lon="12.966973613683024"><ele>537.5</ele><time>2026-05-02T10:09:59Z</time></trkpt><trkpt lat="43.17757788079767" lon="12.966875179216569"><ele>538.0</ele><time>2026-05-02T10:10:01Z</time></trkpt><trkpt lat="43.177550912342966" lon="12.966774557300552"><ele>538.5</ele><time>2026-05-02T10:10:04Z</time></trkpt><trkpt lat="43.17752957170009" lon="12.966666765852239"><ele>539.0</ele><time>2026-05-02T10:10:08Z</time></trkpt><trkpt lat="43.177506291019284" lon="12.966568707568767"><ele>539.0</ele><time>2026-05-02T10:10:10Z</time></trkpt><trkpt lat="43.17749037446984" lon="12.966481823479246"><ele>539.0</ele><time>2026-05-02T10:10:12Z</time></trkpt><trkpt lat="43.17745848780794" lon="12.966334892362637"><ele>539.0</ele><time>2026-05-02T10:10:14.999Z</time></trkpt><trkpt lat="43.1774558195887" lon="12.966192444800564"><ele>539.0</ele><time>2026-05-02T10:10:16.999Z</time></trkpt><trkpt lat="43.17744831955864" lon="12.96603970970541"><ele>539.0</ele><time>2026-05-02T10:10:18.999Z</time></trkpt><trkpt lat="43.17745914756617" lon="12.965899048362566"><ele>535.8</ele><time>2026-05-02T10:10:20.999Z</time></trkpt><trkpt lat="43.17744530495491" lon="12.965748055872128"><ele>532.5999999999999</ele><time>2026-05-02T10:10:22.999Z</time></trkpt><trkpt lat="43.17741606786717" lon="12.965600371924534"><ele>529.4</ele><time>2026-05-02T10:10:24.999Z</time></trkpt><trkpt lat="43.17742205557105" lon="12.965429610432299"><ele>526.1999999999999</ele><time>2026-05-02T10:10:26.999Z</time></trkpt><trkpt lat="43.17743559133667" lon="12.965293510115103"><ele>523.0</ele><time>2026-05-02T10:10:28.999Z</time></trkpt><trkpt lat="43.1774321474891" lon="12.96518828808676"><ele>523.0</ele><time>2026-05-02T10:10:30.999Z</time></trkpt><trkpt lat="43.1774035555233" lon="12.965075207293518"><ele>523.0</ele><time>2026-05-02T10:10:32.999Z</time></trkpt><trkpt lat="43.17737330223532" lon="12.964923742521153"><ele>523.0</ele><time>2026-05-02T10:10:34.999Z</time></trkpt><trkpt lat="43.1773788214354" lon="12.964787556630679"><ele>523.0</ele><time>2026-05-02T10:10:36.999Z</time></trkpt><trkpt lat="43.17736528520789" lon="12.964691438127044"><ele>523.0</ele><time>2026-05-02T10:10:38.999Z</time></trkpt><trkpt lat="43.177335593861855" lon="12.964590483288552"><ele>527.0</ele><time>2026-05-02T10:10:40.999Z</time></trkpt><trkpt lat="43.17729528499305" lon="12.964422810181286"><ele>531.0</ele><time>2026-05-02T10:10:42.999Z</time></trkpt><trkpt lat="43.17727703853171" lon="12.964284162019526"><ele>535.0</ele><time>2026-05-02T10:10:44.999Z</time></trkpt><trkpt lat="43.177321766951444" lon="12.964148738769193"><ele>539.0</ele><time>2026-05-02T10:10:46.999Z</time></trkpt><trkpt lat="43.17735569798614" lon="12.964050205862641"><ele>543.0</ele><time>2026-05-02T10:10:47.999Z</time></trkpt><trkpt lat="43.177377016228775" lon="12.963950822077525"><ele>543.0</ele><time>2026-05-02T10:10:48.999Z</time></trkpt><trkpt lat="43.177353444982714" lon="12.963813907760613"><ele>543.0</ele><time>2026-05-02T10:10:50.999Z</time></trkpt><trkpt lat="43.177308411035106" lon="12.963741828421407"><ele>543.0</ele><time>2026-05-02T10:10:51.999Z</time></trkpt><trkpt lat="43.177302718510035" lon="12.963634357348816"><ele>543.0</ele><time>2026-05-02T10:10:53.999Z</time></trkpt><trkpt lat="43.17735685841152" lon="12.963549833014794"><ele>543.0</ele><time>2026-05-02T10:10:55.999Z</time></trkpt><trkpt lat="43.177385388735566" lon="12.963446745639366"><ele>543.0</ele><time>2026-05-02T10:10:57.999Z</time></trkpt><trkpt lat="43.17743862217367" lon="12.96331688242209"><ele>536.1666666666666</ele><time>2026-05-02T10:10:59.999Z</time></trkpt><trkpt lat="43.17744518643065" lon="12.96317273497857"><ele>529.3333333333334</ele><time>2026-05-02T10:11:01.999Z</time></trkpt><trkpt lat="43.17750386526538" lon="12.96306949452243"><ele>522.5</ele><time>2026-05-02T10:11:03.999Z</time></trkpt><trkpt lat="43.1775397237295" lon="12.962983512175448"><ele>515.6666666666667</ele><time>2026-05-02T10:11:05.999Z</time></trkpt><trkpt lat="43.17757562396659" lon="12.962911564662656"><ele>508.83333333333337</ele><time>2026-05-02T10:11:07.999Z</time></trkpt><trkpt lat="43.177611421357554" lon="12.962839800979491"><ele>502.0</ele><time>2026-05-02T10:11:09.999Z</time></trkpt><trkpt lat="43.1776643512934" lon="12.962740707319318"><ele>502.00000000000006</ele><time>2026-05-02T10:11:44Z</time></trkpt><trkpt lat="43.17771865740605" lon="12.962628741396712"><ele>502.0</ele><time>2026-05-02T10:13:57Z</time></trkpt><trkpt lat="43.17774361370794" lon="12.962542594511362"><ele>502.0</ele><time>2026-05-02T10:14:01Z</time></trkpt><trkpt lat="43.17779425393205" lon="12.962430475304554"><ele>502.0</ele><time>2026-05-02T10:14:04Z</time></trkpt><trkpt lat="43.17782635004841" lon="12.962319903877214"><ele>502.00000000000006</ele><time>2026-05-02T10:14:06Z</time></trkpt><trkpt lat="43.17783501471099" lon="12.962189685251975"><ele>502.0</ele><time>2026-05-02T10:14:08Z</time></trkpt><trkpt lat="43.17781517655769" lon="12.96206792845355"><ele>502.50000000000006</ele><time>2026-05-02T10:14:10Z</time></trkpt><trkpt lat="43.1777911926331" lon="12.961928246253631"><ele>503.0</ele><time>2026-05-02T10:14:13Z</time></trkpt><trkpt lat="43.1777706249369" lon="12.961831479633355"><ele>503.5</ele><time>2026-05-02T10:14:15Z</time></trkpt><trkpt lat="43.177741320247634" lon="12.961713184402539"><ele>504.0</ele><time>2026-05-02T10:14:17Z</time></trkpt><trkpt lat="43.17775795959012" lon="12.961605598468905"><ele>504.50000000000006</ele><time>2026-05-02T10:14:20Z</time></trkpt><trkpt lat="43.17776214322458" lon="12.961515020852667"><ele>505.0</ele><time>2026-05-02T10:14:24Z</time></trkpt><trkpt lat="43.1777468914838" lon="12.9614274805666"><ele>503.2857142857143</ele><time>2026-05-02T10:14:46.999Z</time></trkpt><trkpt lat="43.17772456223779" lon="12.961326829742312"><ele>501.57142857142856</ele><time>2026-05-02T10:14:55.999Z</time></trkpt><trkpt lat="43.177688761302925" lon="12.9612534018818"><ele>499.85714285714283</ele><time>2026-05-02T10:14:59.999Z</time></trkpt><trkpt lat="43.17763569635442" lon="12.961182360590701"><ele>498.1428571428571</ele><time>2026-05-02T10:15:02.999Z</time></trkpt><trkpt lat="43.17757971568302" lon="12.961125437477568"><ele>496.42857142857144</ele><time>2026-05-02T10:15:05.999Z</time></trkpt><trkpt lat="43.17752161293802" lon="12.961053950416868"><ele>494.71428571428567</ele><time>2026-05-02T10:15:08.999Z</time></trkpt><trkpt lat="43.17747120732915" lon="12.960976645964195"><ele>493.0</ele><time>2026-05-02T10:15:12.999Z</time></trkpt><trkpt lat="43.17747747011206" lon="12.960879324114135"><ele>490.83333333333337</ele><time>2026-05-02T10:15:17.999Z</time></trkpt><trkpt lat="43.17752538760239" lon="12.960823107158266"><ele>488.6666666666667</ele><time>2026-05-02T10:15:22.999Z</time></trkpt><trkpt lat="43.17759975256818" lon="12.960764707023891"><ele>486.5</ele><time>2026-05-02T10:15:27Z</time></trkpt><trkpt lat="43.17766048235894" lon="12.960721697128704"><ele>484.33333333333337</ele><time>2026-05-02T10:15:32Z</time></trkpt><trkpt lat="43.17772201518905" lon="12.960700191347167"><ele>482.1666666666667</ele><time>2026-05-02T10:15:35Z</time></trkpt><trkpt lat="43.17778504375216" lon="12.960657055306427"><ele>480.0</ele><time>2026-05-02T10:15:37Z</time></trkpt><trkpt lat="43.17787968493419" lon="12.960599483319761"><ele>480.0</ele><time>2026-05-02T10:15:39Z</time></trkpt><trkpt lat="43.17795017348277" lon="12.960550637815663"><ele>480.0</ele><time>2026-05-02T10:15:41Z</time></trkpt><trkpt lat="43.178030418462995" lon="12.960488159979345"><ele>480.0</ele><time>2026-05-02T10:15:43Z</time></trkpt><trkpt lat="43.178123298905255" lon="12.960437591193438"><ele>480.0</ele><time>2026-05-02T10:15:45Z</time></trkpt><trkpt lat="43.17822136916149" lon="12.96040068601179"><ele>480.0</ele><time>2026-05-02T10:15:47Z</time></trkpt><trkpt lat="43.17830577879929" lon="12.960309707804939"><ele>476.5</ele><time>2026-05-02T10:15:49Z</time></trkpt><trkpt lat="43.17837293069199" lon="12.960232675477041"><ele>473.0</ele><time>2026-05-02T10:15:51Z</time></trkpt><trkpt lat="43.17842631693115" lon="12.960146843241034"><ele>469.5</ele><time>2026-05-02T10:15:53Z</time></trkpt><trkpt lat="43.17844025993754" lon="12.960055470286672"><ele>466.0</ele><time>2026-05-02T10:15:55Z</time></trkpt><trkpt lat="43.178453860639394" lon="12.95994827891683"><ele>462.5</ele><time>2026-05-02T10:15:57Z</time></trkpt><trkpt lat="43.17847388727899" lon="12.959843912311637"><ele>459.0</ele><time>2026-05-02T10:15:59Z</time></trkpt><trkpt lat="43.17850570060356" lon="12.959711592587633"><ele>459.0</ele><time>2026-05-02T10:16:01Z</time></trkpt><trkpt lat="43.178531464341724" lon="12.959630529546908"><ele>459.0</ele><time>2026-05-02T10:16:02Z</time></trkpt><trkpt lat="43.17859295247707" lon="12.959494813853855"><ele>459.0</ele><time>2026-05-02T10:16:04Z</time></trkpt><trkpt lat="43.178661369546205" lon="12.959353925114847"><ele>459.0</ele><time>2026-05-02T10:16:06Z</time></trkpt><trkpt lat="43.178709756163784" lon="12.959252068295884"><ele>459.0</ele><time>2026-05-02T10:16:07Z</time></trkpt><trkpt lat="43.178766804031206" lon="12.959150915117593"><ele>457.0</ele><time>2026-05-02T10:16:08Z</time></trkpt><trkpt lat="43.1788273290951" lon="12.95903938276448"><ele>455.0</ele><time>2026-05-02T10:16:09Z</time></trkpt><trkpt lat="43.178883021965476" lon="12.958920422589728"><ele>453.0</ele><time>2026-05-02T10:16:10Z</time></trkpt><trkpt lat="43.178929464130384" lon="12.958829778522098"><ele>451.0</ele><time>2026-05-02T10:16:11Z</time></trkpt><trkpt lat="43.17897903019973" lon="12.958756251435409"><ele>449.0</ele><time>2026-05-02T10:16:12Z</time></trkpt><trkpt lat="43.179035677018156" lon="12.958690749226081"><ele>447.0</ele><time>2026-05-02T10:16:13Z</time></trkpt><trkpt lat="43.17910491367573" lon="12.958624461553642"><ele>447.0</ele><time>2026-05-02T10:16:14Z</time></trkpt><trkpt lat="43.179174627721814" lon="12.958552214956502"><ele>447.00000000000006</ele><time>2026-05-02T10:16:15Z</time></trkpt><trkpt lat="43.179245301675806" lon="12.958462348310333"><ele>447.00000000000006</ele><time>2026-05-02T10:16:16Z</time></trkpt><trkpt lat="43.179322121802336" lon="12.958371219123919"><ele>447.0</ele><time>2026-05-02T10:16:17Z</time></trkpt><trkpt lat="43.179407998545244" lon="12.958277894212632"><ele>447.0</ele><time>2026-05-02T10:16:18Z</time></trkpt><trkpt lat="43.179502005573546" lon="12.958191302373935"><ele>446.25</ele><time>2026-05-02T10:16:19Z</time></trkpt><trkpt lat="43.17960742939177" lon="12.958103111894186"><ele>445.5</ele><time>2026-05-02T10:16:20Z</time></trkpt><trkpt lat="43.17970890795267" lon="12.958010020351079"><ele>444.75</ele><time>2026-05-02T10:16:21Z</time></trkpt><trkpt lat="43.179815686410336" lon="12.957897160214053"><ele>444.0</ele><time>2026-05-02T10:16:22Z</time></trkpt><trkpt lat="43.17992704509406" lon="12.957783154325904"><ele>444.0</ele><time>2026-05-02T10:16:23Z</time></trkpt><trkpt lat="43.18004947636311" lon="12.957669326382856"><ele>444.0</ele><time>2026-05-02T10:16:24Z</time></trkpt><trkpt lat="43.1801776168724" lon="12.95756325753198"><ele>444.0</ele><time>2026-05-02T10:16:25Z</time></trkpt><trkpt lat="43.18029897416613" lon="12.957471828444936"><ele>444.0</ele><time>2026-05-02T10:16:26Z</time></trkpt><trkpt lat="43.18041180799198" lon="12.957401132516882"><ele>445.75</ele><time>2026-05-02T10:16:27Z</time></trkpt><trkpt lat="43.18052068384561" lon="12.957340009874118"><ele>447.5</ele><time>2026-05-02T10:16:28Z</time></trkpt><trkpt lat="43.1806256826564" lon="12.957286642230779"><ele>449.25</ele><time>2026-05-02T10:16:29Z</time></trkpt><trkpt lat="43.180735529707135" lon="12.957238893984362"><ele>451.0</ele><time>2026-05-02T10:16:30Z</time></trkpt><trkpt lat="43.180846191920985" lon="12.957195901016457"><ele>451.0</ele><time>2026-05-02T10:16:31Z</time></trkpt><trkpt lat="43.180952769613" lon="12.95715712838719"><ele>451.0</ele><time>2026-05-02T10:16:32Z</time></trkpt><trkpt lat="43.18106192646548" lon="12.957112336040504"><ele>451.0</ele><time>2026-05-02T10:16:33Z</time></trkpt><trkpt lat="43.181169191867895" lon="12.957067983644933"><ele>451.0</ele><time>2026-05-02T10:16:34Z</time></trkpt><trkpt lat="43.18128340415418" lon="12.95702338405454"><ele>451.0</ele><time>2026-05-02T10:16:35Z</time></trkpt><trkpt lat="43.18139883092092" lon="12.956972850388"><ele>451.0</ele><time>2026-05-02T10:16:36Z</time></trkpt><trkpt lat="43.18150936774817" lon="12.956914648337982"><ele>451.0</ele><time>2026-05-02T10:16:37Z</time></trkpt><trkpt lat="43.1816064826024" lon="12.956845297658022"><ele>451.0</ele><time>2026-05-02T10:16:38Z</time></trkpt><trkpt lat="43.1817006004583" lon="12.95676679375899"><ele>450.83333333333337</ele><time>2026-05-02T10:16:39Z</time></trkpt><trkpt lat="43.18178295615654" lon="12.956687766418879"><ele>450.6666666666667</ele><time>2026-05-02T10:16:40Z</time></trkpt><trkpt lat="43.18185251151051" lon="12.956613757841913"><ele>450.5</ele><time>2026-05-02T10:16:41Z</time></trkpt><trkpt lat="43.18190990211737" lon="12.956528221557274"><ele>450.33333333333337</ele><time>2026-05-02T10:16:42Z</time></trkpt><trkpt lat="43.181967612254866" lon="12.956456187049712"><ele>450.1666666666667</ele><time>2026-05-02T10:16:43Z</time></trkpt><trkpt lat="43.18198049256208" lon="12.956341739085557"><ele>450.0</ele><time>2026-05-02T10:16:44Z</time></trkpt><trkpt lat="43.181969536291575" lon="12.956224406329426"><ele>450.0</ele><time>2026-05-02T10:16:45Z</time></trkpt><trkpt lat="43.18195096605767" lon="12.956128358475592"><ele>450.0</ele><time>2026-05-02T10:16:46Z</time></trkpt><trkpt lat="43.18188476630756" lon="12.95600514417493"><ele>450.0</ele><time>2026-05-02T10:16:48Z</time></trkpt><trkpt lat="43.18185428386555" lon="12.955928462068906"><ele>450.0</ele><time>2026-05-02T10:16:49.999Z</time></trkpt><trkpt lat="43.18175497812931" lon="12.95582563025713"><ele>450.0</ele><time>2026-05-02T10:16:51.999Z</time></trkpt><trkpt lat="43.18169490839915" lon="12.955732132703796"><ele>450.3333333333333</ele><time>2026-05-02T10:16:52.999Z</time></trkpt><trkpt lat="43.1816291784144" lon="12.955670858479"><ele>450.66666666666663</ele><time>2026-05-02T10:16:53.999Z</time></trkpt><trkpt lat="43.18157499213433" lon="12.95558623807428"><ele>451.0</ele><time>2026-05-02T10:16:54.999Z</time></trkpt><trkpt lat="43.18151692746809" lon="12.955517309992823"><ele>451.3333333333333</ele><time>2026-05-02T10:16:55.999Z</time></trkpt><trkpt lat="43.181463082894616" lon="12.955453482193356"><ele>451.66666666666663</ele><time>2026-05-02T10:16:56.999Z</time></trkpt><trkpt lat="43.18139787756523" lon="12.955381638153868"><ele>452.0</ele><time>2026-05-02T10:16:57.999Z</time></trkpt><trkpt lat="43.18132088952927" lon="12.955320936326476"><ele>452.20000000000005</ele><time>2026-05-02T10:16:58.999Z</time></trkpt><trkpt lat="43.18124262030026" lon="12.955258340884356"><ele>452.40000000000003</ele><time>2026-05-02T10:16:59.999Z</time></trkpt><trkpt lat="43.18116138649076" lon="12.95520270180185"><ele>452.59999999999997</ele><time>2026-05-02T10:17:00.999Z</time></trkpt><trkpt lat="43.18107106745102" lon="12.955145735919405"><ele>452.79999999999995</ele><time>2026-05-02T10:17:01.999Z</time></trkpt><trkpt lat="43.18096163887321" lon="12.955101477584803"><ele>453.0</ele><time>2026-05-02T10:17:02.999Z</time></trkpt><trkpt lat="43.18086253843521" lon="12.955035566719557"><ele>453.0</ele><time>2026-05-02T10:17:03.999Z</time></trkpt><trkpt lat="43.18075933848415" lon="12.9549820082531"><ele>453.0</ele><time>2026-05-02T10:17:04.999Z</time></trkpt><trkpt lat="43.18064243816661" lon="12.954934800865496"><ele>453.0</ele><time>2026-05-02T10:17:05.999Z</time></trkpt><trkpt lat="43.18052632748619" lon="12.954842364211727"><ele>453.0</ele><time>2026-05-02T10:17:06.999Z</time></trkpt><trkpt lat="43.18042333115155" lon="12.954735464289428"><ele>457.0</ele><time>2026-05-02T10:17:07.999Z</time></trkpt><trkpt lat="43.18032166611211" lon="12.954647488250314"><ele>460.99999999999994</ele><time>2026-05-02T10:17:08.999Z</time></trkpt><trkpt lat="43.18022552721931" lon="12.954557692393275"><ele>464.99999999999994</ele><time>2026-05-02T10:17:09.999Z</time></trkpt><trkpt lat="43.180136539622424" lon="12.954462342567382"><ele>469.0</ele><time>2026-05-02T10:17:10.999Z</time></trkpt><trkpt lat="43.18006538851672" lon="12.954382416473072"><ele>473.0</ele><time>2026-05-02T10:17:11.999Z</time></trkpt><trkpt lat="43.18000052560199" lon="12.954295144896408"><ele>469.0</ele><time>2026-05-02T10:17:12.999Z</time></trkpt><trkpt lat="43.1799394855551" lon="12.954195656388162"><ele>464.99999999999994</ele><time>2026-05-02T10:17:13.999Z</time></trkpt><trkpt lat="43.17986659272335" lon="12.954083918513982"><ele>460.99999999999994</ele><time>2026-05-02T10:17:14.999Z</time></trkpt><trkpt lat="43.179803641427924" lon="12.953977139714976"><ele>457.0</ele><time>2026-05-02T10:17:15.999Z</time></trkpt><trkpt lat="43.17975531597993" lon="12.953882044726331"><ele>453.0</ele><time>2026-05-02T10:17:16.999Z</time></trkpt><trkpt lat="43.17970829032346" lon="12.953788436803423"><ele>455.4</ele><time>2026-05-02T10:17:17.999Z</time></trkpt><trkpt lat="43.17965417976021" lon="12.953680103820494"><ele>457.79999999999995</ele><time>2026-05-02T10:17:18.999Z</time></trkpt><trkpt lat="43.17959174565565" lon="12.953575131080202"><ele>460.2</ele><time>2026-05-02T10:17:19.999Z</time></trkpt><trkpt lat="43.17953058208372" lon="12.95348836075351"><ele>462.6</ele><time>2026-05-02T10:17:20.999Z</time></trkpt><trkpt lat="43.179484706198444" lon="12.953377088521439"><ele>465.0</ele><time>2026-05-02T10:17:21.999Z</time></trkpt><trkpt lat="43.17943635752656" lon="12.953286524935882"><ele>465.0</ele><time>2026-05-02T10:17:22.999Z</time></trkpt><trkpt lat="43.179385261073904" lon="12.953189304952337"><ele>465.0</ele><time>2026-05-02T10:17:23.999Z</time></trkpt><trkpt lat="43.17933638606164" lon="12.953083772458815"><ele>465.0</ele><time>2026-05-02T10:17:24.999Z</time></trkpt><trkpt lat="43.17928965861944" lon="12.952976809070208"><ele>465.0</ele><time>2026-05-02T10:17:25.999Z</time></trkpt><trkpt lat="43.1792581531715" lon="12.952899875756307"><ele>465.0</ele><time>2026-05-02T10:17:26.999Z</time></trkpt><trkpt lat="43.17922617931717" lon="12.952823654696992"><ele>465.0</ele><time>2026-05-02T10:17:27.999Z</time></trkpt><trkpt lat="43.17916518350323" lon="12.952639353768223"><ele>462.6666666666667</ele><time>2026-05-02T10:17:29.999Z</time></trkpt><trkpt lat="43.17912877702918" lon="12.952526303073585"><ele>460.33333333333337</ele><time>2026-05-02T10:17:31Z</time></trkpt><trkpt lat="43.17909405821496" lon="12.952416190116814"><ele>458.0</ele><time>2026-05-02T10:17:32Z</time></trkpt><trkpt lat="43.17906552782798" lon="12.952325099065638"><ele>455.6666666666667</ele><time>2026-05-02T10:17:33Z</time></trkpt><trkpt lat="43.179036214532914" lon="12.952231507607417"><ele>453.33333333333337</ele><time>2026-05-02T10:17:34Z</time></trkpt><trkpt lat="43.179010479164965" lon="12.952149339989335"><ele>451.0</ele><time>2026-05-02T10:17:35Z</time></trkpt><trkpt lat="43.17894908934397" lon="12.951929097019299"><ele>452.0</ele><time>2026-05-02T10:17:37Z</time></trkpt><trkpt lat="43.178872266102644" lon="12.951760365284386"><ele>453.0</ele><time>2026-05-02T10:17:38Z</time></trkpt><trkpt lat="43.178724782418264" lon="12.951582987732424"><ele>454.0</ele><time>2026-05-02T10:17:39Z</time></trkpt><trkpt lat="43.178640026165816" lon="12.951522823615425"><ele>455.0</ele><time>2026-05-02T10:17:40Z</time></trkpt><trkpt lat="43.178465130861206" lon="12.951435071780041"><ele>455.0</ele><time>2026-05-02T10:17:41Z</time></trkpt><trkpt lat="43.178279597662595" lon="12.951413320397975"><ele>455.0</ele><time>2026-05-02T10:17:42Z</time></trkpt><trkpt lat="43.178193875977556" lon="12.951412453872495"><ele>455.0</ele><time>2026-05-02T10:17:43Z</time></trkpt><trkpt lat="43.17809981560634" lon="12.951411503063932"><ele>455.0</ele><time>2026-05-02T10:17:44Z</time></trkpt><trkpt lat="43.177981883532716" lon="12.951412621055002"><ele>456.3333333333333</ele><time>2026-05-02T10:17:45Z</time></trkpt><trkpt lat="43.17787847558804" lon="12.951416102511551"><ele>457.66666666666663</ele><time>2026-05-02T10:17:46Z</time></trkpt><trkpt lat="43.17763353771475" lon="12.9515514676732"><ele>459.0</ele><time>2026-05-02T10:17:47Z</time></trkpt><trkpt lat="43.17745099601753" lon="12.951616581030159"><ele>459.4</ele><time>2026-05-02T10:17:49Z</time></trkpt><trkpt lat="43.177336870900824" lon="12.951667262148126"><ele>459.79999999999995</ele><time>2026-05-02T10:17:50Z</time></trkpt><trkpt lat="43.177227343367036" lon="12.951718088623508"><ele>460.20000000000005</ele><time>2026-05-02T10:17:51Z</time></trkpt><trkpt lat="43.177128956855334" lon="12.951763745233531"><ele>460.6</ele><time>2026-05-02T10:17:52Z</time></trkpt><trkpt lat="43.17703264966704" lon="12.951812174353417"><ele>461.0</ele><time>2026-05-02T10:17:53Z</time></trkpt><trkpt lat="43.17695726716537" lon="12.95185046773861"><ele>466.3333333333333</ele><time>2026-05-02T10:17:54Z</time></trkpt><trkpt lat="43.17687596983568" lon="12.951891766314258"><ele>471.66666666666663</ele><time>2026-05-02T10:17:55Z</time></trkpt><trkpt lat="43.17679521186296" lon="12.951932789967243"><ele>477.0</ele><time>2026-05-02T10:17:56Z</time></trkpt><trkpt lat="43.176729109944795" lon="12.951966368008764"><ele>482.33333333333337</ele><time>2026-05-02T10:17:57Z</time></trkpt><trkpt lat="43.17664835313699" lon="12.952007390348765"><ele>487.6666666666667</ele><time>2026-05-02T10:17:58Z</time></trkpt><trkpt lat="43.176582250882284" lon="12.952040968558503"><ele>493.0</ele><time>2026-05-02T10:17:59Z</time></trkpt><trkpt lat="43.17669714678938" lon="12.952676612144865"><ele>500.2</ele><time>2026-05-02T10:18:00Z</time></trkpt><trkpt lat="43.17661370957912" lon="12.952713342517319"><ele>507.4</ele><time>2026-05-02T10:18:01Z</time></trkpt><trkpt lat="43.176532620928846" lon="12.952754445219595"><ele>514.5999999999999</ele><time>2026-05-02T10:18:02Z</time></trkpt><trkpt lat="43.17644969013581" lon="12.952799934677856"><ele>521.8</ele><time>2026-05-02T10:18:03Z</time></trkpt><trkpt lat="43.17635718856006" lon="12.952840695770025"><ele>529.0</ele><time>2026-05-02T10:18:04Z</time></trkpt><trkpt lat="43.176259349509365" lon="12.952874753877401"><ele>529.0</ele><time>2026-05-02T10:18:05Z</time></trkpt><trkpt lat="43.176172203250836" lon="12.95291454569279"><ele>529.0</ele><time>2026-05-02T10:18:06Z</time></trkpt><trkpt lat="43.17607958546621" lon="12.952963489569244"><ele>529.0</ele><time>2026-05-02T10:18:07Z</time></trkpt><trkpt lat="43.17599127568381" lon="12.953003139507173"><ele>529.0</ele><time>2026-05-02T10:18:08Z</time></trkpt><trkpt lat="43.17590869659224" lon="12.953028370123862"><ele>529.0</ele><time>2026-05-02T10:18:09Z</time></trkpt><trkpt lat="43.17582927439877" lon="12.953068118120159"><ele>529.0</ele><time>2026-05-02T10:18:10Z</time></trkpt><trkpt lat="43.17576733212448" lon="12.953094452474154"><ele>529.0</ele><time>2026-05-02T10:18:11Z</time></trkpt><trkpt lat="43.17569094309593" lon="12.953110302524586"><ele>529.0</ele><time>2026-05-02T10:18:12Z</time></trkpt><trkpt lat="43.175561480681836" lon="12.953147098083893"><ele>529.0</ele><time>2026-05-02T10:18:14Z</time></trkpt><trkpt lat="43.175479336730916" lon="12.95317019773178"><ele>529.0</ele><time>2026-05-02T10:18:15Z</time></trkpt><trkpt lat="43.175354706231445" lon="12.953214541287087"><ele>528.0</ele><time>2026-05-02T10:18:16Z</time></trkpt><trkpt lat="43.17524135880437" lon="12.953268752542924"><ele>527.0</ele><time>2026-05-02T10:18:17Z</time></trkpt><trkpt lat="43.17513728377075" lon="12.953316651184405"><ele>526.0</ele><time>2026-05-02T10:18:18Z</time></trkpt><trkpt lat="43.17504541324176" lon="12.953389893389017"><ele>525.0</ele><time>2026-05-02T10:18:19Z</time></trkpt><trkpt lat="43.17494626100966" lon="12.953477974935744"><ele>532.0</ele><time>2026-05-02T10:18:20Z</time></trkpt><trkpt lat="43.174859321980584" lon="12.953520414291564"><ele>539.0</ele><time>2026-05-02T10:18:21Z</time></trkpt><trkpt lat="43.17477699766853" lon="12.953500307887198"><ele>546.0</ele><time>2026-05-02T10:18:22Z</time></trkpt><trkpt lat="43.17466550316775" lon="12.95345493258601"><ele>553.0</ele><time>2026-05-02T10:18:23Z</time></trkpt><trkpt lat="43.17456596569756" lon="12.953412220550286"><ele>560.0</ele><time>2026-05-02T10:18:24Z</time></trkpt><trkpt lat="43.17448466772821" lon="12.9534179591619"><ele>560.8</ele><time>2026-05-02T10:18:25Z</time></trkpt><trkpt lat="43.17439003280278" lon="12.953442800131238"><ele>561.6</ele><time>2026-05-02T10:18:26Z</time></trkpt><trkpt lat="43.17429513498235" lon="12.953482562458658"><ele>562.4</ele><time>2026-05-02T10:18:27Z</time></trkpt><trkpt lat="43.17419027202768" lon="12.953520629401938"><ele>563.2</ele><time>2026-05-02T10:18:28Z</time></trkpt><trkpt lat="43.17410002773017" lon="12.95349220339851"><ele>564.0</ele><time>2026-05-02T10:18:29Z</time></trkpt><trkpt lat="43.17400734596117" lon="12.953462636849771"><ele>566.6</ele><time>2026-05-02T10:18:30Z</time></trkpt><trkpt lat="43.17390484162345" lon="12.953413620078344"><ele>569.2</ele><time>2026-05-02T10:18:31Z</time></trkpt><trkpt lat="43.17380906409042" lon="12.953379895720863"><ele>571.8000000000001</ele><time>2026-05-02T10:18:32Z</time></trkpt><trkpt lat="43.173717830279315" lon="12.953366913602895"><ele>574.4</ele><time>2026-05-02T10:18:33Z</time></trkpt><trkpt lat="43.173611339128364" lon="12.953381142648924"><ele>577.0</ele><time>2026-05-02T10:18:34Z</time></trkpt><trkpt lat="43.173498029645906" lon="12.95340073214434"><ele>577.0</ele><time>2026-05-02T10:18:35Z</time></trkpt><trkpt lat="43.173396118803176" lon="12.953412669524583"><ele>577.0</ele><time>2026-05-02T10:18:36Z</time></trkpt><trkpt lat="43.173284507143094" lon="12.953426599597424"><ele>577.0</ele><time>2026-05-02T10:18:37Z</time></trkpt><trkpt lat="43.17317600962348" lon="12.9534301804828"><ele>577.0</ele><time>2026-05-02T10:18:38Z</time></trkpt><trkpt lat="43.173080556463624" lon="12.953415602174623"><ele>577.0</ele><time>2026-05-02T10:18:39Z</time></trkpt><trkpt lat="43.17297245008621" lon="12.953389031425614"><ele>575.5</ele><time>2026-05-02T10:18:40Z</time></trkpt><trkpt lat="43.17287379453277" lon="12.953362722342824"><ele>574.0</ele><time>2026-05-02T10:18:41Z</time></trkpt><trkpt lat="43.17279507413097" lon="12.953325935487007"><ele>572.5</ele><time>2026-05-02T10:18:42Z</time></trkpt><trkpt lat="43.1727694648109" lon="12.953230581889462"><ele>571.0</ele><time>2026-05-02T10:18:44Z</time></trkpt><trkpt lat="43.172779827904684" lon="12.953115711379521"><ele>569.5</ele><time>2026-05-02T10:18:47Z</time></trkpt><trkpt lat="43.172789816939655" lon="12.952995436357257"><ele>568.0</ele><time>2026-05-02T10:18:50Z</time></trkpt><trkpt lat="43.172836528252674" lon="12.952909422043081"><ele>568.0</ele><time>2026-05-02T10:18:53Z</time></trkpt><trkpt lat="43.17289160745045" lon="12.952839739658257"><ele>568.0</ele><time>2026-05-02T10:18:55Z</time></trkpt><trkpt lat="43.172972940616745" lon="12.952728148927466"><ele>568.0</ele><time>2026-05-02T10:18:57Z</time></trkpt><trkpt lat="43.17304241439875" lon="12.952664609133913"><ele>568.0</ele><time>2026-05-02T10:18:58Z</time></trkpt><trkpt lat="43.17311150265179" lon="12.952547328887656"><ele>568.0</ele><time>2026-05-02T10:18:59Z</time></trkpt><trkpt lat="43.173166064731994" lon="12.952478731839834"><ele>564.6</ele><time>2026-05-02T10:19:00Z</time></trkpt><trkpt lat="43.173251357065645" lon="12.952433939201265"><ele>561.1999999999999</ele><time>2026-05-02T10:19:01Z</time></trkpt><trkpt lat="43.17332913953169" lon="12.952387006114972"><ele>557.8</ele><time>2026-05-02T10:19:02Z</time></trkpt><trkpt lat="43.1734062052352" lon="12.952299419123168"><ele>554.4</ele><time>2026-05-02T10:19:02.999Z</time></trkpt><trkpt lat="43.17348305485219" lon="12.952174716784889"><ele>551.0</ele><time>2026-05-02T10:19:03.999Z</time></trkpt><trkpt lat="43.17355186629846" lon="12.952061770213751"><ele>551.0</ele><time>2026-05-02T10:19:04.999Z</time></trkpt><trkpt lat="43.17361840532366" lon="12.951952403677339"><ele>551.0</ele><time>2026-05-02T10:19:05.999Z</time></trkpt><trkpt lat="43.1736739992585" lon="12.951842993902762"><ele>551.0</ele><time>2026-05-02T10:19:06.999Z</time></trkpt><trkpt lat="43.17372463747448" lon="12.951731587041502"><ele>551.0</ele><time>2026-05-02T10:19:07.999Z</time></trkpt><trkpt lat="43.17376413100704" lon="12.95161539789063"><ele>551.0</ele><time>2026-05-02T10:19:08.999Z</time></trkpt><trkpt lat="43.17379288168865" lon="12.951516463635615"><ele>553.3333333333333</ele><time>2026-05-02T10:19:09.999Z</time></trkpt><trkpt lat="43.1738136585607" lon="12.951432740331299"><ele>555.6666666666666</ele><time>2026-05-02T10:19:10.999Z</time></trkpt><trkpt lat="43.1738292293491" lon="12.951348217329357"><ele>558.0</ele><time>2026-05-02T10:19:11.999Z</time></trkpt><trkpt lat="43.17384596511752" lon="12.95120802563437"><ele>560.3333333333334</ele><time>2026-05-02T10:19:13.999Z</time></trkpt><trkpt lat="43.173866561992156" lon="12.951115412645908"><ele>562.6666666666667</ele><time>2026-05-02T10:19:16.999Z</time></trkpt><trkpt lat="43.17383406760361" lon="12.951033706034865"><ele>565.0</ele><time>2026-05-02T10:19:19.999Z</time></trkpt><trkpt lat="43.17380187398532" lon="12.950926801346698"><ele>565.0</ele><time>2026-05-02T10:19:23.999Z</time></trkpt><trkpt lat="43.173730593893026" lon="12.950856103390379"><ele>565.0</ele><time>2026-05-02T10:19:25.999Z</time></trkpt><trkpt lat="43.17365108577247" lon="12.95083032317354"><ele>565.0</ele><time>2026-05-02T10:19:28.999Z</time></trkpt><trkpt lat="43.17355882286062" lon="12.950855976149041"><ele>565.0</ele><time>2026-05-02T10:19:30.999Z</time></trkpt><trkpt lat="43.17346282654958" lon="12.950887965010331"><ele>565.0</ele><time>2026-05-02T10:19:32.999Z</time></trkpt><trkpt lat="43.17342255623137" lon="12.950985239797497"><ele>565.0</ele><time>2026-05-02T10:19:34.999Z</time></trkpt><trkpt lat="43.17334069634402" lon="12.951056921452372"><ele>564.9999999999999</ele><time>2026-05-02T10:19:37Z</time></trkpt><trkpt lat="43.17327899190597" lon="12.951103094377926"><ele>565.0</ele><time>2026-05-02T10:19:38Z</time></trkpt><trkpt lat="43.17322184197092" lon="12.951171576308594"><ele>565.0</ele><time>2026-05-02T10:19:40Z</time></trkpt><trkpt lat="43.17318910478872" lon="12.951247980699907"><ele>565.0</ele><time>2026-05-02T10:19:41Z</time></trkpt><trkpt lat="43.17312165275689" lon="12.951310551801754"><ele>565.0</ele><time>2026-05-02T10:19:43Z</time></trkpt><trkpt lat="43.17306056699486" lon="12.95127700868776"><ele>564.9999999999999</ele><time>2026-05-02T10:19:46Z</time></trkpt><trkpt lat="43.172974595750404" lon="12.951318011502233"><ele>565.0</ele><time>2026-05-02T10:19:52Z</time></trkpt><trkpt lat="43.17290876983068" lon="12.951361522670092"><ele>568.8333333333334</ele><time>2026-05-02T10:19:53Z</time></trkpt><trkpt lat="43.17284708345879" lon="12.95140076441766"><ele>572.6666666666667</ele><time>2026-05-02T10:19:54Z</time></trkpt><trkpt lat="43.17278527805276" lon="12.951437501048682"><ele>576.5</ele><time>2026-05-02T10:19:55Z</time></trkpt><trkpt lat="43.17272126079551" lon="12.951475811504714"><ele>580.3333333333334</ele><time>2026-05-02T10:19:56Z</time></trkpt><trkpt lat="43.172593937304015" lon="12.951501972961939"><ele>584.1666666666666</ele><time>2026-05-02T10:19:58Z</time></trkpt><trkpt lat="43.17248146865807" lon="12.951526884748276"><ele>588.0</ele><time>2026-05-02T10:20:00Z</time></trkpt><trkpt lat="43.1723938568356" lon="12.951604447353763"><ele>592.8333333333334</ele><time>2026-05-02T10:20:02Z</time></trkpt><trkpt lat="43.172279877557195" lon="12.951609775740762"><ele>597.6666666666666</ele><time>2026-05-02T10:20:04Z</time></trkpt><trkpt lat="43.17221389957168" lon="12.95159731162546"><ele>602.5</ele><time>2026-05-02T10:20:05Z</time></trkpt><trkpt lat="43.17214455910796" lon="12.951610970949375"><ele>607.3333333333333</ele><time>2026-05-02T10:20:06Z</time></trkpt><trkpt lat="43.172024948305925" lon="12.95162234848055"><ele>612.1666666666666</ele><time>2026-05-02T10:20:08Z</time></trkpt><trkpt lat="43.17195931067989" lon="12.951624628000381"><ele>617.0</ele><time>2026-05-02T10:20:09Z</time></trkpt><trkpt lat="43.17184222753027" lon="12.951660579562365"><ele>617.0</ele><time>2026-05-02T10:20:11Z</time></trkpt><trkpt lat="43.17178084496029" lon="12.951694348103764"><ele>617.0</ele><time>2026-05-02T10:20:12Z</time></trkpt><trkpt lat="43.17171462201327" lon="12.95172269535204"><ele>617.0</ele><time>2026-05-02T10:20:13Z</time></trkpt><trkpt lat="43.17164772395274" lon="12.951748327072075"><ele>617.0</ele><time>2026-05-02T10:20:14Z</time></trkpt><trkpt lat="43.17158566234202" lon="12.951780731430915"><ele>617.0</ele><time>2026-05-02T10:20:15Z</time></trkpt><trkpt lat="43.17147195488386" lon="12.951844860116708"><ele>617.0</ele><time>2026-05-02T10:20:17Z</time></trkpt><trkpt lat="43.17140268388875" lon="12.951883642311804"><ele>622.1666666666666</ele><time>2026-05-02T10:20:18Z</time></trkpt><trkpt lat="43.17134208318353" lon="12.951929981774896"><ele>627.3333333333333</ele><time>2026-05-02T10:20:19Z</time></trkpt><trkpt lat="43.171285557634654" lon="12.95197376361436"><ele>632.5</ele><time>2026-05-02T10:20:21Z</time></trkpt><trkpt lat="43.17121627809863" lon="12.952023743897692"><ele>637.6666666666666</ele><time>2026-05-02T10:20:23Z</time></trkpt><trkpt lat="43.17114857291719" lon="12.951913571858908"><ele>642.8333333333334</ele><time>2026-05-02T10:20:25Z</time></trkpt><trkpt lat="43.171053013314754" lon="12.951828045129508"><ele>648.0</ele><time>2026-05-02T10:20:28Z</time></trkpt><trkpt lat="43.17094769789953" lon="12.951726628196981"><ele>648.0</ele><time>2026-05-02T10:20:30Z</time></trkpt><trkpt lat="43.17089186692526" lon="12.95163646361328"><ele>648.0</ele><time>2026-05-02T10:20:31Z</time></trkpt><trkpt lat="43.170835703829134" lon="12.951574832491707"><ele>648.0</ele><time>2026-05-02T10:20:32Z</time></trkpt><trkpt lat="43.170760036046424" lon="12.951543655034998"><ele>648.0</ele><time>2026-05-02T10:20:34Z</time></trkpt><trkpt lat="43.17062582234444" lon="12.951541855642427"><ele>648.0</ele><time>2026-05-02T10:20:36Z</time></trkpt><trkpt lat="43.170555727271974" lon="12.951529407252739"><ele>648.0</ele><time>2026-05-02T10:20:37Z</time></trkpt><trkpt lat="43.17045582142528" lon="12.951523104065053"><ele>652.8333333333334</ele><time>2026-05-02T10:20:39Z</time></trkpt><trkpt lat="43.170388116804986" lon="12.951534083928191"><ele>657.6666666666666</ele><time>2026-05-02T10:20:40Z</time></trkpt><trkpt lat="43.17030547961317" lon="12.951528016203214"><ele>662.5</ele><time>2026-05-02T10:20:41Z</time></trkpt><trkpt lat="43.17022532083949" lon="12.951503991416555"><ele>667.3333333333333</ele><time>2026-05-02T10:20:42Z</time></trkpt><trkpt lat="43.170160271738986" lon="12.951536656312982"><ele>672.1666666666666</ele><time>2026-05-02T10:20:44Z</time></trkpt><trkpt lat="43.170083397683385" lon="12.951626410508698"><ele>677.0</ele><time>2026-05-02T10:20:46Z</time></trkpt><trkpt lat="43.17001596373539" lon="12.95169516483633"><ele>678.25</ele><time>2026-05-02T10:20:48Z</time></trkpt><trkpt lat="43.16993641123916" lon="12.951786545626886"><ele>679.5</ele><time>2026-05-02T10:20:50Z</time></trkpt><trkpt lat="43.169812557270106" lon="12.951828798646735"><ele>680.75</ele><time>2026-05-02T10:20:52Z</time></trkpt><trkpt lat="43.16972141134772" lon="12.951847600389726"><ele>682.0</ele><time>2026-05-02T10:20:54Z</time></trkpt><trkpt lat="43.16960709438344" lon="12.951759590993763"><ele>685.2</ele><time>2026-05-02T10:20:56Z</time></trkpt><trkpt lat="43.1695706714277" lon="12.95167684218647"><ele>688.4000000000001</ele><time>2026-05-02T10:21:02Z</time></trkpt><trkpt lat="43.169570401567434" lon="12.951505282013848"><ele>691.5999999999999</ele><time>2026-05-02T10:21:05Z</time></trkpt><trkpt lat="43.169578216653406" lon="12.951394010026542"><ele>694.8</ele><time>2026-05-02T10:21:06Z</time></trkpt><trkpt lat="43.16959081227319" lon="12.951305320806487"><ele>698.0</ele><time>2026-05-02T10:21:07Z</time></trkpt><trkpt lat="43.16960042775808" lon="12.951152827340469"><ele>698.0</ele><time>2026-05-02T10:21:09Z</time></trkpt><trkpt lat="43.16955336782862" lon="12.95099821826363"><ele>698.0</ele><time>2026-05-02T10:21:11Z</time></trkpt><trkpt lat="43.16952231725617" lon="12.9508987973075"><ele>698.0</ele><time>2026-05-02T10:21:12Z</time></trkpt><trkpt lat="43.16952479356852" lon="12.95079247016057"><ele>698.0</ele><time>2026-05-02T10:21:13Z</time></trkpt><trkpt lat="43.16947549093151" lon="12.950619430038657"><ele>698.0</ele><time>2026-05-02T10:21:14.999Z</time></trkpt><trkpt lat="43.16943594196835" lon="12.950491868278085"><ele>699.1666666666666</ele><time>2026-05-02T10:21:15.999Z</time></trkpt><trkpt lat="43.169420574057014" lon="12.950365738358787"><ele>700.3333333333333</ele><time>2026-05-02T10:21:16.999Z</time></trkpt><trkpt lat="43.16936266311742" lon="12.950284499249264"><ele>701.5</ele><time>2026-05-02T10:21:17.999Z</time></trkpt><trkpt lat="43.169262433831214" lon="12.950242543362904"><ele>702.6666666666666</ele><time>2026-05-02T10:21:18.999Z</time></trkpt><trkpt lat="43.1691779273538" lon="12.950192110391226"><ele>703.8333333333334</ele><time>2026-05-02T10:21:19.999Z</time></trkpt><trkpt lat="43.16912142463522" lon="12.950140415733381"><ele>705.0</ele><time>2026-05-02T10:21:20.999Z</time></trkpt><trkpt lat="43.168988028309435" lon="12.950119194010165"><ele>705.0</ele><time>2026-05-02T10:21:22.999Z</time></trkpt><trkpt lat="43.16890468864949" lon="12.95005407167464"><ele>705.0</ele><time>2026-05-02T10:21:23.999Z</time></trkpt><trkpt lat="43.16883872687481" lon="12.94996260761962"><ele>705.0</ele><time>2026-05-02T10:21:24.999Z</time></trkpt><trkpt lat="43.16881806415792" lon="12.94985793042603"><ele>705.0</ele><time>2026-05-02T10:21:25.999Z</time></trkpt><trkpt lat="43.16882461750503" lon="12.949737415847094"><ele>705.0</ele><time>2026-05-02T10:21:26.999Z</time></trkpt><trkpt lat="43.16884227103242" lon="12.949622285357778"><ele>705.0</ele><time>2026-05-02T10:21:27.999Z</time></trkpt><trkpt lat="43.168855146160745" lon="12.94949848748109"><ele>700.5</ele><time>2026-05-02T10:21:28.999Z</time></trkpt><trkpt lat="43.16886076938899" lon="12.949405377131994"><ele>696.0</ele><time>2026-05-02T10:21:29.999Z</time></trkpt><trkpt lat="43.16885438264044" lon="12.949294983731264"><ele>691.5</ele><time>2026-05-02T10:21:31.999Z</time></trkpt><trkpt lat="43.16880334650582" lon="12.94923596603721"><ele>687.0</ele><time>2026-05-02T10:21:38.999Z</time></trkpt><trkpt lat="43.16869487932448" lon="12.94923812090765"><ele>682.5</ele><time>2026-05-02T10:21:40.999Z</time></trkpt><trkpt lat="43.16863103153513" lon="12.949253631051004"><ele>678.0</ele><time>2026-05-02T10:21:42.001Z</time></trkpt><trkpt lat="43.1685413570539" lon="12.949248595397382"><ele>678.0</ele><time>2026-05-02T10:21:43.001Z</time></trkpt><trkpt lat="43.16845390998038" lon="12.949241121829168"><ele>678.0</ele><time>2026-05-02T10:21:44.001Z</time></trkpt><trkpt lat="43.16837628213302" lon="12.949253153957214"><ele>678.0</ele><time>2026-05-02T10:21:45.001Z</time></trkpt><trkpt lat="43.168303625051834" lon="12.949291084175565"><ele>678.0</ele><time>2026-05-02T10:21:46.001Z</time></trkpt><trkpt lat="43.16824049226763" lon="12.949333123477832"><ele>678.0</ele><time>2026-05-02T10:21:47.001Z</time></trkpt><trkpt lat="43.16811749517426" lon="12.94930501263229"><ele>678.0</ele><time>2026-05-02T10:21:49.001Z</time></trkpt><trkpt lat="43.16801990195258" lon="12.949291128015458"><ele>678.3333333333334</ele><time>2026-05-02T10:21:50.001Z</time></trkpt><trkpt lat="43.167912791535336" lon="12.949280685094244"><ele>678.6666666666666</ele><time>2026-05-02T10:21:51.001Z</time></trkpt><trkpt lat="43.167820431233594" lon="12.9492639062204"><ele>679.0</ele><time>2026-05-02T10:21:52.001Z</time></trkpt><trkpt lat="43.16772358801218" lon="12.949248640241217"><ele>679.3333333333333</ele><time>2026-05-02T10:21:53.001Z</time></trkpt><trkpt lat="43.1676626588145" lon="12.949215733251117"><ele>679.6666666666666</ele><time>2026-05-02T10:21:54.001Z</time></trkpt><trkpt lat="43.167608860657104" lon="12.949134264444702"><ele>680.0</ele><time>2026-05-02T10:21:55.001Z</time></trkpt><trkpt lat="43.167555079458246" lon="12.949076177773295"><ele>680.0</ele><time>2026-05-02T10:21:56.001Z</time></trkpt><trkpt lat="43.16747350514088" lon="12.949059225339857"><ele>680.0</ele><time>2026-05-02T10:21:57.001Z</time></trkpt><trkpt lat="43.16739197198751" lon="12.949024647704183"><ele>680.0</ele><time>2026-05-02T10:21:58Z</time></trkpt><trkpt lat="43.16732873654614" lon="12.948982429782838"><ele>680.0</ele><time>2026-05-02T10:22:01Z</time></trkpt><trkpt lat="43.16733039378181" lon="12.948893298502812"><ele>680.0</ele><time>2026-05-02T10:22:03Z</time></trkpt><trkpt lat="43.16730965968404" lon="12.948776835362192"><ele>680.0</ele><time>2026-05-02T10:22:06Z</time></trkpt><trkpt lat="43.1672740316485" lon="12.948670558385166"><ele>689.75</ele><time>2026-05-02T10:22:09Z</time></trkpt><trkpt lat="43.16719981921664" lon="12.948511905975918"><ele>699.5</ele><time>2026-05-02T10:22:11Z</time></trkpt><trkpt lat="43.16720374262384" lon="12.948282307894885"><ele>709.25</ele><time>2026-05-02T10:22:12Z</time></trkpt><trkpt lat="43.16722290517482" lon="12.948110014722387"><ele>719.0</ele><time>2026-05-02T10:22:13Z</time></trkpt><trkpt lat="43.16725719287907" lon="12.947955557696002"><ele>719.0</ele><time>2026-05-02T10:22:14Z</time></trkpt><trkpt lat="43.1672555911048" lon="12.947780316021632"><ele>719.0</ele><time>2026-05-02T10:22:15Z</time></trkpt><trkpt lat="43.16724613889141" lon="12.947594476021276"><ele>719.0</ele><time>2026-05-02T10:22:16Z</time></trkpt><trkpt lat="43.16726396294246" lon="12.947442724070717"><ele>719.0</ele><time>2026-05-02T10:22:17Z</time></trkpt><trkpt lat="43.16731960416551" lon="12.947307367893128"><ele>702.0</ele><time>2026-05-02T10:22:18Z</time></trkpt><trkpt lat="43.16742303698043" lon="12.94716426637712"><ele>685.0</ele><time>2026-05-02T10:22:19Z</time></trkpt><trkpt lat="43.16754515655996" lon="12.947066476899973"><ele>668.0</ele><time>2026-05-02T10:22:20Z</time></trkpt><trkpt lat="43.16769305916883" lon="12.946947864881308"><ele>668.0</ele><time>2026-05-02T10:22:21Z</time></trkpt><trkpt lat="43.16783818076951" lon="12.94685890489787"><ele>668.0</ele><time>2026-05-02T10:22:22Z</time></trkpt><trkpt lat="43.16795067411338" lon="12.946792159874054"><ele>668.0</ele><time>2026-05-02T10:22:23Z</time></trkpt><trkpt lat="43.1680190145782" lon="12.94675010605548"><ele>668.0</ele><time>2026-05-02T10:22:24Z</time></trkpt><trkpt lat="43.1680795910361" lon="12.946690288373391"><ele>668.0</ele><time>2026-05-02T10:22:24.999Z</time></trkpt><trkpt lat="43.16812474713383" lon="12.946555010682713"><ele>666.4</ele><time>2026-05-02T10:22:25.999Z</time></trkpt><trkpt lat="43.16818102398856" lon="12.946457541467533"><ele>664.8</ele><time>2026-05-02T10:22:26.999Z</time></trkpt><trkpt lat="43.168241310228396" lon="12.946372093676786"><ele>663.2</ele><time>2026-05-02T10:22:27.999Z</time></trkpt><trkpt lat="43.16829650706486" lon="12.946273278156118"><ele>661.6</ele><time>2026-05-02T10:22:28.999Z</time></trkpt><trkpt lat="43.16835414523952" lon="12.94616619094819"><ele>660.0</ele><time>2026-05-02T10:22:29.999Z</time></trkpt><trkpt lat="43.168392234504296" lon="12.946036498649505"><ele>660.0</ele><time>2026-05-02T10:22:30.999Z</time></trkpt><trkpt lat="43.16847673430703" lon="12.945967919367025"><ele>660.0</ele><time>2026-05-02T10:22:31.999Z</time></trkpt><trkpt lat="43.168596897486594" lon="12.945866545970203"><ele>660.0</ele><time>2026-05-02T10:22:32.999Z</time></trkpt><trkpt lat="43.168667024851665" lon="12.945792586465414"><ele>660.0</ele><time>2026-05-02T10:22:33.999Z</time></trkpt><trkpt lat="43.16876179488031" lon="12.945663939015693"><ele>657.75</ele><time>2026-05-02T10:22:34.999Z</time></trkpt><trkpt lat="43.16887040655689" lon="12.945558354838663"><ele>655.5</ele><time>2026-05-02T10:22:35.999Z</time></trkpt><trkpt lat="43.16898093281315" lon="12.945445328945523"><ele>653.25</ele><time>2026-05-02T10:22:36.999Z</time></trkpt><trkpt lat="43.16908296217737" lon="12.945344467389193"><ele>651.0</ele><time>2026-05-02T10:22:37.999Z</time></trkpt><trkpt lat="43.16918755007058" lon="12.94524690671504"><ele>651.0</ele><time>2026-05-02T10:22:38.999Z</time></trkpt><trkpt lat="43.1692515697872" lon="12.945184639315157"><ele>651.0</ele><time>2026-05-02T10:22:39.999Z</time></trkpt><trkpt lat="43.16932734726458" lon="12.945164488491836"><ele>651.0</ele><time>2026-05-02T10:22:44.999Z</time></trkpt><trkpt lat="43.16939458103505" lon="12.945192497513233"><ele>651.0</ele><time>2026-05-02T10:22:46.999Z</time></trkpt><trkpt lat="43.16950171143455" lon="12.945150187995301"><ele>651.0</ele><time>2026-05-02T10:22:48.999Z</time></trkpt><trkpt lat="43.16957380067595" lon="12.945118630486833"><ele>651.0</ele><time>2026-05-02T10:22:49.999Z</time></trkpt><trkpt lat="43.16964748120478" lon="12.945130781110642"><ele>651.0</ele><time>2026-05-02T10:22:50.999Z</time></trkpt><trkpt lat="43.16972988019765" lon="12.945165723621768"><ele>651.0</ele><time>2026-05-02T10:22:51.999Z</time></trkpt><trkpt lat="43.169812519752575" lon="12.945202120015168"><ele>651.0</ele><time>2026-05-02T10:22:52.999Z</time></trkpt><trkpt lat="43.16990362301587" lon="12.945239115018614"><ele>651.0</ele><time>2026-05-02T10:22:53.999Z</time></trkpt><trkpt lat="43.16997243215185" lon="12.945263858424287"><ele>651.0</ele><time>2026-05-02T10:22:54.999Z</time></trkpt><trkpt lat="43.17004400203894" lon="12.94528824704724"><ele>651.0</ele><time>2026-05-02T10:22:55.999Z</time></trkpt><trkpt lat="43.17012249255991" lon="12.9453131723771"><ele>647.5714285714286</ele><time>2026-05-02T10:22:56.999Z</time></trkpt><trkpt lat="43.17021702018945" lon="12.945337622647596"><ele>644.1428571428571</ele><time>2026-05-02T10:22:57.999Z</time></trkpt><trkpt lat="43.17028237121614" lon="12.945359717457071"><ele>640.7142857142858</ele><time>2026-05-02T10:22:58.999Z</time></trkpt><trkpt lat="43.17035248707952" lon="12.945365050962666"><ele>637.2857142857142</ele><time>2026-05-02T10:22:59.999Z</time></trkpt><trkpt lat="43.170415001502" lon="12.945348341475688"><ele>633.8571428571429</ele><time>2026-05-02T10:23:00.999Z</time></trkpt><trkpt lat="43.17047483604407" lon="12.945310591141038"><ele>630.4285714285714</ele><time>2026-05-02T10:23:01.999Z</time></trkpt><trkpt lat="43.170538030300456" lon="12.945274822163782"><ele>627.0</ele><time>2026-05-02T10:23:02.999Z</time></trkpt><trkpt lat="43.170594543362995" lon="12.945215044437534"><ele>627.0</ele><time>2026-05-02T10:23:03.999Z</time></trkpt><trkpt lat="43.17065733291136" lon="12.945141317826105"><ele>627.0</ele><time>2026-05-02T10:23:04.999Z</time></trkpt><trkpt lat="43.17072109031336" lon="12.945100500116187"><ele>627.0</ele><time>2026-05-02T10:23:05.999Z</time></trkpt><trkpt lat="43.1708452157842" lon="12.945095933875985"><ele>627.0</ele><time>2026-05-02T10:23:07.999Z</time></trkpt><trkpt lat="43.170955048506016" lon="12.945130590798946"><ele>627.0</ele><time>2026-05-02T10:23:08.999Z</time></trkpt><trkpt lat="43.17107467387106" lon="12.945136786612727"><ele>623.0</ele><time>2026-05-02T10:23:09.999Z</time></trkpt><trkpt lat="43.171192413441425" lon="12.945137736829766"><ele>619.0</ele><time>2026-05-02T10:23:10.999Z</time></trkpt><trkpt lat="43.17127864379397" lon="12.945124307985932"><ele>615.0</ele><time>2026-05-02T10:23:11.999Z</time></trkpt><trkpt lat="43.171368152456324" lon="12.945089522941306"><ele>611.0</ele><time>2026-05-02T10:23:12.999Z</time></trkpt><trkpt lat="43.17144466461125" lon="12.945080832112069"><ele>607.0</ele><time>2026-05-02T10:23:13.999Z</time></trkpt><trkpt lat="43.17157134241708" lon="12.945113930902002"><ele>601.4</ele><time>2026-05-02T10:23:14.999Z</time></trkpt><trkpt lat="43.17170634942483" lon="12.945137224446235"><ele>595.8000000000001</ele><time>2026-05-02T10:23:15.999Z</time></trkpt><trkpt lat="43.17181044924094" lon="12.945149011280298"><ele>590.2</ele><time>2026-05-02T10:23:16.999Z</time></trkpt><trkpt lat="43.171910411859095" lon="12.945150198644601"><ele>584.6</ele><time>2026-05-02T10:23:17.999Z</time></trkpt><trkpt lat="43.171992629403476" lon="12.945139280470867"><ele>579.0</ele><time>2026-05-02T10:23:18.999Z</time></trkpt><trkpt lat="43.17206639704747" lon="12.945085103773224"><ele>582.1666666666666</ele><time>2026-05-02T10:23:20.999Z</time></trkpt><trkpt lat="43.17212189543524" lon="12.945031085447603"><ele>585.3333333333334</ele><time>2026-05-02T10:23:23.998Z</time></trkpt><trkpt lat="43.1721886059516" lon="12.94498920886201"><ele>588.5</ele><time>2026-05-02T10:23:28.998Z</time></trkpt><trkpt lat="43.17224531779801" lon="12.944951051979645"><ele>591.6666666666667</ele><time>2026-05-02T10:23:30.998Z</time></trkpt><trkpt lat="43.17229697705085" lon="12.944880880875058"><ele>594.8333333333334</ele><time>2026-05-02T10:23:32.998Z</time></trkpt><trkpt lat="43.17238707713211" lon="12.944766015928048"><ele>598.0</ele><time>2026-05-02T10:23:34.998Z</time></trkpt><trkpt lat="43.17245125282434" lon="12.94472573784878"><ele>598.0</ele><time>2026-05-02T10:23:35.998Z</time></trkpt><trkpt lat="43.17252771127591" lon="12.944701335175951"><ele>598.0</ele><time>2026-05-02T10:23:36.998Z</time></trkpt><trkpt lat="43.172590118192346" lon="12.944678648543583"><ele>598.0</ele><time>2026-05-02T10:23:37.998Z</time></trkpt><trkpt lat="43.17265731998078" lon="12.944620283430549"><ele>598.0</ele><time>2026-05-02T10:23:38.998Z</time></trkpt><trkpt lat="43.17275486747244" lon="12.94455053734565"><ele>598.0</ele><time>2026-05-02T10:23:39.998Z</time></trkpt><trkpt lat="43.172847159788766" lon="12.944511343672902"><ele>598.0</ele><time>2026-05-02T10:23:40.998Z</time></trkpt><trkpt lat="43.172906131717774" lon="12.944465933587152"><ele>598.0</ele><time>2026-05-02T10:23:41.998Z</time></trkpt><trkpt lat="43.172965161729216" lon="12.944416021280256"><ele>598.0</ele><time>2026-05-02T10:23:42.998Z</time></trkpt><trkpt lat="43.17299342543069" lon="12.94431341037845"><ele>598.0</ele><time>2026-05-02T10:23:45.998Z</time></trkpt><trkpt lat="43.17302729285651" lon="12.944183202949501"><ele>598.0</ele><time>2026-05-02T10:23:48Z</time></trkpt><trkpt lat="43.17306711899377" lon="12.944048073931809"><ele>598.0</ele><time>2026-05-02T10:23:50Z</time></trkpt><trkpt lat="43.17307507445114" lon="12.943896693483016"><ele>595.6666666666667</ele><time>2026-05-02T10:23:52Z</time></trkpt><trkpt lat="43.17305056902892" lon="12.943749847001008"><ele>593.3333333333334</ele><time>2026-05-02T10:23:54Z</time></trkpt><trkpt lat="43.17304414572105" lon="12.943661808414786"><ele>591.0</ele><time>2026-05-02T10:23:55Z</time></trkpt><trkpt lat="43.173057639036124" lon="12.943523998351507"><ele>588.6666666666666</ele><time>2026-05-02T10:23:57Z</time></trkpt><trkpt lat="43.17307856769558" lon="12.943422712539872"><ele>586.3333333333333</ele><time>2026-05-02T10:23:59Z</time></trkpt><trkpt lat="43.17303467242948" lon="12.943309628366553"><ele>584.0</ele><time>2026-05-02T10:24:01Z</time></trkpt><trkpt lat="43.173015146528066" lon="12.943163871404439"><ele>579.6</ele><time>2026-05-02T10:24:03Z</time></trkpt><trkpt lat="43.172981990017384" lon="12.943026231805728"><ele>575.2</ele><time>2026-05-02T10:24:05Z</time></trkpt><trkpt lat="43.17296832588155" lon="12.942907521462901"><ele>570.8000000000001</ele><time>2026-05-02T10:24:07Z</time></trkpt><trkpt lat="43.17296108209733" lon="12.942815082061369"><ele>566.4</ele><time>2026-05-02T10:24:07.999Z</time></trkpt><trkpt lat="43.17296497802132" lon="12.942664015963876"><ele>562.0</ele><time>2026-05-02T10:24:09.999Z</time></trkpt><trkpt lat="43.17296957178154" lon="12.942554854948078"><ele>560.8333333333334</ele><time>2026-05-02T10:24:11.999Z</time></trkpt><trkpt lat="43.17296588046" lon="12.942446772652293"><ele>559.6666666666667</ele><time>2026-05-02T10:24:13.999Z</time></trkpt><trkpt lat="43.17292640091452" lon="12.942370719677923"><ele>558.5</ele><time>2026-05-02T10:24:17.999Z</time></trkpt><trkpt lat="43.17281886144305" lon="12.942397573493766"><ele>557.3333333333334</ele><time>2026-05-02T10:24:19.999Z</time></trkpt><trkpt lat="43.172702627314365" lon="12.942437707122993"><ele>556.1666666666666</ele><time>2026-05-02T10:24:21.999Z</time></trkpt><trkpt lat="43.17263977072328" lon="12.942487066721123"><ele>555.0</ele><time>2026-05-02T10:24:22.999Z</time></trkpt><trkpt lat="43.172568918605656" lon="12.94254369428044"><ele>556.75</ele><time>2026-05-02T10:24:23.999Z</time></trkpt><trkpt lat="43.17248998016616" lon="12.942599256305842"><ele>558.5</ele><time>2026-05-02T10:24:24.999Z</time></trkpt><trkpt lat="43.17238471871796" lon="12.942675247585996"><ele>560.25</ele><time>2026-05-02T10:24:25.999Z</time></trkpt><trkpt lat="43.172264966037645" lon="12.942768146976906"><ele>562.0</ele><time>2026-05-02T10:24:26.999Z</time></trkpt><trkpt lat="43.1721356638905" lon="12.94287728131826"><ele>562.6</ele><time>2026-05-02T10:24:27.999Z</time></trkpt><trkpt lat="43.17202151057419" lon="12.942971124652855"><ele>563.2</ele><time>2026-05-02T10:24:28.999Z</time></trkpt><trkpt lat="43.17193641953231" lon="12.943040016802405"><ele>563.8</ele><time>2026-05-02T10:24:29.999Z</time></trkpt><trkpt lat="43.17186114844414" lon="12.943076465821568"><ele>564.4</ele><time>2026-05-02T10:24:30.999Z</time></trkpt><trkpt lat="43.171779039076235" lon="12.943089723106603"><ele>565.0</ele><time>2026-05-02T10:24:31.999Z</time></trkpt><trkpt lat="43.17170431753753" lon="12.943071968573584"><ele>565.0</ele><time>2026-05-02T10:24:32.999Z</time></trkpt><trkpt lat="43.17163345606192" lon="12.943018512424576"><ele>565.0</ele><time>2026-05-02T10:24:33.999Z</time></trkpt><trkpt lat="43.171579826318435" lon="12.942928154437926"><ele>565.0</ele><time>2026-05-02T10:24:34.999Z</time></trkpt><trkpt lat="43.17154242069143" lon="12.942820244850047"><ele>565.0</ele><time>2026-05-02T10:24:35.999Z</time></trkpt><trkpt lat="43.17151093540676" lon="12.942707891622195"><ele>565.0</ele><time>2026-05-02T10:24:36.999Z</time></trkpt><trkpt lat="43.17146262921492" lon="12.942593334053374"><ele>565.0</ele><time>2026-05-02T10:24:37.999Z</time></trkpt><trkpt lat="43.171402820535576" lon="12.9424663880527"><ele>571.25</ele><time>2026-05-02T10:24:38.999Z</time></trkpt><trkpt lat="43.17134775529388" lon="12.942338659615128"><ele>577.5</ele><time>2026-05-02T10:24:39.999Z</time></trkpt><trkpt lat="43.171287287898295" lon="12.94218286949169"><ele>583.75</ele><time>2026-05-02T10:24:40.999Z</time></trkpt><trkpt lat="43.17123041751278" lon="12.941998442874555"><ele>590.0</ele><time>2026-05-02T10:24:41.999Z</time></trkpt><trkpt lat="43.17118461929036" lon="12.941831067616489"><ele>589.25</ele><time>2026-05-02T10:24:42.999Z</time></trkpt><trkpt lat="43.171144525883356" lon="12.941670218392359"><ele>588.5</ele><time>2026-05-02T10:24:43.999Z</time></trkpt><trkpt lat="43.17111123723098" lon="12.941505858604463"><ele>587.75</ele><time>2026-05-02T10:24:44.999Z</time></trkpt><trkpt lat="43.171072207758755" lon="12.941329788544365"><ele>587.0</ele><time>2026-05-02T10:24:45.999Z</time></trkpt><trkpt lat="43.171022495422584" lon="12.9411359527039"><ele>587.0</ele><time>2026-05-02T10:24:46.999Z</time></trkpt><trkpt lat="43.17097231957774" lon="12.940945148693709"><ele>587.0</ele><time>2026-05-02T10:24:47.999Z</time></trkpt><trkpt lat="43.17094016611222" lon="12.940794017477884"><ele>587.0</ele><time>2026-05-02T10:24:48.999Z</time></trkpt><trkpt lat="43.17092857802758" lon="12.940702974988477"><ele>587.0</ele><time>2026-05-02T10:24:49.999Z</time></trkpt><trkpt lat="43.17092180696948" lon="12.94059893539827"><ele>587.0</ele><time>2026-05-02T10:24:52.999Z</time></trkpt><trkpt lat="43.17097418731065" lon="12.940496849921745"><ele>586.6</ele><time>2026-05-02T10:24:57.999Z</time></trkpt><trkpt lat="43.17104025823378" lon="12.940397957368113"><ele>586.2</ele><time>2026-05-02T10:24:59.999Z</time></trkpt><trkpt lat="43.171081916318414" lon="12.940308415254474"><ele>585.8</ele><time>2026-05-02T10:25:01.999Z</time></trkpt><trkpt lat="43.17107314482962" lon="12.940216962059967"><ele>585.4</ele><time>2026-05-02T10:25:02.999Z</time></trkpt><trkpt lat="43.17100395003575" lon="12.940054258930683"><ele>585.0</ele><time>2026-05-02T10:25:04.999Z</time></trkpt><trkpt lat="43.17093833723313" lon="12.939956300511463"><ele>587.2</ele><time>2026-05-02T10:25:05.999Z</time></trkpt><trkpt lat="43.1708702400361" lon="12.939849675693342"><ele>589.4</ele><time>2026-05-02T10:25:06.999Z</time></trkpt><trkpt lat="43.1708457206316" lon="12.93971437344401"><ele>591.6</ele><time>2026-05-02T10:25:07.999Z</time></trkpt><trkpt lat="43.170810097237684" lon="12.93959541920733"><ele>593.8</ele><time>2026-05-02T10:25:08.999Z</time></trkpt><trkpt lat="43.17076996560347" lon="12.93943751109237"><ele>596.0</ele><time>2026-05-02T10:25:09.999Z</time></trkpt><trkpt lat="43.17072130033679" lon="12.939294891080861"><ele>601.6</ele><time>2026-05-02T10:25:10.999Z</time></trkpt><trkpt lat="43.17067397940059" lon="12.93916131247638"><ele>607.2</ele><time>2026-05-02T10:25:11.999Z</time></trkpt><trkpt lat="43.17063298253262" lon="12.939039136515355"><ele>612.8</ele><time>2026-05-02T10:25:12.999Z</time></trkpt><trkpt lat="43.170586408280826" lon="12.938899395684778"><ele>618.4</ele><time>2026-05-02T10:25:13.999Z</time></trkpt><trkpt lat="43.170561217242046" lon="12.938783678339625"><ele>624.0</ele><time>2026-05-02T10:25:14.999Z</time></trkpt><trkpt lat="43.17057443143421" lon="12.938688652178834"><ele>624.0</ele><time>2026-05-02T10:25:15.999Z</time></trkpt><trkpt lat="43.17063259013416" lon="12.938636133294796"><ele>624.0</ele><time>2026-05-02T10:25:17.999Z</time></trkpt><trkpt lat="43.17056313693642" lon="12.938591426936965"><ele>624.0</ele><time>2026-05-02T10:25:22.999Z</time></trkpt><trkpt lat="43.17045021774612" lon="12.938540003721156"><ele>624.0</ele><time>2026-05-02T10:25:24.999Z</time></trkpt><trkpt lat="43.17032658958764" lon="12.938491622338477"><ele>624.0</ele><time>2026-05-02T10:25:26.999Z</time></trkpt><trkpt lat="43.170188529493544" lon="12.938427272031424"><ele>624.0</ele><time>2026-05-02T10:25:28.999Z</time></trkpt><trkpt lat="43.17010046557478" lon="12.938390819855782"><ele>624.0</ele><time>2026-05-02T10:25:29.999Z</time></trkpt><trkpt lat="43.17001698676405" lon="12.938360413567906"><ele>624.0</ele><time>2026-05-02T10:25:30.999Z</time></trkpt><trkpt lat="43.16992633355025" lon="12.938314827338774"><ele>624.0</ele><time>2026-05-02T10:25:31.999Z</time></trkpt><trkpt lat="43.16983378751237" lon="12.938289908298602"><ele>624.0</ele><time>2026-05-02T10:25:32.999Z</time></trkpt><trkpt lat="43.169754576755466" lon="12.938262377455938"><ele>633.8</ele><time>2026-05-02T10:25:33.998Z</time></trkpt><trkpt lat="43.169681261363046" lon="12.938234455600872"><ele>643.5999999999999</ele><time>2026-05-02T10:25:34.998Z</time></trkpt><trkpt lat="43.169544960437655" lon="12.938198457549902"><ele>653.4</ele><time>2026-05-02T10:25:36.998Z</time></trkpt><trkpt lat="43.16946372092006" lon="12.938166147885399"><ele>663.1999999999999</ele><time>2026-05-02T10:25:37.998Z</time></trkpt><trkpt lat="43.169364625235914" lon="12.938133588870771"><ele>673.0</ele><time>2026-05-02T10:25:38.998Z</time></trkpt><trkpt lat="43.169262832850045" lon="12.938109536385886"><ele>673.0</ele><time>2026-05-02T10:25:39.998Z</time></trkpt><trkpt lat="43.16918035305788" lon="12.938081724104062"><ele>673.0</ele><time>2026-05-02T10:25:40.998Z</time></trkpt><trkpt lat="43.16911105022225" lon="12.938047395138046"><ele>673.0</ele><time>2026-05-02T10:25:41.998Z</time></trkpt><trkpt lat="43.169044032943496" lon="12.938016854317306"><ele>673.0</ele><time>2026-05-02T10:25:42.998Z</time></trkpt><trkpt lat="43.16893559670554" lon="12.937955304545879"><ele>673.0</ele><time>2026-05-02T10:25:44.998Z</time></trkpt><trkpt lat="43.16887530562136" lon="12.937915857489058"><ele>673.0</ele><time>2026-05-02T10:25:45.998Z</time></trkpt><trkpt lat="43.16878861335419" lon="12.9378698089044"><ele>675.6666666666667</ele><time>2026-05-02T10:25:46.998Z</time></trkpt><trkpt lat="43.16870660016365" lon="12.937853281335569"><ele>678.3333333333334</ele><time>2026-05-02T10:25:47.998Z</time></trkpt><trkpt lat="43.16863461209761" lon="12.937834486434035"><ele>681.0</ele><time>2026-05-02T10:25:48.998Z</time></trkpt><trkpt lat="43.168563830819444" lon="12.937812716373745"><ele>683.6666666666666</ele><time>2026-05-02T10:25:49.998Z</time></trkpt><trkpt lat="43.16848331090144" lon="12.937769881114901"><ele>686.3333333333333</ele><time>2026-05-02T10:25:50.998Z</time></trkpt><trkpt lat="43.1683936239723" lon="12.937714722212956"><ele>689.0</ele><time>2026-05-02T10:25:51.998Z</time></trkpt><trkpt lat="43.168305430812126" lon="12.937657717886227"><ele>689.0</ele><time>2026-05-02T10:25:52.998Z</time></trkpt><trkpt lat="43.16820297950261" lon="12.937627655977876"><ele>689.0</ele><time>2026-05-02T10:25:54Z</time></trkpt><trkpt lat="43.1680829109401" lon="12.937595040400069"><ele>689.0</ele><time>2026-05-02T10:25:55Z</time></trkpt><trkpt lat="43.1679761975727" lon="12.937554942866536"><ele>689.0</ele><time>2026-05-02T10:25:56Z</time></trkpt><trkpt lat="43.16788957360791" lon="12.937529781981144"><ele>689.0</ele><time>2026-05-02T10:25:57Z</time></trkpt><trkpt lat="43.16779510420345" lon="12.937508082060612"><ele>699.2</ele><time>2026-05-02T10:25:58Z</time></trkpt><trkpt lat="43.167693021577534" lon="12.937476820786596"><ele>709.4000000000001</ele><time>2026-05-02T10:25:59Z</time></trkpt><trkpt lat="43.167600170768104" lon="12.937451707103039"><ele>719.6</ele><time>2026-05-02T10:26:00Z</time></trkpt><trkpt lat="43.16751274941561" lon="12.937418089709713"><ele>729.8</ele><time>2026-05-02T10:26:01Z</time></trkpt><trkpt lat="43.16741868149103" lon="12.937379999309515"><ele>740.0</ele><time>2026-05-02T10:26:02Z</time></trkpt><trkpt lat="43.1673271732765" lon="12.937356268677147"><ele>744.2</ele><time>2026-05-02T10:26:03Z</time></trkpt><trkpt lat="43.167231101481796" lon="12.937325608961862"><ele>748.4</ele><time>2026-05-02T10:26:04Z</time></trkpt><trkpt lat="43.16713393997443" lon="12.937297997975028"><ele>752.5999999999999</ele><time>2026-05-02T10:26:05Z</time></trkpt><trkpt lat="43.16705169745416" lon="12.937270456513431"><ele>756.8</ele><time>2026-05-02T10:26:06Z</time></trkpt><trkpt lat="43.16695853947511" lon="12.937263993558092"><ele>761.0</ele><time>2026-05-02T10:26:07Z</time></trkpt><trkpt lat="43.1668345198854" lon="12.93726156904596"><ele>761.0</ele><time>2026-05-02T10:26:08Z</time></trkpt><trkpt lat="43.166720349722006" lon="12.937245429701019"><ele>761.0</ele><time>2026-05-02T10:26:09Z</time></trkpt><trkpt lat="43.16661814405082" lon="12.937210618280403"><ele>761.0</ele><time>2026-05-02T10:26:10Z</time></trkpt><trkpt lat="43.166527479485914" lon="12.937184397704137"><ele>761.0</ele><time>2026-05-02T10:26:11Z</time></trkpt><trkpt lat="43.166418834679355" lon="12.93721741446979"><ele>761.0</ele><time>2026-05-02T10:26:13Z</time></trkpt><trkpt lat="43.166306106781775" lon="12.937248489479638"><ele>765.0</ele><time>2026-05-02T10:26:15Z</time></trkpt><trkpt lat="43.16623460239881" lon="12.93724797027695"><ele>769.0</ele><time>2026-05-02T10:26:16Z</time></trkpt><trkpt lat="43.166144806881384" lon="12.937244624545112"><ele>773.0</ele><time>2026-05-02T10:26:17Z</time></trkpt><trkpt lat="43.16606732403954" lon="12.937222742374885"><ele>777.0</ele><time>2026-05-02T10:26:18Z</time></trkpt><trkpt lat="43.16598042825814" lon="12.93721912976287"><ele>781.0000000000001</ele><time>2026-05-02T10:26:19Z</time></trkpt><trkpt lat="43.16590815421278" lon="12.937215392856828"><ele>785.0</ele><time>2026-05-02T10:26:19.999Z</time></trkpt><trkpt lat="43.16580449914873" lon="12.937248391499796"><ele>785.0</ele><time>2026-05-02T10:26:20.999Z</time></trkpt><trkpt lat="43.16569621207432" lon="12.937272891915438"><ele>785.0</ele><time>2026-05-02T10:26:21.999Z</time></trkpt><trkpt lat="43.165597780364074" lon="12.937292265936119"><ele>785.0</ele><time>2026-05-02T10:26:22.999Z</time></trkpt><trkpt lat="43.16550536922471" lon="12.937305324643274"><ele>785.0</ele><time>2026-05-02T10:26:23.999Z</time></trkpt><trkpt lat="43.165418071111894" lon="12.937325169560628"><ele>785.0</ele><time>2026-05-02T10:26:24.999Z</time></trkpt><trkpt lat="43.16535232296433" lon="12.93735228395418"><ele>789.1428571428572</ele><time>2026-05-02T10:26:25.999Z</time></trkpt><trkpt lat="43.16528008754432" lon="12.937364766201657"><ele>793.2857142857142</ele><time>2026-05-02T10:26:26.999Z</time></trkpt><trkpt lat="43.16520759829861" lon="12.93739835264217"><ele>797.4285714285714</ele><time>2026-05-02T10:26:27.999Z</time></trkpt><trkpt lat="43.16514542660648" lon="12.937413723901962"><ele>801.5714285714287</ele><time>2026-05-02T10:26:29.999Z</time></trkpt><trkpt lat="43.165077732399666" lon="12.937430693637575"><ele>805.7142857142858</ele><time>2026-05-02T10:26:44.999Z</time></trkpt><trkpt lat="43.164986962920786" lon="12.937427321890148"><ele>809.8571428571429</ele><time>2026-05-02T10:26:47.999Z</time></trkpt><trkpt lat="43.164913313117886" lon="12.937411302771231"><ele>814.0</ele><time>2026-05-02T10:26:48.999Z</time></trkpt><trkpt lat="43.16480586551776" lon="12.937410830442246"><ele>816.3333333333333</ele><time>2026-05-02T10:26:50.999Z</time></trkpt><trkpt lat="43.16470281295132" lon="12.93742095703511"><ele>818.6666666666666</ele><time>2026-05-02T10:26:52.999Z</time></trkpt><trkpt lat="43.16463621928263" lon="12.937437479412187"><ele>821.0</ele><time>2026-05-02T10:26:53.999Z</time></trkpt><trkpt lat="43.16453584143575" lon="12.937473409888277"><ele>823.3333333333333</ele><time>2026-05-02T10:26:55.999Z</time></trkpt><trkpt lat="43.164469874129885" lon="12.937539719015193"><ele>825.6666666666666</ele><time>2026-05-02T10:26:59.999Z</time></trkpt><trkpt lat="43.164388424899315" lon="12.93759919493483"><ele>828.0</ele><time>2026-05-02T10:27:30.999Z</time></trkpt><trkpt lat="43.16431689746982" lon="12.93770115149587"><ele>828.0</ele><time>2026-05-02T10:27:32.999Z</time></trkpt><trkpt lat="43.16425056260774" lon="12.937773723773391"><ele>828.0</ele><time>2026-05-02T10:27:33.999Z</time></trkpt><trkpt lat="43.164193393183126" lon="12.93782727659208"><ele>828.0</ele><time>2026-05-02T10:27:34.999Z</time></trkpt><trkpt lat="43.16413565379453" lon="12.937917534299855"><ele>828.0</ele><time>2026-05-02T10:27:35.999Z</time></trkpt><trkpt lat="43.16408621380413" lon="12.937983117611646"><ele>828.0</ele><time>2026-05-02T10:27:36.999Z</time></trkpt><trkpt lat="43.16403417330457" lon="12.938045148597116"><ele>828.0</ele><time>2026-05-02T10:27:37.999Z</time></trkpt><trkpt lat="43.163975163340396" lon="12.938107402854218"><ele>836.2</ele><time>2026-05-02T10:27:38.999Z</time></trkpt><trkpt lat="43.16390955510167" lon="12.938157822148526"><ele>844.4</ele><time>2026-05-02T10:27:40.999Z</time></trkpt><trkpt lat="43.163828627854016" lon="12.938227329488416"><ele>852.6000000000001</ele><time>2026-05-02T10:27:42.999Z</time></trkpt><trkpt lat="43.16375183326199" lon="12.938286910722761"><ele>860.8000000000001</ele><time>2026-05-02T10:27:43.999Z</time></trkpt><trkpt lat="43.16364178673563" lon="12.93834352471037"><ele>869.0</ele><time>2026-05-02T10:27:44.998Z</time></trkpt><trkpt lat="43.16354311926439" lon="12.938392489083892"><ele>869.0000000000001</ele><time>2026-05-02T10:27:45.998Z</time></trkpt><trkpt lat="43.1634893631273" lon="12.938495352888896"><ele>869.0</ele><time>2026-05-02T10:27:47.998Z</time></trkpt><trkpt lat="43.163539985743846" lon="12.938566379441175"><ele>869.0</ele><time>2026-05-02T10:27:48.998Z</time></trkpt><trkpt lat="43.163586881408754" lon="12.938636180653258"><ele>869.0</ele><time>2026-05-02T10:27:49.998Z</time></trkpt><trkpt lat="43.16362787355981" lon="12.938741613512642"><ele>869.0000000000001</ele><time>2026-05-02T10:27:50.998Z</time></trkpt><trkpt lat="43.163653290823305" lon="12.93886258134812"><ele>869.0</ele><time>2026-05-02T10:27:51.998Z</time></trkpt><trkpt lat="43.16368646365751" lon="12.938958306809456"><ele>869.0</ele><time>2026-05-02T10:27:52.998Z</time></trkpt><trkpt lat="43.16369401666857" lon="12.939080520345993"><ele>869.0000000000001</ele><time>2026-05-02T10:27:53.998Z</time></trkpt><trkpt lat="43.16367647044119" lon="12.93920382020736"><ele>869.0000000000001</ele><time>2026-05-02T10:27:54.998Z</time></trkpt><trkpt lat="43.163645395540506" lon="12.939330579075271"><ele>869.0</ele><time>2026-05-02T10:27:55.998Z</time></trkpt><trkpt lat="43.16361003019668" lon="12.9394551737033"><ele>869.0</ele><time>2026-05-02T10:27:56.998Z</time></trkpt><trkpt lat="43.163574194380615" lon="12.939588791672355"><ele>868.6</ele><time>2026-05-02T10:27:57.998Z</time></trkpt><trkpt lat="43.16354418675364" lon="12.939723209686198"><ele>868.2</ele><time>2026-05-02T10:27:58.998Z</time></trkpt><trkpt lat="43.163507502335996" lon="12.939829512622357"><ele>867.8000000000001</ele><time>2026-05-02T10:28:00Z</time></trkpt><trkpt lat="43.163440425142866" lon="12.939943252194041"><ele>867.4000000000001</ele><time>2026-05-02T10:28:01Z</time></trkpt><trkpt lat="43.16335792353121" lon="12.94005194972228"><ele>867.0</ele><time>2026-05-02T10:28:02Z</time></trkpt><trkpt lat="43.16326778802945" lon="12.940176998937488"><ele>866.2</ele><time>2026-05-02T10:28:03Z</time></trkpt><trkpt lat="43.163213824631185" lon="12.940280745725897"><ele>865.4000000000001</ele><time>2026-05-02T10:28:04Z</time></trkpt><trkpt lat="43.16310935714478" lon="12.940258205833135"><ele>864.5999999999999</ele><time>2026-05-02T10:28:06Z</time></trkpt><trkpt lat="43.16308100074408" lon="12.940167562921998"><ele>863.8</ele><time>2026-05-02T10:28:07Z</time></trkpt><trkpt lat="43.163097905284374" lon="12.940042679800277"><ele>863.0</ele><time>2026-05-02T10:28:08Z</time></trkpt><trkpt lat="43.163137778538484" lon="12.939864449434937"><ele>870.4</ele><time>2026-05-02T10:28:09Z</time></trkpt><trkpt lat="43.16316825716485" lon="12.939710769071025"><ele>877.8</ele><time>2026-05-02T10:28:10Z</time></trkpt><trkpt lat="43.16313050577816" lon="12.939599065286485"><ele>885.2</ele><time>2026-05-02T10:28:12Z</time></trkpt><trkpt lat="43.16307784204244" lon="12.939507773209165"><ele>892.6</ele><time>2026-05-02T10:28:13Z</time></trkpt><trkpt lat="43.16300230320531" lon="12.939449039692658"><ele>900.0</ele><time>2026-05-02T10:28:14Z</time></trkpt><trkpt lat="43.16288480993719" lon="12.939397714306526"><ele>900.0</ele><time>2026-05-02T10:28:15Z</time></trkpt><trkpt lat="43.16278418301247" lon="12.939315553074747"><ele>900.0</ele><time>2026-05-02T10:28:16Z</time></trkpt><trkpt lat="43.162655662160816" lon="12.939239308784877"><ele>900.0</ele><time>2026-05-02T10:28:17Z</time></trkpt><trkpt lat="43.162525577503004" lon="12.939164445344279"><ele>900.0</ele><time>2026-05-02T10:28:18Z</time></trkpt><trkpt lat="43.162422608059096" lon="12.93912138494472"><ele>903.5</ele><time>2026-05-02T10:28:19Z</time></trkpt><trkpt lat="43.16230933844693" lon="12.939094852169488"><ele>907.0</ele><time>2026-05-02T10:28:20Z</time></trkpt><trkpt lat="43.16219652545662" lon="12.939063988784259"><ele>910.5</ele><time>2026-05-02T10:28:21Z</time></trkpt><trkpt lat="43.16208085762297" lon="12.93903705779646"><ele>914.0</ele><time>2026-05-02T10:28:22Z</time></trkpt><trkpt lat="43.161951967562075" lon="12.93900215177671"><ele>914.0</ele><time>2026-05-02T10:28:23Z</time></trkpt><trkpt lat="43.161803489150415" lon="12.938961749482877"><ele>914.0000000000001</ele><time>2026-05-02T10:28:24Z</time></trkpt><trkpt lat="43.16167592667065" lon="12.938918903526579"><ele>914.0000000000001</ele><time>2026-05-02T10:28:25Z</time></trkpt><trkpt lat="43.16159295646462" lon="12.938896057143209"><ele>914.0</ele><time>2026-05-02T10:28:26Z</time></trkpt><trkpt lat="43.161521747423066" lon="12.93888535360509"><ele>914.0</ele><time>2026-05-02T10:28:27Z</time></trkpt><trkpt lat="43.16142260598552" lon="12.938850221970934"><ele>911.3333333333334</ele><time>2026-05-02T10:28:28.999Z</time></trkpt><trkpt lat="43.16133440721227" lon="12.938829712844719"><ele>908.6666666666667</ele><time>2026-05-02T10:28:30.999Z</time></trkpt><trkpt lat="43.16126795989815" lon="12.938807254219377"><ele>906.0</ele><time>2026-05-02T10:28:32.999Z</time></trkpt><trkpt lat="43.16119115252585" lon="12.938811652846697"><ele>903.3333333333333</ele><time>2026-05-02T10:28:34.999Z</time></trkpt><trkpt lat="43.16111342472605" lon="12.938845321715297"><ele>900.6666666666666</ele><time>2026-05-02T10:28:36.999Z</time></trkpt><trkpt lat="43.16103265993985" lon="12.938927453158055"><ele>898.0</ele><time>2026-05-02T10:28:38.999Z</time></trkpt><trkpt lat="43.16095568254371" lon="12.939048965442908"><ele>898.0</ele><time>2026-05-02T10:28:40.999Z</time></trkpt><trkpt lat="43.160921593277386" lon="12.939149315758142"><ele>898.0</ele><time>2026-05-02T10:28:41.999Z</time></trkpt><trkpt lat="43.16089709750519" lon="12.939245425443168"><ele>898.0</ele><time>2026-05-02T10:28:42.999Z</time></trkpt><trkpt lat="43.1608778442516" lon="12.93935272188196"><ele>898.0</ele><time>2026-05-02T10:28:43.999Z</time></trkpt><trkpt lat="43.16086967452283" lon="12.939527762628577"><ele>898.0</ele><time>2026-05-02T10:28:44.999Z</time></trkpt><trkpt lat="43.16085983987559" lon="12.939660898518937"><ele>898.3333333333333</ele><time>2026-05-02T10:28:45.999Z</time></trkpt><trkpt lat="43.16085163624478" lon="12.939759686256217"><ele>898.6666666666666</ele><time>2026-05-02T10:28:46.999Z</time></trkpt><trkpt lat="43.16089895317504" lon="12.93987640564291"><ele>899.0</ele><time>2026-05-02T10:28:48.999Z</time></trkpt><trkpt lat="43.16095630704057" lon="12.939959185408492"><ele>899.3333333333333</ele><time>2026-05-02T10:28:49.999Z</time></trkpt><trkpt lat="43.16100725117878" lon="12.940060126898905"><ele>899.6666666666666</ele><time>2026-05-02T10:28:50.999Z</time></trkpt><trkpt lat="43.16103301771156" lon="12.94015350358624"><ele>900.0</ele><time>2026-05-02T10:28:51.999Z</time></trkpt><trkpt lat="43.16106543480806" lon="12.940260394484547"><ele>902.3333333333334</ele><time>2026-05-02T10:28:53.999Z</time></trkpt><trkpt lat="43.16116065092678" lon="12.940298571709425"><ele>904.6666666666667</ele><time>2026-05-02T10:28:55.999Z</time></trkpt><trkpt lat="43.16124485569728" lon="12.940307503580463"><ele>907.0</ele><time>2026-05-02T10:28:57.999Z</time></trkpt><trkpt lat="43.16127232350728" lon="12.940391049445424"><ele>909.3333333333334</ele><time>2026-05-02T10:28:59.999Z</time></trkpt><trkpt lat="43.161253987671195" lon="12.940501257164525"><ele>911.6666666666667</ele><time>2026-05-02T10:29:01.999Z</time></trkpt><trkpt lat="43.161227211388045" lon="12.940619668285832"><ele>914.0</ele><time>2026-05-02T10:29:02.999Z</time></trkpt><trkpt lat="43.16120949456069" lon="12.94074545982551"><ele>916.4000000000001</ele><time>2026-05-02T10:29:03.999Z</time></trkpt><trkpt lat="43.161190910844084" lon="12.940890744466014"><ele>918.8000000000001</ele><time>2026-05-02T10:29:04.999Z</time></trkpt><trkpt lat="43.16117795218077" lon="12.941022012282842"><ele>921.1999999999999</ele><time>2026-05-02T10:29:05.999Z</time></trkpt><trkpt lat="43.16116846451701" lon="12.94117069633633"><ele>923.5999999999999</ele><time>2026-05-02T10:29:06.999Z</time></trkpt><trkpt lat="43.16116644144834" lon="12.941279457593257"><ele>926.0</ele><time>2026-05-02T10:29:07.999Z</time></trkpt><trkpt lat="43.16115890207075" lon="12.94145354045723"><ele>926.0000000000001</ele><time>2026-05-02T10:29:09.999Z</time></trkpt><trkpt lat="43.161137610495246" lon="12.94154246123462"><ele>926.0</ele><time>2026-05-02T10:29:10.999Z</time></trkpt><trkpt lat="43.16111911605851" lon="12.941676493331476"><ele>926.0</ele><time>2026-05-02T10:29:11.999Z</time></trkpt><trkpt lat="43.161112554175425" lon="12.9417843385634"><ele>926.0</ele><time>2026-05-02T10:29:12.999Z</time></trkpt><trkpt lat="43.16110549521347" lon="12.941924330436606"><ele>926.0000000000001</ele><time>2026-05-02T10:29:13.999Z</time></trkpt><trkpt lat="43.16108753917669" lon="12.942042190544946"><ele>926.0</ele><time>2026-05-02T10:29:14.999Z</time></trkpt><trkpt lat="43.161057446141356" lon="12.94213086468346"><ele>927.8333333333334</ele><time>2026-05-02T10:29:16.999Z</time></trkpt><trkpt lat="43.16106714333863" lon="12.942261931324168"><ele>929.6666666666667</ele><time>2026-05-02T10:29:18.999Z</time></trkpt><trkpt lat="43.16112169003342" lon="12.94233771059903"><ele>931.5</ele><time>2026-05-02T10:29:19.999Z</time></trkpt><trkpt lat="43.161060469406834" lon="12.942434437301896"><ele>933.3333333333333</ele><time>2026-05-02T10:29:22.999Z</time></trkpt><trkpt lat="43.16099364706028" lon="12.942485300294479"><ele>935.1666666666666</ele><time>2026-05-02T10:29:23.999Z</time></trkpt><trkpt lat="43.16094713026406" lon="12.94256662860343"><ele>937.0</ele><time>2026-05-02T10:29:24.999Z</time></trkpt><trkpt lat="43.160955551777164" lon="12.942665001117462"><ele>940.6</ele><time>2026-05-02T10:29:26.999Z</time></trkpt><trkpt lat="43.161033601232646" lon="12.942798302958883"><ele>944.2</ele><time>2026-05-02T10:29:28.999Z</time></trkpt><trkpt lat="43.16097574403838" lon="12.942912513360403"><ele>947.8</ele><time>2026-05-02T10:29:31.999Z</time></trkpt><trkpt lat="43.16091390709951" lon="12.942973251177099"><ele>951.4</ele><time>2026-05-02T10:29:32.999Z</time></trkpt><trkpt lat="43.1608906521387" lon="12.943096706417954"><ele>955.0</ele><time>2026-05-02T10:29:34.999Z</time></trkpt><trkpt lat="43.16094085820945" lon="12.943159420472796"><ele>954.9999999999999</ele><time>2026-05-02T10:29:36.999Z</time></trkpt><trkpt lat="43.160979254198786" lon="12.943238905950624"><ele>955.0</ele><time>2026-05-02T10:29:37.999Z</time></trkpt><trkpt lat="43.160971429442384" lon="12.943330289005209"><ele>955.0</ele><time>2026-05-02T10:29:39.999Z</time></trkpt><trkpt lat="43.160870784260545" lon="12.943406596967248"><ele>955.0</ele><time>2026-05-02T10:29:41.999Z</time></trkpt><trkpt lat="43.160832542022625" lon="12.943512734098903"><ele>954.9999999999999</ele><time>2026-05-02T10:29:43.999Z</time></trkpt><trkpt lat="43.16087286408766" lon="12.943580941180757"><ele>955.0</ele><time>2026-05-02T10:29:45.999Z</time></trkpt><trkpt lat="43.160911041582985" lon="12.943687165349358"><ele>957.4999999999999</ele><time>2026-05-02T10:29:47.999Z</time></trkpt><trkpt lat="43.160882644672185" lon="12.943790621847722"><ele>960.0</ele><time>2026-05-02T10:29:49.999Z</time></trkpt><trkpt lat="43.160823462319996" lon="12.943854675180017"><ele>962.5</ele><time>2026-05-02T10:29:50.999Z</time></trkpt><trkpt lat="43.160780581703314" lon="12.943932866873737"><ele>965.0</ele><time>2026-05-02T10:29:51.998Z</time></trkpt><trkpt lat="43.16077371826416" lon="12.944031880400207"><ele>967.4999999999999</ele><time>2026-05-02T10:29:53.998Z</time></trkpt><trkpt lat="43.16085904348049" lon="12.944174843314153"><ele>970.0</ele><time>2026-05-02T10:29:55.998Z</time></trkpt><trkpt lat="43.16088530850125" lon="12.944268767206749"><ele>971.4</ele><time>2026-05-02T10:29:56.998Z</time></trkpt><trkpt lat="43.1608738128904" lon="12.944428144263956"><ele>972.8</ele><time>2026-05-02T10:29:58.998Z</time></trkpt><trkpt lat="43.16085743800236" lon="12.944527706028902"><ele>974.2</ele><time>2026-05-02T10:29:59.998Z</time></trkpt><trkpt lat="43.1608369804248" lon="12.944662326749269"><ele>975.6</ele><time>2026-05-02T10:30:01.998Z</time></trkpt><trkpt lat="43.16083023572897" lon="12.94483210265286"><ele>977.0</ele><time>2026-05-02T10:30:03.998Z</time></trkpt><trkpt lat="43.16081314372517" lon="12.944942539873697"><ele>977.0000000000001</ele><time>2026-05-02T10:30:06Z</time></trkpt><trkpt lat="43.16079821231612" lon="12.945034580676067"><ele>977.0</ele><time>2026-05-02T10:30:16Z</time></trkpt><trkpt lat="43.16072380012301" lon="12.945067469546931"><ele>977.0</ele><time>2026-05-02T10:30:21Z</time></trkpt><trkpt lat="43.16064875156212" lon="12.945091237642295"><ele>977.0</ele><time>2026-05-02T10:30:23Z</time></trkpt><trkpt lat="43.1605812169715" lon="12.94508943325168"><ele>977.0000000000001</ele><time>2026-05-02T10:30:25Z</time></trkpt><trkpt lat="43.16045759263371" lon="12.945120201453982"><ele>977.0</ele><time>2026-05-02T10:30:27Z</time></trkpt><trkpt lat="43.16037562664485" lon="12.94513451948454"><ele>971.0000000000001</ele><time>2026-05-02T10:30:29Z</time></trkpt><trkpt lat="43.16031078104445" lon="12.945122189769751"><ele>965.0</ele><time>2026-05-02T10:30:30Z</time></trkpt><trkpt lat="43.16019443266867" lon="12.945122611470921"><ele>959.0</ele><time>2026-05-02T10:30:32Z</time></trkpt><trkpt lat="43.16013035916323" lon="12.945120515721092"><ele>953.0</ele><time>2026-05-02T10:30:33Z</time></trkpt><trkpt lat="43.16006456312754" lon="12.945110265388584"><ele>947.0000000000001</ele><time>2026-05-02T10:30:34Z</time></trkpt><trkpt lat="43.16000117514998" lon="12.945088388718649"><ele>941.0</ele><time>2026-05-02T10:30:35Z</time></trkpt><trkpt lat="43.1599286761597" lon="12.945077620119717"><ele>937.4</ele><time>2026-05-02T10:30:36Z</time></trkpt><trkpt lat="43.15984450114713" lon="12.945084375272986"><ele>933.8</ele><time>2026-05-02T10:30:37Z</time></trkpt><trkpt lat="43.15971763823971" lon="12.945080803826874"><ele>930.1999999999999</ele><time>2026-05-02T10:30:39Z</time></trkpt><trkpt lat="43.159642729790924" lon="12.94508341604275"><ele>926.5999999999999</ele><time>2026-05-02T10:30:40Z</time></trkpt><trkpt lat="43.15955300339437" lon="12.94507873430046"><ele>923.0</ele><time>2026-05-02T10:30:40.999Z</time></trkpt><trkpt lat="43.15945908471845" lon="12.945070144344248"><ele>923.0</ele><time>2026-05-02T10:30:41.999Z</time></trkpt><trkpt lat="43.15938261574544" lon="12.945057450400096"><ele>923.0</ele><time>2026-05-02T10:30:42.999Z</time></trkpt><trkpt lat="43.159258152066535" lon="12.945013258745476"><ele>923.0</ele><time>2026-05-02T10:30:44.999Z</time></trkpt><trkpt lat="43.159126981930214" lon="12.944948520697215"><ele>923.0</ele><time>2026-05-02T10:30:46.999Z</time></trkpt><trkpt lat="43.15906355786969" lon="12.944921571244787"><ele>923.0</ele><time>2026-05-02T10:30:47.999Z</time></trkpt><trkpt lat="43.15900152063724" lon="12.944894180080231"><ele>919.3333333333334</ele><time>2026-05-02T10:30:48.999Z</time></trkpt><trkpt lat="43.15892176479845" lon="12.944847375631447"><ele>915.6666666666667</ele><time>2026-05-02T10:30:49.999Z</time></trkpt><trkpt lat="43.15864910503951" lon="12.944812128882159"><ele>912.0</ele><time>2026-05-02T10:30:50.999Z</time></trkpt><trkpt lat="43.15855207044434" lon="12.944777932199619"><ele>912.0</ele><time>2026-05-02T10:30:51.999Z</time></trkpt><trkpt lat="43.158456174977104" lon="12.94473217271737"><ele>912.0</ele><time>2026-05-02T10:30:52.999Z</time></trkpt><trkpt lat="43.158364336057566" lon="12.944689747879577"><ele>912.0</ele><time>2026-05-02T10:30:53.999Z</time></trkpt><trkpt lat="43.15826805776415" lon="12.94465348936884"><ele>912.0</ele><time>2026-05-02T10:30:54.999Z</time></trkpt><trkpt lat="43.15818832136028" lon="12.944611612588899"><ele>912.0</ele><time>2026-05-02T10:30:55.999Z</time></trkpt><trkpt lat="43.158122360945356" lon="12.94455062094559"><ele>905.8333333333334</ele><time>2026-05-02T10:30:56.999Z</time></trkpt><trkpt lat="43.15804451426385" lon="12.944506349735207"><ele>899.6666666666667</ele><time>2026-05-02T10:30:57.999Z</time></trkpt><trkpt lat="43.15796073234891" lon="12.944454963878885"><ele>893.5</ele><time>2026-05-02T10:30:58.999Z</time></trkpt><trkpt lat="43.15787624143637" lon="12.944402220156883"><ele>887.3333333333334</ele><time>2026-05-02T10:30:59.999Z</time></trkpt><trkpt lat="43.157811307919694" lon="12.944351728140006"><ele>881.1666666666667</ele><time>2026-05-02T10:31:00.999Z</time></trkpt><trkpt lat="43.15774992815518" lon="12.944305154560023"><ele>875.0</ele><time>2026-05-02T10:31:01.999Z</time></trkpt><trkpt lat="43.157686982167235" lon="12.94426622648715"><ele>877.6666666666667</ele><time>2026-05-02T10:31:02.999Z</time></trkpt><trkpt lat="43.15759313026073" lon="12.944189401214254"><ele>880.3333333333334</ele><time>2026-05-02T10:31:04.999Z</time></trkpt><trkpt lat="43.1575318739101" lon="12.944130586860915"><ele>883.0</ele><time>2026-05-02T10:31:05.999Z</time></trkpt><trkpt lat="43.15744384472167" lon="12.944053780323669"><ele>885.6666666666667</ele><time>2026-05-02T10:31:07.999Z</time></trkpt><trkpt lat="43.157402684255324" lon="12.943948657935593"><ele>888.3333333333334</ele><time>2026-05-02T10:31:09.999Z</time></trkpt><trkpt lat="43.15735906961964" lon="12.943868215870145"><ele>891.0</ele><time>2026-05-02T10:31:11.999Z</time></trkpt><trkpt lat="43.15733036456785" lon="12.943984857339254"><ele>891.0</ele><time>2026-05-02T10:31:15.999Z</time></trkpt><trkpt lat="43.15735731796982" lon="12.944085779922577"><ele>890.9999999999999</ele><time>2026-05-02T10:31:16.999Z</time></trkpt><trkpt lat="43.15737856939996" lon="12.944206115750353"><ele>890.9999999999999</ele><time>2026-05-02T10:31:17.999Z</time></trkpt><trkpt lat="43.15739537334326" lon="12.944329993546392"><ele>891.0</ele><time>2026-05-02T10:31:18.999Z</time></trkpt><trkpt lat="43.157412830856316" lon="12.944449077279057"><ele>891.0</ele><time>2026-05-02T10:31:19.999Z</time></trkpt><trkpt lat="43.15742817858015" lon="12.944603730081056"><ele>887.8</ele><time>2026-05-02T10:31:20.999Z</time></trkpt><trkpt lat="43.15744921388133" lon="12.944716306082016"><ele>884.5999999999999</ele><time>2026-05-02T10:31:21.999Z</time></trkpt><trkpt lat="43.157467382111854" lon="12.944854104847195"><ele>881.4</ele><time>2026-05-02T10:31:22.999Z</time></trkpt><trkpt lat="43.157510523082514" lon="12.944992777263952"><ele>878.2</ele><time>2026-05-02T10:31:23.999Z</time></trkpt><trkpt lat="43.157527771114" lon="12.945132545982927"><ele>875.0</ele><time>2026-05-02T10:31:24.999Z</time></trkpt><trkpt lat="43.157534463190146" lon="12.945258912678662"><ele>871.2</ele><time>2026-05-02T10:31:25.999Z</time></trkpt><trkpt lat="43.157562379370894" lon="12.945386122447092"><ele>867.4</ele><time>2026-05-02T10:31:26.999Z</time></trkpt><trkpt lat="43.15760557627227" lon="12.945504629485852"><ele>863.5999999999999</ele><time>2026-05-02T10:31:27.999Z</time></trkpt><trkpt lat="43.157657713197295" lon="12.945594761419246"><ele>859.8</ele><time>2026-05-02T10:31:28.999Z</time></trkpt><trkpt lat="43.15769887624567" lon="12.945703854686196"><ele>856.0</ele><time>2026-05-02T10:31:29.999Z</time></trkpt><trkpt lat="43.15774101089325" lon="12.945806967542696"><ele>850.4</ele><time>2026-05-02T10:31:30.999Z</time></trkpt><trkpt lat="43.15779186997862" lon="12.945919899832736"><ele>844.8</ele><time>2026-05-02T10:31:31.999Z</time></trkpt><trkpt lat="43.157867896593146" lon="12.946049136443271"><ele>839.1999999999999</ele><time>2026-05-02T10:31:32.999Z</time></trkpt><trkpt lat="43.157917023720074" lon="12.946181738563267"><ele>833.5999999999999</ele><time>2026-05-02T10:31:33.999Z</time></trkpt><trkpt lat="43.15793157861189" lon="12.94629587246254"><ele>828.0</ele><time>2026-05-02T10:31:34.999Z</time></trkpt><trkpt lat="43.15796243677043" lon="12.946402663232924"><ele>828.0</ele><time>2026-05-02T10:31:35.999Z</time></trkpt><trkpt lat="43.15801396450129" lon="12.946493325901208"><ele>828.0</ele><time>2026-05-02T10:31:36.999Z</time></trkpt><trkpt lat="43.15806920746841" lon="12.946606788729547"><ele>828.0</ele><time>2026-05-02T10:31:37.999Z</time></trkpt><trkpt lat="43.15811659643787" lon="12.946731360222168"><ele>828.0</ele><time>2026-05-02T10:31:38.999Z</time></trkpt><trkpt lat="43.15817165059555" lon="12.946850659157997"><ele>828.0</ele><time>2026-05-02T10:31:39.999Z</time></trkpt><trkpt lat="43.158218206041596" lon="12.94696607389243"><ele>829.5999999999999</ele><time>2026-05-02T10:31:40.999Z</time></trkpt><trkpt lat="43.15825938678159" lon="12.947097510148101"><ele>831.1999999999999</ele><time>2026-05-02T10:31:41.999Z</time></trkpt><trkpt lat="43.15831500394658" lon="12.947240013144615"><ele>832.8</ele><time>2026-05-02T10:31:42.999Z</time></trkpt><trkpt lat="43.15835967147583" lon="12.947369062520705"><ele>834.4</ele><time>2026-05-02T10:31:43.999Z</time></trkpt><trkpt lat="43.158412293631145" lon="12.947508461883125"><ele>836.0</ele><time>2026-05-02T10:31:44.999Z</time></trkpt><trkpt lat="43.158467198516476" lon="12.947634374122318"><ele>830.5999999999999</ele><time>2026-05-02T10:31:45.999Z</time></trkpt><trkpt lat="43.158515384994985" lon="12.947763840636995"><ele>825.2</ele><time>2026-05-02T10:31:46.999Z</time></trkpt><trkpt lat="43.158561615965624" lon="12.94788188452146"><ele>819.8</ele><time>2026-05-02T10:31:47.999Z</time></trkpt><trkpt lat="43.15862016822966" lon="12.947982963933171"><ele>814.4000000000001</ele><time>2026-05-02T10:31:48.999Z</time></trkpt><trkpt lat="43.158674865069756" lon="12.948081646867951"><ele>809.0</ele><time>2026-05-02T10:31:49.999Z</time></trkpt><trkpt lat="43.15872238781815" lon="12.948182416189661"><ele>809.0</ele><time>2026-05-02T10:31:50.999Z</time></trkpt><trkpt lat="43.15875166269186" lon="12.948269667783807"><ele>809.0</ele><time>2026-05-02T10:31:51.999Z</time></trkpt><trkpt lat="43.158800013820965" lon="12.94835004184898"><ele>809.0</ele><time>2026-05-02T10:31:52.999Z</time></trkpt><trkpt lat="43.1588452294895" lon="12.94841369942165"><ele>809.0</ele><time>2026-05-02T10:31:53.999Z</time></trkpt><trkpt lat="43.15889242565609" lon="12.948480487957486"><ele>809.0</ele><time>2026-05-02T10:31:54.999Z</time></trkpt><trkpt lat="43.158928868101036" lon="12.9485532736674"><ele>809.0</ele><time>2026-05-02T10:31:55.999Z</time></trkpt><trkpt lat="43.158982143671075" lon="12.948677546314666"><ele>809.0</ele><time>2026-05-02T10:31:57.999Z</time></trkpt><trkpt lat="43.159045571612104" lon="12.9487921206948"><ele>808.2</ele><time>2026-05-02T10:31:59.999Z</time></trkpt><trkpt lat="43.15909959295024" lon="12.948863234776049"><ele>807.4000000000001</ele><time>2026-05-02T10:32:01.999Z</time></trkpt><trkpt lat="43.15920655491602" lon="12.948850203866835"><ele>806.6</ele><time>2026-05-02T10:32:04.999Z</time></trkpt><trkpt lat="43.15929486212241" lon="12.948882587137343"><ele>805.8</ele><time>2026-05-02T10:32:06.998Z</time></trkpt><trkpt lat="43.159353144000676" lon="12.94900836283138"><ele>805.0</ele><time>2026-05-02T10:32:08.998Z</time></trkpt><trkpt lat="43.15939747296786" lon="12.949109618898746"><ele>801.2</ele><time>2026-05-02T10:32:09.998Z</time></trkpt><trkpt lat="43.159357032513" lon="12.949265092070116"><ele>797.4</ele><time>2026-05-02T10:32:12Z</time></trkpt><trkpt lat="43.15929184167299" lon="12.949324019765317"><ele>793.5999999999999</ele><time>2026-05-02T10:32:13Z</time></trkpt><trkpt lat="43.15924074867934" lon="12.94940077371988"><ele>789.8</ele><time>2026-05-02T10:32:14Z</time></trkpt><trkpt lat="43.15920831905899" lon="12.949480975601718"><ele>786.0</ele><time>2026-05-02T10:32:15Z</time></trkpt><trkpt lat="43.159131391969176" lon="12.949638671267374"><ele>786.0</ele><time>2026-05-02T10:32:17Z</time></trkpt><trkpt lat="43.15904614498415" lon="12.949697344642951"><ele>786.0</ele><time>2026-05-02T10:32:18Z</time></trkpt><trkpt lat="43.15898725883066" lon="12.949743611246436"><ele>786.0</ele><time>2026-05-02T10:32:19Z</time></trkpt><trkpt lat="43.15891603054188" lon="12.949824760150209"><ele>786.0</ele><time>2026-05-02T10:32:20Z</time></trkpt><trkpt lat="43.15883447252536" lon="12.949908018376911"><ele>786.0</ele><time>2026-05-02T10:32:21Z</time></trkpt><trkpt lat="43.158765791671186" lon="12.949978399980328"><ele>786.0</ele><time>2026-05-02T10:32:22Z</time></trkpt><trkpt lat="43.15867912762163" lon="12.950054469977607"><ele>784.3333333333334</ele><time>2026-05-02T10:32:23Z</time></trkpt><trkpt lat="43.158599251525835" lon="12.950125442343644"><ele>782.6666666666667</ele><time>2026-05-02T10:32:24Z</time></trkpt><trkpt lat="43.15852870298985" lon="12.950211445180702"><ele>781.0</ele><time>2026-05-02T10:32:25Z</time></trkpt><trkpt lat="43.158452806122845" lon="12.95030287898746"><ele>779.3333333333334</ele><time>2026-05-02T10:32:26Z</time></trkpt><trkpt lat="43.158377418786564" lon="12.950362113953673"><ele>777.6666666666667</ele><time>2026-05-02T10:32:27Z</time></trkpt><trkpt lat="43.15831671656534" lon="12.950409557537526"><ele>776.0</ele><time>2026-05-02T10:32:28Z</time></trkpt><trkpt lat="43.158237456759174" lon="12.950457039169788"><ele>776.0</ele><time>2026-05-02T10:32:30Z</time></trkpt><trkpt lat="43.15822156147135" lon="12.950363576252997"><ele>776.0</ele><time>2026-05-02T10:32:32Z</time></trkpt><trkpt lat="43.158224495913444" lon="12.950182243927989"><ele>776.0</ele><time>2026-05-02T10:32:34Z</time></trkpt><trkpt lat="43.15824858687523" lon="12.950049440565623"><ele>776.0</ele><time>2026-05-02T10:32:36Z</time></trkpt><trkpt lat="43.15823891455184" lon="12.949945755789"><ele>776.0</ele><time>2026-05-02T10:32:38Z</time></trkpt><trkpt lat="43.15826315697353" lon="12.949840388923691"><ele>776.5999999999999</ele><time>2026-05-02T10:32:40Z</time></trkpt><trkpt lat="43.15829238926258" lon="12.94970427327515"><ele>777.2</ele><time>2026-05-02T10:32:42Z</time></trkpt><trkpt lat="43.15826148135771" lon="12.949565005090315"><ele>777.8</ele><time>2026-05-02T10:32:44Z</time></trkpt><trkpt lat="43.15823328745046" lon="12.949454475475827"><ele>778.4000000000001</ele><time>2026-05-02T10:32:45Z</time></trkpt><trkpt lat="43.15820910526128" lon="12.949343688041735"><ele>779.0</ele><time>2026-05-02T10:32:46Z</time></trkpt><trkpt lat="43.15816879652864" lon="12.949233955832876"><ele>775.1666666666667</ele><time>2026-05-02T10:32:47Z</time></trkpt><trkpt lat="43.158109387744915" lon="12.949140684319904"><ele>771.3333333333334</ele><time>2026-05-02T10:32:48Z</time></trkpt><trkpt lat="43.15804127952098" lon="12.94908188370178"><ele>767.5</ele><time>2026-05-02T10:32:49Z</time></trkpt><trkpt lat="43.157966443291095" lon="12.949055718403418"><ele>763.6666666666667</ele><time>2026-05-02T10:32:50Z</time></trkpt><trkpt lat="43.157905611540095" lon="12.949026165712413"><ele>759.8333333333334</ele><time>2026-05-02T10:32:50.999Z</time></trkpt><trkpt lat="43.1577696599194" lon="12.949027574065802"><ele>756.0</ele><time>2026-05-02T10:32:52.999Z</time></trkpt><trkpt lat="43.15764537813466" lon="12.949059453664907"><ele>756.0</ele><time>2026-05-02T10:32:54.999Z</time></trkpt><trkpt lat="43.15757462510347" lon="12.949080045146898"><ele>756.0</ele><time>2026-05-02T10:32:55.999Z</time></trkpt><trkpt lat="43.1575036319261" lon="12.949114921308656"><ele>756.0</ele><time>2026-05-02T10:32:56.999Z</time></trkpt><trkpt lat="43.15739080371614" lon="12.94906253826996"><ele>756.0</ele><time>2026-05-02T10:32:58.999Z</time></trkpt><trkpt lat="43.15728833306037" lon="12.949024986282495"><ele>756.0</ele><time>2026-05-02T10:33:00.999Z</time></trkpt><trkpt lat="43.15718003658223" lon="12.949066895199064"><ele>752.0</ele><time>2026-05-02T10:33:02.999Z</time></trkpt><trkpt lat="43.15710525575253" lon="12.949059396433556"><ele>748.0</ele><time>2026-05-02T10:33:03.999Z</time></trkpt><trkpt lat="43.15703720632242" lon="12.949051460458064"><ele>744.0</ele><time>2026-05-02T10:33:04.999Z</time></trkpt><trkpt lat="43.156964636724325" lon="12.949047150976407"><ele>740.0</ele><time>2026-05-02T10:33:05.999Z</time></trkpt><trkpt lat="43.15690045759924" lon="12.949047263596817"><ele>736.0</ele><time>2026-05-02T10:33:06.999Z</time></trkpt><trkpt lat="43.156805012650445" lon="12.949057669522492"><ele>732.0</ele><time>2026-05-02T10:33:08.999Z</time></trkpt><trkpt lat="43.15670678899917" lon="12.949110210714062"><ele>732.0</ele><time>2026-05-02T10:33:10.999Z</time></trkpt><trkpt lat="43.15662078917229" lon="12.94905473858017"><ele>732.0</ele><time>2026-05-02T10:33:12.999Z</time></trkpt><trkpt lat="43.15649610880642" lon="12.948984559337196"><ele>732.0</ele><time>2026-05-02T10:33:14.999Z</time></trkpt><trkpt lat="43.15640280695224" lon="12.94894855505276"><ele>732.0</ele><time>2026-05-02T10:33:15.999Z</time></trkpt><trkpt lat="43.156308583404964" lon="12.948902331001447"><ele>732.0</ele><time>2026-05-02T10:33:16.999Z</time></trkpt><trkpt lat="43.15622752138978" lon="12.948865072465281"><ele>727.4000000000001</ele><time>2026-05-02T10:33:17.999Z</time></trkpt><trkpt lat="43.15613769755477" lon="12.948847582952407"><ele>722.8000000000001</ele><time>2026-05-02T10:33:19.999Z</time></trkpt><trkpt lat="43.15618471964273" lon="12.948724594947036"><ele>718.2</ele><time>2026-05-02T10:33:23.999Z</time></trkpt><trkpt lat="43.15623224832712" lon="12.948650664013975"><ele>713.6</ele><time>2026-05-02T10:33:24.999Z</time></trkpt><trkpt lat="43.15624165139715" lon="12.948501980960764"><ele>709.0</ele><time>2026-05-02T10:33:26.999Z</time></trkpt><trkpt lat="43.15618177258049" lon="12.948436165457439"><ele>709.0</ele><time>2026-05-02T10:33:27.999Z</time></trkpt><trkpt lat="43.15612876555627" lon="12.948376556407602"><ele>709.0</ele><time>2026-05-02T10:33:28.999Z</time></trkpt><trkpt lat="43.15605642567633" lon="12.948323057072987"><ele>709.0</ele><time>2026-05-02T10:33:29.999Z</time></trkpt><trkpt lat="43.155996027120814" lon="12.948282268378927"><ele>709.0</ele><time>2026-05-02T10:33:30.999Z</time></trkpt><trkpt lat="43.15593137483329" lon="12.948238925529548"><ele>709.0</ele><time>2026-05-02T10:33:31.999Z</time></trkpt><trkpt lat="43.155802079275" lon="12.948254788578566"><ele>709.0</ele><time>2026-05-02T10:33:33.999Z</time></trkpt><trkpt lat="43.155708858886555" lon="12.94824672160578"><ele>704.0</ele><time>2026-05-02T10:33:34.999Z</time></trkpt><trkpt lat="43.15565309639102" lon="12.948196554987081"><ele>699.0</ele><time>2026-05-02T10:33:35.999Z</time></trkpt><trkpt lat="43.15558694771421" lon="12.948145535390113"><ele>694.0</ele><time>2026-05-02T10:33:36.999Z</time></trkpt><trkpt lat="43.15550556701886" lon="12.948177621065302"><ele>689.0</ele><time>2026-05-02T10:33:38.999Z</time></trkpt><trkpt lat="43.15548060908516" lon="12.948331841790996"><ele>684.0</ele><time>2026-05-02T10:33:41.999Z</time></trkpt><trkpt lat="43.1553534466878" lon="12.948427990665058"><ele>684.0</ele><time>2026-05-02T10:33:43.999Z</time></trkpt><trkpt lat="43.15528794450729" lon="12.948478041318067"><ele>684.0</ele><time>2026-05-02T10:33:44.999Z</time></trkpt><trkpt lat="43.15521431243688" lon="12.948555523092129"><ele>684.0</ele><time>2026-05-02T10:33:47.999Z</time></trkpt><trkpt lat="43.155149672844736" lon="12.948577015159145"><ele>684.0</ele><time>2026-05-02T10:33:48.999Z</time></trkpt><trkpt lat="43.15507443725754" lon="12.948586993390272"><ele>684.0</ele><time>2026-05-02T10:33:49.999Z</time></trkpt><trkpt lat="43.155001757265495" lon="12.948627494858593"><ele>684.0</ele><time>2026-05-02T10:33:50.999Z</time></trkpt><trkpt lat="43.1549171899089" lon="12.948737974081075"><ele>677.8333333333334</ele><time>2026-05-02T10:33:52.999Z</time></trkpt><trkpt lat="43.154861964497634" lon="12.948792462551383"><ele>671.6666666666666</ele><time>2026-05-02T10:33:53.999Z</time></trkpt><trkpt lat="43.15477136955182" lon="12.94890532939901"><ele>665.5</ele><time>2026-05-02T10:33:55.999Z</time></trkpt><trkpt lat="43.15471379223398" lon="12.948953228620303"><ele>659.3333333333333</ele><time>2026-05-02T10:33:56.999Z</time></trkpt><trkpt lat="43.154645247085554" lon="12.949009280941253"><ele>653.1666666666666</ele><time>2026-05-02T10:33:57.999Z</time></trkpt><trkpt lat="43.154579919107995" lon="12.949050861758078"><ele>647.0</ele><time>2026-05-02T10:33:58.999Z</time></trkpt><trkpt lat="43.154518788899495" lon="12.94909662607363"><ele>647.0</ele><time>2026-05-02T10:33:59.999Z</time></trkpt><trkpt lat="43.15445702713341" lon="12.949132075376356"><ele>647.0</ele><time>2026-05-02T10:34:00.999Z</time></trkpt><trkpt lat="43.154370641806" lon="12.949193747017327"><ele>647.0</ele><time>2026-05-02T10:34:02.999Z</time></trkpt><trkpt lat="43.15431255431946" lon="12.949261189961248"><ele>647.0</ele><time>2026-05-02T10:34:03.999Z</time></trkpt><trkpt lat="43.15425591867925" lon="12.94931374914901"><ele>647.0</ele><time>2026-05-02T10:34:04.999Z</time></trkpt><trkpt lat="43.15416422093092" lon="12.949364811636377"><ele>647.0</ele><time>2026-05-02T10:34:06.999Z</time></trkpt><trkpt lat="43.15408278528661" lon="12.94940048774262"><ele>645.6666666666666</ele><time>2026-05-02T10:34:07.999Z</time></trkpt><trkpt lat="43.15400641746974" lon="12.949432312852553"><ele>644.3333333333333</ele><time>2026-05-02T10:34:08.999Z</time></trkpt><trkpt lat="43.15387239045625" lon="12.94947815077851"><ele>643.0</ele><time>2026-05-02T10:34:10.999Z</time></trkpt><trkpt lat="43.153793125274305" lon="12.949521555846738"><ele>641.6666666666666</ele><time>2026-05-02T10:34:11.999Z</time></trkpt><trkpt lat="43.15372784919741" lon="12.949572456195227"><ele>640.3333333333334</ele><time>2026-05-02T10:34:12.999Z</time></trkpt><trkpt lat="43.15367197023449" lon="12.949618941200638"><ele>639.0</ele><time>2026-05-02T10:34:13.999Z</time></trkpt><trkpt lat="43.153572824189006" lon="12.94964566676918"><ele>639.0</ele><time>2026-05-02T10:34:15.998Z</time></trkpt><trkpt lat="43.15346796607213" lon="12.949554604765042"><ele>639.0</ele><time>2026-05-02T10:34:18Z</time></trkpt><trkpt lat="43.15334040584508" lon="12.949513966065844"><ele>639.0</ele><time>2026-05-02T10:34:20Z</time></trkpt><trkpt lat="43.15325295332152" lon="12.949507240225019"><ele>639.0</ele><time>2026-05-02T10:34:21Z</time></trkpt><trkpt lat="43.153183444815994" lon="12.94947901042125"><ele>639.0</ele><time>2026-05-02T10:34:22Z</time></trkpt><trkpt lat="43.1531183250072" lon="12.94939865115386"><ele>633.6666666666666</ele><time>2026-05-02T10:34:24Z</time></trkpt><trkpt lat="43.153019186926386" lon="12.949303664769063"><ele>628.3333333333334</ele><time>2026-05-02T10:34:26Z</time></trkpt><trkpt lat="43.15294874938088" lon="12.949270292609757"><ele>623.0</ele><time>2026-05-02T10:34:27Z</time></trkpt><trkpt lat="43.152886860195785" lon="12.949243190184694"><ele>617.6666666666667</ele><time>2026-05-02T10:34:28Z</time></trkpt><trkpt lat="43.15277996038202" lon="12.949243798912294"><ele>612.3333333333334</ele><time>2026-05-02T10:34:30Z</time></trkpt><trkpt lat="43.152714044294974" lon="12.94924799286516"><ele>607.0</ele><time>2026-05-02T10:34:31Z</time></trkpt><trkpt lat="43.15264656281104" lon="12.949240083220596"><ele>607.0</ele><time>2026-05-02T10:34:32Z</time></trkpt><trkpt lat="43.152555331320414" lon="12.949225406679775"><ele>607.0</ele><time>2026-05-02T10:34:33Z</time></trkpt><trkpt lat="43.15246609076779" lon="12.949202076142553"><ele>607.0</ele><time>2026-05-02T10:34:34Z</time></trkpt><trkpt lat="43.15236941872053" lon="12.94919112859024"><ele>607.0</ele><time>2026-05-02T10:34:35Z</time></trkpt><trkpt lat="43.15227167413845" lon="12.949218400431828"><ele>607.0</ele><time>2026-05-02T10:34:36Z</time></trkpt><trkpt lat="43.152171153101136" lon="12.949242554942346"><ele>598.4</ele><time>2026-05-02T10:34:37Z</time></trkpt><trkpt lat="43.152088116693925" lon="12.949251289872867"><ele>589.8000000000001</ele><time>2026-05-02T10:34:38Z</time></trkpt><trkpt lat="43.15194237942357" lon="12.949260570313445"><ele>581.2</ele><time>2026-05-02T10:34:40Z</time></trkpt><trkpt lat="43.15184913058433" lon="12.949264641951617"><ele>572.6</ele><time>2026-05-02T10:34:41Z</time></trkpt><trkpt lat="43.15177272708093" lon="12.949255636156737"><ele>564.0</ele><time>2026-05-02T10:34:42Z</time></trkpt><trkpt lat="43.15167784066458" lon="12.949220118061316"><ele>565.3333333333334</ele><time>2026-05-02T10:34:43Z</time></trkpt><trkpt lat="43.15159770160776" lon="12.949181077499523"><ele>566.6666666666666</ele><time>2026-05-02T10:34:44Z</time></trkpt><trkpt lat="43.15152282161084" lon="12.949139670411565"><ele>568.0</ele><time>2026-05-02T10:34:45Z</time></trkpt><trkpt lat="43.15146283618241" lon="12.949089647394487"><ele>569.3333333333333</ele><time>2026-05-02T10:34:46Z</time></trkpt><trkpt lat="43.15139911600608" lon="12.949024969406848"><ele>570.6666666666666</ele><time>2026-05-02T10:34:47Z</time></trkpt><trkpt lat="43.151319767650016" lon="12.948964821485516"><ele>572.0</ele><time>2026-05-02T10:34:48Z</time></trkpt><trkpt lat="43.15123341759961" lon="12.948973347056185"><ele>572.0</ele><time>2026-05-02T10:34:49Z</time></trkpt><trkpt lat="43.15112546468101" lon="12.949008325641401"><ele>572.0</ele><time>2026-05-02T10:34:50Z</time></trkpt><trkpt lat="43.15105122741079" lon="12.949035918161869"><ele>572.0</ele><time>2026-05-02T10:34:51Z</time></trkpt><trkpt lat="43.150983143921216" lon="12.94905407176299"><ele>572.0</ele><time>2026-05-02T10:34:52Z</time></trkpt><trkpt lat="43.15090870078707" lon="12.949068760499546"><ele>572.0</ele><time>2026-05-02T10:34:53Z</time></trkpt><trkpt lat="43.15083157345707" lon="12.949082896341128"><ele>572.0</ele><time>2026-05-02T10:34:54Z</time></trkpt><trkpt lat="43.15074566468331" lon="12.9491069292417"><ele>571.6</ele><time>2026-05-02T10:34:55Z</time></trkpt><trkpt lat="43.150652424329316" lon="12.949130256699354"><ele>571.2</ele><time>2026-05-02T10:34:56Z</time></trkpt><trkpt lat="43.15056399896998" lon="12.949151917315918"><ele>570.8</ele><time>2026-05-02T10:34:57Z</time></trkpt><trkpt lat="43.15050034109042" lon="12.949159485894459"><ele>570.4</ele><time>2026-05-02T10:34:57.999Z</time></trkpt><trkpt lat="43.15037899125716" lon="12.949226955838613"><ele>570.0</ele><time>2026-05-02T10:34:59.999Z</time></trkpt><trkpt lat="43.15030977100183" lon="12.949266912129923"><ele>563.6666666666666</ele><time>2026-05-02T10:35:00.999Z</time></trkpt><trkpt lat="43.15023252853859" lon="12.94930437434655"><ele>557.3333333333334</ele><time>2026-05-02T10:35:01.999Z</time></trkpt><trkpt lat="43.150159974403124" lon="12.949335215296616"><ele>551.0</ele><time>2026-05-02T10:35:02.999Z</time></trkpt><trkpt lat="43.15008505673261" lon="12.94936045352711"><ele>544.6666666666667</ele><time>2026-05-02T10:35:03.999Z</time></trkpt><trkpt lat="43.149960805041275" lon="12.949333666044154"><ele>538.3333333333334</ele><time>2026-05-02T10:35:05.999Z</time></trkpt><trkpt lat="43.14987799155842" lon="12.949317007475637"><ele>532.0</ele><time>2026-05-02T10:35:06.999Z</time></trkpt><trkpt lat="43.149794430172925" lon="12.949296180852754"><ele>530.1666666666667</ele><time>2026-05-02T10:35:07.999Z</time></trkpt><trkpt lat="43.14970826459575" lon="12.949277344789968"><ele>528.3333333333334</ele><time>2026-05-02T10:35:08.999Z</time></trkpt><trkpt lat="43.149631794487355" lon="12.949253329330434"><ele>526.5</ele><time>2026-05-02T10:35:09.999Z</time></trkpt><trkpt lat="43.14955675736313" lon="12.949249122471159"><ele>524.6666666666666</ele><time>2026-05-02T10:35:10.999Z</time></trkpt><trkpt lat="43.14947607610701" lon="12.94920092077497"><ele>522.8333333333333</ele><time>2026-05-02T10:35:11.999Z</time></trkpt><trkpt lat="43.14937718009787" lon="12.949187734590653"><ele>521.0</ele><time>2026-05-02T10:35:12.999Z</time></trkpt><trkpt lat="43.14929040353462" lon="12.949176164378109"><ele>522.2</ele><time>2026-05-02T10:35:13.999Z</time></trkpt><trkpt lat="43.14918698079548" lon="12.949162374672467"><ele>523.4000000000001</ele><time>2026-05-02T10:35:14.999Z</time></trkpt><trkpt lat="43.1490834868788" lon="12.949147719354025"><ele>524.6</ele><time>2026-05-02T10:35:15.999Z</time></trkpt><trkpt lat="43.14897852799142" lon="12.949130911622989"><ele>525.8000000000001</ele><time>2026-05-02T10:35:16.999Z</time></trkpt><trkpt lat="43.14887568873642" lon="12.949115519566108"><ele>527.0</ele><time>2026-05-02T10:35:17.999Z</time></trkpt><trkpt lat="43.14877767970254" lon="12.949107906382169"><ele>527.0</ele><time>2026-05-02T10:35:18.999Z</time></trkpt><trkpt lat="43.14868878809838" lon="12.949102027070692"><ele>527.0</ele><time>2026-05-02T10:35:19.999Z</time></trkpt><trkpt lat="43.14860895307405" lon="12.949095455689974"><ele>527.0</ele><time>2026-05-02T10:35:20.999Z</time></trkpt><trkpt lat="43.14853958420513" lon="12.949088986756177"><ele>527.0</ele><time>2026-05-02T10:35:21.999Z</time></trkpt><trkpt lat="43.14847833964147" lon="12.949048073399187"><ele>527.0</ele><time>2026-05-02T10:35:23.999Z</time></trkpt><trkpt lat="43.148557766192404" lon="12.948830280639797"><ele>527.0</ele><time>2026-05-02T10:35:25.999Z</time></trkpt><trkpt lat="43.148602683592884" lon="12.948714205637968"><ele>527.0</ele><time>2026-05-02T10:35:26.999Z</time></trkpt><trkpt lat="43.14864686328842" lon="12.948583082095025"><ele>527.0</ele><time>2026-05-02T10:35:27.999Z</time></trkpt><trkpt lat="43.14868657926251" lon="12.948425061099332"><ele>527.0</ele><time>2026-05-02T10:35:28.999Z</time></trkpt><trkpt lat="43.148719523723656" lon="12.948264437817837"><ele>527.0</ele><time>2026-05-02T10:35:29.999Z</time></trkpt><trkpt lat="43.14874664381189" lon="12.94810017653212"><ele>526.6666666666666</ele><time>2026-05-02T10:35:30.999Z</time></trkpt><trkpt lat="43.148779840338" lon="12.947937585723022"><ele>526.3333333333333</ele><time>2026-05-02T10:35:31.999Z</time></trkpt><trkpt lat="43.14880150476985" lon="12.947801021444244"><ele>526.0</ele><time>2026-05-02T10:35:32.999Z</time></trkpt><trkpt lat="43.148820739642666" lon="12.947709371090506"><ele>525.6666666666666</ele><time>2026-05-02T10:35:33.999Z</time></trkpt><trkpt lat="43.14881000351046" lon="12.947620847386126"><ele>525.3333333333334</ele><time>2026-05-02T10:35:35.999Z</time></trkpt><trkpt lat="43.14879323769318" lon="12.947512535417443"><ele>525.0</ele><time>2026-05-02T10:36:35Z</time></trkpt><trkpt lat="43.14877642517963" lon="12.94736602885481"><ele>525.0</ele><time>2026-05-02T10:36:37Z</time></trkpt><trkpt lat="43.148837273125544" lon="12.947272930514822"><ele>525.0</ele><time>2026-05-02T10:36:38Z</time></trkpt><trkpt lat="43.148884006870865" lon="12.947163428656713"><ele>525.0</ele><time>2026-05-02T10:36:39Z</time></trkpt><trkpt lat="43.148919104937704" lon="12.947039845404328"><ele>525.0</ele><time>2026-05-02T10:36:40Z</time></trkpt><trkpt lat="43.1489809767987" lon="12.946919378800997"><ele>525.0</ele><time>2026-05-02T10:36:41Z</time></trkpt><trkpt lat="43.149045144971055" lon="12.946794993856559"><ele>528.2</ele><time>2026-05-02T10:36:42Z</time></trkpt><trkpt lat="43.1491066772263" lon="12.946706868829091"><ele>531.4</ele><time>2026-05-02T10:36:43Z</time></trkpt><trkpt lat="43.149179567079614" lon="12.946601566453067"><ele>534.6</ele><time>2026-05-02T10:36:44Z</time></trkpt><trkpt lat="43.1492592740332" lon="12.94648574491905"><ele>537.8</ele><time>2026-05-02T10:36:45Z</time></trkpt><trkpt lat="43.14934357478872" lon="12.946365177070945"><ele>541.0</ele><time>2026-05-02T10:36:46Z</time></trkpt><trkpt lat="43.14942501269207" lon="12.94625739400726"><ele>541.0</ele><time>2026-05-02T10:36:47Z</time></trkpt><trkpt lat="43.14951209105855" lon="12.94616487491329"><ele>541.0</ele><time>2026-05-02T10:36:48Z</time></trkpt><trkpt lat="43.14962282794009" lon="12.946106912057829"><ele>541.0</ele><time>2026-05-02T10:36:49Z</time></trkpt><trkpt lat="43.149741068864365" lon="12.946033880836126"><ele>541.0</ele><time>2026-05-02T10:36:50Z</time></trkpt><trkpt lat="43.14987700077807" lon="12.945954205408333"><ele>544.3333333333334</ele><time>2026-05-02T10:36:51Z</time></trkpt><trkpt lat="43.1500236438788" lon="12.945876088664583"><ele>547.6666666666666</ele><time>2026-05-02T10:36:52Z</time></trkpt><trkpt lat="43.15018282625597" lon="12.945797481878994"><ele>551.0</ele><time>2026-05-02T10:36:53Z</time></trkpt><trkpt lat="43.150341993743275" lon="12.945726987906955"><ele>551.0</ele><time>2026-05-02T10:36:54Z</time></trkpt><trkpt lat="43.15050242304233" lon="12.945654431250961"><ele>551.0</ele><time>2026-05-02T10:36:55Z</time></trkpt><trkpt lat="43.15064695425978" lon="12.94556590286305"><ele>551.0</ele><time>2026-05-02T10:36:56Z</time></trkpt><trkpt lat="43.15078617880422" lon="12.945496189992973"><ele>554.25</ele><time>2026-05-02T10:36:57Z</time></trkpt><trkpt lat="43.150898818321814" lon="12.945401422314848"><ele>557.5</ele><time>2026-05-02T10:36:58Z</time></trkpt><trkpt lat="43.15099258289547" lon="12.945257702719857"><ele>560.75</ele><time>2026-05-02T10:36:59Z</time></trkpt><trkpt lat="43.15106917785125" lon="12.945069701817209"><ele>564.0</ele><time>2026-05-02T10:37:00Z</time></trkpt><trkpt lat="43.151145054141054" lon="12.944870174084276"><ele>564.0</ele><time>2026-05-02T10:37:01Z</time></trkpt><trkpt lat="43.15121856646322" lon="12.944674501983682"><ele>564.0</ele><time>2026-05-02T10:37:02Z</time></trkpt><trkpt lat="43.15130921514631" lon="12.944522556206055"><ele>564.0</ele><time>2026-05-02T10:37:03Z</time></trkpt><trkpt lat="43.1514209724285" lon="12.94438354729822"><ele>567.3333333333334</ele><time>2026-05-02T10:37:04Z</time></trkpt><trkpt lat="43.15152252808214" lon="12.944201394180254"><ele>570.6666666666667</ele><time>2026-05-02T10:37:05Z</time></trkpt><trkpt lat="43.151602205481105" lon="12.944027757818256"><ele>574.0</ele><time>2026-05-02T10:37:06Z</time></trkpt><trkpt lat="43.15169259895595" lon="12.943892161088057"><ele>577.6666666666667</ele><time>2026-05-02T10:37:07Z</time></trkpt><trkpt lat="43.151797908648554" lon="12.943768235072252"><ele>581.3333333333334</ele><time>2026-05-02T10:37:08Z</time></trkpt><trkpt lat="43.151916305975995" lon="12.943630599175162"><ele>585.0</ele><time>2026-05-02T10:37:08.999Z</time></trkpt><trkpt lat="43.15204406881428" lon="12.943498275796587"><ele>586.3333333333334</ele><time>2026-05-02T10:37:09.999Z</time></trkpt><trkpt lat="43.152181026505104" lon="12.943367544656256"><ele>587.6666666666667</ele><time>2026-05-02T10:37:10.999Z</time></trkpt><trkpt lat="43.15231724377746" lon="12.943238451441255"><ele>589.0</ele><time>2026-05-02T10:37:11.999Z</time></trkpt><trkpt lat="43.1524475325213" lon="12.943096163305944"><ele>592.75</ele><time>2026-05-02T10:37:12.999Z</time></trkpt><trkpt lat="43.152582360465836" lon="12.94298111391377"><ele>596.5</ele><time>2026-05-02T10:37:13.999Z</time></trkpt><trkpt lat="43.15269434933513" lon="12.942865242030166"><ele>600.25</ele><time>2026-05-02T10:37:14.999Z</time></trkpt><trkpt lat="43.1527856117636" lon="12.942744277792821"><ele>604.0</ele><time>2026-05-02T10:37:15.999Z</time></trkpt><trkpt lat="43.15287765173304" lon="12.942657306171851"><ele>604.0</ele><time>2026-05-02T10:37:16.999Z</time></trkpt><trkpt lat="43.15293832902594" lon="12.94257943045196"><ele>604.0</ele><time>2026-05-02T10:37:17.999Z</time></trkpt><trkpt lat="43.152971950760616" lon="12.942425043338146"><ele>604.0</ele><time>2026-05-02T10:37:19.999Z</time></trkpt><trkpt lat="43.152870761421994" lon="12.942334006778546"><ele>604.0</ele><time>2026-05-02T10:37:20.999Z</time></trkpt><trkpt lat="43.15273645332782" lon="12.942390033117706"><ele>603.5</ele><time>2026-05-02T10:37:21.999Z</time></trkpt><trkpt lat="43.15261966390748" lon="12.942414305234882"><ele>603.0</ele><time>2026-05-02T10:37:22.999Z</time></trkpt><trkpt lat="43.15248301795066" lon="12.942450416599149"><ele>602.5</ele><time>2026-05-02T10:37:23.999Z</time></trkpt><trkpt lat="43.152341806415045" lon="12.942480847451435"><ele>602.0</ele><time>2026-05-02T10:37:24.999Z</time></trkpt><trkpt lat="43.152228841446544" lon="12.942562649797953"><ele>599.4</ele><time>2026-05-02T10:37:25.999Z</time></trkpt><trkpt lat="43.152123845026566" lon="12.942642045645574"><ele>596.8000000000001</ele><time>2026-05-02T10:37:26.999Z</time></trkpt><trkpt lat="43.152028071256225" lon="12.942733611964371"><ele>594.2</ele><time>2026-05-02T10:37:27.999Z</time></trkpt><trkpt lat="43.151929590261716" lon="12.942765591588488"><ele>591.6</ele><time>2026-05-02T10:37:28.999Z</time></trkpt><trkpt lat="43.15185085117012" lon="12.94279123348366"><ele>589.0</ele><time>2026-05-02T10:37:29.999Z</time></trkpt><trkpt lat="43.15177211826852" lon="12.942808867325946"><ele>589.0</ele><time>2026-05-02T10:37:30.999Z</time></trkpt><trkpt lat="43.151686016286114" lon="12.942826201559376"><ele>589.0</ele><time>2026-05-02T10:37:31.999Z</time></trkpt><trkpt lat="43.15160129993637" lon="12.942848943670407"><ele>589.0</ele><time>2026-05-02T10:37:32.999Z</time></trkpt><trkpt lat="43.15153175953044" lon="12.942872768590256"><ele>589.0</ele><time>2026-05-02T10:37:33.999Z</time></trkpt><trkpt lat="43.15140655626161" lon="12.942912965558877"><ele>589.0</ele><time>2026-05-02T10:37:35.999Z</time></trkpt><trkpt lat="43.151335631193525" lon="12.942928422654449"><ele>589.0</ele><time>2026-05-02T10:37:36.999Z</time></trkpt><trkpt lat="43.15127068427717" lon="12.942938933018015"><ele>590.4</ele><time>2026-05-02T10:37:37.999Z</time></trkpt><trkpt lat="43.151154610486735" lon="12.942959821434535"><ele>591.8</ele><time>2026-05-02T10:37:39.999Z</time></trkpt><trkpt lat="43.151066545732355" lon="12.942975859591042"><ele>593.2</ele><time>2026-05-02T10:37:41.999Z</time></trkpt><trkpt lat="43.15098360521614" lon="12.94299096455621"><ele>594.6</ele><time>2026-05-02T10:37:44.999Z</time></trkpt><trkpt lat="43.150919046874556" lon="12.94300060788445"><ele>596.0</ele><time>2026-05-02T10:37:48.999Z</time></trkpt><trkpt lat="43.151008474648336" lon="12.942950854598202"><ele>596.0</ele><time>2026-05-02T10:37:55.999Z</time></trkpt><trkpt lat="43.15108701004606" lon="12.942912120081877"><ele>596.0</ele><time>2026-05-02T10:37:56.999Z</time></trkpt><trkpt lat="43.15116141922777" lon="12.942857113317435"><ele>596.0</ele><time>2026-05-02T10:37:57.999Z</time></trkpt><trkpt lat="43.15123112722595" lon="12.942806236077532"><ele>596.0</ele><time>2026-05-02T10:37:58.999Z</time></trkpt><trkpt lat="43.15132400008313" lon="12.942745708769174"><ele>596.0</ele><time>2026-05-02T10:37:59.999Z</time></trkpt><trkpt lat="43.15141367592167" lon="12.942696569279844"><ele>596.0</ele><time>2026-05-02T10:38:00.999Z</time></trkpt><trkpt lat="43.151501732994184" lon="12.942639006146957"><ele>594.6</ele><time>2026-05-02T10:38:01.999Z</time></trkpt><trkpt lat="43.15159033107211" lon="12.942569805737264"><ele>593.2</ele><time>2026-05-02T10:38:02.999Z</time></trkpt><trkpt lat="43.151693064093436" lon="12.942517652881774"><ele>591.8</ele><time>2026-05-02T10:38:03.999Z</time></trkpt><trkpt lat="43.15179187858061" lon="12.94246401438018"><ele>590.4</ele><time>2026-05-02T10:38:04.999Z</time></trkpt><trkpt lat="43.1518520622864" lon="12.942417254337387"><ele>589.0</ele><time>2026-05-02T10:38:05.999Z</time></trkpt><trkpt lat="43.151894087831735" lon="12.94234355005256"><ele>594.0</ele><time>2026-05-02T10:38:06.999Z</time></trkpt><trkpt lat="43.15191971928177" lon="12.942148222654428"><ele>599.0</ele><time>2026-05-02T10:38:08.999Z</time></trkpt><trkpt lat="43.15195288815514" lon="12.942055055325492"><ele>604.0</ele><time>2026-05-02T10:38:09.999Z</time></trkpt><trkpt lat="43.152027321823354" lon="12.941972860447283"><ele>609.0</ele><time>2026-05-02T10:38:10.999Z</time></trkpt><trkpt lat="43.15213293351475" lon="12.941887267248108"><ele>614.0</ele><time>2026-05-02T10:38:11.999Z</time></trkpt><trkpt lat="43.15221243256503" lon="12.941767953638557"><ele>616.4</ele><time>2026-05-02T10:38:12.999Z</time></trkpt><trkpt lat="43.15227239529902" lon="12.941667026380715"><ele>618.8</ele><time>2026-05-02T10:38:13.999Z</time></trkpt><trkpt lat="43.15232138260268" lon="12.941550012660581"><ele>621.2</ele><time>2026-05-02T10:38:14.999Z</time></trkpt><trkpt lat="43.152365236972166" lon="12.9414544892764"><ele>623.6</ele><time>2026-05-02T10:38:15.999Z</time></trkpt><trkpt lat="43.1523872604992" lon="12.94134670431492"><ele>626.0</ele><time>2026-05-02T10:38:16.999Z</time></trkpt><trkpt lat="43.15244701117848" lon="12.941244980487987"><ele>626.0</ele><time>2026-05-02T10:38:17.999Z</time></trkpt><trkpt lat="43.15250632261703" lon="12.941153872855141"><ele>626.0</ele><time>2026-05-02T10:38:18.999Z</time></trkpt><trkpt lat="43.15256450493279" lon="12.94107818480055"><ele>626.0</ele><time>2026-05-02T10:38:19.999Z</time></trkpt><trkpt lat="43.15261666732534" lon="12.940986352338223"><ele>626.0</ele><time>2026-05-02T10:38:20.999Z</time></trkpt><trkpt lat="43.15269477457922" lon="12.940911879197555"><ele>626.0</ele><time>2026-05-02T10:38:22.999Z</time></trkpt><trkpt lat="43.152785461801095" lon="12.940806527696191"><ele>633.1666666666666</ele><time>2026-05-02T10:38:24.999Z</time></trkpt><trkpt lat="43.152855939815865" lon="12.940686137203699"><ele>640.3333333333333</ele><time>2026-05-02T10:38:26.999Z</time></trkpt><trkpt lat="43.15293104860748" lon="12.940648423782823"><ele>647.5</ele><time>2026-05-02T10:38:28Z</time></trkpt><trkpt lat="43.15299898337036" lon="12.940615163795133"><ele>654.6666666666666</ele><time>2026-05-02T10:38:29Z</time></trkpt><trkpt lat="43.153072559796186" lon="12.940553026359025"><ele>661.8333333333334</ele><time>2026-05-02T10:38:30Z</time></trkpt><trkpt lat="43.15313751353601" lon="12.940481864607845"><ele>669.0</ele><time>2026-05-02T10:38:31Z</time></trkpt><trkpt lat="43.15319790282985" lon="12.940424559186164"><ele>667.0</ele><time>2026-05-02T10:38:32Z</time></trkpt><trkpt lat="43.15330371573293" lon="12.940295067614478"><ele>665.0</ele><time>2026-05-02T10:38:34Z</time></trkpt><trkpt lat="43.15338615091492" lon="12.940228464573536"><ele>663.0</ele><time>2026-05-02T10:38:35Z</time></trkpt><trkpt lat="43.15345424646026" lon="12.940168076561177"><ele>661.0</ele><time>2026-05-02T10:38:36Z</time></trkpt><trkpt lat="43.15354402799053" lon="12.940120726648523"><ele>659.0</ele><time>2026-05-02T10:38:37Z</time></trkpt><trkpt lat="43.15362838351821" lon="12.940061235476508"><ele>666.1666666666666</ele><time>2026-05-02T10:38:38Z</time></trkpt><trkpt lat="43.15369433251216" lon="12.940009337103323"><ele>673.3333333333333</ele><time>2026-05-02T10:38:39Z</time></trkpt><trkpt lat="43.15377284640583" lon="12.939943415176465"><ele>680.5</ele><time>2026-05-02T10:38:40Z</time></trkpt><trkpt lat="43.15383730106119" lon="12.939873846906998"><ele>687.6666666666666</ele><time>2026-05-02T10:38:41Z</time></trkpt><trkpt lat="43.153898192500755" lon="12.939786295172155"><ele>694.8333333333334</ele><time>2026-05-02T10:38:42Z</time></trkpt><trkpt lat="43.15397322310544" lon="12.939700047651193"><ele>702.0</ele><time>2026-05-02T10:38:43Z</time></trkpt><trkpt lat="43.15402905628418" lon="12.939640195992684"><ele>700.3333333333334</ele><time>2026-05-02T10:38:44Z</time></trkpt><trkpt lat="43.154092070890144" lon="12.939568252060162"><ele>698.6666666666666</ele><time>2026-05-02T10:38:45Z</time></trkpt><trkpt lat="43.154155935194765" lon="12.93953164681025"><ele>697.0</ele><time>2026-05-02T10:38:46Z</time></trkpt><trkpt lat="43.15423287968975" lon="12.939516476149382"><ele>695.3333333333333</ele><time>2026-05-02T10:38:47Z</time></trkpt><trkpt lat="43.15432538964877" lon="12.939474814425441"><ele>693.6666666666666</ele><time>2026-05-02T10:38:48Z</time></trkpt><trkpt lat="43.1544039352772" lon="12.939449603112523"><ele>692.0</ele><time>2026-05-02T10:38:49Z</time></trkpt><trkpt lat="43.15447165650162" lon="12.939441242542145"><ele>692.0</ele><time>2026-05-02T10:38:50Z</time></trkpt><trkpt lat="43.15455676536458" lon="12.939348254253362"><ele>692.0</ele><time>2026-05-02T10:38:52Z</time></trkpt><trkpt lat="43.15459543257625" lon="12.939262355780615"><ele>692.0</ele><time>2026-05-02T10:38:53Z</time></trkpt><trkpt lat="43.154625927976824" lon="12.939159149619153"><ele>692.0</ele><time>2026-05-02T10:38:54Z</time></trkpt><trkpt lat="43.15466493461247" lon="12.939069620423345"><ele>692.0</ele><time>2026-05-02T10:38:55Z</time></trkpt><trkpt lat="43.154709813072586" lon="12.938983071045508"><ele>692.0</ele><time>2026-05-02T10:38:56Z</time></trkpt><trkpt lat="43.154763761463684" lon="12.938888072603113"><ele>696.3333333333333</ele><time>2026-05-02T10:38:57Z</time></trkpt><trkpt lat="43.15482538478239" lon="12.938806587597922"><ele>700.6666666666666</ele><time>2026-05-02T10:38:58Z</time></trkpt><trkpt lat="43.154884303718035" lon="12.93873707030621"><ele>705.0</ele><time>2026-05-02T10:38:59Z</time></trkpt><trkpt lat="43.15495310871801" lon="12.938659224450069"><ele>709.3333333333334</ele><time>2026-05-02T10:39:00Z</time></trkpt><trkpt lat="43.154991211369065" lon="12.938551620134866"><ele>713.6666666666667</ele><time>2026-05-02T10:39:01Z</time></trkpt><trkpt lat="43.155035781909085" lon="12.938433473492395"><ele>718.0</ele><time>2026-05-02T10:39:02Z</time></trkpt><trkpt lat="43.15509908967058" lon="12.93835631814767"><ele>723.5</ele><time>2026-05-02T10:39:03Z</time></trkpt><trkpt lat="43.155160230229605" lon="12.938265450871443"><ele>729.0</ele><time>2026-05-02T10:39:04Z</time></trkpt><trkpt lat="43.15520955463774" lon="12.938184238920941"><ele>734.5</ele><time>2026-05-02T10:39:05Z</time></trkpt><trkpt lat="43.15524915359267" lon="12.938098463559644"><ele>740.0</ele><time>2026-05-02T10:39:06Z</time></trkpt><trkpt lat="43.15527218430391" lon="12.938004021450379"><ele>745.5</ele><time>2026-05-02T10:39:07Z</time></trkpt><trkpt lat="43.15529247915773" lon="12.937910409566516"><ele>751.0</ele><time>2026-05-02T10:39:08Z</time></trkpt><trkpt lat="43.15530162175775" lon="12.937818872442568"><ele>751.0</ele><time>2026-05-02T10:39:09Z</time></trkpt><trkpt lat="43.15530841584443" lon="12.937731698200285"><ele>751.0</ele><time>2026-05-02T10:39:10Z</time></trkpt><trkpt lat="43.1553515941578" lon="12.937640034258218"><ele>751.0</ele><time>2026-05-02T10:39:12Z</time></trkpt><trkpt lat="43.155454595456824" lon="12.937757394184812"><ele>751.0</ele><time>2026-05-02T10:39:14Z</time></trkpt><trkpt lat="43.15551892559039" lon="12.937871252714938"><ele>751.0</ele><time>2026-05-02T10:39:15Z</time></trkpt><trkpt lat="43.155602631347584" lon="12.937919480504423"><ele>751.0</ele><time>2026-05-02T10:39:16Z</time></trkpt><trkpt lat="43.1556778570955" lon="12.937966816449475"><ele>751.0</ele><time>2026-05-02T10:39:17Z</time></trkpt><trkpt lat="43.15577040244944" lon="12.93801015027229"><ele>751.0</ele><time>2026-05-02T10:39:18Z</time></trkpt><trkpt lat="43.155869643048355" lon="12.938078267290653"><ele>751.0</ele><time>2026-05-02T10:39:19Z</time></trkpt><trkpt lat="43.15596093785971" lon="12.938130065598108"><ele>751.0</ele><time>2026-05-02T10:39:19.999Z</time></trkpt><trkpt lat="43.156021750764516" lon="12.93819356965679"><ele>751.6666666666667</ele><time>2026-05-02T10:39:20.999Z</time></trkpt><trkpt lat="43.15604925107356" lon="12.9382848124372"><ele>752.3333333333334</ele><time>2026-05-02T10:39:21.999Z</time></trkpt><trkpt lat="43.15608788728488" lon="12.938356639059753"><ele>753.0</ele><time>2026-05-02T10:39:22.999Z</time></trkpt><trkpt lat="43.156186537438536" lon="12.938359378496571"><ele>753.6666666666666</ele><time>2026-05-02T10:39:23.999Z</time></trkpt><trkpt lat="43.15629041430665" lon="12.938345708054946"><ele>754.3333333333333</ele><time>2026-05-02T10:39:24.999Z</time></trkpt><trkpt lat="43.15639341508991" lon="12.938341741964608"><ele>755.0</ele><time>2026-05-02T10:39:25.999Z</time></trkpt><trkpt lat="43.156489032921066" lon="12.938328557153834"><ele>759.1666666666666</ele><time>2026-05-02T10:39:26.999Z</time></trkpt><trkpt lat="43.15657982765212" lon="12.93830738487379"><ele>763.3333333333333</ele><time>2026-05-02T10:39:27.999Z</time></trkpt><trkpt lat="43.15665933399724" lon="12.938274903691445"><ele>767.5</ele><time>2026-05-02T10:39:28.999Z</time></trkpt><trkpt lat="43.156755391659686" lon="12.938259334620787"><ele>771.6666666666666</ele><time>2026-05-02T10:39:29.999Z</time></trkpt><trkpt lat="43.1568339538589" lon="12.938297595479954"><ele>775.8333333333334</ele><time>2026-05-02T10:39:30.999Z</time></trkpt><trkpt lat="43.156909026380596" lon="12.938331590901095"><ele>780.0</ele><time>2026-05-02T10:39:31.999Z</time></trkpt><trkpt lat="43.15699515196698" lon="12.938321159063102"><ele>780.0</ele><time>2026-05-02T10:39:32.999Z</time></trkpt><trkpt lat="43.157066188081565" lon="12.938328248152192"><ele>780.0</ele><time>2026-05-02T10:39:33.999Z</time></trkpt><trkpt lat="43.15712970783328" lon="12.938396849147464"><ele>780.0</ele><time>2026-05-02T10:39:34.999Z</time></trkpt><trkpt lat="43.157215114949416" lon="12.938482671604959"><ele>780.0</ele><time>2026-05-02T10:39:35.999Z</time></trkpt><trkpt lat="43.1573162607021" lon="12.938552404806096"><ele>780.0</ele><time>2026-05-02T10:39:36.999Z</time></trkpt><trkpt lat="43.15741448261417" lon="12.938597674185047"><ele>779.8</ele><time>2026-05-02T10:39:37.999Z</time></trkpt><trkpt lat="43.15749757943767" lon="12.938622296155545"><ele>779.6</ele><time>2026-05-02T10:39:38.999Z</time></trkpt><trkpt lat="43.157599264008304" lon="12.938615940164222"><ele>779.4000000000001</ele><time>2026-05-02T10:39:39.999Z</time></trkpt><trkpt lat="43.15770314198907" lon="12.938591837390952"><ele>779.2</ele><time>2026-05-02T10:39:40.999Z</time></trkpt><trkpt lat="43.15780787231156" lon="12.938583901216766"><ele>779.0</ele><time>2026-05-02T10:39:41.999Z</time></trkpt><trkpt lat="43.15791132702624" lon="12.938576575586744"><ele>779.0</ele><time>2026-05-02T10:39:42.999Z</time></trkpt><trkpt lat="43.1579983064473" lon="12.9385740160568"><ele>779.0</ele><time>2026-05-02T10:39:43.999Z</time></trkpt><trkpt lat="43.15813313838278" lon="12.938609691652992"><ele>779.0</ele><time>2026-05-02T10:39:45.999Z</time></trkpt><trkpt lat="43.15820495892051" lon="12.938598486913818"><ele>779.0</ele><time>2026-05-02T10:39:46.999Z</time></trkpt><trkpt lat="43.15827814535387" lon="12.938557176510347"><ele>779.0</ele><time>2026-05-02T10:39:47.999Z</time></trkpt><trkpt lat="43.15835133075724" lon="12.938528379650613"><ele>782.5000000000001</ele><time>2026-05-02T10:39:48.999Z</time></trkpt><trkpt lat="43.1584168209773" lon="12.938530694445836"><ele>786.0</ele><time>2026-05-02T10:39:49.999Z</time></trkpt><trkpt lat="43.15854600236602" lon="12.938548597572206"><ele>789.5</ele><time>2026-05-02T10:39:51.999Z</time></trkpt><trkpt lat="43.15860893829522" lon="12.938527436993951"><ele>793.0</ele><time>2026-05-02T10:39:52.999Z</time></trkpt><trkpt lat="43.15867984091561" lon="12.938508698779449"><ele>796.5000000000001</ele><time>2026-05-02T10:39:53.999Z</time></trkpt><trkpt lat="43.158747659660506" lon="12.93851196825668"><ele>800.0</ele><time>2026-05-02T10:39:54.999Z</time></trkpt><trkpt lat="43.158823106207166" lon="12.938511579762498"><ele>800.0000000000001</ele><time>2026-05-02T10:39:55.999Z</time></trkpt><trkpt lat="43.158908638102666" lon="12.938508858583402"><ele>800.0</ele><time>2026-05-02T10:39:56.999Z</time></trkpt><trkpt lat="43.15899912773769" lon="12.938500405856049"><ele>800.0</ele><time>2026-05-02T10:39:57.999Z</time></trkpt><trkpt lat="43.159074268303925" lon="12.93848249677336"><ele>800.0</ele><time>2026-05-02T10:39:58.999Z</time></trkpt><trkpt lat="43.15919226749045" lon="12.938436049659611"><ele>800.0000000000001</ele><time>2026-05-02T10:40:00.999Z</time></trkpt><trkpt lat="43.15926212406876" lon="12.938406855829784"><ele>800.0</ele><time>2026-05-02T10:40:01.999Z</time></trkpt><trkpt lat="43.15932651512728" lon="12.93842073445079"><ele>804.6666666666667</ele><time>2026-05-02T10:40:02.999Z</time></trkpt><trkpt lat="43.15940474450416" lon="12.938441996536731"><ele>809.3333333333334</ele><time>2026-05-02T10:40:03.999Z</time></trkpt><trkpt lat="43.15946991775354" lon="12.938403707765877"><ele>814.0</ele><time>2026-05-02T10:40:04.999Z</time></trkpt><trkpt lat="43.15958546495434" lon="12.938420599472156"><ele>818.6666666666667</ele><time>2026-05-02T10:40:06.999Z</time></trkpt><trkpt lat="43.15959135353908" lon="12.938530451742349"><ele>823.3333333333334</ele><time>2026-05-02T10:40:07.999Z</time></trkpt><trkpt lat="43.15958786766857" lon="12.938634510077113"><ele>828.0</ele><time>2026-05-02T10:40:08.999Z</time></trkpt><trkpt lat="43.15965238153679" lon="12.938723773701593"><ele>828.0</ele><time>2026-05-02T10:40:10.999Z</time></trkpt><trkpt lat="43.159760954471984" lon="12.938727825649176"><ele>828.0</ele><time>2026-05-02T10:40:12.999Z</time></trkpt><trkpt lat="43.1598990555722" lon="12.938700750668561"><ele>828.0</ele><time>2026-05-02T10:40:14.999Z</time></trkpt><trkpt lat="43.15997003946403" lon="12.938673363390219"><ele>828.0</ele><time>2026-05-02T10:40:15.999Z</time></trkpt><trkpt lat="43.16003542423142" lon="12.938638729152855"><ele>828.0</ele><time>2026-05-02T10:40:16.999Z</time></trkpt><trkpt lat="43.16011682255193" lon="12.938658709671206"><ele>833.5</ele><time>2026-05-02T10:40:17.999Z</time></trkpt><trkpt lat="43.16019606820294" lon="12.938682042659806"><ele>839.0</ele><time>2026-05-02T10:40:18.999Z</time></trkpt><trkpt lat="43.16026798988557" lon="12.938667411939543"><ele>844.5</ele><time>2026-05-02T10:40:19.999Z</time></trkpt><trkpt lat="43.160347400891595" lon="12.938630247440566"><ele>850.0</ele><time>2026-05-02T10:40:20.999Z</time></trkpt><trkpt lat="43.16042257222487" lon="12.938609237046574"><ele>855.5</ele><time>2026-05-02T10:40:21.999Z</time></trkpt><trkpt lat="43.160517071667215" lon="12.938582646117393"><ele>861.0</ele><time>2026-05-02T10:40:22.999Z</time></trkpt><trkpt lat="43.16058866534974" lon="12.938556204828492"><ele>868.4</ele><time>2026-05-02T10:40:23.999Z</time></trkpt><trkpt lat="43.16072130665231" lon="12.938629306360392"><ele>875.8</ele><time>2026-05-02T10:40:25.999Z</time></trkpt><trkpt lat="43.16078130887789" lon="12.938722181295745"><ele>883.1999999999999</ele><time>2026-05-02T10:40:27.999Z</time></trkpt><trkpt lat="43.16074114948072" lon="12.938852973307476"><ele>890.5999999999999</ele><time>2026-05-02T10:40:29.999Z</time></trkpt><trkpt lat="43.16074983609192" lon="12.938947026887094"><ele>898.0</ele><time>2026-05-02T10:40:30.999Z</time></trkpt><trkpt lat="43.160778577677235" lon="12.939039150387805"><ele>897.9999999999999</ele><time>2026-05-02T10:40:31.999Z</time></trkpt><trkpt lat="43.160824035616486" lon="12.939106352805236"><ele>898.0</ele><time>2026-05-02T10:40:32.999Z</time></trkpt><trkpt lat="43.16092742298975" lon="12.93910319906285"><ele>898.0</ele><time>2026-05-02T10:40:35Z</time></trkpt><trkpt lat="43.16093328862409" lon="12.93901704761484"><ele>898.0</ele><time>2026-05-02T10:40:37Z</time></trkpt><trkpt lat="43.16098355206415" lon="12.938943432136975"><ele>897.9999999999999</ele><time>2026-05-02T10:41:25Z</time></trkpt><trkpt lat="43.16103216266399" lon="12.938862043339746"><ele>898.0</ele><time>2026-05-02T10:41:26Z</time></trkpt><trkpt lat="43.161088152582735" lon="12.938794624304975"><ele>898.0</ele><time>2026-05-02T10:41:27Z</time></trkpt><trkpt lat="43.16115348418452" lon="12.938774448050756"><ele>898.0</ele><time>2026-05-02T10:41:28Z</time></trkpt><trkpt lat="43.16123482500725" lon="12.938786966906934"><ele>898.0</ele><time>2026-05-02T10:41:29Z</time></trkpt><trkpt lat="43.161326643326724" lon="12.938806517852823"><ele>898.0</ele><time>2026-05-02T10:41:30Z</time></trkpt><trkpt lat="43.16142981552541" lon="12.938844880589071"><ele>898.0</ele><time>2026-05-02T10:41:30.999Z</time></trkpt><trkpt lat="43.16154011776648" lon="12.938868882957877"><ele>902.0</ele><time>2026-05-02T10:41:31.999Z</time></trkpt><trkpt lat="43.16166393324251" lon="12.938891823612819"><ele>906.0</ele><time>2026-05-02T10:41:32.999Z</time></trkpt><trkpt lat="43.16176962502811" lon="12.938916164808209"><ele>910.0</ele><time>2026-05-02T10:41:33.999Z</time></trkpt><trkpt lat="43.16188418851772" lon="12.938961706779606"><ele>914.0</ele><time>2026-05-02T10:41:34.999Z</time></trkpt><trkpt lat="43.1620215264558" lon="12.93900204023818"><ele>914.0</ele><time>2026-05-02T10:41:35.999Z</time></trkpt><trkpt lat="43.16213887198405" lon="12.939019297639158"><ele>914.0000000000001</ele><time>2026-05-02T10:41:36.999Z</time></trkpt><trkpt lat="43.16223255175201" lon="12.939047347219558"><ele>914.0000000000001</ele><time>2026-05-02T10:41:37.999Z</time></trkpt><trkpt lat="43.16232141795295" lon="12.93907884558249"><ele>914.0</ele><time>2026-05-02T10:41:38.999Z</time></trkpt><trkpt lat="43.16241225494988" lon="12.939108826068807"><ele>914.0</ele><time>2026-05-02T10:41:39.999Z</time></trkpt><trkpt lat="43.16250831772575" lon="12.9391553732828"><ele>911.2</ele><time>2026-05-02T10:41:40.999Z</time></trkpt><trkpt lat="43.162592603552135" lon="12.939197741821625"><ele>908.4000000000001</ele><time>2026-05-02T10:41:41.999Z</time></trkpt><trkpt lat="43.16267774889586" lon="12.939261007867666"><ele>905.6</ele><time>2026-05-02T10:41:42.999Z</time></trkpt><trkpt lat="43.162769284428855" lon="12.939303889065611"><ele>902.8</ele><time>2026-05-02T10:41:43.999Z</time></trkpt><trkpt lat="43.16285303348153" lon="12.939361918587025"><ele>900.0</ele><time>2026-05-02T10:41:44.999Z</time></trkpt><trkpt lat="43.16293919385245" lon="12.939447283268086"><ele>900.0</ele><time>2026-05-02T10:41:45.999Z</time></trkpt><trkpt lat="43.163023448700486" lon="12.939518911546978"><ele>900.0</ele><time>2026-05-02T10:41:46.999Z</time></trkpt><trkpt lat="43.163078560369975" lon="12.93957056328053"><ele>900.0</ele><time>2026-05-02T10:41:47.999Z</time></trkpt><trkpt lat="43.16312416239174" lon="12.939635152881577"><ele>900.0</ele><time>2026-05-02T10:41:48.999Z</time></trkpt><trkpt lat="43.16314749730413" lon="12.939802949565275"><ele>900.0</ele><time>2026-05-02T10:41:50.999Z</time></trkpt><trkpt lat="43.16311775076224" lon="12.939886217670898"><ele>900.0</ele><time>2026-05-02T10:41:51.999Z</time></trkpt><trkpt lat="43.16309195544428" lon="12.939984582611686"><ele>899.4</ele><time>2026-05-02T10:41:52.999Z</time></trkpt><trkpt lat="43.163088616488245" lon="12.940154788016219"><ele>898.8</ele><time>2026-05-02T10:41:53.999Z</time></trkpt><trkpt lat="43.16310983107683" lon="12.94024902935669"><ele>898.2</ele><time>2026-05-02T10:41:54.999Z</time></trkpt><trkpt lat="43.16317105116087" lon="12.940306162327158"><ele>897.6</ele><time>2026-05-02T10:41:56.999Z</time></trkpt><trkpt lat="43.16323389087777" lon="12.94025539444483"><ele>897.0</ele><time>2026-05-02T10:41:57.999Z</time></trkpt><trkpt lat="43.163300773740346" lon="12.94014057230042"><ele>891.0</ele><time>2026-05-02T10:41:58.999Z</time></trkpt><trkpt lat="43.16338225905085" lon="12.940014451735493"><ele>885.0</ele><time>2026-05-02T10:41:59.999Z</time></trkpt><trkpt lat="43.16345972220351" lon="12.939906566191821"><ele>879.0</ele><time>2026-05-02T10:42:00.999Z</time></trkpt><trkpt lat="43.16351226239145" lon="12.939817560376968"><ele>873.0</ele><time>2026-05-02T10:42:01.999Z</time></trkpt><trkpt lat="43.16354890985837" lon="12.939722252099951"><ele>867.0</ele><time>2026-05-02T10:42:02.999Z</time></trkpt><trkpt lat="43.16358915206633" lon="12.939631665210188"><ele>867.0</ele><time>2026-05-02T10:42:03.999Z</time></trkpt><trkpt lat="43.16360669548769" lon="12.939526892945445"><ele>867.0</ele><time>2026-05-02T10:42:04.999Z</time></trkpt><trkpt lat="43.16363368750566" lon="12.939387196929445"><ele>867.0</ele><time>2026-05-02T10:42:05.999Z</time></trkpt><trkpt lat="43.163647746447694" lon="12.939284341663049"><ele>867.0</ele><time>2026-05-02T10:42:06.999Z</time></trkpt><trkpt lat="43.16367927512771" lon="12.939076320001698"><ele>867.0</ele><time>2026-05-02T10:42:08.999Z</time></trkpt><trkpt lat="43.16366235965243" lon="12.938978449565841"><ele>867.3333333333334</ele><time>2026-05-02T10:42:09.999Z</time></trkpt><trkpt lat="43.163638799144934" lon="12.938875067912983"><ele>867.6666666666667</ele><time>2026-05-02T10:42:10.999Z</time></trkpt><trkpt lat="43.16361077434398" lon="12.938783131249593"><ele>868.0</ele><time>2026-05-02T10:42:11.999Z</time></trkpt><trkpt lat="43.16357693505083" lon="12.938705105380897"><ele>868.3333333333334</ele><time>2026-05-02T10:42:12.999Z</time></trkpt><trkpt lat="43.163544005063045" lon="12.93862885824112"><ele>868.6666666666667</ele><time>2026-05-02T10:42:13.999Z</time></trkpt><trkpt lat="43.163503005399875" lon="12.938545239468494"><ele>869.0</ele><time>2026-05-02T10:42:14.999Z</time></trkpt><trkpt lat="43.1635192129791" lon="12.938402460079343"><ele>869.0000000000001</ele><time>2026-05-02T10:42:16.999Z</time></trkpt><trkpt lat="43.16358145033521" lon="12.938386151552955"><ele>869.0</ele><time>2026-05-02T10:42:17.999Z</time></trkpt><trkpt lat="43.163646462338455" lon="12.93835435483418"><ele>869.0</ele><time>2026-05-02T10:42:18.999Z</time></trkpt><trkpt lat="43.163710084620035" lon="12.938242740521849"><ele>869.0</ele><time>2026-05-02T10:42:19.999Z</time></trkpt><trkpt lat="43.16378718447294" lon="12.938212556150646"><ele>869.0000000000001</ele><time>2026-05-02T10:42:20.999Z</time></trkpt><trkpt lat="43.163844448066726" lon="12.938163779411303"><ele>869.0</ele><time>2026-05-02T10:42:21.999Z</time></trkpt><trkpt lat="43.163897696245975" lon="12.938068661206122"><ele>869.0</ele><time>2026-05-02T10:42:22.999Z</time></trkpt><trkpt lat="43.1639422962894" lon="12.93794432381529"><ele>869.0000000000001</ele><time>2026-05-02T10:42:23.999Z</time></trkpt><trkpt lat="43.16400066388379" lon="12.937818712719508"><ele>869.0000000000001</ele><time>2026-05-02T10:42:24.999Z</time></trkpt><trkpt lat="43.164056861883644" lon="12.937713284553896"><ele>869.0</ele><time>2026-05-02T10:42:25.999Z</time></trkpt><trkpt lat="43.16410508064601" lon="12.937598020551231"><ele>869.0</ele><time>2026-05-02T10:42:26.999Z</time></trkpt><trkpt lat="43.1641407664421" lon="12.937493104091681"><ele>864.4000000000001</ele><time>2026-05-02T10:42:27.999Z</time></trkpt><trkpt lat="43.164171650190326" lon="12.937387510309796"><ele>859.8000000000001</ele><time>2026-05-02T10:42:28.999Z</time></trkpt><trkpt lat="43.164226606146215" lon="12.937240301165817"><ele>855.2</ele><time>2026-05-02T10:42:30.999Z</time></trkpt><trkpt lat="43.1642731008974" lon="12.937110412407964"><ele>850.5999999999999</ele><time>2026-05-02T10:42:32.999Z</time></trkpt><trkpt lat="43.16431435623545" lon="12.937028987577659"><ele>846.0</ele><time>2026-05-02T10:42:34.999Z</time></trkpt><trkpt lat="43.16435944908771" lon="12.93695550592848"><ele>846.0</ele><time>2026-05-02T10:42:37.999Z</time></trkpt><trkpt lat="43.164195404224294" lon="12.937007268025773"><ele>846.0</ele><time>2026-05-02T10:42:42Z</time></trkpt><trkpt lat="43.16410721417519" lon="12.936990544771302"><ele>846.0</ele><time>2026-05-02T10:42:43Z</time></trkpt><trkpt lat="43.164088241200574" lon="12.936828728266352"><ele>846.0</ele><time>2026-05-02T10:42:45Z</time></trkpt><trkpt lat="43.16411048918717" lon="12.936737493126977"><ele>846.0</ele><time>2026-05-02T10:42:46Z</time></trkpt><trkpt lat="43.164130540571925" lon="12.936595947649577"><ele>850.0</ele><time>2026-05-02T10:42:48Z</time></trkpt><trkpt lat="43.1641449150916" lon="12.936498850162634"><ele>854.0</ele><time>2026-05-02T10:42:49Z</time></trkpt><trkpt lat="43.16414888848329" lon="12.936400057221732"><ele>858.0</ele><time>2026-05-02T10:42:50Z</time></trkpt><trkpt lat="43.16418253433914" lon="12.936301836225715"><ele>862.0</ele><time>2026-05-02T10:42:51Z</time></trkpt><trkpt lat="43.164227370301454" lon="12.93619375199973"><ele>866.0</ele><time>2026-05-02T10:42:52Z</time></trkpt><trkpt lat="43.16425357672731" lon="12.936088663686379"><ele>870.0</ele><time>2026-05-02T10:42:53Z</time></trkpt><trkpt lat="43.16427225559904" lon="12.935980782442503"><ele>870.0</ele><time>2026-05-02T10:42:54Z</time></trkpt><trkpt lat="43.16429334832477" lon="12.935893104514976"><ele>870.0</ele><time>2026-05-02T10:42:55Z</time></trkpt><trkpt lat="43.16433975814689" lon="12.93577826045998"><ele>870.0</ele><time>2026-05-02T10:42:56Z</time></trkpt><trkpt lat="43.1643946856381" lon="12.93564811602277"><ele>870.0</ele><time>2026-05-02T10:42:57Z</time></trkpt><trkpt lat="43.164432037024945" lon="12.935528323123773"><ele>870.0</ele><time>2026-05-02T10:42:58Z</time></trkpt><trkpt lat="43.164460152021455" lon="12.935426262172243"><ele>870.0</ele><time>2026-05-02T10:42:59Z</time></trkpt><trkpt lat="43.16448719430489" lon="12.935320986402902"><ele>874.4</ele><time>2026-05-02T10:43:00Z</time></trkpt><trkpt lat="43.16450609532728" lon="12.935207493294703"><ele>878.8</ele><time>2026-05-02T10:43:01Z</time></trkpt><trkpt lat="43.16453927199543" lon="12.935111082639027"><ele>883.2</ele><time>2026-05-02T10:43:02Z</time></trkpt><trkpt lat="43.16459595626409" lon="12.934987411857453"><ele>887.6</ele><time>2026-05-02T10:43:03Z</time></trkpt><trkpt lat="43.16467793165488" lon="12.934853454840471"><ele>892.0</ele><time>2026-05-02T10:43:04Z</time></trkpt><trkpt lat="43.16475880421918" lon="12.934713071581113"><ele>892.4999999999999</ele><time>2026-05-02T10:43:05Z</time></trkpt><trkpt lat="43.1648112784139" lon="12.93461148317773"><ele>893.0</ele><time>2026-05-02T10:43:06Z</time></trkpt><trkpt lat="43.164868051672585" lon="12.934527671375452"><ele>893.5</ele><time>2026-05-02T10:43:07Z</time></trkpt><trkpt lat="43.16493486558474" lon="12.934481447222925"><ele>894.0</ele><time>2026-05-02T10:43:08Z</time></trkpt><trkpt lat="43.16501378311799" lon="12.934434142850568"><ele>894.4999999999999</ele><time>2026-05-02T10:43:09Z</time></trkpt><trkpt lat="43.165091067760066" lon="12.934390965587719"><ele>895.0</ele><time>2026-05-02T10:43:10Z</time></trkpt><trkpt lat="43.165154759171095" lon="12.934343200224871"><ele>894.9999999999999</ele><time>2026-05-02T10:43:11Z</time></trkpt><trkpt lat="43.165208263150255" lon="12.934294684576285"><ele>895.0</ele><time>2026-05-02T10:43:12Z</time></trkpt><trkpt lat="43.165288905561525" lon="12.934235657951149"><ele>895.0</ele><time>2026-05-02T10:43:13Z</time></trkpt><trkpt lat="43.16537182459583" lon="12.934198214912524"><ele>895.0</ele><time>2026-05-02T10:43:14Z</time></trkpt><trkpt lat="43.16544927779201" lon="12.934175945275058"><ele>894.9999999999999</ele><time>2026-05-02T10:43:15Z</time></trkpt><trkpt lat="43.16553346181608" lon="12.934157504303734"><ele>895.0</ele><time>2026-05-02T10:43:16Z</time></trkpt><trkpt lat="43.165600283002625" lon="12.93413051298407"><ele>899.0</ele><time>2026-05-02T10:43:17Z</time></trkpt><trkpt lat="43.16567426261475" lon="12.934100124473115"><ele>903.0</ele><time>2026-05-02T10:43:18Z</time></trkpt><trkpt lat="43.165750831722" lon="12.934068657524895"><ele>907.0</ele><time>2026-05-02T10:43:19Z</time></trkpt><trkpt lat="43.165815120991425" lon="12.93404827953682"><ele>911.0</ele><time>2026-05-02T10:43:20Z</time></trkpt><trkpt lat="43.16589061425689" lon="12.93401437732842"><ele>915.0</ele><time>2026-05-02T10:43:21Z</time></trkpt><trkpt lat="43.16595425996754" lon="12.933987350779958"><ele>919.0</ele><time>2026-05-02T10:43:22Z</time></trkpt><trkpt lat="43.16601952557354" lon="12.933975592418268"><ele>923.0</ele><time>2026-05-02T10:43:23Z</time></trkpt><trkpt lat="43.16612687863036" lon="12.93389488218535"><ele>923.0</ele><time>2026-05-02T10:43:25Z</time></trkpt><trkpt lat="43.166190348003305" lon="12.933861892461636"><ele>923.0</ele><time>2026-05-02T10:43:26Z</time></trkpt><trkpt lat="43.16629228156844" lon="12.93380509332006"><ele>923.0</ele><time>2026-05-02T10:43:28Z</time></trkpt><trkpt lat="43.166405247398885" lon="12.933724543391817"><ele>923.0</ele><time>2026-05-02T10:43:30Z</time></trkpt><trkpt lat="43.16647360137159" lon="12.933672819676739"><ele>923.0</ele><time>2026-05-02T10:43:31Z</time></trkpt><trkpt lat="43.16654874909189" lon="12.93356095091434"><ele>924.3333333333334</ele><time>2026-05-02T10:43:33Z</time></trkpt><trkpt lat="43.16658200283335" lon="12.933426501531285"><ele>925.6666666666667</ele><time>2026-05-02T10:43:35Z</time></trkpt><trkpt lat="43.166548463843846" lon="12.933290321632448"><ele>927.0</ele><time>2026-05-02T10:43:37Z</time></trkpt><trkpt lat="43.16652036652958" lon="12.93319445443065"><ele>928.3333333333333</ele><time>2026-05-02T10:43:38Z</time></trkpt><trkpt lat="43.166505989676445" lon="12.933109483727819"><ele>929.6666666666666</ele><time>2026-05-02T10:43:39Z</time></trkpt><trkpt lat="43.166489663271435" lon="12.933022072043016"><ele>931.0</ele><time>2026-05-02T10:43:40Z</time></trkpt><trkpt lat="43.16646772701807" lon="12.932930601377588"><ele>936.6666666666666</ele><time>2026-05-02T10:43:41Z</time></trkpt><trkpt lat="43.166432431005134" lon="12.932839660109597"><ele>942.3333333333333</ele><time>2026-05-02T10:43:41.999Z</time></trkpt><trkpt lat="43.166401633551565" lon="12.932671018139025"><ele>948.0</ele><time>2026-05-02T10:43:43.999Z</time></trkpt><trkpt lat="43.16639633164725" lon="12.932569021117448"><ele>953.6666666666667</ele><time>2026-05-02T10:43:44.999Z</time></trkpt><trkpt lat="43.166393744011614" lon="12.932437593582653"><ele>959.3333333333334</ele><time>2026-05-02T10:43:45.999Z</time></trkpt><trkpt lat="43.166389871621966" lon="12.93233409046583"><ele>965.0</ele><time>2026-05-02T10:43:46.999Z</time></trkpt><trkpt lat="43.16637357861601" lon="12.93224407272174"><ele>969.5</ele><time>2026-05-02T10:43:47.999Z</time></trkpt><trkpt lat="43.1663615891319" lon="12.932100636773088"><ele>974.0</ele><time>2026-05-02T10:43:49.999Z</time></trkpt><trkpt lat="43.16633397750202" lon="12.931934723238273"><ele>978.5</ele><time>2026-05-02T10:43:51.999Z</time></trkpt><trkpt lat="43.16638505980318" lon="12.931782690488236"><ele>983.0</ele><time>2026-05-02T10:43:53.999Z</time></trkpt><trkpt lat="43.16642591248982" lon="12.931612058991217"><ele>983.2857142857142</ele><time>2026-05-02T10:43:55.999Z</time></trkpt><trkpt lat="43.16645958997275" lon="12.931503382986223"><ele>983.5714285714286</ele><time>2026-05-02T10:43:56.999Z</time></trkpt><trkpt lat="43.166507543208446" lon="12.931424106056562"><ele>983.8571428571429</ele><time>2026-05-02T10:43:57.999Z</time></trkpt><trkpt lat="43.1665630604794" lon="12.931362592220536"><ele>984.1428571428571</ele><time>2026-05-02T10:43:58.999Z</time></trkpt><trkpt lat="43.16661860247311" lon="12.931318137777197"><ele>984.4285714285716</ele><time>2026-05-02T10:43:59.999Z</time></trkpt><trkpt lat="43.166657966436006" lon="12.931234844796114"><ele>984.7142857142858</ele><time>2026-05-02T10:44:05.999Z</time></trkpt><trkpt lat="43.166707095429025" lon="12.931169613095603"><ele>985.0</ele><time>2026-05-02T10:44:08.999Z</time></trkpt><trkpt lat="43.16678168163229" lon="12.93109715316574"><ele>981.1666666666666</ele><time>2026-05-02T10:44:11.999Z</time></trkpt><trkpt lat="43.16686074415996" lon="12.931039117390483"><ele>977.3333333333333</ele><time>2026-05-02T10:44:13.999Z</time></trkpt><trkpt lat="43.16693888195171" lon="12.931001546887112"><ele>973.5</ele><time>2026-05-02T10:44:16.999Z</time></trkpt><trkpt lat="43.16700258651259" lon="12.930983871091716"><ele>969.6666666666667</ele><time>2026-05-02T10:44:18.999Z</time></trkpt><trkpt lat="43.16710263225403" lon="12.930970417475535"><ele>965.8333333333334</ele><time>2026-05-02T10:44:21.999Z</time></trkpt><trkpt lat="43.16716358534954" lon="12.930947246069083"><ele>962.0</ele><time>2026-05-02T10:44:27.999Z</time></trkpt><trkpt lat="43.16723517529211" lon="12.930948767664741"><ele>962.0000000000001</ele><time>2026-05-02T10:44:32.999Z</time></trkpt><trkpt lat="43.16731360362939" lon="12.93093279751387"><ele>962.0</ele><time>2026-05-02T10:44:37.999Z</time></trkpt><trkpt lat="43.167391753705864" lon="12.930869006847436"><ele>962.0</ele><time>2026-05-02T10:44:39.999Z</time></trkpt><trkpt lat="43.1674177253982" lon="12.930761340029314"><ele>962.0</ele><time>2026-05-02T10:45:11Z</time></trkpt><trkpt lat="43.167380776203466" lon="12.930682504140675"><ele>962.0000000000001</ele><time>2026-05-02T10:45:13Z</time></trkpt><trkpt lat="43.16734963030159" lon="12.930607248331185"><ele>962.0</ele><time>2026-05-02T10:45:15Z</time></trkpt><trkpt lat="43.16728301082656" lon="12.930548136082235"><ele>966.6666666666667</ele><time>2026-05-02T10:45:17Z</time></trkpt><trkpt lat="43.167219704752696" lon="12.930505985766246"><ele>971.3333333333334</ele><time>2026-05-02T10:45:18Z</time></trkpt><trkpt lat="43.167159101175784" lon="12.930466654570186"><ele>976.0</ele><time>2026-05-02T10:45:19Z</time></trkpt><trkpt lat="43.16709086931497" lon="12.930433531884773"><ele>980.6666666666667</ele><time>2026-05-02T10:45:20Z</time></trkpt><trkpt lat="43.16701669867888" lon="12.930400174661283"><ele>985.3333333333334</ele><time>2026-05-02T10:45:21Z</time></trkpt><trkpt lat="43.16693461225477" lon="12.930345323762277"><ele>990.0</ele><time>2026-05-02T10:45:22Z</time></trkpt><trkpt lat="43.16686052816748" lon="12.93032114848259"><ele>990.0</ele><time>2026-05-02T10:45:23Z</time></trkpt><trkpt lat="43.166788330337916" lon="12.930278925591509"><ele>990.0</ele><time>2026-05-02T10:45:24Z</time></trkpt><trkpt lat="43.166678113806604" lon="12.930239759762157"><ele>990.0</ele><time>2026-05-02T10:45:26Z</time></trkpt><trkpt lat="43.166613395419844" lon="12.930227817315515"><ele>990.0</ele><time>2026-05-02T10:45:28Z</time></trkpt><trkpt lat="43.16653671196131" lon="12.930204016519356"><ele>990.0</ele><time>2026-05-02T10:45:30Z</time></trkpt><trkpt lat="43.16646924890421" lon="12.930198095092729"><ele>990.0</ele><time>2026-05-02T10:45:32Z</time></trkpt><trkpt lat="43.16638554309352" lon="12.930154924701828"><ele>992.8333333333334</ele><time>2026-05-02T10:45:35Z</time></trkpt><trkpt lat="43.16629330080924" lon="12.930133136059633"><ele>995.6666666666667</ele><time>2026-05-02T10:45:37Z</time></trkpt><trkpt lat="43.166197450616195" lon="12.930073177939697"><ele>998.5</ele><time>2026-05-02T10:45:39Z</time></trkpt><trkpt lat="43.16613125036188" lon="12.930030025143807"><ele>1001.3333333333334</ele><time>2026-05-02T10:45:40Z</time></trkpt><trkpt lat="43.166070916324536" lon="12.929998701420397"><ele>1004.1666666666667</ele><time>2026-05-02T10:45:41Z</time></trkpt><trkpt lat="43.16600967205898" lon="12.929970964453872"><ele>1007.0</ele><time>2026-05-02T10:45:42Z</time></trkpt><trkpt lat="43.16593965338462" lon="12.929932218666163"><ele>1008.8333333333334</ele><time>2026-05-02T10:45:43Z</time></trkpt><trkpt lat="43.16587027908134" lon="12.929893400066902"><ele>1010.6666666666667</ele><time>2026-05-02T10:45:44Z</time></trkpt><trkpt lat="43.16580515428064" lon="12.9298595643004"><ele>1012.5</ele><time>2026-05-02T10:45:45Z</time></trkpt><trkpt lat="43.1657137136209" lon="12.929841216383416"><ele>1014.3333333333333</ele><time>2026-05-02T10:45:47Z</time></trkpt><trkpt lat="43.16564826086901" lon="12.929873219261077"><ele>1016.1666666666666</ele><time>2026-05-02T10:45:48Z</time></trkpt><trkpt lat="43.16557693683241" lon="12.929858877032661"><ele>1018.0</ele><time>2026-05-02T10:45:50Z</time></trkpt><trkpt lat="43.16550122557751" lon="12.929888605742871"><ele>1022.4999999999999</ele><time>2026-05-02T10:46:08.999Z</time></trkpt><trkpt lat="43.165435945614604" lon="12.929888360735784"><ele>1027.0</ele><time>2026-05-02T10:46:28.999Z</time></trkpt><trkpt lat="43.16535102518638" lon="12.929871402976861"><ele>1031.5</ele><time>2026-05-02T10:46:30.999Z</time></trkpt><trkpt lat="43.16525394630694" lon="12.929787281197385"><ele>1036.0</ele><time>2026-05-02T10:46:32.999Z</time></trkpt><trkpt lat="43.165198109481565" lon="12.929737616456542"><ele>1040.5</ele><time>2026-05-02T10:46:33.999Z</time></trkpt><trkpt lat="43.16512286799609" lon="12.929720032181303"><ele>1045.0</ele><time>2026-05-02T10:46:34.999Z</time></trkpt><trkpt lat="43.16505493519847" lon="12.929750322916904"><ele>1045.0</ele><time>2026-05-02T10:46:35.999Z</time></trkpt><trkpt lat="43.16494865995118" lon="12.929798262896941"><ele>1045.0</ele><time>2026-05-02T10:46:37.999Z</time></trkpt><trkpt lat="43.16488173115601" lon="12.92982716948418"><ele>1045.0</ele><time>2026-05-02T10:46:39.999Z</time></trkpt><trkpt lat="43.16480275723955" lon="12.929837374126087"><ele>1045.0</ele><time>2026-05-02T10:46:42.999Z</time></trkpt><trkpt lat="43.164720173503106" lon="12.929875801831255"><ele>1045.0</ele><time>2026-05-02T10:46:49.999Z</time></trkpt><trkpt lat="43.1646390543734" lon="12.92989446608445"><ele>1045.0</ele><time>2026-05-02T10:46:53Z</time></trkpt><trkpt lat="43.16456690669963" lon="12.92991969349241"><ele>1048.5714285714284</ele><time>2026-05-02T10:46:56Z</time></trkpt><trkpt lat="43.16450200383804" lon="12.929933891719715"><ele>1052.142857142857</ele><time>2026-05-02T10:46:58Z</time></trkpt><trkpt lat="43.16443735177761" lon="12.929919810666435"><ele>1055.7142857142858</ele><time>2026-05-02T10:47:01Z</time></trkpt><trkpt lat="43.16436629825276" lon="12.929886419714634"><ele>1059.2857142857142</ele><time>2026-05-02T10:47:06Z</time></trkpt><trkpt lat="43.164306829877255" lon="12.92985461215984"><ele>1062.857142857143</ele><time>2026-05-02T10:47:08Z</time></trkpt><trkpt lat="43.16424651813208" lon="12.929804436070546"><ele>1066.4285714285713</ele><time>2026-05-02T10:47:11Z</time></trkpt><trkpt lat="43.16417301461479" lon="12.929760192680389"><ele>1070.0</ele><time>2026-05-02T10:47:14Z</time></trkpt><trkpt lat="43.164093758399616" lon="12.929760430377467"><ele>1070.0</ele><time>2026-05-02T10:47:17Z</time></trkpt><trkpt lat="43.164086759034035" lon="12.92986400984006"><ele>1070.0</ele><time>2026-05-02T10:47:20Z</time></trkpt><trkpt lat="43.16406147671207" lon="12.929948533321276"><ele>1070.0</ele><time>2026-05-02T10:47:23Z</time></trkpt><trkpt lat="43.16397067267006" lon="12.930024760956995"><ele>1070.0</ele><time>2026-05-02T10:47:26Z</time></trkpt><trkpt lat="43.16390557995337" lon="12.930080194963827"><ele>1070.0</ele><time>2026-05-02T10:47:28Z</time></trkpt><trkpt lat="43.16380638726357" lon="12.93009160910739"><ele>1070.0</ele><time>2026-05-02T10:47:30Z</time></trkpt><trkpt lat="43.163717818637004" lon="12.930160690522811"><ele>1074.6666666666667</ele><time>2026-05-02T10:47:33Z</time></trkpt><trkpt lat="43.16363405579845" lon="12.930211912704838"><ele>1079.3333333333335</ele><time>2026-05-02T10:47:53Z</time></trkpt><trkpt lat="43.163555469036126" lon="12.930272553983913"><ele>1084.0</ele><time>2026-05-02T10:47:56Z</time></trkpt><trkpt lat="43.163494904583025" lon="12.9303150610112"><ele>1088.6666666666667</ele><time>2026-05-02T10:47:58Z</time></trkpt><trkpt lat="43.16343351677419" lon="12.93035411064276"><ele>1093.3333333333333</ele><time>2026-05-02T10:48:00Z</time></trkpt><trkpt lat="43.16335530450772" lon="12.930412722146402"><ele>1098.0</ele><time>2026-05-02T10:48:02Z</time></trkpt><trkpt lat="43.163264186641975" lon="12.930522774197831"><ele>1098.0</ele><time>2026-05-02T10:48:04Z</time></trkpt><trkpt lat="43.163219646893005" lon="12.930597677502387"><ele>1098.0</ele><time>2026-05-02T10:48:05Z</time></trkpt><trkpt lat="43.16317372343185" lon="12.930659006467058"><ele>1098.0</ele><time>2026-05-02T10:48:06Z</time></trkpt><trkpt lat="43.163124081584485" lon="12.930717784427463"><ele>1098.0</ele><time>2026-05-02T10:48:06.999Z</time></trkpt><trkpt lat="43.16301774873827" lon="12.930800330037219"><ele>1098.0</ele><time>2026-05-02T10:48:08.999Z</time></trkpt><trkpt lat="43.16295703986796" lon="12.930839788519677"><ele>1098.0</ele><time>2026-05-02T10:48:09.999Z</time></trkpt><trkpt lat="43.162882362220664" lon="12.930880493324045"><ele>1100.25</ele><time>2026-05-02T10:48:10.999Z</time></trkpt><trkpt lat="43.16278495600125" lon="12.930916172832456"><ele>1102.5</ele><time>2026-05-02T10:48:11.999Z</time></trkpt><trkpt lat="43.16266197756881" lon="12.930926179991143"><ele>1104.75</ele><time>2026-05-02T10:48:12.999Z</time></trkpt><trkpt lat="43.16253437697994" lon="12.93094896113001"><ele>1107.0</ele><time>2026-05-02T10:48:13.999Z</time></trkpt><trkpt lat="43.16238842610924" lon="12.93096677298053"><ele>1116.5</ele><time>2026-05-02T10:48:14.999Z</time></trkpt><trkpt lat="43.162254495912066" lon="12.930984495264905"><ele>1126.0</ele><time>2026-05-02T10:48:15.999Z</time></trkpt><trkpt lat="43.162130553522495" lon="12.930996626363656"><ele>1135.5</ele><time>2026-05-02T10:48:16.999Z</time></trkpt><trkpt lat="43.16203745480682" lon="12.93102295120301"><ele>1145.0</ele><time>2026-05-02T10:48:17.999Z</time></trkpt><trkpt lat="43.161942570243305" lon="12.931057792492092"><ele>1145.0</ele><time>2026-05-02T10:48:18.999Z</time></trkpt><trkpt lat="43.16184547664137" lon="12.931089633348671"><ele>1145.0</ele><time>2026-05-02T10:48:19.999Z</time></trkpt><trkpt lat="43.161750264554094" lon="12.931124970563342"><ele>1145.0</ele><time>2026-05-02T10:48:20.999Z</time></trkpt><trkpt lat="43.1616654614828" lon="12.931157194005005"><ele>1145.0</ele><time>2026-05-02T10:48:21.999Z</time></trkpt><trkpt lat="43.161566915337254" lon="12.931194680452768"><ele>1145.0</ele><time>2026-05-02T10:48:22.999Z</time></trkpt><trkpt lat="43.16144470685862" lon="12.931236274801174"><ele>1149.25</ele><time>2026-05-02T10:48:23.999Z</time></trkpt><trkpt lat="43.16131187297385" lon="12.931269097020275"><ele>1153.5</ele><time>2026-05-02T10:48:24.999Z</time></trkpt><trkpt lat="43.16116522667203" lon="12.931302801237926"><ele>1157.75</ele><time>2026-05-02T10:48:25.999Z</time></trkpt><trkpt lat="43.16103236335053" lon="12.931326174184717"><ele>1162.0</ele><time>2026-05-02T10:48:26.999Z</time></trkpt><trkpt lat="43.16086206986709" lon="12.931365739000467"><ele>1162.0</ele><time>2026-05-02T10:48:27.999Z</time></trkpt><trkpt lat="43.16071920718204" lon="12.93141338271278"><ele>1162.0</ele><time>2026-05-02T10:48:28.999Z</time></trkpt><trkpt lat="43.16058050590136" lon="12.931449424080473"><ele>1162.0</ele><time>2026-05-02T10:48:29.999Z</time></trkpt><trkpt lat="43.16043799210459" lon="12.931485029347462"><ele>1162.0</ele><time>2026-05-02T10:48:30.999Z</time></trkpt><trkpt lat="43.160291528951014" lon="12.931523748543373"><ele>1168.75</ele><time>2026-05-02T10:48:31.999Z</time></trkpt><trkpt lat="43.16014863326107" lon="12.93156673109909"><ele>1175.5</ele><time>2026-05-02T10:48:32.999Z</time></trkpt><trkpt lat="43.15999741680416" lon="12.931612216822515"><ele>1182.25</ele><time>2026-05-02T10:48:33.999Z</time></trkpt><trkpt lat="43.15987838857574" lon="12.931641653872855"><ele>1189.0</ele><time>2026-05-02T10:48:34.999Z</time></trkpt><trkpt lat="43.159798066709236" lon="12.931648188847195"><ele>1189.0</ele><time>2026-05-02T10:48:35.999Z</time></trkpt><trkpt lat="43.15973901136507" lon="12.931607624352493"><ele>1189.0</ele><time>2026-05-02T10:48:36.999Z</time></trkpt><trkpt lat="43.15968381925839" lon="12.931554057953102"><ele>1189.0</ele><time>2026-05-02T10:48:37.999Z</time></trkpt><trkpt lat="43.159632781692416" lon="12.931484732643439"><ele>1189.0</ele><time>2026-05-02T10:48:38.999Z</time></trkpt><trkpt lat="43.15957891876491" lon="12.931396925779499"><ele>1189.0</ele><time>2026-05-02T10:48:39.999Z</time></trkpt><trkpt lat="43.15953098215181" lon="12.931323762507422"><ele>1189.0</ele><time>2026-05-02T10:48:40.999Z</time></trkpt><trkpt lat="43.15947902012762" lon="12.931257243754288"><ele>1189.0</ele><time>2026-05-02T10:48:41.999Z</time></trkpt><trkpt lat="43.15942758265517" lon="12.931197628213575"><ele>1189.0</ele><time>2026-05-02T10:48:42.999Z</time></trkpt><trkpt lat="43.15932868067805" lon="12.931099051403931"><ele>1189.0</ele><time>2026-05-02T10:48:44.999Z</time></trkpt><trkpt lat="43.15924255052901" lon="12.930979107227888"><ele>1189.0</ele><time>2026-05-02T10:48:46.999Z</time></trkpt><trkpt lat="43.159173055997954" lon="12.93091497299991"><ele>1189.0</ele><time>2026-05-02T10:48:47.999Z</time></trkpt><trkpt lat="43.159084213748045" lon="12.93084431563655"><ele>1189.0</ele><time>2026-05-02T10:48:48.999Z</time></trkpt><trkpt lat="43.15897060246277" lon="12.930753127415679"><ele>1189.5</ele><time>2026-05-02T10:48:49.999Z</time></trkpt><trkpt lat="43.15886806276632" lon="12.930662266317093"><ele>1190.0</ele><time>2026-05-02T10:48:50.999Z</time></trkpt><trkpt lat="43.15875253294958" lon="12.930579892243431"><ele>1190.5</ele><time>2026-05-02T10:48:51.999Z</time></trkpt><trkpt lat="43.15865351956152" lon="12.93049918310139"><ele>1191.0</ele><time>2026-05-02T10:48:52.999Z</time></trkpt><trkpt lat="43.158556371999396" lon="12.93041563259778"><ele>1191.0</ele><time>2026-05-02T10:48:53.999Z</time></trkpt><trkpt lat="43.15845788848096" lon="12.930337801161716"><ele>1191.0</ele><time>2026-05-02T10:48:54.999Z</time></trkpt><trkpt lat="43.158365098650165" lon="12.930272350079699"><ele>1191.0</ele><time>2026-05-02T10:48:55.999Z</time></trkpt><trkpt lat="43.15826827443971" lon="12.930200818987647"><ele>1191.0</ele><time>2026-05-02T10:48:57Z</time></trkpt><trkpt lat="43.15816333859564" lon="12.930130050917324"><ele>1191.0</ele><time>2026-05-02T10:48:58Z</time></trkpt><trkpt lat="43.1580569798437" lon="12.93005237495193"><ele>1189.5</ele><time>2026-05-02T10:48:59Z</time></trkpt><trkpt lat="43.157950579700376" lon="12.929962349545512"><ele>1188.0</ele><time>2026-05-02T10:49:00Z</time></trkpt><trkpt lat="43.1578468356739" lon="12.929874819312344"><ele>1186.5</ele><time>2026-05-02T10:49:01Z</time></trkpt><trkpt lat="43.15773258904791" lon="12.929789714921743"><ele>1185.0</ele><time>2026-05-02T10:49:02Z</time></trkpt><trkpt lat="43.15760926380701" lon="12.929702368596262"><ele>1185.0</ele><time>2026-05-02T10:49:03Z</time></trkpt><trkpt lat="43.15749172956013" lon="12.929605289338058"><ele>1185.0</ele><time>2026-05-02T10:49:04Z</time></trkpt><trkpt lat="43.15735537857418" lon="12.929500045127917"><ele>1185.0</ele><time>2026-05-02T10:49:05Z</time></trkpt><trkpt lat="43.1572140761174" lon="12.929399349216446"><ele>1187.0</ele><time>2026-05-02T10:49:06Z</time></trkpt><trkpt lat="43.15707962822467" lon="12.929306287907345"><ele>1189.0</ele><time>2026-05-02T10:49:07Z</time></trkpt><trkpt lat="43.156959147846074" lon="12.929216977127664"><ele>1191.0</ele><time>2026-05-02T10:49:08Z</time></trkpt><trkpt lat="43.156826212622754" lon="12.929131420565671"><ele>1193.0</ele><time>2026-05-02T10:49:09Z</time></trkpt><trkpt lat="43.15668284112491" lon="12.929053212588812"><ele>1193.0</ele><time>2026-05-02T10:49:10Z</time></trkpt><trkpt lat="43.156536342612604" lon="12.928970758642137"><ele>1193.0</ele><time>2026-05-02T10:49:11Z</time></trkpt><trkpt lat="43.156384635458934" lon="12.928868863006393"><ele>1193.0</ele><time>2026-05-02T10:49:12Z</time></trkpt><trkpt lat="43.15624095883616" lon="12.928752553217295"><ele>1193.0</ele><time>2026-05-02T10:49:13Z</time></trkpt><trkpt lat="43.1561111386702" lon="12.92863581927361"><ele>1193.0</ele><time>2026-05-02T10:49:14Z</time></trkpt><trkpt lat="43.156004773955175" lon="12.928535488861975"><ele>1193.0</ele><time>2026-05-02T10:49:15Z</time></trkpt><trkpt lat="43.15589547690147" lon="12.928438545107193"><ele>1193.0</ele><time>2026-05-02T10:49:16Z</time></trkpt><trkpt lat="43.15577796132854" lon="12.928377832288554"><ele>1194.6666666666667</ele><time>2026-05-02T10:49:17Z</time></trkpt><trkpt lat="43.15563340446117" lon="12.92833322701881"><ele>1196.3333333333333</ele><time>2026-05-02T10:49:18Z</time></trkpt><trkpt lat="43.15548836240764" lon="12.92828707297772"><ele>1198.0</ele><time>2026-05-02T10:49:19Z</time></trkpt><trkpt lat="43.155346045727875" lon="12.928205136134846"><ele>1198.0</ele><time>2026-05-02T10:49:20Z</time></trkpt><trkpt lat="43.155192177381046" lon="12.928090145251645"><ele>1198.0</ele><time>2026-05-02T10:49:21Z</time></trkpt><trkpt lat="43.155045029335334" lon="12.927973451542906"><ele>1198.0</ele><time>2026-05-02T10:49:22Z</time></trkpt><trkpt lat="43.15488611589103" lon="12.927843948471455"><ele>1204.0</ele><time>2026-05-02T10:49:23Z</time></trkpt><trkpt lat="43.154720234654775" lon="12.927710398127372"><ele>1210.0</ele><time>2026-05-02T10:49:24Z</time></trkpt><trkpt lat="43.15454721323084" lon="12.927571324542814"><ele>1216.0</ele><time>2026-05-02T10:49:25Z</time></trkpt><trkpt lat="43.15439208023296" lon="12.927449300474604"><ele>1221.0</ele><time>2026-05-02T10:49:26Z</time></trkpt><trkpt lat="43.15422703332217" lon="12.927326384516146"><ele>1226.0</ele><time>2026-05-02T10:49:27Z</time></trkpt><trkpt lat="43.15404787682169" lon="12.927201014243932"><ele>1231.0</ele><time>2026-05-02T10:49:28Z</time></trkpt><trkpt lat="43.153866548783945" lon="12.92707892361867"><ele>1236.3333333333333</ele><time>2026-05-02T10:49:29Z</time></trkpt><trkpt lat="43.15367671126368" lon="12.926947342144445"><ele>1241.6666666666667</ele><time>2026-05-02T10:49:30Z</time></trkpt><trkpt lat="43.153509609447454" lon="12.926830363391229"><ele>1247.0</ele><time>2026-05-02T10:49:31Z</time></trkpt><trkpt lat="43.15337013144705" lon="12.92673588872187"><ele>1248.0</ele><time>2026-05-02T10:49:32Z</time></trkpt><trkpt lat="43.15321491630111" lon="12.926636036308967"><ele>1249.0</ele><time>2026-05-02T10:49:33Z</time></trkpt><trkpt lat="43.153057815325134" lon="12.926534855945173"><ele>1250.0</ele><time>2026-05-02T10:49:34Z</time></trkpt><trkpt lat="43.152909348602584" lon="12.926443521198586"><ele>1253.3333333333335</ele><time>2026-05-02T10:49:35Z</time></trkpt><trkpt lat="43.152741917023846" lon="12.926337466300257"><ele>1256.6666666666667</ele><time>2026-05-02T10:49:36Z</time></trkpt><trkpt lat="43.15256745160257" lon="12.926202383924553"><ele>1260.0</ele><time>2026-05-02T10:49:37Z</time></trkpt><trkpt lat="43.15240436598577" lon="12.926077463800564"><ele>1264.0</ele><time>2026-05-02T10:49:38Z</time></trkpt><trkpt lat="43.15225164760322" lon="12.925950858858402"><ele>1268.0</ele><time>2026-05-02T10:49:39Z</time></trkpt><trkpt lat="43.15208110098995" lon="12.92580871922253"><ele>1272.0</ele><time>2026-05-02T10:49:40Z</time></trkpt><trkpt lat="43.15190262328496" lon="12.925654000308635"><ele>1275.6666666666667</ele><time>2026-05-02T10:49:41Z</time></trkpt><trkpt lat="43.1517238179124" lon="12.925496643072456"><ele>1279.3333333333335</ele><time>2026-05-02T10:49:42Z</time></trkpt><trkpt lat="43.15153584144364" lon="12.925329949186272"><ele>1283.0</ele><time>2026-05-02T10:49:43Z</time></trkpt><trkpt lat="43.15138644162588" lon="12.925195746381956"><ele>1283.0</ele><time>2026-05-02T10:49:44Z</time></trkpt><trkpt lat="43.151296072106184" lon="12.925088010403861"><ele>1283.0</ele><time>2026-05-02T10:49:45Z</time></trkpt><trkpt lat="43.15120850667378" lon="12.92495927266531"><ele>1283.0</ele><time>2026-05-02T10:49:46Z</time></trkpt><trkpt lat="43.15111401672876" lon="12.92482823645613"><ele>1283.0</ele><time>2026-05-02T10:49:47Z</time></trkpt><trkpt lat="43.15100520634838" lon="12.924690572979644"><ele>1285.5</ele><time>2026-05-02T10:49:48Z</time></trkpt><trkpt lat="43.15088506913261" lon="12.924555212682964"><ele>1288.0</ele><time>2026-05-02T10:49:49Z</time></trkpt><trkpt lat="43.15077464977509" lon="12.924440679668022"><ele>1290.5</ele><time>2026-05-02T10:49:50Z</time></trkpt><trkpt lat="43.15068549912344" lon="12.924363638375446"><ele>1293.0</ele><time>2026-05-02T10:49:51Z</time></trkpt><trkpt lat="43.15061234745964" lon="12.924302000730385"><ele>1296.8000000000002</ele><time>2026-05-02T10:49:52Z</time></trkpt><trkpt lat="43.150529328004346" lon="12.9242269496142"><ele>1300.6</ele><time>2026-05-02T10:49:53Z</time></trkpt><trkpt lat="43.1504501866125" lon="12.924147282044597"><ele>1304.4</ele><time>2026-05-02T10:49:54Z</time></trkpt><trkpt lat="43.15037167454267" lon="12.924063772941311"><ele>1308.1999999999998</ele><time>2026-05-02T10:49:55Z</time></trkpt><trkpt lat="43.15029104384843" lon="12.923992002369486"><ele>1312.0</ele><time>2026-05-02T10:49:56Z</time></trkpt><trkpt lat="43.15022072544805" lon="12.923910958173886"><ele>1312.0</ele><time>2026-05-02T10:49:57Z</time></trkpt><trkpt lat="43.1501468942932" lon="12.92384414971135"><ele>1312.0</ele><time>2026-05-02T10:49:58Z</time></trkpt><trkpt lat="43.150078862469904" lon="12.923775340435851"><ele>1312.0</ele><time>2026-05-02T10:49:59Z</time></trkpt><trkpt lat="43.150033795898196" lon="12.92370119132798"><ele>1312.0</ele><time>2026-05-02T10:50:00Z</time></trkpt><trkpt lat="43.14997121036407" lon="12.923602440992857"><ele>1312.0</ele><time>2026-05-02T10:50:01Z</time></trkpt><trkpt lat="43.14989624543963" lon="12.923491967612243"><ele>1312.0</ele><time>2026-05-02T10:50:02Z</time></trkpt><trkpt lat="43.14982251478593" lon="12.923405937826983"><ele>1312.75</ele><time>2026-05-02T10:50:03Z</time></trkpt><trkpt lat="43.149724383530184" lon="12.923307765216409"><ele>1313.5</ele><time>2026-05-02T10:50:04Z</time></trkpt><trkpt lat="43.14962928792867" lon="12.92322624674831"><ele>1314.25</ele><time>2026-05-02T10:50:05Z</time></trkpt><trkpt lat="43.14953443313604" lon="12.923151073491066"><ele>1315.0</ele><time>2026-05-02T10:50:06Z</time></trkpt><trkpt lat="43.1494371718134" lon="12.92307004829617"><ele>1315.0</ele><time>2026-05-02T10:50:07Z</time></trkpt><trkpt lat="43.14933877120343" lon="12.92297295712972"><ele>1315.0</ele><time>2026-05-02T10:50:08Z</time></trkpt><trkpt lat="43.14924289059593" lon="12.922865580973049"><ele>1315.0</ele><time>2026-05-02T10:50:09Z</time></trkpt><trkpt lat="43.14915033723226" lon="12.922752909580622"><ele>1315.0</ele><time>2026-05-02T10:50:10Z</time></trkpt><trkpt lat="43.14906226570639" lon="12.922640225353023"><ele>1314.75</ele><time>2026-05-02T10:50:11Z</time></trkpt><trkpt lat="43.14896450638918" lon="12.922519634568474"><ele>1314.5</ele><time>2026-05-02T10:50:11.999Z</time></trkpt><trkpt lat="43.148862171075095" lon="12.922396529923015"><ele>1314.25</ele><time>2026-05-02T10:50:12.999Z</time></trkpt><trkpt lat="43.14875419814278" lon="12.922260848222862"><ele>1314.0</ele><time>2026-05-02T10:50:13.999Z</time></trkpt><trkpt lat="43.14865665917588" lon="12.922127127812825"><ele>1314.0</ele><time>2026-05-02T10:50:14.999Z</time></trkpt><trkpt lat="43.148569136422594" lon="12.921987092590236"><ele>1314.0</ele><time>2026-05-02T10:50:15.999Z</time></trkpt><trkpt lat="43.14849160392538" lon="12.921853603287063"><ele>1314.0</ele><time>2026-05-02T10:50:16.999Z</time></trkpt><trkpt lat="43.14842104819153" lon="12.921723139071132"><ele>1314.0</ele><time>2026-05-02T10:50:17.999Z</time></trkpt><trkpt lat="43.14835625008475" lon="12.921602880743224"><ele>1315.4</ele><time>2026-05-02T10:50:18.999Z</time></trkpt><trkpt lat="43.14829245168202" lon="12.921489970476323"><ele>1316.8000000000002</ele><time>2026-05-02T10:50:19.999Z</time></trkpt><trkpt lat="43.14822399993812" lon="12.92137416749672"><ele>1318.1999999999998</ele><time>2026-05-02T10:50:20.999Z</time></trkpt><trkpt lat="43.14815684836136" lon="12.92127161001849"><ele>1319.6</ele><time>2026-05-02T10:50:21.999Z</time></trkpt><trkpt lat="43.14807558322313" lon="12.921182957861024"><ele>1321.0</ele><time>2026-05-02T10:50:22.999Z</time></trkpt><trkpt lat="43.148010494721966" lon="12.921102565810548"><ele>1321.0</ele><time>2026-05-02T10:50:23.999Z</time></trkpt><trkpt lat="43.147951911459224" lon="12.921033050774271"><ele>1321.0</ele><time>2026-05-02T10:50:24.999Z</time></trkpt><trkpt lat="43.147865996182226" lon="12.920941954735499"><ele>1321.0</ele><time>2026-05-02T10:50:26.999Z</time></trkpt><trkpt lat="43.14776964912134" lon="12.920842702375683"><ele>1321.0</ele><time>2026-05-02T10:50:28.999Z</time></trkpt><trkpt lat="43.14767233479105" lon="12.920766738906403"><ele>1321.0</ele><time>2026-05-02T10:50:30.999Z</time></trkpt><trkpt lat="43.14765167824662" lon="12.920684773385936"><ele>1324.0</ele><time>2026-05-02T10:50:34.999Z</time></trkpt><trkpt lat="43.14767782073019" lon="12.920772586108153"><ele>1327.0</ele><time>2026-05-02T10:51:34Z</time></trkpt><trkpt lat="43.14769410118747" lon="12.920862036326097"><ele>1330.0</ele><time>2026-05-02T10:51:43Z</time></trkpt><trkpt lat="43.14768890013681" lon="12.920771819122097"><ele>1333.0</ele><time>2026-05-02T10:51:52Z</time></trkpt><trkpt lat="43.14765995131196" lon="12.920694016388063"><ele>1336.0</ele><time>2026-05-02T10:52:00Z</time></trkpt><trkpt lat="43.14762480580302" lon="12.920607872438756"><ele>1339.0</ele><time>2026-05-02T11:10:06Z</time></trkpt><trkpt lat="43.14757684919471" lon="12.920536579520236"><ele>1342.0</ele><time>2026-05-02T11:10:53.999Z</time></trkpt><trkpt lat="43.14754776124735" lon="12.920429401247223"><ele>1342.0</ele><time>2026-05-02T11:10:55.999Z</time></trkpt><trkpt lat="43.14749465928609" lon="12.920286146608492"><ele>1342.0</ele><time>2026-05-02T11:10:57.999Z</time></trkpt><trkpt lat="43.14743532888781" lon="12.920163186912418"><ele>1342.0</ele><time>2026-05-02T11:10:59.999Z</time></trkpt><trkpt lat="43.14736527740896" lon="12.920059146562052"><ele>1342.0</ele><time>2026-05-02T11:11:01.999Z</time></trkpt><trkpt lat="43.147290332813554" lon="12.919919361920643"><ele>1337.5</ele><time>2026-05-02T11:11:03.999Z</time></trkpt><trkpt lat="43.14724504406178" lon="12.919815900999444"><ele>1333.0</ele><time>2026-05-02T11:11:04.999Z</time></trkpt><trkpt lat="43.14720594092477" lon="12.919740589062013"><ele>1328.5</ele><time>2026-05-02T11:11:05.999Z</time></trkpt><trkpt lat="43.147162399054665" lon="12.919670626786866"><ele>1324.0</ele><time>2026-05-02T11:11:06.999Z</time></trkpt><trkpt lat="43.14707578581878" lon="12.919515979296179"><ele>1319.5</ele><time>2026-05-02T11:11:08.999Z</time></trkpt><trkpt lat="43.147028226258946" lon="12.919444215971355"><ele>1315.0</ele><time>2026-05-02T11:11:09.999Z</time></trkpt><trkpt lat="43.14697864071119" lon="12.91937193781251"><ele>1315.0</ele><time>2026-05-02T11:11:10.999Z</time></trkpt><trkpt lat="43.1469273994127" lon="12.919309146693577"><ele>1315.0</ele><time>2026-05-02T11:11:11.999Z</time></trkpt><trkpt lat="43.146869034302796" lon="12.919239742750493"><ele>1315.0</ele><time>2026-05-02T11:11:12.999Z</time></trkpt><trkpt lat="43.14680603636304" lon="12.919173169652673"><ele>1315.0</ele><time>2026-05-02T11:11:13.999Z</time></trkpt><trkpt lat="43.14674703558398" lon="12.919121952418513"><ele>1315.0</ele><time>2026-05-02T11:11:14.999Z</time></trkpt><trkpt lat="43.14666817291797" lon="12.91906642713767"><ele>1315.0</ele><time>2026-05-02T11:11:15.999Z</time></trkpt><trkpt lat="43.14660019495613" lon="12.919018251685495"><ele>1308.8</ele><time>2026-05-02T11:11:16.999Z</time></trkpt><trkpt lat="43.146523908847065" lon="12.918973052475469"><ele>1302.6</ele><time>2026-05-02T11:11:17.999Z</time></trkpt><trkpt lat="43.14644904779363" lon="12.918931458450881"><ele>1296.4</ele><time>2026-05-02T11:11:18.999Z</time></trkpt><trkpt lat="43.146356849865384" lon="12.918882342815317"><ele>1290.2</ele><time>2026-05-02T11:11:19.999Z</time></trkpt><trkpt lat="43.1462620327952" lon="12.9188289616244"><ele>1284.0</ele><time>2026-05-02T11:11:20.999Z</time></trkpt><trkpt lat="43.146153655019724" lon="12.918755362837802"><ele>1284.0</ele><time>2026-05-02T11:11:21.999Z</time></trkpt><trkpt lat="43.14604906305392" lon="12.91868470439411"><ele>1284.0</ele><time>2026-05-02T11:11:22.999Z</time></trkpt><trkpt lat="43.14593800469875" lon="12.918601747674959"><ele>1284.0</ele><time>2026-05-02T11:11:23.999Z</time></trkpt><trkpt lat="43.14582561355756" lon="12.9185255195655"><ele>1284.0</ele><time>2026-05-02T11:11:24.999Z</time></trkpt><trkpt lat="43.145711144916895" lon="12.918446833394878"><ele>1275.5</ele><time>2026-05-02T11:11:25.999Z</time></trkpt><trkpt lat="43.14560018098847" lon="12.91837887686354"><ele>1267.0</ele><time>2026-05-02T11:11:26.999Z</time></trkpt><trkpt lat="43.14549428265966" lon="12.918309027363941"><ele>1258.5</ele><time>2026-05-02T11:11:27.999Z</time></trkpt><trkpt lat="43.145378727584074" lon="12.918228286230063"><ele>1250.0</ele><time>2026-05-02T11:11:28.999Z</time></trkpt><trkpt lat="43.14526478645962" lon="12.918137672634812"><ele>1250.0</ele><time>2026-05-02T11:11:29.999Z</time></trkpt><trkpt lat="43.14515017143388" lon="12.918057130807085"><ele>1250.0</ele><time>2026-05-02T11:11:30.999Z</time></trkpt><trkpt lat="43.145028697081194" lon="12.917967711537337"><ele>1250.0</ele><time>2026-05-02T11:11:31.999Z</time></trkpt><trkpt lat="43.144916232460325" lon="12.917887358225187"><ele>1250.0</ele><time>2026-05-02T11:11:32.999Z</time></trkpt><trkpt lat="43.14480071052616" lon="12.917802734925278"><ele>1244.0</ele><time>2026-05-02T11:11:33.999Z</time></trkpt><trkpt lat="43.144683974000856" lon="12.917703521765368"><ele>1238.0</ele><time>2026-05-02T11:11:34.999Z</time></trkpt><trkpt lat="43.14456622314017" lon="12.917616951793292"><ele>1232.0</ele><time>2026-05-02T11:11:35.999Z</time></trkpt><trkpt lat="43.14443416007524" lon="12.917510946332925"><ele>1226.0</ele><time>2026-05-02T11:11:36.999Z</time></trkpt><trkpt lat="43.14431882416876" lon="12.917413575515267"><ele>1226.0</ele><time>2026-05-02T11:11:37.999Z</time></trkpt><trkpt lat="43.144276521536625" lon="12.917190476427402"><ele>1226.0</ele><time>2026-05-02T11:11:38.999Z</time></trkpt><trkpt lat="43.14421035641591" lon="12.917130058289175"><ele>1226.0</ele><time>2026-05-02T11:11:39.999Z</time></trkpt><trkpt lat="43.14416134005347" lon="12.917047329330751"><ele>1226.0</ele><time>2026-05-02T11:11:40.999Z</time></trkpt><trkpt lat="43.14412327406006" lon="12.91694787659193"><ele>1226.0</ele><time>2026-05-02T11:11:41.999Z</time></trkpt><trkpt lat="43.14407563372912" lon="12.916833577611653"><ele>1223.3333333333335</ele><time>2026-05-02T11:11:43.999Z</time></trkpt><trkpt lat="43.14404085623716" lon="12.916758555075155"><ele>1220.6666666666667</ele><time>2026-05-02T11:11:48.999Z</time></trkpt><trkpt lat="43.143996587038174" lon="12.916623653074112"><ele>1218.0</ele><time>2026-05-02T11:11:51.999Z</time></trkpt><trkpt lat="43.143951870738086" lon="12.916469262669816"><ele>1215.3333333333333</ele><time>2026-05-02T11:11:53.999Z</time></trkpt><trkpt lat="43.14391925553376" lon="12.916383399585037"><ele>1212.6666666666665</ele><time>2026-05-02T11:11:54.999Z</time></trkpt><trkpt lat="43.1438801173942" lon="12.916280849053479"><ele>1210.0</ele><time>2026-05-02T11:11:55.999Z</time></trkpt><trkpt lat="43.143836696850705" lon="12.916168951219838"><ele>1210.0</ele><time>2026-05-02T11:11:56.999Z</time></trkpt><trkpt lat="43.1437919730649" lon="12.916053694787657"><ele>1210.0</ele><time>2026-05-02T11:11:57.999Z</time></trkpt><trkpt lat="43.1437514060539" lon="12.915949863181806"><ele>1210.0</ele><time>2026-05-02T11:11:58.999Z</time></trkpt><trkpt lat="43.14370392082735" lon="12.915831591147173"><ele>1210.0</ele><time>2026-05-02T11:11:59.999Z</time></trkpt><trkpt lat="43.14365471093523" lon="12.915712787855613"><ele>1210.0</ele><time>2026-05-02T11:12:01Z</time></trkpt><trkpt lat="43.143600240003764" lon="12.915582214445049"><ele>1209.8333333333333</ele><time>2026-05-02T11:12:02Z</time></trkpt><trkpt lat="43.143555094900954" lon="12.915473996217475"><ele>1209.6666666666665</ele><time>2026-05-02T11:12:03Z</time></trkpt><trkpt lat="43.143515611756754" lon="12.915379350302334"><ele>1209.5</ele><time>2026-05-02T11:12:04Z</time></trkpt><trkpt lat="43.143475031677156" lon="12.915282075056261"><ele>1209.3333333333333</ele><time>2026-05-02T11:12:05Z</time></trkpt><trkpt lat="43.14343295000682" lon="12.915181200015702"><ele>1209.1666666666667</ele><time>2026-05-02T11:12:06Z</time></trkpt><trkpt lat="43.14338273472458" lon="12.915061510779319"><ele>1209.0</ele><time>2026-05-02T11:12:07Z</time></trkpt><trkpt lat="43.14331973980246" lon="12.914932430305372"><ele>1209.0</ele><time>2026-05-02T11:12:08Z</time></trkpt><trkpt lat="43.143254792180606" lon="12.914817530881248"><ele>1209.0</ele><time>2026-05-02T11:12:09Z</time></trkpt><trkpt lat="43.14317114887486" lon="12.914685441177385"><ele>1209.0</ele><time>2026-05-02T11:12:10Z</time></trkpt><trkpt lat="43.14308335043053" lon="12.914564329777559"><ele>1209.0</ele><time>2026-05-02T11:12:11Z</time></trkpt><trkpt lat="43.14300602428255" lon="12.914462063187786"><ele>1206.75</ele><time>2026-05-02T11:12:12Z</time></trkpt><trkpt lat="43.142933296276" lon="12.91436152627705"><ele>1204.5</ele><time>2026-05-02T11:12:13Z</time></trkpt><trkpt lat="43.142849355989256" lon="12.91424538222819"><ele>1202.25</ele><time>2026-05-02T11:12:14Z</time></trkpt><trkpt lat="43.14276319920792" lon="12.914127281054858"><ele>1200.0</ele><time>2026-05-02T11:12:15Z</time></trkpt><trkpt lat="43.14267688530417" lon="12.914007315443737"><ele>1200.0</ele><time>2026-05-02T11:12:16Z</time></trkpt><trkpt lat="43.14261150482686" lon="12.913901891029434"><ele>1200.0</ele><time>2026-05-02T11:12:17Z</time></trkpt><trkpt lat="43.14253204278463" lon="12.913767308068131"><ele>1200.0</ele><time>2026-05-02T11:12:18Z</time></trkpt><trkpt lat="43.14248871505056" lon="12.913670970839192"><ele>1200.0</ele><time>2026-05-02T11:12:19Z</time></trkpt><trkpt lat="43.14244323614882" lon="12.913566340355839"><ele>1200.0</ele><time>2026-05-02T11:12:20Z</time></trkpt><trkpt lat="43.142405295184986" lon="12.913487537300119"><ele>1197.0</ele><time>2026-05-02T11:12:21Z</time></trkpt><trkpt lat="43.14170834704981" lon="12.913749257424723"><ele>1197.0</ele><time>2026-05-02T11:12:22Z</time></trkpt><trkpt lat="43.14155764669632" lon="12.913690793537793"><ele>1197.0</ele><time>2026-05-02T11:12:23Z</time></trkpt><trkpt lat="43.14142034207783" lon="12.913627349678356"><ele>1197.0</ele><time>2026-05-02T11:12:24Z</time></trkpt><trkpt lat="43.14130169296913" lon="12.913562686670776"><ele>1197.0</ele><time>2026-05-02T11:12:25Z</time></trkpt><trkpt lat="43.141188813685694" lon="12.913499219390658"><ele>1196.75</ele><time>2026-05-02T11:12:26Z</time></trkpt><trkpt lat="43.141074585166194" lon="12.913425028484095"><ele>1196.5</ele><time>2026-05-02T11:12:27Z</time></trkpt><trkpt lat="43.14097126783677" lon="12.91334448575642"><ele>1196.25</ele><time>2026-05-02T11:12:28Z</time></trkpt><trkpt lat="43.140870821168726" lon="12.913255048384787"><ele>1196.0</ele><time>2026-05-02T11:12:29Z</time></trkpt><trkpt lat="43.14075867195997" lon="12.913179743775789"><ele>1194.6</ele><time>2026-05-02T11:12:30Z</time></trkpt><trkpt lat="43.140652533610165" lon="12.913107776925603"><ele>1193.1999999999998</ele><time>2026-05-02T11:12:31Z</time></trkpt><trkpt lat="43.14055433714358" lon="12.913052816044221"><ele>1191.8000000000002</ele><time>2026-05-02T11:12:32Z</time></trkpt><trkpt lat="43.14046791294091" lon="12.913008694061784"><ele>1190.4</ele><time>2026-05-02T11:12:33Z</time></trkpt><trkpt lat="43.14035517637838" lon="12.91295252341101"><ele>1189.0</ele><time>2026-05-02T11:12:35Z</time></trkpt><trkpt lat="43.140240829132885" lon="12.91287719752818"><ele>1189.0</ele><time>2026-05-02T11:12:37Z</time></trkpt><trkpt lat="43.14015287714175" lon="12.91284180827633"><ele>1189.0</ele><time>2026-05-02T11:12:38Z</time></trkpt><trkpt lat="43.14008092746753" lon="12.912822601618505"><ele>1189.0</ele><time>2026-05-02T11:12:39Z</time></trkpt><trkpt lat="43.1399834712508" lon="12.912798513518798"><ele>1189.0</ele><time>2026-05-02T11:12:40Z</time></trkpt><trkpt lat="43.13988995825974" lon="12.912785283567876"><ele>1189.0</ele><time>2026-05-02T11:12:41Z</time></trkpt><trkpt lat="43.139797060726806" lon="12.91277162290813"><ele>1187.2857142857142</ele><time>2026-05-02T11:12:42Z</time></trkpt><trkpt lat="43.13971976881615" lon="12.91275109426026"><ele>1185.5714285714287</ele><time>2026-05-02T11:12:43Z</time></trkpt><trkpt lat="43.13963762309186" lon="12.912727083615467"><ele>1183.857142857143</ele><time>2026-05-02T11:12:44Z</time></trkpt><trkpt lat="43.139571585209346" lon="12.912710434515718"><ele>1182.142857142857</ele><time>2026-05-02T11:12:45Z</time></trkpt><trkpt lat="43.13950248194766" lon="12.912688226073792"><ele>1180.4285714285713</ele><time>2026-05-02T11:12:46Z</time></trkpt><trkpt lat="43.13943325878429" lon="12.91266316616678"><ele>1178.7142857142858</ele><time>2026-05-02T11:12:47Z</time></trkpt><trkpt lat="43.139370566825164" lon="12.912654311266387"><ele>1177.0</ele><time>2026-05-02T11:12:48Z</time></trkpt><trkpt lat="43.13924697420303" lon="12.91265125626323"><ele>1177.0</ele><time>2026-05-02T11:12:50Z</time></trkpt><trkpt lat="43.139172664151225" lon="12.912611688103873"><ele>1177.0</ele><time>2026-05-02T11:12:51Z</time></trkpt><trkpt lat="43.13909369794242" lon="12.912583128153589"><ele>1177.0</ele><time>2026-05-02T11:12:52Z</time></trkpt><trkpt lat="43.139024489180606" lon="12.912551356021599"><ele>1177.0</ele><time>2026-05-02T11:12:53Z</time></trkpt><trkpt lat="43.13896262887425" lon="12.912520284199275"><ele>1177.0</ele><time>2026-05-02T11:12:54Z</time></trkpt><trkpt lat="43.1388700839587" lon="12.912472651144093"><ele>1177.0</ele><time>2026-05-02T11:12:54.999Z</time></trkpt><trkpt lat="43.138761653288654" lon="12.91241017251164"><ele>1172.0</ele><time>2026-05-02T11:12:55.999Z</time></trkpt><trkpt lat="43.13864280904412" lon="12.912342631323058"><ele>1167.0</ele><time>2026-05-02T11:12:56.999Z</time></trkpt><trkpt lat="43.138521450248554" lon="12.912277282009802"><ele>1162.0</ele><time>2026-05-02T11:12:57.999Z</time></trkpt><trkpt lat="43.13838721565722" lon="12.912210377593045"><ele>1157.0</ele><time>2026-05-02T11:12:58.999Z</time></trkpt><trkpt lat="43.13825210143576" lon="12.91214602318643"><ele>1155.25</ele><time>2026-05-02T11:12:59.999Z</time></trkpt><trkpt lat="43.13812513451042" lon="12.912088282538924"><ele>1153.5</ele><time>2026-05-02T11:13:00.999Z</time></trkpt><trkpt lat="43.13799657599496" lon="12.912041023018853"><ele>1151.75</ele><time>2026-05-02T11:13:01.999Z</time></trkpt><trkpt lat="43.137871588006185" lon="12.912007899702738"><ele>1150.0</ele><time>2026-05-02T11:13:02.999Z</time></trkpt><trkpt lat="43.137757256336954" lon="12.911981766760247"><ele>1150.0</ele><time>2026-05-02T11:13:03.999Z</time></trkpt><trkpt lat="43.13763924490448" lon="12.911955961817757"><ele>1150.0</ele><time>2026-05-02T11:13:04.999Z</time></trkpt><trkpt lat="43.13753716802752" lon="12.911957062127192"><ele>1150.0</ele><time>2026-05-02T11:13:05.999Z</time></trkpt><trkpt lat="43.137438875922314" lon="12.91193665583918"><ele>1150.0</ele><time>2026-05-02T11:13:06.999Z</time></trkpt><trkpt lat="43.137359306903306" lon="12.911918012269826"><ele>1150.0</ele><time>2026-05-02T11:13:07.999Z</time></trkpt><trkpt lat="43.137275782424176" lon="12.911846835110682"><ele>1150.0</ele><time>2026-05-02T11:13:09.999Z</time></trkpt><trkpt lat="43.13719423654777" lon="12.91183487465784"><ele>1150.0</ele><time>2026-05-02T11:13:11.999Z</time></trkpt><trkpt lat="43.13720557668157" lon="12.911645434736153"><ele>1150.0</ele><time>2026-05-02T11:13:15.999Z</time></trkpt><trkpt lat="43.13725088545274" lon="12.911715538601024"><ele>1150.0</ele><time>2026-05-02T11:13:42.999Z</time></trkpt><trkpt lat="43.1372803797136" lon="12.911818237695826"><ele>1150.0</ele><time>2026-05-02T11:13:43.999Z</time></trkpt><trkpt lat="43.13731646549205" lon="12.911889306985193"><ele>1150.0</ele><time>2026-05-02T11:13:44.999Z</time></trkpt><trkpt lat="43.13738937339721" lon="12.91200594532037"><ele>1150.0</ele><time>2026-05-02T11:13:46.999Z</time></trkpt><trkpt lat="43.1374805126091" lon="12.9121260839233"><ele>1150.0</ele><time>2026-05-02T11:13:48.999Z</time></trkpt><trkpt lat="43.1375474412095" lon="12.912199317140209"><ele>1150.0</ele><time>2026-05-02T11:13:49.999Z</time></trkpt><trkpt lat="43.13760875241429" lon="12.912275960930206"><ele>1150.0</ele><time>2026-05-02T11:13:50.999Z</time></trkpt><trkpt lat="43.137675488337045" lon="12.91233753367428"><ele>1150.0</ele><time>2026-05-02T11:13:51.999Z</time></trkpt><trkpt lat="43.137751466267275" lon="12.91238918395091"><ele>1150.0</ele><time>2026-05-02T11:13:52.999Z</time></trkpt><trkpt lat="43.13782643219822" lon="12.912454453259826"><ele>1150.0</ele><time>2026-05-02T11:13:53.999Z</time></trkpt><trkpt lat="43.13790112004143" lon="12.912520086074455"><ele>1150.0</ele><time>2026-05-02T11:13:54.999Z</time></trkpt><trkpt lat="43.137976879326274" lon="12.912579562513569"><ele>1150.0</ele><time>2026-05-02T11:13:55.999Z</time></trkpt><trkpt lat="43.138057050554394" lon="12.91263081979764"><ele>1150.0</ele><time>2026-05-02T11:13:56.999Z</time></trkpt><trkpt lat="43.1381330721843" lon="12.912677843523678"><ele>1150.0</ele><time>2026-05-02T11:13:57.999Z</time></trkpt><trkpt lat="43.138214734742796" lon="12.91271392432165"><ele>1152.6</ele><time>2026-05-02T11:13:58.999Z</time></trkpt><trkpt lat="43.13830393665877" lon="12.912726051371095"><ele>1155.2</ele><time>2026-05-02T11:13:59.999Z</time></trkpt><trkpt lat="43.13839145712239" lon="12.912744722743387"><ele>1157.8</ele><time>2026-05-02T11:14:00.999Z</time></trkpt><trkpt lat="43.13848202144604" lon="12.912759171145435"><ele>1160.4</ele><time>2026-05-02T11:14:01.999Z</time></trkpt><trkpt lat="43.138579623439824" lon="12.91276648803955"><ele>1163.0</ele><time>2026-05-02T11:14:02.999Z</time></trkpt><trkpt lat="43.13867037483154" lon="12.912772810793944"><ele>1163.0</ele><time>2026-05-02T11:14:03.999Z</time></trkpt><trkpt lat="43.138762089553246" lon="12.912768763217773"><ele>1163.0</ele><time>2026-05-02T11:14:04.999Z</time></trkpt><trkpt lat="43.13886249856953" lon="12.91276759026803"><ele>1163.0</ele><time>2026-05-02T11:14:05.999Z</time></trkpt><trkpt lat="43.13894810789991" lon="12.912760684330244"><ele>1163.0</ele><time>2026-05-02T11:14:07Z</time></trkpt><trkpt lat="43.13903914631023" lon="12.91275588746863"><ele>1163.0</ele><time>2026-05-02T11:14:08Z</time></trkpt><trkpt lat="43.1391516677038" lon="12.912675244779235"><ele>1165.8</ele><time>2026-05-02T11:14:09Z</time></trkpt><trkpt lat="43.139241321702656" lon="12.912699124811628"><ele>1168.6</ele><time>2026-05-02T11:14:10Z</time></trkpt><trkpt lat="43.13933730025943" lon="12.912711833803693"><ele>1171.4</ele><time>2026-05-02T11:14:11Z</time></trkpt><trkpt lat="43.13943744417137" lon="12.91271071261977"><ele>1174.2</ele><time>2026-05-02T11:14:12Z</time></trkpt><trkpt lat="43.13953978399994" lon="12.91268823598843"><ele>1177.0</ele><time>2026-05-02T11:14:13Z</time></trkpt><trkpt lat="43.1396343022686" lon="12.912650411079603"><ele>1177.0</ele><time>2026-05-02T11:14:14Z</time></trkpt><trkpt lat="43.13972268536246" lon="12.912600872227808"><ele>1177.0</ele><time>2026-05-02T11:14:15Z</time></trkpt><trkpt lat="43.13981868945954" lon="12.912534725443034"><ele>1177.0</ele><time>2026-05-02T11:14:16Z</time></trkpt><trkpt lat="43.139884054893585" lon="12.912483814131974"><ele>1177.0</ele><time>2026-05-02T11:14:17Z</time></trkpt><trkpt lat="43.13996666873978" lon="12.912417761326624"><ele>1177.0</ele><time>2026-05-02T11:14:18Z</time></trkpt><trkpt lat="43.14004621144357" lon="12.912350544850916"><ele>1177.25</ele><time>2026-05-02T11:14:19Z</time></trkpt><trkpt lat="43.140137189980635" lon="12.912273262145941"><ele>1177.5</ele><time>2026-05-02T11:14:20Z</time></trkpt><trkpt lat="43.14023602208578" lon="12.912182046039057"><ele>1177.75</ele><time>2026-05-02T11:14:21Z</time></trkpt><trkpt lat="43.140346488112975" lon="12.912078933206772"><ele>1178.0</ele><time>2026-05-02T11:14:22Z</time></trkpt><trkpt lat="43.14044462462025" lon="12.911989459015263"><ele>1178.0</ele><time>2026-05-02T11:14:23Z</time></trkpt><trkpt lat="43.14053753891189" lon="12.911906789682444"><ele>1178.0</ele><time>2026-05-02T11:14:24Z</time></trkpt><trkpt lat="43.14062266895319" lon="12.911831046350331"><ele>1178.0</ele><time>2026-05-02T11:14:25Z</time></trkpt><trkpt lat="43.140690347613024" lon="12.911774606638415"><ele>1178.0</ele><time>2026-05-02T11:14:26Z</time></trkpt><trkpt lat="43.14078448772841" lon="12.91169472345571"><ele>1178.0</ele><time>2026-05-02T11:14:28Z</time></trkpt><trkpt lat="43.14083624863903" lon="12.911627531319434"><ele>1179.0</ele><time>2026-05-02T11:14:30Z</time></trkpt><trkpt lat="43.14092694037585" lon="12.911553922113757"><ele>1180.0</ele><time>2026-05-02T11:14:32Z</time></trkpt><trkpt lat="43.141018239712004" lon="12.911479818853463"><ele>1181.0</ele><time>2026-05-02T11:14:34Z</time></trkpt><trkpt lat="43.141045397455834" lon="12.91135975554872"><ele>1182.0</ele><time>2026-05-02T11:14:35Z</time></trkpt><trkpt lat="43.14109765996269" lon="12.911301799073952"><ele>1183.0</ele><time>2026-05-02T11:14:36Z</time></trkpt><trkpt lat="43.141152614254366" lon="12.911237155682933"><ele>1184.0</ele><time>2026-05-02T11:14:37Z</time></trkpt><trkpt lat="43.14121217078749" lon="12.911164757489619"><ele>1184.0</ele><time>2026-05-02T11:14:38Z</time></trkpt><trkpt lat="43.141277524969304" lon="12.91107338994112"><ele>1184.0</ele><time>2026-05-02T11:14:39Z</time></trkpt><trkpt lat="43.14134947336708" lon="12.910961305131961"><ele>1184.0</ele><time>2026-05-02T11:14:40Z</time></trkpt><trkpt lat="43.141421601231826" lon="12.910848346088624"><ele>1184.0</ele><time>2026-05-02T11:14:41Z</time></trkpt><trkpt lat="43.14150252330972" lon="12.910719796326891"><ele>1184.0</ele><time>2026-05-02T11:14:42Z</time></trkpt><trkpt lat="43.14157863450581" lon="12.910594960701836"><ele>1183.75</ele><time>2026-05-02T11:14:43Z</time></trkpt><trkpt lat="43.14165433312735" lon="12.910465747338204"><ele>1183.5</ele><time>2026-05-02T11:14:44Z</time></trkpt><trkpt lat="43.14172705283183" lon="12.910318385184121"><ele>1183.25</ele><time>2026-05-02T11:14:45Z</time></trkpt><trkpt lat="43.14178713529552" lon="12.910167240627565"><ele>1183.0</ele><time>2026-05-02T11:14:46Z</time></trkpt><trkpt lat="43.14183162133905" lon="12.910028658464318"><ele>1181.8</ele><time>2026-05-02T11:14:47Z</time></trkpt><trkpt lat="43.14186246421768" lon="12.909882641234223"><ele>1180.6</ele><time>2026-05-02T11:14:48Z</time></trkpt><trkpt lat="43.141880242142065" lon="12.909737288084628"><ele>1179.4</ele><time>2026-05-02T11:14:49Z</time></trkpt><trkpt lat="43.1418853850101" lon="12.909593870565939"><ele>1178.2</ele><time>2026-05-02T11:14:50Z</time></trkpt><trkpt lat="43.14183488864025" lon="12.909461301479126"><ele>1177.0</ele><time>2026-05-02T11:14:51Z</time></trkpt><trkpt lat="43.14179463555098" lon="12.909327852031687"><ele>1176.2</ele><time>2026-05-02T11:14:52Z</time></trkpt><trkpt lat="43.14174823516599" lon="12.909191343705603"><ele>1175.4</ele><time>2026-05-02T11:14:53Z</time></trkpt><trkpt lat="43.14172428341788" lon="12.909058002910546"><ele>1174.6</ele><time>2026-05-02T11:14:54Z</time></trkpt><trkpt lat="43.14168746892718" lon="12.90893634038388"><ele>1173.8</ele><time>2026-05-02T11:14:55Z</time></trkpt><trkpt lat="43.141655410017755" lon="12.908811981061014"><ele>1173.0</ele><time>2026-05-02T11:14:56Z</time></trkpt><trkpt lat="43.141622631971444" lon="12.908683101937779"><ele>1173.0</ele><time>2026-05-02T11:14:57Z</time></trkpt><trkpt lat="43.141589755750665" lon="12.908551350424178"><ele>1173.0</ele><time>2026-05-02T11:14:58Z</time></trkpt><trkpt lat="43.141558370661556" lon="12.90841645413316"><ele>1173.0</ele><time>2026-05-02T11:14:59Z</time></trkpt><trkpt lat="43.141528221256394" lon="12.908280196387514"><ele>1173.0</ele><time>2026-05-02T11:15:00Z</time></trkpt><trkpt lat="43.141497042011366" lon="12.908128279428952"><ele>1173.0</ele><time>2026-05-02T11:15:01Z</time></trkpt><trkpt lat="43.14147458850455" lon="12.907985242228229"><ele>1169.0</ele><time>2026-05-02T11:15:02Z</time></trkpt><trkpt lat="43.14146226259213" lon="12.90784097002817"><ele>1165.0</ele><time>2026-05-02T11:15:03Z</time></trkpt><trkpt lat="43.14144446123845" lon="12.907701129162445"><ele>1161.0</ele><time>2026-05-02T11:15:04Z</time></trkpt><trkpt lat="43.141443652344726" lon="12.907536521357336"><ele>1157.0</ele><time>2026-05-02T11:15:05Z</time></trkpt><trkpt lat="43.141439215522304" lon="12.907376933207072"><ele>1153.0</ele><time>2026-05-02T11:15:05.999Z</time></trkpt><trkpt lat="43.141437712144516" lon="12.907215767257197"><ele>1151.5</ele><time>2026-05-02T11:15:06.999Z</time></trkpt><trkpt lat="43.14143795946286" lon="12.907057541865534"><ele>1150.0</ele><time>2026-05-02T11:15:07.999Z</time></trkpt><trkpt lat="43.14143204967256" lon="12.906898578145544"><ele>1148.5</ele><time>2026-05-02T11:15:08.999Z</time></trkpt><trkpt lat="43.14143128431952" lon="12.906745633779435"><ele>1147.0</ele><time>2026-05-02T11:15:09.999Z</time></trkpt><trkpt lat="43.14143433017244" lon="12.906580133000226"><ele>1145.0</ele><time>2026-05-02T11:15:10.999Z</time></trkpt><trkpt lat="43.141443398725116" lon="12.906421134037348"><ele>1143.0</ele><time>2026-05-02T11:15:11.999Z</time></trkpt><trkpt lat="43.14145424331856" lon="12.90626455910064"><ele>1141.0</ele><time>2026-05-02T11:15:12.999Z</time></trkpt><trkpt lat="43.14147156546103" lon="12.906110000193639"><ele>1139.0</ele><time>2026-05-02T11:15:13.999Z</time></trkpt><trkpt lat="43.14149019703234" lon="12.905956715281247"><ele>1139.5</ele><time>2026-05-02T11:15:14.999Z</time></trkpt><trkpt lat="43.14151429202848" lon="12.905827928074576"><ele>1140.0</ele><time>2026-05-02T11:15:15.999Z</time></trkpt><trkpt lat="43.14153379365859" lon="12.905711853950155"><ele>1140.5</ele><time>2026-05-02T11:15:16.999Z</time></trkpt><trkpt lat="43.14157242090563" lon="12.905617133402266"><ele>1141.0</ele><time>2026-05-02T11:15:17.999Z</time></trkpt><trkpt lat="43.14162948102921" lon="12.90554430046947"><ele>1141.5</ele><time>2026-05-02T11:15:18.999Z</time></trkpt><trkpt lat="43.1416757034392" lon="12.905470523550319"><ele>1142.0</ele><time>2026-05-02T11:15:19.999Z</time></trkpt><trkpt lat="43.141710569580894" lon="12.905383623621708"><ele>1142.0</ele><time>2026-05-02T11:15:20.999Z</time></trkpt><trkpt lat="43.14172169518318" lon="12.905291502530346"><ele>1142.0</ele><time>2026-05-02T11:15:21.999Z</time></trkpt><trkpt lat="43.14172026939034" lon="12.905177691265319"><ele>1142.0</ele><time>2026-05-02T11:15:22.999Z</time></trkpt><trkpt lat="43.14171137356487" lon="12.905075828115114"><ele>1142.0</ele><time>2026-05-02T11:15:23.999Z</time></trkpt><trkpt lat="43.14170919830634" lon="12.904962147433698"><ele>1142.0</ele><time>2026-05-02T11:15:24.999Z</time></trkpt><trkpt lat="43.14172702189203" lon="12.904847182628462"><ele>1142.0</ele><time>2026-05-02T11:15:25.999Z</time></trkpt><trkpt lat="43.14174965288177" lon="12.9047444907027"><ele>1140.6666666666667</ele><time>2026-05-02T11:15:26.999Z</time></trkpt><trkpt lat="43.14176764134371" lon="12.904629321658089"><ele>1139.3333333333335</ele><time>2026-05-02T11:15:27.999Z</time></trkpt><trkpt lat="43.14178901362161" lon="12.904526503593907"><ele>1138.0</ele><time>2026-05-02T11:15:28.999Z</time></trkpt><trkpt lat="43.14181501821231" lon="12.904439262267887"><ele>1136.6666666666667</ele><time>2026-05-02T11:15:29.999Z</time></trkpt><trkpt lat="43.141857407236515" lon="12.904350834221654"><ele>1135.3333333333333</ele><time>2026-05-02T11:15:30.999Z</time></trkpt><trkpt lat="43.14191605254421" lon="12.904288036957274"><ele>1134.0</ele><time>2026-05-02T11:15:31.999Z</time></trkpt><trkpt lat="43.14199105285492" lon="12.90422526127071"><ele>1131.8</ele><time>2026-05-02T11:15:32.999Z</time></trkpt><trkpt lat="43.14206232575458" lon="12.904176734134225"><ele>1129.6000000000001</ele><time>2026-05-02T11:15:33.999Z</time></trkpt><trkpt lat="43.14216024586157" lon="12.904117769773679"><ele>1127.4</ele><time>2026-05-02T11:15:35.999Z</time></trkpt><trkpt lat="43.14229871653338" lon="12.904122365448519"><ele>1125.2</ele><time>2026-05-02T11:15:37.999Z</time></trkpt><trkpt lat="43.1423956420678" lon="12.904171860630857"><ele>1123.0</ele><time>2026-05-02T11:15:38.999Z</time></trkpt><trkpt lat="43.14250449497878" lon="12.904206013605785"><ele>1121.5</ele><time>2026-05-02T11:15:39.999Z</time></trkpt><trkpt lat="43.14262036669512" lon="12.904231130169729"><ele>1120.0</ele><time>2026-05-02T11:15:40.999Z</time></trkpt><trkpt lat="43.14273842525986" lon="12.904257466881436"><ele>1118.5</ele><time>2026-05-02T11:15:41.999Z</time></trkpt><trkpt lat="43.142851990528406" lon="12.904274860888002"><ele>1117.0</ele><time>2026-05-02T11:15:42.999Z</time></trkpt><trkpt lat="43.14296339298094" lon="12.904298642393861"><ele>1117.75</ele><time>2026-05-02T11:15:43.999Z</time></trkpt><trkpt lat="43.14307900452657" lon="12.90432783135771"><ele>1118.5</ele><time>2026-05-02T11:15:44.999Z</time></trkpt><trkpt lat="43.143192038045406" lon="12.904365111633913"><ele>1119.25</ele><time>2026-05-02T11:15:45.999Z</time></trkpt><trkpt lat="43.143306450710185" lon="12.904403349181418"><ele>1120.0</ele><time>2026-05-02T11:15:46.999Z</time></trkpt><trkpt lat="43.14341323168902" lon="12.904447530376745"><ele>1120.0</ele><time>2026-05-02T11:15:47.999Z</time></trkpt><trkpt lat="43.143512382113045" lon="12.904478342980973"><ele>1120.0</ele><time>2026-05-02T11:15:48.999Z</time></trkpt><trkpt lat="43.14359930965381" lon="12.904481715059571"><ele>1120.0</ele><time>2026-05-02T11:15:49.999Z</time></trkpt><trkpt lat="43.143695648202" lon="12.904438700673277"><ele>1120.0</ele><time>2026-05-02T11:15:50.999Z</time></trkpt><trkpt lat="43.14378590233648" lon="12.904335967493694"><ele>1120.0</ele><time>2026-05-02T11:15:51.999Z</time></trkpt><trkpt lat="43.143847155114806" lon="12.904207013136718"><ele>1117.0</ele><time>2026-05-02T11:15:52.999Z</time></trkpt><trkpt lat="43.14389240455531" lon="12.904036001430155"><ele>1114.0</ele><time>2026-05-02T11:15:53.999Z</time></trkpt><trkpt lat="43.143927944277564" lon="12.90384534328395"><ele>1111.0</ele><time>2026-05-02T11:15:54.999Z</time></trkpt><trkpt lat="43.14395195445537" lon="12.903664858425369"><ele>1108.0</ele><time>2026-05-02T11:15:55.999Z</time></trkpt><trkpt lat="43.143965787767584" lon="12.903498637635145"><ele>1105.5</ele><time>2026-05-02T11:15:56.999Z</time></trkpt><trkpt lat="43.14395794786463" lon="12.903329381135563"><ele>1103.0</ele><time>2026-05-02T11:15:57.999Z</time></trkpt><trkpt lat="43.143925022743545" lon="12.903172222142278"><ele>1100.5</ele><time>2026-05-02T11:15:58.999Z</time></trkpt><trkpt lat="43.14387480368325" lon="12.903020700628097"><ele>1098.0</ele><time>2026-05-02T11:15:59.999Z</time></trkpt><trkpt lat="43.14380904415252" lon="12.902878420325726"><ele>1098.0</ele><time>2026-05-02T11:16:00.999Z</time></trkpt><trkpt lat="43.14371234451907" lon="12.902739528764757"><ele>1098.0</ele><time>2026-05-02T11:16:01.999Z</time></trkpt><trkpt lat="43.14360698108249" lon="12.902597683445551"><ele>1098.0</ele><time>2026-05-02T11:16:02.999Z</time></trkpt><trkpt lat="43.14351511985255" lon="12.90245600426206"><ele>1098.0</ele><time>2026-05-02T11:16:03.999Z</time></trkpt><trkpt lat="43.14344270728468" lon="12.902314009527727"><ele>1096.25</ele><time>2026-05-02T11:16:04.999Z</time></trkpt><trkpt lat="43.1433709460109" lon="12.90216403426575"><ele>1094.5</ele><time>2026-05-02T11:16:05.999Z</time></trkpt><trkpt lat="43.14329930519045" lon="12.902010088278939"><ele>1092.75</ele><time>2026-05-02T11:16:06.999Z</time></trkpt><trkpt lat="43.143240074080005" lon="12.901871096099942"><ele>1091.0</ele><time>2026-05-02T11:16:07.999Z</time></trkpt><trkpt lat="43.14318079836723" lon="12.901724430174943"><ele>1088.6</ele><time>2026-05-02T11:16:08.999Z</time></trkpt><trkpt lat="43.14312747668774" lon="12.90158054994992"><ele>1086.1999999999998</ele><time>2026-05-02T11:16:09.999Z</time></trkpt><trkpt lat="43.143075950082505" lon="12.901438177712544"><ele>1083.8000000000002</ele><time>2026-05-02T11:16:10.999Z</time></trkpt><trkpt lat="43.14302170101678" lon="12.90131306570957"><ele>1081.4</ele><time>2026-05-02T11:16:11.999Z</time></trkpt><trkpt lat="43.142966516511024" lon="12.901224521650056"><ele>1079.0</ele><time>2026-05-02T11:16:13Z</time></trkpt><trkpt lat="43.1428914582375" lon="12.90112878586311"><ele>1079.0</ele><time>2026-05-02T11:16:14Z</time></trkpt><trkpt lat="43.14280117195995" lon="12.901046880883163"><ele>1079.0</ele><time>2026-05-02T11:16:15Z</time></trkpt><trkpt lat="43.14270987843252" lon="12.900969074662111"><ele>1079.0</ele><time>2026-05-02T11:16:16Z</time></trkpt><trkpt lat="43.1426330580273" lon="12.900868669257822"><ele>1079.0</ele><time>2026-05-02T11:16:17Z</time></trkpt><trkpt lat="43.142584648358024" lon="12.900741383640439"><ele>1079.0</ele><time>2026-05-02T11:16:18Z</time></trkpt><trkpt lat="43.14254666097308" lon="12.900611372917595"><ele>1078.6000000000001</ele><time>2026-05-02T11:16:19Z</time></trkpt><trkpt lat="43.14249615896648" lon="12.900477734954146"><ele>1078.2</ele><time>2026-05-02T11:16:20Z</time></trkpt><trkpt lat="43.14244712089464" lon="12.90033771977914"><ele>1077.8000000000002</ele><time>2026-05-02T11:16:21Z</time></trkpt><trkpt lat="43.14240121565091" lon="12.900206108722314"><ele>1077.4</ele><time>2026-05-02T11:16:22Z</time></trkpt><trkpt lat="43.14235647323073" lon="12.900063264321995"><ele>1077.0</ele><time>2026-05-02T11:16:23Z</time></trkpt><trkpt lat="43.1423115631657" lon="12.899925442831094"><ele>1068.5</ele><time>2026-05-02T11:16:24Z</time></trkpt><trkpt lat="43.14227071863751" lon="12.899775544301821"><ele>1060.0</ele><time>2026-05-02T11:16:25Z</time></trkpt><trkpt lat="43.14222876636709" lon="12.899627735253732"><ele>1051.5</ele><time>2026-05-02T11:16:26Z</time></trkpt><trkpt lat="43.14218845936553" lon="12.899483896888835"><ele>1043.0</ele><time>2026-05-02T11:16:27Z</time></trkpt><trkpt lat="43.14215629849654" lon="12.899337535444163"><ele>1042.0</ele><time>2026-05-02T11:16:28Z</time></trkpt><trkpt lat="43.142135370664015" lon="12.89918237928503"><ele>1041.0</ele><time>2026-05-02T11:16:29Z</time></trkpt><trkpt lat="43.14210619078438" lon="12.899016234245515"><ele>1040.0</ele><time>2026-05-02T11:16:30Z</time></trkpt><trkpt lat="43.14207037471096" lon="12.898851998098356"><ele>1039.0</ele><time>2026-05-02T11:16:31Z</time></trkpt><trkpt lat="43.14204452530009" lon="12.898704775354142"><ele>1039.0</ele><time>2026-05-02T11:16:32Z</time></trkpt><trkpt lat="43.14203790869671" lon="12.89856181113567"><ele>1039.0</ele><time>2026-05-02T11:16:33Z</time></trkpt><trkpt lat="43.142023094114535" lon="12.898403413394583"><ele>1039.0</ele><time>2026-05-02T11:16:34Z</time></trkpt><trkpt lat="43.142005108355384" lon="12.898239753072394"><ele>1039.0</ele><time>2026-05-02T11:16:35Z</time></trkpt><trkpt lat="43.14199380429317" lon="12.898064077026511"><ele>1039.0</ele><time>2026-05-02T11:16:36Z</time></trkpt><trkpt lat="43.141982688035895" lon="12.897886703381069"><ele>1039.0</ele><time>2026-05-02T11:16:37Z</time></trkpt><trkpt lat="43.141974237363776" lon="12.897711329470662"><ele>1039.0</ele><time>2026-05-02T11:16:38Z</time></trkpt><trkpt lat="43.141970020884294" lon="12.897545147641129"><ele>1039.0</ele><time>2026-05-02T11:16:39Z</time></trkpt><trkpt lat="43.1419731320903" lon="12.89740090105686"><ele>1039.2</ele><time>2026-05-02T11:16:40Z</time></trkpt><trkpt lat="43.141999348504754" lon="12.897287749666912"><ele>1039.4</ele><time>2026-05-02T11:16:41Z</time></trkpt><trkpt lat="43.14206234888613" lon="12.897214759916837"><ele>1039.6</ele><time>2026-05-02T11:16:42Z</time></trkpt><trkpt lat="43.14215328625627" lon="12.897167219962743"><ele>1039.8</ele><time>2026-05-02T11:16:43Z</time></trkpt><trkpt lat="43.142245641386715" lon="12.897170271288848"><ele>1040.0</ele><time>2026-05-02T11:16:44Z</time></trkpt><trkpt lat="43.14232819759234" lon="12.897224912461095"><ele>1042.4</ele><time>2026-05-02T11:16:45Z</time></trkpt><trkpt lat="43.142393690928586" lon="12.89729576291282"><ele>1044.8</ele><time>2026-05-02T11:16:46Z</time></trkpt><trkpt lat="43.1424700929724" lon="12.89733299455196"><ele>1047.2</ele><time>2026-05-02T11:16:47Z</time></trkpt><trkpt lat="43.14256023103363" lon="12.897371627575117"><ele>1049.6</ele><time>2026-05-02T11:16:48Z</time></trkpt><trkpt lat="43.142676012598955" lon="12.897444758755451"><ele>1052.0</ele><time>2026-05-02T11:16:49Z</time></trkpt><trkpt lat="43.14279151729358" lon="12.897508786830125"><ele>1052.0</ele><time>2026-05-02T11:16:50Z</time></trkpt><trkpt lat="43.142902969351724" lon="12.897580125339145"><ele>1052.0</ele><time>2026-05-02T11:16:51Z</time></trkpt><trkpt lat="43.143016004106194" lon="12.897655174779176"><ele>1052.0</ele><time>2026-05-02T11:16:52Z</time></trkpt><trkpt lat="43.14312918708609" lon="12.897724573962845"><ele>1052.0</ele><time>2026-05-02T11:16:53Z</time></trkpt><trkpt lat="43.143234437794085" lon="12.897794606132333"><ele>1053.5</ele><time>2026-05-02T11:16:54Z</time></trkpt><trkpt lat="43.14334819125821" lon="12.897874043674054"><ele>1055.0</ele><time>2026-05-02T11:16:55Z</time></trkpt><trkpt lat="43.143477153404326" lon="12.897950013358075"><ele>1056.5</ele><time>2026-05-02T11:16:56Z</time></trkpt><trkpt lat="43.143609668455206" lon="12.898026274142492"><ele>1058.0</ele><time>2026-05-02T11:16:57Z</time></trkpt><trkpt lat="43.14374262235384" lon="12.898104469140003"><ele>1058.0</ele><time>2026-05-02T11:16:58Z</time></trkpt><trkpt lat="43.143882373891465" lon="12.898186606993148"><ele>1058.0</ele><time>2026-05-02T11:16:59Z</time></trkpt><trkpt lat="43.14401782890052" lon="12.898258264025296"><ele>1058.0</ele><time>2026-05-02T11:17:00Z</time></trkpt><trkpt lat="43.14415554537248" lon="12.8983206684934"><ele>1058.0</ele><time>2026-05-02T11:17:01Z</time></trkpt><trkpt lat="43.14430128457679" lon="12.898377602170017"><ele>1058.0</ele><time>2026-05-02T11:17:02Z</time></trkpt><trkpt lat="43.14446183817813" lon="12.898412329928517"><ele>1058.0</ele><time>2026-05-02T11:17:03Z</time></trkpt><trkpt lat="43.144627331448454" lon="12.898427539697646"><ele>1058.0</ele><time>2026-05-02T11:17:04Z</time></trkpt><trkpt lat="43.144780344993976" lon="12.898436036700085"><ele>1052.25</ele><time>2026-05-02T11:17:05Z</time></trkpt><trkpt lat="43.144924983987124" lon="12.898427431252147"><ele>1046.5</ele><time>2026-05-02T11:17:06Z</time></trkpt><trkpt lat="43.14505147205854" lon="12.8983965865603"><ele>1040.75</ele><time>2026-05-02T11:17:07Z</time></trkpt><trkpt lat="43.14518564319832" lon="12.89835144071595"><ele>1035.0</ele><time>2026-05-02T11:17:08Z</time></trkpt><trkpt lat="43.14531287856189" lon="12.898297611958913"><ele>1030.5</ele><time>2026-05-02T11:17:09Z</time></trkpt><trkpt lat="43.14544652878777" lon="12.898255755839918"><ele>1026.0</ele><time>2026-05-02T11:17:10Z</time></trkpt><trkpt lat="43.145564897052715" lon="12.898230265760642"><ele>1021.5</ele><time>2026-05-02T11:17:11Z</time></trkpt><trkpt lat="43.14566657118191" lon="12.898208095719694"><ele>1017.0</ele><time>2026-05-02T11:17:12Z</time></trkpt><trkpt lat="43.14574890264074" lon="12.898150107287114"><ele>1015.75</ele><time>2026-05-02T11:17:13Z</time></trkpt><trkpt lat="43.145845379188735" lon="12.898049439186739"><ele>1014.5</ele><time>2026-05-02T11:17:14Z</time></trkpt><trkpt lat="43.14594467513814" lon="12.897926270152015"><ele>1013.25</ele><time>2026-05-02T11:17:15Z</time></trkpt><trkpt lat="43.14603963332146" lon="12.897779837664395"><ele>1012.0</ele><time>2026-05-02T11:17:16Z</time></trkpt><trkpt lat="43.14610372880557" lon="12.897617594204242"><ele>1010.0</ele><time>2026-05-02T11:17:17Z</time></trkpt><trkpt lat="43.14615984949962" lon="12.897434049523847"><ele>1008.0</ele><time>2026-05-02T11:17:18Z</time></trkpt><trkpt lat="43.14623154498544" lon="12.897250121794386"><ele>1006.0</ele><time>2026-05-02T11:17:19Z</time></trkpt><trkpt lat="43.14629655066353" lon="12.89711714931152"><ele>1004.0</ele><time>2026-05-02T11:17:20Z</time></trkpt><trkpt lat="43.146362096287206" lon="12.896978132047375"><ele>1004.0</ele><time>2026-05-02T11:17:21Z</time></trkpt><trkpt lat="43.146427629040524" lon="12.896838697469288"><ele>1004.0</ele><time>2026-05-02T11:17:22Z</time></trkpt><trkpt lat="43.146491265591266" lon="12.896691143554497"><ele>1004.0</ele><time>2026-05-02T11:17:23Z</time></trkpt><trkpt lat="43.1465492783211" lon="12.896537361442757"><ele>1004.0</ele><time>2026-05-02T11:17:24Z</time></trkpt><trkpt lat="43.14659591586861" lon="12.896372683120676"><ele>1000.25</ele><time>2026-05-02T11:17:24.999Z</time></trkpt><trkpt lat="43.146623836361876" lon="12.89620510192382"><ele>996.5</ele><time>2026-05-02T11:17:25.999Z</time></trkpt><trkpt lat="43.14664773873533" lon="12.896036400847333"><ele>992.75</ele><time>2026-05-02T11:17:26.999Z</time></trkpt><trkpt lat="43.14666734749088" lon="12.895865709109652"><ele>989.0</ele><time>2026-05-02T11:17:27.999Z</time></trkpt><trkpt lat="43.14669078569326" lon="12.895704120304575"><ele>988.5</ele><time>2026-05-02T11:17:28.999Z</time></trkpt><trkpt lat="43.14670706095235" lon="12.895551697479492"><ele>988.0</ele><time>2026-05-02T11:17:29.999Z</time></trkpt><trkpt lat="43.14672567678005" lon="12.895397171146673"><ele>987.5</ele><time>2026-05-02T11:17:30.999Z</time></trkpt><trkpt lat="43.14674339623374" lon="12.8952430182929"><ele>987.0</ele><time>2026-05-02T11:17:31.999Z</time></trkpt><trkpt lat="43.14675202627101" lon="12.89508912041486"><ele>986.4000000000001</ele><time>2026-05-02T11:17:32.999Z</time></trkpt><trkpt lat="43.14674865047412" lon="12.894942774710001"><ele>985.8000000000001</ele><time>2026-05-02T11:17:33.999Z</time></trkpt><trkpt lat="43.14672356650706" lon="12.89481313983811"><ele>985.2</ele><time>2026-05-02T11:17:34.999Z</time></trkpt><trkpt lat="43.14667258424712" lon="12.894695118039293"><ele>984.6</ele><time>2026-05-02T11:17:35.999Z</time></trkpt><trkpt lat="43.14662060434913" lon="12.894584717768874"><ele>984.0</ele><time>2026-05-02T11:17:36.999Z</time></trkpt><trkpt lat="43.146570056228775" lon="12.894484224041296"><ele>983.2</ele><time>2026-05-02T11:17:37.999Z</time></trkpt><trkpt lat="43.14652513701711" lon="12.89439073074447"><ele>982.4000000000001</ele><time>2026-05-02T11:17:38.999Z</time></trkpt><trkpt lat="43.146483295297514" lon="12.894302929142254"><ele>981.6</ele><time>2026-05-02T11:17:39.999Z</time></trkpt><trkpt lat="43.14643618756193" lon="12.89420310154761"><ele>980.8</ele><time>2026-05-02T11:17:40.999Z</time></trkpt><trkpt lat="43.1463391049491" lon="12.894046882338076"><ele>980.0</ele><time>2026-05-02T11:17:42.999Z</time></trkpt><trkpt lat="43.14629116158826" lon="12.893976229033466"><ele>980.0</ele><time>2026-05-02T11:17:43.999Z</time></trkpt><trkpt lat="43.14623918547775" lon="12.893878931637405"><ele>980.0</ele><time>2026-05-02T11:17:44.999Z</time></trkpt><trkpt lat="43.146186125525766" lon="12.893790468530193"><ele>980.0</ele><time>2026-05-02T11:17:45.999Z</time></trkpt><trkpt lat="43.146130161085665" lon="12.893685322353177"><ele>980.0</ele><time>2026-05-02T11:17:46.999Z</time></trkpt><trkpt lat="43.14608170289416" lon="12.893580050023449"><ele>980.0</ele><time>2026-05-02T11:17:47.999Z</time></trkpt><trkpt lat="43.14603242766134" lon="12.893465844970459"><ele>978.2</ele><time>2026-05-02T11:17:48.999Z</time></trkpt><trkpt lat="43.145983833142466" lon="12.893353288299911"><ele>976.4</ele><time>2026-05-02T11:17:49.999Z</time></trkpt><trkpt lat="43.14593178594428" lon="12.893217763879957"><ele>974.5999999999999</ele><time>2026-05-02T11:17:50.999Z</time></trkpt><trkpt lat="43.14587474570018" lon="12.893094601299047"><ele>972.8</ele><time>2026-05-02T11:17:51.999Z</time></trkpt><trkpt lat="43.14581052249669" lon="12.892959681343251"><ele>971.0</ele><time>2026-05-02T11:17:52.999Z</time></trkpt><trkpt lat="43.145739186822006" lon="12.892821217685567"><ele>965.1999999999999</ele><time>2026-05-02T11:17:53.999Z</time></trkpt><trkpt lat="43.14567002418118" lon="12.892682126204667"><ele>959.3999999999999</ele><time>2026-05-02T11:17:54.999Z</time></trkpt><trkpt lat="43.145611383434215" lon="12.892552828900671"><ele>953.6</ele><time>2026-05-02T11:17:55.999Z</time></trkpt><trkpt lat="43.145566840596416" lon="12.892412419255995"><ele>947.8</ele><time>2026-05-02T11:17:56.999Z</time></trkpt><trkpt lat="43.145550032199274" lon="12.892274755406705"><ele>942.0</ele><time>2026-05-02T11:17:57.999Z</time></trkpt><trkpt lat="43.145557304647" lon="12.892141410657917"><ele>940.25</ele><time>2026-05-02T11:17:58.999Z</time></trkpt><trkpt lat="43.1455976690128" lon="12.891997845264537"><ele>938.5</ele><time>2026-05-02T11:17:59.999Z</time></trkpt><trkpt lat="43.14565958019759" lon="12.891842239768446"><ele>936.75</ele><time>2026-05-02T11:18:00.999Z</time></trkpt><trkpt lat="43.14571730859373" lon="12.891694862185892"><ele>935.0</ele><time>2026-05-02T11:18:01.999Z</time></trkpt><trkpt lat="43.14576725702564" lon="12.891590114503792"><ele>939.6</ele><time>2026-05-02T11:18:02.999Z</time></trkpt><trkpt lat="43.145829714446464" lon="12.8915122264156"><ele>944.2</ele><time>2026-05-02T11:18:03.999Z</time></trkpt><trkpt lat="43.1459292175137" lon="12.891433401101443"><ele>948.8</ele><time>2026-05-02T11:18:04.999Z</time></trkpt><trkpt lat="43.14603820634729" lon="12.891390577560895"><ele>953.4</ele><time>2026-05-02T11:18:05.999Z</time></trkpt><trkpt lat="43.14614509003692" lon="12.89137431705713"><ele>958.0</ele><time>2026-05-02T11:18:06.999Z</time></trkpt><trkpt lat="43.146247088619766" lon="12.891376445314382"><ele>958.0</ele><time>2026-05-02T11:18:07.999Z</time></trkpt><trkpt lat="43.146339470416066" lon="12.891395883421014"><ele>958.0</ele><time>2026-05-02T11:18:08.999Z</time></trkpt><trkpt lat="43.14643134645791" lon="12.891429717975482"><ele>958.0</ele><time>2026-05-02T11:18:09.999Z</time></trkpt><trkpt lat="43.14652544391815" lon="12.89147612154126"><ele>958.0</ele><time>2026-05-02T11:18:10.999Z</time></trkpt><trkpt lat="43.14661872231124" lon="12.891521045577393"><ele>958.0</ele><time>2026-05-02T11:18:11.999Z</time></trkpt><trkpt lat="43.14671002259471" lon="12.891561210282813"><ele>957.4</ele><time>2026-05-02T11:18:12.999Z</time></trkpt><trkpt lat="43.146813444060776" lon="12.891613711106896"><ele>956.8</ele><time>2026-05-02T11:18:13.999Z</time></trkpt><trkpt lat="43.14690805658502" lon="12.891662824485035"><ele>956.2</ele><time>2026-05-02T11:18:14.999Z</time></trkpt><trkpt lat="43.14701143990872" lon="12.891720544251418"><ele>955.6</ele><time>2026-05-02T11:18:15.999Z</time></trkpt><trkpt lat="43.147102560530136" lon="12.891783178490378"><ele>955.0</ele><time>2026-05-02T11:18:16.999Z</time></trkpt><trkpt lat="43.14718463140978" lon="12.891853809042978"><ele>953.0</ele><time>2026-05-02T11:18:17.999Z</time></trkpt><trkpt lat="43.14727753415742" lon="12.891945842214204"><ele>951.0</ele><time>2026-05-02T11:18:19Z</time></trkpt><trkpt lat="43.14735938926667" lon="12.892048663647023"><ele>949.0</ele><time>2026-05-02T11:18:20Z</time></trkpt><trkpt lat="43.147430971371534" lon="12.892155055897081"><ele>947.0</ele><time>2026-05-02T11:18:21Z</time></trkpt><trkpt lat="43.147508676425424" lon="12.892269032584949"><ele>945.0</ele><time>2026-05-02T11:18:22Z</time></trkpt><trkpt lat="43.147578873458485" lon="12.892369771227614"><ele>945.0</ele><time>2026-05-02T11:18:23Z</time></trkpt><trkpt lat="43.147642452310436" lon="12.892470539445268"><ele>945.0</ele><time>2026-05-02T11:18:24Z</time></trkpt><trkpt lat="43.1477052901163" lon="12.892582182278009"><ele>945.0</ele><time>2026-05-02T11:18:25Z</time></trkpt><trkpt lat="43.147763237731894" lon="12.892703126513432"><ele>945.0</ele><time>2026-05-02T11:18:26Z</time></trkpt><trkpt lat="43.147825986120466" lon="12.89283702377232"><ele>945.0</ele><time>2026-05-02T11:18:27Z</time></trkpt><trkpt lat="43.14789612546571" lon="12.892955059151017"><ele>947.0</ele><time>2026-05-02T11:18:28Z</time></trkpt><trkpt lat="43.147955731012296" lon="12.89306095272702"><ele>949.0</ele><time>2026-05-02T11:18:29Z</time></trkpt><trkpt lat="43.148006012860584" lon="12.89315369607954"><ele>951.0</ele><time>2026-05-02T11:18:30Z</time></trkpt><trkpt lat="43.14804367554411" lon="12.893228916207617"><ele>953.0</ele><time>2026-05-02T11:18:31Z</time></trkpt><trkpt lat="43.14810333818204" lon="12.893315745146563"><ele>955.0</ele><time>2026-05-02T11:18:33Z</time></trkpt><trkpt lat="43.14815660725384" lon="12.893394830387926"><ele>957.0</ele><time>2026-05-02T11:18:35Z</time></trkpt><trkpt lat="43.14820793994578" lon="12.893498271604754"><ele>952.2</ele><time>2026-05-02T11:18:38Z</time></trkpt><trkpt lat="43.148246232860636" lon="12.893587406087363"><ele>947.4000000000001</ele><time>2026-05-02T11:18:39Z</time></trkpt><trkpt lat="43.148290850048305" lon="12.893710856691165"><ele>942.5999999999999</ele><time>2026-05-02T11:18:40Z</time></trkpt><trkpt lat="43.14832258046995" lon="12.893830599065652"><ele>937.8</ele><time>2026-05-02T11:18:41Z</time></trkpt><trkpt lat="43.14833521418975" lon="12.89393599343879"><ele>933.0</ele><time>2026-05-02T11:18:42Z</time></trkpt><trkpt lat="43.14835576570069" lon="12.894099832304196"><ele>933.0</ele><time>2026-05-02T11:18:44Z</time></trkpt><trkpt lat="43.14845090643836" lon="12.894129884649749"><ele>933.0</ele><time>2026-05-02T11:18:46Z</time></trkpt><trkpt lat="43.14849315944653" lon="12.894060926578"><ele>933.0</ele><time>2026-05-02T11:18:47Z</time></trkpt><trkpt lat="43.148504859339354" lon="12.893948840205464"><ele>933.0</ele><time>2026-05-02T11:18:48Z</time></trkpt><trkpt lat="43.148485749651265" lon="12.893792588200581"><ele>933.0</ele><time>2026-05-02T11:18:49Z</time></trkpt><trkpt lat="43.148471882302665" lon="12.893655676502359"><ele>933.0</ele><time>2026-05-02T11:18:50Z</time></trkpt><trkpt lat="43.14848171074935" lon="12.893560473631034"><ele>933.0</ele><time>2026-05-02T11:18:51Z</time></trkpt><trkpt lat="43.14849191962951" lon="12.893472303441543"><ele>933.0</ele><time>2026-05-02T11:18:52Z</time></trkpt><trkpt lat="43.14849961153016" lon="12.893359222604214"><ele>933.0</ele><time>2026-05-02T11:18:54Z</time></trkpt><trkpt lat="43.14850926019951" lon="12.893243014563726"><ele>933.0</ele><time>2026-05-02T11:18:57Z</time></trkpt><trkpt lat="43.14848490841619" lon="12.893120936213746"><ele>933.0</ele><time>2026-05-02T11:20:00.999Z</time></trkpt><trkpt lat="43.148477951201414" lon="12.892974558944065"><ele>932.5</ele><time>2026-05-02T11:20:02.999Z</time></trkpt><trkpt lat="43.14847578566978" lon="12.892856448752926"><ele>932.0</ele><time>2026-05-02T11:20:03.999Z</time></trkpt><trkpt lat="43.14847281513676" lon="12.89273694490444"><ele>931.5</ele><time>2026-05-02T11:20:04.999Z</time></trkpt><trkpt lat="43.14847869002574" lon="12.892624490538857"><ele>931.0</ele><time>2026-05-02T11:20:05.999Z</time></trkpt><trkpt lat="43.14847605191582" lon="12.892489607755905"><ele>930.5</ele><time>2026-05-02T11:20:06.999Z</time></trkpt><trkpt lat="43.14848688995167" lon="12.892367429461524"><ele>930.0</ele><time>2026-05-02T11:20:07.999Z</time></trkpt><trkpt lat="43.14849496415431" lon="12.892238828439938"><ele>928.1666666666666</ele><time>2026-05-02T11:20:08.999Z</time></trkpt><trkpt lat="43.14850093725475" lon="12.892113668844319"><ele>926.3333333333333</ele><time>2026-05-02T11:20:09.999Z</time></trkpt><trkpt lat="43.14850920862773" lon="12.891992590273377"><ele>924.5</ele><time>2026-05-02T11:20:10.999Z</time></trkpt><trkpt lat="43.148524336209256" lon="12.891872509611607"><ele>922.6666666666666</ele><time>2026-05-02T11:20:11.999Z</time></trkpt><trkpt lat="43.14855011331897" lon="12.891765039629632"><ele>920.8333333333333</ele><time>2026-05-02T11:20:12.999Z</time></trkpt><trkpt lat="43.14855630551252" lon="12.891635685961235"><ele>919.0</ele><time>2026-05-02T11:20:13.999Z</time></trkpt><trkpt lat="43.148580088008984" lon="12.891520985301625"><ele>917.3333333333333</ele><time>2026-05-02T11:20:14.999Z</time></trkpt><trkpt lat="43.14860296674412" lon="12.891411840585885"><ele>915.6666666666666</ele><time>2026-05-02T11:20:15.999Z</time></trkpt><trkpt lat="43.14862029771758" lon="12.891303209202944"><ele>914.0</ele><time>2026-05-02T11:20:16.999Z</time></trkpt><trkpt lat="43.14863656611591" lon="12.891190641351312"><ele>912.3333333333333</ele><time>2026-05-02T11:20:17.999Z</time></trkpt><trkpt lat="43.14864301705131" lon="12.891099773251973"><ele>910.6666666666666</ele><time>2026-05-02T11:20:18.999Z</time></trkpt><trkpt lat="43.148648695149475" lon="12.890962722857351"><ele>909.0</ele><time>2026-05-02T11:20:20.999Z</time></trkpt><trkpt lat="43.14866228669102" lon="12.890801224019897"><ele>907.8333333333334</ele><time>2026-05-02T11:20:22.999Z</time></trkpt><trkpt lat="43.14865466615857" lon="12.890632945306812"><ele>906.6666666666667</ele><time>2026-05-02T11:20:25Z</time></trkpt><trkpt lat="43.14864287594259" lon="12.890532723069501"><ele>905.5</ele><time>2026-05-02T11:20:26Z</time></trkpt><trkpt lat="43.1486275897073" lon="12.890418631581875"><ele>904.3333333333334</ele><time>2026-05-02T11:20:27Z</time></trkpt><trkpt lat="43.14860854163172" lon="12.890315068477108"><ele>903.1666666666667</ele><time>2026-05-02T11:20:28Z</time></trkpt><trkpt lat="43.148594445600224" lon="12.890206086350059"><ele>902.0</ele><time>2026-05-02T11:20:29Z</time></trkpt><trkpt lat="43.148578200203104" lon="12.890097169991131"><ele>900.3333333333334</ele><time>2026-05-02T11:20:30Z</time></trkpt><trkpt lat="43.14856351431895" lon="12.889983319516237"><ele>898.6666666666667</ele><time>2026-05-02T11:20:31Z</time></trkpt><trkpt lat="43.148550394249284" lon="12.889880575032329"><ele>897.0</ele><time>2026-05-02T11:20:32Z</time></trkpt><trkpt lat="43.148539520721414" lon="12.889792979900436"><ele>895.3333333333333</ele><time>2026-05-02T11:20:33Z</time></trkpt><trkpt lat="43.14853079377626" lon="12.889678359459458"><ele>893.6666666666666</ele><time>2026-05-02T11:20:35Z</time></trkpt><trkpt lat="43.148536597571294" lon="12.889587472249245"><ele>892.0</ele><time>2026-05-02T11:20:38Z</time></trkpt><trkpt lat="43.14855637405746" lon="12.889476708668358"><ele>891.9999999999999</ele><time>2026-05-02T11:20:41Z</time></trkpt><trkpt lat="43.148580020245255" lon="12.889375245564704"><ele>892.0</ele><time>2026-05-02T11:20:46Z</time></trkpt><trkpt lat="43.14865509654947" lon="12.889276258987492"><ele>892.0</ele><time>2026-05-02T11:20:49Z</time></trkpt><trkpt lat="43.14866339512991" lon="12.889170793470884"><ele>892.0</ele><time>2026-05-02T11:20:51Z</time></trkpt><trkpt lat="43.14865608442229" lon="12.88907544544557"><ele>891.9999999999999</ele><time>2026-05-02T11:20:53Z</time></trkpt><trkpt lat="43.14863382119612" lon="12.88898152200644"><ele>892.0</ele><time>2026-05-02T11:20:55Z</time></trkpt><trkpt lat="43.14861952967595" lon="12.888880683430353"><ele>889.8</ele><time>2026-05-02T11:20:57Z</time></trkpt><trkpt lat="43.14858789365714" lon="12.888757922958513"><ele>887.6</ele><time>2026-05-02T11:20:59Z</time></trkpt><trkpt lat="43.1485299622375" lon="12.888619990517483"><ele>885.3999999999999</ele><time>2026-05-02T11:21:01Z</time></trkpt><trkpt lat="43.148477327552875" lon="12.888504787447992"><ele>883.1999999999999</ele><time>2026-05-02T11:21:03Z</time></trkpt><trkpt lat="43.14841326829369" lon="12.888363544915348"><ele>881.0</ele><time>2026-05-02T11:21:05Z</time></trkpt><trkpt lat="43.148342529821925" lon="12.888246484635273"><ele>881.3333333333334</ele><time>2026-05-02T11:21:07Z</time></trkpt><trkpt lat="43.14829331222937" lon="12.888154064222862"><ele>881.6666666666667</ele><time>2026-05-02T11:21:10Z</time></trkpt><trkpt lat="43.14821934850586" lon="12.888032661566475"><ele>882.0</ele><time>2026-05-02T11:21:12Z</time></trkpt><trkpt lat="43.148167068663625" lon="12.887973870518916"><ele>882.3333333333333</ele><time>2026-05-02T11:21:13Z</time></trkpt><trkpt lat="43.148117742667516" lon="12.887919071470609"><ele>882.6666666666666</ele><time>2026-05-02T11:21:14Z</time></trkpt><trkpt lat="43.14807118176812" lon="12.887856066100236"><ele>883.0</ele><time>2026-05-02T11:21:15Z</time></trkpt><trkpt lat="43.14798914771114" lon="12.88775962709553"><ele>883.0</ele><time>2026-05-02T11:21:17Z</time></trkpt><trkpt lat="43.147906090800134" lon="12.887696107353475"><ele>883.0</ele><time>2026-05-02T11:21:19Z</time></trkpt><trkpt lat="43.14784179612741" lon="12.887595671432617"><ele>883.0</ele><time>2026-05-02T11:21:22Z</time></trkpt><trkpt lat="43.147774864221425" lon="12.88751261418656"><ele>883.0</ele><time>2026-05-02T11:21:24Z</time></trkpt><trkpt lat="43.14770590282996" lon="12.887406209374564"><ele>883.0</ele><time>2026-05-02T11:21:26Z</time></trkpt><trkpt lat="43.14761668707745" lon="12.887289856575242"><ele>880.5999999999999</ele><time>2026-05-02T11:21:28Z</time></trkpt><trkpt lat="43.14752486320292" lon="12.887179941817823"><ele>878.1999999999999</ele><time>2026-05-02T11:21:30Z</time></trkpt><trkpt lat="43.14744966338212" lon="12.887055220239056"><ele>875.8</ele><time>2026-05-02T11:21:32Z</time></trkpt><trkpt lat="43.147386442666125" lon="12.886999726352167"><ele>873.4</ele><time>2026-05-02T11:21:34Z</time></trkpt><trkpt lat="43.147319536852734" lon="12.886914748292954"><ele>871.0</ele><time>2026-05-02T11:21:36Z</time></trkpt><trkpt lat="43.147241522573815" lon="12.886804127299941"><ele>865.1666666666666</ele><time>2026-05-02T11:21:38Z</time></trkpt><trkpt lat="43.14719068604115" lon="12.88674244004168"><ele>859.3333333333333</ele><time>2026-05-02T11:21:39Z</time></trkpt><trkpt lat="43.147103781175566" lon="12.886626904550422"><ele>853.5</ele><time>2026-05-02T11:21:41Z</time></trkpt><trkpt lat="43.147020183691815" lon="12.88650667844232"><ele>847.6666666666667</ele><time>2026-05-02T11:21:43Z</time></trkpt><trkpt lat="43.146969818813126" lon="12.886448606926502"><ele>841.8333333333334</ele><time>2026-05-02T11:21:44Z</time></trkpt><trkpt lat="43.14691758771027" lon="12.886390849764613"><ele>836.0</ele><time>2026-05-02T11:21:45Z</time></trkpt><trkpt lat="43.146872459094226" lon="12.886328832964308"><ele>836.0</ele><time>2026-05-02T11:21:45.999Z</time></trkpt><trkpt lat="43.14679034683489" lon="12.886252081232284"><ele>836.0</ele><time>2026-05-02T11:21:47.999Z</time></trkpt><trkpt lat="43.14672340857803" lon="12.886163908478263"><ele>836.0</ele><time>2026-05-02T11:21:49.999Z</time></trkpt><trkpt lat="43.14662340699651" lon="12.886054530592865"><ele>836.0</ele><time>2026-05-02T11:21:51.999Z</time></trkpt><trkpt lat="43.14656084849867" lon="12.885997612465125"><ele>836.0</ele><time>2026-05-02T11:21:52.999Z</time></trkpt><trkpt lat="43.14650347028556" lon="12.885930402648928"><ele>832.8333333333334</ele><time>2026-05-02T11:21:53.999Z</time></trkpt><trkpt lat="43.146439665860086" lon="12.885849107392875"><ele>829.6666666666667</ele><time>2026-05-02T11:21:54.999Z</time></trkpt><trkpt lat="43.14638298596007" lon="12.885764349158677"><ele>826.5</ele><time>2026-05-02T11:21:55.999Z</time></trkpt><trkpt lat="43.14632136400091" lon="12.885682168415451"><ele>823.3333333333333</ele><time>2026-05-02T11:21:56.999Z</time></trkpt><trkpt lat="43.14625619390832" lon="12.885617773807596"><ele>820.1666666666666</ele><time>2026-05-02T11:21:57.999Z</time></trkpt><trkpt lat="43.146198757253124" lon="12.885566779179905"><ele>817.0</ele><time>2026-05-02T11:21:58.999Z</time></trkpt><trkpt lat="43.146188103680586" lon="12.885442465366983"><ele>816.9999999999999</ele><time>2026-05-02T11:22:00.999Z</time></trkpt><trkpt lat="43.146147665767565" lon="12.885365473484093"><ele>817.0</ele><time>2026-05-02T11:22:02.999Z</time></trkpt><trkpt lat="43.14608837841976" lon="12.88528556760242"><ele>817.0</ele><time>2026-05-02T11:22:04.999Z</time></trkpt><trkpt lat="43.146011480917856" lon="12.88521370134866"><ele>817.0</ele><time>2026-05-02T11:22:06.999Z</time></trkpt><trkpt lat="43.14596156272606" lon="12.885159502069019"><ele>816.9999999999999</ele><time>2026-05-02T11:22:07.999Z</time></trkpt><trkpt lat="43.1459010301239" lon="12.88504721761389"><ele>817.0</ele><time>2026-05-02T11:22:09.999Z</time></trkpt><trkpt lat="43.1458372104519" lon="12.884988455371888"><ele>813.3333333333333</ele><time>2026-05-02T11:22:12.999Z</time></trkpt><trkpt lat="43.14577097097689" lon="12.884884073863535"><ele>809.6666666666666</ele><time>2026-05-02T11:22:15.999Z</time></trkpt><trkpt lat="43.145737158063646" lon="12.8847882872288"><ele>806.0</ele><time>2026-05-02T11:22:17.999Z</time></trkpt><trkpt lat="43.145678831570336" lon="12.8847057906415"><ele>802.3333333333333</ele><time>2026-05-02T11:22:20.999Z</time></trkpt><trkpt lat="43.145618449464294" lon="12.88461118804489"><ele>798.6666666666666</ele><time>2026-05-02T11:22:22.999Z</time></trkpt><trkpt lat="43.145560031125804" lon="12.88455198296552"><ele>795.0</ele><time>2026-05-02T11:22:24.999Z</time></trkpt><trkpt lat="43.1454989056507" lon="12.884488058200963"><ele>795.0</ele><time>2026-05-02T11:22:26.999Z</time></trkpt><trkpt lat="43.145412553364245" lon="12.884475707297126"><ele>795.0</ele><time>2026-05-02T11:22:29.999Z</time></trkpt><trkpt lat="43.145343901988106" lon="12.8844608892457"><ele>795.0</ele><time>2026-05-02T11:22:33Z</time></trkpt><trkpt lat="43.14525986147776" lon="12.884397687908873"><ele>795.0</ele><time>2026-05-02T11:22:36Z</time></trkpt><trkpt lat="43.14520772331936" lon="12.884317772104135"><ele>795.0</ele><time>2026-05-02T11:22:38Z</time></trkpt><trkpt lat="43.145130894836754" lon="12.884282111803122"><ele>795.0</ele><time>2026-05-02T11:22:40Z</time></trkpt><trkpt lat="43.145036385144586" lon="12.88429430709175"><ele>786.6</ele><time>2026-05-02T11:22:43Z</time></trkpt><trkpt lat="43.14493719889177" lon="12.884247199564129"><ele>778.2</ele><time>2026-05-02T11:22:45Z</time></trkpt><trkpt lat="43.144837108921486" lon="12.88415559858167"><ele>769.8</ele><time>2026-05-02T11:22:47Z</time></trkpt><trkpt lat="43.1447928498419" lon="12.884058683840665"><ele>761.4</ele><time>2026-05-02T11:22:49Z</time></trkpt><trkpt lat="43.14482540791067" lon="12.883965773160094"><ele>753.0</ele><time>2026-05-02T11:22:51Z</time></trkpt><trkpt lat="43.14484320467856" lon="12.883876699435431"><ele>753.0</ele><time>2026-05-02T11:22:53Z</time></trkpt><trkpt lat="43.14490670503839" lon="12.88378682708609"><ele>753.0</ele><time>2026-05-02T11:22:56Z</time></trkpt><trkpt lat="43.14495976799822" lon="12.883720325136702"><ele>753.0</ele><time>2026-05-02T11:22:59Z</time></trkpt><trkpt lat="43.14500442848355" lon="12.88365142055494"><ele>753.0</ele><time>2026-05-02T11:23:12Z</time></trkpt><trkpt lat="43.14505187620279" lon="12.88355963723833"><ele>753.0</ele><time>2026-05-02T11:23:19Z</time></trkpt><trkpt lat="43.145064586808495" lon="12.883407873839175"><ele>753.0</ele><time>2026-05-02T11:23:22Z</time></trkpt><trkpt lat="43.14508504819831" lon="12.88325888828666"><ele>748.2</ele><time>2026-05-02T11:23:24Z</time></trkpt><trkpt lat="43.14510409964822" lon="12.883155566400946"><ele>743.4</ele><time>2026-05-02T11:23:26Z</time></trkpt><trkpt lat="43.14516130327414" lon="12.883072927520208"><ele>738.6</ele><time>2026-05-02T11:23:36Z</time></trkpt><trkpt lat="43.14527606557926" lon="12.883037634855043"><ele>733.8000000000001</ele><time>2026-05-02T11:23:38Z</time></trkpt><trkpt lat="43.145355522333496" lon="12.883033261000323"><ele>729.0</ele><time>2026-05-02T11:23:39Z</time></trkpt><trkpt lat="43.14544999463738" lon="12.883016025442206"><ele>729.0</ele><time>2026-05-02T11:23:40Z</time></trkpt><trkpt lat="43.145552270477005" lon="12.882992746312087"><ele>729.0</ele><time>2026-05-02T11:23:41Z</time></trkpt><trkpt lat="43.14564930979248" lon="12.882965521908984"><ele>729.0</ele><time>2026-05-02T11:23:42Z</time></trkpt><trkpt lat="43.14574604176325" lon="12.8829343400097"><ele>729.0</ele><time>2026-05-02T11:23:43Z</time></trkpt><trkpt lat="43.145848059655606" lon="12.882909371194515"><ele>729.0</ele><time>2026-05-02T11:23:44Z</time></trkpt><trkpt lat="43.145955581015976" lon="12.882891765555497"><ele>727.6</ele><time>2026-05-02T11:23:45Z</time></trkpt><trkpt lat="43.14606243284831" lon="12.882859800834028"><ele>726.2</ele><time>2026-05-02T11:23:46Z</time></trkpt><trkpt lat="43.146168273513084" lon="12.882810552455197"><ele>724.8000000000001</ele><time>2026-05-02T11:23:47Z</time></trkpt><trkpt lat="43.14626922416441" lon="12.882751469306166"><ele>723.4000000000001</ele><time>2026-05-02T11:23:48Z</time></trkpt><trkpt lat="43.146367964901984" lon="12.882681753090582"><ele>722.0</ele><time>2026-05-02T11:23:49Z</time></trkpt><trkpt lat="43.14646748953098" lon="12.882605933516421"><ele>717.6</ele><time>2026-05-02T11:23:50Z</time></trkpt><trkpt lat="43.14656469408803" lon="12.88253571660812"><ele>713.2</ele><time>2026-05-02T11:23:51Z</time></trkpt><trkpt lat="43.14666177654867" lon="12.882480955194143"><ele>708.8</ele><time>2026-05-02T11:23:52Z</time></trkpt><trkpt lat="43.14676170130953" lon="12.882446565491119"><ele>704.4</ele><time>2026-05-02T11:23:52.999Z</time></trkpt><trkpt lat="43.146865786977195" lon="12.882431457503854"><ele>700.0</ele><time>2026-05-02T11:23:53.999Z</time></trkpt><trkpt lat="43.14696515401556" lon="12.882426493418597"><ele>700.0</ele><time>2026-05-02T11:23:54.999Z</time></trkpt><trkpt lat="43.14705144280116" lon="12.882432205715682"><ele>700.0</ele><time>2026-05-02T11:23:55.999Z</time></trkpt><trkpt lat="43.14712400749649" lon="12.882447378413907"><ele>700.0</ele><time>2026-05-02T11:23:56.999Z</time></trkpt><trkpt lat="43.14718224951833" lon="12.882496511237141"><ele>700.0</ele><time>2026-05-02T11:23:57.999Z</time></trkpt><trkpt lat="43.14723772781968" lon="12.882572130726656"><ele>700.0</ele><time>2026-05-02T11:23:58.999Z</time></trkpt><trkpt lat="43.147288156539474" lon="12.88265298375218"><ele>700.0</ele><time>2026-05-02T11:23:59.999Z</time></trkpt><trkpt lat="43.147337519764925" lon="12.882732268809233"><ele>698.3333333333334</ele><time>2026-05-02T11:24:00.999Z</time></trkpt><trkpt lat="43.1473793581976" lon="12.882820333884535"><ele>696.6666666666667</ele><time>2026-05-02T11:24:01.999Z</time></trkpt><trkpt lat="43.14740642233166" lon="12.882928834443824"><ele>695.0</ele><time>2026-05-02T11:24:02.999Z</time></trkpt><trkpt lat="43.147419576217246" lon="12.883046068582496"><ele>693.3333333333334</ele><time>2026-05-02T11:24:03.999Z</time></trkpt><trkpt lat="43.14743260995346" lon="12.883151747171626"><ele>691.6666666666666</ele><time>2026-05-02T11:24:04.999Z</time></trkpt><trkpt lat="43.14745250235903" lon="12.883252956976536"><ele>690.0</ele><time>2026-05-02T11:24:05.999Z</time></trkpt><trkpt lat="43.147479434440655" lon="12.883359367520011"><ele>693.2</ele><time>2026-05-02T11:24:06.999Z</time></trkpt><trkpt lat="43.14750409251806" lon="12.883479097059285"><ele>696.4</ele><time>2026-05-02T11:24:07.999Z</time></trkpt><trkpt lat="43.14753434597562" lon="12.883601577713181"><ele>699.5999999999999</ele><time>2026-05-02T11:24:08.999Z</time></trkpt><trkpt lat="43.147592482987655" lon="12.883721096330362"><ele>702.8</ele><time>2026-05-02T11:24:09.999Z</time></trkpt><trkpt lat="43.1476805740571" lon="12.883799301003537"><ele>706.0</ele><time>2026-05-02T11:24:10.999Z</time></trkpt><trkpt lat="43.1477798934049" lon="12.883852472680386"><ele>706.0</ele><time>2026-05-02T11:24:11.999Z</time></trkpt><trkpt lat="43.147883802244856" lon="12.883906281486627"><ele>706.0</ele><time>2026-05-02T11:24:12.999Z</time></trkpt><trkpt lat="43.14798755582561" lon="12.883959272729333"><ele>706.0</ele><time>2026-05-02T11:24:13.999Z</time></trkpt><trkpt lat="43.14808581649389" lon="12.884002886426387"><ele>706.0</ele><time>2026-05-02T11:24:14.999Z</time></trkpt><trkpt lat="43.148198149075206" lon="12.884042356928047"><ele>706.0</ele><time>2026-05-02T11:24:15.999Z</time></trkpt><trkpt lat="43.148320670944" lon="12.884085496716033"><ele>700.5</ele><time>2026-05-02T11:24:16.999Z</time></trkpt><trkpt lat="43.14845463990604" lon="12.884132198558746"><ele>695.0</ele><time>2026-05-02T11:24:17.999Z</time></trkpt><trkpt lat="43.14859152960711" lon="12.884177339794377"><ele>689.5</ele><time>2026-05-02T11:24:18.999Z</time></trkpt><trkpt lat="43.148728075971036" lon="12.884219383084883"><ele>684.0</ele><time>2026-05-02T11:24:19.999Z</time></trkpt><trkpt lat="43.14885794811367" lon="12.884254680017444"><ele>688.25</ele><time>2026-05-02T11:24:20.999Z</time></trkpt><trkpt lat="43.14899345348628" lon="12.884276971372786"><ele>692.5</ele><time>2026-05-02T11:24:21.999Z</time></trkpt><trkpt lat="43.14913083842541" lon="12.884283470115864"><ele>696.75</ele><time>2026-05-02T11:24:22.999Z</time></trkpt><trkpt lat="43.149268355035474" lon="12.884288121582072"><ele>701.0</ele><time>2026-05-02T11:24:23.999Z</time></trkpt><trkpt lat="43.14941392373957" lon="12.884284903299768"><ele>701.0</ele><time>2026-05-02T11:24:24.999Z</time></trkpt><trkpt lat="43.149560785977485" lon="12.88429268417914"><ele>701.0</ele><time>2026-05-02T11:24:25.999Z</time></trkpt><trkpt lat="43.14971412627818" lon="12.884299027079813"><ele>701.0</ele><time>2026-05-02T11:24:26.999Z</time></trkpt><trkpt lat="43.149862469933645" lon="12.88431244563773"><ele>701.0</ele><time>2026-05-02T11:24:27.999Z</time></trkpt><trkpt lat="43.150010120085405" lon="12.884320788547857"><ele>695.3333333333333</ele><time>2026-05-02T11:24:28.999Z</time></trkpt><trkpt lat="43.15016500879302" lon="12.884326551816859"><ele>689.6666666666666</ele><time>2026-05-02T11:24:29.999Z</time></trkpt><trkpt lat="43.150319266657874" lon="12.884329145220121"><ele>684.0</ele><time>2026-05-02T11:24:30.999Z</time></trkpt><trkpt lat="43.150468037948855" lon="12.884337465599426"><ele>684.0</ele><time>2026-05-02T11:24:31.999Z</time></trkpt><trkpt lat="43.15061684769229" lon="12.884351512853762"><ele>684.0</ele><time>2026-05-02T11:24:32.999Z</time></trkpt><trkpt lat="43.150763243553236" lon="12.884363561199919"><ele>684.0</ele><time>2026-05-02T11:24:33.999Z</time></trkpt><trkpt lat="43.150906792402395" lon="12.884373628818071"><ele>684.0</ele><time>2026-05-02T11:24:34.999Z</time></trkpt><trkpt lat="43.15104156472741" lon="12.884389965612653"><ele>679.75</ele><time>2026-05-02T11:24:35.999Z</time></trkpt><trkpt lat="43.15116103325633" lon="12.884418580396334"><ele>675.5</ele><time>2026-05-02T11:24:37Z</time></trkpt><trkpt lat="43.15126907869995" lon="12.884473051234604"><ele>671.25</ele><time>2026-05-02T11:24:38Z</time></trkpt><trkpt lat="43.151361271836" lon="12.884566125672938"><ele>667.0</ele><time>2026-05-02T11:24:39Z</time></trkpt><trkpt lat="43.15142123198787" lon="12.884679972490813"><ele>667.0</ele><time>2026-05-02T11:24:40Z</time></trkpt><trkpt lat="43.15144006376211" lon="12.884796613551332"><ele>667.0</ele><time>2026-05-02T11:24:41Z</time></trkpt><trkpt lat="43.15142330112086" lon="12.884906918074428"><ele>667.0</ele><time>2026-05-02T11:24:42Z</time></trkpt><trkpt lat="43.15139877071043" lon="12.885038537121565"><ele>667.0</ele><time>2026-05-02T11:24:43Z</time></trkpt><trkpt lat="43.151408862806456" lon="12.885165578520144"><ele>667.0</ele><time>2026-05-02T11:24:44Z</time></trkpt><trkpt lat="43.151438819837715" lon="12.885296219822635"><ele>663.0</ele><time>2026-05-02T11:24:45Z</time></trkpt><trkpt lat="43.15147877135478" lon="12.885423741853282"><ele>659.0</ele><time>2026-05-02T11:24:46Z</time></trkpt><trkpt lat="43.15151813184928" lon="12.88553799791687"><ele>655.0</ele><time>2026-05-02T11:24:47Z</time></trkpt><trkpt lat="43.151542588169164" lon="12.885645542713938"><ele>651.0</ele><time>2026-05-02T11:24:48Z</time></trkpt><trkpt lat="43.15158687520447" lon="12.885725762688"><ele>647.0</ele><time>2026-05-02T11:24:49Z</time></trkpt><trkpt lat="43.15164827785793" lon="12.885791144366001"><ele>643.0</ele><time>2026-05-02T11:24:50Z</time></trkpt><trkpt lat="43.15174196319464" lon="12.885842212051989"><ele>643.0</ele><time>2026-05-02T11:24:52Z</time></trkpt><trkpt lat="43.15180893911456" lon="12.885845772128638"><ele>643.0</ele><time>2026-05-02T11:24:53Z</time></trkpt><trkpt lat="43.151906428811444" lon="12.88584416538669"><ele>643.0</ele><time>2026-05-02T11:24:55Z</time></trkpt><trkpt lat="43.15197250546147" lon="12.88581782432706"><ele>643.0</ele><time>2026-05-02T11:24:57Z</time></trkpt><trkpt lat="43.15201942291875" lon="12.885728478278859"><ele>643.0</ele><time>2026-05-02T11:25:27Z</time></trkpt><trkpt lat="43.15206262802144" lon="12.88560562812551"><ele>643.0</ele><time>2026-05-02T11:25:30Z</time></trkpt><trkpt lat="43.15210246830955" lon="12.885478416747535"><ele>643.0</ele><time>2026-05-02T11:25:32Z</time></trkpt><trkpt lat="43.15215863997483" lon="12.885379052216331"><ele>643.0</ele><time>2026-05-02T11:25:34Z</time></trkpt><trkpt lat="43.15220593446807" lon="12.885290363313993"><ele>643.0</ele><time>2026-05-02T11:25:36Z</time></trkpt><trkpt lat="43.152257488211" lon="12.885205800009517"><ele>643.0</ele><time>2026-05-02T11:25:38Z</time></trkpt><trkpt lat="43.15228550205111" lon="12.88510995787482"><ele>643.0</ele><time>2026-05-02T11:25:40Z</time></trkpt><trkpt lat="43.15233424822685" lon="12.885053234639773"><ele>643.0</ele><time>2026-05-02T11:25:41Z</time></trkpt><trkpt lat="43.152361230715194" lon="12.88497517061758"><ele>643.4</ele><time>2026-05-02T11:25:42Z</time></trkpt><trkpt lat="43.15243290774251" lon="12.884841392280682"><ele>643.8</ele><time>2026-05-02T11:25:44Z</time></trkpt><trkpt lat="43.15244935731568" lon="12.884755743315987"><ele>644.2</ele><time>2026-05-02T11:25:45Z</time></trkpt><trkpt lat="43.15246942642762" lon="12.884642515941442"><ele>644.6</ele><time>2026-05-02T11:25:46Z</time></trkpt><trkpt lat="43.15249527573047" lon="12.884519831336867"><ele>645.0</ele><time>2026-05-02T11:25:47Z</time></trkpt><trkpt lat="43.15253946667215" lon="12.88439270186058"><ele>645.0</ele><time>2026-05-02T11:25:48Z</time></trkpt><trkpt lat="43.15260946131565" lon="12.884263714560303"><ele>645.0</ele><time>2026-05-02T11:25:49Z</time></trkpt><trkpt lat="43.15269594193719" lon="12.884136591110767"><ele>645.0</ele><time>2026-05-02T11:25:50Z</time></trkpt><trkpt lat="43.152796224290185" lon="12.883987220229306"><ele>645.0</ele><time>2026-05-02T11:25:51Z</time></trkpt><trkpt lat="43.15290679082464" lon="12.883840708526757"><ele>643.0</ele><time>2026-05-02T11:25:52Z</time></trkpt><trkpt lat="43.15300700960128" lon="12.883711186469363"><ele>641.0</ele><time>2026-05-02T11:25:53Z</time></trkpt><trkpt lat="43.1531210840321" lon="12.88360334515575"><ele>639.0</ele><time>2026-05-02T11:25:54Z</time></trkpt><trkpt lat="43.153231839269274" lon="12.883512350635739"><ele>637.0</ele><time>2026-05-02T11:25:55Z</time></trkpt><trkpt lat="43.153342206288336" lon="12.883442465891708"><ele>640.2</ele><time>2026-05-02T11:25:56Z</time></trkpt><trkpt lat="43.153431408204675" lon="12.88336884376375"><ele>643.4000000000001</ele><time>2026-05-02T11:25:57Z</time></trkpt><trkpt lat="43.15350538869745" lon="12.88328391052243"><ele>646.5999999999999</ele><time>2026-05-02T11:25:58Z</time></trkpt><trkpt lat="43.15355709420701" lon="12.883187067540343"><ele>649.8</ele><time>2026-05-02T11:25:59Z</time></trkpt><trkpt lat="43.15355387824082" lon="12.883068115455606"><ele>653.0</ele><time>2026-05-02T11:26:00Z</time></trkpt><trkpt lat="43.15349596844387" lon="12.882957984158006"><ele>653.0</ele><time>2026-05-02T11:26:01Z</time></trkpt><trkpt lat="43.153413600073236" lon="12.882856013380202"><ele>653.0</ele><time>2026-05-02T11:26:02Z</time></trkpt><trkpt lat="43.1533086674549" lon="12.882782806749045"><ele>653.0</ele><time>2026-05-02T11:26:03Z</time></trkpt><trkpt lat="43.15317983620195" lon="12.882732528067084"><ele>653.0</ele><time>2026-05-02T11:26:04Z</time></trkpt><trkpt lat="43.153068996944" lon="12.882685179064405"><ele>651.3333333333333</ele><time>2026-05-02T11:26:05Z</time></trkpt><trkpt lat="43.15299010911248" lon="12.882633995997173"><ele>649.6666666666666</ele><time>2026-05-02T11:26:06Z</time></trkpt><trkpt lat="43.15293602867534" lon="12.88256431594985"><ele>648.0</ele><time>2026-05-02T11:26:07Z</time></trkpt><trkpt lat="43.15289948416115" lon="12.882490096740904"><ele>646.3333333333334</ele><time>2026-05-02T11:26:08Z</time></trkpt><trkpt lat="43.152879986319476" lon="12.882362478732952"><ele>644.6666666666667</ele><time>2026-05-02T11:26:09Z</time></trkpt><trkpt lat="43.15289002439078" lon="12.882235469065883"><ele>643.0</ele><time>2026-05-02T11:26:10Z</time></trkpt><trkpt lat="43.15291700828344" lon="12.88211560864899"><ele>643.0</ele><time>2026-05-02T11:26:10.999Z</time></trkpt><trkpt lat="43.15298347234617" lon="12.882018658960826"><ele>643.0</ele><time>2026-05-02T11:26:11.999Z</time></trkpt><trkpt lat="43.15304395098556" lon="12.881952560820404"><ele>643.0</ele><time>2026-05-02T11:26:12.999Z</time></trkpt><trkpt lat="43.15312942595044" lon="12.881914368368962"><ele>643.0</ele><time>2026-05-02T11:26:14.999Z</time></trkpt><trkpt lat="43.15318394030661" lon="12.881964184059548"><ele>643.0</ele><time>2026-05-02T11:26:18.999Z</time></trkpt><trkpt lat="43.15322945555626" lon="12.882032391253661"><ele>643.0</ele><time>2026-05-02T11:26:22.999Z</time></trkpt><trkpt lat="43.153286553071254" lon="12.88213951548637"><ele>645.8333333333334</ele><time>2026-05-02T11:26:24.999Z</time></trkpt><trkpt lat="43.153364843919725" lon="12.882184802693162"><ele>648.6666666666667</ele><time>2026-05-02T11:26:26.999Z</time></trkpt><trkpt lat="43.153477572957655" lon="12.882224911655534"><ele>651.5</ele><time>2026-05-02T11:26:28.999Z</time></trkpt><trkpt lat="43.15353996177883" lon="12.882244483804136"><ele>654.3333333333334</ele><time>2026-05-02T11:26:29.999Z</time></trkpt><trkpt lat="43.15362005779285" lon="12.882302291508443"><ele>657.1666666666666</ele><time>2026-05-02T11:26:30.999Z</time></trkpt><trkpt lat="43.15370416027973" lon="12.882308746854797"><ele>660.0</ele><time>2026-05-02T11:26:31.999Z</time></trkpt><trkpt lat="43.15384523918369" lon="12.882296401960511"><ele>660.0</ele><time>2026-05-02T11:26:32.999Z</time></trkpt><trkpt lat="43.153977304633614" lon="12.882289867400383"><ele>660.0</ele><time>2026-05-02T11:26:33.999Z</time></trkpt><trkpt lat="43.15412216405639" lon="12.88233179587561"><ele>660.0</ele><time>2026-05-02T11:26:34.999Z</time></trkpt><trkpt lat="43.15427850722894" lon="12.882413959027776"><ele>660.0</ele><time>2026-05-02T11:26:35.999Z</time></trkpt><trkpt lat="43.154422684996796" lon="12.882486660711725"><ele>662.75</ele><time>2026-05-02T11:26:36.999Z</time></trkpt><trkpt lat="43.15456564281099" lon="12.88252126042695"><ele>665.5</ele><time>2026-05-02T11:26:37.999Z</time></trkpt><trkpt lat="43.15468191342282" lon="12.882553517427302"><ele>668.25</ele><time>2026-05-02T11:26:38.999Z</time></trkpt><trkpt lat="43.1547920593567" lon="12.882563837554745"><ele>671.0</ele><time>2026-05-02T11:26:39.999Z</time></trkpt><trkpt lat="43.15490893310592" lon="12.882548390275828"><ele>672.8</ele><time>2026-05-02T11:26:40.999Z</time></trkpt><trkpt lat="43.155020873685125" lon="12.882509142573355"><ele>674.5999999999999</ele><time>2026-05-02T11:26:41.999Z</time></trkpt><trkpt lat="43.155131685256514" lon="12.882456632969728"><ele>676.4</ele><time>2026-05-02T11:26:43Z</time></trkpt><trkpt lat="43.15520952590745" lon="12.882425092514833"><ele>678.2</ele><time>2026-05-02T11:26:44Z</time></trkpt><trkpt lat="43.15531141370619" lon="12.882405687452078"><ele>680.0</ele><time>2026-05-02T11:26:46Z</time></trkpt><trkpt lat="43.155395910276155" lon="12.882461891346834"><ele>680.0</ele><time>2026-05-02T11:26:48Z</time></trkpt><trkpt lat="43.15546861712072" lon="12.882496661084826"><ele>680.0</ele><time>2026-05-02T11:26:50Z</time></trkpt><trkpt lat="43.15558975199085" lon="12.882597596720059"><ele>680.0</ele><time>2026-05-02T11:26:52Z</time></trkpt><trkpt lat="43.15568008649139" lon="12.882649476332581"><ele>680.0</ele><time>2026-05-02T11:26:53Z</time></trkpt><trkpt lat="43.1557558392019" lon="12.882710704844172"><ele>680.0</ele><time>2026-05-02T11:26:54Z</time></trkpt><trkpt lat="43.155816766971896" lon="12.882756551829711"><ele>683.5</ele><time>2026-05-02T11:26:55Z</time></trkpt><trkpt lat="43.15587857276904" lon="12.882798138486343"><ele>687.0</ele><time>2026-05-02T11:26:57Z</time></trkpt><trkpt lat="43.15592577742521" lon="12.882887441225506"><ele>690.5</ele><time>2026-05-02T11:27:44Z</time></trkpt><trkpt lat="43.15592439978505" lon="12.88304680310081"><ele>694.0</ele><time>2026-05-02T11:27:46Z</time></trkpt><trkpt lat="43.1559227345222" lon="12.883171390787464"><ele>697.5</ele><time>2026-05-02T11:27:48Z</time></trkpt><trkpt lat="43.15589751353758" lon="12.883252388377738"><ele>701.0</ele><time>2026-05-02T11:27:50Z</time></trkpt><trkpt lat="43.155877700283426" lon="12.883344798373006"><ele>704.8333333333333</ele><time>2026-05-02T11:27:51Z</time></trkpt><trkpt lat="43.15586692074238" lon="12.883476112317949"><ele>708.6666666666666</ele><time>2026-05-02T11:27:52Z</time></trkpt><trkpt lat="43.15587319166946" lon="12.883583980321722"><ele>712.5</ele><time>2026-05-02T11:27:53Z</time></trkpt><trkpt lat="43.15595030510692" lon="12.88361116303298"><ele>716.3333333333334</ele><time>2026-05-02T11:27:55Z</time></trkpt><trkpt lat="43.15605586348279" lon="12.883541587387818"><ele>720.1666666666667</ele><time>2026-05-02T11:27:57Z</time></trkpt><trkpt lat="43.156127523789294" lon="12.883564191442746"><ele>724.0</ele><time>2026-05-02T11:27:59Z</time></trkpt><trkpt lat="43.15620930822222" lon="12.883569972202348"><ele>724.0</ele><time>2026-05-02T11:28:02Z</time></trkpt><trkpt lat="43.15627224515482" lon="12.883645187227598"><ele>724.0</ele><time>2026-05-02T11:28:04Z</time></trkpt><trkpt lat="43.15634568460593" lon="12.883676013809085"><ele>724.0</ele><time>2026-05-02T11:28:06Z</time></trkpt><trkpt lat="43.156428129582764" lon="12.883709501716215"><ele>724.0</ele><time>2026-05-02T11:28:08Z</time></trkpt><trkpt lat="43.156486676267974" lon="12.883801993767895"><ele>724.0</ele><time>2026-05-02T11:28:10Z</time></trkpt><trkpt lat="43.156550872425456" lon="12.883878968300316"><ele>724.0</ele><time>2026-05-02T11:28:12Z</time></trkpt><trkpt lat="43.15662310048722" lon="12.883919837760176"><ele>726.8333333333334</ele><time>2026-05-02T11:28:17Z</time></trkpt><trkpt lat="43.156685974541304" lon="12.883959173226415"><ele>729.6666666666667</ele><time>2026-05-02T11:28:32.998Z</time></trkpt><trkpt lat="43.15674301719879" lon="12.883996145845527"><ele>732.5</ele><time>2026-05-02T11:28:38.998Z</time></trkpt><trkpt lat="43.156835007092404" lon="12.884058347457398"><ele>735.3333333333334</ele><time>2026-05-02T11:28:41.998Z</time></trkpt><trkpt lat="43.156894314280535" lon="12.884095873515385"><ele>738.1666666666666</ele><time>2026-05-02T11:28:43.998Z</time></trkpt><trkpt lat="43.156960113846715" lon="12.884149607185568"><ele>741.0</ele><time>2026-05-02T11:28:45.998Z</time></trkpt><trkpt lat="43.15703168908535" lon="12.884200928139384"><ele>746.4</ele><time>2026-05-02T11:28:47.999Z</time></trkpt><trkpt lat="43.15711035417045" lon="12.884272941795931"><ele>751.8</ele><time>2026-05-02T11:28:49.999Z</time></trkpt><trkpt lat="43.15718350836075" lon="12.884318030854368"><ele>757.1999999999999</ele><time>2026-05-02T11:28:51.999Z</time></trkpt><trkpt lat="43.157258942718265" lon="12.884390837118904"><ele>762.5999999999999</ele><time>2026-05-02T11:28:53.999Z</time></trkpt><trkpt lat="43.15730728409156" lon="12.884460425656552"><ele>768.0</ele><time>2026-05-02T11:28:55.999Z</time></trkpt><trkpt lat="43.157412589704656" lon="12.884595440761702"><ele>768.4</ele><time>2026-05-02T11:29:44.999Z</time></trkpt><trkpt lat="43.157431723953174" lon="12.8847240417343"><ele>768.8</ele><time>2026-05-02T11:29:46.999Z</time></trkpt><trkpt lat="43.15743463971504" lon="12.884883043325333"><ele>769.2</ele><time>2026-05-02T11:29:48.999Z</time></trkpt><trkpt lat="43.15745859356462" lon="12.885020551502853"><ele>769.6</ele><time>2026-05-02T11:29:50.999Z</time></trkpt><trkpt lat="43.15745122917901" lon="12.885115371035162"><ele>770.0</ele><time>2026-05-02T11:29:51.999Z</time></trkpt><trkpt lat="43.157445783442114" lon="12.885232506045197"><ele>776.1666666666667</ele><time>2026-05-02T11:29:53.999Z</time></trkpt><trkpt lat="43.15749146783913" lon="12.885309527970565"><ele>782.3333333333334</ele><time>2026-05-02T11:29:55.999Z</time></trkpt><trkpt lat="43.15755178762991" lon="12.885359671417554"><ele>788.5</ele><time>2026-05-02T11:29:57.999Z</time></trkpt><trkpt lat="43.15762708288593" lon="12.885378170682275"><ele>794.6666666666667</ele><time>2026-05-02T11:29:59.999Z</time></trkpt><trkpt lat="43.157729880932045" lon="12.885393869929569"><ele>800.8333333333334</ele><time>2026-05-02T11:30:01.999Z</time></trkpt><trkpt lat="43.1578111542638" lon="12.88540098013598"><ele>807.0</ele><time>2026-05-02T11:30:03.999Z</time></trkpt><trkpt lat="43.1578889857486" lon="12.885490304579989"><ele>807.0</ele><time>2026-05-02T11:30:05.999Z</time></trkpt><trkpt lat="43.15796891142217" lon="12.885553681962708"><ele>807.0</ele><time>2026-05-02T11:30:07.999Z</time></trkpt><trkpt lat="43.158037014916914" lon="12.885583890264098"><ele>807.0</ele><time>2026-05-02T11:30:09.999Z</time></trkpt><trkpt lat="43.158102717994254" lon="12.885668046523703"><ele>807.0</ele><time>2026-05-02T11:30:11.999Z</time></trkpt><trkpt lat="43.15817078234636" lon="12.88574367809215"><ele>807.0</ele><time>2026-05-02T11:30:14.999Z</time></trkpt><trkpt lat="43.158242362718255" lon="12.885804513371454"><ele>807.0</ele><time>2026-05-02T11:30:17.999Z</time></trkpt><trkpt lat="43.1583152033672" lon="12.885819925467452"><ele>807.8571428571429</ele><time>2026-05-02T11:30:19.999Z</time></trkpt><trkpt lat="43.15839115412127" lon="12.885875045026305"><ele>808.7142857142858</ele><time>2026-05-02T11:30:21.999Z</time></trkpt><trkpt lat="43.15845577321433" lon="12.885912416519378"><ele>809.5714285714287</ele><time>2026-05-02T11:30:23.999Z</time></trkpt><trkpt lat="43.15853027269244" lon="12.885939097364188"><ele>810.4285714285714</ele><time>2026-05-02T11:30:26.999Z</time></trkpt><trkpt lat="43.15858879875796" lon="12.885982875951605"><ele>811.2857142857142</ele><time>2026-05-02T11:30:28.999Z</time></trkpt><trkpt lat="43.158649998610684" lon="12.886028817333338"><ele>812.1428571428572</ele><time>2026-05-02T11:30:30.999Z</time></trkpt><trkpt lat="43.15870359583625" lon="12.8860965330017"><ele>813.0</ele><time>2026-05-02T11:30:32.999Z</time></trkpt><trkpt lat="43.158747916038585" lon="12.886201457646175"><ele>821.8333333333334</ele><time>2026-05-02T11:30:34.999Z</time></trkpt><trkpt lat="43.158809151480064" lon="12.88623624321356"><ele>830.6666666666667</ele><time>2026-05-02T11:30:37.998Z</time></trkpt><trkpt lat="43.15887390146302" lon="12.88628035185259"><ele>839.5</ele><time>2026-05-02T11:30:40.998Z</time></trkpt><trkpt lat="43.15894267961017" lon="12.88632969795587"><ele>848.3333333333334</ele><time>2026-05-02T11:30:42.998Z</time></trkpt><trkpt lat="43.15900601449811" lon="12.886341324070896"><ele>857.1666666666667</ele><time>2026-05-02T11:30:44.998Z</time></trkpt><trkpt lat="43.15908705919156" lon="12.886428788246425"><ele>866.0</ele><time>2026-05-02T11:30:46.998Z</time></trkpt><trkpt lat="43.159172704072446" lon="12.886448851027847"><ele>866.5999999999999</ele><time>2026-05-02T11:30:48.998Z</time></trkpt><trkpt lat="43.15926359116797" lon="12.886498787487062"><ele>867.1999999999999</ele><time>2026-05-02T11:30:50.998Z</time></trkpt><trkpt lat="43.1593547693813" lon="12.88660629253945"><ele>867.8000000000001</ele><time>2026-05-02T11:32:43.999Z</time></trkpt><trkpt lat="43.159433643615095" lon="12.886655765586076"><ele>868.4000000000001</ele><time>2026-05-02T11:32:46.999Z</time></trkpt><trkpt lat="43.159555969956635" lon="12.886678059629537"><ele>869.0</ele><time>2026-05-02T11:32:48.999Z</time></trkpt><trkpt lat="43.15963491114641" lon="12.886750972761037"><ele>875.6</ele><time>2026-05-02T11:32:50.999Z</time></trkpt><trkpt lat="43.159745029071594" lon="12.88679411340904"><ele>882.2</ele><time>2026-05-02T11:32:52.998Z</time></trkpt><trkpt lat="43.15981575425328" lon="12.886858413747767"><ele>888.8000000000001</ele><time>2026-05-02T11:32:54.998Z</time></trkpt><trkpt lat="43.15989749233107" lon="12.886892378869755"><ele>895.4000000000001</ele><time>2026-05-02T11:32:55.998Z</time></trkpt><trkpt lat="43.15999195364639" lon="12.886954556752187"><ele>902.0</ele><time>2026-05-02T11:32:57.998Z</time></trkpt><trkpt lat="43.16008938870876" lon="12.887017018907263"><ele>902.0000000000001</ele><time>2026-05-02T11:33:00Z</time></trkpt><trkpt lat="43.160161214905074" lon="12.887040752254482"><ele>902.0</ele><time>2026-05-02T11:33:01Z</time></trkpt><trkpt lat="43.16023693269951" lon="12.88707673205446"><ele>902.0</ele><time>2026-05-02T11:33:02Z</time></trkpt><trkpt lat="43.160302541551616" lon="12.88710218807719"><ele>902.0</ele><time>2026-05-02T11:33:03Z</time></trkpt><trkpt lat="43.16037611071736" lon="12.887158771940415"><ele>902.0000000000001</ele><time>2026-05-02T11:33:04Z</time></trkpt><trkpt lat="43.16044324128555" lon="12.887207900292056"><ele>902.0</ele><time>2026-05-02T11:33:05Z</time></trkpt><trkpt lat="43.16050566372744" lon="12.887264585210506"><ele>902.0000000000001</ele><time>2026-05-02T11:33:06Z</time></trkpt><trkpt lat="43.160570156678865" lon="12.887311489186969"><ele>902.0</ele><time>2026-05-02T11:33:07Z</time></trkpt><trkpt lat="43.16062796293012" lon="12.887346113907215"><ele>902.0</ele><time>2026-05-02T11:33:08Z</time></trkpt><trkpt lat="43.160692978897536" lon="12.887385819559862"><ele>902.0</ele><time>2026-05-02T11:33:09Z</time></trkpt><trkpt lat="43.16075973904029" lon="12.887436568916979"><ele>902.0000000000001</ele><time>2026-05-02T11:33:10Z</time></trkpt><trkpt lat="43.160833596344425" lon="12.887502408968599"><ele>902.0</ele><time>2026-05-02T11:33:11Z</time></trkpt><trkpt lat="43.16090024675509" lon="12.887565652384176"><ele>906.1428571428571</ele><time>2026-05-02T11:33:12Z</time></trkpt><trkpt lat="43.160957074872215" lon="12.887627451182084"><ele>910.2857142857143</ele><time>2026-05-02T11:33:13Z</time></trkpt><trkpt lat="43.161026026395476" lon="12.887686153294123"><ele>914.4285714285714</ele><time>2026-05-02T11:33:14Z</time></trkpt><trkpt lat="43.16107488757494" lon="12.88775469193462"><ele>918.5714285714286</ele><time>2026-05-02T11:33:15Z</time></trkpt><trkpt lat="43.16112009596343" lon="12.887832855069064"><ele>922.7142857142858</ele><time>2026-05-02T11:33:16Z</time></trkpt><trkpt lat="43.161157938899656" lon="12.8879192619014"><ele>926.8571428571429</ele><time>2026-05-02T11:33:17Z</time></trkpt><trkpt lat="43.16119757882307" lon="12.888011492271126"><ele>931.0</ele><time>2026-05-02T11:33:18Z</time></trkpt><trkpt lat="43.16122955291898" lon="12.88810046912211"><ele>930.9999999999999</ele><time>2026-05-02T11:33:19Z</time></trkpt><trkpt lat="43.16127065472299" lon="12.88820260196891"><ele>931.0</ele><time>2026-05-02T11:33:20Z</time></trkpt><trkpt lat="43.16130938800559" lon="12.888287451408072"><ele>931.0</ele><time>2026-05-02T11:33:21Z</time></trkpt><trkpt lat="43.1613395709509" lon="12.888371320521548"><ele>931.0</ele><time>2026-05-02T11:33:22Z</time></trkpt><trkpt lat="43.161371897978505" lon="12.888464900716906"><ele>930.9999999999999</ele><time>2026-05-02T11:33:23Z</time></trkpt><trkpt lat="43.16142380514759" lon="12.88855417706018"><ele>931.0</ele><time>2026-05-02T11:33:24Z</time></trkpt><trkpt lat="43.161477305849544" lon="12.888616137733242"><ele>934.4</ele><time>2026-05-02T11:33:25Z</time></trkpt><trkpt lat="43.16157905006794" lon="12.888665199970212"><ele>937.8</ele><time>2026-05-02T11:33:27Z</time></trkpt><trkpt lat="43.16164752141336" lon="12.888664869921378"><ele>941.1999999999999</ele><time>2026-05-02T11:33:28Z</time></trkpt><trkpt lat="43.16178980940372" lon="12.888621258558546"><ele>944.5999999999999</ele><time>2026-05-02T11:33:30Z</time></trkpt><trkpt lat="43.16187579689589" lon="12.888611363048081"><ele>948.0</ele><time>2026-05-02T11:33:31Z</time></trkpt><trkpt lat="43.16200541986076" lon="12.888583162452644"><ele>948.0</ele><time>2026-05-02T11:33:32.999Z</time></trkpt><trkpt lat="43.16213642776069" lon="12.888583002822342"><ele>948.0</ele><time>2026-05-02T11:33:34.999Z</time></trkpt><trkpt lat="43.162201436553055" lon="12.88859668035425"><ele>948.0</ele><time>2026-05-02T11:33:35.999Z</time></trkpt><trkpt lat="43.162317369092555" lon="12.88864325933978"><ele>948.0</ele><time>2026-05-02T11:33:37.999Z</time></trkpt><trkpt lat="43.162389104590034" lon="12.88867726114513"><ele>948.0</ele><time>2026-05-02T11:33:38.999Z</time></trkpt><trkpt lat="43.162452890350856" lon="12.88873148807339"><ele>949.4</ele><time>2026-05-02T11:33:39.999Z</time></trkpt><trkpt lat="43.16255538620786" lon="12.888825490596712"><ele>950.8</ele><time>2026-05-02T11:33:41.999Z</time></trkpt><trkpt lat="43.162610559509304" lon="12.888892286817248"><ele>952.2</ele><time>2026-05-02T11:33:42.999Z</time></trkpt><trkpt lat="43.162681798151894" lon="12.888965804509096"><ele>953.6</ele><time>2026-05-02T11:33:43.999Z</time></trkpt><trkpt lat="43.162754418370454" lon="12.889033535286442"><ele>955.0</ele><time>2026-05-02T11:33:44.999Z</time></trkpt><trkpt lat="43.16281140995906" lon="12.889108330276894"><ele>955.0</ele><time>2026-05-02T11:33:45.999Z</time></trkpt><trkpt lat="43.16287470354754" lon="12.889186230292259"><ele>955.0</ele><time>2026-05-02T11:33:46.999Z</time></trkpt><trkpt lat="43.16294515598519" lon="12.889287022307565"><ele>955.0</ele><time>2026-05-02T11:33:47.999Z</time></trkpt><trkpt lat="43.16301215231488" lon="12.88938373086178"><ele>955.0</ele><time>2026-05-02T11:33:48.999Z</time></trkpt><trkpt lat="43.16307341441017" lon="12.889483840088802"><ele>955.0</ele><time>2026-05-02T11:33:49.999Z</time></trkpt><trkpt lat="43.16312816122976" lon="12.889559163257765"><ele>957.142857142857</ele><time>2026-05-02T11:33:50.999Z</time></trkpt><trkpt lat="43.163171221225056" lon="12.889623762926249"><ele>959.2857142857142</ele><time>2026-05-02T11:33:51.999Z</time></trkpt><trkpt lat="43.16320785768617" lon="12.889701455616432"><ele>961.4285714285714</ele><time>2026-05-02T11:33:52.999Z</time></trkpt><trkpt lat="43.16323999218341" lon="12.889833613674275"><ele>963.5714285714286</ele><time>2026-05-02T11:33:54.999Z</time></trkpt><trkpt lat="43.16324803525134" lon="12.88992568401001"><ele>965.7142857142858</ele><time>2026-05-02T11:33:56.999Z</time></trkpt><trkpt lat="43.163234961843315" lon="12.89003487800033"><ele>967.857142857143</ele><time>2026-05-02T11:33:58.999Z</time></trkpt><trkpt lat="43.163238174955964" lon="12.890121786630766"><ele>970.0000000000001</ele><time>2026-05-02T11:34:00.999Z</time></trkpt><trkpt lat="43.16321055239025" lon="12.890229635315881"><ele>976.6</ele><time>2026-05-02T11:34:02.999Z</time></trkpt><trkpt lat="43.163190961043995" lon="12.890323592151107"><ele>983.2</ele><time>2026-05-02T11:34:04.999Z</time></trkpt><trkpt lat="43.163171185431835" lon="12.890440829629197"><ele>989.8</ele><time>2026-05-02T11:34:06.999Z</time></trkpt><trkpt lat="43.16313927156662" lon="12.8905598603904"><ele>996.4</ele><time>2026-05-02T11:34:08.999Z</time></trkpt><trkpt lat="43.163146923287705" lon="12.890731336508209"><ele>1003.0</ele><time>2026-05-02T11:34:10.999Z</time></trkpt><trkpt lat="43.16310260745416" lon="12.890882877121664"><ele>1001.4999999999999</ele><time>2026-05-02T11:34:11.999Z</time></trkpt><trkpt lat="43.16307568731761" lon="12.891037891316087"><ele>1000.0</ele><time>2026-05-02T11:34:13.999Z</time></trkpt><trkpt lat="43.163085336297485" lon="12.891127953725427"><ele>998.5</ele><time>2026-05-02T11:34:16.999Z</time></trkpt><trkpt lat="43.16312066323385" lon="12.891254936628245"><ele>997.0</ele><time>2026-05-02T11:34:23.999Z</time></trkpt><trkpt lat="43.16317196819787" lon="12.891323225657404"><ele>995.4999999999999</ele><time>2026-05-02T11:34:25.999Z</time></trkpt><trkpt lat="43.16324373084494" lon="12.89126862756325"><ele>994.0</ele><time>2026-05-02T11:34:30.999Z</time></trkpt><trkpt lat="43.16328407385971" lon="12.891186038914888"><ele>993.9999999999999</ele><time>2026-05-02T11:34:32.999Z</time></trkpt><trkpt lat="43.16332977183349" lon="12.891065656755575"><ele>994.0</ele><time>2026-05-02T11:34:34.999Z</time></trkpt><trkpt lat="43.16338760098366" lon="12.890984036360116"><ele>994.0</ele><time>2026-05-02T11:34:36.999Z</time></trkpt><trkpt lat="43.163494084142364" lon="12.89090278412432"><ele>994.0</ele><time>2026-05-02T11:34:38.999Z</time></trkpt><trkpt lat="43.16355599682327" lon="12.890871950872942"><ele>993.9999999999999</ele><time>2026-05-02T11:34:39.999Z</time></trkpt><trkpt lat="43.163613254635465" lon="12.890829531585489"><ele>994.0</ele><time>2026-05-02T11:34:40.999Z</time></trkpt><trkpt lat="43.163677709963714" lon="12.890770566795462"><ele>993.0</ele><time>2026-05-02T11:34:41.999Z</time></trkpt><trkpt lat="43.163745069304184" lon="12.890701195999796"><ele>992.0000000000001</ele><time>2026-05-02T11:34:42.999Z</time></trkpt><trkpt lat="43.16380908661488" lon="12.890622667471263"><ele>991.0000000000001</ele><time>2026-05-02T11:34:43.999Z</time></trkpt><trkpt lat="43.16389039076526" lon="12.890501219136171"><ele>990.0</ele><time>2026-05-02T11:34:45.999Z</time></trkpt><trkpt lat="43.163966805460255" lon="12.89041019661332"><ele>989.0</ele><time>2026-05-02T11:34:47.999Z</time></trkpt><trkpt lat="43.1640050110145" lon="12.890288878494788"><ele>989.0000000000001</ele><time>2026-05-02T11:34:49.999Z</time></trkpt><trkpt lat="43.164026501519785" lon="12.890194617323308"><ele>989.0</ele><time>2026-05-02T11:34:51.999Z</time></trkpt><trkpt lat="43.164095495399714" lon="12.890139988943883"><ele>989.0</ele><time>2026-05-02T11:34:53.999Z</time></trkpt><trkpt lat="43.1641635440508" lon="12.890130647702899"><ele>989.0</ele><time>2026-05-02T11:34:55.999Z</time></trkpt><trkpt lat="43.16424141283418" lon="12.890062106984278"><ele>989.0000000000001</ele><time>2026-05-02T11:34:58.999Z</time></trkpt><trkpt lat="43.16429677174436" lon="12.889942443462852"><ele>989.0</ele><time>2026-05-02T11:35:00.999Z</time></trkpt><trkpt lat="43.16431064564683" lon="12.889857427899477"><ele>983.8571428571428</ele><time>2026-05-02T11:35:01.999Z</time></trkpt><trkpt lat="43.16430401795462" lon="12.889759671405958"><ele>978.7142857142856</ele><time>2026-05-02T11:35:03.999Z</time></trkpt><trkpt lat="43.16428158703355" lon="12.889655318541832"><ele>973.5714285714286</ele><time>2026-05-02T11:35:06Z</time></trkpt><trkpt lat="43.16429212805642" lon="12.889566236503885"><ele>968.4285714285713</ele><time>2026-05-02T11:35:25Z</time></trkpt><trkpt lat="43.164317953181" lon="12.889460311939208"><ele>963.2857142857142</ele><time>2026-05-02T11:35:29Z</time></trkpt><trkpt lat="43.16436508877479" lon="12.889401653025367"><ele>958.1428571428571</ele><time>2026-05-02T11:35:33Z</time></trkpt><trkpt lat="43.16442272557997" lon="12.889325513903305"><ele>953.0</ele><time>2026-05-02T11:35:37Z</time></trkpt><trkpt lat="43.16447620093899" lon="12.8892740589907"><ele>949.5000000000001</ele><time>2026-05-02T11:35:45.999Z</time></trkpt><trkpt lat="43.16452726275216" lon="12.889199742495137"><ele>946.0</ele><time>2026-05-02T11:35:50.999Z</time></trkpt><trkpt lat="43.16458586193857" lon="12.889126998161837"><ele>942.5</ele><time>2026-05-02T11:35:59.999Z</time></trkpt><trkpt lat="43.16462126546585" lon="12.889052913925996"><ele>939.0</ele><time>2026-05-02T11:36:03.999Z</time></trkpt><trkpt lat="43.164679699384244" lon="12.888973153436224"><ele>935.5000000000001</ele><time>2026-05-02T11:36:07.999Z</time></trkpt><trkpt lat="43.1647365159447" lon="12.888894805931573"><ele>932.0</ele><time>2026-05-02T11:36:11.999Z</time></trkpt><trkpt lat="43.16478024591669" lon="12.888818711683394"><ele>932.0000000000001</ele><time>2026-05-02T11:36:13.999Z</time></trkpt><trkpt lat="43.164834418946974" lon="12.888742957489436"><ele>932.0</ele><time>2026-05-02T11:36:16.999Z</time></trkpt><trkpt lat="43.164887097502124" lon="12.88868180130694"><ele>932.0</ele><time>2026-05-02T11:36:21.999Z</time></trkpt><trkpt lat="43.16494280251708" lon="12.888626186372594"><ele>932.0</ele><time>2026-05-02T11:36:32.999Z</time></trkpt><trkpt lat="43.16500316587514" lon="12.88854453571885"><ele>932.0000000000001</ele><time>2026-05-02T11:36:35.999Z</time></trkpt><trkpt lat="43.16503629226803" lon="12.888464152310963"><ele>932.0</ele><time>2026-05-02T11:36:38.999Z</time></trkpt><trkpt lat="43.165098043680146" lon="12.888376816370249"><ele>926.2857142857143</ele><time>2026-05-02T11:36:41.999Z</time></trkpt><trkpt lat="43.16513886808691" lon="12.888303464605093"><ele>920.5714285714286</ele><time>2026-05-02T11:36:44.999Z</time></trkpt><trkpt lat="43.1651847510079" lon="12.888240911658702"><ele>914.8571428571429</ele><time>2026-05-02T11:36:51.999Z</time></trkpt><trkpt lat="43.1652386764422" lon="12.888170204061028"><ele>909.1428571428571</ele><time>2026-05-02T11:36:56.999Z</time></trkpt><trkpt lat="43.1652852141437" lon="12.888105282910585"><ele>903.4285714285713</ele><time>2026-05-02T11:36:59.999Z</time></trkpt><trkpt lat="43.1653377751926" lon="12.888043168365634"><ele>897.7142857142857</ele><time>2026-05-02T11:37:02.999Z</time></trkpt><trkpt lat="43.16537543945396" lon="12.887949649561492"><ele>892.0</ele><time>2026-05-02T11:37:05.999Z</time></trkpt><trkpt lat="43.16541753549255" lon="12.887873773522669"><ele>892.0</ele><time>2026-05-02T11:37:08.999Z</time></trkpt><trkpt lat="43.16546299754508" lon="12.88779663173337"><ele>892.0</ele><time>2026-05-02T11:37:12Z</time></trkpt><trkpt lat="43.16550813282761" lon="12.887704702237912"><ele>892.0</ele><time>2026-05-02T11:37:14Z</time></trkpt><trkpt lat="43.16556153042665" lon="12.88764122842612"><ele>892.0</ele><time>2026-05-02T11:37:17Z</time></trkpt><trkpt lat="43.165603828757966" lon="12.887559761700226"><ele>892.0</ele><time>2026-05-02T11:37:21Z</time></trkpt><trkpt lat="43.16564082081343" lon="12.887472870560266"><ele>892.0</ele><time>2026-05-02T11:37:25Z</time></trkpt><trkpt lat="43.165663853270566" lon="12.88738569678952"><ele>892.0</ele><time>2026-05-02T11:37:29Z</time></trkpt><trkpt lat="43.16567499326977" lon="12.88727587546241"><ele>884.4999999999999</ele><time>2026-05-02T11:37:32Z</time></trkpt><trkpt lat="43.165704593835315" lon="12.887161158333393"><ele>877.0</ele><time>2026-05-02T11:37:35Z</time></trkpt><trkpt lat="43.16572580476823" lon="12.887078537303317"><ele>869.5</ele><time>2026-05-02T11:37:38Z</time></trkpt><trkpt lat="43.16576043831909" lon="12.886997153696548"><ele>862.0</ele><time>2026-05-02T11:37:41Z</time></trkpt><trkpt lat="43.16578331072484" lon="12.886910459172162"><ele>854.4999999999999</ele><time>2026-05-02T11:38:03.999Z</time></trkpt><trkpt lat="43.16586043271715" lon="12.886908062859316"><ele>847.0</ele><time>2026-05-02T11:38:06.999Z</time></trkpt><trkpt lat="43.16596429885485" lon="12.886850758247895"><ele>846.9999999999999</ele><time>2026-05-02T11:38:08.999Z</time></trkpt><trkpt lat="43.166073051107965" lon="12.88682482895874"><ele>847.0</ele><time>2026-05-02T11:38:10.999Z</time></trkpt><trkpt lat="43.16615180291105" lon="12.886799166011501"><ele>847.0</ele><time>2026-05-02T11:38:12.999Z</time></trkpt><trkpt lat="43.16621947594406" lon="12.886795677629106"><ele>847.0</ele><time>2026-05-02T11:38:15.999Z</time></trkpt><trkpt lat="43.16628481623341" lon="12.886770173481699"><ele>846.9999999999999</ele><time>2026-05-02T11:38:17.999Z</time></trkpt><trkpt lat="43.166328779591026" lon="12.886665045017752"><ele>847.0</ele><time>2026-05-02T11:38:20.999Z</time></trkpt><trkpt lat="43.166389179256484" lon="12.886586138042643"><ele>843.3333333333333</ele><time>2026-05-02T11:38:22.999Z</time></trkpt><trkpt lat="43.166455553200535" lon="12.886561219363248"><ele>839.6666666666666</ele><time>2026-05-02T11:38:24.999Z</time></trkpt><trkpt lat="43.166530466072004" lon="12.886509883742884"><ele>836.0</ele><time>2026-05-02T11:38:26.999Z</time></trkpt><trkpt lat="43.166613795765706" lon="12.886489225527841"><ele>832.3333333333333</ele><time>2026-05-02T11:38:29.999Z</time></trkpt><trkpt lat="43.16664934103542" lon="12.886409361694323"><ele>828.6666666666666</ele><time>2026-05-02T11:38:31.999Z</time></trkpt><trkpt lat="43.166721097316476" lon="12.886362948324088"><ele>825.0</ele><time>2026-05-02T11:38:33.999Z</time></trkpt><trkpt lat="43.16679434111238" lon="12.886340751115204"><ele>821.5</ele><time>2026-05-02T11:38:35.999Z</time></trkpt><trkpt lat="43.166875392280375" lon="12.886330845903922"><ele>818.0</ele><time>2026-05-02T11:38:38.999Z</time></trkpt><trkpt lat="43.166940169448026" lon="12.88630542625801"><ele>814.5</ele><time>2026-05-02T11:38:40.999Z</time></trkpt><trkpt lat="43.167042867678695" lon="12.886345287336594"><ele>811.0</ele><time>2026-05-02T11:38:42.999Z</time></trkpt><trkpt lat="43.167111618345636" lon="12.886346202391127"><ele>807.5</ele><time>2026-05-02T11:38:43.999Z</time></trkpt><trkpt lat="43.16719222581606" lon="12.886269915143984"><ele>804.0</ele><time>2026-05-02T11:38:45.999Z</time></trkpt><trkpt lat="43.16726640019016" lon="12.886233644968321"><ele>804.0</ele><time>2026-05-02T11:38:47.999Z</time></trkpt><trkpt lat="43.167353630733786" lon="12.886160988320158"><ele>804.0</ele><time>2026-05-02T11:38:49.999Z</time></trkpt><trkpt lat="43.167415017937664" lon="12.886109074233907"><ele>804.0</ele><time>2026-05-02T11:38:50.999Z</time></trkpt><trkpt lat="43.16748722509274" lon="12.88601501311452"><ele>804.0</ele><time>2026-05-02T11:38:52.999Z</time></trkpt><trkpt lat="43.16752292289703" lon="12.885918071436985"><ele>804.0</ele><time>2026-05-02T11:38:54.999Z</time></trkpt><trkpt lat="43.167598907983" lon="12.885837973327442"><ele>804.0</ele><time>2026-05-02T11:38:56.999Z</time></trkpt><trkpt lat="43.16767698614397" lon="12.885804191399211"><ele>797.2</ele><time>2026-05-02T11:38:58.999Z</time></trkpt><trkpt lat="43.167773636562735" lon="12.885769591134085"><ele>790.4000000000001</ele><time>2026-05-02T11:39:00.999Z</time></trkpt><trkpt lat="43.167858642088206" lon="12.88572722439816"><ele>783.6</ele><time>2026-05-02T11:39:02.999Z</time></trkpt><trkpt lat="43.167942224617924" lon="12.885662985700005"><ele>776.8</ele><time>2026-05-02T11:39:04.999Z</time></trkpt><trkpt lat="43.168040394958325" lon="12.885594395201176"><ele>770.0</ele><time>2026-05-02T11:39:06.999Z</time></trkpt><trkpt lat="43.168101158754475" lon="12.885553547190327"><ele>763.8</ele><time>2026-05-02T11:39:07.999Z</time></trkpt><trkpt lat="43.16820508372711" lon="12.88545813385303"><ele>757.6</ele><time>2026-05-02T11:39:09.999Z</time></trkpt><trkpt lat="43.168254661847335" lon="12.885393411274936"><ele>751.4000000000001</ele><time>2026-05-02T11:39:10.999Z</time></trkpt><trkpt lat="43.16829777454525" lon="12.885301882887678"><ele>745.2</ele><time>2026-05-02T11:39:11.999Z</time></trkpt><trkpt lat="43.168340955037756" lon="12.885159944255781"><ele>739.0</ele><time>2026-05-02T11:39:13.999Z</time></trkpt><trkpt lat="43.16837697107999" lon="12.88500733524168"><ele>739.0</ele><time>2026-05-02T11:39:15.999Z</time></trkpt><trkpt lat="43.16837795195441" lon="12.884860656535805"><ele>739.0</ele><time>2026-05-02T11:39:18Z</time></trkpt><trkpt lat="43.16836483077394" lon="12.884725117635016"><ele>739.0</ele><time>2026-05-02T11:39:20Z</time></trkpt><trkpt lat="43.16833154948365" lon="12.884649511472494"><ele>739.0</ele><time>2026-05-02T11:39:21Z</time></trkpt><trkpt lat="43.16829151190273" lon="12.88452773864672"><ele>739.0</ele><time>2026-05-02T11:39:23Z</time></trkpt><trkpt lat="43.16836014320335" lon="12.884488627932742"><ele>739.0</ele><time>2026-05-02T11:39:30Z</time></trkpt><trkpt lat="43.16845776396862" lon="12.884512389855761"><ele>739.0</ele><time>2026-05-02T11:39:32Z</time></trkpt><trkpt lat="43.168576359202" lon="12.88459544742339"><ele>739.0</ele><time>2026-05-02T11:39:34Z</time></trkpt><trkpt lat="43.16862207626128" lon="12.884667996404522"><ele>739.0</ele><time>2026-05-02T11:39:35Z</time></trkpt><trkpt lat="43.16866257380584" lon="12.88475997035384"><ele>739.0</ele><time>2026-05-02T11:39:36Z</time></trkpt><trkpt lat="43.16870941849555" lon="12.884867456943397"><ele>739.0</ele><time>2026-05-02T11:39:37Z</time></trkpt><trkpt lat="43.16876711546543" lon="12.884975489225134"><ele>739.0</ele><time>2026-05-02T11:39:38Z</time></trkpt><trkpt lat="43.16882672371705" lon="12.885078694501502"><ele>739.0</ele><time>2026-05-02T11:39:39Z</time></trkpt><trkpt lat="43.16887169734923" lon="12.885173999446016"><ele>739.0</ele><time>2026-05-02T11:39:40Z</time></trkpt><trkpt lat="43.16889807981659" lon="12.88526348550939"><ele>739.0</ele><time>2026-05-02T11:39:41Z</time></trkpt><trkpt lat="43.16889592826675" lon="12.88538647630052"><ele>739.0</ele><time>2026-05-02T11:39:43Z</time></trkpt><trkpt lat="43.16882636347752" lon="12.885510856711184"><ele>738.8000000000001</ele><time>2026-05-02T11:39:45Z</time></trkpt><trkpt lat="43.168740652930154" lon="12.885594547138487"><ele>738.6</ele><time>2026-05-02T11:39:46Z</time></trkpt><trkpt lat="43.16865445244533" lon="12.885696827800238"><ele>738.4</ele><time>2026-05-02T11:39:47Z</time></trkpt><trkpt lat="43.16857630200306" lon="12.88579962872438"><ele>738.2</ele><time>2026-05-02T11:39:48Z</time></trkpt><trkpt lat="43.16850584864745" lon="12.885897394323788"><ele>738.0</ele><time>2026-05-02T11:39:49Z</time></trkpt><trkpt lat="43.16844154344473" lon="12.886015303684779"><ele>743.75</ele><time>2026-05-02T11:39:50Z</time></trkpt><trkpt lat="43.16837778652704" lon="12.886144215944363"><ele>749.5</ele><time>2026-05-02T11:39:51Z</time></trkpt><trkpt lat="43.168312573998634" lon="12.886284968456106"><ele>755.25</ele><time>2026-05-02T11:39:52Z</time></trkpt><trkpt lat="43.168241959571354" lon="12.886434763362137"><ele>761.0</ele><time>2026-05-02T11:39:53Z</time></trkpt><trkpt lat="43.16816922047659" lon="12.886583531671125"><ele>761.0</ele><time>2026-05-02T11:39:54Z</time></trkpt><trkpt lat="43.16809333807632" lon="12.886733921424835"><ele>761.0</ele><time>2026-05-02T11:39:55Z</time></trkpt><trkpt lat="43.16803330212586" lon="12.886875727929834"><ele>761.0</ele><time>2026-05-02T11:39:56Z</time></trkpt><trkpt lat="43.167976517726636" lon="12.887010347215385"><ele>761.0</ele><time>2026-05-02T11:39:57Z</time></trkpt><trkpt lat="43.16790420143613" lon="12.887148425297658"><ele>755.75</ele><time>2026-05-02T11:39:58Z</time></trkpt><trkpt lat="43.16782003900215" lon="12.887281690514106"><ele>750.5</ele><time>2026-05-02T11:39:59Z</time></trkpt><trkpt lat="43.16775919923859" lon="12.887401817646744"><ele>745.25</ele><time>2026-05-02T11:40:00Z</time></trkpt><trkpt lat="43.16768791160149" lon="12.8875230660129"><ele>740.0</ele><time>2026-05-02T11:40:01Z</time></trkpt><trkpt lat="43.16761452886311" lon="12.88763126925435"><ele>736.6</ele><time>2026-05-02T11:40:02Z</time></trkpt><trkpt lat="43.167567124065386" lon="12.88775535914596"><ele>733.2</ele><time>2026-05-02T11:40:03Z</time></trkpt><trkpt lat="43.16752482991141" lon="12.887897010865158"><ele>729.8</ele><time>2026-05-02T11:40:04Z</time></trkpt><trkpt lat="43.167488625054254" lon="12.888034343112324"><ele>726.4</ele><time>2026-05-02T11:40:05Z</time></trkpt><trkpt lat="43.167469279725694" lon="12.888166662814191"><ele>723.0</ele><time>2026-05-02T11:40:06Z</time></trkpt><trkpt lat="43.16747063034697" lon="12.888295514600546"><ele>722.0</ele><time>2026-05-02T11:40:07Z</time></trkpt><trkpt lat="43.167478678254135" lon="12.888463456798188"><ele>721.0</ele><time>2026-05-02T11:40:08Z</time></trkpt><trkpt lat="43.1675145257075" lon="12.888615337853652"><ele>720.0</ele><time>2026-05-02T11:40:09Z</time></trkpt><trkpt lat="43.16751273637593" lon="12.888774831941133"><ele>719.0</ele><time>2026-05-02T11:40:09.999Z</time></trkpt><trkpt lat="43.16752236152288" lon="12.888911875999861"><ele>719.0</ele><time>2026-05-02T11:40:10.999Z</time></trkpt><trkpt lat="43.16753064887745" lon="12.889039938878163"><ele>719.0</ele><time>2026-05-02T11:40:11.999Z</time></trkpt><trkpt lat="43.16755198797923" lon="12.889160582942177"><ele>719.0</ele><time>2026-05-02T11:40:12.999Z</time></trkpt><trkpt lat="43.167576122687564" lon="12.889270137861116"><ele>719.0</ele><time>2026-05-02T11:40:13.999Z</time></trkpt><trkpt lat="43.167631417885865" lon="12.88938233431765"><ele>719.0</ele><time>2026-05-02T11:40:14.999Z</time></trkpt><trkpt lat="43.16771346245056" lon="12.889491818405954"><ele>719.6</ele><time>2026-05-02T11:40:15.999Z</time></trkpt><trkpt lat="43.16777005076993" lon="12.889599572066773"><ele>720.2</ele><time>2026-05-02T11:40:16.999Z</time></trkpt><trkpt lat="43.16782999670725" lon="12.8897276197997"><ele>720.8000000000001</ele><time>2026-05-02T11:40:17.999Z</time></trkpt><trkpt lat="43.16788604520055" lon="12.889833614053313"><ele>721.4000000000001</ele><time>2026-05-02T11:40:18.999Z</time></trkpt><trkpt lat="43.16791991425055" lon="12.889912197695887"><ele>722.0</ele><time>2026-05-02T11:40:19.999Z</time></trkpt><trkpt lat="43.16785551595715" lon="12.890072447847105"><ele>719.0</ele><time>2026-05-02T11:40:21.999Z</time></trkpt><trkpt lat="43.167804584143425" lon="12.890199099918119"><ele>716.0</ele><time>2026-05-02T11:40:22.999Z</time></trkpt><trkpt lat="43.167743491072926" lon="12.890333052025495"><ele>713.0</ele><time>2026-05-02T11:40:23.999Z</time></trkpt><trkpt lat="43.16766522687649" lon="12.890445868560676"><ele>710.0</ele><time>2026-05-02T11:40:24.999Z</time></trkpt><trkpt lat="43.16759279455673" lon="12.890573386039096"><ele>710.0</ele><time>2026-05-02T11:40:25.999Z</time></trkpt><trkpt lat="43.167528984832" lon="12.89069560719816"><ele>710.0</ele><time>2026-05-02T11:40:26.999Z</time></trkpt><trkpt lat="43.16746133173454" lon="12.890829309178205"><ele>710.0</ele><time>2026-05-02T11:40:27.999Z</time></trkpt><trkpt lat="43.16740284497121" lon="12.89095182482379"><ele>710.0</ele><time>2026-05-02T11:40:28.999Z</time></trkpt><trkpt lat="43.167351731551626" lon="12.891080613550518"><ele>710.0</ele><time>2026-05-02T11:40:29.999Z</time></trkpt><trkpt lat="43.16731091397911" lon="12.891207295521644"><ele>719.2</ele><time>2026-05-02T11:40:30.999Z</time></trkpt><trkpt lat="43.16727279934324" lon="12.89134356846004"><ele>728.4</ele><time>2026-05-02T11:40:31.999Z</time></trkpt><trkpt lat="43.1672423869877" lon="12.89147843225996"><ele>737.5999999999999</ele><time>2026-05-02T11:40:32.999Z</time></trkpt><trkpt lat="43.167227093680964" lon="12.891617758786547"><ele>746.8</ele><time>2026-05-02T11:40:33.999Z</time></trkpt><trkpt lat="43.16722515416116" lon="12.8917509466749"><ele>756.0</ele><time>2026-05-02T11:40:34.999Z</time></trkpt><trkpt lat="43.16722950559031" lon="12.89188122895154"><ele>757.1999999999999</ele><time>2026-05-02T11:40:35.999Z</time></trkpt><trkpt lat="43.16724061095678" lon="12.89201598434758"><ele>758.4</ele><time>2026-05-02T11:40:36.999Z</time></trkpt><trkpt lat="43.16728358539019" lon="12.89212878127099"><ele>759.6</ele><time>2026-05-02T11:40:37.999Z</time></trkpt><trkpt lat="43.16736006910593" lon="12.892206662967022"><ele>760.8</ele><time>2026-05-02T11:40:38.999Z</time></trkpt><trkpt lat="43.16744532083501" lon="12.892280090875305"><ele>762.0</ele><time>2026-05-02T11:40:39.999Z</time></trkpt><trkpt lat="43.16754773697803" lon="12.892342740129685"><ele>755.0</ele><time>2026-05-02T11:40:40.999Z</time></trkpt><trkpt lat="43.16765476843588" lon="12.892361635995377"><ele>748.0</ele><time>2026-05-02T11:40:41.999Z</time></trkpt><trkpt lat="43.16778648219784" lon="12.892367566994668"><ele>741.0</ele><time>2026-05-02T11:40:42.999Z</time></trkpt><trkpt lat="43.16789155975539" lon="12.892380031270969"><ele>734.0</ele><time>2026-05-02T11:40:43.999Z</time></trkpt><trkpt lat="43.167973013378365" lon="12.892400643122194"><ele>727.0</ele><time>2026-05-02T11:40:44.999Z</time></trkpt><trkpt lat="43.16805263025059" lon="12.892533669848738"><ele>732.4000000000001</ele><time>2026-05-02T11:40:46.999Z</time></trkpt><trkpt lat="43.16806361930215" lon="12.892653536013075"><ele>737.8000000000001</ele><time>2026-05-02T11:40:47.999Z</time></trkpt><trkpt lat="43.168091728581885" lon="12.892754260573444"><ele>743.2</ele><time>2026-05-02T11:40:48.999Z</time></trkpt><trkpt lat="43.168026982241486" lon="12.892923277835472"><ele>748.6</ele><time>2026-05-02T11:40:50.999Z</time></trkpt><trkpt lat="43.167982926465385" lon="12.893029885900766"><ele>754.0</ele><time>2026-05-02T11:40:51.999Z</time></trkpt><trkpt lat="43.16796731645288" lon="12.893128996710566"><ele>754.0</ele><time>2026-05-02T11:40:52.999Z</time></trkpt><trkpt lat="43.16802585104967" lon="12.893283844171826"><ele>754.0</ele><time>2026-05-02T11:40:53.999Z</time></trkpt><trkpt lat="43.16810059393635" lon="12.893405684943836"><ele>754.0</ele><time>2026-05-02T11:40:54.999Z</time></trkpt><trkpt lat="43.16814803361869" lon="12.893484983113346"><ele>754.0</ele><time>2026-05-02T11:40:55.999Z</time></trkpt><trkpt lat="43.168128158817645" lon="12.89360488532993"><ele>754.0</ele><time>2026-05-02T11:40:57.999Z</time></trkpt><trkpt lat="43.168110456028856" lon="12.893700346119626"><ele>756.8000000000001</ele><time>2026-05-02T11:40:58.999Z</time></trkpt><trkpt lat="43.16813645781337" lon="12.893786873771843"><ele>759.6</ele><time>2026-05-02T11:40:59.999Z</time></trkpt><trkpt lat="43.16819007331344" lon="12.893866587581403"><ele>762.4</ele><time>2026-05-02T11:41:00.999Z</time></trkpt><trkpt lat="43.16825019331848" lon="12.893947067306373"><ele>765.2</ele><time>2026-05-02T11:41:01.999Z</time></trkpt><trkpt lat="43.16832390064635" lon="12.894019790363485"><ele>768.0</ele><time>2026-05-02T11:41:02.999Z</time></trkpt><trkpt lat="43.16837653396514" lon="12.89418171413073"><ele>761.3333333333334</ele><time>2026-05-02T11:41:04.999Z</time></trkpt><trkpt lat="43.168400068626255" lon="12.89429480222295"><ele>754.6666666666666</ele><time>2026-05-02T11:41:05.999Z</time></trkpt><trkpt lat="43.168410807491476" lon="12.894415509431319"><ele>748.0</ele><time>2026-05-02T11:41:06.999Z</time></trkpt><trkpt lat="43.168421428943205" lon="12.894523454655062"><ele>741.3333333333333</ele><time>2026-05-02T11:41:07.999Z</time></trkpt><trkpt lat="43.168427125893174" lon="12.894610507513418"><ele>734.6666666666666</ele><time>2026-05-02T11:41:08.999Z</time></trkpt><trkpt lat="43.16847385493974" lon="12.894718334231996"><ele>728.0</ele><time>2026-05-02T11:41:10.999Z</time></trkpt><trkpt lat="43.16849822400757" lon="12.894810912465642"><ele>728.0</ele><time>2026-05-02T11:41:12.999Z</time></trkpt><trkpt lat="43.16848930482745" lon="12.894953141330852"><ele>728.0</ele><time>2026-05-02T11:41:14.999Z</time></trkpt><trkpt lat="43.16847741606" lon="12.895121719986895"><ele>728.0</ele><time>2026-05-02T11:41:16.999Z</time></trkpt><trkpt lat="43.1684819410654" lon="12.895253157466795"><ele>728.0</ele><time>2026-05-02T11:41:17.999Z</time></trkpt><trkpt lat="43.168509423401055" lon="12.895402203056811"><ele>728.0</ele><time>2026-05-02T11:41:18.999Z</time></trkpt><trkpt lat="43.1685430628452" lon="12.895559384325141"><ele>729.5999999999999</ele><time>2026-05-02T11:41:19.999Z</time></trkpt><trkpt lat="43.168559078951944" lon="12.895693933829667"><ele>731.1999999999999</ele><time>2026-05-02T11:41:20.999Z</time></trkpt><trkpt lat="43.16861008212192" lon="12.8958082075593"><ele>732.8</ele><time>2026-05-02T11:41:21.999Z</time></trkpt><trkpt lat="43.16863834362693" lon="12.895926030703684"><ele>734.4</ele><time>2026-05-02T11:41:23Z</time></trkpt><trkpt lat="43.16866436883086" lon="12.8960397332353"><ele>736.0</ele><time>2026-05-02T11:41:24Z</time></trkpt><trkpt lat="43.16864134102397" lon="12.896144792032866"><ele>736.8333333333334</ele><time>2026-05-02T11:41:25Z</time></trkpt><trkpt lat="43.16860119125811" lon="12.896267494365123"><ele>737.6666666666667</ele><time>2026-05-02T11:41:26Z</time></trkpt><trkpt lat="43.16861040675125" lon="12.896359725535756"><ele>738.5</ele><time>2026-05-02T11:41:27Z</time></trkpt><trkpt lat="43.16864293987352" lon="12.896455205511483"><ele>739.3333333333334</ele><time>2026-05-02T11:41:28Z</time></trkpt><trkpt lat="43.1686352142659" lon="12.896565437163952"><ele>740.1666666666666</ele><time>2026-05-02T11:41:29Z</time></trkpt><trkpt lat="43.16863637073686" lon="12.896667894012129"><ele>741.0</ele><time>2026-05-02T11:41:30Z</time></trkpt><trkpt lat="43.1686457976826" lon="12.896951531763618"><ele>741.8333333333334</ele><time>2026-05-02T11:41:31Z</time></trkpt><trkpt lat="43.16866921154954" lon="12.897070734621927"><ele>742.6666666666666</ele><time>2026-05-02T11:41:32Z</time></trkpt><trkpt lat="43.16871704355433" lon="12.897190679538806"><ele>743.5</ele><time>2026-05-02T11:41:34Z</time></trkpt><trkpt lat="43.16871029150164" lon="12.89728717136443"><ele>744.3333333333333</ele><time>2026-05-02T11:41:37Z</time></trkpt><trkpt lat="43.16867814755004" lon="12.897373988358952"><ele>745.1666666666666</ele><time>2026-05-02T11:41:39Z</time></trkpt><trkpt lat="43.168664003254804" lon="12.897458168040307"><ele>746.0</ele><time>2026-05-02T11:41:42Z</time></trkpt><trkpt lat="43.16871602716026" lon="12.897516409210699"><ele>746.0</ele><time>2026-05-02T11:41:45Z</time></trkpt><trkpt lat="43.16882422135495" lon="12.89743837832422"><ele>746.0</ele><time>2026-05-02T11:41:48Z</time></trkpt><trkpt lat="43.168873891188674" lon="12.897355019928732"><ele>746.0</ele><time>2026-05-02T11:41:49Z</time></trkpt><trkpt lat="43.168910942767496" lon="12.897265800833885"><ele>746.0</ele><time>2026-05-02T11:41:50Z</time></trkpt><trkpt lat="43.16895740971374" lon="12.897167815442751"><ele>746.0</ele><time>2026-05-02T11:41:51Z</time></trkpt><trkpt lat="43.16903064423244" lon="12.897017160851824"><ele>746.8</ele><time>2026-05-02T11:41:52Z</time></trkpt><trkpt lat="43.169105879720696" lon="12.896835867249848"><ele>747.5999999999999</ele><time>2026-05-02T11:41:53Z</time></trkpt><trkpt lat="43.16916051744119" lon="12.896723330145422"><ele>748.4</ele><time>2026-05-02T11:41:54Z</time></trkpt><trkpt lat="43.16920543715551" lon="12.896612010010303"><ele>749.2</ele><time>2026-05-02T11:41:55Z</time></trkpt><trkpt lat="43.169232638349186" lon="12.896513087808279"><ele>750.0</ele><time>2026-05-02T11:41:56Z</time></trkpt><trkpt lat="43.169242141041856" lon="12.896418904451709"><ele>750.0</ele><time>2026-05-02T11:41:57Z</time></trkpt><trkpt lat="43.16926087964763" lon="12.896326589542694"><ele>750.0</ele><time>2026-05-02T11:41:58Z</time></trkpt><trkpt lat="43.16928607766397" lon="12.896214949688966"><ele>750.0</ele><time>2026-05-02T11:41:59Z</time></trkpt><trkpt lat="43.16930730377449" lon="12.896115159295032"><ele>750.0</ele><time>2026-05-02T11:42:00Z</time></trkpt><trkpt lat="43.16933451081861" lon="12.895998611470151"><ele>750.0</ele><time>2026-05-02T11:42:01Z</time></trkpt><trkpt lat="43.16935973594647" lon="12.895860788123779"><ele>750.0</ele><time>2026-05-02T11:42:02Z</time></trkpt><trkpt lat="43.16938013626323" lon="12.895743990923473"><ele>749.0</ele><time>2026-05-02T11:42:03Z</time></trkpt><trkpt lat="43.16939659500955" lon="12.895650868634927"><ele>748.0</ele><time>2026-05-02T11:42:04Z</time></trkpt><trkpt lat="43.169415904984284" lon="12.895526607241038"><ele>747.0</ele><time>2026-05-02T11:42:06Z</time></trkpt><trkpt lat="43.16947591628954" lon="12.895460239419547"><ele>746.0</ele><time>2026-05-02T11:42:08Z</time></trkpt><trkpt lat="43.16954455856626" lon="12.89547097528324"><ele>745.0</ele><time>2026-05-02T11:42:10Z</time></trkpt><trkpt lat="43.169655250629475" lon="12.89547821126009"><ele>744.0</ele><time>2026-05-02T11:42:12Z</time></trkpt><trkpt lat="43.16972265779781" lon="12.895486939607206"><ele>744.0</ele><time>2026-05-02T11:42:14Z</time></trkpt><trkpt lat="43.16980193010368" lon="12.895590063149246"><ele>744.0</ele><time>2026-05-02T11:42:16Z</time></trkpt><trkpt lat="43.169863107456365" lon="12.895660110485126"><ele>744.0</ele><time>2026-05-02T11:42:16.999Z</time></trkpt><trkpt lat="43.169938100322454" lon="12.895736659782386"><ele>744.0</ele><time>2026-05-02T11:42:17.999Z</time></trkpt><trkpt lat="43.17002029021489" lon="12.89582301816864"><ele>744.0</ele><time>2026-05-02T11:42:18.999Z</time></trkpt><trkpt lat="43.17007769274222" lon="12.895876767824959"><ele>752.0</ele><time>2026-05-02T11:42:19.999Z</time></trkpt><trkpt lat="43.17017346372336" lon="12.895928708750846"><ele>760.0</ele><time>2026-05-02T11:42:21.999Z</time></trkpt><trkpt lat="43.17024612896647" lon="12.89593306535128"><ele>768.0</ele><time>2026-05-02T11:42:22.999Z</time></trkpt><trkpt lat="43.17034623583523" lon="12.896036901024738"><ele>776.0</ele><time>2026-05-02T11:42:24.999Z</time></trkpt><trkpt lat="43.170415713381054" lon="12.896128480154506"><ele>784.0</ele><time>2026-05-02T11:42:25.999Z</time></trkpt><trkpt lat="43.17046405868049" lon="12.896195050332796"><ele>784.0</ele><time>2026-05-02T11:42:26.999Z</time></trkpt><trkpt lat="43.17051241584724" lon="12.896282021921273"><ele>784.0</ele><time>2026-05-02T11:42:27.999Z</time></trkpt><trkpt lat="43.1705635275162" lon="12.896412662628764"><ele>784.0</ele><time>2026-05-02T11:42:29.999Z</time></trkpt><trkpt lat="43.17057666236212" lon="12.89653304807358"><ele>784.0</ele><time>2026-05-02T11:42:31.999Z</time></trkpt><trkpt lat="43.170554554544864" lon="12.896678979715949"><ele>784.0</ele><time>2026-05-02T11:42:34.999Z</time></trkpt><trkpt lat="43.17056614629178" lon="12.896832687409123"><ele>786.8000000000001</ele><time>2026-05-02T11:42:36.999Z</time></trkpt><trkpt lat="43.170587591926314" lon="12.896964614755053"><ele>789.6</ele><time>2026-05-02T11:42:38.999Z</time></trkpt><trkpt lat="43.170583765413475" lon="12.897099885712255"><ele>792.4</ele><time>2026-05-02T11:42:40.999Z</time></trkpt><trkpt lat="43.17058800095251" lon="12.897288881253719"><ele>795.2</ele><time>2026-05-02T11:42:42.999Z</time></trkpt><trkpt lat="43.170600847749455" lon="12.897437710140826"><ele>798.0</ele><time>2026-05-02T11:42:43.999Z</time></trkpt><trkpt lat="43.17061732862205" lon="12.897619579187431"><ele>798.6666666666666</ele><time>2026-05-02T11:42:44.999Z</time></trkpt><trkpt lat="43.170628139525775" lon="12.897759973248794"><ele>799.3333333333333</ele><time>2026-05-02T11:42:45.999Z</time></trkpt><trkpt lat="43.17063903924498" lon="12.897850468637875"><ele>800.0</ele><time>2026-05-02T11:42:46.999Z</time></trkpt><trkpt lat="43.170703655103" lon="12.897945892009364"><ele>800.6666666666666</ele><time>2026-05-02T11:42:48.999Z</time></trkpt><trkpt lat="43.170778166138525" lon="12.89799254744534"><ele>801.3333333333333</ele><time>2026-05-02T11:42:50.999Z</time></trkpt><trkpt lat="43.170845487510846" lon="12.898072496179878"><ele>802.0</ele><time>2026-05-02T11:42:53.999Z</time></trkpt><trkpt lat="43.17092677079318" lon="12.898090245445005"><ele>802.0</ele><time>2026-05-02T11:42:56.999Z</time></trkpt><trkpt lat="43.17098513549924" lon="12.89804054142362"><ele>802.0</ele><time>2026-05-02T11:43:12.999Z</time></trkpt><trkpt lat="43.17095451366278" lon="12.897879129538149"><ele>802.0</ele><time>2026-05-02T11:43:14.999Z</time></trkpt><trkpt lat="43.17094977183962" lon="12.897775865590631"><ele>802.0</ele><time>2026-05-02T11:43:18.999Z</time></trkpt><trkpt lat="43.171005272144576" lon="12.897669632177891"><ele>802.0</ele><time>2026-05-02T11:43:20.999Z</time></trkpt><trkpt lat="43.17104777336952" lon="12.897540823030011"><ele>800.4000000000001</ele><time>2026-05-02T11:43:22.999Z</time></trkpt><trkpt lat="43.17109192707949" lon="12.89741799526077"><ele>798.8000000000001</ele><time>2026-05-02T11:43:24.999Z</time></trkpt><trkpt lat="43.17111910248825" lon="12.897329814451643"><ele>797.2</ele><time>2026-05-02T11:43:26.999Z</time></trkpt><trkpt lat="43.17116750501023" lon="12.897206579004443"><ele>795.6</ele><time>2026-05-02T11:43:33Z</time></trkpt><trkpt lat="43.17118994994724" lon="12.89707042977921"><ele>794.0</ele><time>2026-05-02T11:43:36Z</time></trkpt><trkpt lat="43.171227895379474" lon="12.896958942099596"><ele>794.0</ele><time>2026-05-02T11:43:39Z</time></trkpt><trkpt lat="43.171279624540276" lon="12.896830996985797"><ele>794.0</ele><time>2026-05-02T11:43:42Z</time></trkpt><trkpt lat="43.17128497829691" lon="12.896700297800338"><ele>794.0</ele><time>2026-05-02T11:43:45Z</time></trkpt><trkpt lat="43.17130056968336" lon="12.89659005339805"><ele>794.0</ele><time>2026-05-02T11:43:47Z</time></trkpt><trkpt lat="43.17132781880814" lon="12.89646921522802"><ele>794.0</ele><time>2026-05-02T11:43:50Z</time></trkpt><trkpt lat="43.17135169891526" lon="12.896373510377412"><ele>794.0</ele><time>2026-05-02T11:43:52Z</time></trkpt><trkpt lat="43.17137466668951" lon="12.896249450619552"><ele>794.0</ele><time>2026-05-02T11:43:54Z</time></trkpt><trkpt lat="43.171402083620656" lon="12.896146391818858"><ele>794.0</ele><time>2026-05-02T11:43:56Z</time></trkpt><trkpt lat="43.17142632938651" lon="12.89601158103504"><ele>794.0</ele><time>2026-05-02T11:43:58Z</time></trkpt><trkpt lat="43.17142132068626" lon="12.895869247822496"><ele>794.0</ele><time>2026-05-02T11:44:00Z</time></trkpt><trkpt lat="43.17142598476907" lon="12.895734144229207"><ele>793.4000000000001</ele><time>2026-05-02T11:44:02Z</time></trkpt><trkpt lat="43.171422711622334" lon="12.895615491028325"><ele>792.8</ele><time>2026-05-02T11:44:04Z</time></trkpt><trkpt lat="43.17142162152616" lon="12.8954610735811"><ele>792.2</ele><time>2026-05-02T11:44:06Z</time></trkpt><trkpt lat="43.17141601434999" lon="12.895367052711777"><ele>791.5999999999999</ele><time>2026-05-02T11:44:07Z</time></trkpt><trkpt lat="43.17143230339196" lon="12.895216091952625"><ele>791.0</ele><time>2026-05-02T11:44:09Z</time></trkpt><trkpt lat="43.171470918223484" lon="12.895097051583365"><ele>792.0000000000001</ele><time>2026-05-02T11:44:11Z</time></trkpt><trkpt lat="43.171505778632344" lon="12.894973956513665"><ele>793.0</ele><time>2026-05-02T11:44:13Z</time></trkpt><trkpt lat="43.1715570246721" lon="12.894856426790222"><ele>794.0</ele><time>2026-05-02T11:44:15Z</time></trkpt><trkpt lat="43.171550946437534" lon="12.894766177627565"><ele>795.0</ele><time>2026-05-02T11:44:17Z</time></trkpt><trkpt lat="43.17157500938539" lon="12.894674260419707"><ele>796.0000000000001</ele><time>2026-05-02T11:44:19Z</time></trkpt><trkpt lat="43.17164045136239" lon="12.89468635336409"><ele>797.0</ele><time>2026-05-02T11:44:21Z</time></trkpt><trkpt lat="43.171730974959225" lon="12.894730664201468"><ele>802.6666666666667</ele><time>2026-05-02T11:44:23Z</time></trkpt><trkpt lat="43.17181774262769" lon="12.894719980124535"><ele>808.3333333333334</ele><time>2026-05-02T11:44:25Z</time></trkpt><trkpt lat="43.17189844879579" lon="12.89470781461243"><ele>814.0</ele><time>2026-05-02T11:44:44.999Z</time></trkpt><trkpt lat="43.17195772395053" lon="12.894764765755632"><ele>819.6666666666667</ele><time>2026-05-02T11:44:46.999Z</time></trkpt><trkpt lat="43.17203840776577" lon="12.894845897306647"><ele>825.3333333333334</ele><time>2026-05-02T11:44:48.999Z</time></trkpt><trkpt lat="43.17209658132124" lon="12.894880301799947"><ele>831.0</ele><time>2026-05-02T11:44:50.999Z</time></trkpt><trkpt lat="43.17215692923438" lon="12.894943895990545"><ele>831.0</ele><time>2026-05-02T11:44:51.999Z</time></trkpt><trkpt lat="43.1722229550658" lon="12.895072657566887"><ele>831.0</ele><time>2026-05-02T11:44:53.999Z</time></trkpt><trkpt lat="43.17224925422807" lon="12.895157715095717"><ele>831.0</ele><time>2026-05-02T11:44:54.999Z</time></trkpt><trkpt lat="43.17227104856222" lon="12.895253604532872"><ele>831.0</ele><time>2026-05-02T11:44:57.999Z</time></trkpt><trkpt lat="43.17231326913122" lon="12.895354973530065"><ele>831.0</ele><time>2026-05-02T11:45:00.999Z</time></trkpt><trkpt lat="43.17234745104791" lon="12.895470120044719"><ele>831.0</ele><time>2026-05-02T11:45:03.999Z</time></trkpt><trkpt lat="43.17236537506029" lon="12.895589051416739"><ele>837.0</ele><time>2026-05-02T11:45:05.999Z</time></trkpt><trkpt lat="43.17239089477707" lon="12.895700140715476"><ele>843.0</ele><time>2026-05-02T11:45:08.999Z</time></trkpt><trkpt lat="43.17240642577997" lon="12.895830520936917"><ele>848.9999999999999</ele><time>2026-05-02T11:45:10.999Z</time></trkpt><trkpt lat="43.172425884579525" lon="12.895944595574457"><ele>855.0</ele><time>2026-05-02T11:45:12.999Z</time></trkpt><trkpt lat="43.17246009266753" lon="12.896084839236615"><ele>861.0</ele><time>2026-05-02T11:45:14.999Z</time></trkpt><trkpt lat="43.172498456077136" lon="12.896214076936186"><ele>862.8</ele><time>2026-05-02T11:45:18.999Z</time></trkpt><trkpt lat="43.172551225193196" lon="12.89635383396715"><ele>864.5999999999999</ele><time>2026-05-02T11:45:20.999Z</time></trkpt><trkpt lat="43.17260488107172" lon="12.896537607843694"><ele>866.4</ele><time>2026-05-02T11:45:22.999Z</time></trkpt><trkpt lat="43.17264556153759" lon="12.89666085377989"><ele>868.2</ele><time>2026-05-02T11:45:23.999Z</time></trkpt><trkpt lat="43.17266880861444" lon="12.89675081956516"><ele>870.0</ele><time>2026-05-02T11:45:24.999Z</time></trkpt><trkpt lat="43.17265622016998" lon="12.89691089509497"><ele>870.4</ele><time>2026-05-02T11:45:26.999Z</time></trkpt><trkpt lat="43.17271361745538" lon="12.897075511622997"><ele>870.8</ele><time>2026-05-02T11:45:28.999Z</time></trkpt><trkpt lat="43.17276554478528" lon="12.897145401668316"><ele>871.2</ele><time>2026-05-02T11:45:29.999Z</time></trkpt><trkpt lat="43.17280499031416" lon="12.897228435779562"><ele>871.6</ele><time>2026-05-02T11:45:30.999Z</time></trkpt><trkpt lat="43.17283793389987" lon="12.89735403548162"><ele>872.0</ele><time>2026-05-02T11:45:31.999Z</time></trkpt><trkpt lat="43.17287572749356" lon="12.897454209210592"><ele>872.0000000000001</ele><time>2026-05-02T11:45:32.999Z</time></trkpt><trkpt lat="43.172906709924824" lon="12.897553057903375"><ele>872.0</ele><time>2026-05-02T11:45:33.999Z</time></trkpt><trkpt lat="43.17294705569975" lon="12.897641337740197"><ele>872.0</ele><time>2026-05-02T11:45:35Z</time></trkpt><trkpt lat="43.17299386075842" lon="12.897745260627444"><ele>872.0</ele><time>2026-05-02T11:45:36Z</time></trkpt><trkpt lat="43.1730328479805" lon="12.897862607138844"><ele>872.0000000000001</ele><time>2026-05-02T11:45:37Z</time></trkpt><trkpt lat="43.17306694147572" lon="12.89796268797729"><ele>872.0</ele><time>2026-05-02T11:45:38Z</time></trkpt><trkpt lat="43.17310847859899" lon="12.898089026239898"><ele>874.8</ele><time>2026-05-02T11:45:40Z</time></trkpt><trkpt lat="43.173193985044236" lon="12.898181248964988"><ele>877.6</ele><time>2026-05-02T11:45:42Z</time></trkpt><trkpt lat="43.17324096820084" lon="12.89826081533385"><ele>880.3999999999999</ele><time>2026-05-02T11:45:43Z</time></trkpt><trkpt lat="43.173306621126436" lon="12.898359345767968"><ele>883.1999999999999</ele><time>2026-05-02T11:45:44Z</time></trkpt><trkpt lat="43.173364781772115" lon="12.898436100504512"><ele>886.0</ele><time>2026-05-02T11:45:45Z</time></trkpt><trkpt lat="43.173424548353715" lon="12.898536306886754"><ele>889.0</ele><time>2026-05-02T11:45:46Z</time></trkpt><trkpt lat="43.17348021650413" lon="12.89861882377398"><ele>891.9999999999999</ele><time>2026-05-02T11:45:47Z</time></trkpt><trkpt lat="43.17355450028796" lon="12.898738276668404"><ele>894.9999999999999</ele><time>2026-05-02T11:45:49Z</time></trkpt><trkpt lat="43.17362457711897" lon="12.89882123948466"><ele>898.0</ele><time>2026-05-02T11:45:51Z</time></trkpt><trkpt lat="43.173682413475795" lon="12.898888122740898"><ele>901.0</ele><time>2026-05-02T11:45:53Z</time></trkpt><trkpt lat="43.173762823480374" lon="12.898988351047214"><ele>900.9999999999999</ele><time>2026-05-02T11:45:55Z</time></trkpt><trkpt lat="43.17380233310827" lon="12.899057360327799"><ele>901.0</ele><time>2026-05-02T11:45:56Z</time></trkpt><trkpt lat="43.17387433238729" lon="12.899151518467937"><ele>901.0</ele><time>2026-05-02T11:45:58Z</time></trkpt><trkpt lat="43.17393446109072" lon="12.899200743910471"><ele>901.0</ele><time>2026-05-02T11:46:01Z</time></trkpt><trkpt lat="43.173985832231345" lon="12.89925722697389"><ele>900.9999999999999</ele><time>2026-05-02T11:46:05Z</time></trkpt><trkpt lat="43.17404901602147" lon="12.899326747397557"><ele>901.0</ele><time>2026-05-02T11:46:11Z</time></trkpt><trkpt lat="43.17410526788163" lon="12.899403382527327"><ele>902.1666666666666</ele><time>2026-05-02T11:46:13Z</time></trkpt><trkpt lat="43.17415717689187" lon="12.89945824494231"><ele>903.3333333333333</ele><time>2026-05-02T11:46:15Z</time></trkpt><trkpt lat="43.17420461928636" lon="12.899545988219476"><ele>904.5</ele><time>2026-05-02T11:46:18Z</time></trkpt><trkpt lat="43.1742420381067" lon="12.899623184444135"><ele>905.6666666666667</ele><time>2026-05-02T11:46:32Z</time></trkpt><trkpt lat="43.17432393679236" lon="12.89969211700984"><ele>906.8333333333334</ele><time>2026-05-02T11:46:35Z</time></trkpt><trkpt lat="43.17438761589476" lon="12.899780853698077"><ele>908.0</ele><time>2026-05-02T11:46:37Z</time></trkpt><trkpt lat="43.174452526745455" lon="12.899851235962416"><ele>908.0000000000001</ele><time>2026-05-02T11:46:38.999Z</time></trkpt><trkpt lat="43.174510751743966" lon="12.899907369457065"><ele>908.0</ele><time>2026-05-02T11:46:42.999Z</time></trkpt><trkpt lat="43.17458565811222" lon="12.899966813476942"><ele>908.0</ele><time>2026-05-02T11:46:49.999Z</time></trkpt><trkpt lat="43.174659510022316" lon="12.900033972777686"><ele>908.0</ele><time>2026-05-02T11:46:51.999Z</time></trkpt><trkpt lat="43.174721122342014" lon="12.900099889209166"><ele>908.0000000000001</ele><time>2026-05-02T11:46:53.999Z</time></trkpt><trkpt lat="43.17479335996211" lon="12.900176165623808"><ele>908.0</ele><time>2026-05-02T11:47:10.999Z</time></trkpt><trkpt lat="43.17483302792657" lon="12.900267653295936"><ele>906.4285714285714</ele><time>2026-05-02T11:47:14.999Z</time></trkpt><trkpt lat="43.17487217819351" lon="12.900341121689745"><ele>904.8571428571429</ele><time>2026-05-02T11:47:20.999Z</time></trkpt><trkpt lat="43.17490850319446" lon="12.900416466986265"><ele>903.2857142857143</ele><time>2026-05-02T11:47:26.999Z</time></trkpt><trkpt lat="43.17495687023014" lon="12.900491698460977"><ele>901.7142857142858</ele><time>2026-05-02T11:47:29.999Z</time></trkpt><trkpt lat="43.174992316606954" lon="12.900575543106509"><ele>900.1428571428571</ele><time>2026-05-02T11:47:31.999Z</time></trkpt><trkpt lat="43.17502099599403" lon="12.9006571733277"><ele>898.5714285714287</ele><time>2026-05-02T11:47:34.999Z</time></trkpt><trkpt lat="43.175072274796044" lon="12.900725116586651"><ele>897.0</ele><time>2026-05-02T11:47:39.999Z</time></trkpt><trkpt lat="43.17514758008575" lon="12.900799046469631"><ele>897.0</ele><time>2026-05-02T11:47:43Z</time></trkpt><trkpt lat="43.175239234976644" lon="12.900891988037692"><ele>897.0</ele><time>2026-05-02T11:50:49Z</time></trkpt><trkpt lat="43.17523216959172" lon="12.900983635853242"><ele>897.0</ele><time>2026-05-02T11:51:41.999Z</time></trkpt><trkpt lat="43.17525388511114" lon="12.90106529690461"><ele>897.0</ele><time>2026-05-02T11:52:02Z</time></trkpt><trkpt lat="43.17530874153151" lon="12.901114274841893"><ele>897.0</ele><time>2026-05-02T11:52:55Z</time></trkpt><trkpt lat="43.175384258137726" lon="12.901165414809546"><ele>897.0</ele><time>2026-05-02T11:56:07Z</time></trkpt><trkpt lat="43.17543284766962" lon="12.901227360515913"><ele>900.5</ele><time>2026-05-02T11:56:15Z</time></trkpt><trkpt lat="43.175464856529" lon="12.901314419696737"><ele>904.0</ele><time>2026-05-02T11:56:25Z</time></trkpt><trkpt lat="43.175511203387565" lon="12.901418224946315"><ele>907.5</ele><time>2026-05-02T11:57:18Z</time></trkpt><trkpt lat="43.17555421395622" lon="12.90148929407204"><ele>911.0</ele><time>2026-05-02T11:57:29Z</time></trkpt><trkpt lat="43.17560196148544" lon="12.901546018700284"><ele>914.5</ele><time>2026-05-02T11:57:32.999Z</time></trkpt><trkpt lat="43.17568211804141" lon="12.901603753923743"><ele>918.0</ele><time>2026-05-02T11:58:44Z</time></trkpt><trkpt lat="43.17571080423234" lon="12.901729338765195"><ele>914.1428571428572</ele><time>2026-05-02T12:02:56.999Z</time></trkpt><trkpt lat="43.175757621204575" lon="12.901813204956067"><ele>910.2857142857142</ele><time>2026-05-02T12:03:04.999Z</time></trkpt><trkpt lat="43.17579599736661" lon="12.901888162099798"><ele>906.4285714285714</ele><time>2026-05-02T12:03:08.999Z</time></trkpt><trkpt lat="43.17585271719305" lon="12.90197384265903"><ele>902.5714285714287</ele><time>2026-05-02T12:03:12.999Z</time></trkpt><trkpt lat="43.17587774636742" lon="12.902057628464814"><ele>898.7142857142858</ele><time>2026-05-02T12:03:19.999Z</time></trkpt><trkpt lat="43.17592900999769" lon="12.902118193266627"><ele>894.8571428571429</ele><time>2026-05-02T12:04:21.998Z</time></trkpt><trkpt lat="43.17590523297763" lon="12.902204293978595"><ele>891.0</ele><time>2026-05-02T12:04:46.999Z</time></trkpt><trkpt lat="43.17584508468694" lon="12.902290580385198"><ele>891.0</ele><time>2026-05-02T12:13:05Z</time></trkpt><trkpt lat="43.17592210191489" lon="12.902300057420735"><ele>891.0</ele><time>2026-05-02T12:13:22Z</time></trkpt><trkpt lat="43.17598818005368" lon="12.90234446051131"><ele>891.0</ele><time>2026-05-02T12:13:32Z</time></trkpt><trkpt lat="43.17602447462082" lon="12.902480359445061"><ele>891.0</ele><time>2026-05-02T12:14:40.999Z</time></trkpt><trkpt lat="43.1760687523692" lon="12.902553956844057"><ele>891.0</ele><time>2026-05-02T12:14:50.999Z</time></trkpt><trkpt lat="43.176084788922935" lon="12.902647428126933"><ele>891.0</ele><time>2026-05-02T12:15:41Z</time></trkpt><trkpt lat="43.176091729133866" lon="12.90274465082878"><ele>893.0</ele><time>2026-05-02T12:15:55.999Z</time></trkpt><trkpt lat="43.17615668493822" lon="12.902717262203058"><ele>895.0</ele><time>2026-05-02T12:16:51.999Z</time></trkpt><trkpt lat="43.17622365298157" lon="12.90269471940138"><ele>897.0</ele><time>2026-05-02T12:17:10Z</time></trkpt><trkpt lat="43.17629697075799" lon="12.902753343314751"><ele>899.0</ele><time>2026-05-02T12:17:14Z</time></trkpt><trkpt lat="43.17636420692156" lon="12.902810308074175"><ele>901.0</ele><time>2026-05-02T12:17:18Z</time></trkpt><trkpt lat="43.1764377059787" lon="12.902886600615922"><ele>903.0</ele><time>2026-05-02T12:20:11.999Z</time></trkpt><trkpt lat="43.176485680589096" lon="12.902959175456749"><ele>898.1666666666666</ele><time>2026-05-02T12:20:28.999Z</time></trkpt><trkpt lat="43.176528646237415" lon="12.903034025807663"><ele>893.3333333333333</ele><time>2026-05-02T12:20:33.999Z</time></trkpt><trkpt lat="43.17658640046899" lon="12.903092699432776"><ele>888.5</ele><time>2026-05-02T12:42:26Z</time></trkpt><trkpt lat="43.17665030995061" lon="12.903162401857934"><ele>883.6666666666666</ele><time>2026-05-02T12:42:32Z</time></trkpt><trkpt lat="43.17668027210114" lon="12.90325215845612"><ele>878.8333333333333</ele><time>2026-05-02T12:42:38Z</time></trkpt><trkpt lat="43.17673262837129" lon="12.903355088589116"><ele>874.0</ele><time>2026-05-02T12:42:39Z</time></trkpt><trkpt lat="43.17676295519957" lon="12.903450737090616"><ele>873.8571428571428</ele><time>2026-05-02T12:42:44Z</time></trkpt><trkpt lat="43.17680965351885" lon="12.903521885003522"><ele>873.7142857142858</ele><time>2026-05-02T12:48:31Z</time></trkpt><trkpt lat="43.176846632032316" lon="12.903597534780761"><ele>873.5714285714286</ele><time>2026-05-02T12:48:35Z</time></trkpt><trkpt lat="43.176895060567645" lon="12.903672792431353"><ele>873.4285714285713</ele><time>2026-05-02T12:48:37Z</time></trkpt><trkpt lat="43.1769465458591" lon="12.903776532114502"><ele>873.2857142857142</ele><time>2026-05-02T12:48:53Z</time></trkpt><trkpt lat="43.17695974867204" lon="12.903874866519416"><ele>873.1428571428571</ele><time>2026-05-02T12:48:57Z</time></trkpt><trkpt lat="43.17700906861277" lon="12.903943975492297"><ele>873.0</ele><time>2026-05-02T12:49:11Z</time></trkpt><trkpt lat="43.17709517037681" lon="12.904019233547544"><ele>873.0</ele><time>2026-05-02T12:49:13Z</time></trkpt><trkpt lat="43.17719768892728" lon="12.904118056941979"><ele>873.0</ele><time>2026-05-02T12:49:15Z</time></trkpt><trkpt lat="43.17729653815384" lon="12.90419882531265"><ele>873.0</ele><time>2026-05-02T12:49:17Z</time></trkpt><trkpt lat="43.17740805304547" lon="12.904290624717605"><ele>873.0</ele><time>2026-05-02T12:49:19Z</time></trkpt><trkpt lat="43.17750186406698" lon="12.904343083468254"><ele>865.5</ele><time>2026-05-02T12:49:20Z</time></trkpt><trkpt lat="43.177618925900134" lon="12.904380345161034"><ele>858.0</ele><time>2026-05-02T12:49:20.999Z</time></trkpt><trkpt lat="43.17774535881089" lon="12.90440470085189"><ele>850.5</ele><time>2026-05-02T12:49:21.999Z</time></trkpt><trkpt lat="43.17786811657683" lon="12.904447177845011"><ele>843.0</ele><time>2026-05-02T12:49:22.999Z</time></trkpt><trkpt lat="43.17799789389734" lon="12.904516739475817"><ele>843.0</ele><time>2026-05-02T12:49:23.999Z</time></trkpt><trkpt lat="43.17814230650947" lon="12.90458170229443"><ele>843.0</ele><time>2026-05-02T12:49:24.999Z</time></trkpt><trkpt lat="43.17827054985171" lon="12.904634155782107"><ele>843.0</ele><time>2026-05-02T12:49:25.999Z</time></trkpt><trkpt lat="43.17840279525103" lon="12.904691213593523"><ele>843.0</ele><time>2026-05-02T12:49:26.999Z</time></trkpt><trkpt lat="43.17851065351487" lon="12.904776137980445"><ele>849.75</ele><time>2026-05-02T12:49:27.999Z</time></trkpt><trkpt lat="43.17860612863856" lon="12.904859256087304"><ele>856.5</ele><time>2026-05-02T12:49:28.999Z</time></trkpt><trkpt lat="43.17870548442279" lon="12.904940198559132"><ele>863.25</ele><time>2026-05-02T12:49:29.999Z</time></trkpt><trkpt lat="43.178810148730264" lon="12.904997343875179"><ele>870.0</ele><time>2026-05-02T12:49:30.999Z</time></trkpt><trkpt lat="43.178924475571456" lon="12.905048691714526"><ele>870.5</ele><time>2026-05-02T12:49:31.999Z</time></trkpt><trkpt lat="43.17904449106478" lon="12.905108754950335"><ele>871.0</ele><time>2026-05-02T12:49:32.999Z</time></trkpt><trkpt lat="43.179151040867616" lon="12.905180437386543"><ele>871.5</ele><time>2026-05-02T12:49:33.999Z</time></trkpt><trkpt lat="43.179255824713955" lon="12.90526305273914"><ele>872.0</ele><time>2026-05-02T12:49:34.999Z</time></trkpt><trkpt lat="43.17935219898871" lon="12.90533611463777"><ele>872.0</ele><time>2026-05-02T12:49:35.999Z</time></trkpt><trkpt lat="43.17944708120133" lon="12.905403907053891"><ele>872.0</ele><time>2026-05-02T12:49:36.999Z</time></trkpt><trkpt lat="43.179534511538634" lon="12.905448808724676"><ele>872.0</ele><time>2026-05-02T12:49:37.999Z</time></trkpt><trkpt lat="43.17962357964566" lon="12.905487637995495"><ele>872.0</ele><time>2026-05-02T12:49:38.999Z</time></trkpt><trkpt lat="43.17971045732769" lon="12.90552234288164"><ele>872.0</ele><time>2026-05-02T12:49:39.999Z</time></trkpt><trkpt lat="43.17978445488478" lon="12.90556547988202"><ele>876.1666666666667</ele><time>2026-05-02T12:49:40.999Z</time></trkpt><trkpt lat="43.17985400611272" lon="12.905610652519993"><ele>880.3333333333334</ele><time>2026-05-02T12:49:41.999Z</time></trkpt><trkpt lat="43.1799389366964" lon="12.905654208761984"><ele>884.5</ele><time>2026-05-02T12:49:42.999Z</time></trkpt><trkpt lat="43.18001439728418" lon="12.905694032431523"><ele>888.6666666666667</ele><time>2026-05-02T12:49:43.999Z</time></trkpt><trkpt lat="43.18010148675866" lon="12.905741209607807"><ele>892.8333333333334</ele><time>2026-05-02T12:49:44.999Z</time></trkpt><trkpt lat="43.180179728957945" lon="12.905782727562492"><ele>897.0</ele><time>2026-05-02T12:49:45.999Z</time></trkpt><trkpt lat="43.18024857504299" lon="12.905824706796885"><ele>897.0</ele><time>2026-05-02T12:49:46.999Z</time></trkpt><trkpt lat="43.18031919752605" lon="12.905869839980081"><ele>897.0</ele><time>2026-05-02T12:49:47.999Z</time></trkpt><trkpt lat="43.18038599458677" lon="12.905907993523186"><ele>897.0</ele><time>2026-05-02T12:49:48.999Z</time></trkpt><trkpt lat="43.18044592523862" lon="12.90594509037103"><ele>897.0</ele><time>2026-05-02T12:49:49.999Z</time></trkpt><trkpt lat="43.18050731628435" lon="12.905970417902994"><ele>897.0</ele><time>2026-05-02T12:49:50.999Z</time></trkpt><trkpt lat="43.18061320435436" lon="12.905941966852607"><ele>897.0</ele><time>2026-05-02T12:49:52.999Z</time></trkpt><trkpt lat="43.180683302063855" lon="12.905808442427164"><ele>896.5</ele><time>2026-05-02T12:49:54.999Z</time></trkpt><trkpt lat="43.1807079732042" lon="12.905727565967085"><ele>896.0</ele><time>2026-05-02T12:49:55.999Z</time></trkpt><trkpt lat="43.18072869610008" lon="12.90564362221555"><ele>895.5</ele><time>2026-05-02T12:49:56.999Z</time></trkpt><trkpt lat="43.18073540919428" lon="12.905531151073795"><ele>895.0</ele><time>2026-05-02T12:49:57.999Z</time></trkpt><trkpt lat="43.18072560022797" lon="12.905398613495159"><ele>894.5</ele><time>2026-05-02T12:49:58.999Z</time></trkpt><trkpt lat="43.180722247131555" lon="12.905241226369277"><ele>894.0</ele><time>2026-05-02T12:49:59.999Z</time></trkpt><trkpt lat="43.18073137809477" lon="12.905084221260841"><ele>894.6</ele><time>2026-05-02T12:50:00.999Z</time></trkpt><trkpt lat="43.18074305884386" lon="12.904947961464371"><ele>895.2</ele><time>2026-05-02T12:50:01.999Z</time></trkpt><trkpt lat="43.18074882699943" lon="12.9048282308988"><ele>895.8000000000001</ele><time>2026-05-02T12:50:02.999Z</time></trkpt><trkpt lat="43.180760021054994" lon="12.90470264023791"><ele>896.4000000000001</ele><time>2026-05-02T12:50:03.999Z</time></trkpt><trkpt lat="43.18076030841015" lon="12.904580726211373"><ele>897.0</ele><time>2026-05-02T12:50:04.999Z</time></trkpt><trkpt lat="43.18075085400757" lon="12.904459478082227"><ele>897.0</ele><time>2026-05-02T12:50:05.999Z</time></trkpt><trkpt lat="43.18074087126368" lon="12.904349882252564"><ele>897.0</ele><time>2026-05-02T12:50:06.999Z</time></trkpt><trkpt lat="43.18075070943033" lon="12.90423568141012"><ele>897.0</ele><time>2026-05-02T12:50:07.999Z</time></trkpt><trkpt lat="43.180792543564635" lon="12.90414068193977"><ele>897.0</ele><time>2026-05-02T12:50:08.999Z</time></trkpt><trkpt lat="43.180854199528056" lon="12.904027052452559"><ele>897.0</ele><time>2026-05-02T12:50:09.999Z</time></trkpt><trkpt lat="43.18088147465442" lon="12.903896900134876"><ele>897.0</ele><time>2026-05-02T12:50:10.999Z</time></trkpt><trkpt lat="43.18088392412184" lon="12.903755996472729"><ele>895.5</ele><time>2026-05-02T12:50:11.999Z</time></trkpt><trkpt lat="43.180876605873614" lon="12.903634100177968"><ele>894.0</ele><time>2026-05-02T12:50:12.999Z</time></trkpt><trkpt lat="43.18085969398091" lon="12.903508775261024"><ele>892.5</ele><time>2026-05-02T12:50:13.999Z</time></trkpt><trkpt lat="43.18084424681751" lon="12.903399291231901"><ele>891.0</ele><time>2026-05-02T12:50:14.999Z</time></trkpt><trkpt lat="43.18085562633931" lon="12.9032781034133"><ele>889.5</ele><time>2026-05-02T12:50:15.999Z</time></trkpt><trkpt lat="43.180892549418715" lon="12.903155725073109"><ele>888.0</ele><time>2026-05-02T12:50:16.999Z</time></trkpt><trkpt lat="43.18093691739103" lon="12.902995701347487"><ele>886.5999999999999</ele><time>2026-05-02T12:50:17.999Z</time></trkpt><trkpt lat="43.18094649830101" lon="12.902894596727911"><ele>885.1999999999999</ele><time>2026-05-02T12:50:18.999Z</time></trkpt><trkpt lat="43.18094280928233" lon="12.902776961922054"><ele>883.8</ele><time>2026-05-02T12:50:20.999Z</time></trkpt><trkpt lat="43.18101806176535" lon="12.90275978321044"><ele>882.4</ele><time>2026-05-02T12:50:24.999Z</time></trkpt><trkpt lat="43.181060143598295" lon="12.902898279896954"><ele>881.0</ele><time>2026-05-02T12:50:26.999Z</time></trkpt><trkpt lat="43.181127936571315" lon="12.903044507417777"><ele>881.0000000000001</ele><time>2026-05-02T12:50:28.999Z</time></trkpt><trkpt lat="43.18118056520686" lon="12.903182024760595"><ele>881.0</ele><time>2026-05-02T12:50:30.999Z</time></trkpt><trkpt lat="43.18122609042431" lon="12.903252229269333"><ele>881.0</ele><time>2026-05-02T12:50:31.999Z</time></trkpt><trkpt lat="43.18128834152297" lon="12.903272059420889"><ele>881.0</ele><time>2026-05-02T12:50:32.999Z</time></trkpt><trkpt lat="43.181342256714466" lon="12.903224976668048"><ele>881.0000000000001</ele><time>2026-05-02T12:50:33.999Z</time></trkpt><trkpt lat="43.18138441010297" lon="12.903155281509871"><ele>881.0</ele><time>2026-05-02T12:50:34.999Z</time></trkpt><trkpt lat="43.18140714260572" lon="12.903046784802461"><ele>881.0000000000001</ele><time>2026-05-02T12:50:35.999Z</time></trkpt><trkpt lat="43.18140752175573" lon="12.902929854466342"><ele>881.0</ele><time>2026-05-02T12:50:37Z</time></trkpt><trkpt lat="43.18142173743277" lon="12.90281431594233"><ele>881.0</ele><time>2026-05-02T12:50:38Z</time></trkpt><trkpt lat="43.181470332486846" lon="12.902731119134458"><ele>881.0</ele><time>2026-05-02T12:50:39Z</time></trkpt><trkpt lat="43.1815184858162" lon="12.90261789461575"><ele>881.0000000000001</ele><time>2026-05-02T12:50:40Z</time></trkpt><trkpt lat="43.18155884757879" lon="12.902512537687771"><ele>881.0</ele><time>2026-05-02T12:50:41Z</time></trkpt><trkpt lat="43.18157247987187" lon="12.902412085137184"><ele>874.3333333333334</ele><time>2026-05-02T12:50:42Z</time></trkpt><trkpt lat="43.181590151788456" lon="12.902299482287736"><ele>867.6666666666667</ele><time>2026-05-02T12:50:43Z</time></trkpt><trkpt lat="43.18160329543292" lon="12.902174628581559"><ele>861.0</ele><time>2026-05-02T12:50:44Z</time></trkpt><trkpt lat="43.18162216545586" lon="12.902060612027974"><ele>854.3333333333333</ele><time>2026-05-02T12:50:45Z</time></trkpt><trkpt lat="43.181640686545215" lon="12.901943757302197"><ele>847.6666666666666</ele><time>2026-05-02T12:50:46Z</time></trkpt><trkpt lat="43.1816849306306" lon="12.90185085354859"><ele>841.0</ele><time>2026-05-02T12:50:47Z</time></trkpt><trkpt lat="43.18175451683079" lon="12.901769689787825"><ele>843.8</ele><time>2026-05-02T12:50:48Z</time></trkpt><trkpt lat="43.18183175158352" lon="12.901696234848256"><ele>846.5999999999999</ele><time>2026-05-02T12:50:49Z</time></trkpt><trkpt lat="43.18190855069253" lon="12.90164240034763"><ele>849.4</ele><time>2026-05-02T12:50:50Z</time></trkpt><trkpt lat="43.18203289115668" lon="12.901557364802548"><ele>852.2</ele><time>2026-05-02T12:50:52Z</time></trkpt><trkpt lat="43.182094948847684" lon="12.901528057006784"><ele>855.0</ele><time>2026-05-02T12:50:53Z</time></trkpt><trkpt lat="43.18215964732239" lon="12.90154391213758"><ele>855.0</ele><time>2026-05-02T12:50:54Z</time></trkpt><trkpt lat="43.182250284589834" lon="12.90153592801647"><ele>855.0</ele><time>2026-05-02T12:50:55Z</time></trkpt><trkpt lat="43.18236215402442" lon="12.901504325967421"><ele>855.0</ele><time>2026-05-02T12:50:56Z</time></trkpt><trkpt lat="43.18244977800239" lon="12.90149914352401"><ele>855.0</ele><time>2026-05-02T12:50:57Z</time></trkpt><trkpt lat="43.18252071308579" lon="12.901479964023572"><ele>855.0</ele><time>2026-05-02T12:50:58Z</time></trkpt><trkpt lat="43.18262340817258" lon="12.901431573241341"><ele>848.2</ele><time>2026-05-02T12:51:00Z</time></trkpt><trkpt lat="43.18272695845524" lon="12.901359449810938"><ele>841.4</ele><time>2026-05-02T12:51:02Z</time></trkpt><trkpt lat="43.18279693716863" lon="12.901362942298642"><ele>834.5999999999999</ele><time>2026-05-02T12:51:03Z</time></trkpt><trkpt lat="43.18287676846844" lon="12.901356091189877"><ele>827.8</ele><time>2026-05-02T12:51:04Z</time></trkpt><trkpt lat="43.18296780111125" lon="12.901330889514735"><ele>821.0</ele><time>2026-05-02T12:51:05Z</time></trkpt><trkpt lat="43.1830608273168" lon="12.901309568848028"><ele>821.0000000000001</ele><time>2026-05-02T12:51:06Z</time></trkpt><trkpt lat="43.18314091737235" lon="12.90128137181663"><ele>821.0</ele><time>2026-05-02T12:51:07Z</time></trkpt><trkpt lat="43.18322439608133" lon="12.901239295942062"><ele>821.0</ele><time>2026-05-02T12:51:08Z</time></trkpt><trkpt lat="43.183306061011855" lon="12.901193668431405"><ele>821.0</ele><time>2026-05-02T12:51:09Z</time></trkpt><trkpt lat="43.183382747393395" lon="12.901147611498068"><ele>821.0000000000001</ele><time>2026-05-02T12:51:10Z</time></trkpt><trkpt lat="43.18343936083304" lon="12.901102271589242"><ele>821.0</ele><time>2026-05-02T12:51:11Z</time></trkpt><trkpt lat="43.183508730962494" lon="12.901059674370496"><ele>817.6666666666667</ele><time>2026-05-02T12:51:12Z</time></trkpt><trkpt lat="43.18357271017445" lon="12.901020272726518"><ele>814.3333333333334</ele><time>2026-05-02T12:51:13Z</time></trkpt><trkpt lat="43.18364466100606" lon="12.901006000143663"><ele>811.0</ele><time>2026-05-02T12:51:15Z</time></trkpt><trkpt lat="43.183728220113785" lon="12.901040970073957"><ele>807.6666666666667</ele><time>2026-05-02T12:51:17Z</time></trkpt><trkpt lat="43.18380310968042" lon="12.90104584254856"><ele>804.3333333333334</ele><time>2026-05-02T12:51:19Z</time></trkpt><trkpt lat="43.183890411968044" lon="12.90105616636701"><ele>801.0</ele><time>2026-05-02T12:51:21Z</time></trkpt><trkpt lat="43.18399198191086" lon="12.901070295972152"><ele>799.0</ele><time>2026-05-02T12:51:23Z</time></trkpt><trkpt lat="43.184090694272705" lon="12.901067387955315"><ele>797.0</ele><time>2026-05-02T12:51:25Z</time></trkpt><trkpt lat="43.184175234832075" lon="12.901126215072354"><ele>795.0</ele><time>2026-05-02T12:51:27Z</time></trkpt><trkpt lat="43.18427423312535" lon="12.901205799692136"><ele>793.0</ele><time>2026-05-02T12:51:29Z</time></trkpt><trkpt lat="43.18438117634429" lon="12.901288105404598"><ele>791.0</ele><time>2026-05-02T12:51:31Z</time></trkpt><trkpt lat="43.18443755312455" lon="12.901331279154942"><ele>791.0</ele><time>2026-05-02T12:51:32Z</time></trkpt><trkpt lat="43.184527894692685" lon="12.901433567427157"><ele>791.0</ele><time>2026-05-02T12:51:33.999Z</time></trkpt><trkpt lat="43.18462147757839" lon="12.901540620743011"><ele>791.0</ele><time>2026-05-02T12:51:35.999Z</time></trkpt><trkpt lat="43.184721807950325" lon="12.90160891580789"><ele>791.0</ele><time>2026-05-02T12:51:37.999Z</time></trkpt><trkpt lat="43.184782936793106" lon="12.901643313194157"><ele>791.0</ele><time>2026-05-02T12:51:38.999Z</time></trkpt><trkpt lat="43.184842647736204" lon="12.901676678864925"><ele>791.3333333333334</ele><time>2026-05-02T12:51:39.999Z</time></trkpt><trkpt lat="43.18490301322572" lon="12.901721245249023"><ele>791.6666666666667</ele><time>2026-05-02T12:51:40.999Z</time></trkpt><trkpt lat="43.18496501500324" lon="12.90177034431588"><ele>792.0</ele><time>2026-05-02T12:51:41.999Z</time></trkpt><trkpt lat="43.18501805803592" lon="12.901822238376207"><ele>792.3333333333333</ele><time>2026-05-02T12:51:42.999Z</time></trkpt><trkpt lat="43.18508059833591" lon="12.901875934013969"><ele>792.6666666666666</ele><time>2026-05-02T12:51:44.999Z</time></trkpt><trkpt lat="43.18514733820955" lon="12.901935464119873"><ele>793.0</ele><time>2026-05-02T12:51:47.999Z</time></trkpt><trkpt lat="43.18522211651907" lon="12.90200898989437"><ele>786.2</ele><time>2026-05-02T12:51:49.999Z</time></trkpt><trkpt lat="43.18533373215061" lon="12.902078694935526"><ele>779.4</ele><time>2026-05-02T12:51:51.999Z</time></trkpt><trkpt lat="43.18542114443174" lon="12.902177690053874"><ele>772.6</ele><time>2026-05-02T12:51:53.999Z</time></trkpt><trkpt lat="43.18549985103167" lon="12.902251079893915"><ele>765.8000000000001</ele><time>2026-05-02T12:51:55.999Z</time></trkpt><trkpt lat="43.18557222332615" lon="12.902328851006246"><ele>759.0</ele><time>2026-05-02T12:51:57.999Z</time></trkpt><trkpt lat="43.18566206526702" lon="12.902378888527377"><ele>762.6</ele><time>2026-05-02T12:51:59.999Z</time></trkpt><trkpt lat="43.18573826064435" lon="12.902440338708963"><ele>766.2</ele><time>2026-05-02T12:52:01.999Z</time></trkpt><trkpt lat="43.18584381472547" lon="12.902507192548171"><ele>769.8000000000001</ele><time>2026-05-02T12:52:03.999Z</time></trkpt><trkpt lat="43.18592508706598" lon="12.902570093718097"><ele>773.4000000000001</ele><time>2026-05-02T12:52:05.999Z</time></trkpt><trkpt lat="43.186015682885184" lon="12.902637906707792"><ele>777.0</ele><time>2026-05-02T12:52:07.999Z</time></trkpt><trkpt lat="43.18609147584881" lon="12.902680417388652"><ele>773.6666666666666</ele><time>2026-05-02T12:52:09.999Z</time></trkpt><trkpt lat="43.18616306615591" lon="12.90274680311465"><ele>770.3333333333334</ele><time>2026-05-02T12:52:11.999Z</time></trkpt><trkpt lat="43.186237311723126" lon="12.902831562595603"><ele>767.0</ele><time>2026-05-02T12:52:13.999Z</time></trkpt><trkpt lat="43.18630898956103" lon="12.902857482719247"><ele>763.6666666666667</ele><time>2026-05-02T12:52:15.999Z</time></trkpt><trkpt lat="43.1864026210475" lon="12.902919475127042"><ele>760.3333333333334</ele><time>2026-05-02T12:52:18.999Z</time></trkpt><trkpt lat="43.1864716899905" lon="12.902978287162691"><ele>757.0</ele><time>2026-05-02T12:52:20.999Z</time></trkpt><trkpt lat="43.18653645951748" lon="12.903029095071394"><ele>757.0</ele><time>2026-05-02T12:52:22.999Z</time></trkpt><trkpt lat="43.18661260565859" lon="12.903088254483684"><ele>757.0</ele><time>2026-05-02T12:52:24.999Z</time></trkpt><trkpt lat="43.18667411224388" lon="12.903150229731535"><ele>757.0</ele><time>2026-05-02T12:52:26.999Z</time></trkpt><trkpt lat="43.18674303740336" lon="12.903252432544177"><ele>757.0</ele><time>2026-05-02T12:52:28.999Z</time></trkpt><trkpt lat="43.18680413006348" lon="12.903341104838884"><ele>757.0</ele><time>2026-05-02T12:52:30.999Z</time></trkpt><trkpt lat="43.18685771820268" lon="12.903399397486805"><ele>757.0</ele><time>2026-05-02T12:52:32.999Z</time></trkpt><trkpt lat="43.18689256797157" lon="12.903499344970497"><ele>750.5</ele><time>2026-05-02T12:52:34.999Z</time></trkpt><trkpt lat="43.18694627631626" lon="12.903597412094806"><ele>744.0</ele><time>2026-05-02T12:52:36.999Z</time></trkpt><trkpt lat="43.18699733083784" lon="12.903694059196608"><ele>737.5</ele><time>2026-05-02T12:52:38.999Z</time></trkpt><trkpt lat="43.18705838797328" lon="12.903775137381281"><ele>731.0</ele><time>2026-05-02T12:52:40.999Z</time></trkpt><trkpt lat="43.1870937704361" lon="12.903858319673194"><ele>724.5</ele><time>2026-05-02T12:52:43Z</time></trkpt><trkpt lat="43.18714270922316" lon="12.903942584983865"><ele>718.0</ele><time>2026-05-02T12:52:45Z</time></trkpt><trkpt lat="43.187172476528225" lon="12.904035029063955"><ele>718.0</ele><time>2026-05-02T12:52:47Z</time></trkpt><trkpt lat="43.18722794283609" lon="12.90412801212856"><ele>718.0</ele><time>2026-05-02T12:52:50Z</time></trkpt><trkpt lat="43.18727504459622" lon="12.904216450342442"><ele>718.0</ele><time>2026-05-02T12:52:52Z</time></trkpt><trkpt lat="43.18731990457764" lon="12.904321631352696"><ele>718.0</ele><time>2026-05-02T12:52:54Z</time></trkpt><trkpt lat="43.18736505194572" lon="12.904426208196423"><ele>718.0</ele><time>2026-05-02T12:52:56Z</time></trkpt><trkpt lat="43.18743272750901" lon="12.904516063488824"><ele>718.0</ele><time>2026-05-02T12:52:58Z</time></trkpt><trkpt lat="43.187461168265806" lon="12.904600816876485"><ele>718.1666666666667</ele><time>2026-05-02T12:53:00Z</time></trkpt><trkpt lat="43.187508309884734" lon="12.904693246732968"><ele>718.3333333333334</ele><time>2026-05-02T12:53:02Z</time></trkpt><trkpt lat="43.18756414663432" lon="12.904794421503958"><ele>718.5</ele><time>2026-05-02T12:53:05Z</time></trkpt><trkpt lat="43.18759373566097" lon="12.904886184333446"><ele>718.6666666666666</ele><time>2026-05-02T12:53:07Z</time></trkpt><trkpt lat="43.18764404330744" lon="12.904975507622035"><ele>718.8333333333333</ele><time>2026-05-02T12:53:09Z</time></trkpt><trkpt lat="43.18767735385998" lon="12.90505685260682"><ele>719.0</ele><time>2026-05-02T12:53:11Z</time></trkpt><trkpt lat="43.18771372229666" lon="12.905150683343411"><ele>713.2</ele><time>2026-05-02T12:53:13Z</time></trkpt><trkpt lat="43.187751707859405" lon="12.905258663005897"><ele>707.4000000000001</ele><time>2026-05-02T12:53:15Z</time></trkpt><trkpt lat="43.1877865693964" lon="12.905374856513479"><ele>701.6</ele><time>2026-05-02T12:53:17Z</time></trkpt><trkpt lat="43.18783255746586" lon="12.905485400468084"><ele>695.8</ele><time>2026-05-02T12:53:19Z</time></trkpt><trkpt lat="43.18786892055216" lon="12.905592381662276"><ele>690.0</ele><time>2026-05-02T12:53:21Z</time></trkpt><trkpt lat="43.18790187704268" lon="12.90573045631532"><ele>690.0</ele><time>2026-05-02T12:53:23Z</time></trkpt><trkpt lat="43.18794318267707" lon="12.905866519350326"><ele>690.0</ele><time>2026-05-02T12:53:25Z</time></trkpt><trkpt lat="43.18797585507975" lon="12.906003084651612"><ele>690.0</ele><time>2026-05-02T12:53:27Z</time></trkpt><trkpt lat="43.18800650259485" lon="12.906123668309103"><ele>690.0</ele><time>2026-05-02T12:53:29Z</time></trkpt><trkpt lat="43.188036760021596" lon="12.906230673472036"><ele>690.0</ele><time>2026-05-02T12:53:31Z</time></trkpt><trkpt lat="43.188063867220436" lon="12.906341112843215"><ele>686.8333333333334</ele><time>2026-05-02T12:53:33Z</time></trkpt><trkpt lat="43.188098597080966" lon="12.906453542995116"><ele>683.6666666666666</ele><time>2026-05-02T12:53:35Z</time></trkpt><trkpt lat="43.18813097323752" lon="12.906539125448834"><ele>680.5</ele><time>2026-05-02T12:53:37Z</time></trkpt><trkpt lat="43.18815602960151" lon="12.906620214899306"><ele>677.3333333333333</ele><time>2026-05-02T12:53:39Z</time></trkpt><trkpt lat="43.18818664371959" lon="12.906749785737452"><ele>674.1666666666666</ele><time>2026-05-02T12:53:41Z</time></trkpt><trkpt lat="43.18822774522327" lon="12.906848962211171"><ele>671.0</ele><time>2026-05-02T12:53:43Z</time></trkpt><trkpt lat="43.188269379777786" lon="12.907002262295977"><ele>671.0</ele><time>2026-05-02T12:53:45.999Z</time></trkpt><trkpt lat="43.18830730663553" lon="12.907127614926296"><ele>671.0</ele><time>2026-05-02T12:53:47.999Z</time></trkpt><trkpt lat="43.18834548025557" lon="12.9072335858377"><ele>671.0</ele><time>2026-05-02T12:53:49.999Z</time></trkpt><trkpt lat="43.18838405006566" lon="12.907352251673053"><ele>671.0</ele><time>2026-05-02T12:53:51.999Z</time></trkpt><trkpt lat="43.18841503425753" lon="12.907454199741185"><ele>671.0</ele><time>2026-05-02T12:53:53.999Z</time></trkpt><trkpt lat="43.188421746464776" lon="12.907552679427502"><ele>671.0</ele><time>2026-05-02T12:53:55.999Z</time></trkpt><trkpt lat="43.188455062410064" lon="12.907655056089158"><ele>666.1999999999999</ele><time>2026-05-02T12:53:57.999Z</time></trkpt><trkpt lat="43.188483524025735" lon="12.907750552174772"><ele>661.4</ele><time>2026-05-02T12:53:59.999Z</time></trkpt><trkpt lat="43.18852369547936" lon="12.907869597855319"><ele>656.6</ele><time>2026-05-02T12:54:01.999Z</time></trkpt><trkpt lat="43.18855597694448" lon="12.907989691235743"><ele>651.8</ele><time>2026-05-02T12:54:03.999Z</time></trkpt><trkpt lat="43.18859939618934" lon="12.908134410759597"><ele>647.0</ele><time>2026-05-02T12:54:05.999Z</time></trkpt><trkpt lat="43.188641945962225" lon="12.908254954527957"><ele>647.0</ele><time>2026-05-02T12:54:07.999Z</time></trkpt><trkpt lat="43.18866875914263" lon="12.908372668969898"><ele>647.0</ele><time>2026-05-02T12:54:09.999Z</time></trkpt><trkpt lat="43.18870118971655" lon="12.908491523454137"><ele>647.0</ele><time>2026-05-02T12:54:11.999Z</time></trkpt><trkpt lat="43.18874097297914" lon="12.90857922280666"><ele>647.0</ele><time>2026-05-02T12:54:14.999Z</time></trkpt><trkpt lat="43.18877481479996" lon="12.908701665778759"><ele>647.0</ele><time>2026-05-02T12:54:17.999Z</time></trkpt><trkpt lat="43.188825289536965" lon="12.90878299840288"><ele>647.0</ele><time>2026-05-02T12:54:20.999Z</time></trkpt><trkpt lat="43.18875637265065" lon="12.908872514886504"><ele>642.3333333333333</ele><time>2026-05-02T12:54:23.999Z</time></trkpt><trkpt lat="43.18867958866758" lon="12.908865537924518"><ele>637.6666666666666</ele><time>2026-05-02T12:54:26.999Z</time></trkpt><trkpt lat="43.18858924606051" lon="12.908858245533679"><ele>633.0</ele><time>2026-05-02T12:54:29.999Z</time></trkpt><trkpt lat="43.18851367053706" lon="12.908817319832032"><ele>628.3333333333334</ele><time>2026-05-02T12:54:33.999Z</time></trkpt><trkpt lat="43.18850190416278" lon="12.90894213887045"><ele>623.6666666666667</ele><time>2026-05-02T12:54:38.999Z</time></trkpt><trkpt lat="43.18854018647185" lon="12.909053281692426"><ele>619.0</ele><time>2026-05-02T12:54:40.999Z</time></trkpt><trkpt lat="43.188552178842755" lon="12.909195816532334"><ele>614.0</ele><time>2026-05-02T12:54:42.999Z</time></trkpt><trkpt lat="43.18858787041326" lon="12.909313801186055"><ele>609.0</ele><time>2026-05-02T12:54:44.999Z</time></trkpt><trkpt lat="43.18860782906558" lon="12.909407290145126"><ele>604.0</ele><time>2026-05-02T12:54:45.999Z</time></trkpt><trkpt lat="43.18863875226842" lon="12.909538124872336"><ele>599.0</ele><time>2026-05-02T12:54:48Z</time></trkpt><trkpt lat="43.18866502208104" lon="12.909618770395458"><ele>594.0</ele><time>2026-05-02T12:54:50Z</time></trkpt><trkpt lat="43.18860492261697" lon="12.909670530203742"><ele>589.0</ele><time>2026-05-02T12:54:54Z</time></trkpt><trkpt lat="43.18853261898523" lon="12.909677558669207"><ele>589.0</ele><time>2026-05-02T12:54:57Z</time></trkpt><trkpt lat="43.18844488621031" lon="12.90964807657568"><ele>589.0</ele><time>2026-05-02T12:55:00Z</time></trkpt><trkpt lat="43.18836104087832" lon="12.909600937889142"><ele>589.0</ele><time>2026-05-02T12:55:03Z</time></trkpt><trkpt lat="43.18828291756478" lon="12.909558195861594"><ele>589.0</ele><time>2026-05-02T12:55:05Z</time></trkpt><trkpt lat="43.18822205610499" lon="12.90951058287781"><ele>589.0</ele><time>2026-05-02T12:55:07Z</time></trkpt><trkpt lat="43.18811372008606" lon="12.909450327405503"><ele>582.0</ele><time>2026-05-02T12:55:09Z</time></trkpt><trkpt lat="43.188050157877605" lon="12.909370909500566"><ele>575.0</ele><time>2026-05-02T12:55:11Z</time></trkpt><trkpt lat="43.18798711166801" lon="12.909300306154803"><ele>568.0</ele><time>2026-05-02T12:55:14Z</time></trkpt><trkpt lat="43.18796084156615" lon="12.9093812820346"><ele>561.0</ele><time>2026-05-02T12:55:18Z</time></trkpt><trkpt lat="43.18797211300011" lon="12.909497705071226"><ele>554.0</ele><time>2026-05-02T12:55:22Z</time></trkpt><trkpt lat="43.18794982704614" lon="12.909587321996234"><ele>547.0</ele><time>2026-05-02T12:55:31Z</time></trkpt><trkpt lat="43.18795110629041" lon="12.909676495724868"><ele>547.0</ele><time>2026-05-02T12:55:42Z</time></trkpt><trkpt lat="43.18795533437297" lon="12.909766967620163"><ele>547.0</ele><time>2026-05-02T12:55:45Z</time></trkpt><trkpt lat="43.187973153360325" lon="12.909905078807169"><ele>547.0</ele><time>2026-05-02T12:55:48Z</time></trkpt><trkpt lat="43.18799529874817" lon="12.910037224044517"><ele>547.0</ele><time>2026-05-02T12:55:51Z</time></trkpt><trkpt lat="43.18799816301637" lon="12.910132937730673"><ele>547.0</ele><time>2026-05-02T12:55:53Z</time></trkpt><trkpt lat="43.18800566921513" lon="12.910232536272243"><ele>547.0</ele><time>2026-05-02T12:55:55Z</time></trkpt><trkpt lat="43.188020504576365" lon="12.910327836254067"><ele>543.0</ele><time>2026-05-02T12:55:56.999Z</time></trkpt><trkpt lat="43.18804147144027" lon="12.910431895457423"><ele>539.0</ele><time>2026-05-02T12:55:58.999Z</time></trkpt><trkpt lat="43.18805394826279" lon="12.910545768755732"><ele>535.0</ele><time>2026-05-02T12:56:01.999Z</time></trkpt><trkpt lat="43.188074224130844" lon="12.91065942276584"><ele>531.0</ele><time>2026-05-02T12:56:04.999Z</time></trkpt><trkpt lat="43.18810958241452" lon="12.910759747542455"><ele>527.0</ele><time>2026-05-02T12:56:06.999Z</time></trkpt><trkpt lat="43.18812794522311" lon="12.910853483069634"><ele>523.0</ele><time>2026-05-02T12:56:08.999Z</time></trkpt><trkpt lat="43.18817769202222" lon="12.910929505860375"><ele>522.9999999999999</ele><time>2026-05-02T12:56:10.999Z</time></trkpt><trkpt lat="43.18821481786645" lon="12.911019686405725"><ele>523.0</ele><time>2026-05-02T12:56:12.999Z</time></trkpt><trkpt lat="43.18825475668753" lon="12.911092297759101"><ele>523.0</ele><time>2026-05-02T12:56:14.999Z</time></trkpt><trkpt lat="43.18829722499382" lon="12.911167416869532"><ele>523.0</ele><time>2026-05-02T12:56:19.999Z</time></trkpt><trkpt lat="43.18831689040983" lon="12.911254553995414"><ele>523.0</ele><time>2026-05-02T12:56:33.999Z</time></trkpt><trkpt lat="43.18827682011601" lon="12.911328364674475"><ele>522.9999999999999</ele><time>2026-05-02T12:56:54Z</time></trkpt><trkpt lat="43.18820094928805" lon="12.91131751501718"><ele>523.0</ele><time>2026-05-02T12:56:58Z</time></trkpt><trkpt lat="43.188130175491644" lon="12.911319265370754"><ele>522.6666666666667</ele><time>2026-05-02T12:57:03Z</time></trkpt><trkpt lat="43.18806609183505" lon="12.911295653476397"><ele>522.3333333333334</ele><time>2026-05-02T12:57:21Z</time></trkpt><trkpt lat="43.188011470518" lon="12.911245776116457"><ele>522.0</ele><time>2026-05-02T12:57:24Z</time></trkpt><trkpt lat="43.187937381000836" lon="12.911159868194066"><ele>521.6666666666666</ele><time>2026-05-02T12:57:27Z</time></trkpt><trkpt lat="43.18788092615611" lon="12.911069741118041"><ele>521.3333333333333</ele><time>2026-05-02T12:57:29Z</time></trkpt><trkpt lat="43.18785661524359" lon="12.91096138054571"><ele>521.0</ele><time>2026-05-02T12:57:31Z</time></trkpt><trkpt lat="43.18781371894736" lon="12.91082107390286"><ele>521.0</ele><time>2026-05-02T12:57:33Z</time></trkpt><trkpt lat="43.18775942302888" lon="12.910717477786292"><ele>521.0</ele><time>2026-05-02T12:57:35Z</time></trkpt><trkpt lat="43.18771315009375" lon="12.910639888987918"><ele>521.0</ele><time>2026-05-02T12:57:37Z</time></trkpt><trkpt lat="43.18764647589867" lon="12.910510849875122"><ele>521.0</ele><time>2026-05-02T12:57:39Z</time></trkpt><trkpt lat="43.187590769067434" lon="12.910352130995163"><ele>521.0</ele><time>2026-05-02T12:57:41Z</time></trkpt><trkpt lat="43.18755192712155" lon="12.910268667846898"><ele>521.0</ele><time>2026-05-02T12:57:42Z</time></trkpt><trkpt lat="43.18748514116319" lon="12.910143393258172"><ele>521.0</ele><time>2026-05-02T12:57:44Z</time></trkpt><trkpt lat="43.18744147207625" lon="12.910071111347987"><ele>521.0</ele><time>2026-05-02T12:57:45Z</time></trkpt><trkpt lat="43.18741020765488" lon="12.909947729035745"><ele>521.0</ele><time>2026-05-02T12:57:47Z</time></trkpt><trkpt lat="43.18738138133931" lon="12.909842785039983"><ele>521.0</ele><time>2026-05-02T12:57:49Z</time></trkpt><trkpt lat="43.18730757876714" lon="12.909780334958908"><ele>521.0</ele><time>2026-05-02T12:57:51Z</time></trkpt><trkpt lat="43.18725959103768" lon="12.909668023054774"><ele>521.6</ele><time>2026-05-02T12:57:53Z</time></trkpt><trkpt lat="43.187213963037635" lon="12.909602586750202"><ele>522.2</ele><time>2026-05-02T12:57:54Z</time></trkpt><trkpt lat="43.18712536625312" lon="12.909533901026906"><ele>522.8</ele><time>2026-05-02T12:57:56Z</time></trkpt><trkpt lat="43.18703363730317" lon="12.90945302420988"><ele>523.4</ele><time>2026-05-02T12:57:58Z</time></trkpt><trkpt lat="43.18698749739384" lon="12.909345393702424"><ele>524.0</ele><time>2026-05-02T12:58:00Z</time></trkpt><trkpt lat="43.18695824145859" lon="12.909231906456448"><ele>524.0</ele><time>2026-05-02T12:58:02Z</time></trkpt><trkpt lat="43.186920028362245" lon="12.909134543664084"><ele>524.0</ele><time>2026-05-02T12:58:05Z</time></trkpt><trkpt lat="43.18686574460344" lon="12.909045905126701"><ele>524.0</ele><time>2026-05-02T12:58:08Z</time></trkpt><trkpt lat="43.186797360803915" lon="12.908996257637867"><ele>524.0</ele><time>2026-05-02T12:58:09.999Z</time></trkpt><trkpt lat="43.186739300393015" lon="12.908910647375562"><ele>524.0</ele><time>2026-05-02T12:58:11.999Z</time></trkpt><trkpt lat="43.18668186261455" lon="12.908823284397126"><ele>524.0</ele><time>2026-05-02T12:58:13.999Z</time></trkpt><trkpt lat="43.18661196005363" lon="12.908776079717653"><ele>524.0</ele><time>2026-05-02T12:58:16.999Z</time></trkpt><trkpt lat="43.1865405733283" lon="12.908713370064312"><ele>524.0</ele><time>2026-05-02T12:58:18.999Z</time></trkpt><trkpt lat="43.18645870938738" lon="12.908652001013866"><ele>524.0</ele><time>2026-05-02T12:58:20.999Z</time></trkpt><trkpt lat="43.18648480431968" lon="12.908757737273177"><ele>524.0</ele><time>2026-05-02T12:58:30.999Z</time></trkpt><trkpt lat="43.18653179580934" lon="12.908876513923296"><ele>524.0</ele><time>2026-05-02T12:58:33.999Z</time></trkpt><trkpt lat="43.18657000545562" lon="12.908978379144786"><ele>524.0</ele><time>2026-05-02T12:58:35.999Z</time></trkpt><trkpt lat="43.18659037561777" lon="12.909090291659744"><ele>524.0</ele><time>2026-05-02T12:58:37.999Z</time></trkpt><trkpt lat="43.18660596821553" lon="12.909218073842727"><ele>524.0</ele><time>2026-05-02T12:58:40.999Z</time></trkpt><trkpt lat="43.18663751236268" lon="12.909315784011255"><ele>524.0</ele><time>2026-05-02T12:58:43.999Z</time></trkpt><trkpt lat="43.18665201041543" lon="12.909403126654471"><ele>524.0</ele><time>2026-05-02T12:58:45.999Z</time></trkpt><trkpt lat="43.1866555607115" lon="12.909492695170028"><ele>524.0</ele><time>2026-05-02T12:58:47.999Z</time></trkpt><trkpt lat="43.186674222868405" lon="12.909589540515194"><ele>524.0</ele><time>2026-05-02T12:58:54.999Z</time></trkpt><trkpt lat="43.18671809702631" lon="12.909697605441991"><ele>522.5</ele><time>2026-05-02T12:58:57.999Z</time></trkpt><trkpt lat="43.18676321616016" lon="12.909792768443461"><ele>521.0</ele><time>2026-05-02T12:59:00Z</time></trkpt><trkpt lat="43.186825520814004" lon="12.909886442500719"><ele>519.5</ele><time>2026-05-02T12:59:02Z</time></trkpt><trkpt lat="43.18689161259952" lon="12.909980715369006"><ele>518.0</ele><time>2026-05-02T12:59:04Z</time></trkpt><trkpt lat="43.1869609984703" lon="12.91008186737224"><ele>516.5</ele><time>2026-05-02T12:59:06Z</time></trkpt><trkpt lat="43.1869862052197" lon="12.910176508233393"><ele>515.0</ele><time>2026-05-02T12:59:08Z</time></trkpt><trkpt lat="43.18700161984658" lon="12.910307329356455"><ele>514.6666666666666</ele><time>2026-05-02T12:59:10Z</time></trkpt><trkpt lat="43.18702312884076" lon="12.910413655555113"><ele>514.3333333333333</ele><time>2026-05-02T12:59:12Z</time></trkpt><trkpt lat="43.187026546922304" lon="12.910510044283322"><ele>514.0</ele><time>2026-05-02T12:59:14Z</time></trkpt><trkpt lat="43.18703244085815" lon="12.910633979139797"><ele>513.6666666666666</ele><time>2026-05-02T12:59:17Z</time></trkpt><trkpt lat="43.18703522634621" lon="12.91073161973466"><ele>513.3333333333334</ele><time>2026-05-02T12:59:19Z</time></trkpt><trkpt lat="43.18703982351796" lon="12.910838078246933"><ele>513.0</ele><time>2026-05-02T12:59:21Z</time></trkpt><trkpt lat="43.18708358807557" lon="12.910912886291586"><ele>512.6</ele><time>2026-05-02T12:59:23Z</time></trkpt><trkpt lat="43.18711980915632" lon="12.91098597065022"><ele>512.1999999999999</ele><time>2026-05-02T12:59:24Z</time></trkpt><trkpt lat="43.1871566217284" lon="12.911112152252226"><ele>511.8</ele><time>2026-05-02T12:59:26Z</time></trkpt><trkpt lat="43.187165775647856" lon="12.911244976833718"><ele>511.4</ele><time>2026-05-02T12:59:28Z</time></trkpt><trkpt lat="43.18716114550779" lon="12.91136958958177"><ele>511.0</ele><time>2026-05-02T12:59:30Z</time></trkpt><trkpt lat="43.18715343423191" lon="12.911532731900127"><ele>511.0</ele><time>2026-05-02T12:59:32Z</time></trkpt><trkpt lat="43.18714015532995" lon="12.911642641797563"><ele>511.0</ele><time>2026-05-02T12:59:34Z</time></trkpt><trkpt lat="43.18720353247374" lon="12.911770996591322"><ele>511.0</ele><time>2026-05-02T12:59:36Z</time></trkpt><trkpt lat="43.187250026585545" lon="12.91187296831434"><ele>511.0</ele><time>2026-05-02T12:59:38Z</time></trkpt><trkpt lat="43.18728827682051" lon="12.912001473753056"><ele>511.0</ele><time>2026-05-02T12:59:40Z</time></trkpt><trkpt lat="43.18732302139171" lon="12.912107269559815"><ele>503.6</ele><time>2026-05-02T12:59:42Z</time></trkpt><trkpt lat="43.1873457239621" lon="12.912212350000335"><ele>496.20000000000005</ele><time>2026-05-02T12:59:44Z</time></trkpt><trkpt lat="43.18736706390911" lon="12.912304910262936"><ele>488.79999999999995</ele><time>2026-05-02T12:59:46Z</time></trkpt><trkpt lat="43.18741910218309" lon="12.91239468464055"><ele>481.4</ele><time>2026-05-02T12:59:48Z</time></trkpt><trkpt lat="43.187488811707645" lon="12.912567314502132"><ele>474.0</ele><time>2026-05-02T12:59:50Z</time></trkpt><trkpt lat="43.187530836822035" lon="12.912649364263261"><ele>472.5</ele><time>2026-05-02T12:59:51Z</time></trkpt><trkpt lat="43.187578369265474" lon="12.912714671580288"><ele>471.0</ele><time>2026-05-02T12:59:52Z</time></trkpt><trkpt lat="43.18761774296458" lon="12.91278354368728"><ele>469.5</ele><time>2026-05-02T12:59:53Z</time></trkpt><trkpt lat="43.187677388232856" lon="12.912890204445588"><ele>468.0</ele><time>2026-05-02T12:59:55Z</time></trkpt><trkpt lat="43.1877530398307" lon="12.912980223381707"><ele>466.5</ele><time>2026-05-02T12:59:57Z</time></trkpt><trkpt lat="43.18784387118375" lon="12.91303910972191"><ele>465.0</ele><time>2026-05-02T12:59:59Z</time></trkpt><trkpt lat="43.18789116154701" lon="12.913096106349938"><ele>465.0</ele><time>2026-05-02T13:00:01Z</time></trkpt><trkpt lat="43.18786932572543" lon="12.913190867760008"><ele>465.0</ele><time>2026-05-02T13:00:05Z</time></trkpt><trkpt lat="43.187929485731765" lon="12.913242768559414"><ele>465.0</ele><time>2026-05-02T13:00:10Z</time></trkpt><trkpt lat="43.1879136599011" lon="12.913145081509834"><ele>465.0</ele><time>2026-05-02T13:00:14Z</time></trkpt><trkpt lat="43.18786224899959" lon="12.913076270307382"><ele>465.0</ele><time>2026-05-02T13:00:18Z</time></trkpt><trkpt lat="43.18780605615878" lon="12.913033671882397"><ele>465.0</ele><time>2026-05-02T13:00:20Z</time></trkpt><trkpt lat="43.18774467385071" lon="12.912983859980306"><ele>465.0</ele><time>2026-05-02T13:00:21.999Z</time></trkpt><trkpt lat="43.18765730108691" lon="12.91301088180956"><ele>465.0</ele><time>2026-05-02T13:00:25.999Z</time></trkpt><trkpt lat="43.18761161822312" lon="12.913073519942818"><ele>465.0</ele><time>2026-05-02T13:00:28.999Z</time></trkpt><trkpt lat="43.18767110547822" lon="12.913019305042177"><ele>465.0</ele><time>2026-05-02T13:00:35.999Z</time></trkpt><trkpt lat="43.187741730559004" lon="12.912990652883014"><ele>465.0</ele><time>2026-05-02T13:00:38.999Z</time></trkpt><trkpt lat="43.187826878928874" lon="12.913062433953584"><ele>465.0</ele><time>2026-05-02T13:00:41.999Z</time></trkpt><trkpt lat="43.18789011582646" lon="12.913062861284102"><ele>465.0</ele><time>2026-05-02T13:00:45.999Z</time></trkpt><trkpt lat="43.18797428537304" lon="12.912985822099564"><ele>465.0</ele><time>2026-05-02T13:01:10Z</time></trkpt><trkpt lat="43.188032676570295" lon="12.912914622400812"><ele>465.0</ele><time>2026-05-02T13:01:12Z</time></trkpt><trkpt lat="43.188088543986595" lon="12.912854674993149"><ele>465.0</ele><time>2026-05-02T13:01:14Z</time></trkpt><trkpt lat="43.18815904156237" lon="12.91279524171623"><ele>465.0</ele><time>2026-05-02T13:01:16Z</time></trkpt><trkpt lat="43.18826974690895" lon="12.912733217927494"><ele>465.0</ele><time>2026-05-02T13:01:18Z</time></trkpt><trkpt lat="43.18834409027749" lon="12.912703475565856"><ele>465.0</ele><time>2026-05-02T13:01:19Z</time></trkpt><trkpt lat="43.1884170683383" lon="12.912676390335342"><ele>464.5</ele><time>2026-05-02T13:01:20Z</time></trkpt><trkpt lat="43.18848785256322" lon="12.912646447798068"><ele>464.0</ele><time>2026-05-02T13:01:21Z</time></trkpt><trkpt lat="43.18856651570884" lon="12.91262261594351"><ele>463.5</ele><time>2026-05-02T13:01:22Z</time></trkpt><trkpt lat="43.18865549831795" lon="12.91261814135426"><ele>463.0</ele><time>2026-05-02T13:01:23Z</time></trkpt><trkpt lat="43.1887416088155" lon="12.91261738988968"><ele>462.5</ele><time>2026-05-02T13:01:24Z</time></trkpt><trkpt lat="43.18881881208426" lon="12.91261975036798"><ele>462.0</ele><time>2026-05-02T13:01:25Z</time></trkpt><trkpt lat="43.18889807094598" lon="12.912643425737773"><ele>462.0</ele><time>2026-05-02T13:01:26Z</time></trkpt><trkpt lat="43.18897373443829" lon="12.912686000456839"><ele>462.0</ele><time>2026-05-02T13:01:27Z</time></trkpt><trkpt lat="43.18905748889507" lon="12.912746523667415"><ele>462.0</ele><time>2026-05-02T13:01:28Z</time></trkpt><trkpt lat="43.189130146760114" lon="12.912790063828396"><ele>462.0</ele><time>2026-05-02T13:01:29Z</time></trkpt><trkpt lat="43.18920617591245" lon="12.912839800935105"><ele>462.0</ele><time>2026-05-02T13:01:30Z</time></trkpt><trkpt lat="43.189278387346185" lon="12.912864292559616"><ele>462.0</ele><time>2026-05-02T13:01:31Z</time></trkpt><trkpt lat="43.18935471285192" lon="12.912870185690073"><ele>461.6</ele><time>2026-05-02T13:01:32Z</time></trkpt><trkpt lat="43.18942886455641" lon="12.912866206057679"><ele>461.20000000000005</ele><time>2026-05-02T13:01:33Z</time></trkpt><trkpt lat="43.18949553509411" lon="12.912866940158105"><ele>460.8</ele><time>2026-05-02T13:01:34Z</time></trkpt><trkpt lat="43.18960046549702" lon="12.912943056616745"><ele>460.4</ele><time>2026-05-02T13:01:36Z</time></trkpt><trkpt lat="43.189696016552205" lon="12.912935686670295"><ele>460.0</ele><time>2026-05-02T13:01:38Z</time></trkpt><trkpt lat="43.18977826995164" lon="12.912810720525878"><ele>460.6</ele><time>2026-05-02T13:01:40Z</time></trkpt><trkpt lat="43.18986395795737" lon="12.912716884589866"><ele>461.2</ele><time>2026-05-02T13:01:42Z</time></trkpt><trkpt lat="43.18998334487454" lon="12.912654136469426"><ele>461.79999999999995</ele><time>2026-05-02T13:01:44Z</time></trkpt><trkpt lat="43.19004951110451" lon="12.912610848419465"><ele>462.4</ele><time>2026-05-02T13:01:45Z</time></trkpt><trkpt lat="43.19010888462904" lon="12.912563029349224"><ele>463.0</ele><time>2026-05-02T13:01:46Z</time></trkpt><trkpt lat="43.190174359082114" lon="12.912512154864197"><ele>464.1666666666667</ele><time>2026-05-02T13:01:47Z</time></trkpt><trkpt lat="43.19023649664121" lon="12.912465475918854"><ele>465.33333333333337</ele><time>2026-05-02T13:01:48Z</time></trkpt><trkpt lat="43.190323488279226" lon="12.912426569776787"><ele>466.5</ele><time>2026-05-02T13:01:50Z</time></trkpt><trkpt lat="43.19039579149297" lon="12.912472254923376"><ele>467.66666666666663</ele><time>2026-05-02T13:01:52Z</time></trkpt><trkpt lat="43.190482413533445" lon="12.912544587858813"><ele>468.8333333333333</ele><time>2026-05-02T13:01:54Z</time></trkpt><trkpt lat="43.19055887217606" lon="12.912525792704859"><ele>470.0</ele><time>2026-05-02T13:01:56Z</time></trkpt><trkpt lat="43.19061185106438" lon="12.912439294683816"><ele>470.0</ele><time>2026-05-02T13:01:58Z</time></trkpt><trkpt lat="43.19066670414715" lon="12.91235788736233"><ele>469.99999999999994</ele><time>2026-05-02T13:02:01Z</time></trkpt><trkpt lat="43.190647693558965" lon="12.912451666005012"><ele>470.0</ele><time>2026-05-02T13:02:04Z</time></trkpt><trkpt lat="43.19061289648569" lon="12.912376618712111"><ele>470.0</ele><time>2026-05-02T13:02:26Z</time></trkpt><trkpt lat="43.190558722165655" lon="12.912331500439812"><ele>469.99999999999994</ele><time>2026-05-02T13:04:06Z</time></trkpt><trkpt lat="43.19050105686817" lon="12.912372448372993"><ele>470.0</ele><time>2026-05-02T13:04:24Z</time></trkpt><trkpt lat="43.19056973769783" lon="12.912389655038632"><ele>470.0</ele><time>2026-05-02T13:06:09Z</time></trkpt><trkpt lat="43.19055487707495" lon="12.912491010119652"><ele>470.0</ele><time>2026-05-02T13:09:53.999Z</time></trkpt><trkpt lat="43.190574539011926" lon="12.912406474096704"><ele>469.99999999999994</ele><time>2026-05-02T13:13:14.999Z</time></trkpt><trkpt lat="43.190552857842405" lon="12.912489894427116"><ele>470.0</ele><time>2026-05-02T13:33:34Z</time></trkpt><trkpt lat="43.190524702894116" lon="12.912410297034615"><ele>470.0</ele><time>2026-05-02T13:41:36.999Z</time></trkpt><trkpt lat="43.19060906045228" lon="12.912358672146965"><ele>469.99999999999994</ele><time>2026-05-02T13:45:01.999Z</time></trkpt><trkpt lat="43.19063891898651" lon="12.912446006748922"><ele>470.0</ele><time>2026-05-02T13:50:03Z</time></trkpt><trkpt lat="43.19057423504487" lon="12.912467022698797"><ele>470.0</ele><time>2026-05-02T13:50:05.999Z</time></trkpt><trkpt lat="43.19063520678434" lon="12.912391205530225"><ele>468.8333333333333</ele><time>2026-05-02T13:50:47.999Z</time></trkpt><trkpt lat="43.19068511537126" lon="12.912321976491885"><ele>467.66666666666663</ele><time>2026-05-02T13:50:49.999Z</time></trkpt><trkpt lat="43.19074591099843" lon="12.912224881348138"><ele>466.5</ele><time>2026-05-02T13:50:52.999Z</time></trkpt><trkpt lat="43.190799033970194" lon="12.912144210632972"><ele>465.33333333333337</ele><time>2026-05-02T13:50:54.999Z</time></trkpt><trkpt lat="43.190847516117664" lon="12.91207864428833"><ele>464.1666666666667</ele><time>2026-05-02T13:50:56.999Z</time></trkpt><trkpt lat="43.19089758279164" lon="12.911998433111675"><ele>463.0</ele><time>2026-05-02T13:50:58.999Z</time></trkpt><trkpt lat="43.19094048471357" lon="12.911849791474792"><ele>463.6666666666667</ele><time>2026-05-02T13:51:00.999Z</time></trkpt><trkpt lat="43.1910354734988" lon="12.911732563541156"><ele>464.33333333333337</ele><time>2026-05-02T13:51:02.999Z</time></trkpt><trkpt lat="43.191112416686025" lon="12.911707100261605"><ele>465.0</ele><time>2026-05-02T13:51:03.999Z</time></trkpt><trkpt lat="43.19115526334901" lon="12.911616085185969"><ele>465.66666666666663</ele><time>2026-05-02T13:51:04.999Z</time></trkpt><trkpt lat="43.19119336052467" lon="12.911543787904828"><ele>466.3333333333333</ele><time>2026-05-02T13:51:05.999Z</time></trkpt><trkpt lat="43.191229363559295" lon="12.91144624395824"><ele>467.0</ele><time>2026-05-02T13:51:06.999Z</time></trkpt><trkpt lat="43.19127212103273" lon="12.911361742737146"><ele>466.99999999999994</ele><time>2026-05-02T13:51:07.999Z</time></trkpt><trkpt lat="43.191321642187084" lon="12.911270633756116"><ele>467.0</ele><time>2026-05-02T13:51:08.999Z</time></trkpt><trkpt lat="43.19137334656408" lon="12.911181996203164"><ele>467.0</ele><time>2026-05-02T13:51:09.999Z</time></trkpt><trkpt lat="43.191431695496604" lon="12.91108391979041"><ele>467.0</ele><time>2026-05-02T13:51:10.999Z</time></trkpt><trkpt lat="43.191486243633285" lon="12.910994762070326"><ele>466.99999999999994</ele><time>2026-05-02T13:51:11.999Z</time></trkpt><trkpt lat="43.191555151614814" lon="12.910919885479412"><ele>467.0</ele><time>2026-05-02T13:51:12.999Z</time></trkpt><trkpt lat="43.19161105604039" lon="12.910828693046401"><ele>467.6</ele><time>2026-05-02T13:51:13.999Z</time></trkpt><trkpt lat="43.191648034344" lon="12.910721657301035"><ele>468.20000000000005</ele><time>2026-05-02T13:51:14.999Z</time></trkpt><trkpt lat="43.191701135617905" lon="12.910629148571218"><ele>468.8</ele><time>2026-05-02T13:51:15.999Z</time></trkpt><trkpt lat="43.19168471664041" lon="12.91051180583037"><ele>469.4</ele><time>2026-05-02T13:51:16.999Z</time></trkpt><trkpt lat="43.19171272719851" lon="12.910371050538567"><ele>470.0</ele><time>2026-05-02T13:51:18.999Z</time></trkpt><trkpt lat="43.191754294809854" lon="12.910223423139342"><ele>470.0</ele><time>2026-05-02T13:51:20.999Z</time></trkpt><trkpt lat="43.19203200443955" lon="12.910221678585813"><ele>470.0</ele><time>2026-05-02T13:51:21.999Z</time></trkpt><trkpt lat="43.19209729420758" lon="12.910123329814612"><ele>470.0</ele><time>2026-05-02T13:51:22.999Z</time></trkpt><trkpt lat="43.19216292945641" lon="12.910033401848652"><ele>469.49999999999994</ele><time>2026-05-02T13:51:23.999Z</time></trkpt><trkpt lat="43.19222832291596" lon="12.909953643337312"><ele>469.0</ele><time>2026-05-02T13:51:24.999Z</time></trkpt><trkpt lat="43.19229527838193" lon="12.909871485173543"><ele>468.5</ele><time>2026-05-02T13:51:26Z</time></trkpt><trkpt lat="43.19236448745175" lon="12.909791054401039"><ele>468.0</ele><time>2026-05-02T13:51:27Z</time></trkpt><trkpt lat="43.19242878558294" lon="12.909707015244424"><ele>467.49999999999994</ele><time>2026-05-02T13:51:28Z</time></trkpt><trkpt lat="43.19248565255425" lon="12.90961817194358"><ele>467.0</ele><time>2026-05-02T13:51:29Z</time></trkpt><trkpt lat="43.192579354574306" lon="12.909513367883653"><ele>467.0</ele><time>2026-05-02T13:51:30Z</time></trkpt><trkpt lat="43.19264851544845" lon="12.9094205408698"><ele>467.00000000000006</ele><time>2026-05-02T13:51:31Z</time></trkpt><trkpt lat="43.192715822907594" lon="12.909333289203888"><ele>467.00000000000006</ele><time>2026-05-02T13:51:32Z</time></trkpt><trkpt lat="43.192784872900035" lon="12.909240243560935"><ele>467.0</ele><time>2026-05-02T13:51:33Z</time></trkpt><trkpt lat="43.19285610110965" lon="12.909136844019962"><ele>467.0</ele><time>2026-05-02T13:51:34Z</time></trkpt><trkpt lat="43.19292747605989" lon="12.909018676072819"><ele>466.20000000000005</ele><time>2026-05-02T13:51:35Z</time></trkpt><trkpt lat="43.192995530239216" lon="12.908900333450525"><ele>465.40000000000003</ele><time>2026-05-02T13:51:36Z</time></trkpt><trkpt lat="43.193049960033235" lon="12.908787475188165"><ele>464.59999999999997</ele><time>2026-05-02T13:51:37Z</time></trkpt><trkpt lat="43.193103997795404" lon="12.908665123646701"><ele>463.79999999999995</ele><time>2026-05-02T13:51:38Z</time></trkpt><trkpt lat="43.1931539831655" lon="12.90855444547532"><ele>463.0</ele><time>2026-05-02T13:51:39Z</time></trkpt><trkpt lat="43.193210809179874" lon="12.908453740480782"><ele>463.79999999999995</ele><time>2026-05-02T13:51:40Z</time></trkpt><trkpt lat="43.19327415304561" lon="12.908359182623466"><ele>464.59999999999997</ele><time>2026-05-02T13:51:41Z</time></trkpt><trkpt lat="43.19333128213549" lon="12.908275264905702"><ele>465.40000000000003</ele><time>2026-05-02T13:51:42Z</time></trkpt><trkpt lat="43.19337906676905" lon="12.908195505212134"><ele>466.20000000000005</ele><time>2026-05-02T13:51:43Z</time></trkpt><trkpt lat="43.193428782003465" lon="12.908065194680093"><ele>467.0</ele><time>2026-05-02T13:51:45Z</time></trkpt><trkpt lat="43.19345279780869" lon="12.90790340488312"><ele>466.99999999999994</ele><time>2026-05-02T13:51:47Z</time></trkpt><trkpt lat="43.19346551543033" lon="12.907759209687505"><ele>467.0</ele><time>2026-05-02T13:51:49Z</time></trkpt><trkpt lat="43.19347262933264" lon="12.907603280049837"><ele>467.0</ele><time>2026-05-02T13:51:51Z</time></trkpt><trkpt lat="43.193482156877195" lon="12.907513269502916"><ele>467.0</ele><time>2026-05-02T13:51:52Z</time></trkpt><trkpt lat="43.19349161080571" lon="12.907412592999568"><ele>466.99999999999994</ele><time>2026-05-02T13:51:53Z</time></trkpt><trkpt lat="43.19348773258471" lon="12.907310057504615"><ele>467.0</ele><time>2026-05-02T13:51:54Z</time></trkpt><trkpt lat="43.19347492781294" lon="12.907204131736357"><ele>468.16666666666663</ele><time>2026-05-02T13:51:55Z</time></trkpt><trkpt lat="43.19346168302379" lon="12.90711384403191"><ele>469.3333333333333</ele><time>2026-05-02T13:51:56Z</time></trkpt><trkpt lat="43.19345874728704" lon="12.907010943502112"><ele>470.5</ele><time>2026-05-02T13:51:57Z</time></trkpt><trkpt lat="43.19345055088356" lon="12.906889427543607"><ele>471.66666666666663</ele><time>2026-05-02T13:51:58Z</time></trkpt><trkpt lat="43.193431905749975" lon="12.906776003709576"><ele>472.8333333333333</ele><time>2026-05-02T13:51:59Z</time></trkpt><trkpt lat="43.1934171042967" lon="12.90665997078707"><ele>474.0</ele><time>2026-05-02T13:52:00Z</time></trkpt><trkpt lat="43.193420064624476" lon="12.906535096778136"><ele>474.2</ele><time>2026-05-02T13:52:01Z</time></trkpt><trkpt lat="43.19342954462422" lon="12.906402481094448"><ele>474.4</ele><time>2026-05-02T13:52:02Z</time></trkpt><trkpt lat="43.193416414095694" lon="12.906288991715222"><ele>474.6</ele><time>2026-05-02T13:52:03Z</time></trkpt><trkpt lat="43.19340983764972" lon="12.906187823037492"><ele>474.8</ele><time>2026-05-02T13:52:04Z</time></trkpt><trkpt lat="43.19341865341057" lon="12.906098616659433"><ele>475.0</ele><time>2026-05-02T13:52:05Z</time></trkpt><trkpt lat="43.19342590552999" lon="12.90591054226521"><ele>474.33333333333337</ele><time>2026-05-02T13:52:07Z</time></trkpt><trkpt lat="43.1934305083333" lon="12.905789685345406"><ele>473.6666666666667</ele><time>2026-05-02T13:52:08Z</time></trkpt><trkpt lat="43.19345088934815" lon="12.905667640154714"><ele>473.0</ele><time>2026-05-02T13:52:08.999Z</time></trkpt><trkpt lat="43.1934740682758" lon="12.905558708657043"><ele>472.33333333333337</ele><time>2026-05-02T13:52:09.999Z</time></trkpt><trkpt lat="43.19349998004856" lon="12.905449370034944"><ele>471.6666666666667</ele><time>2026-05-02T13:52:10.999Z</time></trkpt><trkpt lat="43.19351688346798" lon="12.90532937818272"><ele>471.0</ele><time>2026-05-02T13:52:11.999Z</time></trkpt><trkpt lat="43.1935314938947" lon="12.905197150482685"><ele>470.6</ele><time>2026-05-02T13:52:12.999Z</time></trkpt><trkpt lat="43.193560138683736" lon="12.905074579321631"><ele>470.20000000000005</ele><time>2026-05-02T13:52:13.999Z</time></trkpt><trkpt lat="43.1935935216661" lon="12.904943426371906"><ele>469.79999999999995</ele><time>2026-05-02T13:52:14.999Z</time></trkpt><trkpt lat="43.19362644777057" lon="12.904821502509055"><ele>469.4</ele><time>2026-05-02T13:52:15.999Z</time></trkpt><trkpt lat="43.19365775849" lon="12.904700928863763"><ele>469.0</ele><time>2026-05-02T13:52:16.999Z</time></trkpt><trkpt lat="43.19368340319369" lon="12.904575689593564"><ele>469.0</ele><time>2026-05-02T13:52:17.999Z</time></trkpt><trkpt lat="43.193711763099586" lon="12.904454876995283"><ele>469.0</ele><time>2026-05-02T13:52:18.999Z</time></trkpt><trkpt lat="43.193741709991954" lon="12.904324287975369"><ele>469.0</ele><time>2026-05-02T13:52:19.999Z</time></trkpt><trkpt lat="43.19377139370803" lon="12.90420704792311"><ele>469.0</ele><time>2026-05-02T13:52:20.999Z</time></trkpt><trkpt lat="43.19380402536744" lon="12.904080984825843"><ele>469.0</ele><time>2026-05-02T13:52:21.999Z</time></trkpt><trkpt lat="43.19383470985455" lon="12.903952292387109"><ele>469.0</ele><time>2026-05-02T13:52:22.999Z</time></trkpt><trkpt lat="43.193868342083746" lon="12.903819554260894"><ele>469.0</ele><time>2026-05-02T13:52:23.999Z</time></trkpt><trkpt lat="43.19390511466776" lon="12.903693215511991"><ele>469.0</ele><time>2026-05-02T13:52:24.999Z</time></trkpt><trkpt lat="43.193942906640444" lon="12.90358436125975"><ele>469.0</ele><time>2026-05-02T13:52:25.999Z</time></trkpt><trkpt lat="43.193981850977046" lon="12.903469148535756"><ele>469.0</ele><time>2026-05-02T13:52:26.999Z</time></trkpt><trkpt lat="43.194019431737395" lon="12.90335415135061"><ele>469.0</ele><time>2026-05-02T13:52:27.999Z</time></trkpt><trkpt lat="43.19405894988832" lon="12.90323313873011"><ele>469.0</ele><time>2026-05-02T13:52:28.999Z</time></trkpt><trkpt lat="43.19409598325585" lon="12.90313504641876"><ele>469.0</ele><time>2026-05-02T13:52:29.999Z</time></trkpt><trkpt lat="43.1941335569232" lon="12.90302010416799"><ele>469.0</ele><time>2026-05-02T13:52:30.999Z</time></trkpt><trkpt lat="43.19416118915888" lon="12.902898082720245"><ele>469.0</ele><time>2026-05-02T13:52:31.999Z</time></trkpt><trkpt lat="43.19419189897862" lon="12.902769386518933"><ele>469.00000000000006</ele><time>2026-05-02T13:52:32.999Z</time></trkpt><trkpt lat="43.19422083416428" lon="12.902655277954219"><ele>469.0</ele><time>2026-05-02T13:52:33.999Z</time></trkpt><trkpt lat="43.194249731495034" lon="12.902527665224202"><ele>469.0</ele><time>2026-05-02T13:52:34.999Z</time></trkpt><trkpt lat="43.19427441309337" lon="12.90241937213366"><ele>469.0</ele><time>2026-05-02T13:52:35.999Z</time></trkpt><trkpt lat="43.194290860335606" lon="12.902317926398913"><ele>469.00000000000006</ele><time>2026-05-02T13:52:36.999Z</time></trkpt><trkpt lat="43.194307932778415" lon="12.902214538683005"><ele>469.0</ele><time>2026-05-02T13:52:37.999Z</time></trkpt><trkpt lat="43.19433857242926" lon="12.902027656006755"><ele>469.83333333333337</ele><time>2026-05-02T13:52:39.999Z</time></trkpt><trkpt lat="43.19434971623055" lon="12.901937047299455"><ele>470.6666666666667</ele><time>2026-05-02T13:52:40.999Z</time></trkpt><trkpt lat="43.194363315471136" lon="12.90176894470283"><ele>471.5</ele><time>2026-05-02T13:52:42.999Z</time></trkpt><trkpt lat="43.19434131764923" lon="12.901635109721942"><ele>472.33333333333337</ele><time>2026-05-02T13:52:44.999Z</time></trkpt><trkpt lat="43.1942762377232" lon="12.90161202969078"><ele>473.1666666666667</ele><time>2026-05-02T13:52:47.999Z</time></trkpt><trkpt lat="43.19419779543138" lon="12.901623807689658"><ele>474.0</ele><time>2026-05-02T13:52:50.999Z</time></trkpt><trkpt lat="43.19411715303557" lon="12.901684388265892"><ele>474.0</ele><time>2026-05-02T13:52:52.999Z</time></trkpt><trkpt lat="43.1940562454792" lon="12.901742808786766"><ele>474.0</ele><time>2026-05-02T13:52:55.999Z</time></trkpt><trkpt lat="43.1940109573842" lon="12.901662226778127"><ele>474.0</ele><time>2026-05-02T13:52:58.999Z</time></trkpt><trkpt lat="43.19400967699707" lon="12.901563465414805"><ele>474.0</ele><time>2026-05-02T13:53:00.999Z</time></trkpt><trkpt lat="43.19396359050155" lon="12.901458704171162"><ele>474.0</ele><time>2026-05-02T13:53:02.999Z</time></trkpt><trkpt lat="43.19393129963912" lon="12.90133008294989"><ele>474.0</ele><time>2026-05-02T13:53:04.999Z</time></trkpt><trkpt lat="43.19387691720133" lon="12.901189396285003"><ele>477.1666666666667</ele><time>2026-05-02T13:53:06.999Z</time></trkpt><trkpt lat="43.19383855809105" lon="12.901045767870666"><ele>480.33333333333337</ele><time>2026-05-02T13:53:08.999Z</time></trkpt><trkpt lat="43.19382727702541" lon="12.900959207839115"><ele>483.5</ele><time>2026-05-02T13:53:09.999Z</time></trkpt><trkpt lat="43.19379563175193" lon="12.900882366215233"><ele>486.6666666666667</ele><time>2026-05-02T13:53:10.999Z</time></trkpt><trkpt lat="43.19373268770678" lon="12.900740384932218"><ele>489.83333333333337</ele><time>2026-05-02T13:53:12.999Z</time></trkpt><trkpt lat="43.193695204861065" lon="12.900651109869546"><ele>493.0</ele><time>2026-05-02T13:53:13.999Z</time></trkpt><trkpt lat="43.19365707184794" lon="12.90058074918417"><ele>493.0</ele><time>2026-05-02T13:53:14.999Z</time></trkpt><trkpt lat="43.19361861886879" lon="12.90050908986946"><ele>493.0</ele><time>2026-05-02T13:53:15.999Z</time></trkpt><trkpt lat="43.19352896683483" lon="12.900428278459401"><ele>493.0</ele><time>2026-05-02T13:53:17.999Z</time></trkpt><trkpt lat="43.19346189573753" lon="12.900408436608863"><ele>493.0</ele><time>2026-05-02T13:53:18.999Z</time></trkpt><trkpt lat="43.193403490027045" lon="12.900369371978035"><ele>493.0</ele><time>2026-05-02T13:53:19.999Z</time></trkpt><trkpt lat="43.19335228505605" lon="12.900317130480056"><ele>493.0</ele><time>2026-05-02T13:53:20.999Z</time></trkpt><trkpt lat="43.19328663775013" lon="12.900271386092026"><ele>493.0</ele><time>2026-05-02T13:53:21.999Z</time></trkpt><trkpt lat="43.193230483002004" lon="12.900213896398872"><ele>492.50000000000006</ele><time>2026-05-02T13:53:22.999Z</time></trkpt><trkpt lat="43.193110657936906" lon="12.900150189501833"><ele>492.0</ele><time>2026-05-02T13:53:24.999Z</time></trkpt><trkpt lat="43.1930463110456" lon="12.900131155167205"><ele>491.5</ele><time>2026-05-02T13:53:25.999Z</time></trkpt><trkpt lat="43.192975170261896" lon="12.900102065550806"><ele>491.0</ele><time>2026-05-02T13:53:26.999Z</time></trkpt><trkpt lat="43.19289316634933" lon="12.900065249611586"><ele>490.50000000000006</ele><time>2026-05-02T13:53:27.999Z</time></trkpt><trkpt lat="43.19281757415921" lon="12.900019677542245"><ele>490.0</ele><time>2026-05-02T13:53:28.999Z</time></trkpt><trkpt lat="43.19273918076778" lon="12.899970565532065"><ele>490.00000000000006</ele><time>2026-05-02T13:53:29.999Z</time></trkpt><trkpt lat="43.19267219287325" lon="12.89991831738133"><ele>490.0</ele><time>2026-05-02T13:53:30.999Z</time></trkpt><trkpt lat="43.19261398300996" lon="12.899848608052512"><ele>490.0</ele><time>2026-05-02T13:53:32Z</time></trkpt><trkpt lat="43.19258055587451" lon="12.899743628863629"><ele>490.0</ele><time>2026-05-02T13:53:33Z</time></trkpt><trkpt lat="43.19252826218209" lon="12.899659546564449"><ele>490.00000000000006</ele><time>2026-05-02T13:53:34Z</time></trkpt><trkpt lat="43.192476916501185" lon="12.899519227676517"><ele>490.0</ele><time>2026-05-02T13:53:36Z</time></trkpt><trkpt lat="43.19246233525648" lon="12.899431702419959"><ele>490.00000000000006</ele><time>2026-05-02T13:53:37Z</time></trkpt><trkpt lat="43.1924427414589" lon="12.899328775432789"><ele>490.0</ele><time>2026-05-02T13:53:38Z</time></trkpt><trkpt lat="43.192408227396385" lon="12.89924361384357"><ele>490.0</ele><time>2026-05-02T13:53:39Z</time></trkpt><trkpt lat="43.192382954620705" lon="12.89913649531097"><ele>490.0</ele><time>2026-05-02T13:53:40Z</time></trkpt><trkpt lat="43.192352217209056" lon="12.899018757987081"><ele>490.00000000000006</ele><time>2026-05-02T13:53:41Z</time></trkpt><trkpt lat="43.19231969630093" lon="12.898909522581713"><ele>490.0</ele><time>2026-05-02T13:53:42Z</time></trkpt><trkpt lat="43.19229605354909" lon="12.898816283772982"><ele>491.83333333333337</ele><time>2026-05-02T13:53:43Z</time></trkpt><trkpt lat="43.19225956625842" lon="12.898731086844755"><ele>493.6666666666667</ele><time>2026-05-02T13:53:44Z</time></trkpt><trkpt lat="43.19222656862758" lon="12.89865196631719"><ele>495.5</ele><time>2026-05-02T13:53:45Z</time></trkpt><trkpt lat="43.19218650774956" lon="12.898579145434384"><ele>497.33333333333337</ele><time>2026-05-02T13:53:46Z</time></trkpt><trkpt lat="43.192129341338486" lon="12.898499671647437"><ele>499.1666666666667</ele><time>2026-05-02T13:53:47Z</time></trkpt><trkpt lat="43.192075638143464" lon="12.898422084310523"><ele>501.0</ele><time>2026-05-02T13:53:48Z</time></trkpt><trkpt lat="43.19200357049664" lon="12.898349591878938"><ele>501.0</ele><time>2026-05-02T13:53:49Z</time></trkpt><trkpt lat="43.1919500723776" lon="12.898289279263896"><ele>501.0</ele><time>2026-05-02T13:53:50Z</time></trkpt><trkpt lat="43.19191471740487" lon="12.898193027262982"><ele>501.0</ele><time>2026-05-02T13:53:51Z</time></trkpt><trkpt lat="43.19188141608674" lon="12.898087393274993"><ele>501.0</ele><time>2026-05-02T13:53:52Z</time></trkpt><trkpt lat="43.191851586005406" lon="12.89798391037373"><ele>501.0</ele><time>2026-05-02T13:53:53Z</time></trkpt><trkpt lat="43.191816468863536" lon="12.897822433376433"><ele>501.0</ele><time>2026-05-02T13:53:55Z</time></trkpt><trkpt lat="43.19175295266791" lon="12.897672935580118"><ele>497.8</ele><time>2026-05-02T13:53:57Z</time></trkpt><trkpt lat="43.191718135596105" lon="12.897574571605704"><ele>494.6</ele><time>2026-05-02T13:53:58Z</time></trkpt><trkpt lat="43.191692750994136" lon="12.89745151298043"><ele>491.4</ele><time>2026-05-02T13:54:00Z</time></trkpt><trkpt lat="43.19167074846587" lon="12.897303979937796"><ele>488.2</ele><time>2026-05-02T13:54:02Z</time></trkpt><trkpt lat="43.191650420843374" lon="12.897169161669792"><ele>485.0</ele><time>2026-05-02T13:54:04Z</time></trkpt><trkpt lat="43.19160221130152" lon="12.897028246066256"><ele>485.0</ele><time>2026-05-02T13:54:06Z</time></trkpt><trkpt lat="43.19158436437146" lon="12.896884270516821"><ele>485.0</ele><time>2026-05-02T13:54:08Z</time></trkpt><trkpt lat="43.191596924090575" lon="12.896768658029753"><ele>485.0</ele><time>2026-05-02T13:54:10Z</time></trkpt><trkpt lat="43.19157483084667" lon="12.896645354578956"><ele>485.0</ele><time>2026-05-02T13:54:12Z</time></trkpt><trkpt lat="43.191519897950805" lon="12.896480753850089"><ele>485.0</ele><time>2026-05-02T13:54:14Z</time></trkpt><trkpt lat="43.19150348132235" lon="12.896381331788005"><ele>486.8333333333333</ele><time>2026-05-02T13:54:15Z</time></trkpt><trkpt lat="43.19146360157571" lon="12.896280848456007"><ele>488.66666666666663</ele><time>2026-05-02T13:54:17Z</time></trkpt><trkpt lat="43.19142139284766" lon="12.896183778979173"><ele>490.5</ele><time>2026-05-02T13:54:19Z</time></trkpt><trkpt lat="43.19139121410066" lon="12.8961038220727"><ele>492.33333333333337</ele><time>2026-05-02T13:54:20.999Z</time></trkpt><trkpt lat="43.19134198458065" lon="12.896012201975385"><ele>494.1666666666667</ele><time>2026-05-02T13:54:22.999Z</time></trkpt><trkpt lat="43.19127347989237" lon="12.89598446854633"><ele>496.0</ele><time>2026-05-02T13:54:25.999Z</time></trkpt><trkpt lat="43.19121443195634" lon="12.895925033990615"><ele>493.83333333333337</ele><time>2026-05-02T13:54:27.999Z</time></trkpt><trkpt lat="43.1911268718595" lon="12.895808737008515"><ele>491.6666666666667</ele><time>2026-05-02T13:54:29.999Z</time></trkpt><trkpt lat="43.191076763256106" lon="12.895728538625919"><ele>489.5</ele><time>2026-05-02T13:54:30.999Z</time></trkpt><trkpt lat="43.191018879863165" lon="12.895633875608937"><ele>487.33333333333337</ele><time>2026-05-02T13:54:31.999Z</time></trkpt><trkpt lat="43.19096631112579" lon="12.895564283437869"><ele>485.1666666666667</ele><time>2026-05-02T13:54:32.999Z</time></trkpt><trkpt lat="43.190912721420105" lon="12.89550022757867"><ele>483.0</ele><time>2026-05-02T13:54:33.999Z</time></trkpt><trkpt lat="43.19084959461219" lon="12.895441888491485"><ele>483.0</ele><time>2026-05-02T13:54:34.999Z</time></trkpt><trkpt lat="43.19077407325928" lon="12.895393350409277"><ele>483.0</ele><time>2026-05-02T13:54:35.999Z</time></trkpt><trkpt lat="43.1907017722592" lon="12.895349772503716"><ele>483.0</ele><time>2026-05-02T13:54:36.999Z</time></trkpt><trkpt lat="43.1906414163437" lon="12.895303283964873"><ele>483.0</ele><time>2026-05-02T13:54:37.999Z</time></trkpt><trkpt lat="43.19058385785003" lon="12.895152848346141"><ele>483.0</ele><time>2026-05-02T13:54:39.999Z</time></trkpt><trkpt lat="43.190571182999136" lon="12.895057173227649"><ele>483.0</ele><time>2026-05-02T13:54:40.999Z</time></trkpt><trkpt lat="43.1905385013281" lon="12.894982231539762"><ele>485.3333333333333</ele><time>2026-05-02T13:54:41.999Z</time></trkpt><trkpt lat="43.19048140427822" lon="12.8949194516693"><ele>487.66666666666663</ele><time>2026-05-02T13:54:42.999Z</time></trkpt><trkpt lat="43.190413341516916" lon="12.894860531241774"><ele>490.0</ele><time>2026-05-02T13:54:43.999Z</time></trkpt><trkpt lat="43.19037242678225" lon="12.894792595657162"><ele>492.3333333333333</ele><time>2026-05-02T13:54:44.999Z</time></trkpt><trkpt lat="43.190327516352006" lon="12.89470217849182"><ele>494.66666666666663</ele><time>2026-05-02T13:54:45.999Z</time></trkpt><trkpt lat="43.19028987960054" lon="12.894616634235017"><ele>497.0</ele><time>2026-05-02T13:54:46.999Z</time></trkpt><trkpt lat="43.19024047666941" lon="12.894530631107411"><ele>497.0</ele><time>2026-05-02T13:54:47.999Z</time></trkpt><trkpt lat="43.19019444439904" lon="12.894444612832437"><ele>497.00000000000006</ele><time>2026-05-02T13:54:48.999Z</time></trkpt><trkpt lat="43.190149561515845" lon="12.894356036568567"><ele>497.00000000000006</ele><time>2026-05-02T13:54:49.999Z</time></trkpt><trkpt lat="43.19010828113966" lon="12.894264555649135"><ele>497.0</ele><time>2026-05-02T13:54:50.999Z</time></trkpt><trkpt lat="43.1900787441241" lon="12.894100623687121"><ele>497.0</ele><time>2026-05-02T13:54:52.999Z</time></trkpt><trkpt lat="43.190024702045655" lon="12.893974312499326"><ele>498.7142857142857</ele><time>2026-05-02T13:54:54.999Z</time></trkpt><trkpt lat="43.18997194511922" lon="12.893905506747132"><ele>500.42857142857144</ele><time>2026-05-02T13:54:55.999Z</time></trkpt><trkpt lat="43.18993618135871" lon="12.893820599525474"><ele>502.1428571428571</ele><time>2026-05-02T13:54:56.999Z</time></trkpt><trkpt lat="43.18990835415419" lon="12.893729215040436"><ele>503.85714285714283</ele><time>2026-05-02T13:54:57.999Z</time></trkpt><trkpt lat="43.18986825303402" lon="12.893636205843087"><ele>505.57142857142856</ele><time>2026-05-02T13:54:58.999Z</time></trkpt><trkpt lat="43.1898221553509" lon="12.89355690246683"><ele>507.2857142857142</ele><time>2026-05-02T13:54:59.999Z</time></trkpt><trkpt lat="43.18977265013793" lon="12.893493068785517"><ele>508.99999999999994</ele><time>2026-05-02T13:55:00.999Z</time></trkpt><trkpt lat="43.1896989021538" lon="12.893360998395355"><ele>508.99999999999994</ele><time>2026-05-02T13:55:02.999Z</time></trkpt><trkpt lat="43.18965756742283" lon="12.893213471696969"><ele>509.0</ele><time>2026-05-02T13:55:04.999Z</time></trkpt><trkpt lat="43.18963817417032" lon="12.893093711011234"><ele>509.0</ele><time>2026-05-02T13:55:05.999Z</time></trkpt><trkpt lat="43.189612780077304" lon="12.893011685906755"><ele>509.0</ele><time>2026-05-02T13:55:06.999Z</time></trkpt><trkpt lat="43.189592248051525" lon="12.892919859459129"><ele>508.99999999999994</ele><time>2026-05-02T13:55:07.999Z</time></trkpt><trkpt lat="43.18957004007963" lon="12.892809020216578"><ele>509.0</ele><time>2026-05-02T13:55:08.999Z</time></trkpt><trkpt lat="43.18953103688072" lon="12.892735730562581"><ele>509.0</ele><time>2026-05-02T13:55:09.999Z</time></trkpt><trkpt lat="43.18948154638066" lon="12.892662720033043"><ele>509.0</ele><time>2026-05-02T13:55:11.999Z</time></trkpt><trkpt lat="43.1894024749227" lon="12.892554512647273"><ele>509.0</ele><time>2026-05-02T13:55:14.999Z</time></trkpt><trkpt lat="43.189327546448744" lon="12.892476900765717"><ele>509.0</ele><time>2026-05-02T13:55:16.999Z</time></trkpt><trkpt lat="43.18922417113893" lon="12.892356456541139"><ele>509.0</ele><time>2026-05-02T13:55:18.999Z</time></trkpt><trkpt lat="43.189135194168955" lon="12.892232815761583"><ele>511.8333333333333</ele><time>2026-05-02T13:55:20.999Z</time></trkpt><trkpt lat="43.18908245021493" lon="12.892172295610575"><ele>514.6666666666666</ele><time>2026-05-02T13:55:21.999Z</time></trkpt><trkpt lat="43.18904210829802" lon="12.89209849414259"><ele>517.5</ele><time>2026-05-02T13:55:22.999Z</time></trkpt><trkpt lat="43.18899166802817" lon="12.892026090421972"><ele>520.3333333333334</ele><time>2026-05-02T13:55:23.999Z</time></trkpt><trkpt lat="43.1889441953816" lon="12.891939943374444"><ele>523.1666666666667</ele><time>2026-05-02T13:55:24.999Z</time></trkpt><trkpt lat="43.18890301645118" lon="12.891874448016365"><ele>526.0</ele><time>2026-05-02T13:55:25.999Z</time></trkpt><trkpt lat="43.188786225783524" lon="12.89179631530388"><ele>526.0</ele><time>2026-05-02T13:55:27.999Z</time></trkpt><trkpt lat="43.188713382313246" lon="12.89175956942011"><ele>526.0</ele><time>2026-05-02T13:55:28.999Z</time></trkpt><trkpt lat="43.188631601851746" lon="12.891713576589295"><ele>526.0</ele><time>2026-05-02T13:55:29.999Z</time></trkpt><trkpt lat="43.18855452543151" lon="12.891666466426443"><ele>526.0</ele><time>2026-05-02T13:55:30.999Z</time></trkpt><trkpt lat="43.18846564483264" lon="12.89162385452444"><ele>526.0</ele><time>2026-05-02T13:55:31.999Z</time></trkpt><trkpt lat="43.18838514915964" lon="12.891572754712849"><ele>526.0</ele><time>2026-05-02T13:55:32.999Z</time></trkpt><trkpt lat="43.18830686558975" lon="12.891517340397783"><ele>526.8333333333334</ele><time>2026-05-02T13:55:33.999Z</time></trkpt><trkpt lat="43.1882473042993" lon="12.891450653250876"><ele>527.6666666666667</ele><time>2026-05-02T13:55:34.999Z</time></trkpt><trkpt lat="43.18820925700763" lon="12.89135076788005"><ele>528.5</ele><time>2026-05-02T13:55:35.999Z</time></trkpt><trkpt lat="43.18818097887501" lon="12.891234075187024"><ele>529.3333333333334</ele><time>2026-05-02T13:55:37Z</time></trkpt><trkpt lat="43.188177983727385" lon="12.891125125840166"><ele>530.1666666666666</ele><time>2026-05-02T13:55:38Z</time></trkpt><trkpt lat="43.18816616839043" lon="12.891026606237604"><ele>531.0</ele><time>2026-05-02T13:55:39Z</time></trkpt><trkpt lat="43.18816798295633" lon="12.890917231543588"><ele>531.0</ele><time>2026-05-02T13:55:40Z</time></trkpt><trkpt lat="43.188162010606156" lon="12.8908212941622"><ele>531.0</ele><time>2026-05-02T13:55:41Z</time></trkpt><trkpt lat="43.18815878967523" lon="12.890719306889077"><ele>531.0</ele><time>2026-05-02T13:55:42Z</time></trkpt><trkpt lat="43.18817793884728" lon="12.8905245254735"><ele>531.0</ele><time>2026-05-02T13:55:44Z</time></trkpt><trkpt lat="43.188183920450115" lon="12.890417226686559"><ele>531.0</ele><time>2026-05-02T13:55:45Z</time></trkpt><trkpt lat="43.18819326680473" lon="12.890320469469334"><ele>531.0</ele><time>2026-05-02T13:55:46Z</time></trkpt><trkpt lat="43.18821230190635" lon="12.890227351361755"><ele>525.1666666666666</ele><time>2026-05-02T13:55:47Z</time></trkpt><trkpt lat="43.18825351021973" lon="12.890105643061712"><ele>519.3333333333334</ele><time>2026-05-02T13:55:49Z</time></trkpt><trkpt lat="43.18830208956786" lon="12.890006752334894"><ele>513.5</ele><time>2026-05-02T13:55:51Z</time></trkpt><trkpt lat="43.188297908666186" lon="12.889906358185145"><ele>507.6666666666667</ele><time>2026-05-02T13:55:53Z</time></trkpt><trkpt lat="43.188204280216205" lon="12.88987245994422"><ele>501.83333333333337</ele><time>2026-05-02T13:55:55Z</time></trkpt><trkpt lat="43.18812359495633" lon="12.889879350908403"><ele>496.0</ele><time>2026-05-02T13:55:57Z</time></trkpt><trkpt lat="43.188044128827975" lon="12.889874054545508"><ele>496.00000000000006</ele><time>2026-05-02T13:55:59Z</time></trkpt><trkpt lat="43.187955459680175" lon="12.8898071377688"><ele>496.0</ele><time>2026-05-02T13:56:01Z</time></trkpt><trkpt lat="43.187865861268214" lon="12.88972171600953"><ele>496.0</ele><time>2026-05-02T13:56:03Z</time></trkpt><trkpt lat="43.187808840921285" lon="12.88967026832833"><ele>496.0</ele><time>2026-05-02T13:56:05Z</time></trkpt><trkpt lat="43.18777610026846" lon="12.889594937138297"><ele>496.00000000000006</ele><time>2026-05-02T13:56:06Z</time></trkpt><trkpt lat="43.18769988012204" lon="12.889499595680473"><ele>496.0</ele><time>2026-05-02T13:56:08Z</time></trkpt><trkpt lat="43.18760038943263" lon="12.889468738082588"><ele>496.0</ele><time>2026-05-02T13:56:10Z</time></trkpt><trkpt lat="43.18750175419888" lon="12.88944752201514"><ele>496.0</ele><time>2026-05-02T13:56:12Z</time></trkpt><trkpt lat="43.187407540616675" lon="12.889430371455273"><ele>496.0</ele><time>2026-05-02T13:56:14Z</time></trkpt><trkpt lat="43.18731813190896" lon="12.889387337979866"><ele>496.0</ele><time>2026-05-02T13:56:16Z</time></trkpt><trkpt lat="43.18722377917291" lon="12.88936426348931"><ele>496.0</ele><time>2026-05-02T13:56:18Z</time></trkpt><trkpt lat="43.18711723258647" lon="12.889352048912512"><ele>497.0</ele><time>2026-05-02T13:56:20Z</time></trkpt><trkpt lat="43.187022397255326" lon="12.889336612593471"><ele>498.0</ele><time>2026-05-02T13:56:22Z</time></trkpt><trkpt lat="43.186907532770896" lon="12.889332856683751"><ele>499.0</ele><time>2026-05-02T13:56:24Z</time></trkpt><trkpt lat="43.18682108432651" lon="12.889350570323105"><ele>500.0</ele><time>2026-05-02T13:56:26Z</time></trkpt><trkpt lat="43.18673401705705" lon="12.889366776263275"><ele>501.0</ele><time>2026-05-02T13:56:28Z</time></trkpt><trkpt lat="43.18663726924459" lon="12.889363697491873"><ele>501.0</ele><time>2026-05-02T13:56:29.999Z</time></trkpt><trkpt lat="43.186554546203205" lon="12.88933747106861"><ele>501.0</ele><time>2026-05-02T13:56:31.999Z</time></trkpt><trkpt lat="43.18646681956451" lon="12.889350799704046"><ele>501.0</ele><time>2026-05-02T13:56:33.999Z</time></trkpt><trkpt lat="43.186368258251356" lon="12.889364756402156"><ele>501.0</ele><time>2026-05-02T13:56:35.999Z</time></trkpt><trkpt lat="43.1862563848426" lon="12.889343781795011"><ele>501.0</ele><time>2026-05-02T13:56:37.999Z</time></trkpt><trkpt lat="43.18619148817322" lon="12.889325955096522"><ele>502.0</ele><time>2026-05-02T13:56:38.999Z</time></trkpt><trkpt lat="43.186121873849984" lon="12.889317733507562"><ele>503.0</ele><time>2026-05-02T13:56:39.999Z</time></trkpt><trkpt lat="43.186054711911595" lon="12.889294443354158"><ele>504.0</ele><time>2026-05-02T13:56:40.999Z</time></trkpt><trkpt lat="43.18598377399835" lon="12.88922585456162"><ele>505.0</ele><time>2026-05-02T13:56:41.999Z</time></trkpt><trkpt lat="43.18591716459191" lon="12.889164746474146"><ele>506.0</ele><time>2026-05-02T13:56:42.999Z</time></trkpt><trkpt lat="43.18585589001064" lon="12.8891010996093"><ele>507.0</ele><time>2026-05-02T13:56:43.999Z</time></trkpt><trkpt lat="43.18580663594807" lon="12.889017252260434"><ele>505.40000000000003</ele><time>2026-05-02T13:56:44.999Z</time></trkpt><trkpt lat="43.185774086422654" lon="12.888935902245242"><ele>503.80000000000007</ele><time>2026-05-02T13:56:45.999Z</time></trkpt><trkpt lat="43.185683238052356" lon="12.88883215191676"><ele>502.2</ele><time>2026-05-02T13:56:47.999Z</time></trkpt><trkpt lat="43.18556571471648" lon="12.888773279662628"><ele>500.6</ele><time>2026-05-02T13:56:49.999Z</time></trkpt><trkpt lat="43.185454404687434" lon="12.888698823799487"><ele>499.0</ele><time>2026-05-02T13:56:51.999Z</time></trkpt><trkpt lat="43.18539863171249" lon="12.88865615867388"><ele>499.0</ele><time>2026-05-02T13:56:52.999Z</time></trkpt><trkpt lat="43.18529045251311" lon="12.888578629352997"><ele>499.0</ele><time>2026-05-02T13:56:54.999Z</time></trkpt><trkpt lat="43.18518000941995" lon="12.888489113751694"><ele>499.0</ele><time>2026-05-02T13:56:56.999Z</time></trkpt><trkpt lat="43.18512433772883" lon="12.888433566866862"><ele>499.0</ele><time>2026-05-02T13:56:57.999Z</time></trkpt><trkpt lat="43.1850557516424" lon="12.88837355362455"><ele>499.0</ele><time>2026-05-02T13:56:58.999Z</time></trkpt><trkpt lat="43.184989540290495" lon="12.888308140392247"><ele>496.6666666666667</ele><time>2026-05-02T13:56:59.999Z</time></trkpt><trkpt lat="43.18493435976857" lon="12.888212295914345"><ele>494.33333333333337</ele><time>2026-05-02T13:57:00.999Z</time></trkpt><trkpt lat="43.184879628653775" lon="12.888140759219612"><ele>492.0</ele><time>2026-05-02T13:57:01.999Z</time></trkpt><trkpt lat="43.18482149615132" lon="12.888084906616891"><ele>489.66666666666663</ele><time>2026-05-02T13:57:02.999Z</time></trkpt><trkpt lat="43.18472500340789" lon="12.887964049986694"><ele>487.3333333333333</ele><time>2026-05-02T13:57:04.999Z</time></trkpt><trkpt lat="43.184683841379695" lon="12.887889981325063"><ele>485.0</ele><time>2026-05-02T13:57:05.999Z</time></trkpt><trkpt lat="43.18464631791561" lon="12.887805103761465"><ele>489.8333333333333</ele><time>2026-05-02T13:57:06.999Z</time></trkpt><trkpt lat="43.18459920467319" lon="12.887703806277067"><ele>494.66666666666663</ele><time>2026-05-02T13:57:07.999Z</time></trkpt><trkpt lat="43.18455121104252" lon="12.887601346987635"><ele>499.5</ele><time>2026-05-02T13:57:08.999Z</time></trkpt><trkpt lat="43.18449528555417" lon="12.887496508278131"><ele>504.33333333333337</ele><time>2026-05-02T13:57:09.999Z</time></trkpt><trkpt lat="43.18443580693371" lon="12.887398889015442"><ele>509.1666666666667</ele><time>2026-05-02T13:57:10.999Z</time></trkpt><trkpt lat="43.184376391117375" lon="12.887322523197403"><ele>514.0</ele><time>2026-05-02T13:57:11.999Z</time></trkpt><trkpt lat="43.184336423161376" lon="12.887239331104755"><ele>514.0</ele><time>2026-05-02T13:57:12.999Z</time></trkpt><trkpt lat="43.184332755809265" lon="12.887109478683707"><ele>514.0</ele><time>2026-05-02T13:57:13.999Z</time></trkpt><trkpt lat="43.18432908563517" lon="12.886997223430294"><ele>514.0</ele><time>2026-05-02T13:57:14.999Z</time></trkpt><trkpt lat="43.18432646707587" lon="12.886903479274554"><ele>514.0</ele><time>2026-05-02T13:57:15.999Z</time></trkpt><trkpt lat="43.18430399034763" lon="12.886782772112817"><ele>514.0</ele><time>2026-05-02T13:57:16.999Z</time></trkpt><trkpt lat="43.18427218715365" lon="12.886666607370756"><ele>514.0</ele><time>2026-05-02T13:57:17.999Z</time></trkpt><trkpt lat="43.1842499352855" lon="12.886563382883386"><ele>512.6666666666667</ele><time>2026-05-02T13:57:18.999Z</time></trkpt><trkpt lat="43.18424081194618" lon="12.886440965883283"><ele>511.33333333333337</ele><time>2026-05-02T13:57:19.999Z</time></trkpt><trkpt lat="43.18423742419859" lon="12.886324464381076"><ele>510.0</ele><time>2026-05-02T13:57:20.999Z</time></trkpt><trkpt lat="43.1842177025748" lon="12.886225463135567"><ele>508.66666666666663</ele><time>2026-05-02T13:57:21.999Z</time></trkpt><trkpt lat="43.184219766399494" lon="12.886124364147483"><ele>507.3333333333333</ele><time>2026-05-02T13:57:22.999Z</time></trkpt><trkpt lat="43.184202475117" lon="12.885992653344179"><ele>506.0</ele><time>2026-05-02T13:57:23.999Z</time></trkpt><trkpt lat="43.18420076543712" lon="12.885879790115952"><ele>504.3333333333333</ele><time>2026-05-02T13:57:24.999Z</time></trkpt><trkpt lat="43.18420074502473" lon="12.885757352042146"><ele>502.66666666666663</ele><time>2026-05-02T13:57:25.999Z</time></trkpt><trkpt lat="43.184187402370355" lon="12.885671297866335"><ele>501.0</ele><time>2026-05-02T13:57:26.999Z</time></trkpt><trkpt lat="43.184177907655446" lon="12.885547520305288"><ele>499.33333333333337</ele><time>2026-05-02T13:57:27.999Z</time></trkpt><trkpt lat="43.184166962475885" lon="12.88543375751152"><ele>497.6666666666667</ele><time>2026-05-02T13:57:28.999Z</time></trkpt><trkpt lat="43.18416241742515" lon="12.885317290418397"><ele>496.0</ele><time>2026-05-02T13:57:29.999Z</time></trkpt><trkpt lat="43.184155063521" lon="12.885199240016048"><ele>495.33333333333337</ele><time>2026-05-02T13:57:30.999Z</time></trkpt><trkpt lat="43.18414178132511" lon="12.885071812057049"><ele>494.6666666666667</ele><time>2026-05-02T13:57:31.999Z</time></trkpt><trkpt lat="43.184136596669624" lon="12.884950183739209"><ele>494.0</ele><time>2026-05-02T13:57:32.999Z</time></trkpt><trkpt lat="43.18413852125616" lon="12.884832828784544"><ele>493.33333333333337</ele><time>2026-05-02T13:57:33.999Z</time></trkpt><trkpt lat="43.18415190591321" lon="12.884722276312154"><ele>492.6666666666667</ele><time>2026-05-02T13:57:34.999Z</time></trkpt><trkpt lat="43.18415496721537" lon="12.884611721616244"><ele>492.0</ele><time>2026-05-02T13:57:35.999Z</time></trkpt><trkpt lat="43.18415295665185" lon="12.88448487143364"><ele>492.0</ele><time>2026-05-02T13:57:36.999Z</time></trkpt><trkpt lat="43.18413366055372" lon="12.88435113347107"><ele>492.0</ele><time>2026-05-02T13:57:37.999Z</time></trkpt><trkpt lat="43.18412356204023" lon="12.884234831265019"><ele>492.0</ele><time>2026-05-02T13:57:38.999Z</time></trkpt><trkpt lat="43.184127198793455" lon="12.884132734379351"><ele>492.0</ele><time>2026-05-02T13:57:39.999Z</time></trkpt><trkpt lat="43.18413131108548" lon="12.884039652534845"><ele>492.0</ele><time>2026-05-02T13:57:40.999Z</time></trkpt><trkpt lat="43.184140800687686" lon="12.883953674478937"><ele>492.0</ele><time>2026-05-02T13:57:41.999Z</time></trkpt><trkpt lat="43.184151050765045" lon="12.883849649194296"><ele>491.20000000000005</ele><time>2026-05-02T13:57:43Z</time></trkpt><trkpt lat="43.184163961011976" lon="12.883725794532133"><ele>490.40000000000003</ele><time>2026-05-02T13:57:44Z</time></trkpt><trkpt lat="43.18417735327211" lon="12.883567313369653"><ele>489.59999999999997</ele><time>2026-05-02T13:57:45Z</time></trkpt><trkpt lat="43.184209183097856" lon="12.883399181466672"><ele>488.79999999999995</ele><time>2026-05-02T13:57:46Z</time></trkpt><trkpt lat="43.18421637137823" lon="12.883267382744872"><ele>488.0</ele><time>2026-05-02T13:57:47Z</time></trkpt><trkpt lat="43.18422814739546" lon="12.883147912395179"><ele>487.59999999999997</ele><time>2026-05-02T13:57:48Z</time></trkpt><trkpt lat="43.18424076367838" lon="12.883028909782952"><ele>487.19999999999993</ele><time>2026-05-02T13:57:49Z</time></trkpt><trkpt lat="43.18423652420557" lon="12.882934172237594"><ele>486.8</ele><time>2026-05-02T13:57:50Z</time></trkpt><trkpt lat="43.18420654835689" lon="12.882798647838351"><ele>486.4</ele><time>2026-05-02T13:57:52Z</time></trkpt><trkpt lat="43.184100654593415" lon="12.88275904586854"><ele>486.0</ele><time>2026-05-02T13:57:54Z</time></trkpt><trkpt lat="43.184054238110356" lon="12.882588300953902"><ele>489.6</ele><time>2026-05-02T13:57:55Z</time></trkpt><trkpt lat="43.18400314527874" lon="12.882465821753406"><ele>493.20000000000005</ele><time>2026-05-02T13:57:56Z</time></trkpt><trkpt lat="43.18395039585774" lon="12.88234604623062"><ele>496.79999999999995</ele><time>2026-05-02T13:57:57Z</time></trkpt><trkpt lat="43.18394594012205" lon="12.882212890524293"><ele>500.4</ele><time>2026-05-02T13:57:58Z</time></trkpt><trkpt lat="43.183863257275455" lon="12.882054790059758"><ele>504.0</ele><time>2026-05-02T13:57:59Z</time></trkpt><trkpt lat="43.18378807556276" lon="12.881897595669368"><ele>501.25</ele><time>2026-05-02T13:58:00Z</time></trkpt><trkpt lat="43.183713820049825" lon="12.881742924540525"><ele>498.5</ele><time>2026-05-02T13:58:01Z</time></trkpt><trkpt lat="43.1836528616455" lon="12.881580914683433"><ele>495.75</ele><time>2026-05-02T13:58:02Z</time></trkpt><trkpt lat="43.1835796702656" lon="12.881427499275958"><ele>493.0</ele><time>2026-05-02T13:58:03Z</time></trkpt><trkpt lat="43.18350523556811" lon="12.88129312147543"><ele>493.00000000000006</ele><time>2026-05-02T13:58:04Z</time></trkpt><trkpt lat="43.183447994688436" lon="12.881179454603076"><ele>493.0</ele><time>2026-05-02T13:58:05Z</time></trkpt><trkpt lat="43.183416302607824" lon="12.88109516242905"><ele>493.0</ele><time>2026-05-02T13:58:06Z</time></trkpt><trkpt lat="43.183384021067425" lon="12.881015059505671"><ele>493.0</ele><time>2026-05-02T13:58:08Z</time></trkpt><trkpt lat="43.18336681975174" lon="12.880896275283943"><ele>493.00000000000006</ele><time>2026-05-02T13:58:34Z</time></trkpt><trkpt lat="43.18338728306386" lon="12.880750803494198"><ele>493.0</ele><time>2026-05-02T13:58:36Z</time></trkpt><trkpt lat="43.18337360111415" lon="12.880664690340812"><ele>491.0</ele><time>2026-05-02T13:58:37Z</time></trkpt><trkpt lat="43.18334633202046" lon="12.880548419032946"><ele>488.99999999999994</ele><time>2026-05-02T13:58:38Z</time></trkpt><trkpt lat="43.183314226155886" lon="12.880436718785424"><ele>486.99999999999994</ele><time>2026-05-02T13:58:39Z</time></trkpt><trkpt lat="43.18327123920307" lon="12.880319541052964"><ele>485.0</ele><time>2026-05-02T13:58:40Z</time></trkpt><trkpt lat="43.18322326502593" lon="12.880215180449158"><ele>483.0</ele><time>2026-05-02T13:58:41Z</time></trkpt><trkpt lat="43.18315843882581" lon="12.880125793295171"><ele>483.59999999999997</ele><time>2026-05-02T13:58:42Z</time></trkpt><trkpt lat="43.18307570173779" lon="12.880062051737525"><ele>484.19999999999993</ele><time>2026-05-02T13:58:42.999Z</time></trkpt><trkpt lat="43.182991931823075" lon="12.880020910552828"><ele>484.8</ele><time>2026-05-02T13:58:43.999Z</time></trkpt><trkpt lat="43.1828896191117" lon="12.88001252679933"><ele>485.4</ele><time>2026-05-02T13:58:44.999Z</time></trkpt><trkpt lat="43.18276615176684" lon="12.880018198443095"><ele>486.0</ele><time>2026-05-02T13:58:45.999Z</time></trkpt><trkpt lat="43.18266391123753" lon="12.880024929419019"><ele>486.0</ele><time>2026-05-02T13:58:46.999Z</time></trkpt><trkpt lat="43.18257251519912" lon="12.88000708989503"><ele>486.0</ele><time>2026-05-02T13:58:47.999Z</time></trkpt><trkpt lat="43.18247964702412" lon="12.879985691786029"><ele>486.0</ele><time>2026-05-02T13:58:48.999Z</time></trkpt><trkpt lat="43.18238599180801" lon="12.87994896169865"><ele>486.0</ele><time>2026-05-02T13:58:49.999Z</time></trkpt><trkpt lat="43.182279602593105" lon="12.879902030131394"><ele>486.0</ele><time>2026-05-02T13:58:50.999Z</time></trkpt><trkpt lat="43.18217433489277" lon="12.879841820107373"><ele>489.8</ele><time>2026-05-02T13:58:51.999Z</time></trkpt><trkpt lat="43.18208187617055" lon="12.879781780367667"><ele>493.6</ele><time>2026-05-02T13:58:52.999Z</time></trkpt><trkpt lat="43.181987636137926" lon="12.879708594750301"><ele>497.4</ele><time>2026-05-02T13:58:53.999Z</time></trkpt><trkpt lat="43.18189438287722" lon="12.879632370632695"><ele>501.2</ele><time>2026-05-02T13:58:54.999Z</time></trkpt><trkpt lat="43.18178807544118" lon="12.879568436216378"><ele>505.0</ele><time>2026-05-02T13:58:55.999Z</time></trkpt><trkpt lat="43.18166584572826" lon="12.879481195401723"><ele>505.0</ele><time>2026-05-02T13:58:56.999Z</time></trkpt><trkpt lat="43.18153635340203" lon="12.879365625247083"><ele>505.0</ele><time>2026-05-02T13:58:57.999Z</time></trkpt><trkpt lat="43.181438192604" lon="12.879259854883294"><ele>505.0</ele><time>2026-05-02T13:58:58.999Z</time></trkpt><trkpt lat="43.181347663684384" lon="12.879144934142973"><ele>505.0</ele><time>2026-05-02T13:58:59.999Z</time></trkpt><trkpt lat="43.18125308015781" lon="12.879004621672307"><ele>507.0</ele><time>2026-05-02T13:59:00.999Z</time></trkpt><trkpt lat="43.18115272688429" lon="12.878855101089007"><ele>509.0</ele><time>2026-05-02T13:59:01.999Z</time></trkpt><trkpt lat="43.18103877995192" lon="12.878702790129362"><ele>511.0</ele><time>2026-05-02T13:59:02.999Z</time></trkpt><trkpt lat="43.180960440030695" lon="12.878577836312449"><ele>513.0</ele><time>2026-05-02T13:59:03.999Z</time></trkpt><trkpt lat="43.18092553772239" lon="12.878493331195774"><ele>510.0</ele><time>2026-05-02T13:59:04.999Z</time></trkpt><trkpt lat="43.180860264501405" lon="12.878378239721235"><ele>507.0</ele><time>2026-05-02T13:59:05.999Z</time></trkpt><trkpt lat="43.18078737719047" lon="12.878303032495909"><ele>504.0</ele><time>2026-05-02T13:59:06.999Z</time></trkpt><trkpt lat="43.1807360899305" lon="12.87820858587868"><ele>501.0</ele><time>2026-05-02T13:59:07.999Z</time></trkpt><trkpt lat="43.180716902616375" lon="12.878097969704656"><ele>498.0</ele><time>2026-05-02T13:59:08.999Z</time></trkpt><trkpt lat="43.18073695721626" lon="12.877989379729234"><ele>495.0</ele><time>2026-05-02T13:59:09.999Z</time></trkpt><trkpt lat="43.18074704952957" lon="12.877886508237818"><ele>495.0</ele><time>2026-05-02T13:59:10.999Z</time></trkpt><trkpt lat="43.18075539462464" lon="12.877698579181349"><ele>495.0</ele><time>2026-05-02T13:59:11.999Z</time></trkpt><trkpt lat="43.180751539101344" lon="12.877550561284373"><ele>495.0</ele><time>2026-05-02T13:59:12.999Z</time></trkpt><trkpt lat="43.180761757837864" lon="12.877407502867888"><ele>495.0</ele><time>2026-05-02T13:59:13.999Z</time></trkpt><trkpt lat="43.180799535856735" lon="12.877277503329868"><ele>495.0</ele><time>2026-05-02T13:59:14.999Z</time></trkpt><trkpt lat="43.180859378003504" lon="12.87714819190788"><ele>495.0</ele><time>2026-05-02T13:59:15.999Z</time></trkpt><trkpt lat="43.180915364754185" lon="12.877041883244429"><ele>495.0</ele><time>2026-05-02T13:59:16.999Z</time></trkpt><trkpt lat="43.18096966191695" lon="12.876924031250406"><ele>495.0</ele><time>2026-05-02T13:59:17.999Z</time></trkpt><trkpt lat="43.181033575688005" lon="12.876812674655136"><ele>495.0</ele><time>2026-05-02T13:59:18.999Z</time></trkpt><trkpt lat="43.181074785605006" lon="12.876695655170826"><ele>495.0</ele><time>2026-05-02T13:59:19.999Z</time></trkpt><trkpt lat="43.18108604665406" lon="12.876554978253749"><ele>495.0</ele><time>2026-05-02T13:59:20.999Z</time></trkpt><trkpt lat="43.181065947425466" lon="12.876424771449637"><ele>495.0</ele><time>2026-05-02T13:59:21.999Z</time></trkpt><trkpt lat="43.18100629101453" lon="12.876322548887916"><ele>495.0</ele><time>2026-05-02T13:59:22.999Z</time></trkpt><trkpt lat="43.180932029632196" lon="12.876239058005725"><ele>495.0</ele><time>2026-05-02T13:59:23.999Z</time></trkpt><trkpt lat="43.1808189495164" lon="12.876142025335227"><ele>495.0</ele><time>2026-05-02T13:59:24.999Z</time></trkpt><trkpt lat="43.180706203816385" lon="12.876032426994882"><ele>495.0</ele><time>2026-05-02T13:59:25.999Z</time></trkpt><trkpt lat="43.18061065455673" lon="12.875919733638938"><ele>495.0</ele><time>2026-05-02T13:59:26.999Z</time></trkpt><trkpt lat="43.18052519849722" lon="12.875788594639781"><ele>495.0</ele><time>2026-05-02T13:59:27.999Z</time></trkpt><trkpt lat="43.180428739507505" lon="12.8756332207973"><ele>496.0</ele><time>2026-05-02T13:59:28.999Z</time></trkpt><trkpt lat="43.180340871795224" lon="12.875476123569127"><ele>497.0</ele><time>2026-05-02T13:59:29.999Z</time></trkpt><trkpt lat="43.18026261186862" lon="12.875340654435815"><ele>498.0</ele><time>2026-05-02T13:59:30.999Z</time></trkpt><trkpt lat="43.1802007676556" lon="12.875194505719623"><ele>499.0</ele><time>2026-05-02T13:59:31.999Z</time></trkpt><trkpt lat="43.180142557666095" lon="12.875058608470464"><ele>499.0</ele><time>2026-05-02T13:59:32.999Z</time></trkpt><trkpt lat="43.18007392096034" lon="12.87494098316442"><ele>499.0</ele><time>2026-05-02T13:59:33.999Z</time></trkpt><trkpt lat="43.17998467433867" lon="12.87485102206279"><ele>499.0</ele><time>2026-05-02T13:59:34.999Z</time></trkpt><trkpt lat="43.17988751276588" lon="12.874740759721783"><ele>499.0</ele><time>2026-05-02T13:59:35.999Z</time></trkpt><trkpt lat="43.179800086268735" lon="12.874623776982066"><ele>502.6</ele><time>2026-05-02T13:59:36.999Z</time></trkpt><trkpt lat="43.179736737697525" lon="12.874497177265935"><ele>506.2</ele><time>2026-05-02T13:59:37.999Z</time></trkpt><trkpt lat="43.17968459359343" lon="12.874359420633244"><ele>509.80000000000007</ele><time>2026-05-02T13:59:38.999Z</time></trkpt><trkpt lat="43.179641760350755" lon="12.874217368689415"><ele>513.4</ele><time>2026-05-02T13:59:39.999Z</time></trkpt><trkpt lat="43.179624770798206" lon="12.87407725321296"><ele>517.0</ele><time>2026-05-02T13:59:40.999Z</time></trkpt><trkpt lat="43.17962532277445" lon="12.87392981415391"><ele>517.0</ele><time>2026-05-02T13:59:41.999Z</time></trkpt><trkpt lat="43.17962816583908" lon="12.873788898317223"><ele>517.0</ele><time>2026-05-02T13:59:42.999Z</time></trkpt><trkpt lat="43.17961209388" lon="12.873668719407107"><ele>517.0</ele><time>2026-05-02T13:59:43.999Z</time></trkpt><trkpt lat="43.17957657042565" lon="12.873571785008538"><ele>517.0</ele><time>2026-05-02T13:59:44.999Z</time></trkpt><trkpt lat="43.179512671882904" lon="12.87348935643763"><ele>517.0</ele><time>2026-05-02T13:59:45.999Z</time></trkpt><trkpt lat="43.17945291642044" lon="12.873410384067029"><ele>517.0</ele><time>2026-05-02T13:59:46.999Z</time></trkpt><trkpt lat="43.17939057090851" lon="12.873330523889251"><ele>512.6666666666667</ele><time>2026-05-02T13:59:47.999Z</time></trkpt><trkpt lat="43.17933428289359" lon="12.873259726485779"><ele>508.33333333333337</ele><time>2026-05-02T13:59:49Z</time></trkpt><trkpt lat="43.1792666178726" lon="12.87320803615778"><ele>504.0</ele><time>2026-05-02T13:59:51Z</time></trkpt><trkpt lat="43.17932222457839" lon="12.873119409260775"><ele>499.66666666666663</ele><time>2026-05-02T13:59:57Z</time></trkpt><trkpt lat="43.17939720061425" lon="12.873142066728818"><ele>495.3333333333333</ele><time>2026-05-02T13:59:58Z</time></trkpt><trkpt lat="43.17947789448819" lon="12.873168089255884"><ele>491.0</ele><time>2026-05-02T13:59:59Z</time></trkpt><trkpt lat="43.179564581331014" lon="12.873200142330413"><ele>491.0</ele><time>2026-05-02T14:00:00Z</time></trkpt><trkpt lat="43.17966258199226" lon="12.87326599090008"><ele>491.0</ele><time>2026-05-02T14:00:01Z</time></trkpt><trkpt lat="43.17976026302078" lon="12.873356734696793"><ele>491.0</ele><time>2026-05-02T14:00:02Z</time></trkpt><trkpt lat="43.179866697447224" lon="12.873466338846839"><ele>491.0</ele><time>2026-05-02T14:00:03Z</time></trkpt><trkpt lat="43.17999981608738" lon="12.873598280793798"><ele>490.66666666666663</ele><time>2026-05-02T14:00:04Z</time></trkpt><trkpt lat="43.18015002825335" lon="12.873733848489724"><ele>490.33333333333337</ele><time>2026-05-02T14:00:05Z</time></trkpt><trkpt lat="43.18030800029642" lon="12.873886827444217"><ele>490.0</ele><time>2026-05-02T14:00:06Z</time></trkpt><trkpt lat="43.18045256141706" lon="12.874053446322277"><ele>490.0</ele><time>2026-05-02T14:00:07Z</time></trkpt><trkpt lat="43.180560142893725" lon="12.874264542738036"><ele>490.0</ele><time>2026-05-02T14:00:08Z</time></trkpt><trkpt lat="43.18064742628063" lon="12.874474881314411"><ele>490.0</ele><time>2026-05-02T14:00:09Z</time></trkpt><trkpt lat="43.18072510802825" lon="12.874683836168735"><ele>490.6666666666667</ele><time>2026-05-02T14:00:10Z</time></trkpt><trkpt lat="43.180818818336135" lon="12.87489221849233"><ele>491.33333333333337</ele><time>2026-05-02T14:00:11Z</time></trkpt><trkpt lat="43.180941181332486" lon="12.875076593871013"><ele>492.0</ele><time>2026-05-02T14:00:12Z</time></trkpt><trkpt lat="43.181090791003975" lon="12.875229852063136"><ele>490.66666666666663</ele><time>2026-05-02T14:00:13Z</time></trkpt><trkpt lat="43.18125535371045" lon="12.875378490520282"><ele>489.3333333333333</ele><time>2026-05-02T14:00:14Z</time></trkpt><trkpt lat="43.18141540955594" lon="12.8755107487672"><ele>488.0</ele><time>2026-05-02T14:00:15Z</time></trkpt><trkpt lat="43.18154719132841" lon="12.875623018808486"><ele>488.3333333333333</ele><time>2026-05-02T14:00:16Z</time></trkpt><trkpt lat="43.18166882640551" lon="12.875740738466936"><ele>488.66666666666663</ele><time>2026-05-02T14:00:17Z</time></trkpt><trkpt lat="43.181777156729254" lon="12.875880985997334"><ele>489.0</ele><time>2026-05-02T14:00:18Z</time></trkpt><trkpt lat="43.181864013812" lon="12.876054168283272"><ele>489.0</ele><time>2026-05-02T14:00:19Z</time></trkpt><trkpt lat="43.18192869745588" lon="12.876241991472526"><ele>489.0</ele><time>2026-05-02T14:00:20Z</time></trkpt><trkpt lat="43.18196976317591" lon="12.876438485632194"><ele>489.0</ele><time>2026-05-02T14:00:21Z</time></trkpt><trkpt lat="43.18198586895887" lon="12.876652723902222"><ele>489.0</ele><time>2026-05-02T14:00:22Z</time></trkpt><trkpt lat="43.181973564430876" lon="12.876871931596586"><ele>489.0</ele><time>2026-05-02T14:00:23Z</time></trkpt><trkpt lat="43.181931444420016" lon="12.877095817819725"><ele>489.0</ele><time>2026-05-02T14:00:24Z</time></trkpt><trkpt lat="43.18187121655632" lon="12.877290358206407"><ele>489.0</ele><time>2026-05-02T14:00:25Z</time></trkpt><trkpt lat="43.1817967784055" lon="12.877459516771106"><ele>489.0</ele><time>2026-05-02T14:00:26Z</time></trkpt><trkpt lat="43.1817411051129" lon="12.877648902848934"><ele>489.0</ele><time>2026-05-02T14:00:27Z</time></trkpt><trkpt lat="43.181730179985045" lon="12.877847443176972"><ele>489.0</ele><time>2026-05-02T14:00:28Z</time></trkpt><trkpt lat="43.181770803034254" lon="12.878044577028065"><ele>488.66666666666663</ele><time>2026-05-02T14:00:29Z</time></trkpt><trkpt lat="43.18186472471498" lon="12.87822091938177"><ele>488.3333333333333</ele><time>2026-05-02T14:00:30Z</time></trkpt><trkpt lat="43.18198566351776" lon="12.878360287635266"><ele>488.0</ele><time>2026-05-02T14:00:31Z</time></trkpt><trkpt lat="43.182131059231914" lon="12.878452314784562"><ele>488.0</ele><time>2026-05-02T14:00:32Z</time></trkpt><trkpt lat="43.18225939332389" lon="12.878534419851254"><ele>488.0</ele><time>2026-05-02T14:00:33Z</time></trkpt><trkpt lat="43.18237584111172" lon="12.87862052816048"><ele>488.0</ele><time>2026-05-02T14:00:34Z</time></trkpt><trkpt lat="43.182485317379914" lon="12.878707668977246"><ele>488.0</ele><time>2026-05-02T14:00:35Z</time></trkpt><trkpt lat="43.18259341849795" lon="12.878793847305205"><ele>485.75</ele><time>2026-05-02T14:00:36Z</time></trkpt><trkpt lat="43.182708621059874" lon="12.87888483102179"><ele>483.5</ele><time>2026-05-02T14:00:37Z</time></trkpt><trkpt lat="43.182828629814914" lon="12.878980576473479"><ele>481.25</ele><time>2026-05-02T14:00:38Z</time></trkpt><trkpt lat="43.18295081135571" lon="12.87907841375248"><ele>479.0</ele><time>2026-05-02T14:00:39Z</time></trkpt><trkpt lat="43.18308203577514" lon="12.87918294639388"><ele>479.0</ele><time>2026-05-02T14:00:40Z</time></trkpt><trkpt lat="43.18321300579409" lon="12.879289538932525"><ele>479.0</ele><time>2026-05-02T14:00:41Z</time></trkpt><trkpt lat="43.183345072741076" lon="12.879400678664016"><ele>479.0</ele><time>2026-05-02T14:00:42Z</time></trkpt><trkpt lat="43.18347869032146" lon="12.87952618231107"><ele>479.0</ele><time>2026-05-02T14:00:43Z</time></trkpt><trkpt lat="43.18361783283731" lon="12.87967004165974"><ele>479.0</ele><time>2026-05-02T14:00:44Z</time></trkpt><trkpt lat="43.18373906338832" lon="12.879811307030517"><ele>479.0</ele><time>2026-05-02T14:00:45Z</time></trkpt><trkpt lat="43.183851069832215" lon="12.879943574986948"><ele>479.0</ele><time>2026-05-02T14:00:46Z</time></trkpt><trkpt lat="43.18394571751269" lon="12.880054473842304"><ele>479.0</ele><time>2026-05-02T14:00:47Z</time></trkpt><trkpt lat="43.18402198051054" lon="12.880147818415836"><ele>479.0</ele><time>2026-05-02T14:00:48Z</time></trkpt><trkpt lat="43.18408950133803" lon="12.88023498614348"><ele>479.0</ele><time>2026-05-02T14:00:49Z</time></trkpt><trkpt lat="43.184135370968086" lon="12.880303886859862"><ele>479.0</ele><time>2026-05-02T14:00:49.999Z</time></trkpt><trkpt lat="43.18418836009605" lon="12.880391363564337"><ele>479.16666666666663</ele><time>2026-05-02T14:00:51.999Z</time></trkpt><trkpt lat="43.18423901671992" lon="12.8804460453124"><ele>479.3333333333333</ele><time>2026-05-02T14:06:27Z</time></trkpt><trkpt lat="43.184303178889536" lon="12.880491457000096"><ele>479.5</ele><time>2026-05-02T14:06:29Z</time></trkpt><trkpt lat="43.18438202424481" lon="12.88059916561213"><ele>479.66666666666663</ele><time>2026-05-02T14:06:31Z</time></trkpt><trkpt lat="43.18442987850408" lon="12.88065795985419"><ele>479.8333333333333</ele><time>2026-05-02T14:06:32Z</time></trkpt><trkpt lat="43.18447591383874" lon="12.880725662230981"><ele>480.0</ele><time>2026-05-02T14:06:33Z</time></trkpt><trkpt lat="43.18454477855902" lon="12.880840310495149"><ele>480.1666666666667</ele><time>2026-05-02T14:06:35Z</time></trkpt><trkpt lat="43.18460630418724" lon="12.880951363238742"><ele>480.33333333333337</ele><time>2026-05-02T14:06:37Z</time></trkpt><trkpt lat="43.18468606554498" lon="12.881049710084074"><ele>480.5</ele><time>2026-05-02T14:06:39Z</time></trkpt><trkpt lat="43.18475268010142" lon="12.881078184917536"><ele>480.6666666666667</ele><time>2026-05-02T14:06:41Z</time></trkpt><trkpt lat="43.18481648307489" lon="12.881128565543866"><ele>480.83333333333337</ele><time>2026-05-02T14:06:56Z</time></trkpt><trkpt lat="43.1848467952272" lon="12.881244869838913"><ele>481.0</ele><time>2026-05-02T14:07:08Z</time></trkpt><trkpt lat="43.18489923461594" lon="12.881351958880373"><ele>483.20000000000005</ele><time>2026-05-02T14:07:10Z</time></trkpt><trkpt lat="43.18500234891063" lon="12.88144558031103"><ele>485.40000000000003</ele><time>2026-05-02T14:07:12Z</time></trkpt><trkpt lat="43.185060826572744" lon="12.881489071562978"><ele>487.6</ele><time>2026-05-02T14:07:13Z</time></trkpt><trkpt lat="43.1851156303276" lon="12.881532240203592"><ele>489.8</ele><time>2026-05-02T14:07:14Z</time></trkpt><trkpt lat="43.18515976470365" lon="12.881608247160532"><ele>492.0</ele><time>2026-05-02T14:07:15Z</time></trkpt><trkpt lat="43.18527486496275" lon="12.881704563513761"><ele>490.0</ele><time>2026-05-02T14:07:17Z</time></trkpt><trkpt lat="43.18538122112424" lon="12.881822975278785"><ele>488.0</ele><time>2026-05-02T14:07:19Z</time></trkpt><trkpt lat="43.185459364889816" lon="12.88190497179058"><ele>486.0</ele><time>2026-05-02T14:07:20Z</time></trkpt><trkpt lat="43.185558433595396" lon="12.882012853127902"><ele>484.0</ele><time>2026-05-02T14:07:22Z</time></trkpt><trkpt lat="43.185663527087435" lon="12.882078137823365"><ele>488.79999999999995</ele><time>2026-05-02T14:07:23.999Z</time></trkpt><trkpt lat="43.18575655825499" lon="12.8820934427756"><ele>493.59999999999997</ele><time>2026-05-02T14:07:24.999Z</time></trkpt><trkpt lat="43.1858694212653" lon="12.882117692952955"><ele>498.4</ele><time>2026-05-02T14:07:25.999Z</time></trkpt><trkpt lat="43.185984181430435" lon="12.882167245150919"><ele>503.2</ele><time>2026-05-02T14:07:26.999Z</time></trkpt><trkpt lat="43.18608687823808" lon="12.882251250647178"><ele>508.0</ele><time>2026-05-02T14:07:27.999Z</time></trkpt><trkpt lat="43.18621796315341" lon="12.88232794945342"><ele>508.0</ele><time>2026-05-02T14:07:28.999Z</time></trkpt><trkpt lat="43.18632392263566" lon="12.882396410662523"><ele>507.99999999999994</ele><time>2026-05-02T14:07:29.999Z</time></trkpt><trkpt lat="43.18641056983763" lon="12.882458206270332"><ele>507.99999999999994</ele><time>2026-05-02T14:07:30.999Z</time></trkpt><trkpt lat="43.1864909295133" lon="12.882540400172427"><ele>508.0</ele><time>2026-05-02T14:07:31.999Z</time></trkpt><trkpt lat="43.186573172494576" lon="12.882613682198071"><ele>508.0</ele><time>2026-05-02T14:07:32.999Z</time></trkpt><trkpt lat="43.186654407825664" lon="12.882681050438087"><ele>512.5</ele><time>2026-05-02T14:07:33.999Z</time></trkpt><trkpt lat="43.18673942771679" lon="12.882728508368631"><ele>517.0</ele><time>2026-05-02T14:07:34.999Z</time></trkpt><trkpt lat="43.18681575767099" lon="12.882796287833058"><ele>521.5</ele><time>2026-05-02T14:07:35.999Z</time></trkpt><trkpt lat="43.18688549181012" lon="12.882863077566054"><ele>526.0</ele><time>2026-05-02T14:07:36.999Z</time></trkpt><trkpt lat="43.18696693748681" lon="12.8829342012729"><ele>530.5</ele><time>2026-05-02T14:07:37.999Z</time></trkpt><trkpt lat="43.18701944291036" lon="12.882988590041597"><ele>535.0</ele><time>2026-05-02T14:07:38.999Z</time></trkpt><trkpt lat="43.18709255455373" lon="12.883077388830511"><ele>535.0</ele><time>2026-05-02T14:07:40.999Z</time></trkpt><trkpt lat="43.18712703594809" lon="12.883180668365798"><ele>535.0</ele><time>2026-05-02T14:07:46.999Z</time></trkpt><trkpt lat="43.18716193702265" lon="12.883262150166804"><ele>535.0</ele><time>2026-05-02T14:07:48.999Z</time></trkpt><trkpt lat="43.1871843793014" lon="12.883365254605177"><ele>535.0</ele><time>2026-05-02T14:07:51.999Z</time></trkpt><trkpt lat="43.18722402818186" lon="12.883471124907505"><ele>535.0</ele><time>2026-05-02T14:07:54.999Z</time></trkpt><trkpt lat="43.18725817669243" lon="12.883561335753793"><ele>535.0</ele><time>2026-05-02T14:07:57.999Z</time></trkpt><trkpt lat="43.187297702122976" lon="12.883637999679603"><ele>538.0</ele><time>2026-05-02T14:08:00.999Z</time></trkpt><trkpt lat="43.18733617730015" lon="12.883736590314616"><ele>541.0</ele><time>2026-05-02T14:08:02.999Z</time></trkpt><trkpt lat="43.18736752029583" lon="12.883813618470237"><ele>544.0</ele><time>2026-05-02T14:08:07.999Z</time></trkpt><trkpt lat="43.18739561066591" lon="12.883895751292897"><ele>547.0</ele><time>2026-05-02T14:08:09.999Z</time></trkpt><trkpt lat="43.18745035472429" lon="12.88400836957843"><ele>550.0</ele><time>2026-05-02T14:08:13Z</time></trkpt><trkpt lat="43.187455672949326" lon="12.884119163594523"><ele>553.0</ele><time>2026-05-02T14:08:15Z</time></trkpt><trkpt lat="43.18739526573181" lon="12.884169253973635"><ele>553.0</ele><time>2026-05-02T14:08:16Z</time></trkpt><trkpt lat="43.18732931765677" lon="12.884219659250041"><ele>553.0</ele><time>2026-05-02T14:08:17Z</time></trkpt><trkpt lat="43.18723989733758" lon="12.884304410808799"><ele>553.0</ele><time>2026-05-02T14:08:19Z</time></trkpt><trkpt lat="43.18718450559129" lon="12.884362596041246"><ele>553.0</ele><time>2026-05-02T14:08:20Z</time></trkpt><trkpt lat="43.18711929369302" lon="12.884392741745845"><ele>553.0</ele><time>2026-05-02T14:08:21Z</time></trkpt><trkpt lat="43.18703236879374" lon="12.884465089782154"><ele>553.0</ele><time>2026-05-02T14:08:23Z</time></trkpt><trkpt lat="43.186932532256456" lon="12.884492744209027"><ele>551.1999999999999</ele><time>2026-05-02T14:08:25Z</time></trkpt><trkpt lat="43.1868626597813" lon="12.884520814472756"><ele>549.4</ele><time>2026-05-02T14:08:26Z</time></trkpt><trkpt lat="43.186752992530295" lon="12.884561993121304"><ele>547.5999999999999</ele><time>2026-05-02T14:08:28Z</time></trkpt><trkpt lat="43.18668722005003" lon="12.884581800288005"><ele>545.8</ele><time>2026-05-02T14:08:29Z</time></trkpt><trkpt lat="43.186600337110754" lon="12.884583203222801"><ele>544.0</ele><time>2026-05-02T14:08:30Z</time></trkpt><trkpt lat="43.18647116945905" lon="12.884643590207693"><ele>544.0</ele><time>2026-05-02T14:08:32Z</time></trkpt><trkpt lat="43.18637056980077" lon="12.884698396140967"><ele>544.0</ele><time>2026-05-02T14:08:34Z</time></trkpt><trkpt lat="43.18631838206223" lon="12.884805372128849"><ele>544.0</ele><time>2026-05-02T14:08:36Z</time></trkpt><trkpt lat="43.18637430059481" lon="12.884907645401118"><ele>544.0</ele><time>2026-05-02T14:08:38Z</time></trkpt><trkpt lat="43.186464571760766" lon="12.88498711289492"><ele>544.0</ele><time>2026-05-02T14:08:40Z</time></trkpt><trkpt lat="43.18653924209322" lon="12.885053415005192"><ele>548.3333333333334</ele><time>2026-05-02T14:08:42Z</time></trkpt><trkpt lat="43.18659815961873" lon="12.885086260895198"><ele>552.6666666666667</ele><time>2026-05-02T14:08:44Z</time></trkpt><trkpt lat="43.18667543877059" lon="12.885114674268042"><ele>557.0</ele><time>2026-05-02T14:08:47Z</time></trkpt><trkpt lat="43.186742856635675" lon="12.885117305886936"><ele>561.3333333333334</ele><time>2026-05-02T14:08:49Z</time></trkpt><trkpt lat="43.18681354544731" lon="12.885130212603547"><ele>565.6666666666666</ele><time>2026-05-02T14:08:51Z</time></trkpt><trkpt lat="43.18691755158333" lon="12.885205112481396"><ele>570.0</ele><time>2026-05-02T14:08:53Z</time></trkpt><trkpt lat="43.186980835386976" lon="12.885210421589681"><ele>570.0</ele><time>2026-05-02T14:08:54Z</time></trkpt><trkpt lat="43.18706312374747" lon="12.885183949508017"><ele>570.0</ele><time>2026-05-02T14:08:57Z</time></trkpt><trkpt lat="43.1871333186611" lon="12.88515829288478"><ele>570.0</ele><time>2026-05-02T14:08:59Z</time></trkpt><trkpt lat="43.18719811678275" lon="12.885135256993381"><ele>570.0</ele><time>2026-05-02T14:09:01Z</time></trkpt><trkpt lat="43.18726297395788" lon="12.88513112754839"><ele>570.0</ele><time>2026-05-02T14:09:02Z</time></trkpt><trkpt lat="43.18733950046033" lon="12.88511774722815"><ele>570.0</ele><time>2026-05-02T14:09:03Z</time></trkpt><trkpt lat="43.18741591857511" lon="12.885090225978374"><ele>570.0</ele><time>2026-05-02T14:09:04Z</time></trkpt><trkpt lat="43.187485897527345" lon="12.885063540887844"><ele>573.8571428571429</ele><time>2026-05-02T14:09:05Z</time></trkpt><trkpt lat="43.18755440173387" lon="12.88503394757438"><ele>577.7142857142858</ele><time>2026-05-02T14:09:06Z</time></trkpt><trkpt lat="43.18761812935886" lon="12.885013231335856"><ele>581.5714285714287</ele><time>2026-05-02T14:09:07Z</time></trkpt><trkpt lat="43.18769198724027" lon="12.884980868127014"><ele>585.4285714285714</ele><time>2026-05-02T14:09:08Z</time></trkpt><trkpt lat="43.18776133646495" lon="12.884956499453802"><ele>589.2857142857143</ele><time>2026-05-02T14:09:09Z</time></trkpt><trkpt lat="43.18784235834955" lon="12.884925343501173"><ele>593.1428571428572</ele><time>2026-05-02T14:09:10Z</time></trkpt><trkpt lat="43.18791495693966" lon="12.884913599396409"><ele>597.0</ele><time>2026-05-02T14:09:11Z</time></trkpt><trkpt lat="43.18798161391966" lon="12.884919327760503"><ele>597.0</ele><time>2026-05-02T14:09:12Z</time></trkpt><trkpt lat="43.1880542879564" lon="12.884943903351827"><ele>597.0</ele><time>2026-05-02T14:09:13Z</time></trkpt><trkpt lat="43.18813869289941" lon="12.88496939511701"><ele>597.0</ele><time>2026-05-02T14:09:14Z</time></trkpt><trkpt lat="43.18822925269893" lon="12.884972075340512"><ele>597.0</ele><time>2026-05-02T14:09:15Z</time></trkpt><trkpt lat="43.18834013856724" lon="12.88492730276522"><ele>597.0</ele><time>2026-05-02T14:09:16Z</time></trkpt><trkpt lat="43.1884454546548" lon="12.884866407533886"><ele>600.4</ele><time>2026-05-02T14:09:17Z</time></trkpt><trkpt lat="43.18855610738896" lon="12.884781349456299"><ele>603.8000000000001</ele><time>2026-05-02T14:09:18Z</time></trkpt><trkpt lat="43.188654600796355" lon="12.88469917711188"><ele>607.2</ele><time>2026-05-02T14:09:19Z</time></trkpt><trkpt lat="43.18875175886268" lon="12.884619737883334"><ele>610.6</ele><time>2026-05-02T14:09:20Z</time></trkpt><trkpt lat="43.188830332077316" lon="12.88455138452988"><ele>614.0</ele><time>2026-05-02T14:09:21Z</time></trkpt><trkpt lat="43.18891776749226" lon="12.884500615156064"><ele>614.0</ele><time>2026-05-02T14:09:22Z</time></trkpt><trkpt lat="43.1889798481025" lon="12.88445687890363"><ele>614.0</ele><time>2026-05-02T14:09:23Z</time></trkpt><trkpt lat="43.188979945994205" lon="12.884351097897936"><ele>614.0</ele><time>2026-05-02T14:09:25Z</time></trkpt><trkpt lat="43.18883429691786" lon="12.88429511151111"><ele>614.0</ele><time>2026-05-02T14:09:27Z</time></trkpt><trkpt lat="43.18878295360842" lon="12.884202113296233"><ele>614.0</ele><time>2026-05-02T14:09:28Z</time></trkpt><trkpt lat="43.18876982553637" lon="12.884046784686452"><ele>614.8</ele><time>2026-05-02T14:09:29Z</time></trkpt><trkpt lat="43.18875447074343" lon="12.8838945372198"><ele>615.5999999999999</ele><time>2026-05-02T14:09:30Z</time></trkpt><trkpt lat="43.18871564862205" lon="12.883755155631622"><ele>616.4</ele><time>2026-05-02T14:09:31Z</time></trkpt><trkpt lat="43.1886637073994" lon="12.883638806048914"><ele>617.1999999999999</ele><time>2026-05-02T14:09:32Z</time></trkpt><trkpt lat="43.18861222010374" lon="12.883510904250729"><ele>618.0</ele><time>2026-05-02T14:09:33Z</time></trkpt><trkpt lat="43.18857250882799" lon="12.883367444601758"><ele>618.0</ele><time>2026-05-02T14:09:34Z</time></trkpt><trkpt lat="43.18854008549085" lon="12.88323073533401"><ele>618.0</ele><time>2026-05-02T14:09:35Z</time></trkpt><trkpt lat="43.18849730713096" lon="12.883094795717081"><ele>618.0</ele><time>2026-05-02T14:09:36Z</time></trkpt><trkpt lat="43.18844876788591" lon="12.882972306846419"><ele>618.0</ele><time>2026-05-02T14:09:37Z</time></trkpt><trkpt lat="43.18841432827351" lon="12.882841827268495"><ele>618.0</ele><time>2026-05-02T14:09:38Z</time></trkpt><trkpt lat="43.188391501332944" lon="12.882723140471642"><ele>618.0</ele><time>2026-05-02T14:09:39Z</time></trkpt><trkpt lat="43.18836040298908" lon="12.882611184022165"><ele>618.0</ele><time>2026-05-02T14:09:39.999Z</time></trkpt><trkpt lat="43.188314630559674" lon="12.88249127488834"><ele>618.0</ele><time>2026-05-02T14:09:41.999Z</time></trkpt><trkpt lat="43.188397521016775" lon="12.882489562245164"><ele>618.0</ele><time>2026-05-02T14:09:46.999Z</time></trkpt><trkpt lat="43.188460984783426" lon="12.882580914498478"><ele>618.0</ele><time>2026-05-02T14:09:48.999Z</time></trkpt><trkpt lat="43.18858622364701" lon="12.882710840693377"><ele>618.0</ele><time>2026-05-02T14:09:50.999Z</time></trkpt><trkpt lat="43.18872345182914" lon="12.882827097286492"><ele>618.0</ele><time>2026-05-02T14:09:51.999Z</time></trkpt><trkpt lat="43.18882787176797" lon="12.882929899444143"><ele>618.0</ele><time>2026-05-02T14:09:52.999Z</time></trkpt><trkpt lat="43.18891895798801" lon="12.883010642517599"><ele>618.0</ele><time>2026-05-02T14:09:53.999Z</time></trkpt><trkpt lat="43.18901383348076" lon="12.883082066971044"><ele>624.25</ele><time>2026-05-02T14:09:54.999Z</time></trkpt><trkpt lat="43.18911762229781" lon="12.883158239057947"><ele>630.5</ele><time>2026-05-02T14:09:55.999Z</time></trkpt><trkpt lat="43.189237180736384" lon="12.883244789167165"><ele>636.75</ele><time>2026-05-02T14:09:56.999Z</time></trkpt><trkpt lat="43.18936920514802" lon="12.883340833411633"><ele>643.0</ele><time>2026-05-02T14:09:57.999Z</time></trkpt><trkpt lat="43.1894818786886" lon="12.883437469616569"><ele>643.0</ele><time>2026-05-02T14:09:58.999Z</time></trkpt><trkpt lat="43.18957735637744" lon="12.883514806529492"><ele>643.0</ele><time>2026-05-02T14:09:59.999Z</time></trkpt><trkpt lat="43.18966744426647" lon="12.883582406819922"><ele>643.0</ele><time>2026-05-02T14:10:00.999Z</time></trkpt><trkpt lat="43.189773718763526" lon="12.88365926496945"><ele>643.0</ele><time>2026-05-02T14:10:01.999Z</time></trkpt><trkpt lat="43.1899049108989" lon="12.883748724007866"><ele>654.25</ele><time>2026-05-02T14:10:02.999Z</time></trkpt><trkpt lat="43.19001631707915" lon="12.8838457822307"><ele>665.5</ele><time>2026-05-02T14:10:03.999Z</time></trkpt><trkpt lat="43.19011777049544" lon="12.88394919725022"><ele>676.75</ele><time>2026-05-02T14:10:04.999Z</time></trkpt><trkpt lat="43.190216312772044" lon="12.884057299230875"><ele>688.0</ele><time>2026-05-02T14:10:05.999Z</time></trkpt><trkpt lat="43.19031356939191" lon="12.884165724655992"><ele>685.75</ele><time>2026-05-02T14:10:06.999Z</time></trkpt><trkpt lat="43.19040926312632" lon="12.884270734732208"><ele>683.5</ele><time>2026-05-02T14:10:07.999Z</time></trkpt><trkpt lat="43.190502752946884" lon="12.884373520210056"><ele>681.25</ele><time>2026-05-02T14:10:08.999Z</time></trkpt><trkpt lat="43.190593682733166" lon="12.884472806119753"><ele>679.0</ele><time>2026-05-02T14:10:09.999Z</time></trkpt><trkpt lat="43.190685597322144" lon="12.884571791974635"><ele>688.25</ele><time>2026-05-02T14:10:10.999Z</time></trkpt><trkpt lat="43.19079816844033" lon="12.88469447130972"><ele>697.5</ele><time>2026-05-02T14:10:11.999Z</time></trkpt><trkpt lat="43.19089031628953" lon="12.884782139819544"><ele>706.75</ele><time>2026-05-02T14:10:12.999Z</time></trkpt><trkpt lat="43.19097241596007" lon="12.884885337429617"><ele>716.0</ele><time>2026-05-02T14:10:13.999Z</time></trkpt><trkpt lat="43.19104271935079" lon="12.88498483524663"><ele>716.0</ele><time>2026-05-02T14:10:14.999Z</time></trkpt><trkpt lat="43.19112561852623" lon="12.885064591795496"><ele>716.0</ele><time>2026-05-02T14:10:15.999Z</time></trkpt><trkpt lat="43.1912018682413" lon="12.885110124230918"><ele>716.0</ele><time>2026-05-02T14:10:17Z</time></trkpt><trkpt lat="43.19128169411703" lon="12.885155932508994"><ele>716.0</ele><time>2026-05-02T14:10:18Z</time></trkpt><trkpt lat="43.191349848794616" lon="12.885203721910571"><ele>716.0</ele><time>2026-05-02T14:10:19Z</time></trkpt><trkpt lat="43.19142832871694" lon="12.885256389608703"><ele>716.0</ele><time>2026-05-02T14:10:20Z</time></trkpt><trkpt lat="43.19150222318202" lon="12.885314861151167"><ele>716.5999999999999</ele><time>2026-05-02T14:10:21Z</time></trkpt><trkpt lat="43.19160299284779" lon="12.885364301141303"><ele>717.2</ele><time>2026-05-02T14:10:22Z</time></trkpt><trkpt lat="43.19170455010766" lon="12.885397001728343"><ele>717.8</ele><time>2026-05-02T14:10:23Z</time></trkpt><trkpt lat="43.191796701194235" lon="12.885422414469376"><ele>718.4000000000001</ele><time>2026-05-02T14:10:24Z</time></trkpt><trkpt lat="43.191861164249765" lon="12.885423620369505"><ele>719.0</ele><time>2026-05-02T14:10:25Z</time></trkpt><trkpt lat="43.19195386634797" lon="12.88533858635869"><ele>719.0</ele><time>2026-05-02T14:10:27Z</time></trkpt><trkpt lat="43.1919998105481" lon="12.88525024999141"><ele>719.0</ele><time>2026-05-02T14:10:28Z</time></trkpt><trkpt lat="43.19206203235187" lon="12.885188910530557"><ele>719.0</ele><time>2026-05-02T14:10:29Z</time></trkpt><trkpt lat="43.192158650791974" lon="12.885147471994353"><ele>719.0</ele><time>2026-05-02T14:10:30Z</time></trkpt><trkpt lat="43.19225091188315" lon="12.885137415106591"><ele>719.0</ele><time>2026-05-02T14:10:31Z</time></trkpt><trkpt lat="43.19235801999875" lon="12.885187018045395"><ele>720.1666666666666</ele><time>2026-05-02T14:10:32Z</time></trkpt><trkpt lat="43.19245500836379" lon="12.885228300316854"><ele>721.3333333333333</ele><time>2026-05-02T14:10:33Z</time></trkpt><trkpt lat="43.19253757474863" lon="12.885259850068783"><ele>722.5</ele><time>2026-05-02T14:10:34Z</time></trkpt><trkpt lat="43.19263140685194" lon="12.885277831672092"><ele>723.6666666666666</ele><time>2026-05-02T14:10:35Z</time></trkpt><trkpt lat="43.19270587547238" lon="12.885293440725123"><ele>724.8333333333334</ele><time>2026-05-02T14:10:36Z</time></trkpt><trkpt lat="43.19278028790032" lon="12.885293643630817"><ele>726.0</ele><time>2026-05-02T14:10:38Z</time></trkpt><trkpt lat="43.192842886531565" lon="12.885282445673504"><ele>726.0</ele><time>2026-05-02T14:10:39Z</time></trkpt><trkpt lat="43.19295733076547" lon="12.885257490904397"><ele>726.0</ele><time>2026-05-02T14:10:40Z</time></trkpt><trkpt lat="43.19302437942825" lon="12.885286019375018"><ele>726.0</ele><time>2026-05-02T14:10:41Z</time></trkpt><trkpt lat="43.19312715547293" lon="12.885305003956372"><ele>726.0</ele><time>2026-05-02T14:10:43Z</time></trkpt><trkpt lat="43.19319433109818" lon="12.88526071196386"><ele>726.0</ele><time>2026-05-02T14:10:44Z</time></trkpt><trkpt lat="43.19326294262494" lon="12.885236160476044"><ele>726.0</ele><time>2026-05-02T14:10:45Z</time></trkpt><trkpt lat="43.193327996588984" lon="12.885220404315987"><ele>730.1666666666666</ele><time>2026-05-02T14:10:46Z</time></trkpt><trkpt lat="43.1934078661295" lon="12.885238611001169"><ele>734.3333333333334</ele><time>2026-05-02T14:10:47Z</time></trkpt><trkpt lat="43.19347568172594" lon="12.88527125278272"><ele>738.5</ele><time>2026-05-02T14:10:48Z</time></trkpt><trkpt lat="43.19354069767793" lon="12.885303895585617"><ele>742.6666666666667</ele><time>2026-05-02T14:10:49Z</time></trkpt><trkpt lat="43.193601434593916" lon="12.885355798141031"><ele>746.8333333333334</ele><time>2026-05-02T14:10:50Z</time></trkpt><trkpt lat="43.19370601504466" lon="12.88546397926248"><ele>751.0</ele><time>2026-05-02T14:10:52Z</time></trkpt><trkpt lat="43.19378004518863" lon="12.885541183971046"><ele>751.0</ele><time>2026-05-02T14:10:53Z</time></trkpt><trkpt lat="43.19383992457602" lon="12.88560028394969"><ele>751.0</ele><time>2026-05-02T14:10:54Z</time></trkpt><trkpt lat="43.19390752434481" lon="12.885658744484925"><ele>751.0</ele><time>2026-05-02T14:10:55Z</time></trkpt><trkpt lat="43.193946443027" lon="12.885744103875242"><ele>751.0</ele><time>2026-05-02T14:10:56Z</time></trkpt><trkpt lat="43.19402083814171" lon="12.885782457815942"><ele>751.0</ele><time>2026-05-02T14:10:57Z</time></trkpt><trkpt lat="43.194085247171266" lon="12.885852237435612"><ele>751.0</ele><time>2026-05-02T14:10:58Z</time></trkpt><trkpt lat="43.19414693670247" lon="12.88592673414632"><ele>753.6666666666667</ele><time>2026-05-02T14:10:59Z</time></trkpt><trkpt lat="43.19421087036238" lon="12.886015369302246"><ele>756.3333333333334</ele><time>2026-05-02T14:11:00Z</time></trkpt><trkpt lat="43.19427471595923" lon="12.886060269934966"><ele>759.0</ele><time>2026-05-02T14:11:01Z</time></trkpt><trkpt lat="43.19428285616502" lon="12.886149798199778"><ele>761.6666666666666</ele><time>2026-05-02T14:11:03Z</time></trkpt><trkpt lat="43.19437526855025" lon="12.886096582628191"><ele>764.3333333333333</ele><time>2026-05-02T14:11:07Z</time></trkpt><trkpt lat="43.19438029539697" lon="12.885999697042827"><ele>767.0</ele><time>2026-05-02T14:11:08Z</time></trkpt><trkpt lat="43.19434285421202" lon="12.885859481266245"><ele>767.0</ele><time>2026-05-02T14:11:10Z</time></trkpt><trkpt lat="43.19431539410604" lon="12.88573237791896"><ele>767.0</ele><time>2026-05-02T14:11:12Z</time></trkpt><trkpt lat="43.19439894233639" lon="12.885759807406677"><ele>767.0</ele><time>2026-05-02T14:11:16Z</time></trkpt><trkpt lat="43.19450795584188" lon="12.885878896508249"><ele>767.0</ele><time>2026-05-02T14:11:18Z</time></trkpt><trkpt lat="43.194548450138505" lon="12.886010304066088"><ele>767.0</ele><time>2026-05-02T14:11:19Z</time></trkpt><trkpt lat="43.194605053763375" lon="12.886123346933207"><ele>767.0</ele><time>2026-05-02T14:11:20Z</time></trkpt><trkpt lat="43.194637467242934" lon="12.886233334445492"><ele>767.0</ele><time>2026-05-02T14:11:21Z</time></trkpt><trkpt lat="43.19467962217695" lon="12.88633112867836"><ele>767.0</ele><time>2026-05-02T14:11:22Z</time></trkpt><trkpt lat="43.19473379852818" lon="12.886436738924058"><ele>767.0</ele><time>2026-05-02T14:11:23Z</time></trkpt><trkpt lat="43.19479490038574" lon="12.886561721465508"><ele>767.0</ele><time>2026-05-02T14:11:24Z</time></trkpt><trkpt lat="43.194835765277915" lon="12.886654470321863"><ele>771.8333333333333</ele><time>2026-05-02T14:11:25Z</time></trkpt><trkpt lat="43.1949169574763" lon="12.88675568922935"><ele>776.6666666666666</ele><time>2026-05-02T14:11:27Z</time></trkpt><trkpt lat="43.19497703169174" lon="12.886782296622487"><ele>781.5</ele><time>2026-05-02T14:11:28Z</time></trkpt><trkpt lat="43.195055697816166" lon="12.88679753423766"><ele>786.3333333333333</ele><time>2026-05-02T14:11:29Z</time></trkpt><trkpt lat="43.195149717269906" lon="12.88682642008028"><ele>791.1666666666666</ele><time>2026-05-02T14:11:30Z</time></trkpt><trkpt lat="43.19522119943127" lon="12.886884134084394"><ele>796.0</ele><time>2026-05-02T14:11:31Z</time></trkpt><trkpt lat="43.19530402627373" lon="12.886959560423712"><ele>796.0</ele><time>2026-05-02T14:11:32Z</time></trkpt><trkpt lat="43.195390559071356" lon="12.88701000029734"><ele>796.0</ele><time>2026-05-02T14:11:33Z</time></trkpt><trkpt lat="43.195464968422925" lon="12.887050794196602"><ele>796.0</ele><time>2026-05-02T14:11:34Z</time></trkpt><trkpt lat="43.19555286070251" lon="12.887118679873938"><ele>796.0</ele><time>2026-05-02T14:11:35Z</time></trkpt><trkpt lat="43.195659076824164" lon="12.8871933830932"><ele>796.0</ele><time>2026-05-02T14:11:36Z</time></trkpt><trkpt lat="43.19575241837221" lon="12.887265618636034"><ele>804.1999999999999</ele><time>2026-05-02T14:11:37Z</time></trkpt><trkpt lat="43.19585129826997" lon="12.887333701419571"><ele>812.4</ele><time>2026-05-02T14:11:38Z</time></trkpt><trkpt lat="43.195947994798985" lon="12.88741004513963"><ele>820.6</ele><time>2026-05-02T14:11:39Z</time></trkpt><trkpt lat="43.196029769689545" lon="12.88747159552588"><ele>828.8</ele><time>2026-05-02T14:11:40Z</time></trkpt><trkpt lat="43.1961070982058" lon="12.887522310286297"><ele>837.0</ele><time>2026-05-02T14:11:41Z</time></trkpt><trkpt lat="43.19620051737596" lon="12.887560560438246"><ele>836.6666666666666</ele><time>2026-05-02T14:11:42Z</time></trkpt><trkpt lat="43.19628461118935" lon="12.887637132911303"><ele>836.3333333333333</ele><time>2026-05-02T14:11:43Z</time></trkpt><trkpt lat="43.19631500601283" lon="12.887751175898945"><ele>836.0</ele><time>2026-05-02T14:11:44Z</time></trkpt><trkpt lat="43.19631265744397" lon="12.88787322599593"><ele>835.6666666666666</ele><time>2026-05-02T14:11:45Z</time></trkpt><trkpt lat="43.19628830788322" lon="12.8879880832792"><ele>835.3333333333333</ele><time>2026-05-02T14:11:46Z</time></trkpt><trkpt lat="43.19626027505012" lon="12.888080014662977"><ele>835.0</ele><time>2026-05-02T14:11:47Z</time></trkpt><trkpt lat="43.19632391157554" lon="12.888102782370963"><ele>834.9999999999999</ele><time>2026-05-02T14:11:49.999Z</time></trkpt><trkpt lat="43.19637852705606" lon="12.888051486772719"><ele>835.0</ele><time>2026-05-02T14:11:50.999Z</time></trkpt><trkpt lat="43.19643642273693" lon="12.887967542343004"><ele>835.0</ele><time>2026-05-02T14:11:51.999Z</time></trkpt><trkpt lat="43.196506683515935" lon="12.88787150224476"><ele>835.0</ele><time>2026-05-02T14:11:52.999Z</time></trkpt><trkpt lat="43.196530729882745" lon="12.887775923665883"><ele>834.9999999999999</ele><time>2026-05-02T14:11:53.999Z</time></trkpt><trkpt lat="43.19653779170877" lon="12.887658296909454"><ele>835.0</ele><time>2026-05-02T14:11:54.999Z</time></trkpt><trkpt lat="43.19651734606591" lon="12.887546474550216"><ele>842.6666666666666</ele><time>2026-05-02T14:11:55.999Z</time></trkpt><trkpt lat="43.19650968327623" lon="12.887447908221585"><ele>850.3333333333333</ele><time>2026-05-02T14:11:57.999Z</time></trkpt><trkpt lat="43.19657538277835" lon="12.887418978213603"><ele>858.0</ele><time>2026-05-02T14:11:59.999Z</time></trkpt><trkpt lat="43.196611996700646" lon="12.88753676301377"><ele>865.6666666666667</ele><time>2026-05-02T14:12:01.999Z</time></trkpt><trkpt lat="43.196662766575976" lon="12.887640601217978"><ele>873.3333333333334</ele><time>2026-05-02T14:12:02.999Z</time></trkpt><trkpt lat="43.19673587717727" lon="12.88774767112158"><ele>881.0</ele><time>2026-05-02T14:12:03.999Z</time></trkpt><trkpt lat="43.196793797174415" lon="12.887823354850957"><ele>881.0000000000001</ele><time>2026-05-02T14:12:04.999Z</time></trkpt><trkpt lat="43.19684351961956" lon="12.887919864454387"><ele>881.0</ele><time>2026-05-02T14:12:05.999Z</time></trkpt><trkpt lat="43.19690412865982" lon="12.887992467075762"><ele>881.0</ele><time>2026-05-02T14:12:06.999Z</time></trkpt><trkpt lat="43.19697172823817" lon="12.88807910456906"><ele>881.0</ele><time>2026-05-02T14:12:07.999Z</time></trkpt><trkpt lat="43.19701340688437" lon="12.888177655587718"><ele>881.0000000000001</ele><time>2026-05-02T14:12:08.999Z</time></trkpt><trkpt lat="43.19706117012767" lon="12.888282340354975"><ele>881.0</ele><time>2026-05-02T14:12:09.999Z</time></trkpt><trkpt lat="43.19713396935542" lon="12.888379819005834"><ele>881.0</ele><time>2026-05-02T14:12:10.999Z</time></trkpt><trkpt lat="43.19721273715536" lon="12.888450908823478"><ele>880.9999999999999</ele><time>2026-05-02T14:12:11.999Z</time></trkpt><trkpt lat="43.19727468134715" lon="12.888518098735767"><ele>880.9999999999999</ele><time>2026-05-02T14:12:12.999Z</time></trkpt><trkpt lat="43.197339070251246" lon="12.888605911457008"><ele>881.0</ele><time>2026-05-02T14:12:13.999Z</time></trkpt><trkpt lat="43.19740330816836" lon="12.888681211218021"><ele>881.0</ele><time>2026-05-02T14:12:14.999Z</time></trkpt><trkpt lat="43.19749580548286" lon="12.888755769979488"><ele>886.5999999999999</ele><time>2026-05-02T14:12:15.999Z</time></trkpt><trkpt lat="43.197602415674325" lon="12.888823646881333"><ele>892.1999999999999</ele><time>2026-05-02T14:12:16.999Z</time></trkpt><trkpt lat="43.19767540489088" lon="12.888899155530094"><ele>897.8000000000001</ele><time>2026-05-02T14:12:17.999Z</time></trkpt><trkpt lat="43.1977646684481" lon="12.888996587277774"><ele>903.4000000000001</ele><time>2026-05-02T14:12:18.999Z</time></trkpt><trkpt lat="43.197845397507905" lon="12.88905740565056"><ele>909.0</ele><time>2026-05-02T14:12:19.999Z</time></trkpt><trkpt lat="43.197925429125185" lon="12.889097793509501"><ele>909.0</ele><time>2026-05-02T14:12:20.999Z</time></trkpt><trkpt lat="43.198027567010875" lon="12.889143389549355"><ele>909.0000000000001</ele><time>2026-05-02T14:12:22Z</time></trkpt><trkpt lat="43.198122956982886" lon="12.889182662621009"><ele>909.0000000000001</ele><time>2026-05-02T14:12:23Z</time></trkpt><trkpt lat="43.1982021564169" lon="12.889217699575347"><ele>909.0</ele><time>2026-05-02T14:12:24Z</time></trkpt><trkpt lat="43.19828569209795" lon="12.889260183495503"><ele>909.0</ele><time>2026-05-02T14:12:26Z</time></trkpt><trkpt lat="43.19836172205949" lon="12.889289890286793"><ele>907.0</ele><time>2026-05-02T14:12:29Z</time></trkpt><trkpt lat="43.19842457405166" lon="12.889273898264447"><ele>905.0000000000001</ele><time>2026-05-02T14:12:31Z</time></trkpt><trkpt lat="43.19850188750035" lon="12.889284558882077"><ele>903.0000000000001</ele><time>2026-05-02T14:12:44Z</time></trkpt><trkpt lat="43.19861250206488" lon="12.889244670177524"><ele>901.0</ele><time>2026-05-02T14:12:47Z</time></trkpt><trkpt lat="43.198757538862736" lon="12.88918856101639"><ele>899.0</ele><time>2026-05-02T14:12:49Z</time></trkpt><trkpt lat="43.19882402831831" lon="12.889156132391372"><ele>901.8000000000001</ele><time>2026-05-02T14:12:50Z</time></trkpt><trkpt lat="43.19890921318472" lon="12.889122944858517"><ele>904.6000000000001</ele><time>2026-05-02T14:12:51Z</time></trkpt><trkpt lat="43.19901001316966" lon="12.889139300187862"><ele>907.4</ele><time>2026-05-02T14:12:52Z</time></trkpt><trkpt lat="43.19911067818574" lon="12.889157716249304"><ele>910.2</ele><time>2026-05-02T14:12:53Z</time></trkpt><trkpt lat="43.199202781406505" lon="12.889183701920592"><ele>913.0</ele><time>2026-05-02T14:12:54Z</time></trkpt><trkpt lat="43.199327241669096" lon="12.88915086464951"><ele>913.0</ele><time>2026-05-02T14:12:56Z</time></trkpt><trkpt lat="43.19940986830813" lon="12.88914623445145"><ele>913.0</ele><time>2026-05-02T14:12:57Z</time></trkpt><trkpt lat="43.19951793064719" lon="12.889132150269168"><ele>913.0</ele><time>2026-05-02T14:12:58Z</time></trkpt><trkpt lat="43.19963192300591" lon="12.889116429857713"><ele>913.0</ele><time>2026-05-02T14:12:59Z</time></trkpt><trkpt lat="43.199738807493475" lon="12.889155770696526"><ele>913.0</ele><time>2026-05-02T14:13:00Z</time></trkpt><trkpt lat="43.1998246000148" lon="12.88923184373787"><ele>908.75</ele><time>2026-05-02T14:13:01Z</time></trkpt><trkpt lat="43.19991517976906" lon="12.889334692849879"><ele>904.5</ele><time>2026-05-02T14:13:02Z</time></trkpt><trkpt lat="43.19999945087408" lon="12.889461717597797"><ele>900.25</ele><time>2026-05-02T14:13:03Z</time></trkpt><trkpt lat="43.20004907417921" lon="12.889609046577286"><ele>896.0</ele><time>2026-05-02T14:13:04Z</time></trkpt><trkpt lat="43.20008758176814" lon="12.889758968074084"><ele>896.0</ele><time>2026-05-02T14:13:05Z</time></trkpt><trkpt lat="43.20009766734816" lon="12.889901959064169"><ele>895.9999999999999</ele><time>2026-05-02T14:13:06Z</time></trkpt><trkpt lat="43.20010994783502" lon="12.889997633735721"><ele>895.9999999999999</ele><time>2026-05-02T14:13:07Z</time></trkpt><trkpt lat="43.200158591747034" lon="12.890059992420046"><ele>896.0</ele><time>2026-05-02T14:13:08Z</time></trkpt><trkpt lat="43.20030631586712" lon="12.890049729068519"><ele>896.0</ele><time>2026-05-02T14:13:10Z</time></trkpt><trkpt lat="43.20045900207565" lon="12.890006546873872"><ele>896.0</ele><time>2026-05-02T14:13:11Z</time></trkpt><trkpt lat="43.200590907194275" lon="12.889937190304881"><ele>896.0</ele><time>2026-05-02T14:13:12Z</time></trkpt><trkpt lat="43.2007138343541" lon="12.889840934675426"><ele>896.0</ele><time>2026-05-02T14:13:13Z</time></trkpt><trkpt lat="43.200843923174666" lon="12.889739320399434"><ele>896.0</ele><time>2026-05-02T14:13:14Z</time></trkpt><trkpt lat="43.200954172769826" lon="12.889696064992025"><ele>896.5000000000001</ele><time>2026-05-02T14:13:15Z</time></trkpt><trkpt lat="43.20107159306025" lon="12.889640404219993"><ele>897.0</ele><time>2026-05-02T14:13:16Z</time></trkpt><trkpt lat="43.20118017284445" lon="12.889612852439415"><ele>897.5</ele><time>2026-05-02T14:13:17Z</time></trkpt><trkpt lat="43.201248447851526" lon="12.889622693139824"><ele>898.0</ele><time>2026-05-02T14:13:18Z</time></trkpt><trkpt lat="43.201305222362" lon="12.889695975891978"><ele>898.5000000000001</ele><time>2026-05-02T14:13:19Z</time></trkpt><trkpt lat="43.20132965969611" lon="12.889783129726844"><ele>899.0</ele><time>2026-05-02T14:13:21Z</time></trkpt><trkpt lat="43.20135962386484" lon="12.889865901101992"><ele>899.0000000000001</ele><time>2026-05-02T14:13:53.999Z</time></trkpt><trkpt lat="43.20135842140885" lon="12.8899814243678"><ele>899.0</ele><time>2026-05-02T14:13:55.999Z</time></trkpt><trkpt lat="43.20137689022691" lon="12.89008008493558"><ele>899.0</ele><time>2026-05-02T14:13:56.999Z</time></trkpt><trkpt lat="43.20137754854184" lon="12.890199517152341"><ele>899.0</ele><time>2026-05-02T14:13:57.999Z</time></trkpt><trkpt lat="43.201389954630706" lon="12.890332241436672"><ele>899.0000000000001</ele><time>2026-05-02T14:13:58.999Z</time></trkpt><trkpt lat="43.20139688377002" lon="12.890470925211332"><ele>899.0</ele><time>2026-05-02T14:13:59.998Z</time></trkpt><trkpt lat="43.20139426356797" lon="12.890594277566072"><ele>896.0</ele><time>2026-05-02T14:14:00.998Z</time></trkpt><trkpt lat="43.20137888905932" lon="12.890733970914361"><ele>893.0000000000001</ele><time>2026-05-02T14:14:01.998Z</time></trkpt><trkpt lat="43.201356925768614" lon="12.89086155457145"><ele>890.0000000000001</ele><time>2026-05-02T14:14:02.998Z</time></trkpt><trkpt lat="43.20134210351266" lon="12.890974827304976"><ele>887.0</ele><time>2026-05-02T14:14:03.998Z</time></trkpt><trkpt lat="43.20132389208022" lon="12.891093914150403"><ele>884.0</ele><time>2026-05-02T14:14:04.998Z</time></trkpt><trkpt lat="43.20131704179946" lon="12.891210729495299"><ele>885.4000000000001</ele><time>2026-05-02T14:14:05.998Z</time></trkpt><trkpt lat="43.20132742070436" lon="12.891326971849265"><ele>886.8000000000001</ele><time>2026-05-02T14:14:06.998Z</time></trkpt><trkpt lat="43.201354411814094" lon="12.891450709894904"><ele>888.1999999999999</ele><time>2026-05-02T14:14:07.998Z</time></trkpt><trkpt lat="43.201389700040984" lon="12.891576272508187"><ele>889.5999999999999</ele><time>2026-05-02T14:14:08.998Z</time></trkpt><trkpt lat="43.20144137014267" lon="12.891696544132305"><ele>891.0</ele><time>2026-05-02T14:14:09.998Z</time></trkpt><trkpt lat="43.20150952464284" lon="12.891808968964419"><ele>891.0</ele><time>2026-05-02T14:14:10.998Z</time></trkpt><trkpt lat="43.20159996581705" lon="12.89191850253191"><ele>891.0</ele><time>2026-05-02T14:14:11.998Z</time></trkpt><trkpt lat="43.2017051774708" lon="12.892007787560953"><ele>891.0</ele><time>2026-05-02T14:14:12.998Z</time></trkpt><trkpt lat="43.20181636634213" lon="12.89210605398132"><ele>891.0</ele><time>2026-05-02T14:14:13.998Z</time></trkpt><trkpt lat="43.20189470377626" lon="12.892219636698012"><ele>891.0</ele><time>2026-05-02T14:14:14.998Z</time></trkpt><trkpt lat="43.20197791782736" lon="12.892346322200762"><ele>891.0</ele><time>2026-05-02T14:14:15.998Z</time></trkpt><trkpt lat="43.202066677104405" lon="12.892481720727409"><ele>891.0</ele><time>2026-05-02T14:14:16.998Z</time></trkpt><trkpt lat="43.202158853210754" lon="12.892609738677914"><ele>891.0</ele><time>2026-05-02T14:14:17.998Z</time></trkpt><trkpt lat="43.20225129491593" lon="12.892723694741859"><ele>891.75</ele><time>2026-05-02T14:14:18.998Z</time></trkpt><trkpt lat="43.202340211058754" lon="12.892842041128285"><ele>892.5</ele><time>2026-05-02T14:14:19.998Z</time></trkpt><trkpt lat="43.20243313988338" lon="12.892951441263325"><ele>893.25</ele><time>2026-05-02T14:14:20.998Z</time></trkpt><trkpt lat="43.20252689622563" lon="12.893063950778926"><ele>894.0</ele><time>2026-05-02T14:14:21.998Z</time></trkpt><trkpt lat="43.20262812204584" lon="12.893168182445654"><ele>894.0</ele><time>2026-05-02T14:14:22.998Z</time></trkpt><trkpt lat="43.20273936311773" lon="12.893258740858418"><ele>894.0</ele><time>2026-05-02T14:14:23.998Z</time></trkpt><trkpt lat="43.20285034388647" lon="12.893365546362464"><ele>894.0</ele><time>2026-05-02T14:14:24.998Z</time></trkpt><trkpt lat="43.202960725105925" lon="12.89347892167134"><ele>894.0</ele><time>2026-05-02T14:14:25.998Z</time></trkpt><trkpt lat="43.20306874514536" lon="12.893585979992"><ele>893.8000000000001</ele><time>2026-05-02T14:14:26.998Z</time></trkpt><trkpt lat="43.20316172957711" lon="12.893698277355357"><ele>893.6000000000001</ele><time>2026-05-02T14:14:28Z</time></trkpt><trkpt lat="43.20322298671388" lon="12.89382215609452"><ele>893.4</ele><time>2026-05-02T14:14:29Z</time></trkpt><trkpt lat="43.20328177267873" lon="12.893937991724833"><ele>893.2</ele><time>2026-05-02T14:14:30Z</time></trkpt><trkpt lat="43.20335119850195" lon="12.894033521209362"><ele>893.0</ele><time>2026-05-02T14:14:31Z</time></trkpt><trkpt lat="43.20342852967235" lon="12.894100384500964"><ele>893.0</ele><time>2026-05-02T14:14:32Z</time></trkpt><trkpt lat="43.203542858822296" lon="12.894085523255002"><ele>893.0</ele><time>2026-05-02T14:14:34Z</time></trkpt><trkpt lat="43.20362973649422" lon="12.894028492135924"><ele>893.0</ele><time>2026-05-02T14:14:35Z</time></trkpt><trkpt lat="43.20371787900566" lon="12.893953012328184"><ele>893.0</ele><time>2026-05-02T14:14:36Z</time></trkpt><trkpt lat="43.203808658365745" lon="12.893887533499997"><ele>893.0</ele><time>2026-05-02T14:14:37Z</time></trkpt><trkpt lat="43.2038906415908" lon="12.89384181732106"><ele>893.0</ele><time>2026-05-02T14:14:38Z</time></trkpt><trkpt lat="43.20398751177841" lon="12.893859182718082"><ele>893.0</ele><time>2026-05-02T14:14:39Z</time></trkpt><trkpt lat="43.20407323682929" lon="12.893933726288333"><ele>893.0</ele><time>2026-05-02T14:14:40Z</time></trkpt><trkpt lat="43.2041349708379" lon="12.89406326645184"><ele>893.0</ele><time>2026-05-02T14:14:41Z</time></trkpt><trkpt lat="43.20417166878391" lon="12.894227729462656"><ele>893.0</ele><time>2026-05-02T14:14:42Z</time></trkpt><trkpt lat="43.20419253250975" lon="12.894377807592612"><ele>893.5999999999999</ele><time>2026-05-02T14:14:43Z</time></trkpt><trkpt lat="43.204224563049685" lon="12.894506342763231"><ele>894.1999999999999</ele><time>2026-05-02T14:14:44Z</time></trkpt><trkpt lat="43.2042691375748" lon="12.894653551297003"><ele>894.8</ele><time>2026-05-02T14:14:44.999Z</time></trkpt><trkpt lat="43.20430679241748" lon="12.894808511744463"><ele>895.4</ele><time>2026-05-02T14:14:45.999Z</time></trkpt><trkpt lat="43.20434573244963" lon="12.894950691487516"><ele>896.0</ele><time>2026-05-02T14:14:46.999Z</time></trkpt><trkpt lat="43.204383820210964" lon="12.895075441844481"><ele>891.8</ele><time>2026-05-02T14:14:47.999Z</time></trkpt><trkpt lat="43.204428425711285" lon="12.895166297842533"><ele>887.5999999999999</ele><time>2026-05-02T14:14:48.999Z</time></trkpt><trkpt lat="43.2044949116424" lon="12.895255188596602"><ele>883.4</ele><time>2026-05-02T14:14:49.999Z</time></trkpt><trkpt lat="43.2046010213112" lon="12.89533855389485"><ele>879.2</ele><time>2026-05-02T14:14:50.999Z</time></trkpt><trkpt lat="43.204716852884644" lon="12.895398566382523"><ele>875.0</ele><time>2026-05-02T14:14:51.999Z</time></trkpt><trkpt lat="43.20479974937426" lon="12.89546205499216"><ele>879.6</ele><time>2026-05-02T14:14:52.999Z</time></trkpt><trkpt lat="43.20487986823993" lon="12.895458501160752"><ele>884.2</ele><time>2026-05-02T14:14:53.999Z</time></trkpt><trkpt lat="43.20499405467331" lon="12.895436772364409"><ele>888.8</ele><time>2026-05-02T14:14:54.999Z</time></trkpt><trkpt lat="43.205074400442115" lon="12.895443659034116"><ele>893.4</ele><time>2026-05-02T14:14:55.999Z</time></trkpt><trkpt lat="43.20513793039619" lon="12.895523555670932"><ele>898.0</ele><time>2026-05-02T14:14:56.999Z</time></trkpt><trkpt lat="43.20518063755898" lon="12.895645774858892"><ele>898.0</ele><time>2026-05-02T14:14:57.999Z</time></trkpt><trkpt lat="43.20523567930045" lon="12.895810395775769"><ele>898.0</ele><time>2026-05-02T14:14:58.999Z</time></trkpt><trkpt lat="43.20528665273727" lon="12.895990120364171"><ele>898.0</ele><time>2026-05-02T14:14:59.999Z</time></trkpt><trkpt lat="43.20534147759018" lon="12.89611552575813"><ele>898.0</ele><time>2026-05-02T14:15:00.999Z</time></trkpt><trkpt lat="43.205397602764016" lon="12.896218392266752"><ele>896.4</ele><time>2026-05-02T14:15:01.999Z</time></trkpt><trkpt lat="43.20544364604363" lon="12.896316122297547"><ele>894.8</ele><time>2026-05-02T14:15:02.999Z</time></trkpt><trkpt lat="43.205508229915814" lon="12.896420474027671"><ele>893.2</ele><time>2026-05-02T14:15:03.999Z</time></trkpt><trkpt lat="43.20559003353354" lon="12.89653427693866"><ele>891.6</ele><time>2026-05-02T14:15:04.999Z</time></trkpt><trkpt lat="43.20567588142777" lon="12.896645679692572"><ele>890.0</ele><time>2026-05-02T14:15:05.999Z</time></trkpt><trkpt lat="43.20575431764814" lon="12.896744023014502"><ele>896.0</ele><time>2026-05-02T14:15:06.999Z</time></trkpt><trkpt lat="43.20583096690307" lon="12.8968395923127"><ele>902.0</ele><time>2026-05-02T14:15:07.999Z</time></trkpt><trkpt lat="43.2059101430652" lon="12.896929512005933"><ele>908.0</ele><time>2026-05-02T14:15:08.999Z</time></trkpt><trkpt lat="43.20599756539853" lon="12.897015466884719"><ele>914.0</ele><time>2026-05-02T14:15:09.999Z</time></trkpt><trkpt lat="43.206074319970874" lon="12.897124754056136"><ele>920.0</ele><time>2026-05-02T14:15:10.999Z</time></trkpt><trkpt lat="43.206133976421" lon="12.897228192909273"><ele>920.0</ele><time>2026-05-02T14:15:11.999Z</time></trkpt><trkpt lat="43.20617860116173" lon="12.897329353278769"><ele>920.0</ele><time>2026-05-02T14:15:12.999Z</time></trkpt><trkpt lat="43.20618720921895" lon="12.897418341824165"><ele>920.0</ele><time>2026-05-02T14:15:13.999Z</time></trkpt><trkpt lat="43.206083502593984" lon="12.897544581410378"><ele>920.0</ele><time>2026-05-02T14:15:15.999Z</time></trkpt><trkpt lat="43.20600303057467" lon="12.897545192951888"><ele>920.0</ele><time>2026-05-02T14:15:16.999Z</time></trkpt><trkpt lat="43.20592629698701" lon="12.897513120571581"><ele>920.0</ele><time>2026-05-02T14:15:17.999Z</time></trkpt><trkpt lat="43.20582025745629" lon="12.89747804773316"><ele>920.0</ele><time>2026-05-02T14:15:18.999Z</time></trkpt><trkpt lat="43.20572435971613" lon="12.897490534911254"><ele>920.0</ele><time>2026-05-02T14:15:19.999Z</time></trkpt><trkpt lat="43.20561734445754" lon="12.89752382803524"><ele>920.0</ele><time>2026-05-02T14:15:20.999Z</time></trkpt><trkpt lat="43.205510750154495" lon="12.8975569209685"><ele>920.0</ele><time>2026-05-02T14:15:21.999Z</time></trkpt><trkpt lat="43.205404962177376" lon="12.897583802291152"><ele>919.8</ele><time>2026-05-02T14:15:22.999Z</time></trkpt><trkpt lat="43.20529139840533" lon="12.897615310878814"><ele>919.6</ele><time>2026-05-02T14:15:23.999Z</time></trkpt><trkpt lat="43.205196063907735" lon="12.897663877608272"><ele>919.4000000000001</ele><time>2026-05-02T14:15:24.999Z</time></trkpt><trkpt lat="43.205106980175316" lon="12.897737142427818"><ele>919.2</ele><time>2026-05-02T14:15:25.999Z</time></trkpt><trkpt lat="43.20503117048415" lon="12.897822128876914"><ele>919.0</ele><time>2026-05-02T14:15:26.999Z</time></trkpt><trkpt lat="43.20497021538649" lon="12.89791928196437"><ele>919.0</ele><time>2026-05-02T14:15:27.999Z</time></trkpt><trkpt lat="43.204931266180026" lon="12.898016145604908"><ele>919.0000000000001</ele><time>2026-05-02T14:15:28.999Z</time></trkpt><trkpt lat="43.20495096578252" lon="12.898195367928727"><ele>919.0000000000001</ele><time>2026-05-02T14:15:30.999Z</time></trkpt><trkpt lat="43.20500071149833" lon="12.898305738744915"><ele>919.0</ele><time>2026-05-02T14:15:31.999Z</time></trkpt><trkpt lat="43.20508109210712" lon="12.898413448416122"><ele>919.0</ele><time>2026-05-02T14:15:32.999Z</time></trkpt><trkpt lat="43.20517711812543" lon="12.898544583786549"><ele>919.1666666666666</ele><time>2026-05-02T14:15:33.999Z</time></trkpt><trkpt lat="43.205257969934074" lon="12.898652912117347"><ele>919.3333333333333</ele><time>2026-05-02T14:15:34.999Z</time></trkpt><trkpt lat="43.20531440141954" lon="12.898753453505421"><ele>919.5</ele><time>2026-05-02T14:15:35.999Z</time></trkpt><trkpt lat="43.20535159585003" lon="12.898857276137278"><ele>919.6666666666667</ele><time>2026-05-02T14:15:36.999Z</time></trkpt><trkpt lat="43.205351224883195" lon="12.898966624396346"><ele>919.8333333333334</ele><time>2026-05-02T14:15:37.999Z</time></trkpt><trkpt lat="43.20531454032264" lon="12.89906360053931"><ele>920.0</ele><time>2026-05-02T14:15:38.999Z</time></trkpt><trkpt lat="43.205276455239265" lon="12.899151852872077"><ele>920.0000000000001</ele><time>2026-05-02T14:15:39.999Z</time></trkpt><trkpt lat="43.20530128360296" lon="12.89924811421215"><ele>920.0</ele><time>2026-05-02T14:15:40.999Z</time></trkpt><trkpt lat="43.205327293235754" lon="12.899363013748113"><ele>920.0</ele><time>2026-05-02T14:15:41.999Z</time></trkpt><trkpt lat="43.20535260517687" lon="12.899493124015104"><ele>920.0</ele><time>2026-05-02T14:15:42.999Z</time></trkpt><trkpt lat="43.205376021613176" lon="12.899596662414574"><ele>920.0000000000001</ele><time>2026-05-02T14:15:43.999Z</time></trkpt><trkpt lat="43.20540432606667" lon="12.899724098985057"><ele>920.0</ele><time>2026-05-02T14:15:44.999Z</time></trkpt><trkpt lat="43.205417050803895" lon="12.899865791252429"><ele>920.8</ele><time>2026-05-02T14:15:45.999Z</time></trkpt><trkpt lat="43.205430238951195" lon="12.90000372927428"><ele>921.6</ele><time>2026-05-02T14:15:46.999Z</time></trkpt><trkpt lat="43.20543378359296" lon="12.90015689684639"><ele>922.4000000000001</ele><time>2026-05-02T14:15:47.999Z</time></trkpt><trkpt lat="43.20544288815169" lon="12.900281624293838"><ele>923.2</ele><time>2026-05-02T14:15:48.999Z</time></trkpt><trkpt lat="43.20544925556858" lon="12.90043711447212"><ele>924.0</ele><time>2026-05-02T14:15:49.999Z</time></trkpt><trkpt lat="43.20545941555986" lon="12.900607687451329"><ele>924.6</ele><time>2026-05-02T14:15:50.999Z</time></trkpt><trkpt lat="43.205466425033" lon="12.900759577643635"><ele>925.2</ele><time>2026-05-02T14:15:51.999Z</time></trkpt><trkpt lat="43.20547232923509" lon="12.9008996263223"><ele>925.8000000000001</ele><time>2026-05-02T14:15:52.999Z</time></trkpt><trkpt lat="43.2054825243597" lon="12.901007740639745"><ele>926.4000000000001</ele><time>2026-05-02T14:15:53.999Z</time></trkpt><trkpt lat="43.205503989335845" lon="12.901136327043183"><ele>927.0</ele><time>2026-05-02T14:15:54.999Z</time></trkpt><trkpt lat="43.20553581913115" lon="12.901274138940044"><ele>927.5</ele><time>2026-05-02T14:15:55.999Z</time></trkpt><trkpt lat="43.20557591297338" lon="12.901423141131975"><ele>928.0</ele><time>2026-05-02T14:15:56.999Z</time></trkpt><trkpt lat="43.20561671342788" lon="12.901567639905936"><ele>928.5</ele><time>2026-05-02T14:15:57.999Z</time></trkpt><trkpt lat="43.20564926825247" lon="12.901730830308239"><ele>929.0</ele><time>2026-05-02T14:15:58.999Z</time></trkpt><trkpt lat="43.20568331167822" lon="12.901896649088389"><ele>933.75</ele><time>2026-05-02T14:15:59.999Z</time></trkpt><trkpt lat="43.20572370845668" lon="12.902063159648888"><ele>938.5</ele><time>2026-05-02T14:16:00.999Z</time></trkpt><trkpt lat="43.20577493720102" lon="12.902219714822742"><ele>943.25</ele><time>2026-05-02T14:16:01.999Z</time></trkpt><trkpt lat="43.20583126684687" lon="12.902372843752486"><ele>948.0</ele><time>2026-05-02T14:16:02.999Z</time></trkpt><trkpt lat="43.20588118402786" lon="12.902522085558934"><ele>946.8</ele><time>2026-05-02T14:16:03.999Z</time></trkpt><trkpt lat="43.20592131503559" lon="12.902664582976517"><ele>945.5999999999999</ele><time>2026-05-02T14:16:04.999Z</time></trkpt><trkpt lat="43.2059571383645" lon="12.902764381095826"><ele>944.4000000000001</ele><time>2026-05-02T14:16:05.999Z</time></trkpt><trkpt lat="43.205993716959526" lon="12.902845256680862"><ele>943.2</ele><time>2026-05-02T14:16:06.999Z</time></trkpt><trkpt lat="43.206082466514644" lon="12.902919371818648"><ele>942.0</ele><time>2026-05-02T14:16:08.999Z</time></trkpt><trkpt lat="43.206196665472646" lon="12.902980393100624"><ele>942.0</ele><time>2026-05-02T14:16:10.999Z</time></trkpt><trkpt lat="43.20624531593261" lon="12.903050607119962"><ele>942.0</ele><time>2026-05-02T14:16:11.998Z</time></trkpt><trkpt lat="43.20630228337925" lon="12.903123627833475"><ele>942.0</ele><time>2026-05-02T14:16:12.998Z</time></trkpt><trkpt lat="43.20636578249248" lon="12.903193596902465"><ele>942.0</ele><time>2026-05-02T14:16:13.998Z</time></trkpt><trkpt lat="43.20643975147571" lon="12.903251569941357"><ele>942.0</ele><time>2026-05-02T14:16:14.998Z</time></trkpt><trkpt lat="43.20652173952508" lon="12.903335408428527"><ele>942.0</ele><time>2026-05-02T14:16:15.998Z</time></trkpt><trkpt lat="43.20660528295563" lon="12.903376814373004"><ele>944.8333333333334</ele><time>2026-05-02T14:16:17.998Z</time></trkpt><trkpt lat="43.20670072076677" lon="12.903368428629896"><ele>947.6666666666667</ele><time>2026-05-02T14:16:21.998Z</time></trkpt><trkpt lat="43.20677482875253" lon="12.903324107778705"><ele>950.5</ele><time>2026-05-02T14:16:24.998Z</time></trkpt><trkpt lat="43.20683500952805" lon="12.9032652031265"><ele>953.3333333333334</ele><time>2026-05-02T14:16:27.998Z</time></trkpt><trkpt lat="43.206898272356156" lon="12.903271925167214"><ele>956.1666666666667</ele><time>2026-05-02T14:16:31.998Z</time></trkpt><trkpt lat="43.20700110554466" lon="12.903262419172506"><ele>959.0</ele><time>2026-05-02T14:16:35Z</time></trkpt><trkpt lat="43.20707635203405" lon="12.903281129408517"><ele>959.0000000000001</ele><time>2026-05-02T14:16:38Z</time></trkpt><trkpt lat="43.20718570356013" lon="12.903335963609058"><ele>959.0</ele><time>2026-05-02T14:16:40Z</time></trkpt><trkpt lat="43.20724629221732" lon="12.903364560486098"><ele>959.0</ele><time>2026-05-02T14:16:41Z</time></trkpt><trkpt lat="43.20733719598315" lon="12.90338246891477"><ele>959.0</ele><time>2026-05-02T14:16:42Z</time></trkpt><trkpt lat="43.20741304013605" lon="12.903419124441418"><ele>959.0000000000001</ele><time>2026-05-02T14:16:44Z</time></trkpt><trkpt lat="43.20745511727038" lon="12.903351978262004"><ele>959.0</ele><time>2026-05-02T14:16:47Z</time></trkpt><trkpt lat="43.207480817609635" lon="12.903251693084218"><ele>962.1666666666667</ele><time>2026-05-02T14:16:50Z</time></trkpt><trkpt lat="43.20755219925785" lon="12.903225662412313"><ele>965.3333333333334</ele><time>2026-05-02T14:16:52Z</time></trkpt><trkpt lat="43.20763574038562" lon="12.90318543078101"><ele>968.5</ele><time>2026-05-02T14:16:54Z</time></trkpt><trkpt lat="43.20770539205001" lon="12.903201531545527"><ele>971.6666666666667</ele><time>2026-05-02T14:16:55Z</time></trkpt><trkpt lat="43.20781723557554" lon="12.903240953111911"><ele>974.8333333333334</ele><time>2026-05-02T14:16:56.999Z</time></trkpt><trkpt lat="43.20791376051259" lon="12.903254134027923"><ele>978.0</ele><time>2026-05-02T14:16:58.999Z</time></trkpt><trkpt lat="43.2080151746451" lon="12.903281711354566"><ele>978.0</ele><time>2026-05-02T14:17:00.999Z</time></trkpt><trkpt lat="43.208106480878186" lon="12.903314197039723"><ele>978.0</ele><time>2026-05-02T14:17:02.999Z</time></trkpt><trkpt lat="43.20820654860395" lon="12.903332179997221"><ele>978.0</ele><time>2026-05-02T14:17:04.999Z</time></trkpt><trkpt lat="43.208270097775404" lon="12.903332719607745"><ele>978.0</ele><time>2026-05-02T14:17:07.999Z</time></trkpt><trkpt lat="43.208338075799944" lon="12.903296885358854"><ele>978.0</ele><time>2026-05-02T14:17:09.999Z</time></trkpt><trkpt lat="43.208407559524666" lon="12.903300596025883"><ele>978.0</ele><time>2026-05-02T14:17:10.999Z</time></trkpt><trkpt lat="43.20854333277608" lon="12.903273025693611"><ele>980.3333333333334</ele><time>2026-05-02T14:17:12.999Z</time></trkpt><trkpt lat="43.20861377988017" lon="12.903257368929143"><ele>982.6666666666667</ele><time>2026-05-02T14:17:13.999Z</time></trkpt><trkpt lat="43.20873073030515" lon="12.90322560369275"><ele>985.0</ele><time>2026-05-02T14:17:15.999Z</time></trkpt><trkpt lat="43.20881829150987" lon="12.903204665822729"><ele>987.3333333333334</ele><time>2026-05-02T14:17:16.999Z</time></trkpt><trkpt lat="43.20891046931696" lon="12.903185736920268"><ele>989.6666666666667</ele><time>2026-05-02T14:17:17.999Z</time></trkpt><trkpt lat="43.2089832759963" lon="12.903180056079059"><ele>992.0</ele><time>2026-05-02T14:17:18.999Z</time></trkpt><trkpt lat="43.20905541175418" lon="12.903160410013083"><ele>996.75</ele><time>2026-05-02T14:17:20.999Z</time></trkpt><trkpt lat="43.20915529346888" lon="12.903122098158821"><ele>1001.5</ele><time>2026-05-02T14:17:22.999Z</time></trkpt><trkpt lat="43.20933402705294" lon="12.903210228920424"><ele>1006.25</ele><time>2026-05-02T14:17:23.999Z</time></trkpt><trkpt lat="43.209431378314356" lon="12.903252192634664"><ele>1011.0</ele><time>2026-05-02T14:17:24.999Z</time></trkpt><trkpt lat="43.20952979333818" lon="12.90328274365413"><ele>1011.0</ele><time>2026-05-02T14:17:25.999Z</time></trkpt><trkpt lat="43.20962790689193" lon="12.903335400217237"><ele>1010.9999999999999</ele><time>2026-05-02T14:17:26.999Z</time></trkpt><trkpt lat="43.20971233896959" lon="12.90338129940214"><ele>1010.9999999999999</ele><time>2026-05-02T14:17:27.999Z</time></trkpt><trkpt lat="43.20979423388925" lon="12.90342770417894"><ele>1011.0</ele><time>2026-05-02T14:17:28.999Z</time></trkpt><trkpt lat="43.20988016935013" lon="12.903467113374687"><ele>1011.0</ele><time>2026-05-02T14:17:29.999Z</time></trkpt><trkpt lat="43.20996252061259" lon="12.90353245864978"><ele>1011.0</ele><time>2026-05-02T14:17:30.999Z</time></trkpt><trkpt lat="43.21004580253418" lon="12.903585587487266"><ele>1010.9999999999999</ele><time>2026-05-02T14:17:31.999Z</time></trkpt><trkpt lat="43.2101263569819" lon="12.903624093283755"><ele>1010.9999999999999</ele><time>2026-05-02T14:17:32.999Z</time></trkpt><trkpt lat="43.210219391681356" lon="12.903657193222484"><ele>1011.0</ele><time>2026-05-02T14:17:33.999Z</time></trkpt><trkpt lat="43.210303833044364" lon="12.903719108636217"><ele>1011.0</ele><time>2026-05-02T14:17:34.999Z</time></trkpt><trkpt lat="43.21037351561677" lon="12.903779684791273"><ele>1011.0</ele><time>2026-05-02T14:17:35.999Z</time></trkpt><trkpt lat="43.21043074561177" lon="12.903842537882026"><ele>1011.0</ele><time>2026-05-02T14:17:36.999Z</time></trkpt><trkpt lat="43.21048482446596" lon="12.903895603537165"><ele>1011.0</ele><time>2026-05-02T14:17:37.999Z</time></trkpt><trkpt lat="43.210570416401744" lon="12.903988457011273"><ele>1011.0</ele><time>2026-05-02T14:17:39.999Z</time></trkpt><trkpt lat="43.21064212730992" lon="12.904090540675666"><ele>1011.0</ele><time>2026-05-02T14:17:41.999Z</time></trkpt><trkpt lat="43.21071599851113" lon="12.904165592997341"><ele>1011.0</ele><time>2026-05-02T14:17:43.999Z</time></trkpt><trkpt lat="43.21078723866297" lon="12.90421861443051"><ele>1014.6666666666666</ele><time>2026-05-02T14:17:46.999Z</time></trkpt><trkpt lat="43.21082430751522" lon="12.904290464338482"><ele>1018.3333333333333</ele><time>2026-05-02T14:17:48.999Z</time></trkpt><trkpt lat="43.2108677559422" lon="12.90439109707569"><ele>1022.0</ele><time>2026-05-02T14:17:50.999Z</time></trkpt><trkpt lat="43.210917326022305" lon="12.904518216475042"><ele>1025.6666666666665</ele><time>2026-05-02T14:17:52.999Z</time></trkpt><trkpt lat="43.21095814719791" lon="12.904614872509947"><ele>1029.3333333333333</ele><time>2026-05-02T14:17:54.999Z</time></trkpt><trkpt lat="43.21100128608576" lon="12.904751608924961"><ele>1033.0</ele><time>2026-05-02T14:17:56.999Z</time></trkpt><trkpt lat="43.210996912314606" lon="12.904920445295817"><ele>1033.0</ele><time>2026-05-02T14:17:58.999Z</time></trkpt><trkpt lat="43.21100494078182" lon="12.905018298049798"><ele>1033.0</ele><time>2026-05-02T14:17:59.999Z</time></trkpt><trkpt lat="43.211035672040566" lon="12.905169927599482"><ele>1033.0</ele><time>2026-05-02T14:18:01.999Z</time></trkpt><trkpt lat="43.21108041773828" lon="12.905309173500315"><ele>1033.0</ele><time>2026-05-02T14:18:03.999Z</time></trkpt><trkpt lat="43.21109445980612" lon="12.905433968082798"><ele>1033.0</ele><time>2026-05-02T14:18:05.999Z</time></trkpt><trkpt lat="43.21113110177712" lon="12.90554878563491"><ele>1030.6</ele><time>2026-05-02T14:18:07.999Z</time></trkpt><trkpt lat="43.21115933060838" lon="12.905666028949403"><ele>1028.1999999999998</ele><time>2026-05-02T14:18:09.999Z</time></trkpt><trkpt lat="43.211178760118436" lon="12.905773083210095"><ele>1025.8</ele><time>2026-05-02T14:18:11.999Z</time></trkpt><trkpt lat="43.21120896009477" lon="12.905930082194107"><ele>1023.4</ele><time>2026-05-02T14:18:13.999Z</time></trkpt><trkpt lat="43.211267378341404" lon="12.906044184240145"><ele>1021.0</ele><time>2026-05-02T14:18:15.999Z</time></trkpt><trkpt lat="43.21128956951837" lon="12.906146508029297"><ele>1018.3333333333333</ele><time>2026-05-02T14:18:17.999Z</time></trkpt><trkpt lat="43.21131038795838" lon="12.906244578825229"><ele>1015.6666666666666</ele><time>2026-05-02T14:18:20.998Z</time></trkpt><trkpt lat="43.21134317315869" lon="12.906319797901345"><ele>1013.0</ele><time>2026-05-02T14:18:24.998Z</time></trkpt><trkpt lat="43.211360188713584" lon="12.906438467790707"><ele>1010.3333333333333</ele><time>2026-05-02T14:18:28.998Z</time></trkpt><trkpt lat="43.21139408546537" lon="12.9065339457635"><ele>1007.6666666666666</ele><time>2026-05-02T14:18:31.998Z</time></trkpt><trkpt lat="43.211419334210554" lon="12.906623989823457"><ele>1005.0</ele><time>2026-05-02T14:18:33.998Z</time></trkpt><trkpt lat="43.21139405454367" lon="12.906726691102683"><ele>1005.0</ele><time>2026-05-02T14:18:35.998Z</time></trkpt><trkpt lat="43.211394135295" lon="12.906861068920389"><ele>1005.0</ele><time>2026-05-02T14:18:37.998Z</time></trkpt><trkpt lat="43.21138989845579" lon="12.906985160606085"><ele>1005.0</ele><time>2026-05-02T14:18:40Z</time></trkpt><trkpt lat="43.21139458242296" lon="12.907119497618623"><ele>1005.0</ele><time>2026-05-02T14:18:42Z</time></trkpt><trkpt lat="43.211405776277495" lon="12.907272091298543"><ele>1005.0</ele><time>2026-05-02T14:18:44Z</time></trkpt><trkpt lat="43.21142179406724" lon="12.907356057152338"><ele>1005.0</ele><time>2026-05-02T14:18:45Z</time></trkpt><trkpt lat="43.21142554440454" lon="12.907442401291124"><ele>1005.0</ele><time>2026-05-02T14:18:46Z</time></trkpt><trkpt lat="43.211417740902895" lon="12.9075366183716"><ele>1005.0</ele><time>2026-05-02T14:18:47Z</time></trkpt><trkpt lat="43.21138360494991" lon="12.907680187118642"><ele>1005.0</ele><time>2026-05-02T14:18:49Z</time></trkpt><trkpt lat="43.21138042609372" lon="12.907777996115364"><ele>1005.0</ele><time>2026-05-02T14:18:51Z</time></trkpt><trkpt lat="43.21138611168692" lon="12.907887851177044"><ele>1005.0</ele><time>2026-05-02T14:18:53Z</time></trkpt><trkpt lat="43.211418107631886" lon="12.90796388981957"><ele>1010.8</ele><time>2026-05-02T14:19:20.999Z</time></trkpt><trkpt lat="43.21150569705423" lon="12.907999502911844"><ele>1016.6</ele><time>2026-05-02T14:19:22.999Z</time></trkpt><trkpt lat="43.2115903214687" lon="12.90799180091114"><ele>1022.4000000000001</ele><time>2026-05-02T14:19:24.999Z</time></trkpt><trkpt lat="43.21167144353159" lon="12.90795283091925"><ele>1028.2</ele><time>2026-05-02T14:19:26.999Z</time></trkpt><trkpt lat="43.211768014284196" lon="12.907897921825413"><ele>1034.0</ele><time>2026-05-02T14:19:28.999Z</time></trkpt><trkpt lat="43.21187302935666" lon="12.907847547717163"><ele>1034.0</ele><time>2026-05-02T14:19:30.999Z</time></trkpt><trkpt lat="43.211965192736" lon="12.907780414461655"><ele>1034.0</ele><time>2026-05-02T14:19:32.999Z</time></trkpt><trkpt lat="43.21203963277281" lon="12.907665577767643"><ele>1034.0</ele><time>2026-05-02T14:19:34.999Z</time></trkpt><trkpt lat="43.21208199627751" lon="12.907559225911948"><ele>1034.0</ele><time>2026-05-02T14:19:35.999Z</time></trkpt><trkpt lat="43.21212031616578" lon="12.907451288219574"><ele>1034.0</ele><time>2026-05-02T14:19:36.999Z</time></trkpt><trkpt lat="43.2121647993079" lon="12.907329303496097"><ele>1037.0</ele><time>2026-05-02T14:19:37.999Z</time></trkpt><trkpt lat="43.21222075177003" lon="12.90719479697483"><ele>1040.0</ele><time>2026-05-02T14:19:38.999Z</time></trkpt><trkpt lat="43.21228261626952" lon="12.907074283607995"><ele>1043.0</ele><time>2026-05-02T14:19:39.999Z</time></trkpt><trkpt lat="43.21234415848959" lon="12.906974222406465"><ele>1046.0</ele><time>2026-05-02T14:19:40.999Z</time></trkpt><trkpt lat="43.21241015031141" lon="12.906871859853817"><ele>1049.0</ele><time>2026-05-02T14:19:41.999Z</time></trkpt><trkpt lat="43.21246933801907" lon="12.906790654048942"><ele>1053.6666666666667</ele><time>2026-05-02T14:19:42.999Z</time></trkpt><trkpt lat="43.21251726541107" lon="12.906720086623016"><ele>1058.3333333333335</ele><time>2026-05-02T14:19:43.999Z</time></trkpt><trkpt lat="43.212588183119" lon="12.906666299338895"><ele>1063.0</ele><time>2026-05-02T14:19:45.999Z</time></trkpt><trkpt lat="43.21267359389896" lon="12.90668698921024"><ele>1067.6666666666667</ele><time>2026-05-02T14:19:47.999Z</time></trkpt><trkpt lat="43.21257225214552" lon="12.906649212314631"><ele>1072.3333333333333</ele><time>2026-05-02T14:21:36.999Z</time></trkpt><trkpt lat="43.21251148751176" lon="12.906674684605834"><ele>1077.0</ele><time>2026-05-02T14:21:43.999Z</time></trkpt><trkpt lat="43.212449948944645" lon="12.906760224176036"><ele>1077.0</ele><time>2026-05-02T14:21:46.999Z</time></trkpt><trkpt lat="43.21238162935913" lon="12.906865992789326"><ele>1077.0</ele><time>2026-05-02T14:21:48.999Z</time></trkpt><trkpt lat="43.21229722690038" lon="12.906994908048185"><ele>1077.0</ele><time>2026-05-02T14:21:50.999Z</time></trkpt><trkpt lat="43.21225243709383" lon="12.907068520664486"><ele>1077.0</ele><time>2026-05-02T14:21:51.999Z</time></trkpt><trkpt lat="43.212210216969204" lon="12.90715115825613"><ele>1077.0</ele><time>2026-05-02T14:21:52.999Z</time></trkpt><trkpt lat="43.212171396538075" lon="12.907246489891588"><ele>1073.0</ele><time>2026-05-02T14:21:53.999Z</time></trkpt><trkpt lat="43.21214206229256" lon="12.907329711069684"><ele>1069.0</ele><time>2026-05-02T14:21:54.999Z</time></trkpt><trkpt lat="43.212115047197585" lon="12.907408903946342"><ele>1065.0</ele><time>2026-05-02T14:21:55.999Z</time></trkpt><trkpt lat="43.212085570030155" lon="12.907499414763668"><ele>1061.0</ele><time>2026-05-02T14:21:56.999Z</time></trkpt><trkpt lat="43.2120526387662" lon="12.907584040633669"><ele>1057.0</ele><time>2026-05-02T14:21:57.999Z</time></trkpt><trkpt lat="43.211996812238105" lon="12.907706989486805"><ele>1053.0</ele><time>2026-05-02T14:21:59.999Z</time></trkpt><trkpt lat="43.21194580691467" lon="12.907771964442164"><ele>1049.0</ele><time>2026-05-02T14:22:02.999Z</time></trkpt><trkpt lat="43.21188471012919" lon="12.90785901948628"><ele>1046.0</ele><time>2026-05-02T14:22:22.999Z</time></trkpt><trkpt lat="43.211807323297755" lon="12.907901407087927"><ele>1043.0</ele><time>2026-05-02T14:22:24.999Z</time></trkpt><trkpt lat="43.2117088267608" lon="12.907928621677076"><ele>1040.0</ele><time>2026-05-02T14:22:26.999Z</time></trkpt><trkpt lat="43.21161409512534" lon="12.907991621791801"><ele>1037.0</ele><time>2026-05-02T14:22:28.999Z</time></trkpt><trkpt lat="43.21152509907709" lon="12.908028109137762"><ele>1034.0</ele><time>2026-05-02T14:22:30.999Z</time></trkpt><trkpt lat="43.211439827443066" lon="12.908058373804057"><ele>1030.1666666666667</ele><time>2026-05-02T14:22:32.999Z</time></trkpt><trkpt lat="43.21137414396646" lon="12.908053377029102"><ele>1026.3333333333335</ele><time>2026-05-02T14:22:34.999Z</time></trkpt><trkpt lat="43.2113008648845" lon="12.908057981115043"><ele>1022.5</ele><time>2026-05-02T14:22:36.999Z</time></trkpt><trkpt lat="43.21123415037071" lon="12.908071875974763"><ele>1018.6666666666667</ele><time>2026-05-02T14:22:38.999Z</time></trkpt><trkpt lat="43.21117892775569" lon="12.90814845453605"><ele>1014.8333333333334</ele><time>2026-05-02T14:22:40.999Z</time></trkpt><trkpt lat="43.21112793183063" lon="12.908239747708375"><ele>1011.0</ele><time>2026-05-02T14:22:42.999Z</time></trkpt><trkpt lat="43.21108599327086" lon="12.908335756713328"><ele>1007.8333333333334</ele><time>2026-05-02T14:22:44.998Z</time></trkpt><trkpt lat="43.21106297829809" lon="12.908433562218725"><ele>1004.6666666666667</ele><time>2026-05-02T14:22:46.998Z</time></trkpt><trkpt lat="43.211048553294226" lon="12.90853090330583"><ele>1001.5</ele><time>2026-05-02T14:22:48.998Z</time></trkpt><trkpt lat="43.21103814204524" lon="12.908623961083999"><ele>998.3333333333334</ele><time>2026-05-02T14:22:50.998Z</time></trkpt><trkpt lat="43.211020027366494" lon="12.9087333053484"><ele>995.1666666666667</ele><time>2026-05-02T14:22:55Z</time></trkpt><trkpt lat="43.21102596749086" lon="12.90886019226083"><ele>992.0</ele><time>2026-05-02T14:22:59Z</time></trkpt><trkpt lat="43.211004299964195" lon="12.908982064291258"><ele>992.0</ele><time>2026-05-02T14:23:01Z</time></trkpt><trkpt lat="43.21094987233129" lon="12.909108404265513"><ele>992.0</ele><time>2026-05-02T14:23:03Z</time></trkpt><trkpt lat="43.21089600352923" lon="12.909241355225486"><ele>992.0</ele><time>2026-05-02T14:23:05Z</time></trkpt><trkpt lat="43.21084522121144" lon="12.909388959160939"><ele>992.0</ele><time>2026-05-02T14:23:07Z</time></trkpt><trkpt lat="43.21078350337045" lon="12.909497423897463"><ele>992.0</ele><time>2026-05-02T14:23:09Z</time></trkpt><trkpt lat="43.21070593544385" lon="12.909604488612462"><ele>984.6666666666667</ele><time>2026-05-02T14:23:11Z</time></trkpt><trkpt lat="43.21064698447636" lon="12.909679638732191"><ele>977.3333333333334</ele><time>2026-05-02T14:23:13Z</time></trkpt><trkpt lat="43.21058728146648" lon="12.909765234007477"><ele>970.0</ele><time>2026-05-02T14:23:15Z</time></trkpt><trkpt lat="43.21055804709963" lon="12.909848363329997"><ele>962.6666666666667</ele><time>2026-05-02T14:23:17Z</time></trkpt><trkpt lat="43.21052200399725" lon="12.909946497506043"><ele>955.3333333333334</ele><time>2026-05-02T14:23:19Z</time></trkpt><trkpt lat="43.21048256924322" lon="12.910014331418383"><ele>948.0</ele><time>2026-05-02T14:23:22Z</time></trkpt><trkpt lat="43.210408509701516" lon="12.910054686167577"><ele>948.0</ele><time>2026-05-02T14:23:29.999Z</time></trkpt><trkpt lat="43.21034130114531" lon="12.910070956035732"><ele>948.0</ele><time>2026-05-02T14:23:31.999Z</time></trkpt><trkpt lat="43.21025877153647" lon="12.910105365880987"><ele>948.0</ele><time>2026-05-02T14:23:34.999Z</time></trkpt><trkpt lat="43.21014004110487" lon="12.910110105571501"><ele>948.0</ele><time>2026-05-02T14:23:36.999Z</time></trkpt><trkpt lat="43.210062084280516" lon="12.910119144801431"><ele>948.0</ele><time>2026-05-02T14:23:37.999Z</time></trkpt><trkpt lat="43.2099859507644" lon="12.910127110238529"><ele>948.0</ele><time>2026-05-02T14:23:38.999Z</time></trkpt><trkpt lat="43.209902522486736" lon="12.910130947288154"><ele>941.8</ele><time>2026-05-02T14:23:39.999Z</time></trkpt><trkpt lat="43.20979170149907" lon="12.91020144615101"><ele>935.5999999999999</ele><time>2026-05-02T14:23:41.999Z</time></trkpt><trkpt lat="43.2097221285009" lon="12.910341277050415"><ele>929.4000000000001</ele><time>2026-05-02T14:23:43.999Z</time></trkpt><trkpt lat="43.20969072540592" lon="12.910428824885395"><ele>923.2</ele><time>2026-05-02T14:23:44.999Z</time></trkpt><trkpt lat="43.20966320119251" lon="12.910513454693568"><ele>917.0</ele><time>2026-05-02T14:23:45.999Z</time></trkpt><trkpt lat="43.209630946703705" lon="12.91060956394085"><ele>917.0000000000001</ele><time>2026-05-02T14:23:46.999Z</time></trkpt><trkpt lat="43.20959936860877" lon="12.910705122172905"><ele>917.0</ele><time>2026-05-02T14:23:47.999Z</time></trkpt><trkpt lat="43.209568319726294" lon="12.910806016497682"><ele>917.0</ele><time>2026-05-02T14:23:49.999Z</time></trkpt><trkpt lat="43.20954220775699" lon="12.910919158952014"><ele>917.0</ele><time>2026-05-02T14:23:51.999Z</time></trkpt><trkpt lat="43.209506438662956" lon="12.911043585361998"><ele>917.0000000000001</ele><time>2026-05-02T14:23:54.999Z</time></trkpt><trkpt lat="43.20945358910279" lon="12.911122596925594"><ele>917.0</ele><time>2026-05-02T14:23:56.999Z</time></trkpt><trkpt lat="43.209392535785334" lon="12.911191186815453"><ele>914.8333333333334</ele><time>2026-05-02T14:23:58.999Z</time></trkpt><trkpt lat="43.20930251988238" lon="12.911235181010035"><ele>912.6666666666667</ele><time>2026-05-02T14:24:00.999Z</time></trkpt><trkpt lat="43.20923674963096" lon="12.91126985674066"><ele>910.5</ele><time>2026-05-02T14:24:01.999Z</time></trkpt><trkpt lat="43.20917243046927" lon="12.911309742551069"><ele>908.3333333333333</ele><time>2026-05-02T14:24:02.999Z</time></trkpt><trkpt lat="43.20911127081133" lon="12.91136540823482"><ele>906.1666666666666</ele><time>2026-05-02T14:24:03.999Z</time></trkpt><trkpt lat="43.20905092217374" lon="12.911426626977761"><ele>904.0</ele><time>2026-05-02T14:24:04.999Z</time></trkpt><trkpt lat="43.20899827128039" lon="12.911493081407345"><ele>901.4999999999999</ele><time>2026-05-02T14:24:05.999Z</time></trkpt><trkpt lat="43.20896135929832" lon="12.9115803989522"><ele>899.0</ele><time>2026-05-02T14:24:06.999Z</time></trkpt><trkpt lat="43.208926437491336" lon="12.911676835922233"><ele>896.5</ele><time>2026-05-02T14:24:07.999Z</time></trkpt><trkpt lat="43.208893376593245" lon="12.911769032324907"><ele>894.0</ele><time>2026-05-02T14:24:08.999Z</time></trkpt><trkpt lat="43.20880688420342" lon="12.911849633605428"><ele>891.4999999999999</ele><time>2026-05-02T14:24:10.999Z</time></trkpt><trkpt lat="43.20872252282798" lon="12.911951937267036"><ele>889.0</ele><time>2026-05-02T14:24:12.999Z</time></trkpt><trkpt lat="43.2086686724042" lon="12.912000435949528"><ele>888.8000000000001</ele><time>2026-05-02T14:24:13.999Z</time></trkpt><trkpt lat="43.20860780534735" lon="12.912035604453322"><ele>888.6000000000001</ele><time>2026-05-02T14:24:14.999Z</time></trkpt><trkpt lat="43.20848848254358" lon="12.912100532203436"><ele>888.4</ele><time>2026-05-02T14:24:16.999Z</time></trkpt><trkpt lat="43.20840768721961" lon="12.912173498979799"><ele>888.2</ele><time>2026-05-02T14:24:18.999Z</time></trkpt><trkpt lat="43.20833361137993" lon="12.912255494198408"><ele>888.0</ele><time>2026-05-02T14:24:20.999Z</time></trkpt><trkpt lat="43.20828786217153" lon="12.912390471374982"><ele>888.0</ele><time>2026-05-02T14:24:22.999Z</time></trkpt><trkpt lat="43.20828765247452" lon="12.91248257834219"><ele>888.0</ele><time>2026-05-02T14:24:23.999Z</time></trkpt><trkpt lat="43.208271135492915" lon="12.91264699388619"><ele>888.0</ele><time>2026-05-02T14:24:25.999Z</time></trkpt><trkpt lat="43.20819973188374" lon="12.912792593154785"><ele>888.0</ele><time>2026-05-02T14:24:27.999Z</time></trkpt><trkpt lat="43.20815515689419" lon="12.912855529042853"><ele>888.0</ele><time>2026-05-02T14:24:28.999Z</time></trkpt><trkpt lat="43.20806893669729" lon="12.912942325677903"><ele>886.5999999999999</ele><time>2026-05-02T14:24:30.999Z</time></trkpt><trkpt lat="43.207984428611546" lon="12.913051775186423"><ele>885.1999999999999</ele><time>2026-05-02T14:24:32.999Z</time></trkpt><trkpt lat="43.207936361582455" lon="12.913120327740524"><ele>883.8</ele><time>2026-05-02T14:24:33.999Z</time></trkpt><trkpt lat="43.207872961745075" lon="12.91325928901602"><ele>882.4</ele><time>2026-05-02T14:24:35.999Z</time></trkpt><trkpt lat="43.20790708690465" lon="12.913403198248469"><ele>881.0</ele><time>2026-05-02T14:24:37.999Z</time></trkpt><trkpt lat="43.207985559527366" lon="12.913508838321523"><ele>881.0000000000001</ele><time>2026-05-02T14:24:39.999Z</time></trkpt><trkpt lat="43.20808737055987" lon="12.913592779527258"><ele>881.0</ele><time>2026-05-02T14:24:41.999Z</time></trkpt><trkpt lat="43.20814583550504" lon="12.913643536967077"><ele>881.0</ele><time>2026-05-02T14:24:42.999Z</time></trkpt><trkpt lat="43.20823675961308" lon="12.913748768293631"><ele>881.0</ele><time>2026-05-02T14:24:44.999Z</time></trkpt><trkpt lat="43.20829077794534" lon="12.913800886181779"><ele>881.0000000000001</ele><time>2026-05-02T14:24:45.999Z</time></trkpt><trkpt lat="43.20834195406251" lon="12.913851195176553"><ele>881.0</ele><time>2026-05-02T14:24:46.999Z</time></trkpt><trkpt lat="43.20840020426986" lon="12.9139182962871"><ele>879.3333333333334</ele><time>2026-05-02T14:24:47.999Z</time></trkpt><trkpt lat="43.20845691380907" lon="12.913974775943418"><ele>877.6666666666667</ele><time>2026-05-02T14:24:48.999Z</time></trkpt><trkpt lat="43.20851598965154" lon="12.914011573971067"><ele>876.0</ele><time>2026-05-02T14:24:49.999Z</time></trkpt><trkpt lat="43.2085905264144" lon="12.914057860466544"><ele>874.3333333333333</ele><time>2026-05-02T14:24:50.999Z</time></trkpt><trkpt lat="43.208658165995566" lon="12.91420932360331"><ele>872.6666666666666</ele><time>2026-05-02T14:24:52.999Z</time></trkpt><trkpt lat="43.20868706273206" lon="12.914305925064726"><ele>871.0</ele><time>2026-05-02T14:24:53.998Z</time></trkpt><trkpt lat="43.20874924646382" lon="12.914388421708745"><ele>869.8</ele><time>2026-05-02T14:24:54.998Z</time></trkpt><trkpt lat="43.20879093760408" lon="12.914466437659144"><ele>868.5999999999999</ele><time>2026-05-02T14:24:55.998Z</time></trkpt><trkpt lat="43.208802878392966" lon="12.914568861384357"><ele>867.4</ele><time>2026-05-02T14:24:56.998Z</time></trkpt><trkpt lat="43.20883636085843" lon="12.914660933125214"><ele>866.2</ele><time>2026-05-02T14:24:58Z</time></trkpt><trkpt lat="43.20892486033981" lon="12.914774333088513"><ele>865.0</ele><time>2026-05-02T14:25:00Z</time></trkpt><trkpt lat="43.209009321743" lon="12.914904121317223"><ele>863.4999999999999</ele><time>2026-05-02T14:25:02Z</time></trkpt><trkpt lat="43.20903099473596" lon="12.915056406147434"><ele>862.0</ele><time>2026-05-02T14:25:04Z</time></trkpt><trkpt lat="43.20897791545157" lon="12.915165056210531"><ele>860.5</ele><time>2026-05-02T14:25:06Z</time></trkpt><trkpt lat="43.208905902959444" lon="12.915234867314185"><ele>859.0</ele><time>2026-05-02T14:25:08Z</time></trkpt><trkpt lat="43.20885642633091" lon="12.915288897112948"><ele>857.4999999999999</ele><time>2026-05-02T14:25:09Z</time></trkpt><trkpt lat="43.20879522813263" lon="12.915366748508449"><ele>856.0</ele><time>2026-05-02T14:25:10Z</time></trkpt><trkpt lat="43.20871156748907" lon="12.915432411675742"><ele>856.0</ele><time>2026-05-02T14:25:11Z</time></trkpt><trkpt lat="43.208642527666335" lon="12.91550644389316"><ele>855.9999999999999</ele><time>2026-05-02T14:25:12Z</time></trkpt><trkpt lat="43.2085813635921" lon="12.915577054064828"><ele>855.9999999999999</ele><time>2026-05-02T14:25:13Z</time></trkpt><trkpt lat="43.20852723646321" lon="12.915638643391139"><ele>856.0</ele><time>2026-05-02T14:25:14Z</time></trkpt><trkpt lat="43.208519483719385" lon="12.915800967509963"><ele>856.0</ele><time>2026-05-02T14:25:16Z</time></trkpt><trkpt lat="43.20855022078315" lon="12.915943097463632"><ele>855.8</ele><time>2026-05-02T14:25:17Z</time></trkpt><trkpt lat="43.20862127732322" lon="12.916061726986225"><ele>855.5999999999999</ele><time>2026-05-02T14:25:18Z</time></trkpt><trkpt lat="43.208708748053276" lon="12.916175084224465"><ele>855.4</ele><time>2026-05-02T14:25:19Z</time></trkpt><trkpt lat="43.208758128816285" lon="12.91628990996924"><ele>855.2</ele><time>2026-05-02T14:25:20Z</time></trkpt><trkpt lat="43.20879004159272" lon="12.916406197400343"><ele>855.0</ele><time>2026-05-02T14:25:21Z</time></trkpt><trkpt lat="43.20884458382051" lon="12.916546497022171"><ele>855.0</ele><time>2026-05-02T14:25:22Z</time></trkpt><trkpt lat="43.20888527605375" lon="12.916689001111198"><ele>855.0</ele><time>2026-05-02T14:25:23Z</time></trkpt><trkpt lat="43.208922241819494" lon="12.91682825833883"><ele>855.0</ele><time>2026-05-02T14:25:24Z</time></trkpt><trkpt lat="43.208954182289915" lon="12.916959270998438"><ele>855.0</ele><time>2026-05-02T14:25:25Z</time></trkpt><trkpt lat="43.208994907831865" lon="12.917072288465826"><ele>855.0</ele><time>2026-05-02T14:25:26Z</time></trkpt><trkpt lat="43.20902005882666" lon="12.917201784938468"><ele>849.0</ele><time>2026-05-02T14:25:27Z</time></trkpt><trkpt lat="43.20903597028565" lon="12.917327247591318"><ele>843.0</ele><time>2026-05-02T14:25:28Z</time></trkpt><trkpt lat="43.20903590747398" lon="12.917429498894464"><ele>837.0</ele><time>2026-05-02T14:25:29Z</time></trkpt><trkpt lat="43.20902215935803" lon="12.917537388096134"><ele>831.0</ele><time>2026-05-02T14:25:30Z</time></trkpt><trkpt lat="43.20902320068728" lon="12.917698165941477"><ele>825.0</ele><time>2026-05-02T14:25:31Z</time></trkpt><trkpt lat="43.20903501532721" lon="12.917869281054962"><ele>825.0</ele><time>2026-05-02T14:25:32Z</time></trkpt><trkpt lat="43.20904707813152" lon="12.91799621304039"><ele>825.0</ele><time>2026-05-02T14:25:33Z</time></trkpt><trkpt lat="43.209045779897274" lon="12.91811639819371"><ele>825.0</ele><time>2026-05-02T14:25:34Z</time></trkpt><trkpt lat="43.20902845643388" lon="12.918215761484333"><ele>825.0</ele><time>2026-05-02T14:25:35Z</time></trkpt><trkpt lat="43.20899066276284" lon="12.918325865127004"><ele>825.0</ele><time>2026-05-02T14:25:36Z</time></trkpt><trkpt lat="43.20893787595278" lon="12.918438589542403"><ele>825.0</ele><time>2026-05-02T14:25:37Z</time></trkpt><trkpt lat="43.20886434582799" lon="12.918573439098532"><ele>829.6</ele><time>2026-05-02T14:25:38Z</time></trkpt><trkpt lat="43.20881292017186" lon="12.918710884302177"><ele>834.2</ele><time>2026-05-02T14:25:39Z</time></trkpt><trkpt lat="43.20877532952121" lon="12.918809106478417"><ele>838.8</ele><time>2026-05-02T14:25:40Z</time></trkpt><trkpt lat="43.20871296134206" lon="12.918936931150593"><ele>843.4</ele><time>2026-05-02T14:25:40.999Z</time></trkpt><trkpt lat="43.20869501920591" lon="12.91902170636534"><ele>848.0</ele><time>2026-05-02T14:25:41.999Z</time></trkpt><trkpt lat="43.20869847209626" lon="12.919145392516986"><ele>848.0000000000001</ele><time>2026-05-02T14:25:42.999Z</time></trkpt><trkpt lat="43.208768015594735" lon="12.919223138299087"><ele>848.0</ele><time>2026-05-02T14:25:45.999Z</time></trkpt><trkpt lat="43.20878516521364" lon="12.919317427783996"><ele>848.0</ele><time>2026-05-02T14:25:46.999Z</time></trkpt><trkpt lat="43.2088212194875" lon="12.919393556306781"><ele>848.0</ele><time>2026-05-02T14:25:47.999Z</time></trkpt><trkpt lat="43.20886756107124" lon="12.919522211196128"><ele>848.0000000000001</ele><time>2026-05-02T14:25:49.999Z</time></trkpt><trkpt lat="43.20886335597869" lon="12.919668896048515"><ele>848.0</ele><time>2026-05-02T14:25:51.999Z</time></trkpt><trkpt lat="43.20884684431507" lon="12.919811856319242"><ele>846.6666666666667</ele><time>2026-05-02T14:25:53.999Z</time></trkpt><trkpt lat="43.20886848372308" lon="12.91991432836024"><ele>845.3333333333334</ele><time>2026-05-02T14:25:55.999Z</time></trkpt><trkpt lat="43.208867989185535" lon="12.920008246518526"><ele>844.0</ele><time>2026-05-02T14:25:56.999Z</time></trkpt><trkpt lat="43.20887698514541" lon="12.920120245531878"><ele>842.6666666666667</ele><time>2026-05-02T14:25:57.999Z</time></trkpt><trkpt lat="43.208888453743086" lon="12.920279369295015"><ele>841.3333333333334</ele><time>2026-05-02T14:25:59.999Z</time></trkpt><trkpt lat="43.20887595797261" lon="12.920398030216022"><ele>840.0</ele><time>2026-05-02T14:26:01.999Z</time></trkpt><trkpt lat="43.20885811375354" lon="12.920547674025643"><ele>837.1666666666666</ele><time>2026-05-02T14:26:03.999Z</time></trkpt><trkpt lat="43.208866367446" lon="12.920710048249699"><ele>834.3333333333333</ele><time>2026-05-02T14:26:05.999Z</time></trkpt><trkpt lat="43.208848054630565" lon="12.920799175318411"><ele>831.5</ele><time>2026-05-02T14:26:06.999Z</time></trkpt><trkpt lat="43.20882355109319" lon="12.92087940273437"><ele>828.6666666666666</ele><time>2026-05-02T14:26:07.999Z</time></trkpt><trkpt lat="43.20880167195824" lon="12.920986441432238"><ele>825.8333333333333</ele><time>2026-05-02T14:26:08.999Z</time></trkpt><trkpt lat="43.20877296654791" lon="12.921104108740579"><ele>823.0</ele><time>2026-05-02T14:26:09.999Z</time></trkpt><trkpt lat="43.20872866610756" lon="12.921253613696438"><ele>818.1666666666666</ele><time>2026-05-02T14:26:11.999Z</time></trkpt><trkpt lat="43.20870660757539" lon="12.92133655868879"><ele>813.3333333333333</ele><time>2026-05-02T14:26:12.999Z</time></trkpt><trkpt lat="43.208669348273986" lon="12.921480823803984"><ele>808.5</ele><time>2026-05-02T14:26:14.999Z</time></trkpt><trkpt lat="43.20871832586442" lon="12.9216175644907"><ele>803.6666666666667</ele><time>2026-05-02T14:26:16.999Z</time></trkpt><trkpt lat="43.20874390133923" lon="12.921706109737373"><ele>798.8333333333334</ele><time>2026-05-02T14:26:17.999Z</time></trkpt><trkpt lat="43.20877410178263" lon="12.921783475899254"><ele>794.0</ele><time>2026-05-02T14:26:18.999Z</time></trkpt><trkpt lat="43.208805925391076" lon="12.921858574177412"><ele>792.4000000000001</ele><time>2026-05-02T14:26:19.999Z</time></trkpt><trkpt lat="43.208887715173404" lon="12.922002795701427"><ele>790.8</ele><time>2026-05-02T14:26:21.999Z</time></trkpt><trkpt lat="43.20893367833237" lon="12.92209990430869"><ele>789.2</ele><time>2026-05-02T14:26:22.999Z</time></trkpt><trkpt lat="43.20897735732174" lon="12.922196505170858"><ele>787.5999999999999</ele><time>2026-05-02T14:26:23.999Z</time></trkpt><trkpt lat="43.209022166952735" lon="12.92226024521011"><ele>786.0</ele><time>2026-05-02T14:26:24.999Z</time></trkpt><trkpt lat="43.20912521574731" lon="12.922303930001867"><ele>786.0</ele><time>2026-05-02T14:26:26.999Z</time></trkpt><trkpt lat="43.209266814309366" lon="12.92231924048466"><ele>786.0</ele><time>2026-05-02T14:26:28.999Z</time></trkpt><trkpt lat="43.2093849131269" lon="12.922380897733982"><ele>786.0</ele><time>2026-05-02T14:26:30.999Z</time></trkpt><trkpt lat="43.20946781587149" lon="12.922430296017442"><ele>786.0</ele><time>2026-05-02T14:26:31.999Z</time></trkpt><trkpt lat="43.20953455751633" lon="12.922473998823053"><ele>786.0</ele><time>2026-05-02T14:26:32.999Z</time></trkpt><trkpt lat="43.20960327217123" lon="12.922522905475038"><ele>786.0</ele><time>2026-05-02T14:26:33.999Z</time></trkpt><trkpt lat="43.209672753059195" lon="12.922557713612303"><ele>786.0</ele><time>2026-05-02T14:26:34.999Z</time></trkpt><trkpt lat="43.2097476403445" lon="12.922603750192769"><ele>786.0</ele><time>2026-05-02T14:26:35.999Z</time></trkpt><trkpt lat="43.209828976759106" lon="12.922658071494585"><ele>786.0</ele><time>2026-05-02T14:26:36.999Z</time></trkpt><trkpt lat="43.20991385923194" lon="12.922756392977208"><ele>786.0</ele><time>2026-05-02T14:26:37.999Z</time></trkpt><trkpt lat="43.21000298840192" lon="12.922817110595247"><ele>783.5</ele><time>2026-05-02T14:26:38.999Z</time></trkpt><trkpt lat="43.21008370359585" lon="12.92287235420964"><ele>781.0</ele><time>2026-05-02T14:26:39.999Z</time></trkpt><trkpt lat="43.21015129824927" lon="12.922925186019183"><ele>778.5</ele><time>2026-05-02T14:26:40.999Z</time></trkpt><trkpt lat="43.210218679764516" lon="12.922975692845524"><ele>776.0</ele><time>2026-05-02T14:26:41.999Z</time></trkpt><trkpt lat="43.21028824582336" lon="12.923038995865147"><ele>773.5</ele><time>2026-05-02T14:26:42.999Z</time></trkpt><trkpt lat="43.21033988619039" lon="12.923097110350383"><ele>771.0</ele><time>2026-05-02T14:26:43.999Z</time></trkpt><trkpt lat="43.21041667704255" lon="12.923156483365645"><ele>771.0</ele><time>2026-05-02T14:26:44.999Z</time></trkpt><trkpt lat="43.210505941745105" lon="12.923197726971615"><ele>771.0</ele><time>2026-05-02T14:26:45.999Z</time></trkpt><trkpt lat="43.210603933871184" lon="12.923254788046467"><ele>771.0</ele><time>2026-05-02T14:26:46.999Z</time></trkpt><trkpt lat="43.21066040820353" lon="12.923303728343132"><ele>771.0</ele><time>2026-05-02T14:26:47.999Z</time></trkpt><trkpt lat="43.21071197810106" lon="12.923354225494789"><ele>771.0</ele><time>2026-05-02T14:26:48.999Z</time></trkpt><trkpt lat="43.21076939781862" lon="12.923400311585109"><ele>771.0</ele><time>2026-05-02T14:26:49.999Z</time></trkpt><trkpt lat="43.21083369908778" lon="12.923443105762212"><ele>765.1999999999999</ele><time>2026-05-02T14:26:50.999Z</time></trkpt><trkpt lat="43.21091758134671" lon="12.923490348975713"><ele>759.4</ele><time>2026-05-02T14:26:51.999Z</time></trkpt><trkpt lat="43.21099796835487" lon="12.923542804714808"><ele>753.6</ele><time>2026-05-02T14:26:52.999Z</time></trkpt><trkpt lat="43.21107681258402" lon="12.92360864741248"><ele>747.8</ele><time>2026-05-02T14:26:53.999Z</time></trkpt><trkpt lat="43.211213937220904" lon="12.923667620195866"><ele>742.0</ele><time>2026-05-02T14:26:55.999Z</time></trkpt><trkpt lat="43.21134355589536" lon="12.923679287604921"><ele>742.0</ele><time>2026-05-02T14:26:57.999Z</time></trkpt><trkpt lat="43.2114530500283" lon="12.923698865616734"><ele>742.0</ele><time>2026-05-02T14:26:59.999Z</time></trkpt><trkpt lat="43.21155896654493" lon="12.923701485783726"><ele>742.0</ele><time>2026-05-02T14:27:01.999Z</time></trkpt><trkpt lat="43.211602131408036" lon="12.923785719133948"><ele>742.0</ele><time>2026-05-02T14:27:04Z</time></trkpt><trkpt lat="43.21156469777672" lon="12.923914087259375"><ele>742.0</ele><time>2026-05-02T14:27:06Z</time></trkpt><trkpt lat="43.21151987987879" lon="12.924076615804253"><ele>738.8</ele><time>2026-05-02T14:27:08Z</time></trkpt><trkpt lat="43.211491178800195" lon="12.924188191305948"><ele>735.6</ele><time>2026-05-02T14:27:09Z</time></trkpt><trkpt lat="43.21147917652926" lon="12.924276440077715"><ele>732.4</ele><time>2026-05-02T14:27:10Z</time></trkpt><trkpt lat="43.21147675174963" lon="12.924427720170272"><ele>729.1999999999999</ele><time>2026-05-02T14:27:12Z</time></trkpt><trkpt lat="43.21136074284671" lon="12.924539609703274"><ele>726.0</ele><time>2026-05-02T14:27:14Z</time></trkpt><trkpt lat="43.21130748225861" lon="12.92461548137168"><ele>725.5</ele><time>2026-05-02T14:27:15Z</time></trkpt><trkpt lat="43.21128581226541" lon="12.924773268889188"><ele>725.0</ele><time>2026-05-02T14:27:17Z</time></trkpt><trkpt lat="43.211271916134514" lon="12.924858222762293"><ele>724.5</ele><time>2026-05-02T14:27:18Z</time></trkpt><trkpt lat="43.21124612749096" lon="12.924984409937593"><ele>724.0</ele><time>2026-05-02T14:27:20Z</time></trkpt><trkpt lat="43.21123627963391" lon="12.92507764087287"><ele>723.5</ele><time>2026-05-02T14:27:22Z</time></trkpt><trkpt lat="43.21129422464641" lon="12.92517191771705"><ele>723.0</ele><time>2026-05-02T14:27:24Z</time></trkpt><trkpt lat="43.21134859291311" lon="12.925234415663427"><ele>723.0</ele><time>2026-05-02T14:27:25Z</time></trkpt><trkpt lat="43.21139246746031" lon="12.925312890034796"><ele>723.0</ele><time>2026-05-02T14:27:26Z</time></trkpt><trkpt lat="43.21144545437587" lon="12.92540656395576"><ele>723.0</ele><time>2026-05-02T14:27:27Z</time></trkpt><trkpt lat="43.21148110544172" lon="12.925498040724081"><ele>723.0</ele><time>2026-05-02T14:27:28Z</time></trkpt><trkpt lat="43.21150528977487" lon="12.925583616271528"><ele>723.0</ele><time>2026-05-02T14:27:29Z</time></trkpt><trkpt lat="43.21155054440106" lon="12.925683745901292"><ele>723.0</ele><time>2026-05-02T14:27:30Z</time></trkpt><trkpt lat="43.21159026896884" lon="12.925831496350202"><ele>728.6666666666666</ele><time>2026-05-02T14:27:32Z</time></trkpt><trkpt lat="43.21161051680513" lon="12.925927454001448"><ele>734.3333333333334</ele><time>2026-05-02T14:27:34Z</time></trkpt><trkpt lat="43.21160979735875" lon="12.926045561324912"><ele>740.0</ele><time>2026-05-02T14:27:36Z</time></trkpt><trkpt lat="43.21162500817077" lon="12.92614385807933"><ele>745.6666666666667</ele><time>2026-05-02T14:27:37Z</time></trkpt><trkpt lat="43.21165001083768" lon="12.926241828195515"><ele>751.3333333333334</ele><time>2026-05-02T14:27:38Z</time></trkpt><trkpt lat="43.211687075753915" lon="12.926331520172049"><ele>757.0</ele><time>2026-05-02T14:27:39Z</time></trkpt><trkpt lat="43.211723279071" lon="12.926417367727032"><ele>757.0</ele><time>2026-05-02T14:27:40Z</time></trkpt><trkpt lat="43.21174741732595" lon="12.926500486466832"><ele>757.0</ele><time>2026-05-02T14:27:41Z</time></trkpt><trkpt lat="43.21175586927162" lon="12.926612776291998"><ele>757.0</ele><time>2026-05-02T14:27:43Z</time></trkpt><trkpt lat="43.211767456490385" lon="12.926704947378466"><ele>757.0</ele><time>2026-05-02T14:27:44Z</time></trkpt><trkpt lat="43.21178886663049" lon="12.926794669648618"><ele>757.0</ele><time>2026-05-02T14:27:45Z</time></trkpt><trkpt lat="43.21180567830642" lon="12.926893759165742"><ele>757.0</ele><time>2026-05-02T14:27:46Z</time></trkpt><trkpt lat="43.211814921999604" lon="12.926998310114456"><ele>757.0</ele><time>2026-05-02T14:27:47Z</time></trkpt><trkpt lat="43.211836855320136" lon="12.927081063189675"><ele>760.2</ele><time>2026-05-02T14:27:48Z</time></trkpt><trkpt lat="43.2118478074736" lon="12.927171557036202"><ele>763.4000000000001</ele><time>2026-05-02T14:27:48.999Z</time></trkpt><trkpt lat="43.2118570334131" lon="12.927298763711764"><ele>766.5999999999999</ele><time>2026-05-02T14:27:50.999Z</time></trkpt><trkpt lat="43.21185646651365" lon="12.927445633728707"><ele>769.8</ele><time>2026-05-02T14:27:52.999Z</time></trkpt><trkpt lat="43.211855400490734" lon="12.927582134095074"><ele>773.0</ele><time>2026-05-02T14:27:54.999Z</time></trkpt><trkpt lat="43.211852086854925" lon="12.927727406485005"><ele>775.1666666666667</ele><time>2026-05-02T14:27:56.999Z</time></trkpt><trkpt lat="43.21187020393887" lon="12.927818792749566"><ele>777.3333333333334</ele><time>2026-05-02T14:27:57.999Z</time></trkpt><trkpt lat="43.21190542439942" lon="12.927903064137494"><ele>779.5</ele><time>2026-05-02T14:27:58.999Z</time></trkpt><trkpt lat="43.21195838918966" lon="12.927999227829927"><ele>781.6666666666667</ele><time>2026-05-02T14:27:59.999Z</time></trkpt><trkpt lat="43.21199677386516" lon="12.928070927604136"><ele>783.8333333333334</ele><time>2026-05-02T14:28:00.999Z</time></trkpt><trkpt lat="43.212088654491765" lon="12.928179725022808"><ele>786.0</ele><time>2026-05-02T14:28:02.999Z</time></trkpt><trkpt lat="43.212122687464344" lon="12.928340351206604"><ele>786.4</ele><time>2026-05-02T14:28:04.999Z</time></trkpt><trkpt lat="43.21215134755102" lon="12.928431323775708"><ele>786.8</ele><time>2026-05-02T14:28:06.999Z</time></trkpt><trkpt lat="43.2121813820074" lon="12.928517510678518"><ele>787.1999999999999</ele><time>2026-05-02T14:28:08.999Z</time></trkpt><trkpt lat="43.21223818885747" lon="12.92863654545648"><ele>787.5999999999999</ele><time>2026-05-02T14:28:10.999Z</time></trkpt><trkpt lat="43.2122658350617" lon="12.928748536256064"><ele>788.0</ele><time>2026-05-02T14:28:11.999Z</time></trkpt><trkpt lat="43.21231837020983" lon="12.928908463571844"><ele>788.4</ele><time>2026-05-02T14:28:12.999Z</time></trkpt><trkpt lat="43.21235205173502" lon="12.92906960453279"><ele>788.8</ele><time>2026-05-02T14:28:13.999Z</time></trkpt><trkpt lat="43.21239928823835" lon="12.929196555186476"><ele>789.2</ele><time>2026-05-02T14:28:14.999Z</time></trkpt><trkpt lat="43.21246123763615" lon="12.92932012879826"><ele>789.6</ele><time>2026-05-02T14:28:15.999Z</time></trkpt><trkpt lat="43.21248696891497" lon="12.9294353289704"><ele>790.0</ele><time>2026-05-02T14:28:16.999Z</time></trkpt><trkpt lat="43.21249798080892" lon="12.929575423712738"><ele>790.4</ele><time>2026-05-02T14:28:18.999Z</time></trkpt><trkpt lat="43.21246506372793" lon="12.929679651197299"><ele>790.8</ele><time>2026-05-02T14:28:20.999Z</time></trkpt><trkpt lat="43.2124054991191" lon="12.92978123139781"><ele>791.2</ele><time>2026-05-02T14:28:28.999Z</time></trkpt><trkpt lat="43.21232074266191" lon="12.92988020525988"><ele>791.6</ele><time>2026-05-02T14:28:29.999Z</time></trkpt><trkpt lat="43.212249109667525" lon="12.929975107495915"><ele>792.0</ele><time>2026-05-02T14:28:30.999Z</time></trkpt><trkpt lat="43.21218664292714" lon="12.930075738446746"><ele>789.6</ele><time>2026-05-02T14:28:31.999Z</time></trkpt><trkpt lat="43.21209846490179" lon="12.930176048837653"><ele>787.2</ele><time>2026-05-02T14:28:32.999Z</time></trkpt><trkpt lat="43.21200955920036" lon="12.93027804226283"><ele>784.8</ele><time>2026-05-02T14:28:33.999Z</time></trkpt><trkpt lat="43.21191932302124" lon="12.93039638589859"><ele>782.4</ele><time>2026-05-02T14:28:34.999Z</time></trkpt><trkpt lat="43.2118533682971" lon="12.930483914309265"><ele>780.0</ele><time>2026-05-02T14:28:35.999Z</time></trkpt><trkpt lat="43.211780598810975" lon="12.930580469938604"><ele>780.0</ele><time>2026-05-02T14:28:36.999Z</time></trkpt><trkpt lat="43.2116807430981" lon="12.930683305016881"><ele>780.0</ele><time>2026-05-02T14:28:37.999Z</time></trkpt><trkpt lat="43.21159608817709" lon="12.93077408444867"><ele>780.0</ele><time>2026-05-02T14:28:38.999Z</time></trkpt><trkpt lat="43.2115167527222" lon="12.930882623228001"><ele>780.0</ele><time>2026-05-02T14:28:39.999Z</time></trkpt><trkpt lat="43.21144390361729" lon="12.930972879625127"><ele>780.0</ele><time>2026-05-02T14:28:40.999Z</time></trkpt><trkpt lat="43.21136007818498" lon="12.931060709693288"><ele>779.3333333333334</ele><time>2026-05-02T14:28:41.999Z</time></trkpt><trkpt lat="43.21130447764254" lon="12.931147457327537"><ele>778.6666666666667</ele><time>2026-05-02T14:28:42.999Z</time></trkpt><trkpt lat="43.2112664180789" lon="12.93123431946934"><ele>778.0</ele><time>2026-05-02T14:28:44.999Z</time></trkpt><trkpt lat="43.21121256720364" lon="12.931346382191201"><ele>777.3333333333334</ele><time>2026-05-02T14:28:46.999Z</time></trkpt><trkpt lat="43.21111315787545" lon="12.931372655707705"><ele>776.6666666666667</ele><time>2026-05-02T14:28:48.999Z</time></trkpt><trkpt lat="43.21104899513594" lon="12.931425351607023"><ele>776.0</ele><time>2026-05-02T14:28:49.999Z</time></trkpt><trkpt lat="43.21096698756759" lon="12.931533580808994"><ele>776.0</ele><time>2026-05-02T14:28:50.999Z</time></trkpt><trkpt lat="43.210881658861645" lon="12.93164221664434"><ele>776.0</ele><time>2026-05-02T14:28:51.999Z</time></trkpt><trkpt lat="43.21083295790254" lon="12.931704335303422"><ele>776.0</ele><time>2026-05-02T14:28:52.999Z</time></trkpt><trkpt lat="43.21073513776136" lon="12.931821549378252"><ele>776.0</ele><time>2026-05-02T14:28:54.999Z</time></trkpt><trkpt lat="43.210687307268685" lon="12.93188059113711"><ele>776.0</ele><time>2026-05-02T14:28:55.999Z</time></trkpt><trkpt lat="43.2106053366598" lon="12.931981476485575"><ele>777.0</ele><time>2026-05-02T14:28:56.999Z</time></trkpt><trkpt lat="43.210535412214995" lon="12.932076063550634"><ele>778.0</ele><time>2026-05-02T14:28:57.999Z</time></trkpt><trkpt lat="43.21045989630148" lon="12.93217173878372"><ele>779.0</ele><time>2026-05-02T14:28:58.999Z</time></trkpt><trkpt lat="43.21038137666239" lon="12.932276650746287"><ele>780.0</ele><time>2026-05-02T14:28:59.999Z</time></trkpt><trkpt lat="43.210309350147945" lon="12.93236301197527"><ele>781.0</ele><time>2026-05-02T14:29:00.999Z</time></trkpt><trkpt lat="43.210265646180034" lon="12.932442119939031"><ele>781.0</ele><time>2026-05-02T14:29:01.999Z</time></trkpt><trkpt lat="43.21018502044199" lon="12.93252018710012"><ele>781.0</ele><time>2026-05-02T14:29:02.999Z</time></trkpt><trkpt lat="43.21011166991131" lon="12.932602822248748"><ele>781.0</ele><time>2026-05-02T14:29:03.999Z</time></trkpt><trkpt lat="43.21004550958813" lon="12.932683744876016"><ele>781.0</ele><time>2026-05-02T14:29:04.999Z</time></trkpt><trkpt lat="43.209977310513004" lon="12.93276682752313"><ele>781.0</ele><time>2026-05-02T14:29:05.999Z</time></trkpt><trkpt lat="43.209914245504685" lon="12.932846425736583"><ele>780.1666666666666</ele><time>2026-05-02T14:29:06.999Z</time></trkpt><trkpt lat="43.20985001514762" lon="12.932933325886307"><ele>779.3333333333333</ele><time>2026-05-02T14:29:07.999Z</time></trkpt><trkpt lat="43.20977862771836" lon="12.933022278008664"><ele>778.5</ele><time>2026-05-02T14:29:09Z</time></trkpt><trkpt lat="43.20971430485756" lon="12.933097478094966"><ele>777.6666666666667</ele><time>2026-05-02T14:29:10Z</time></trkpt><trkpt lat="43.20964762503529" lon="12.933165575283338"><ele>776.8333333333334</ele><time>2026-05-02T14:29:11Z</time></trkpt><trkpt lat="43.209576013745775" lon="12.933242186152848"><ele>776.0</ele><time>2026-05-02T14:29:12Z</time></trkpt><trkpt lat="43.20952260256718" lon="12.93331529799889"><ele>773.0000000000001</ele><time>2026-05-02T14:29:13Z</time></trkpt><trkpt lat="43.20945795622794" lon="12.93339153256247"><ele>770.0</ele><time>2026-05-02T14:29:14Z</time></trkpt><trkpt lat="43.20940697348994" lon="12.933449937355437"><ele>767.0</ele><time>2026-05-02T14:29:15Z</time></trkpt><trkpt lat="43.2093363074533" lon="12.933529477370776"><ele>764.0</ele><time>2026-05-02T14:29:16Z</time></trkpt><trkpt lat="43.20928277478215" lon="12.933602609258191"><ele>761.0</ele><time>2026-05-02T14:29:17Z</time></trkpt><trkpt lat="43.20921461362011" lon="12.933681924758066"><ele>758.0</ele><time>2026-05-02T14:29:18Z</time></trkpt><trkpt lat="43.209142859737554" lon="12.93376052009581"><ele>758.0</ele><time>2026-05-02T14:29:19Z</time></trkpt><trkpt lat="43.209075529035196" lon="12.933852975873386"><ele>758.0</ele><time>2026-05-02T14:29:20Z</time></trkpt><trkpt lat="43.208994037038906" lon="12.933933670770868"><ele>758.0</ele><time>2026-05-02T14:29:21Z</time></trkpt><trkpt lat="43.20891986931805" lon="12.93399848019212"><ele>758.0</ele><time>2026-05-02T14:29:22Z</time></trkpt><trkpt lat="43.2088494643403" lon="12.934080227686902"><ele>758.0</ele><time>2026-05-02T14:29:23Z</time></trkpt><trkpt lat="43.208814667804425" lon="12.934179963293884"><ele>755.0</ele><time>2026-05-02T14:29:24Z</time></trkpt><trkpt lat="43.20878176515199" lon="12.934299870408564"><ele>752.0</ele><time>2026-05-02T14:29:26Z</time></trkpt><trkpt lat="43.208711797372736" lon="12.934378665268047"><ele>749.0</ele><time>2026-05-02T14:29:28Z</time></trkpt><trkpt lat="43.2086172930322" lon="12.934451865714975"><ele>746.0</ele><time>2026-05-02T14:29:30Z</time></trkpt><trkpt lat="43.2085306929577" lon="12.93454929581132"><ele>743.0</ele><time>2026-05-02T14:29:32Z</time></trkpt><trkpt lat="43.20842153989025" lon="12.934612714548972"><ele>743.0</ele><time>2026-05-02T14:29:34Z</time></trkpt><trkpt lat="43.20835137917729" lon="12.934701450221063"><ele>743.0</ele><time>2026-05-02T14:29:35Z</time></trkpt><trkpt lat="43.20828951056274" lon="12.934790009263104"><ele>743.0</ele><time>2026-05-02T14:29:36Z</time></trkpt><trkpt lat="43.20823049142457" lon="12.934858286579175"><ele>743.0</ele><time>2026-05-02T14:29:37Z</time></trkpt><trkpt lat="43.208147763002415" lon="12.934926425620294"><ele>743.0</ele><time>2026-05-02T14:29:38Z</time></trkpt><trkpt lat="43.20807733612394" lon="12.934979692345035"><ele>743.0</ele><time>2026-05-02T14:29:39Z</time></trkpt><trkpt lat="43.2080093692359" lon="12.935077038539955"><ele>744.4</ele><time>2026-05-02T14:29:41Z</time></trkpt><trkpt lat="43.2079482991176" lon="12.935160428900561"><ele>745.8</ele><time>2026-05-02T14:29:44Z</time></trkpt><trkpt lat="43.207914696382545" lon="12.935284997561247"><ele>747.2</ele><time>2026-05-02T14:32:48.999Z</time></trkpt><trkpt lat="43.20797261991317" lon="12.935350161880363"><ele>748.6</ele><time>2026-05-02T14:32:49.999Z</time></trkpt><trkpt lat="43.208056743963816" lon="12.935407547091591"><ele>750.0</ele><time>2026-05-02T14:32:51.999Z</time></trkpt><trkpt lat="43.208123505748766" lon="12.93551064156604"><ele>749.8333333333334</ele><time>2026-05-02T14:32:53.999Z</time></trkpt><trkpt lat="43.208198260246895" lon="12.935555769496103"><ele>749.6666666666666</ele><time>2026-05-02T14:32:56.999Z</time></trkpt><trkpt lat="43.20825610230186" lon="12.935605429576759"><ele>749.5</ele><time>2026-05-02T14:32:57.999Z</time></trkpt><trkpt lat="43.20834187787722" lon="12.935678369419117"><ele>749.3333333333333</ele><time>2026-05-02T14:32:59.999Z</time></trkpt><trkpt lat="43.20839260144444" lon="12.935781192096972"><ele>749.1666666666666</ele><time>2026-05-02T14:33:01.999Z</time></trkpt><trkpt lat="43.208423479700365" lon="12.93588486680938"><ele>749.0</ele><time>2026-05-02T14:33:03.999Z</time></trkpt><trkpt lat="43.20843518120878" lon="12.935991555756425"><ele>752.5</ele><time>2026-05-02T14:33:05.999Z</time></trkpt><trkpt lat="43.208447710728464" lon="12.936097310469762"><ele>756.0</ele><time>2026-05-02T14:33:07.999Z</time></trkpt><trkpt lat="43.20846734473551" lon="12.936211665791244"><ele>759.5</ele><time>2026-05-02T14:33:09.999Z</time></trkpt><trkpt lat="43.208475427663814" lon="12.936309286768983"><ele>763.0</ele><time>2026-05-02T14:33:12.999Z</time></trkpt><trkpt lat="43.208530323713575" lon="12.936407569238485"><ele>766.5000000000001</ele><time>2026-05-02T14:33:16.999Z</time></trkpt><trkpt lat="43.20863140516142" lon="12.936495750985145"><ele>770.0</ele><time>2026-05-02T14:33:18.999Z</time></trkpt><trkpt lat="43.20871007404053" lon="12.93657084734625"><ele>770.0000000000001</ele><time>2026-05-02T14:33:21Z</time></trkpt><trkpt lat="43.208785643950456" lon="12.936689480182936"><ele>770.0</ele><time>2026-05-02T14:33:23Z</time></trkpt><trkpt lat="43.20886457226188" lon="12.936777294762454"><ele>770.0</ele><time>2026-05-02T14:33:25Z</time></trkpt><trkpt lat="43.20893279953347" lon="12.936836336261653"><ele>770.0</ele><time>2026-05-02T14:33:28Z</time></trkpt><trkpt lat="43.20898766918078" lon="12.936909088527244"><ele>770.0000000000001</ele><time>2026-05-02T14:33:30Z</time></trkpt><trkpt lat="43.209026837463135" lon="12.936990800174199"><ele>770.0</ele><time>2026-05-02T14:33:32Z</time></trkpt><trkpt lat="43.20908676350418" lon="12.937077457236018"><ele>771.5</ele><time>2026-05-02T14:33:35Z</time></trkpt><trkpt lat="43.20915735476369" lon="12.937179861966776"><ele>773.0</ele><time>2026-05-02T14:33:37Z</time></trkpt><trkpt lat="43.209246767618225" lon="12.937310739518269"><ele>774.5</ele><time>2026-05-02T14:33:39Z</time></trkpt><trkpt lat="43.209313148316966" lon="12.93743830358854"><ele>776.0</ele><time>2026-05-02T14:33:41Z</time></trkpt><trkpt lat="43.20937367173729" lon="12.937579670776403"><ele>778.5999999999999</ele><time>2026-05-02T14:33:43Z</time></trkpt><trkpt lat="43.2094247528515" lon="12.937722783984892"><ele>781.2</ele><time>2026-05-02T14:33:45Z</time></trkpt><trkpt lat="43.209461216117155" lon="12.937854922658026"><ele>783.8</ele><time>2026-05-02T14:33:47Z</time></trkpt><trkpt lat="43.20949070243907" lon="12.937987090204208"><ele>786.4000000000001</ele><time>2026-05-02T14:33:49Z</time></trkpt><trkpt lat="43.20951582836771" lon="12.938127028712046"><ele>789.0</ele><time>2026-05-02T14:33:51Z</time></trkpt><trkpt lat="43.209537781869024" lon="12.93827414263139"><ele>789.0</ele><time>2026-05-02T14:33:53Z</time></trkpt><trkpt lat="43.20953587118099" lon="12.93836052064861"><ele>789.0</ele><time>2026-05-02T14:33:54Z</time></trkpt><trkpt lat="43.20955481137932" lon="12.938482340279283"><ele>789.0</ele><time>2026-05-02T14:33:56Z</time></trkpt><trkpt lat="43.209580919500716" lon="12.938635929593442"><ele>789.0</ele><time>2026-05-02T14:33:58Z</time></trkpt><trkpt lat="43.209613133776976" lon="12.938755164190711"><ele>789.0</ele><time>2026-05-02T14:33:59Z</time></trkpt><trkpt lat="43.20961216234259" lon="12.938854022572972"><ele>789.0</ele><time>2026-05-02T14:34:00Z</time></trkpt><trkpt lat="43.209613276445104" lon="12.939035565109556"><ele>795.5</ele><time>2026-05-02T14:34:01Z</time></trkpt><trkpt lat="43.2095947880697" lon="12.939154183980666"><ele>802.0</ele><time>2026-05-02T14:34:02Z</time></trkpt><trkpt lat="43.20911450928962" lon="12.939259974746163"><ele>806.2</ele><time>2026-05-02T14:34:03Z</time></trkpt><trkpt lat="43.209050618595235" lon="12.939326816827192"><ele>810.4000000000001</ele><time>2026-05-02T14:34:04Z</time></trkpt><trkpt lat="43.2089802233999" lon="12.93936065294441"><ele>814.5999999999999</ele><time>2026-05-02T14:34:05Z</time></trkpt><trkpt lat="43.20886609670685" lon="12.939443923262466"><ele>818.8</ele><time>2026-05-02T14:34:07Z</time></trkpt><trkpt lat="43.20880784736874" lon="12.939529848151118"><ele>823.0</ele><time>2026-05-02T14:34:08Z</time></trkpt><trkpt lat="43.20872613738573" lon="12.939651402378955"><ele>825.6666666666666</ele><time>2026-05-02T14:34:10Z</time></trkpt><trkpt lat="43.2086978334145" lon="12.939750684494962"><ele>828.3333333333333</ele><time>2026-05-02T14:34:12Z</time></trkpt><trkpt lat="43.2086887479075" lon="12.939852658864726"><ele>831.0</ele><time>2026-05-02T14:34:14Z</time></trkpt><trkpt lat="43.20870331100647" lon="12.939993428234814"><ele>833.6666666666667</ele><time>2026-05-02T14:34:16Z</time></trkpt><trkpt lat="43.20864040244596" lon="12.940103746320727"><ele>836.3333333333334</ele><time>2026-05-02T14:34:18Z</time></trkpt><trkpt lat="43.20859250795132" lon="12.94020516800828"><ele>839.0</ele><time>2026-05-02T14:34:20Z</time></trkpt><trkpt lat="43.208543606410416" lon="12.940284485033253"><ele>843.0</ele><time>2026-05-02T14:34:22Z</time></trkpt><trkpt lat="43.20846442219062" lon="12.940397069010686"><ele>847.0</ele><time>2026-05-02T14:34:24Z</time></trkpt><trkpt lat="43.20842480394201" lon="12.94047621260059"><ele>851.0000000000001</ele><time>2026-05-02T14:34:24.999Z</time></trkpt><trkpt lat="43.20838921403624" lon="12.940560653273824"><ele>855.0</ele><time>2026-05-02T14:34:25.999Z</time></trkpt><trkpt lat="43.208353200604016" lon="12.940731407034717"><ele>859.0</ele><time>2026-05-02T14:34:27.999Z</time></trkpt><trkpt lat="43.20832623910713" lon="12.940896547986041"><ele>861.4999999999999</ele><time>2026-05-02T14:34:29.999Z</time></trkpt><trkpt lat="43.208285377601214" lon="12.9409820895866"><ele>864.0</ele><time>2026-05-02T14:34:30.999Z</time></trkpt><trkpt lat="43.208229720603335" lon="12.941067092475533"><ele>866.5</ele><time>2026-05-02T14:34:31.999Z</time></trkpt><trkpt lat="43.20819220923094" lon="12.941145002149815"><ele>869.0</ele><time>2026-05-02T14:34:32.999Z</time></trkpt><trkpt lat="43.208177193800154" lon="12.941283954068455"><ele>871.4999999999999</ele><time>2026-05-02T14:34:36.999Z</time></trkpt><trkpt lat="43.208142457438896" lon="12.941392585442578"><ele>874.0</ele><time>2026-05-02T14:34:38.999Z</time></trkpt><trkpt lat="43.20807949694017" lon="12.941536549083116"><ele>875.9999999999999</ele><time>2026-05-02T14:34:40.999Z</time></trkpt><trkpt lat="43.20803226823435" lon="12.941615115452802"><ele>878.0</ele><time>2026-05-02T14:34:41.999Z</time></trkpt><trkpt lat="43.20798516151978" lon="12.94171229953748"><ele>880.0</ele><time>2026-05-02T14:34:42.999Z</time></trkpt><trkpt lat="43.20794062024558" lon="12.941816339365394"><ele>882.0</ele><time>2026-05-02T14:34:43.999Z</time></trkpt><trkpt lat="43.20789395294431" lon="12.941923912753076"><ele>883.9999999999999</ele><time>2026-05-02T14:34:44.999Z</time></trkpt><trkpt lat="43.20785222106213" lon="12.942044263850185"><ele>886.0</ele><time>2026-05-02T14:34:45.999Z</time></trkpt><trkpt lat="43.207810532039495" lon="12.942183620400941"><ele>889.4999999999999</ele><time>2026-05-02T14:34:46.999Z</time></trkpt><trkpt lat="43.207763843609136" lon="12.942324280126119"><ele>893.0</ele><time>2026-05-02T14:34:47.999Z</time></trkpt><trkpt lat="43.20771868120495" lon="12.942441760588908"><ele>896.5</ele><time>2026-05-02T14:34:48.999Z</time></trkpt><trkpt lat="43.20766402317404" lon="12.942534938256857"><ele>900.0</ele><time>2026-05-02T14:34:49.999Z</time></trkpt><trkpt lat="43.207626979302034" lon="12.942622978914127"><ele>903.4999999999999</ele><time>2026-05-02T14:34:50.999Z</time></trkpt><trkpt lat="43.20758998098402" lon="12.942705002355945"><ele>907.0</ele><time>2026-05-02T14:34:51.999Z</time></trkpt><trkpt lat="43.20755820870018" lon="12.942795809971352"><ele>910.1666666666666</ele><time>2026-05-02T14:34:52.999Z</time></trkpt><trkpt lat="43.207537454383655" lon="12.9429431061744"><ele>913.3333333333333</ele><time>2026-05-02T14:34:54.999Z</time></trkpt><trkpt lat="43.20752925914671" lon="12.943073551448675"><ele>916.5</ele><time>2026-05-02T14:34:56.999Z</time></trkpt><trkpt lat="43.207512798889354" lon="12.943190162539622"><ele>919.6666666666667</ele><time>2026-05-02T14:34:58.999Z</time></trkpt><trkpt lat="43.207542327847015" lon="12.943268786910636"><ele>922.8333333333334</ele><time>2026-05-02T14:34:59.999Z</time></trkpt><trkpt lat="43.20755244225777" lon="12.943369208157733"><ele>926.0</ele><time>2026-05-02T14:35:00.999Z</time></trkpt><trkpt lat="43.20753190152111" lon="12.943516494081821"><ele>926.3333333333334</ele><time>2026-05-02T14:35:02.999Z</time></trkpt><trkpt lat="43.207490859653944" lon="12.94360665153822"><ele>926.6666666666667</ele><time>2026-05-02T14:35:04.999Z</time></trkpt><trkpt lat="43.20742234902876" lon="12.943721649308968"><ele>927.0</ele><time>2026-05-02T14:35:06.999Z</time></trkpt><trkpt lat="43.207356522514395" lon="12.943820210207283"><ele>927.3333333333333</ele><time>2026-05-02T14:35:08.999Z</time></trkpt><trkpt lat="43.20729589465328" lon="12.943866729230264"><ele>927.6666666666666</ele><time>2026-05-02T14:35:09.999Z</time></trkpt><trkpt lat="43.207242660101016" lon="12.943921888546623"><ele>928.0</ele><time>2026-05-02T14:35:10.999Z</time></trkpt><trkpt lat="43.20718337129657" lon="12.94398214202728"><ele>931.8333333333333</ele><time>2026-05-02T14:35:11.999Z</time></trkpt><trkpt lat="43.207141095316906" lon="12.944047473436038"><ele>935.6666666666666</ele><time>2026-05-02T14:35:12.999Z</time></trkpt><trkpt lat="43.20709377033285" lon="12.944135485910367"><ele>939.5</ele><time>2026-05-02T14:35:13.999Z</time></trkpt><trkpt lat="43.20704372821486" lon="12.944243667484209"><ele>943.3333333333333</ele><time>2026-05-02T14:35:14.999Z</time></trkpt><trkpt lat="43.206990353077764" lon="12.944346563700273"><ele>947.1666666666666</ele><time>2026-05-02T14:35:15.999Z</time></trkpt><trkpt lat="43.20694513336809" lon="12.944427419265173"><ele>951.0</ele><time>2026-05-02T14:35:16.999Z</time></trkpt><trkpt lat="43.20688974771948" lon="12.944523830520447"><ele>954.1666666666666</ele><time>2026-05-02T14:35:17.999Z</time></trkpt><trkpt lat="43.20682846947757" lon="12.944611385440284"><ele>957.3333333333333</ele><time>2026-05-02T14:35:18.999Z</time></trkpt><trkpt lat="43.206771027111415" lon="12.944685067072008"><ele>960.5</ele><time>2026-05-02T14:35:19.999Z</time></trkpt><trkpt lat="43.206719906779924" lon="12.944745838920593"><ele>963.6666666666666</ele><time>2026-05-02T14:35:20.999Z</time></trkpt><trkpt lat="43.20663677189439" lon="12.944857453502648"><ele>966.8333333333333</ele><time>2026-05-02T14:35:22.999Z</time></trkpt><trkpt lat="43.20658832601909" lon="12.944931232335199"><ele>970.0</ele><time>2026-05-02T14:35:23.999Z</time></trkpt><trkpt lat="43.20653563670729" lon="12.945015259552992"><ele>973.8333333333333</ele><time>2026-05-02T14:35:24.999Z</time></trkpt><trkpt lat="43.20647248377976" lon="12.945107254347075"><ele>977.6666666666666</ele><time>2026-05-02T14:35:26Z</time></trkpt><trkpt lat="43.20640762503657" lon="12.94519582728158"><ele>981.5</ele><time>2026-05-02T14:35:27Z</time></trkpt><trkpt lat="43.20634270225015" lon="12.945287025363738"><ele>985.3333333333333</ele><time>2026-05-02T14:35:28Z</time></trkpt><trkpt lat="43.206289282546024" lon="12.945372425916597"><ele>989.1666666666666</ele><time>2026-05-02T14:35:29Z</time></trkpt><trkpt lat="43.20624352632668" lon="12.945454973036496"><ele>993.0</ele><time>2026-05-02T14:35:30Z</time></trkpt><trkpt lat="43.206191121389786" lon="12.945538216896658"><ele>993.0</ele><time>2026-05-02T14:35:31Z</time></trkpt><trkpt lat="43.20613837883596" lon="12.945631991789739"><ele>993.0</ele><time>2026-05-02T14:35:32Z</time></trkpt><trkpt lat="43.20608405848857" lon="12.945711997703377"><ele>993.0</ele><time>2026-05-02T14:35:33Z</time></trkpt><trkpt lat="43.206028511128146" lon="12.945792338263596"><ele>993.0</ele><time>2026-05-02T14:35:34Z</time></trkpt><trkpt lat="43.20598983781759" lon="12.945877245383707"><ele>993.0</ele><time>2026-05-02T14:35:35Z</time></trkpt><trkpt lat="43.20595609469996" lon="12.946044914101074"><ele>993.0</ele><time>2026-05-02T14:35:37Z</time></trkpt><trkpt lat="43.205944298247736" lon="12.946153684155188"><ele>994.8333333333334</ele><time>2026-05-02T14:35:38Z</time></trkpt><trkpt lat="43.205930209209065" lon="12.94623991299139"><ele>996.6666666666667</ele><time>2026-05-02T14:35:39Z</time></trkpt><trkpt lat="43.205862742014716" lon="12.94639295429585"><ele>998.5</ele><time>2026-05-02T14:35:41Z</time></trkpt><trkpt lat="43.2058283607552" lon="12.946468623190787"><ele>1000.3333333333334</ele><time>2026-05-02T14:35:42Z</time></trkpt><trkpt lat="43.2058060370663" lon="12.94655244847556"><ele>1002.1666666666667</ele><time>2026-05-02T14:35:43Z</time></trkpt><trkpt lat="43.20573806724374" lon="12.946673810232323"><ele>1004.0</ele><time>2026-05-02T14:35:45Z</time></trkpt><trkpt lat="43.205657957081876" lon="12.94671116652502"><ele>1009.0</ele><time>2026-05-02T14:35:47Z</time></trkpt><trkpt lat="43.205566966702605" lon="12.946800842807416"><ele>1014.0000000000001</ele><time>2026-05-02T14:35:49Z</time></trkpt><trkpt lat="43.205510986513374" lon="12.946859449874221"><ele>1019.0000000000001</ele><time>2026-05-02T14:35:50Z</time></trkpt><trkpt lat="43.20543916960693" lon="12.946962106545707"><ele>1024.0</ele><time>2026-05-02T14:35:51Z</time></trkpt><trkpt lat="43.205387869561086" lon="12.947043201181467"><ele>1029.0</ele><time>2026-05-02T14:35:52Z</time></trkpt><trkpt lat="43.20533241171428" lon="12.947172511980101"><ele>1029.0</ele><time>2026-05-02T14:35:56Z</time></trkpt><trkpt lat="43.20529003109582" lon="12.947244587154502"><ele>1029.0</ele><time>2026-05-02T14:35:57Z</time></trkpt><trkpt lat="43.20524648106891" lon="12.947311241226704"><ele>1029.0</ele><time>2026-05-02T14:35:58Z</time></trkpt><trkpt lat="43.20528986990132" lon="12.947521041029036"><ele>1029.0</ele><time>2026-05-02T14:36:00Z</time></trkpt><trkpt lat="43.20523666808349" lon="12.947650625953415"><ele>1029.0</ele><time>2026-05-02T14:36:02Z</time></trkpt><trkpt lat="43.20520418484053" lon="12.94773522456416"><ele>1031.0</ele><time>2026-05-02T14:36:03Z</time></trkpt><trkpt lat="43.205179090921746" lon="12.947887965419849"><ele>1033.0</ele><time>2026-05-02T14:36:05Z</time></trkpt><trkpt lat="43.20516368042961" lon="12.94797355875252"><ele>1035.0</ele><time>2026-05-02T14:36:06Z</time></trkpt><trkpt lat="43.20514644392205" lon="12.948092169737809"><ele>1037.0</ele><time>2026-05-02T14:36:07Z</time></trkpt><trkpt lat="43.20512807857118" lon="12.948212806023424"><ele>1039.0</ele><time>2026-05-02T14:36:08Z</time></trkpt><trkpt lat="43.20510170216069" lon="12.948359778955393"><ele>1040.0</ele><time>2026-05-02T14:36:09Z</time></trkpt><trkpt lat="43.20507790529198" lon="12.948483046721803"><ele>1041.0</ele><time>2026-05-02T14:36:10Z</time></trkpt><trkpt lat="43.20505227078658" lon="12.948595111814793"><ele>1042.0</ele><time>2026-05-02T14:36:12Z</time></trkpt><trkpt lat="43.204824994466186" lon="12.94848235053625"><ele>1043.0</ele><time>2026-05-02T14:36:15Z</time></trkpt><trkpt lat="43.204847491236265" lon="12.948618458478196"><ele>1043.0</ele><time>2026-05-02T14:36:35Z</time></trkpt><trkpt lat="43.20483139475209" lon="12.948780732544966"><ele>1043.0</ele><time>2026-05-02T14:36:36.999Z</time></trkpt><trkpt lat="43.20496105634511" lon="12.948968582267113"><ele>1043.0</ele><time>2026-05-02T14:36:38.999Z</time></trkpt><trkpt lat="43.204926684932424" lon="12.94915307401175"><ele>1043.0</ele><time>2026-05-02T14:36:40.999Z</time></trkpt><trkpt lat="43.20491593244208" lon="12.949286220857156"><ele>1043.8333333333335</ele><time>2026-05-02T14:36:41.999Z</time></trkpt><trkpt lat="43.20491071469093" lon="12.949425332550424"><ele>1044.6666666666667</ele><time>2026-05-02T14:36:42.999Z</time></trkpt><trkpt lat="43.2049099090158" lon="12.94954852003747"><ele>1045.5</ele><time>2026-05-02T14:36:43.999Z</time></trkpt><trkpt lat="43.20490683332135" lon="12.949639506852362"><ele>1046.3333333333333</ele><time>2026-05-02T14:36:44.999Z</time></trkpt><trkpt lat="43.2048933937963" lon="12.949735950099361"><ele>1047.1666666666665</ele><time>2026-05-02T14:36:46.999Z</time></trkpt><trkpt lat="43.204868640280594" lon="12.94984324156978"><ele>1048.0</ele><time>2026-05-02T14:36:48.999Z</time></trkpt><trkpt lat="43.20481937109295" lon="12.94999315654961"><ele>1045.6</ele><time>2026-05-02T14:36:50.999Z</time></trkpt><trkpt lat="43.20477206688208" lon="12.9501266808093"><ele>1043.1999999999998</ele><time>2026-05-02T14:36:52.999Z</time></trkpt><trkpt lat="43.204751860971896" lon="12.95024874637124"><ele>1040.8</ele><time>2026-05-02T14:36:54.999Z</time></trkpt><trkpt lat="43.2047407532857" lon="12.950355268257782"><ele>1038.3999999999999</ele><time>2026-05-02T14:36:56.999Z</time></trkpt><trkpt lat="43.20472773037495" lon="12.950467498269598"><ele>1036.0</ele><time>2026-05-02T14:36:57.999Z</time></trkpt><trkpt lat="43.204729337350216" lon="12.95060857955036"><ele>1036.0</ele><time>2026-05-02T14:36:58.999Z</time></trkpt><trkpt lat="43.20472003233532" lon="12.95077615556561"><ele>1036.0</ele><time>2026-05-02T14:36:59.999Z</time></trkpt><trkpt lat="43.20468101318423" lon="12.950936751673051"><ele>1036.0</ele><time>2026-05-02T14:37:00.999Z</time></trkpt><trkpt lat="43.20461944231069" lon="12.951086022149179"><ele>1036.0</ele><time>2026-05-02T14:37:01.999Z</time></trkpt><trkpt lat="43.204573443291245" lon="12.951203393595838"><ele>1036.5</ele><time>2026-05-02T14:37:02.999Z</time></trkpt><trkpt lat="43.20453617297836" lon="12.951353278796772"><ele>1037.0</ele><time>2026-05-02T14:37:04.999Z</time></trkpt><trkpt lat="43.204526643124616" lon="12.951452946904267"><ele>1037.5</ele><time>2026-05-02T14:37:05.999Z</time></trkpt><trkpt lat="43.204529754754894" lon="12.9515550628858"><ele>1038.0</ele><time>2026-05-02T14:37:06.999Z</time></trkpt><trkpt lat="43.20453941458413" lon="12.95165167688441"><ele>1038.5</ele><time>2026-05-02T14:37:07.999Z</time></trkpt><trkpt lat="43.20455732593523" lon="12.951739333116677"><ele>1039.0</ele><time>2026-05-02T14:37:08.999Z</time></trkpt><trkpt lat="43.204593347779614" lon="12.951886993185926"><ele>1039.8</ele><time>2026-05-02T14:37:10.999Z</time></trkpt><trkpt lat="43.20462626025156" lon="12.951961950066801"><ele>1040.6000000000001</ele><time>2026-05-02T14:37:11.999Z</time></trkpt><trkpt lat="43.20463625275999" lon="12.95205957964091"><ele>1041.4</ele><time>2026-05-02T14:37:12.999Z</time></trkpt><trkpt lat="43.204685740124184" lon="12.952124031736066"><ele>1042.2</ele><time>2026-05-02T14:37:13.999Z</time></trkpt><trkpt lat="43.20481096301339" lon="12.952261124620264"><ele>1043.0</ele><time>2026-05-02T14:37:14.999Z</time></trkpt><trkpt lat="43.204815577851235" lon="12.952391262358027"><ele>1045.6</ele><time>2026-05-02T14:37:15.999Z</time></trkpt><trkpt lat="43.204801965468434" lon="12.952546262416526"><ele>1048.1999999999998</ele><time>2026-05-02T14:37:16.999Z</time></trkpt><trkpt lat="43.204708918433994" lon="12.952666330753795"><ele>1050.8</ele><time>2026-05-02T14:37:17.999Z</time></trkpt><trkpt lat="43.20468027148864" lon="12.952763245087551"><ele>1053.3999999999999</ele><time>2026-05-02T14:37:18.999Z</time></trkpt><trkpt lat="43.204665041091346" lon="12.952852938527155"><ele>1056.0</ele><time>2026-05-02T14:37:19.999Z</time></trkpt><trkpt lat="43.20463050893258" lon="12.952933285695298"><ele>1056.0</ele><time>2026-05-02T14:37:20.999Z</time></trkpt><trkpt lat="43.20461329963123" lon="12.953120382810642"><ele>1056.0</ele><time>2026-05-02T14:37:22.999Z</time></trkpt><trkpt lat="43.20459479506434" lon="12.953209273744285"><ele>1056.0</ele><time>2026-05-02T14:37:23.999Z</time></trkpt><trkpt lat="43.20457599655946" lon="12.953340457814745"><ele>1056.0</ele><time>2026-05-02T14:37:24.999Z</time></trkpt><trkpt lat="43.204548686137805" lon="12.95344592363009"><ele>1056.0</ele><time>2026-05-02T14:37:25.999Z</time></trkpt><trkpt lat="43.20452106790804" lon="12.953601423411207"><ele>1058.5</ele><time>2026-05-02T14:37:26.999Z</time></trkpt><trkpt lat="43.204475724956055" lon="12.953792058147554"><ele>1061.0</ele><time>2026-05-02T14:37:27.999Z</time></trkpt><trkpt lat="43.20443359389084" lon="12.95395798182862"><ele>1063.5</ele><time>2026-05-02T14:37:28.999Z</time></trkpt><trkpt lat="43.204381338118345" lon="12.95413065198823"><ele>1066.0</ele><time>2026-05-02T14:37:29.999Z</time></trkpt><trkpt lat="43.20431623208129" lon="12.954299610007721"><ele>1068.25</ele><time>2026-05-02T14:37:30.999Z</time></trkpt><trkpt lat="43.20425142382432" lon="12.954446023227124"><ele>1070.5</ele><time>2026-05-02T14:37:32Z</time></trkpt><trkpt lat="43.20418969194185" lon="12.954591912833674"><ele>1072.75</ele><time>2026-05-02T14:37:33Z</time></trkpt><trkpt lat="43.2041288130023" lon="12.954748053082922"><ele>1075.0</ele><time>2026-05-02T14:37:34Z</time></trkpt><trkpt lat="43.204087130218056" lon="12.954906181104958"><ele>1074.25</ele><time>2026-05-02T14:37:35Z</time></trkpt><trkpt lat="43.204054761506036" lon="12.955066467741707"><ele>1073.5</ele><time>2026-05-02T14:37:36Z</time></trkpt><trkpt lat="43.204018720416016" lon="12.955221494323974"><ele>1072.75</ele><time>2026-05-02T14:37:37Z</time></trkpt><trkpt lat="43.20398011735899" lon="12.95537993300639"><ele>1072.0</ele><time>2026-05-02T14:37:38Z</time></trkpt><trkpt lat="43.20395844839952" lon="12.95553750270891"><ele>1072.0</ele><time>2026-05-02T14:37:39Z</time></trkpt><trkpt lat="43.20394838437531" lon="12.95569344470042"><ele>1072.0</ele><time>2026-05-02T14:37:40Z</time></trkpt><trkpt lat="43.203938824613836" lon="12.955863380013726"><ele>1072.0</ele><time>2026-05-02T14:37:41Z</time></trkpt><trkpt lat="43.203928073363066" lon="12.956049085374044"><ele>1072.0</ele><time>2026-05-02T14:37:42Z</time></trkpt><trkpt lat="43.203912790994345" lon="12.956237790448979"><ele>1072.75</ele><time>2026-05-02T14:37:43Z</time></trkpt><trkpt lat="43.20390120913387" lon="12.956422997588206"><ele>1073.5</ele><time>2026-05-02T14:37:44Z</time></trkpt><trkpt lat="43.20389290050474" lon="12.956616641048077"><ele>1074.25</ele><time>2026-05-02T14:37:45Z</time></trkpt><trkpt lat="43.20387422217974" lon="12.95681005369777"><ele>1075.0</ele><time>2026-05-02T14:37:46Z</time></trkpt><trkpt lat="43.2038430865771" lon="12.95699891643824"><ele>1075.0</ele><time>2026-05-02T14:37:47Z</time></trkpt><trkpt lat="43.20377752111856" lon="12.957204715463073"><ele>1075.0</ele><time>2026-05-02T14:37:48Z</time></trkpt><trkpt lat="43.20369993272348" lon="12.957373748323636"><ele>1075.0</ele><time>2026-05-02T14:37:49Z</time></trkpt><trkpt lat="43.20362813523336" lon="12.957525172309447"><ele>1075.0</ele><time>2026-05-02T14:37:50Z</time></trkpt><trkpt lat="43.20357911520591" lon="12.957671740058611"><ele>1073.75</ele><time>2026-05-02T14:37:51Z</time></trkpt><trkpt lat="43.20354264349818" lon="12.957815402082211"><ele>1072.5</ele><time>2026-05-02T14:37:52Z</time></trkpt><trkpt lat="43.203511711053814" lon="12.957975295317679"><ele>1071.25</ele><time>2026-05-02T14:37:53Z</time></trkpt><trkpt lat="43.20348269255702" lon="12.958144979001501"><ele>1070.0</ele><time>2026-05-02T14:37:54Z</time></trkpt><trkpt lat="43.203456302897614" lon="12.958316399017242"><ele>1068.75</ele><time>2026-05-02T14:37:55Z</time></trkpt><trkpt lat="43.20344130215875" lon="12.95849079249162"><ele>1067.5</ele><time>2026-05-02T14:37:56Z</time></trkpt><trkpt lat="43.203433150919274" lon="12.958684749381515"><ele>1066.25</ele><time>2026-05-02T14:37:57Z</time></trkpt><trkpt lat="43.20343976388977" lon="12.958866103677934"><ele>1065.0</ele><time>2026-05-02T14:37:58Z</time></trkpt><trkpt lat="43.20344267427102" lon="12.959034736104293"><ele>1065.0</ele><time>2026-05-02T14:37:59Z</time></trkpt><trkpt lat="43.20345137685136" lon="12.959190747839092"><ele>1065.0</ele><time>2026-05-02T14:38:00Z</time></trkpt><trkpt lat="43.2034598231551" lon="12.95934610759118"><ele>1065.0</ele><time>2026-05-02T14:38:01Z</time></trkpt><trkpt lat="43.20347736421393" lon="12.959477256417571"><ele>1065.0</ele><time>2026-05-02T14:38:02Z</time></trkpt><trkpt lat="43.2034900687362" lon="12.959620253303369"><ele>1065.0</ele><time>2026-05-02T14:38:03Z</time></trkpt><trkpt lat="43.203475012982686" lon="12.95976499600098"><ele>1066.0</ele><time>2026-05-02T14:38:04Z</time></trkpt><trkpt lat="43.20344737818762" lon="12.959910357291017"><ele>1067.0</ele><time>2026-05-02T14:38:05Z</time></trkpt><trkpt lat="43.20340697015848" lon="12.960027541254528"><ele>1068.0</ele><time>2026-05-02T14:38:06Z</time></trkpt><trkpt lat="43.20331650223953" lon="12.96012354594426"><ele>1069.0</ele><time>2026-05-02T14:38:07Z</time></trkpt><trkpt lat="43.20319828655729" lon="12.960208222322606"><ele>1069.25</ele><time>2026-05-02T14:38:08Z</time></trkpt><trkpt lat="43.20305820986279" lon="12.960304499768293"><ele>1069.5</ele><time>2026-05-02T14:38:09Z</time></trkpt><trkpt lat="43.20294858866118" lon="12.960403101292961"><ele>1069.75</ele><time>2026-05-02T14:38:10Z</time></trkpt><trkpt lat="43.20285000106238" lon="12.960526402704863"><ele>1070.0</ele><time>2026-05-02T14:38:11Z</time></trkpt><trkpt lat="43.20275252110964" lon="12.960655240768068"><ele>1070.0</ele><time>2026-05-02T14:38:12Z</time></trkpt><trkpt lat="43.20265724772926" lon="12.96077737446167"><ele>1070.0</ele><time>2026-05-02T14:38:13Z</time></trkpt><trkpt lat="43.20256216338973" lon="12.960897807432218"><ele>1070.0</ele><time>2026-05-02T14:38:14Z</time></trkpt><trkpt lat="43.20246823225055" lon="12.961016806836565"><ele>1070.0</ele><time>2026-05-02T14:38:15Z</time></trkpt><trkpt lat="43.20236953998077" lon="12.961147404701965"><ele>1068.5</ele><time>2026-05-02T14:38:16Z</time></trkpt><trkpt lat="43.202279152892174" lon="12.961279540570121"><ele>1067.0</ele><time>2026-05-02T14:38:17Z</time></trkpt><trkpt lat="43.20218555803033" lon="12.961421455001613"><ele>1065.5</ele><time>2026-05-02T14:38:18Z</time></trkpt><trkpt lat="43.2020940461693" lon="12.961564191685806"><ele>1064.0</ele><time>2026-05-02T14:38:19Z</time></trkpt><trkpt lat="43.20200464752362" lon="12.961704935119181"><ele>1064.0</ele><time>2026-05-02T14:38:20Z</time></trkpt><trkpt lat="43.201919549161175" lon="12.961837062821791"><ele>1064.0</ele><time>2026-05-02T14:38:21Z</time></trkpt><trkpt lat="43.20184374545449" lon="12.961963613056486"><ele>1064.0</ele><time>2026-05-02T14:38:22Z</time></trkpt><trkpt lat="43.20177502542664" lon="12.962081356733592"><ele>1064.0</ele><time>2026-05-02T14:38:23Z</time></trkpt><trkpt lat="43.20171152845242" lon="12.962212744938707"><ele>1064.0</ele><time>2026-05-02T14:38:24Z</time></trkpt><trkpt lat="43.201655626283916" lon="12.962354155728432"><ele>1064.0</ele><time>2026-05-02T14:38:25Z</time></trkpt><trkpt lat="43.2016023851872" lon="12.962499792802932"><ele>1064.0</ele><time>2026-05-02T14:38:26Z</time></trkpt><trkpt lat="43.201548384389305" lon="12.962642990840324"><ele>1064.0</ele><time>2026-05-02T14:38:27Z</time></trkpt><trkpt lat="43.20146577257252" lon="12.962781847859224"><ele>1062.25</ele><time>2026-05-02T14:38:28Z</time></trkpt><trkpt lat="43.201369428616985" lon="12.962913654904366"><ele>1060.5</ele><time>2026-05-02T14:38:29Z</time></trkpt><trkpt lat="43.20128555208135" lon="12.963048905192956"><ele>1058.75</ele><time>2026-05-02T14:38:30Z</time></trkpt><trkpt lat="43.201199774794645" lon="12.963180850293885"><ele>1057.0</ele><time>2026-05-02T14:38:31Z</time></trkpt><trkpt lat="43.201115614454814" lon="12.9633146994542"><ele>1057.8</ele><time>2026-05-02T14:38:32Z</time></trkpt><trkpt lat="43.20103781252074" lon="12.963451373827695"><ele>1058.6</ele><time>2026-05-02T14:38:33Z</time></trkpt><trkpt lat="43.20098094062389" lon="12.963572709185318"><ele>1059.3999999999999</ele><time>2026-05-02T14:38:34Z</time></trkpt><trkpt lat="43.20093194268668" lon="12.963695025798414"><ele>1060.2</ele><time>2026-05-02T14:38:35Z</time></trkpt><trkpt lat="43.20089257129947" lon="12.963826752244271"><ele>1061.0</ele><time>2026-05-02T14:38:36Z</time></trkpt><trkpt lat="43.200872354206005" lon="12.96393455750506"><ele>1061.0</ele><time>2026-05-02T14:38:37Z</time></trkpt><trkpt lat="43.2008628343577" lon="12.964060732065779"><ele>1061.0</ele><time>2026-05-02T14:38:38Z</time></trkpt><trkpt lat="43.2008155972335" lon="12.96418281470155"><ele>1061.0</ele><time>2026-05-02T14:38:39Z</time></trkpt><trkpt lat="43.20074417293655" lon="12.964296261087732"><ele>1061.0</ele><time>2026-05-02T14:38:40Z</time></trkpt><trkpt lat="43.20069433433382" lon="12.964398654014467"><ele>1061.0</ele><time>2026-05-02T14:38:41Z</time></trkpt><trkpt lat="43.200633568088" lon="12.964524201787661"><ele>1058.0</ele><time>2026-05-02T14:38:42Z</time></trkpt><trkpt lat="43.200572203639084" lon="12.964647260572583"><ele>1055.0</ele><time>2026-05-02T14:38:43Z</time></trkpt><trkpt lat="43.20050663721436" lon="12.964754555303967"><ele>1052.0</ele><time>2026-05-02T14:38:43.999Z</time></trkpt><trkpt lat="43.20042718027873" lon="12.9648375593064"><ele>1049.0</ele><time>2026-05-02T14:38:44.999Z</time></trkpt><trkpt lat="43.20030892006159" lon="12.964913575319258"><ele>1046.0</ele><time>2026-05-02T14:38:45.999Z</time></trkpt><trkpt lat="43.20019146794426" lon="12.964994685155306"><ele>1043.6</ele><time>2026-05-02T14:38:46.999Z</time></trkpt><trkpt lat="43.200083345750436" lon="12.965075189786548"><ele>1041.1999999999998</ele><time>2026-05-02T14:38:47.999Z</time></trkpt><trkpt lat="43.19998614409936" lon="12.965102333795494"><ele>1038.8000000000002</ele><time>2026-05-02T14:38:48.999Z</time></trkpt><trkpt lat="43.19989974658898" lon="12.96510965340708"><ele>1036.4</ele><time>2026-05-02T14:38:49.999Z</time></trkpt><trkpt lat="43.19980900067694" lon="12.965126734268978"><ele>1034.0</ele><time>2026-05-02T14:38:50.999Z</time></trkpt><trkpt lat="43.19971341066027" lon="12.965168747072154"><ele>1032.75</ele><time>2026-05-02T14:38:51.999Z</time></trkpt><trkpt lat="43.19960314107133" lon="12.965247284622976"><ele>1031.5</ele><time>2026-05-02T14:38:52.999Z</time></trkpt><trkpt lat="43.19948097115665" lon="12.965335015593004"><ele>1030.25</ele><time>2026-05-02T14:38:53.999Z</time></trkpt><trkpt lat="43.199346067798935" lon="12.96540636857455"><ele>1029.0</ele><time>2026-05-02T14:38:54.999Z</time></trkpt><trkpt lat="43.19921122588937" lon="12.965461101027513"><ele>1029.0</ele><time>2026-05-02T14:38:55.999Z</time></trkpt><trkpt lat="43.199068298968946" lon="12.965512869459198"><ele>1029.0</ele><time>2026-05-02T14:38:56.999Z</time></trkpt><trkpt lat="43.19893104377634" lon="12.96556054055462"><ele>1029.0</ele><time>2026-05-02T14:38:57.999Z</time></trkpt><trkpt lat="43.19879839687561" lon="12.965612128488637"><ele>1029.0</ele><time>2026-05-02T14:38:58.999Z</time></trkpt><trkpt lat="43.19867665310498" lon="12.96567001295711"><ele>1028.0</ele><time>2026-05-02T14:38:59.999Z</time></trkpt><trkpt lat="43.19855507278484" lon="12.965716094944248"><ele>1027.0</ele><time>2026-05-02T14:39:00.999Z</time></trkpt><trkpt lat="43.19843680511698" lon="12.965757651375428"><ele>1026.0</ele><time>2026-05-02T14:39:01.999Z</time></trkpt><trkpt lat="43.19832158754415" lon="12.965797512500922"><ele>1025.0</ele><time>2026-05-02T14:39:02.999Z</time></trkpt><trkpt lat="43.19819044673045" lon="12.965834996730711"><ele>1022.25</ele><time>2026-05-02T14:39:03.999Z</time></trkpt><trkpt lat="43.198056621800106" lon="12.965865240018704"><ele>1019.5</ele><time>2026-05-02T14:39:04.999Z</time></trkpt><trkpt lat="43.19791323556751" lon="12.965928039551235"><ele>1016.75</ele><time>2026-05-02T14:39:05.999Z</time></trkpt><trkpt lat="43.197782501809" lon="12.966012405977743"><ele>1014.0</ele><time>2026-05-02T14:39:06.999Z</time></trkpt><trkpt lat="43.19765886469138" lon="12.966080201698466"><ele>1014.0</ele><time>2026-05-02T14:39:07.999Z</time></trkpt><trkpt lat="43.197537867097815" lon="12.966146031094155"><ele>1014.0</ele><time>2026-05-02T14:39:08.999Z</time></trkpt><trkpt lat="43.19742138735139" lon="12.966207091520312"><ele>1014.0</ele><time>2026-05-02T14:39:09.999Z</time></trkpt><trkpt lat="43.19730555869274" lon="12.96626062088971"><ele>1014.0</ele><time>2026-05-02T14:39:10.999Z</time></trkpt><trkpt lat="43.19718491307566" lon="12.966304351621245"><ele>1011.75</ele><time>2026-05-02T14:39:11.999Z</time></trkpt><trkpt lat="43.19706395015226" lon="12.966342724518688"><ele>1009.5</ele><time>2026-05-02T14:39:12.999Z</time></trkpt><trkpt lat="43.19695575727032" lon="12.966378267403833"><ele>1007.25</ele><time>2026-05-02T14:39:13.999Z</time></trkpt><trkpt lat="43.19683244376285" lon="12.966423988624873"><ele>1005.0</ele><time>2026-05-02T14:39:14.999Z</time></trkpt><trkpt lat="43.19673264115601" lon="12.966474272548071"><ele>1005.0</ele><time>2026-05-02T14:39:15.999Z</time></trkpt><trkpt lat="43.19662301534717" lon="12.966510702172222"><ele>1005.0</ele><time>2026-05-02T14:39:16.999Z</time></trkpt><trkpt lat="43.19652145743289" lon="12.966551227301492"><ele>1005.0</ele><time>2026-05-02T14:39:17.999Z</time></trkpt><trkpt lat="43.196418718026884" lon="12.966600222458435"><ele>1005.0</ele><time>2026-05-02T14:39:18.999Z</time></trkpt><trkpt lat="43.19632207464027" lon="12.966659900065768"><ele>1005.0</ele><time>2026-05-02T14:39:19.999Z</time></trkpt><trkpt lat="43.19622539802161" lon="12.966706467763395"><ele>999.6</ele><time>2026-05-02T14:39:20.999Z</time></trkpt><trkpt lat="43.19613954023813" lon="12.966757487047285"><ele>994.2</ele><time>2026-05-02T14:39:21.999Z</time></trkpt><trkpt lat="43.19606070744435" lon="12.966808116384831"><ele>988.8</ele><time>2026-05-02T14:39:22.999Z</time></trkpt><trkpt lat="43.19597332764166" lon="12.966855903195967"><ele>983.4</ele><time>2026-05-02T14:39:23.999Z</time></trkpt><trkpt lat="43.19589568371422" lon="12.966889379515235"><ele>978.0</ele><time>2026-05-02T14:39:24.999Z</time></trkpt><trkpt lat="43.19580855575858" lon="12.966939747179376"><ele>978.0</ele><time>2026-05-02T14:39:25.999Z</time></trkpt><trkpt lat="43.19572879010227" lon="12.966978228088387"><ele>978.0</ele><time>2026-05-02T14:39:26.999Z</time></trkpt><trkpt lat="43.195610426809615" lon="12.967020509735327"><ele>978.0</ele><time>2026-05-02T14:39:28.999Z</time></trkpt><trkpt lat="43.19555980006591" lon="12.967073647212546"><ele>978.0</ele><time>2026-05-02T14:39:29.999Z</time></trkpt><trkpt lat="43.19550938687249" lon="12.96713646674312"><ele>978.0</ele><time>2026-05-02T14:39:30.999Z</time></trkpt><trkpt lat="43.19545844208733" lon="12.967189924969588"><ele>978.0</ele><time>2026-05-02T14:39:31.999Z</time></trkpt><trkpt lat="43.19540116634199" lon="12.967256739580222"><ele>974.5</ele><time>2026-05-02T14:39:32.999Z</time></trkpt><trkpt lat="43.1953325238386" lon="12.967326373880859"><ele>971.0</ele><time>2026-05-02T14:39:33.999Z</time></trkpt><trkpt lat="43.19526526962212" lon="12.967407000333457"><ele>967.5</ele><time>2026-05-02T14:39:34.999Z</time></trkpt><trkpt lat="43.19521622633407" lon="12.96747364611595"><ele>964.0</ele><time>2026-05-02T14:39:35.999Z</time></trkpt><trkpt lat="43.195165712007835" lon="12.967549341829315"><ele>960.5</ele><time>2026-05-02T14:39:36.999Z</time></trkpt><trkpt lat="43.19512023577475" lon="12.967635808832123"><ele>957.0</ele><time>2026-05-02T14:39:38Z</time></trkpt><trkpt lat="43.1950755174782" lon="12.967719343494132"><ele>956.0</ele><time>2026-05-02T14:39:39Z</time></trkpt><trkpt lat="43.1950357555236" lon="12.967800345020455"><ele>955.0</ele><time>2026-05-02T14:39:40Z</time></trkpt><trkpt lat="43.19499650128367" lon="12.967893270897976"><ele>954.0</ele><time>2026-05-02T14:39:41Z</time></trkpt><trkpt lat="43.194931837167225" lon="12.968031154368088"><ele>953.0</ele><time>2026-05-02T14:39:43Z</time></trkpt><trkpt lat="43.194867317303135" lon="12.968097199834842"><ele>952.0</ele><time>2026-05-02T14:39:44Z</time></trkpt><trkpt lat="43.19480062286558" lon="12.968156605312437"><ele>951.0</ele><time>2026-05-02T14:39:45Z</time></trkpt><trkpt lat="43.19473871341832" lon="12.968206988016465"><ele>947.5</ele><time>2026-05-02T14:39:46Z</time></trkpt><trkpt lat="43.19467854294915" lon="12.96825193265149"><ele>944.0</ele><time>2026-05-02T14:39:47Z</time></trkpt><trkpt lat="43.194609331855055" lon="12.968303435472622"><ele>940.5</ele><time>2026-05-02T14:39:48Z</time></trkpt><trkpt lat="43.194538352706815" lon="12.968366838817907"><ele>937.0</ele><time>2026-05-02T14:39:49Z</time></trkpt><trkpt lat="43.194469334314725" lon="12.968406757559165"><ele>933.5</ele><time>2026-05-02T14:39:50Z</time></trkpt><trkpt lat="43.194402377070816" lon="12.968448267574265"><ele>930.0</ele><time>2026-05-02T14:39:51Z</time></trkpt><trkpt lat="43.19429708678461" lon="12.968448066635785"><ele>928.5</ele><time>2026-05-02T14:39:53Z</time></trkpt><trkpt lat="43.19422977608914" lon="12.968469298641928"><ele>927.0</ele><time>2026-05-02T14:39:54Z</time></trkpt><trkpt lat="43.19417089201493" lon="12.968535017546534"><ele>925.5</ele><time>2026-05-02T14:39:55Z</time></trkpt><trkpt lat="43.19411316557203" lon="12.968598268791563"><ele>924.0</ele><time>2026-05-02T14:39:56Z</time></trkpt><trkpt lat="43.19404460123665" lon="12.968647969540353"><ele>922.5</ele><time>2026-05-02T14:39:57Z</time></trkpt><trkpt lat="43.19396345071991" lon="12.96868408781709"><ele>921.0</ele><time>2026-05-02T14:39:58Z</time></trkpt><trkpt lat="43.19388519225737" lon="12.968714056215692"><ele>918.4</ele><time>2026-05-02T14:39:59Z</time></trkpt><trkpt lat="43.19382489197177" lon="12.96874853486024"><ele>915.8</ele><time>2026-05-02T14:40:00Z</time></trkpt><trkpt lat="43.193713777179724" lon="12.96883290203327"><ele>913.1999999999999</ele><time>2026-05-02T14:40:02Z</time></trkpt><trkpt lat="43.19359212456977" lon="12.968863327468569"><ele>910.5999999999999</ele><time>2026-05-02T14:40:04Z</time></trkpt><trkpt lat="43.19351691158102" lon="12.968870512756885"><ele>908.0</ele><time>2026-05-02T14:40:05Z</time></trkpt><trkpt lat="43.19343384555775" lon="12.968874733914953"><ele>908.0</ele><time>2026-05-02T14:40:06Z</time></trkpt><trkpt lat="43.19335644798823" lon="12.968870095479696"><ele>908.0</ele><time>2026-05-02T14:40:07Z</time></trkpt><trkpt lat="43.1932644158268" lon="12.96883252957757"><ele>908.0</ele><time>2026-05-02T14:40:08Z</time></trkpt><trkpt lat="43.193166141783706" lon="12.968771707325878"><ele>908.0</ele><time>2026-05-02T14:40:09Z</time></trkpt><trkpt lat="43.193057731222794" lon="12.968739732417502"><ele>908.0</ele><time>2026-05-02T14:40:10Z</time></trkpt><trkpt lat="43.19294692868677" lon="12.968720340655636"><ele>907.75</ele><time>2026-05-02T14:40:11Z</time></trkpt><trkpt lat="43.192841712840135" lon="12.968682772736335"><ele>907.5</ele><time>2026-05-02T14:40:12Z</time></trkpt><trkpt lat="43.19271403532085" lon="12.96862893132407"><ele>907.25</ele><time>2026-05-02T14:40:13Z</time></trkpt><trkpt lat="43.19255820697221" lon="12.96857878384171"><ele>907.0</ele><time>2026-05-02T14:40:14Z</time></trkpt><trkpt lat="43.19241384460285" lon="12.968522074884806"><ele>907.0</ele><time>2026-05-02T14:40:15Z</time></trkpt><trkpt lat="43.19228220638766" lon="12.968463309622676"><ele>907.0</ele><time>2026-05-02T14:40:16Z</time></trkpt><trkpt lat="43.19216556880194" lon="12.968416846286727"><ele>907.0</ele><time>2026-05-02T14:40:17Z</time></trkpt><trkpt lat="43.192054157598584" lon="12.968387520023784"><ele>907.0</ele><time>2026-05-02T14:40:18Z</time></trkpt><trkpt lat="43.19194152326948" lon="12.968379847414424"><ele>907.0</ele><time>2026-05-02T14:40:19Z</time></trkpt><trkpt lat="43.19183529471706" lon="12.968386242184307"><ele>907.0</ele><time>2026-05-02T14:40:20Z</time></trkpt><trkpt lat="43.19173676951123" lon="12.968409637638093"><ele>907.0</ele><time>2026-05-02T14:40:21Z</time></trkpt><trkpt lat="43.19163952342866" lon="12.968455386032815"><ele>907.0</ele><time>2026-05-02T14:40:22Z</time></trkpt><trkpt lat="43.191548747682226" lon="12.968512987057425"><ele>907.0</ele><time>2026-05-02T14:40:23Z</time></trkpt><trkpt lat="43.19146750941814" lon="12.96857873673865"><ele>902.4000000000001</ele><time>2026-05-02T14:40:24Z</time></trkpt><trkpt lat="43.19138381369943" lon="12.968654428419006"><ele>897.8000000000001</ele><time>2026-05-02T14:40:25Z</time></trkpt><trkpt lat="43.191300613160564" lon="12.968753407074074"><ele>893.2</ele><time>2026-05-02T14:40:26Z</time></trkpt><trkpt lat="43.191218573500166" lon="12.968861493526726"><ele>888.6</ele><time>2026-05-02T14:40:27Z</time></trkpt><trkpt lat="43.191131383058824" lon="12.968972363461866"><ele>884.0</ele><time>2026-05-02T14:40:28Z</time></trkpt><trkpt lat="43.19104865108581" lon="12.969077152267362"><ele>884.0</ele><time>2026-05-02T14:40:29Z</time></trkpt><trkpt lat="43.19097187065563" lon="12.969181198301287"><ele>884.0</ele><time>2026-05-02T14:40:30Z</time></trkpt><trkpt lat="43.19089828940299" lon="12.969301119502214"><ele>884.0</ele><time>2026-05-02T14:40:31Z</time></trkpt><trkpt lat="43.19081667274632" lon="12.969426600269221"><ele>884.0</ele><time>2026-05-02T14:40:32Z</time></trkpt><trkpt lat="43.19072654981919" lon="12.969560436055685"><ele>878.75</ele><time>2026-05-02T14:40:33Z</time></trkpt><trkpt lat="43.190641872265346" lon="12.96970118171216"><ele>873.5</ele><time>2026-05-02T14:40:34Z</time></trkpt><trkpt lat="43.19055916207893" lon="12.969841686026411"><ele>868.25</ele><time>2026-05-02T14:40:35Z</time></trkpt><trkpt lat="43.190478019628515" lon="12.96996677383481"><ele>863.0</ele><time>2026-05-02T14:40:36Z</time></trkpt><trkpt lat="43.19040263888436" lon="12.970081570148054"><ele>863.0</ele><time>2026-05-02T14:40:37Z</time></trkpt><trkpt lat="43.19032207227184" lon="12.970194402854586"><ele>863.0</ele><time>2026-05-02T14:40:38Z</time></trkpt><trkpt lat="43.19025098060801" lon="12.970319243699649"><ele>863.0</ele><time>2026-05-02T14:40:39Z</time></trkpt><trkpt lat="43.190202015032845" lon="12.970452576224575"><ele>863.0</ele><time>2026-05-02T14:40:40Z</time></trkpt><trkpt lat="43.19018804920261" lon="12.97058123164728"><ele>863.0</ele><time>2026-05-02T14:40:41Z</time></trkpt><trkpt lat="43.19020072644545" lon="12.970687538423661"><ele>863.0</ele><time>2026-05-02T14:40:42Z</time></trkpt><trkpt lat="43.19025521105924" lon="12.970784985708406"><ele>863.0</ele><time>2026-05-02T14:40:43Z</time></trkpt><trkpt lat="43.190349119410065" lon="12.970860170203832"><ele>863.0</ele><time>2026-05-02T14:40:44Z</time></trkpt><trkpt lat="43.19047207464002" lon="12.970907828048446"><ele>863.0</ele><time>2026-05-02T14:40:45Z</time></trkpt><trkpt lat="43.19060470723209" lon="12.970929705855568"><ele>858.5</ele><time>2026-05-02T14:40:46Z</time></trkpt><trkpt lat="43.190721475799634" lon="12.970966498789394"><ele>854.0</ele><time>2026-05-02T14:40:47Z</time></trkpt><trkpt lat="43.190814337573826" lon="12.971046719373508"><ele>849.5</ele><time>2026-05-02T14:40:48Z</time></trkpt><trkpt lat="43.19094104405903" lon="12.971065986764698"><ele>845.0</ele><time>2026-05-02T14:40:49Z</time></trkpt><trkpt lat="43.191054132472246" lon="12.971064526103715"><ele>845.0</ele><time>2026-05-02T14:40:50Z</time></trkpt><trkpt lat="43.19117107359207" lon="12.971059969011733"><ele>845.0</ele><time>2026-05-02T14:40:51Z</time></trkpt><trkpt lat="43.19128775233085" lon="12.971049307226728"><ele>845.0</ele><time>2026-05-02T14:40:52Z</time></trkpt><trkpt lat="43.19139996710869" lon="12.971029987827379"><ele>845.0</ele><time>2026-05-02T14:40:53Z</time></trkpt><trkpt lat="43.19151750622664" lon="12.971001404340761"><ele>843.8</ele><time>2026-05-02T14:40:54Z</time></trkpt><trkpt lat="43.19162022853205" lon="12.970974963815902"><ele>842.6</ele><time>2026-05-02T14:40:54.999Z</time></trkpt><trkpt lat="43.19172467322001" lon="12.970951407771654"><ele>841.4000000000001</ele><time>2026-05-02T14:40:55.999Z</time></trkpt><trkpt lat="43.19183301093567" lon="12.97091673850919"><ele>840.2</ele><time>2026-05-02T14:40:56.999Z</time></trkpt><trkpt lat="43.191954386620694" lon="12.970874836818224"><ele>839.0</ele><time>2026-05-02T14:40:57.999Z</time></trkpt><trkpt lat="43.19208316706481" lon="12.970829195387298"><ele>844.25</ele><time>2026-05-02T14:40:58.999Z</time></trkpt><trkpt lat="43.19220582797656" lon="12.970800035670608"><ele>849.5</ele><time>2026-05-02T14:40:59.999Z</time></trkpt><trkpt lat="43.19232530147005" lon="12.970761070525244"><ele>854.75</ele><time>2026-05-02T14:41:00.999Z</time></trkpt><trkpt lat="43.19245730310078" lon="12.97073961009801"><ele>860.0</ele><time>2026-05-02T14:41:01.999Z</time></trkpt><trkpt lat="43.1925864795474" lon="12.970732726010837"><ele>860.0</ele><time>2026-05-02T14:41:02.999Z</time></trkpt><trkpt lat="43.192711680231064" lon="12.970752504659286"><ele>860.0</ele><time>2026-05-02T14:41:03.999Z</time></trkpt><trkpt lat="43.19285288776292" lon="12.970775670415426"><ele>860.0</ele><time>2026-05-02T14:41:04.999Z</time></trkpt><trkpt lat="43.19297989732354" lon="12.970805727184327"><ele>860.0</ele><time>2026-05-02T14:41:05.999Z</time></trkpt><trkpt lat="43.193113408277256" lon="12.970831540780996"><ele>858.5</ele><time>2026-05-02T14:41:06.999Z</time></trkpt><trkpt lat="43.19324326981707" lon="12.970848332016589"><ele>857.0</ele><time>2026-05-02T14:41:07.999Z</time></trkpt><trkpt lat="43.19335895270477" lon="12.970872995902875"><ele>855.5</ele><time>2026-05-02T14:41:08.999Z</time></trkpt><trkpt lat="43.193480992900724" lon="12.970908116484578"><ele>854.0</ele><time>2026-05-02T14:41:09.999Z</time></trkpt><trkpt lat="43.19360568702272" lon="12.970952216305738"><ele>849.0</ele><time>2026-05-02T14:41:10.999Z</time></trkpt><trkpt lat="43.19372422036757" lon="12.971012651807737"><ele>844.0</ele><time>2026-05-02T14:41:11.999Z</time></trkpt><trkpt lat="43.19383858889108" lon="12.971070154291152"><ele>839.0</ele><time>2026-05-02T14:41:12.999Z</time></trkpt><trkpt lat="43.19394670121521" lon="12.971120448775045"><ele>834.0</ele><time>2026-05-02T14:41:13.999Z</time></trkpt><trkpt lat="43.19405333164651" lon="12.971162241214925"><ele>834.0</ele><time>2026-05-02T14:41:14.999Z</time></trkpt><trkpt lat="43.19415384512095" lon="12.971229232977514"><ele>834.0</ele><time>2026-05-02T14:41:15.999Z</time></trkpt><trkpt lat="43.19423702659111" lon="12.971295329011236"><ele>834.0</ele><time>2026-05-02T14:41:16.999Z</time></trkpt><trkpt lat="43.19430545766048" lon="12.971339595424515"><ele>834.0</ele><time>2026-05-02T14:41:17.999Z</time></trkpt><trkpt lat="43.19438094467665" lon="12.97144850674306"><ele>834.0</ele><time>2026-05-02T14:41:19.999Z</time></trkpt><trkpt lat="43.19439351155856" lon="12.9715859919978"><ele>834.0</ele><time>2026-05-02T14:41:21.999Z</time></trkpt><trkpt lat="43.19437545636621" lon="12.971676478160704"><ele>834.0</ele><time>2026-05-02T14:41:22.999Z</time></trkpt><trkpt lat="43.19433048529942" lon="12.971798602531551"><ele>834.0</ele><time>2026-05-02T14:41:23.999Z</time></trkpt><trkpt lat="43.194275645339935" lon="12.971942216524118"><ele>834.0</ele><time>2026-05-02T14:41:24.999Z</time></trkpt><trkpt lat="43.19423583838264" lon="12.972056842660201"><ele>834.0</ele><time>2026-05-02T14:41:25.999Z</time></trkpt><trkpt lat="43.19417922921702" lon="12.97215458136878"><ele>835.4000000000001</ele><time>2026-05-02T14:41:26.999Z</time></trkpt><trkpt lat="43.194127554933246" lon="12.97224495227516"><ele>836.8</ele><time>2026-05-02T14:41:27.999Z</time></trkpt><trkpt lat="43.194073807155974" lon="12.972358169256458"><ele>838.2</ele><time>2026-05-02T14:41:28.999Z</time></trkpt><trkpt lat="43.1939980754664" lon="12.972446367738637"><ele>839.5999999999999</ele><time>2026-05-02T14:41:29.999Z</time></trkpt><trkpt lat="43.19392785827593" lon="12.972568148329792"><ele>841.0</ele><time>2026-05-02T14:41:30.999Z</time></trkpt><trkpt lat="43.193858940927484" lon="12.972716484979408"><ele>834.5</ele><time>2026-05-02T14:41:31.999Z</time></trkpt><trkpt lat="43.19379766759962" lon="12.97286392399382"><ele>828.0</ele><time>2026-05-02T14:41:32.999Z</time></trkpt><trkpt lat="43.193744941676975" lon="12.972980791809325"><ele>821.5</ele><time>2026-05-02T14:41:33.999Z</time></trkpt><trkpt lat="43.193656770373906" lon="12.973090228566825"><ele>815.0</ele><time>2026-05-02T14:41:34.999Z</time></trkpt><trkpt lat="43.1935757480622" lon="12.97321156567811"><ele>815.0</ele><time>2026-05-02T14:41:35.999Z</time></trkpt><trkpt lat="43.19351821133833" lon="12.973343117591346"><ele>815.0</ele><time>2026-05-02T14:41:36.999Z</time></trkpt><trkpt lat="43.19345075552181" lon="12.973458367011649"><ele>815.0</ele><time>2026-05-02T14:41:37.999Z</time></trkpt><trkpt lat="43.19335391431581" lon="12.973573654054658"><ele>815.0</ele><time>2026-05-02T14:41:38.999Z</time></trkpt><trkpt lat="43.19323860035177" lon="12.973675323554348"><ele>809.25</ele><time>2026-05-02T14:41:39.999Z</time></trkpt><trkpt lat="43.19312526284139" lon="12.973768567671193"><ele>803.5</ele><time>2026-05-02T14:41:40.999Z</time></trkpt><trkpt lat="43.193009658492464" lon="12.973875214336847"><ele>797.75</ele><time>2026-05-02T14:41:41.999Z</time></trkpt><trkpt lat="43.19291456410718" lon="12.974004170265092"><ele>792.0</ele><time>2026-05-02T14:41:42.999Z</time></trkpt><trkpt lat="43.19281973598892" lon="12.974179618599466"><ele>796.25</ele><time>2026-05-02T14:41:44Z</time></trkpt><trkpt lat="43.192735890927324" lon="12.974349677045618"><ele>800.5</ele><time>2026-05-02T14:41:45Z</time></trkpt><trkpt lat="43.19265281727593" lon="12.974504460155382"><ele>804.75</ele><time>2026-05-02T14:41:46Z</time></trkpt><trkpt lat="43.19257813230469" lon="12.974640956879453"><ele>809.0</ele><time>2026-05-02T14:41:47Z</time></trkpt><trkpt lat="43.19251212089976" lon="12.974754766499585"><ele>809.0</ele><time>2026-05-02T14:41:48Z</time></trkpt><trkpt lat="43.1924614769147" lon="12.974875187890579"><ele>809.0</ele><time>2026-05-02T14:41:49Z</time></trkpt><trkpt lat="43.192425993625484" lon="12.975026915710274"><ele>809.0</ele><time>2026-05-02T14:41:50Z</time></trkpt><trkpt lat="43.19238034935124" lon="12.975181090018438"><ele>809.0</ele><time>2026-05-02T14:41:51Z</time></trkpt><trkpt lat="43.192314280737975" lon="12.975321119271987"><ele>800.75</ele><time>2026-05-02T14:41:52Z</time></trkpt><trkpt lat="43.192238765596294" lon="12.975455101038168"><ele>792.5</ele><time>2026-05-02T14:41:53Z</time></trkpt><trkpt lat="43.19217117663321" lon="12.975578892320923"><ele>784.25</ele><time>2026-05-02T14:41:54Z</time></trkpt><trkpt lat="43.19210165260271" lon="12.97570408697936"><ele>776.0</ele><time>2026-05-02T14:41:55Z</time></trkpt><trkpt lat="43.19203772997517" lon="12.975834675851301"><ele>783.25</ele><time>2026-05-02T14:41:56Z</time></trkpt><trkpt lat="43.191965280099964" lon="12.975966794077884"><ele>790.5</ele><time>2026-05-02T14:41:57Z</time></trkpt><trkpt lat="43.1918879182788" lon="12.976088652905371"><ele>797.75</ele><time>2026-05-02T14:41:58Z</time></trkpt><trkpt lat="43.19180540184552" lon="12.976198837538185"><ele>805.0</ele><time>2026-05-02T14:41:59Z</time></trkpt><trkpt lat="43.191716569666006" lon="12.976286928122237"><ele>805.0</ele><time>2026-05-02T14:42:00Z</time></trkpt><trkpt lat="43.191621719676206" lon="12.976350961428953"><ele>805.0</ele><time>2026-05-02T14:42:01Z</time></trkpt><trkpt lat="43.191535911809595" lon="12.976423364505129"><ele>805.0</ele><time>2026-05-02T14:42:02Z</time></trkpt><trkpt lat="43.191459005113515" lon="12.97654028086113"><ele>805.0</ele><time>2026-05-02T14:42:03Z</time></trkpt><trkpt lat="43.191403357602454" lon="12.976685661112585"><ele>805.0</ele><time>2026-05-02T14:42:04Z</time></trkpt><trkpt lat="43.19134354830868" lon="12.976831441837254"><ele>804.25</ele><time>2026-05-02T14:42:05Z</time></trkpt><trkpt lat="43.19127627739233" lon="12.976941988989026"><ele>803.5</ele><time>2026-05-02T14:42:06Z</time></trkpt><trkpt lat="43.19114428723733" lon="12.977007371311593"><ele>802.75</ele><time>2026-05-02T14:42:07Z</time></trkpt><trkpt lat="43.19099509295556" lon="12.977059565865785"><ele>802.0</ele><time>2026-05-02T14:42:08Z</time></trkpt><trkpt lat="43.19084024304029" lon="12.977107715995738"><ele>802.0</ele><time>2026-05-02T14:42:09Z</time></trkpt><trkpt lat="43.190730404389306" lon="12.97715647078313"><ele>802.0</ele><time>2026-05-02T14:42:10Z</time></trkpt><trkpt lat="43.19062148423409" lon="12.977221069533856"><ele>802.0</ele><time>2026-05-02T14:42:11Z</time></trkpt><trkpt lat="43.19052155278026" lon="12.977305799330036"><ele>802.0</ele><time>2026-05-02T14:42:12Z</time></trkpt><trkpt lat="43.19041684898328" lon="12.977400816268652"><ele>799.5</ele><time>2026-05-02T14:42:13Z</time></trkpt><trkpt lat="43.19033065638911" lon="12.97750349106221"><ele>797.0</ele><time>2026-05-02T14:42:14Z</time></trkpt><trkpt lat="43.19024701338262" lon="12.977596739915109"><ele>794.5</ele><time>2026-05-02T14:42:15Z</time></trkpt><trkpt lat="43.190158406629784" lon="12.977703546912046"><ele>792.0</ele><time>2026-05-02T14:42:16Z</time></trkpt><trkpt lat="43.19006509554613" lon="12.977816268976335"><ele>792.0</ele><time>2026-05-02T14:42:17Z</time></trkpt><trkpt lat="43.18996530561171" lon="12.977928476962798"><ele>792.0</ele><time>2026-05-02T14:42:18Z</time></trkpt><trkpt lat="43.18987305022393" lon="12.978024143613478"><ele>792.0</ele><time>2026-05-02T14:42:19Z</time></trkpt><trkpt lat="43.18978517695937" lon="12.97811999284117"><ele>792.0</ele><time>2026-05-02T14:42:20Z</time></trkpt><trkpt lat="43.18969360453992" lon="12.978209275030409"><ele>790.25</ele><time>2026-05-02T14:42:21Z</time></trkpt><trkpt lat="43.189604278646144" lon="12.978303455240965"><ele>788.5</ele><time>2026-05-02T14:42:22Z</time></trkpt><trkpt lat="43.18951195793242" lon="12.978408913921998"><ele>786.75</ele><time>2026-05-02T14:42:23Z</time></trkpt><trkpt lat="43.18942453425362" lon="12.978515383412697"><ele>785.0</ele><time>2026-05-02T14:42:24Z</time></trkpt><trkpt lat="43.18933548249534" lon="12.978620130648917"><ele>785.0</ele><time>2026-05-02T14:42:25Z</time></trkpt><trkpt lat="43.189246814718096" lon="12.978735227501678"><ele>785.0</ele><time>2026-05-02T14:42:26Z</time></trkpt><trkpt lat="43.18916404503553" lon="12.97884252381168"><ele>785.0</ele><time>2026-05-02T14:42:27Z</time></trkpt><trkpt lat="43.18907730800928" lon="12.978955130978113"><ele>785.0</ele><time>2026-05-02T14:42:28Z</time></trkpt><trkpt lat="43.18898846098803" lon="12.979062251473183"><ele>784.25</ele><time>2026-05-02T14:42:29Z</time></trkpt><trkpt lat="43.1888935489479" lon="12.979175643812576"><ele>783.5</ele><time>2026-05-02T14:42:30Z</time></trkpt><trkpt lat="43.188792497337815" lon="12.97927534248956"><ele>782.75</ele><time>2026-05-02T14:42:31Z</time></trkpt><trkpt lat="43.18868838825964" lon="12.979375451505705"><ele>782.0</ele><time>2026-05-02T14:42:32Z</time></trkpt><trkpt lat="43.188587916741305" lon="12.979483788527439"><ele>782.0</ele><time>2026-05-02T14:42:33Z</time></trkpt><trkpt lat="43.1884901107209" lon="12.979601313508882"><ele>782.0</ele><time>2026-05-02T14:42:34Z</time></trkpt><trkpt lat="43.18839176688986" lon="12.979714269524905"><ele>782.0</ele><time>2026-05-02T14:42:35Z</time></trkpt><trkpt lat="43.188293588341594" lon="12.979822319731724"><ele>782.0</ele><time>2026-05-02T14:42:36Z</time></trkpt><trkpt lat="43.18818624190224" lon="12.9799388579521"><ele>781.75</ele><time>2026-05-02T14:42:37Z</time></trkpt><trkpt lat="43.18808114572966" lon="12.980053919174278"><ele>781.5</ele><time>2026-05-02T14:42:38Z</time></trkpt><trkpt lat="43.18797438928827" lon="12.980172752221314"><ele>781.25</ele><time>2026-05-02T14:42:39Z</time></trkpt><trkpt lat="43.18785705244467" lon="12.980294049617672"><ele>781.0</ele><time>2026-05-02T14:42:40Z</time></trkpt><trkpt lat="43.187730026493455" lon="12.980418805283435"><ele>781.0</ele><time>2026-05-02T14:42:41Z</time></trkpt><trkpt lat="43.18760653731169" lon="12.98053353681237"><ele>781.0</ele><time>2026-05-02T14:42:42Z</time></trkpt><trkpt lat="43.187500353549886" lon="12.980622869892889"><ele>781.0</ele><time>2026-05-02T14:42:43Z</time></trkpt><trkpt lat="43.187419654783454" lon="12.980693165138819"><ele>781.0</ele><time>2026-05-02T14:42:44Z</time></trkpt><trkpt lat="43.187358646367365" lon="12.980761982188206"><ele>781.0</ele><time>2026-05-02T14:42:45Z</time></trkpt><trkpt lat="43.18729475871027" lon="12.980824174512644"><ele>781.6666666666666</ele><time>2026-05-02T14:42:46Z</time></trkpt><trkpt lat="43.18723354506824" lon="12.980884099985255"><ele>782.3333333333333</ele><time>2026-05-02T14:42:47Z</time></trkpt><trkpt lat="43.18717500701894" lon="12.980930820618541"><ele>783.0</ele><time>2026-05-02T14:42:48Z</time></trkpt><trkpt lat="43.18711144346607" lon="12.981001579817413"><ele>783.6666666666667</ele><time>2026-05-02T14:42:49Z</time></trkpt><trkpt lat="43.187045149528664" lon="12.981101810907745"><ele>784.3333333333334</ele><time>2026-05-02T14:42:50Z</time></trkpt><trkpt lat="43.186973287082914" lon="12.981192611094489"><ele>785.0</ele><time>2026-05-02T14:42:51Z</time></trkpt><trkpt lat="43.18687019455646" lon="12.98128029146998"><ele>785.0</ele><time>2026-05-02T14:42:52Z</time></trkpt><trkpt lat="43.18682110087787" lon="12.981371808303654"><ele>785.0</ele><time>2026-05-02T14:42:53Z</time></trkpt><trkpt lat="43.18679984918275" lon="12.98149650027954"><ele>785.0</ele><time>2026-05-02T14:42:54Z</time></trkpt><trkpt lat="43.18677012396044" lon="12.981636599111342"><ele>785.0</ele><time>2026-05-02T14:42:55Z</time></trkpt><trkpt lat="43.186725190059434" lon="12.98178795551982"><ele>785.0</ele><time>2026-05-02T14:42:56Z</time></trkpt><trkpt lat="43.18665159160789" lon="12.981931814484243"><ele>782.25</ele><time>2026-05-02T14:42:57Z</time></trkpt><trkpt lat="43.18656881269639" lon="12.982060493972488"><ele>779.5</ele><time>2026-05-02T14:42:58Z</time></trkpt><trkpt lat="43.186483411169206" lon="12.982199566870628"><ele>776.75</ele><time>2026-05-02T14:42:59Z</time></trkpt><trkpt lat="43.18639606865754" lon="12.982355480614066"><ele>774.0</ele><time>2026-05-02T14:43:00Z</time></trkpt><trkpt lat="43.186337122731146" lon="12.982494939986719"><ele>780.0</ele><time>2026-05-02T14:43:01Z</time></trkpt><trkpt lat="43.18627215605649" lon="12.982618995115681"><ele>786.0</ele><time>2026-05-02T14:43:02Z</time></trkpt><trkpt lat="43.186199487654136" lon="12.982749149889184"><ele>792.0</ele><time>2026-05-02T14:43:03Z</time></trkpt><trkpt lat="43.18609443366247" lon="12.982873047148722"><ele>798.0</ele><time>2026-05-02T14:43:04Z</time></trkpt><trkpt lat="43.1859952092466" lon="12.982984564412256"><ele>798.0</ele><time>2026-05-02T14:43:05Z</time></trkpt><trkpt lat="43.1858860234566" lon="12.983093374261866"><ele>798.0</ele><time>2026-05-02T14:43:06Z</time></trkpt><trkpt lat="43.18578674409806" lon="12.983190548328299"><ele>798.0</ele><time>2026-05-02T14:43:07Z</time></trkpt><trkpt lat="43.18569372557439" lon="12.983279316820129"><ele>798.0</ele><time>2026-05-02T14:43:08Z</time></trkpt><trkpt lat="43.1855984978683" lon="12.98335595636765"><ele>795.0</ele><time>2026-05-02T14:43:08.999Z</time></trkpt><trkpt lat="43.18549908786274" lon="12.983415479309377"><ele>792.0</ele><time>2026-05-02T14:43:09.999Z</time></trkpt><trkpt lat="43.18541842322887" lon="12.983478604228306"><ele>789.0</ele><time>2026-05-02T14:43:10.999Z</time></trkpt><trkpt lat="43.18535107303189" lon="12.98356575737223"><ele>786.0</ele><time>2026-05-02T14:43:11.999Z</time></trkpt><trkpt lat="43.18528874190191" lon="12.983647705561575"><ele>783.0</ele><time>2026-05-02T14:43:12.999Z</time></trkpt><trkpt lat="43.18521815593754" lon="12.983721959642315"><ele>783.0</ele><time>2026-05-02T14:43:13.999Z</time></trkpt><trkpt lat="43.185157042167376" lon="12.98387623765438"><ele>783.0</ele><time>2026-05-02T14:43:15.999Z</time></trkpt><trkpt lat="43.185155335279724" lon="12.98398098853595"><ele>783.0</ele><time>2026-05-02T14:43:16.999Z</time></trkpt><trkpt lat="43.185171678641076" lon="12.984125616885336"><ele>783.0</ele><time>2026-05-02T14:43:18.999Z</time></trkpt><trkpt lat="43.18517173380115" lon="12.984240515396161"><ele>783.0</ele><time>2026-05-02T14:43:19.999Z</time></trkpt><trkpt lat="43.18515990262153" lon="12.984365956637983"><ele>781.5999999999999</ele><time>2026-05-02T14:43:20.999Z</time></trkpt><trkpt lat="43.1851458244967" lon="12.98445106973952"><ele>780.1999999999999</ele><time>2026-05-02T14:43:21.999Z</time></trkpt><trkpt lat="43.18521418975436" lon="12.98462062747974"><ele>778.8</ele><time>2026-05-02T14:43:23.999Z</time></trkpt><trkpt lat="43.18529573529207" lon="12.984734546337798"><ele>777.4</ele><time>2026-05-02T14:43:24.999Z</time></trkpt><trkpt lat="43.185380764024224" lon="12.984832744141823"><ele>776.0</ele><time>2026-05-02T14:43:25.999Z</time></trkpt><trkpt lat="43.18545181788925" lon="12.984935384050635"><ele>772.8</ele><time>2026-05-02T14:43:26.999Z</time></trkpt><trkpt lat="43.18549109466082" lon="12.985049866948065"><ele>769.5999999999999</ele><time>2026-05-02T14:43:27.999Z</time></trkpt><trkpt lat="43.18554132857314" lon="12.985167208551687"><ele>766.4</ele><time>2026-05-02T14:43:28.999Z</time></trkpt><trkpt lat="43.185583124286346" lon="12.985261944904952"><ele>763.2</ele><time>2026-05-02T14:43:29.999Z</time></trkpt><trkpt lat="43.18556712900138" lon="12.985396860277598"><ele>760.0</ele><time>2026-05-02T14:43:30.999Z</time></trkpt><trkpt lat="43.18554225594313" lon="12.985532674614905"><ele>760.0</ele><time>2026-05-02T14:43:31.999Z</time></trkpt><trkpt lat="43.185527394954974" lon="12.985663405879432"><ele>760.0</ele><time>2026-05-02T14:43:32.999Z</time></trkpt><trkpt lat="43.18553056462558" lon="12.985759395494064"><ele>760.0</ele><time>2026-05-02T14:43:33.999Z</time></trkpt><trkpt lat="43.18552433640065" lon="12.985883946296575"><ele>760.0</ele><time>2026-05-02T14:43:34.999Z</time></trkpt><trkpt lat="43.18553417308031" lon="12.98607607874447"><ele>760.0</ele><time>2026-05-02T14:43:36.999Z</time></trkpt><trkpt lat="43.185566929881254" lon="12.986177737529472"><ele>758.4</ele><time>2026-05-02T14:43:37.999Z</time></trkpt><trkpt lat="43.18559926225622" lon="12.986291651719851"><ele>756.8</ele><time>2026-05-02T14:43:38.999Z</time></trkpt><trkpt lat="43.185648891951786" lon="12.986353812336915"><ele>755.2</ele><time>2026-05-02T14:43:39.999Z</time></trkpt><trkpt lat="43.18566361216675" lon="12.986445023129173"><ele>753.6</ele><time>2026-05-02T14:43:40.999Z</time></trkpt><trkpt lat="43.18557435500232" lon="12.986641530257234"><ele>752.0</ele><time>2026-05-02T14:43:41.999Z</time></trkpt><trkpt lat="43.185562598101086" lon="12.98677769610749"><ele>752.0</ele><time>2026-05-02T14:43:42.999Z</time></trkpt><trkpt lat="43.185541944617725" lon="12.986914076295806"><ele>752.0</ele><time>2026-05-02T14:43:43.999Z</time></trkpt><trkpt lat="43.18551523904398" lon="12.987041191044161"><ele>752.0</ele><time>2026-05-02T14:43:44.999Z</time></trkpt><trkpt lat="43.185492952019864" lon="12.98717492436782"><ele>752.0</ele><time>2026-05-02T14:43:45.999Z</time></trkpt><trkpt lat="43.185471871217494" lon="12.987282202804728"><ele>752.0</ele><time>2026-05-02T14:43:46.999Z</time></trkpt><trkpt lat="43.18546366510752" lon="12.987375041996835"><ele>752.0</ele><time>2026-05-02T14:43:47.999Z</time></trkpt><trkpt lat="43.18544336733502" lon="12.987523772780579"><ele>750.0</ele><time>2026-05-02T14:43:50Z</time></trkpt><trkpt lat="43.185454655300646" lon="12.987640108901203"><ele>748.0</ele><time>2026-05-02T14:43:52Z</time></trkpt><trkpt lat="43.18552325024236" lon="12.987790133662743"><ele>746.0</ele><time>2026-05-02T14:43:54Z</time></trkpt><trkpt lat="43.185576349072385" lon="12.987892742274571"><ele>744.0</ele><time>2026-05-02T14:43:55Z</time></trkpt><trkpt lat="43.18563424978563" lon="12.987994540434368"><ele>742.0</ele><time>2026-05-02T14:43:56Z</time></trkpt><trkpt lat="43.18569842693067" lon="12.98808871665807"><ele>748.1666666666667</ele><time>2026-05-02T14:43:57Z</time></trkpt><trkpt lat="43.185766623959516" lon="12.988156487773269"><ele>754.3333333333334</ele><time>2026-05-02T14:43:58Z</time></trkpt><trkpt lat="43.18583766732114" lon="12.988206772070667"><ele>760.5</ele><time>2026-05-02T14:43:59Z</time></trkpt><trkpt lat="43.18588473168325" lon="12.988284113957794"><ele>766.6666666666667</ele><time>2026-05-02T14:44:00Z</time></trkpt><trkpt lat="43.185907073330384" lon="12.988379455979155"><ele>772.8333333333334</ele><time>2026-05-02T14:44:01Z</time></trkpt><trkpt lat="43.18592222290927" lon="12.988529168085806"><ele>779.0</ele><time>2026-05-02T14:44:02Z</time></trkpt><trkpt lat="43.185956856854915" lon="12.988676318610263"><ele>779.0</ele><time>2026-05-02T14:44:03Z</time></trkpt><trkpt lat="43.18599001378749" lon="12.988815725466667"><ele>779.0</ele><time>2026-05-02T14:44:04Z</time></trkpt><trkpt lat="43.18600753997869" lon="12.988957577806643"><ele>779.0</ele><time>2026-05-02T14:44:05Z</time></trkpt><trkpt lat="43.186036799155346" lon="12.989079753444749"><ele>779.0</ele><time>2026-05-02T14:44:06Z</time></trkpt><trkpt lat="43.186072159178636" lon="12.989184482490707"><ele>779.0</ele><time>2026-05-02T14:44:07Z</time></trkpt><trkpt lat="43.18611488751011" lon="12.989268039200208"><ele>779.4000000000001</ele><time>2026-05-02T14:44:08Z</time></trkpt><trkpt lat="43.186197915041525" lon="12.98933457080987"><ele>779.8</ele><time>2026-05-02T14:44:09Z</time></trkpt><trkpt lat="43.186296647712965" lon="12.989411803005837"><ele>780.2</ele><time>2026-05-02T14:44:10Z</time></trkpt><trkpt lat="43.186344114267946" lon="12.989514943934388"><ele>780.5999999999999</ele><time>2026-05-02T14:44:11Z</time></trkpt><trkpt lat="43.186336181452845" lon="12.98960553829382"><ele>781.0</ele><time>2026-05-02T14:44:12Z</time></trkpt><trkpt lat="43.18629184870553" lon="12.989714860416646"><ele>781.0</ele><time>2026-05-02T14:44:13Z</time></trkpt><trkpt lat="43.18619823457914" lon="12.989864477293784"><ele>781.0</ele><time>2026-05-02T14:44:14Z</time></trkpt><trkpt lat="43.18613643245979" lon="12.989960918821785"><ele>781.0</ele><time>2026-05-02T14:44:15Z</time></trkpt><trkpt lat="43.18607476720794" lon="12.990085009255289"><ele>781.0</ele><time>2026-05-02T14:44:16Z</time></trkpt><trkpt lat="43.18604091348195" lon="12.99019598368994"><ele>781.0</ele><time>2026-05-02T14:44:17Z</time></trkpt><trkpt lat="43.18596743249619" lon="12.990246146793568"><ele>779.5999999999999</ele><time>2026-05-02T14:44:18Z</time></trkpt><trkpt lat="43.185874779285605" lon="12.990281435337641"><ele>778.2</ele><time>2026-05-02T14:44:19Z</time></trkpt><trkpt lat="43.18581057511436" lon="12.99034567031162"><ele>776.8</ele><time>2026-05-02T14:44:20Z</time></trkpt><trkpt lat="43.185736738822655" lon="12.990467990396544"><ele>775.4000000000001</ele><time>2026-05-02T14:44:21Z</time></trkpt><trkpt lat="43.18567569345179" lon="12.990584153092431"><ele>774.0</ele><time>2026-05-02T14:44:22Z</time></trkpt><trkpt lat="43.18562596430019" lon="12.990641146504148"><ele>774.0</ele><time>2026-05-02T14:44:23Z</time></trkpt><trkpt lat="43.1855555588416" lon="12.99071300723257"><ele>774.0</ele><time>2026-05-02T14:44:24Z</time></trkpt><trkpt lat="43.185477903455734" lon="12.990759437528583"><ele>774.0</ele><time>2026-05-02T14:44:25Z</time></trkpt><trkpt lat="43.18539565510873" lon="12.990805626858615"><ele>774.0</ele><time>2026-05-02T14:44:26Z</time></trkpt><trkpt lat="43.185328093093084" lon="12.990862163823685"><ele>774.0</ele><time>2026-05-02T14:44:27Z</time></trkpt><trkpt lat="43.18527461134254" lon="12.990943657906344"><ele>774.0</ele><time>2026-05-02T14:44:28Z</time></trkpt><trkpt lat="43.185221001453186" lon="12.991024368034239"><ele>778.8333333333334</ele><time>2026-05-02T14:44:29Z</time></trkpt><trkpt lat="43.18516055105239" lon="12.991096373974491"><ele>783.6666666666667</ele><time>2026-05-02T14:44:30Z</time></trkpt><trkpt lat="43.18510107710642" lon="12.991172243931095"><ele>788.5</ele><time>2026-05-02T14:44:31Z</time></trkpt><trkpt lat="43.18503690721147" lon="12.99124395889716"><ele>793.3333333333334</ele><time>2026-05-02T14:44:32Z</time></trkpt><trkpt lat="43.18498102962387" lon="12.991325418216489"><ele>798.1666666666667</ele><time>2026-05-02T14:44:33Z</time></trkpt><trkpt lat="43.184921931375975" lon="12.991401552953429"><ele>803.0</ele><time>2026-05-02T14:44:34Z</time></trkpt><trkpt lat="43.184857932256605" lon="12.991475084003802"><ele>800.8</ele><time>2026-05-02T14:44:35Z</time></trkpt><trkpt lat="43.18480649125447" lon="12.991551642849467"><ele>798.5999999999999</ele><time>2026-05-02T14:44:36Z</time></trkpt><trkpt lat="43.18476682382446" lon="12.99166444214138"><ele>796.4000000000001</ele><time>2026-05-02T14:44:37Z</time></trkpt><trkpt lat="43.184717335939574" lon="12.99178273343357"><ele>794.2</ele><time>2026-05-02T14:44:38Z</time></trkpt><trkpt lat="43.18467532070983" lon="12.991929861707236"><ele>792.0</ele><time>2026-05-02T14:44:39Z</time></trkpt><trkpt lat="43.184635020167235" lon="12.99204501916224"><ele>792.0</ele><time>2026-05-02T14:44:40Z</time></trkpt><trkpt lat="43.18456983818893" lon="12.992119794475762"><ele>792.0</ele><time>2026-05-02T14:44:41Z</time></trkpt><trkpt lat="43.18450113172628" lon="12.992195737592267"><ele>792.0</ele><time>2026-05-02T14:44:42Z</time></trkpt><trkpt lat="43.18443243104665" lon="12.992281483834736"><ele>792.0</ele><time>2026-05-02T14:44:43Z</time></trkpt><trkpt lat="43.18436279445003" lon="12.992354256825152"><ele>792.0</ele><time>2026-05-02T14:44:44Z</time></trkpt><trkpt lat="43.1843048287665" lon="12.992437905668165"><ele>792.0</ele><time>2026-05-02T14:44:45Z</time></trkpt><trkpt lat="43.184253125393795" lon="12.992528297584661"><ele>792.0</ele><time>2026-05-02T14:44:46Z</time></trkpt><trkpt lat="43.184213835687366" lon="12.99262279192316"><ele>792.0</ele><time>2026-05-02T14:44:47Z</time></trkpt><trkpt lat="43.18416795302717" lon="12.992757335511216"><ele>792.0</ele><time>2026-05-02T14:44:49Z</time></trkpt><trkpt lat="43.18417808591424" lon="12.992933276688715"><ele>792.0</ele><time>2026-05-02T14:44:51Z</time></trkpt><trkpt lat="43.18426004503549" lon="12.993031492616057"><ele>792.0</ele><time>2026-05-02T14:44:53Z</time></trkpt><trkpt lat="43.1843790296436" lon="12.99304706654386"><ele>792.0</ele><time>2026-05-02T14:44:55Z</time></trkpt><trkpt lat="43.18445576728101" lon="12.993040051965952"><ele>792.0</ele><time>2026-05-02T14:44:56Z</time></trkpt><trkpt lat="43.18452806791118" lon="12.993052087027356"><ele>792.0</ele><time>2026-05-02T14:44:57Z</time></trkpt><trkpt lat="43.184573898053486" lon="12.993216527490581"><ele>792.0</ele><time>2026-05-02T14:44:59Z</time></trkpt><trkpt lat="43.18457821234593" lon="12.9933778375233"><ele>792.0</ele><time>2026-05-02T14:45:00Z</time></trkpt><trkpt lat="43.184568107372456" lon="12.993531336677325"><ele>790.8333333333334</ele><time>2026-05-02T14:45:01Z</time></trkpt><trkpt lat="43.18459043392693" lon="12.99367656650351"><ele>789.6666666666667</ele><time>2026-05-02T14:45:02Z</time></trkpt><trkpt lat="43.18460628950725" lon="12.993797176980818"><ele>788.5</ele><time>2026-05-02T14:45:03Z</time></trkpt><trkpt lat="43.18460324630746" lon="12.993914274858245"><ele>787.3333333333334</ele><time>2026-05-02T14:45:04Z</time></trkpt><trkpt lat="43.18459028332637" lon="12.994025764989638"><ele>786.1666666666667</ele><time>2026-05-02T14:45:05Z</time></trkpt><trkpt lat="43.18457010649777" lon="12.99413405881042"><ele>785.0</ele><time>2026-05-02T14:45:06Z</time></trkpt><trkpt lat="43.18456447344092" lon="12.99424895964446"><ele>784.8333333333334</ele><time>2026-05-02T14:45:07Z</time></trkpt><trkpt lat="43.18455004525424" lon="12.99435008781629"><ele>784.6666666666667</ele><time>2026-05-02T14:45:08Z</time></trkpt><trkpt lat="43.18453498269397" lon="12.99446668432841"><ele>784.5</ele><time>2026-05-02T14:45:09Z</time></trkpt><trkpt lat="43.18452186070569" lon="12.994594568317709"><ele>784.3333333333333</ele><time>2026-05-02T14:45:10Z</time></trkpt><trkpt lat="43.1845094929328" lon="12.994706820212006"><ele>784.1666666666666</ele><time>2026-05-02T14:45:11Z</time></trkpt><trkpt lat="43.184499169676414" lon="12.994827212362488"><ele>784.0</ele><time>2026-05-02T14:45:12Z</time></trkpt><trkpt lat="43.18448488041166" lon="12.994944862553941"><ele>784.8333333333333</ele><time>2026-05-02T14:45:13Z</time></trkpt><trkpt lat="43.18445808752595" lon="12.995048797007383"><ele>785.6666666666666</ele><time>2026-05-02T14:45:14Z</time></trkpt><trkpt lat="43.184417866949524" lon="12.995165029538295"><ele>786.5</ele><time>2026-05-02T14:45:15Z</time></trkpt><trkpt lat="43.184389298356294" lon="12.995269062742931"><ele>787.3333333333333</ele><time>2026-05-02T14:45:16Z</time></trkpt><trkpt lat="43.18436717450976" lon="12.995362996072068"><ele>788.1666666666666</ele><time>2026-05-02T14:45:17Z</time></trkpt><trkpt lat="43.18434681450178" lon="12.995457040557481"><ele>789.0</ele><time>2026-05-02T14:45:17.999Z</time></trkpt><trkpt lat="43.18432471206279" lon="12.995556978347325"><ele>789.0</ele><time>2026-05-02T14:45:18.999Z</time></trkpt><trkpt lat="43.184294301140525" lon="12.995688381082996"><ele>789.0</ele><time>2026-05-02T14:45:19.999Z</time></trkpt><trkpt lat="43.18425976225657" lon="12.995813095193592"><ele>789.0</ele><time>2026-05-02T14:45:20.999Z</time></trkpt><trkpt lat="43.18422705049899" lon="12.995920473150742"><ele>789.0</ele><time>2026-05-02T14:45:21.999Z</time></trkpt><trkpt lat="43.184193346964165" lon="12.99601031159147"><ele>789.0</ele><time>2026-05-02T14:45:22.999Z</time></trkpt><trkpt lat="43.18415385011336" lon="12.996116895229958"><ele>789.0</ele><time>2026-05-02T14:45:23.999Z</time></trkpt><trkpt lat="43.18411379630584" lon="12.996215490366989"><ele>791.6666666666666</ele><time>2026-05-02T14:45:24.999Z</time></trkpt><trkpt lat="43.18407486593619" lon="12.99631914278089"><ele>794.3333333333333</ele><time>2026-05-02T14:45:25.999Z</time></trkpt><trkpt lat="43.18403902527623" lon="12.99641244952109"><ele>797.0</ele><time>2026-05-02T14:45:26.999Z</time></trkpt><trkpt lat="43.183995590583905" lon="12.996510699297662"><ele>799.6666666666666</ele><time>2026-05-02T14:45:27.999Z</time></trkpt><trkpt lat="43.18394681751271" lon="12.996574952214608"><ele>802.3333333333333</ele><time>2026-05-02T14:45:28.999Z</time></trkpt><trkpt lat="43.18390520433526" lon="12.996649910758109"><ele>805.0</ele><time>2026-05-02T14:45:29.999Z</time></trkpt><trkpt lat="43.1838573045483" lon="12.996739997885678"><ele>797.9999999999999</ele><time>2026-05-02T14:45:30.999Z</time></trkpt><trkpt lat="43.18381537097995" lon="12.9968263084134"><ele>791.0</ele><time>2026-05-02T14:45:31.999Z</time></trkpt><trkpt lat="43.18376618679085" lon="12.996928839202903"><ele>784.0</ele><time>2026-05-02T14:45:32.999Z</time></trkpt><trkpt lat="43.18371159212552" lon="12.997040667106917"><ele>777.0</ele><time>2026-05-02T14:45:33.999Z</time></trkpt><trkpt lat="43.183672671653795" lon="12.997139982949294"><ele>770.0</ele><time>2026-05-02T14:45:34.999Z</time></trkpt><trkpt lat="43.18364217432287" lon="12.997237228579483"><ele>763.0</ele><time>2026-05-02T14:45:35.999Z</time></trkpt><trkpt lat="43.183636245940946" lon="12.9973835327401"><ele>759.0</ele><time>2026-05-02T14:45:37.999Z</time></trkpt><trkpt lat="43.18366623917432" lon="12.997515215265558"><ele>755.0</ele><time>2026-05-02T14:45:39.999Z</time></trkpt><trkpt lat="43.183749657124125" lon="12.997656790984944"><ele>751.0</ele><time>2026-05-02T14:45:41.999Z</time></trkpt><trkpt lat="43.18380519319871" lon="12.997742879488504"><ele>747.0</ele><time>2026-05-02T14:45:42.999Z</time></trkpt><trkpt lat="43.183855294891984" lon="12.997835988769781"><ele>743.0</ele><time>2026-05-02T14:45:43.999Z</time></trkpt><trkpt lat="43.18390000557586" lon="12.997911578249942"><ele>743.0</ele><time>2026-05-02T14:45:44.999Z</time></trkpt><trkpt lat="43.18394886003681" lon="12.997986006214138"><ele>743.0</ele><time>2026-05-02T14:45:45.999Z</time></trkpt><trkpt lat="43.183999790713905" lon="12.998068367191504"><ele>743.0</ele><time>2026-05-02T14:45:46.999Z</time></trkpt><trkpt lat="43.184065235723146" lon="12.998209408669004"><ele>743.0</ele><time>2026-05-02T14:45:48.999Z</time></trkpt><trkpt lat="43.184101547269705" lon="12.99829581662889"><ele>743.0</ele><time>2026-05-02T14:45:49.999Z</time></trkpt><trkpt lat="43.18414972828848" lon="12.998373808409198"><ele>743.0</ele><time>2026-05-02T14:45:50.999Z</time></trkpt><trkpt lat="43.18420731241667" lon="12.998464032386007"><ele>742.2</ele><time>2026-05-02T14:45:51.999Z</time></trkpt><trkpt lat="43.18433177422711" lon="12.998575887165707"><ele>741.4</ele><time>2026-05-02T14:45:53.999Z</time></trkpt><trkpt lat="43.18440495235079" lon="12.998613546683405"><ele>740.6</ele><time>2026-05-02T14:45:54.999Z</time></trkpt><trkpt lat="43.1844854510949" lon="12.998654376322936"><ele>739.8000000000001</ele><time>2026-05-02T14:45:56Z</time></trkpt><trkpt lat="43.184579013760654" lon="12.998706395730714"><ele>739.0</ele><time>2026-05-02T14:45:57Z</time></trkpt><trkpt lat="43.18466014508904" lon="12.9987591349211"><ele>739.0</ele><time>2026-05-02T14:45:58Z</time></trkpt><trkpt lat="43.18474345983315" lon="12.998816592273728"><ele>739.0</ele><time>2026-05-02T14:45:59Z</time></trkpt><trkpt lat="43.184815855074035" lon="12.998858754260306"><ele>739.0</ele><time>2026-05-02T14:46:00Z</time></trkpt><trkpt lat="43.18488888138639" lon="12.998908141588593"><ele>739.0</ele><time>2026-05-02T14:46:01Z</time></trkpt><trkpt lat="43.18496422440881" lon="12.998977421772661"><ele>739.0</ele><time>2026-05-02T14:46:02Z</time></trkpt><trkpt lat="43.18504111685868" lon="12.999026526408501"><ele>739.0</ele><time>2026-05-02T14:46:03Z</time></trkpt><trkpt lat="43.1851319797916" lon="12.999089969924677"><ele>742.6</ele><time>2026-05-02T14:46:04Z</time></trkpt><trkpt lat="43.18521414810531" lon="12.999145292579588"><ele>746.2</ele><time>2026-05-02T14:46:05Z</time></trkpt><trkpt lat="43.18530243672349" lon="12.999204128357546"><ele>749.8000000000001</ele><time>2026-05-02T14:46:06Z</time></trkpt><trkpt lat="43.18538301676642" lon="12.999253608601862"><ele>753.4000000000001</ele><time>2026-05-02T14:46:07Z</time></trkpt><trkpt lat="43.185464839280414" lon="12.999300734870749"><ele>757.0</ele><time>2026-05-02T14:46:08Z</time></trkpt><trkpt lat="43.18555151175145" lon="12.999350385960463"><ele>750.1666666666667</ele><time>2026-05-02T14:46:09Z</time></trkpt><trkpt lat="43.18562607486769" lon="12.99940249557645"><ele>743.3333333333334</ele><time>2026-05-02T14:46:10Z</time></trkpt><trkpt lat="43.185707994884396" lon="12.99945739613032"><ele>736.5</ele><time>2026-05-02T14:46:11Z</time></trkpt><trkpt lat="43.18578602418778" lon="12.999503936655998"><ele>729.6666666666666</ele><time>2026-05-02T14:46:12Z</time></trkpt><trkpt lat="43.18585808856243" lon="12.999537835158103"><ele>722.8333333333333</ele><time>2026-05-02T14:46:13Z</time></trkpt><trkpt lat="43.18595056072977" lon="12.999570041378846"><ele>716.0</ele><time>2026-05-02T14:46:14Z</time></trkpt><trkpt lat="43.18602412263305" lon="12.999598296140269"><ele>716.0</ele><time>2026-05-02T14:46:15Z</time></trkpt><trkpt lat="43.18612746692149" lon="12.99964720376601"><ele>716.0</ele><time>2026-05-02T14:46:17Z</time></trkpt><trkpt lat="43.186204424885425" lon="12.99967995997356"><ele>716.0</ele><time>2026-05-02T14:46:19Z</time></trkpt><trkpt lat="43.18629885040321" lon="12.99972648832851"><ele>716.0</ele><time>2026-05-02T14:46:21Z</time></trkpt><trkpt lat="43.18640669476754" lon="12.999749771986576"><ele>716.0</ele><time>2026-05-02T14:46:23Z</time></trkpt><trkpt lat="43.18651503296763" lon="12.999793903080345"><ele>717.8333333333333</ele><time>2026-05-02T14:46:25Z</time></trkpt><trkpt lat="43.18657752554354" lon="12.999825211767694"><ele>719.6666666666666</ele><time>2026-05-02T14:46:26Z</time></trkpt><trkpt lat="43.18665373701402" lon="12.999846353895643"><ele>721.5</ele><time>2026-05-02T14:46:27Z</time></trkpt><trkpt lat="43.186739936332565" lon="12.999867255456529"><ele>723.3333333333334</ele><time>2026-05-02T14:46:28Z</time></trkpt><trkpt lat="43.18683233303176" lon="12.999879299928322"><ele>725.1666666666667</ele><time>2026-05-02T14:46:29Z</time></trkpt><trkpt lat="43.18690337116618" lon="12.99989800718799"><ele>727.0</ele><time>2026-05-02T14:46:30Z</time></trkpt><trkpt lat="43.18698028780253" lon="12.999969835629829"><ele>727.0</ele><time>2026-05-02T14:46:31Z</time></trkpt><trkpt lat="43.18707004666885" lon="13.000081174770665"><ele>727.0</ele><time>2026-05-02T14:46:32Z</time></trkpt><trkpt lat="43.18715291815706" lon="13.000154058977316"><ele>727.0</ele><time>2026-05-02T14:46:33Z</time></trkpt><trkpt lat="43.187219985160844" lon="13.000199719379516"><ele>727.0</ele><time>2026-05-02T14:46:34Z</time></trkpt><trkpt lat="43.18728582697378" lon="13.000205291968243"><ele>727.0</ele><time>2026-05-02T14:46:35Z</time></trkpt><trkpt lat="43.187378793488165" lon="13.000220306178782"><ele>728.8333333333334</ele><time>2026-05-02T14:46:36Z</time></trkpt><trkpt lat="43.18747860311125" lon="13.000239503364998"><ele>730.6666666666667</ele><time>2026-05-02T14:46:37Z</time></trkpt><trkpt lat="43.18756406571704" lon="13.000247948799249"><ele>732.5</ele><time>2026-05-02T14:46:38Z</time></trkpt><trkpt lat="43.18763695594357" lon="13.000271594075986"><ele>734.3333333333334</ele><time>2026-05-02T14:46:39Z</time></trkpt><trkpt lat="43.187694856862336" lon="13.000335142203673"><ele>736.1666666666666</ele><time>2026-05-02T14:46:40Z</time></trkpt><trkpt lat="43.187748131341095" lon="13.000431784425027"><ele>738.0</ele><time>2026-05-02T14:46:41Z</time></trkpt><trkpt lat="43.18780022956282" lon="13.00051218927857"><ele>738.0</ele><time>2026-05-02T14:46:42Z</time></trkpt><trkpt lat="43.187918248993356" lon="13.000605176325074"><ele>738.0</ele><time>2026-05-02T14:46:44Z</time></trkpt><trkpt lat="43.18797604653278" lon="13.00066878790947"><ele>738.0</ele><time>2026-05-02T14:46:45Z</time></trkpt><trkpt lat="43.188050504345085" lon="13.000712896979927"><ele>738.0</ele><time>2026-05-02T14:46:46Z</time></trkpt><trkpt lat="43.18813525464569" lon="13.000770446899482"><ele>738.0</ele><time>2026-05-02T14:46:47Z</time></trkpt><trkpt lat="43.18822454894715" lon="13.000834332956261"><ele>734.1428571428571</ele><time>2026-05-02T14:46:48Z</time></trkpt><trkpt lat="43.18827172588116" lon="13.00090210648597"><ele>730.2857142857142</ele><time>2026-05-02T14:46:49Z</time></trkpt><trkpt lat="43.188327535718265" lon="13.000999099566444"><ele>726.4285714285714</ele><time>2026-05-02T14:46:50Z</time></trkpt><trkpt lat="43.18839396909847" lon="13.001063997500165"><ele>722.5714285714286</ele><time>2026-05-02T14:46:51Z</time></trkpt><trkpt lat="43.18843688026282" lon="13.001128617862728"><ele>718.7142857142857</ele><time>2026-05-02T14:46:52Z</time></trkpt><trkpt lat="43.188445211288816" lon="13.001221677733948"><ele>714.8571428571429</ele><time>2026-05-02T14:46:53Z</time></trkpt><trkpt lat="43.18843302608742" lon="13.00132274334367"><ele>711.0</ele><time>2026-05-02T14:46:54Z</time></trkpt><trkpt lat="43.188402670405466" lon="13.00139921587367"><ele>711.0</ele><time>2026-05-02T14:46:55Z</time></trkpt><trkpt lat="43.18833141994766" lon="13.001454016960176"><ele>711.0</ele><time>2026-05-02T14:46:57Z</time></trkpt><trkpt lat="43.18826980903954" lon="13.001531146472416"><ele>711.0</ele><time>2026-05-02T14:46:59Z</time></trkpt><trkpt lat="43.18822433387356" lon="13.001624438001985"><ele>711.0</ele><time>2026-05-02T14:54:07.998Z</time></trkpt><trkpt lat="43.188193550430995" lon="13.001743413684387"><ele>711.0</ele><time>2026-05-02T14:54:10.998Z</time></trkpt><trkpt lat="43.18817518103833" lon="13.001842005385127"><ele>711.0</ele><time>2026-05-02T14:54:12.998Z</time></trkpt><trkpt lat="43.18817090659502" lon="13.001967334271512"><ele>707.25</ele><time>2026-05-02T14:54:14.998Z</time></trkpt><trkpt lat="43.188199284084284" lon="13.002112067157343"><ele>703.5</ele><time>2026-05-02T14:54:16.998Z</time></trkpt><trkpt lat="43.188242765413165" lon="13.002255139941102"><ele>699.75</ele><time>2026-05-02T14:54:18.998Z</time></trkpt><trkpt lat="43.188278996000335" lon="13.002415007055479"><ele>696.0</ele><time>2026-05-02T14:54:21Z</time></trkpt><trkpt lat="43.18833382548385" lon="13.00254174270228"><ele>693.1999999999999</ele><time>2026-05-02T14:54:23Z</time></trkpt><trkpt lat="43.18843111986081" lon="13.002644622986233"><ele>690.4</ele><time>2026-05-02T14:54:25Z</time></trkpt><trkpt lat="43.188518589352604" lon="13.002750937477211"><ele>687.6</ele><time>2026-05-02T14:54:27Z</time></trkpt><trkpt lat="43.18858472547642" lon="13.0028885728107"><ele>684.8</ele><time>2026-05-02T14:54:29Z</time></trkpt><trkpt lat="43.18863878977492" lon="13.002935544255267"><ele>682.0</ele><time>2026-05-02T14:54:30Z</time></trkpt><trkpt lat="43.188701512590065" lon="13.002977243958563"><ele>682.0</ele><time>2026-05-02T14:54:31Z</time></trkpt><trkpt lat="43.18875852497009" lon="13.003031387933115"><ele>682.0</ele><time>2026-05-02T14:54:32Z</time></trkpt><trkpt lat="43.18885188984464" lon="13.003143193865995"><ele>682.0</ele><time>2026-05-02T14:54:34Z</time></trkpt><trkpt lat="43.18897235858313" lon="13.003206796643015"><ele>682.0</ele><time>2026-05-02T14:54:36Z</time></trkpt><trkpt lat="43.189036294612045" lon="13.003235340523837"><ele>682.0</ele><time>2026-05-02T14:54:37Z</time></trkpt><trkpt lat="43.189112265944765" lon="13.003268452784225"><ele>683.6666666666667</ele><time>2026-05-02T14:54:38Z</time></trkpt><trkpt lat="43.18918318784727" lon="13.003306346134652"><ele>685.3333333333334</ele><time>2026-05-02T14:54:39Z</time></trkpt><trkpt lat="43.18925610946955" lon="13.003365896243839"><ele>687.0</ele><time>2026-05-02T14:54:40Z</time></trkpt><trkpt lat="43.189325691777434" lon="13.003415116190624"><ele>688.6666666666666</ele><time>2026-05-02T14:54:41Z</time></trkpt><trkpt lat="43.18939086744131" lon="13.003507294061528"><ele>690.3333333333333</ele><time>2026-05-02T14:54:43Z</time></trkpt><trkpt lat="43.189356931817706" lon="13.003656619783657"><ele>692.0</ele><time>2026-05-02T14:54:45Z</time></trkpt><trkpt lat="43.18938214810446" lon="13.003785953432146"><ele>685.4000000000001</ele><time>2026-05-02T14:54:47Z</time></trkpt><trkpt lat="43.18947051663694" lon="13.003929902195743"><ele>678.8000000000001</ele><time>2026-05-02T14:54:49Z</time></trkpt><trkpt lat="43.18948635057199" lon="13.004030874675548"><ele>672.2</ele><time>2026-05-02T14:54:49.999Z</time></trkpt><trkpt lat="43.189513681669" lon="13.004122679570592"><ele>665.6</ele><time>2026-05-02T14:54:50.999Z</time></trkpt><trkpt lat="43.18957250939178" lon="13.00425345501707"><ele>659.0</ele><time>2026-05-02T14:54:52.999Z</time></trkpt><trkpt lat="43.1896000758396" lon="13.004358092879475"><ele>654.6</ele><time>2026-05-02T14:54:54.999Z</time></trkpt><trkpt lat="43.1895714659731" lon="13.004451294528653"><ele>650.2</ele><time>2026-05-02T14:54:55.999Z</time></trkpt><trkpt lat="43.189576978421194" lon="13.004541509382367"><ele>645.8000000000001</ele><time>2026-05-02T14:54:56.999Z</time></trkpt><trkpt lat="43.18957448878319" lon="13.00464350697508"><ele>641.4000000000001</ele><time>2026-05-02T14:54:58.999Z</time></trkpt><trkpt lat="43.18944812390891" lon="13.004547221968334"><ele>637.0</ele><time>2026-05-02T14:55:01.999Z</time></trkpt><trkpt lat="43.1893499620544" lon="13.004497438456523"><ele>637.0</ele><time>2026-05-02T14:55:02.999Z</time></trkpt><trkpt lat="43.18925559610677" lon="13.004452445366937"><ele>637.0</ele><time>2026-05-02T14:55:03.999Z</time></trkpt><trkpt lat="43.189155231097274" lon="13.0044179356888"><ele>637.0</ele><time>2026-05-02T14:55:04.999Z</time></trkpt><trkpt lat="43.1890501312243" lon="13.004418270092657"><ele>637.0</ele><time>2026-05-02T14:55:05.999Z</time></trkpt><trkpt lat="43.1889568386034" lon="13.004394647885508"><ele>637.0</ele><time>2026-05-02T14:55:06.999Z</time></trkpt><trkpt lat="43.18886154037441" lon="13.004383314427361"><ele>635.8000000000001</ele><time>2026-05-02T14:55:07.999Z</time></trkpt><trkpt lat="43.18877057369981" lon="13.00435874434571"><ele>634.6</ele><time>2026-05-02T14:55:08.999Z</time></trkpt><trkpt lat="43.18866305247819" lon="13.00437846842026"><ele>633.4000000000001</ele><time>2026-05-02T14:55:09.999Z</time></trkpt><trkpt lat="43.188567993894736" lon="13.004390914716838"><ele>632.2</ele><time>2026-05-02T14:55:10.999Z</time></trkpt><trkpt lat="43.18847608745856" lon="13.004401216100396"><ele>631.0</ele><time>2026-05-02T14:55:11.999Z</time></trkpt><trkpt lat="43.1883679271543" lon="13.00441333930531"><ele>631.0</ele><time>2026-05-02T14:55:12.999Z</time></trkpt><trkpt lat="43.18824992831962" lon="13.00442656526577"><ele>631.0</ele><time>2026-05-02T14:55:13.999Z</time></trkpt><trkpt lat="43.18814168871039" lon="13.004438697358427"><ele>631.0</ele><time>2026-05-02T14:55:14.999Z</time></trkpt><trkpt lat="43.188037842860474" lon="13.004473697501831"><ele>631.0</ele><time>2026-05-02T14:55:15.999Z</time></trkpt><trkpt lat="43.1879171973216" lon="13.004466021845289"><ele>629.0</ele><time>2026-05-02T14:55:16.999Z</time></trkpt><trkpt lat="43.187816287517045" lon="13.004476785537936"><ele>627.0</ele><time>2026-05-02T14:55:17.999Z</time></trkpt><trkpt lat="43.18773980491502" lon="13.004483972471478"><ele>625.0</ele><time>2026-05-02T14:55:18.999Z</time></trkpt><trkpt lat="43.187635467761204" lon="13.00449082229324"><ele>623.0</ele><time>2026-05-02T14:55:20.999Z</time></trkpt><trkpt lat="43.18766244756373" lon="13.004654544739413"><ele>621.0</ele><time>2026-05-02T14:55:23.999Z</time></trkpt><trkpt lat="43.18771273694684" lon="13.004717621868066"><ele>621.0</ele><time>2026-05-02T14:55:24.999Z</time></trkpt><trkpt lat="43.18777050637315" lon="13.004824132672052"><ele>621.0</ele><time>2026-05-02T14:55:25.999Z</time></trkpt><trkpt lat="43.18784769098704" lon="13.00493160788948"><ele>621.0</ele><time>2026-05-02T14:55:26.999Z</time></trkpt><trkpt lat="43.187940782007736" lon="13.005047987305575"><ele>621.0</ele><time>2026-05-02T14:55:27.999Z</time></trkpt><trkpt lat="43.18802760184886" lon="13.005195248453912"><ele>619.0</ele><time>2026-05-02T14:55:28.999Z</time></trkpt><trkpt lat="43.18811235283587" lon="13.005330054040341"><ele>617.0</ele><time>2026-05-02T14:55:29.999Z</time></trkpt><trkpt lat="43.188195214750195" lon="13.005457501191025"><ele>615.0</ele><time>2026-05-02T14:55:30.999Z</time></trkpt><trkpt lat="43.18827415010885" lon="13.00555619382481"><ele>613.0</ele><time>2026-05-02T14:55:31.999Z</time></trkpt><trkpt lat="43.18835437740702" lon="13.005635037405067"><ele>613.0</ele><time>2026-05-02T14:55:32.999Z</time></trkpt><trkpt lat="43.18844474628668" lon="13.005702059809783"><ele>613.0</ele><time>2026-05-02T14:55:33.999Z</time></trkpt><trkpt lat="43.188536940202404" lon="13.005777058771889"><ele>613.0</ele><time>2026-05-02T14:55:34.999Z</time></trkpt><trkpt lat="43.18863632904439" lon="13.005808046528927"><ele>613.0</ele><time>2026-05-02T14:55:35.999Z</time></trkpt><trkpt lat="43.18872453512467" lon="13.005879930282875"><ele>613.0</ele><time>2026-05-02T14:55:36.999Z</time></trkpt><trkpt lat="43.18880735784259" lon="13.005925502476448"><ele>611.6</ele><time>2026-05-02T14:55:37.999Z</time></trkpt><trkpt lat="43.188893438774464" lon="13.00597215288545"><ele>610.1999999999999</ele><time>2026-05-02T14:55:38.999Z</time></trkpt><trkpt lat="43.18896972945825" lon="13.006012206878442"><ele>608.8</ele><time>2026-05-02T14:55:39.999Z</time></trkpt><trkpt lat="43.18903225592275" lon="13.006044183962285"><ele>607.4</ele><time>2026-05-02T14:55:40.999Z</time></trkpt><trkpt lat="43.189116919817714" lon="13.006086149545867"><ele>606.0</ele><time>2026-05-02T14:55:42.999Z</time></trkpt><trkpt lat="43.18903769849981" lon="13.006220092670045"><ele>604.4</ele><time>2026-05-02T14:55:47.999Z</time></trkpt><trkpt lat="43.18897100033092" lon="13.006234791614814"><ele>602.8</ele><time>2026-05-02T14:55:48.999Z</time></trkpt><trkpt lat="43.188863615517306" lon="13.006214729887994"><ele>601.1999999999999</ele><time>2026-05-02T14:55:50.999Z</time></trkpt><trkpt lat="43.18877194308129" lon="13.006299041556813"><ele>599.6</ele><time>2026-05-02T14:55:52.999Z</time></trkpt><trkpt lat="43.188763082296454" lon="13.006428763037862"><ele>598.0</ele><time>2026-05-02T14:55:54.999Z</time></trkpt><trkpt lat="43.18880229544195" lon="13.00654880843783"><ele>593.6</ele><time>2026-05-02T14:55:56.999Z</time></trkpt><trkpt lat="43.1888384523893" lon="13.006721152957253"><ele>589.1999999999999</ele><time>2026-05-02T14:55:58.999Z</time></trkpt><trkpt lat="43.18884356606735" lon="13.006890578313257"><ele>584.8</ele><time>2026-05-02T14:56:00.999Z</time></trkpt><trkpt lat="43.18888180677129" lon="13.007035816594078"><ele>580.4</ele><time>2026-05-02T14:56:02.999Z</time></trkpt><trkpt lat="43.1889065438983" lon="13.00712532429902"><ele>576.0</ele><time>2026-05-02T14:56:03.999Z</time></trkpt><trkpt lat="43.18893251295894" lon="13.007230165143373"><ele>576.0</ele><time>2026-05-02T14:56:04.999Z</time></trkpt><trkpt lat="43.188970985528165" lon="13.007333704634636"><ele>576.0</ele><time>2026-05-02T14:56:05.999Z</time></trkpt><trkpt lat="43.18900093006273" lon="13.007427732798247"><ele>576.0</ele><time>2026-05-02T14:56:06.999Z</time></trkpt><trkpt lat="43.189022397533265" lon="13.00751744581771"><ele>576.0</ele><time>2026-05-02T14:56:07.999Z</time></trkpt><trkpt lat="43.18905563388974" lon="13.007677107565168"><ele>576.0</ele><time>2026-05-02T14:56:09.999Z</time></trkpt><trkpt lat="43.18908728347678" lon="13.007774872661203"><ele>576.0</ele><time>2026-05-02T14:56:10.999Z</time></trkpt><trkpt lat="43.18911620974395" lon="13.007858181760374"><ele>574.6666666666666</ele><time>2026-05-02T14:56:11.999Z</time></trkpt><trkpt lat="43.18914600905864" lon="13.007947392657346"><ele>573.3333333333334</ele><time>2026-05-02T14:56:12.999Z</time></trkpt><trkpt lat="43.18916888417194" lon="13.008049056317818"><ele>572.0</ele><time>2026-05-02T14:56:13.999Z</time></trkpt><trkpt lat="43.189187223764335" lon="13.008145857461654"><ele>570.6666666666667</ele><time>2026-05-02T14:56:14.999Z</time></trkpt><trkpt lat="43.1892004366965" lon="13.008238379962254"><ele>569.3333333333334</ele><time>2026-05-02T14:56:15.998Z</time></trkpt><trkpt lat="43.1892197218195" lon="13.00839330269913"><ele>568.0</ele><time>2026-05-02T14:56:17.998Z</time></trkpt><trkpt lat="43.18919277571756" lon="13.008543645669594"><ele>565.5</ele><time>2026-05-02T14:56:19.998Z</time></trkpt><trkpt lat="43.18921368077166" lon="13.008668590712153"><ele>563.0</ele><time>2026-05-02T14:56:21.998Z</time></trkpt><trkpt lat="43.189243515138365" lon="13.008802085057447"><ele>560.5</ele><time>2026-05-02T14:56:23.998Z</time></trkpt><trkpt lat="43.189277141573676" lon="13.008902130201262"><ele>558.0</ele><time>2026-05-02T14:56:24.998Z</time></trkpt><trkpt lat="43.18931244591485" lon="13.009000960334596"><ele>555.5</ele><time>2026-05-02T14:56:26Z</time></trkpt><trkpt lat="43.189339155128586" lon="13.009082280308585"><ele>553.0</ele><time>2026-05-02T14:56:27Z</time></trkpt><trkpt lat="43.189356730504315" lon="13.009253082195702"><ele>550.5</ele><time>2026-05-02T14:56:29Z</time></trkpt><trkpt lat="43.18936781235933" lon="13.009366811514633"><ele>548.0</ele><time>2026-05-02T14:56:30Z</time></trkpt><trkpt lat="43.18938946935795" lon="13.009478924239223"><ele>545.5</ele><time>2026-05-02T14:56:31Z</time></trkpt><trkpt lat="43.189406376985765" lon="13.009573200348363"><ele>543.0</ele><time>2026-05-02T14:56:32Z</time></trkpt><trkpt lat="43.18943461921502" lon="13.009664581029547"><ele>540.5</ele><time>2026-05-02T14:56:33Z</time></trkpt><trkpt lat="43.189467272771374" lon="13.009756202357417"><ele>538.0</ele><time>2026-05-02T14:56:34Z</time></trkpt><trkpt lat="43.189485223910054" lon="13.009846827939716"><ele>538.0</ele><time>2026-05-02T14:56:35Z</time></trkpt><trkpt lat="43.189507302178605" lon="13.009949081365392"><ele>538.0</ele><time>2026-05-02T14:56:36Z</time></trkpt><trkpt lat="43.18953124738836" lon="13.010041327791695"><ele>538.0</ele><time>2026-05-02T14:56:37Z</time></trkpt><trkpt lat="43.18956206757727" lon="13.01013820363518"><ele>538.0</ele><time>2026-05-02T14:56:38Z</time></trkpt><trkpt lat="43.18958557944913" lon="13.010238325750933"><ele>538.0</ele><time>2026-05-02T14:56:39Z</time></trkpt><trkpt lat="43.18959011691747" lon="13.010334940976382"><ele>538.0</ele><time>2026-05-02T14:56:40Z</time></trkpt><trkpt lat="43.189625742484196" lon="13.010469138360492"><ele>534.1999999999999</ele><time>2026-05-02T14:56:42Z</time></trkpt><trkpt lat="43.18968381818026" lon="13.010590434342868"><ele>530.4</ele><time>2026-05-02T14:56:44Z</time></trkpt><trkpt lat="43.18964831744818" lon="13.010751963836542"><ele>526.5999999999999</ele><time>2026-05-02T14:56:46Z</time></trkpt><trkpt lat="43.189636987783025" lon="13.01085676304403"><ele>522.8</ele><time>2026-05-02T14:56:47Z</time></trkpt><trkpt lat="43.189639638689265" lon="13.010946762603316"><ele>519.0</ele><time>2026-05-02T14:56:48Z</time></trkpt><trkpt lat="43.18959739612211" lon="13.011114605602561"><ele>516.4</ele><time>2026-05-02T14:56:50Z</time></trkpt><trkpt lat="43.189568219278556" lon="13.011211247629435"><ele>513.8</ele><time>2026-05-02T14:56:51Z</time></trkpt><trkpt lat="43.18952004254592" lon="13.011346665839584"><ele>511.20000000000005</ele><time>2026-05-02T14:56:53Z</time></trkpt><trkpt lat="43.18948667199487" lon="13.011524641926032"><ele>508.6</ele><time>2026-05-02T14:56:55Z</time></trkpt><trkpt lat="43.18950831962248" lon="13.0116902423875"><ele>506.0</ele><time>2026-05-02T14:56:56Z</time></trkpt><trkpt lat="43.189548201622614" lon="13.011864487637142"><ele>503.8</ele><time>2026-05-02T14:56:57Z</time></trkpt><trkpt lat="43.189579498889636" lon="13.012030120118675"><ele>501.6</ele><time>2026-05-02T14:56:58Z</time></trkpt><trkpt lat="43.18961515640226" lon="13.01218830472899"><ele>499.4</ele><time>2026-05-02T14:56:59Z</time></trkpt><trkpt lat="43.18966503383032" lon="13.012316918169025"><ele>497.2</ele><time>2026-05-02T14:56:59.999Z</time></trkpt><trkpt lat="43.18969738559866" lon="13.012432971366264"><ele>495.0</ele><time>2026-05-02T14:57:00.999Z</time></trkpt><trkpt lat="43.189750322731584" lon="13.012530983010098"><ele>492.8</ele><time>2026-05-02T14:57:01.999Z</time></trkpt><trkpt lat="43.189836981737635" lon="13.012603324163564"><ele>490.6</ele><time>2026-05-02T14:57:02.999Z</time></trkpt><trkpt lat="43.189939893354236" lon="13.012659765873199"><ele>488.4</ele><time>2026-05-02T14:57:03.999Z</time></trkpt><trkpt lat="43.190032007217255" lon="13.012715031038947"><ele>486.2</ele><time>2026-05-02T14:57:04.999Z</time></trkpt><trkpt lat="43.19010087906715" lon="13.0127861696316"><ele>484.0</ele><time>2026-05-02T14:57:05.999Z</time></trkpt><trkpt lat="43.19017845143855" lon="13.01281945797863"><ele>484.0</ele><time>2026-05-02T14:57:06.999Z</time></trkpt><trkpt lat="43.19024192923083" lon="13.012909743894772"><ele>484.0</ele><time>2026-05-02T14:57:07.999Z</time></trkpt><trkpt lat="43.19026998297094" lon="13.01304360002927"><ele>484.0</ele><time>2026-05-02T14:57:08.999Z</time></trkpt><trkpt lat="43.19030565534619" lon="13.013177098675756"><ele>484.0</ele><time>2026-05-02T14:57:09.999Z</time></trkpt><trkpt lat="43.19033392701798" lon="13.013313284497274"><ele>484.0</ele><time>2026-05-02T14:57:10.999Z</time></trkpt><trkpt lat="43.190368868036764" lon="13.013450744390262"><ele>481.0</ele><time>2026-05-02T14:57:11.999Z</time></trkpt><trkpt lat="43.19038807230055" lon="13.013623357055483"><ele>478.0</ele><time>2026-05-02T14:57:12.999Z</time></trkpt><trkpt lat="43.19038225765957" lon="13.013809806982664"><ele>475.0</ele><time>2026-05-02T14:57:13.999Z</time></trkpt><trkpt lat="43.19038721934157" lon="13.014004012632872"><ele>472.0</ele><time>2026-05-02T14:57:14.999Z</time></trkpt><trkpt lat="43.19040283013481" lon="13.014185730244836"><ele>468.6666666666667</ele><time>2026-05-02T14:57:15.999Z</time></trkpt><trkpt lat="43.19038013174455" lon="13.01438839117779"><ele>465.33333333333337</ele><time>2026-05-02T14:57:16.999Z</time></trkpt><trkpt lat="43.1903843756017" lon="13.014594090670785"><ele>462.0</ele><time>2026-05-02T14:57:17.999Z</time></trkpt><trkpt lat="43.19037127515039" lon="13.01479925886729"><ele>459.0</ele><time>2026-05-02T14:57:18.999Z</time></trkpt><trkpt lat="43.19033711755692" lon="13.015002521544574"><ele>456.0</ele><time>2026-05-02T14:57:19.999Z</time></trkpt><trkpt lat="43.190313638485165" lon="13.015209403620787"><ele>453.0</ele><time>2026-05-02T14:57:20.999Z</time></trkpt><trkpt lat="43.190296306496506" lon="13.01541027665031"><ele>453.0</ele><time>2026-05-02T14:57:21.999Z</time></trkpt><trkpt lat="43.190247724933734" lon="13.015602933039311"><ele>453.0</ele><time>2026-05-02T14:57:22.999Z</time></trkpt><trkpt lat="43.190179897336186" lon="13.015777740646477"><ele>453.0</ele><time>2026-05-02T14:57:23.999Z</time></trkpt><trkpt lat="43.19013274173331" lon="13.015954079917426"><ele>453.0</ele><time>2026-05-02T14:57:24.999Z</time></trkpt><trkpt lat="43.190105942332124" lon="13.01612766154605"><ele>452.0</ele><time>2026-05-02T14:57:25.999Z</time></trkpt><trkpt lat="43.19006989070271" lon="13.016284007866227"><ele>450.99999999999994</ele><time>2026-05-02T14:57:26.999Z</time></trkpt><trkpt lat="43.19001864378562" lon="13.016421436288713"><ele>449.99999999999994</ele><time>2026-05-02T14:57:27.999Z</time></trkpt><trkpt lat="43.18998299857251" lon="13.0165589381437"><ele>449.0</ele><time>2026-05-02T14:57:28.999Z</time></trkpt><trkpt lat="43.18996396683536" lon="13.016695928280408"><ele>448.0</ele><time>2026-05-02T14:57:29.999Z</time></trkpt><trkpt lat="43.18993705120218" lon="13.016826595414381"><ele>447.0</ele><time>2026-05-02T14:57:30.999Z</time></trkpt><trkpt lat="43.18991981203295" lon="13.016958636839455"><ele>445.99999999999994</ele><time>2026-05-02T14:57:31.999Z</time></trkpt><trkpt lat="43.18990084896467" lon="13.017092025612886"><ele>444.99999999999994</ele><time>2026-05-02T14:57:32.999Z</time></trkpt><trkpt lat="43.189905240647654" lon="13.017228173305142"><ele>444.0</ele><time>2026-05-02T14:57:33.999Z</time></trkpt><trkpt lat="43.189912268605696" lon="13.017362590536065"><ele>443.0</ele><time>2026-05-02T14:57:34.999Z</time></trkpt><trkpt lat="43.18992481393904" lon="13.017478832576204"><ele>441.4</ele><time>2026-05-02T14:57:35.999Z</time></trkpt><trkpt lat="43.18988851798259" lon="13.017587801539982"><ele>439.79999999999995</ele><time>2026-05-02T14:57:36.999Z</time></trkpt><trkpt lat="43.18985295417909" lon="13.017696119927285"><ele>438.2</ele><time>2026-05-02T14:57:37.999Z</time></trkpt><trkpt lat="43.189742829400274" lon="13.017663312340074"><ele>436.6</ele><time>2026-05-02T14:57:38.999Z</time></trkpt><trkpt lat="43.18964391026391" lon="13.017642743666814"><ele>435.0</ele><time>2026-05-02T14:57:39.999Z</time></trkpt><trkpt lat="43.189546134225324" lon="13.017646806383839"><ele>434.4</ele><time>2026-05-02T14:57:40.999Z</time></trkpt><trkpt lat="43.189463075539614" lon="13.017617767781756"><ele>433.8</ele><time>2026-05-02T14:57:41.999Z</time></trkpt><trkpt lat="43.18936828809776" lon="13.017629067039408"><ele>433.20000000000005</ele><time>2026-05-02T14:57:42.999Z</time></trkpt><trkpt lat="43.18929012242367" lon="13.017700642176404"><ele>432.6</ele><time>2026-05-02T14:57:43.999Z</time></trkpt><trkpt lat="43.18922225698297" lon="13.01779822620109"><ele>432.0</ele><time>2026-05-02T14:57:44.999Z</time></trkpt><trkpt lat="43.18918287997725" lon="13.01795063009249"><ele>432.0</ele><time>2026-05-02T14:57:45.999Z</time></trkpt><trkpt lat="43.18916000615221" lon="13.018110910336006"><ele>432.00000000000006</ele><time>2026-05-02T14:57:46.999Z</time></trkpt><trkpt lat="43.18913420341361" lon="13.018258807350156"><ele>432.00000000000006</ele><time>2026-05-02T14:57:47.999Z</time></trkpt><trkpt lat="43.18909650561586" lon="13.018374140506497"><ele>432.0</ele><time>2026-05-02T14:57:48.999Z</time></trkpt><trkpt lat="43.1890458658673" lon="13.01846978211176"><ele>432.0</ele><time>2026-05-02T14:57:49.999Z</time></trkpt><trkpt lat="43.18896923944628" lon="13.018560028554182"><ele>428.0</ele><time>2026-05-02T14:57:50.999Z</time></trkpt><trkpt lat="43.18884833589267" lon="13.018693016450925"><ele>424.0</ele><time>2026-05-02T14:57:51.999Z</time></trkpt><trkpt lat="43.18873672557155" lon="13.018826334954243"><ele>420.0</ele><time>2026-05-02T14:57:52.999Z</time></trkpt><trkpt lat="43.18863299455909" lon="13.018957132415766"><ele>416.0</ele><time>2026-05-02T14:57:53.999Z</time></trkpt><trkpt lat="43.188542080203256" lon="13.019090526455441"><ele>415.4</ele><time>2026-05-02T14:57:54.999Z</time></trkpt><trkpt lat="43.18849457438853" lon="13.01921137600562"><ele>414.8</ele><time>2026-05-02T14:57:55.999Z</time></trkpt><trkpt lat="43.18842794052875" lon="13.019294534446564"><ele>414.2</ele><time>2026-05-02T14:57:56.999Z</time></trkpt><trkpt lat="43.18832019191154" lon="13.019279411558985"><ele>413.59999999999997</ele><time>2026-05-02T14:57:57.999Z</time></trkpt><trkpt lat="43.188198361313496" lon="13.019292724528754"><ele>413.0</ele><time>2026-05-02T14:57:58.999Z</time></trkpt><trkpt lat="43.188050788994715" lon="13.019322153371395"><ele>411.25</ele><time>2026-05-02T14:57:59.999Z</time></trkpt><trkpt lat="43.18789762189054" lon="13.019354592957217"><ele>409.5</ele><time>2026-05-02T14:58:00.999Z</time></trkpt><trkpt lat="43.187753446895606" lon="13.01938791511053"><ele>407.75</ele><time>2026-05-02T14:58:01.999Z</time></trkpt><trkpt lat="43.18762549357081" lon="13.01941108647816"><ele>406.0</ele><time>2026-05-02T14:58:02.999Z</time></trkpt><trkpt lat="43.18748837812753" lon="13.019434588095672"><ele>406.0</ele><time>2026-05-02T14:58:03.999Z</time></trkpt><trkpt lat="43.18734578628208" lon="13.01945853452144"><ele>406.0</ele><time>2026-05-02T14:58:04.999Z</time></trkpt><trkpt lat="43.18720177363888" lon="13.01947509353316"><ele>406.0</ele><time>2026-05-02T14:58:05.999Z</time></trkpt><trkpt lat="43.187059592912114" lon="13.019478537972413"><ele>406.0</ele><time>2026-05-02T14:58:06.999Z</time></trkpt><trkpt lat="43.18692215705232" lon="13.019499677284733"><ele>404.6</ele><time>2026-05-02T14:58:07.999Z</time></trkpt><trkpt lat="43.186811223503234" lon="13.019543980937515"><ele>403.20000000000005</ele><time>2026-05-02T14:58:08.999Z</time></trkpt><trkpt lat="43.186728218786506" lon="13.019572097795018"><ele>401.79999999999995</ele><time>2026-05-02T14:58:09.999Z</time></trkpt><trkpt lat="43.186660683189785" lon="13.019640276491344"><ele>400.4</ele><time>2026-05-02T14:58:10.999Z</time></trkpt><trkpt lat="43.1866157273061" lon="13.019740240761612"><ele>399.0</ele><time>2026-05-02T14:58:11.999Z</time></trkpt><trkpt lat="43.186586771697094" lon="13.01987440206182"><ele>396.66666666666663</ele><time>2026-05-02T14:58:12.999Z</time></trkpt><trkpt lat="43.18658253964624" lon="13.020074645957639"><ele>394.3333333333333</ele><time>2026-05-02T14:58:13.999Z</time></trkpt><trkpt lat="43.18660137717545" lon="13.020280789745657"><ele>392.0</ele><time>2026-05-02T14:58:14.999Z</time></trkpt><trkpt lat="43.18661454648799" lon="13.020489423553418"><ele>392.0</ele><time>2026-05-02T14:58:15.999Z</time></trkpt><trkpt lat="43.18663039923253" lon="13.020671155259551"><ele>392.0</ele><time>2026-05-02T14:58:16.999Z</time></trkpt><trkpt lat="43.18663614918427" lon="13.020826417704978"><ele>392.0</ele><time>2026-05-02T14:58:17.999Z</time></trkpt><trkpt lat="43.186630157156884" lon="13.020941273525477"><ele>392.0</ele><time>2026-05-02T14:58:18.999Z</time></trkpt><trkpt lat="43.18662314698494" lon="13.021036528666254"><ele>392.0</ele><time>2026-05-02T14:58:19.999Z</time></trkpt><trkpt lat="43.186568389037944" lon="13.021081741966617"><ele>391.20000000000005</ele><time>2026-05-02T14:58:20.999Z</time></trkpt><trkpt lat="43.18650064315177" lon="13.021100284595597"><ele>390.4</ele><time>2026-05-02T14:58:21.999Z</time></trkpt><trkpt lat="43.18650888782925" lon="13.021201779942464"><ele>389.6</ele><time>2026-05-02T14:58:22.999Z</time></trkpt><trkpt lat="43.18655185884675" lon="13.021388131846697"><ele>388.79999999999995</ele><time>2026-05-02T14:58:24.999Z</time></trkpt><trkpt lat="43.18653986930776" lon="13.02149416481894"><ele>388.0</ele><time>2026-05-02T14:58:25.998Z</time></trkpt><trkpt lat="43.18673122435089" lon="13.021666686574921"><ele>387.5</ele><time>2026-05-02T14:58:26.998Z</time></trkpt><trkpt lat="43.186747128787594" lon="13.021787641854115"><ele>387.0</ele><time>2026-05-02T14:58:27.998Z</time></trkpt><trkpt lat="43.18671994048385" lon="13.02191474087928"><ele>386.5</ele><time>2026-05-02T14:58:28.998Z</time></trkpt><trkpt lat="43.1866529747501" lon="13.022072334556672"><ele>386.0</ele><time>2026-05-02T14:58:29.998Z</time></trkpt><trkpt lat="43.186574851075825" lon="13.022276906396272"><ele>386.0</ele><time>2026-05-02T14:58:30.998Z</time></trkpt><trkpt lat="43.186500920924956" lon="13.022471235310785"><ele>386.0</ele><time>2026-05-02T14:58:32Z</time></trkpt><trkpt lat="43.18644166585807" lon="13.022640179034472"><ele>386.0</ele><time>2026-05-02T14:58:33Z</time></trkpt><trkpt lat="43.186400853053186" lon="13.02280811717498"><ele>386.0</ele><time>2026-05-02T14:58:34Z</time></trkpt><trkpt lat="43.18635467595404" lon="13.022972492480628"><ele>384.0</ele><time>2026-05-02T14:58:35Z</time></trkpt><trkpt lat="43.186314755071386" lon="13.023143794921708"><ele>382.0</ele><time>2026-05-02T14:58:36Z</time></trkpt><trkpt lat="43.18629440371416" lon="13.023302141364159"><ele>380.0</ele><time>2026-05-02T14:58:37Z</time></trkpt><trkpt lat="43.18627782309529" lon="13.02345108806174"><ele>378.0</ele><time>2026-05-02T14:58:38Z</time></trkpt><trkpt lat="43.186272689852586" lon="13.023594322195764"><ele>376.2</ele><time>2026-05-02T14:58:39Z</time></trkpt><trkpt lat="43.1862906992614" lon="13.023748939022685"><ele>374.4</ele><time>2026-05-02T14:58:40Z</time></trkpt><trkpt lat="43.18632328627916" lon="13.023893440850346"><ele>372.59999999999997</ele><time>2026-05-02T14:58:41Z</time></trkpt><trkpt lat="43.18634913433162" lon="13.02403720931571"><ele>370.79999999999995</ele><time>2026-05-02T14:58:42Z</time></trkpt><trkpt lat="43.186379720094926" lon="13.024173971393614"><ele>369.0</ele><time>2026-05-02T14:58:43Z</time></trkpt><trkpt lat="43.186411019480914" lon="13.024305933824545"><ele>368.25</ele><time>2026-05-02T14:58:44Z</time></trkpt><trkpt lat="43.18645054294713" lon="13.024457818083373"><ele>367.5</ele><time>2026-05-02T14:58:45Z</time></trkpt><trkpt lat="43.18648828260022" lon="13.02461454963069"><ele>366.75</ele><time>2026-05-02T14:58:46Z</time></trkpt><trkpt lat="43.186517263918134" lon="13.024776348716621"><ele>366.0</ele><time>2026-05-02T14:58:47Z</time></trkpt><trkpt lat="43.18654582943427" lon="13.024932212054452"><ele>364.5</ele><time>2026-05-02T14:58:48Z</time></trkpt><trkpt lat="43.18656768868486" lon="13.02508412466666"><ele>363.0</ele><time>2026-05-02T14:58:49Z</time></trkpt><trkpt lat="43.18659449067508" lon="13.02523594176038"><ele>361.5</ele><time>2026-05-02T14:58:50Z</time></trkpt><trkpt lat="43.18660907618135" lon="13.025381502141387"><ele>360.0</ele><time>2026-05-02T14:58:51Z</time></trkpt><trkpt lat="43.18662960170248" lon="13.025537768716184"><ele>360.0</ele><time>2026-05-02T14:58:52Z</time></trkpt><trkpt lat="43.1866501962804" lon="13.025717373344897"><ele>360.0</ele><time>2026-05-02T14:58:53Z</time></trkpt><trkpt lat="43.1866640508121" lon="13.025890050909103"><ele>360.0</ele><time>2026-05-02T14:58:54Z</time></trkpt><trkpt lat="43.186680239626156" lon="13.02605735072029"><ele>360.0</ele><time>2026-05-02T14:58:55Z</time></trkpt><trkpt lat="43.186695895220765" lon="13.026214719309378"><ele>357.8</ele><time>2026-05-02T14:58:56Z</time></trkpt><trkpt lat="43.18670960710927" lon="13.026348877538739"><ele>355.6</ele><time>2026-05-02T14:58:57Z</time></trkpt><trkpt lat="43.18671839359567" lon="13.026470828774443"><ele>353.4</ele><time>2026-05-02T14:58:58Z</time></trkpt><trkpt lat="43.186708522617955" lon="13.026605894262996"><ele>351.2</ele><time>2026-05-02T14:59:00Z</time></trkpt><trkpt lat="43.186643895791214" lon="13.026612832373853"><ele>349.0</ele><time>2026-05-02T14:59:02Z</time></trkpt><trkpt lat="43.18652845729202" lon="13.026651425187065"><ele>347.4</ele><time>2026-05-02T14:59:04Z</time></trkpt><trkpt lat="43.18647746333431" lon="13.026717923623282"><ele>345.79999999999995</ele><time>2026-05-02T14:59:05Z</time></trkpt><trkpt lat="43.18641782475941" lon="13.02680406878586"><ele>344.20000000000005</ele><time>2026-05-02T14:59:06Z</time></trkpt><trkpt lat="43.18631566481734" lon="13.026919350572207"><ele>342.6</ele><time>2026-05-02T14:59:07Z</time></trkpt><trkpt lat="43.18619783239464" lon="13.027033881383135"><ele>341.0</ele><time>2026-05-02T14:59:08Z</time></trkpt><trkpt lat="43.186083561094485" lon="13.027139072407644"><ele>341.0</ele><time>2026-05-02T14:59:09Z</time></trkpt><trkpt lat="43.185990639562654" lon="13.027227832362616"><ele>341.0</ele><time>2026-05-02T14:59:10Z</time></trkpt><trkpt lat="43.18590856861158" lon="13.02730059741985"><ele>341.0</ele><time>2026-05-02T14:59:11Z</time></trkpt><trkpt lat="43.185836035455026" lon="13.02735234505868"><ele>341.0</ele><time>2026-05-02T14:59:11.999Z</time></trkpt><trkpt lat="43.18572222374737" lon="13.027372137739802"><ele>341.0</ele><time>2026-05-02T14:59:13.999Z</time></trkpt><trkpt lat="43.18566266698193" lon="13.027332760859013"><ele>341.0</ele><time>2026-05-02T14:59:14.999Z</time></trkpt><trkpt lat="43.185593607350505" lon="13.027250343828367"><ele>341.0</ele><time>2026-05-02T14:59:15.999Z</time></trkpt><trkpt lat="43.18551651636226" lon="13.027115538599631"><ele>341.0</ele><time>2026-05-02T14:59:16.999Z</time></trkpt><trkpt lat="43.185436834913524" lon="13.026944572250908"><ele>341.0</ele><time>2026-05-02T14:59:17.999Z</time></trkpt><trkpt lat="43.185350400276924" lon="13.026754053233418"><ele>340.33333333333337</ele><time>2026-05-02T14:59:18.999Z</time></trkpt><trkpt lat="43.18525232828686" lon="13.026556155116632"><ele>339.6666666666667</ele><time>2026-05-02T14:59:19.999Z</time></trkpt><trkpt lat="43.18514918366867" lon="13.0263445432146"><ele>339.0</ele><time>2026-05-02T14:59:20.999Z</time></trkpt><trkpt lat="43.185040114308784" lon="13.02611656721531"><ele>339.0</ele><time>2026-05-02T14:59:21.999Z</time></trkpt><trkpt lat="43.18494056927232" lon="13.02590310161347"><ele>339.0</ele><time>2026-05-02T14:59:22.999Z</time></trkpt><trkpt lat="43.18483871268344" lon="13.025687450970333"><ele>339.0</ele><time>2026-05-02T14:59:23.999Z</time></trkpt><trkpt lat="43.1847362704323" lon="13.025449206971787"><ele>340.5</ele><time>2026-05-02T14:59:24.999Z</time></trkpt><trkpt lat="43.18461582657426" lon="13.02517195621983"><ele>342.0</ele><time>2026-05-02T14:59:25.999Z</time></trkpt><trkpt lat="43.1845020960525" lon="13.024898247090738"><ele>342.0</ele><time>2026-05-02T14:59:26.999Z</time></trkpt><trkpt lat="43.18440136902059" lon="13.024649343742425"><ele>342.0</ele><time>2026-05-02T14:59:27.999Z</time></trkpt><trkpt lat="43.184289212646796" lon="13.024352700552965"><ele>343.0</ele><time>2026-05-02T14:59:28.999Z</time></trkpt><trkpt lat="43.18414788904928" lon="13.024049545502773"><ele>344.0</ele><time>2026-05-02T14:59:29.999Z</time></trkpt><trkpt lat="43.184053077553244" lon="13.023779852094442"><ele>343.33333333333337</ele><time>2026-05-02T14:59:30.999Z</time></trkpt><trkpt lat="43.18400485549463" lon="13.02353648211548"><ele>342.6666666666667</ele><time>2026-05-02T14:59:31.999Z</time></trkpt><trkpt lat="43.183953608547476" lon="13.023294220846722"><ele>342.0</ele><time>2026-05-02T14:59:32.999Z</time></trkpt><trkpt lat="43.18391310760689" lon="13.023045384370617"><ele>343.3333333333333</ele><time>2026-05-02T14:59:33.999Z</time></trkpt><trkpt lat="43.183876575012086" lon="13.022796245097625"><ele>344.66666666666663</ele><time>2026-05-02T14:59:34.999Z</time></trkpt><trkpt lat="43.18383050488644" lon="13.022591904685083"><ele>346.0</ele><time>2026-05-02T14:59:35.999Z</time></trkpt><trkpt lat="43.18375944122576" lon="13.022422977887445"><ele>346.5</ele><time>2026-05-02T14:59:36.999Z</time></trkpt><trkpt lat="43.1836837800911" lon="13.022258299750474"><ele>347.0</ele><time>2026-05-02T14:59:37.999Z</time></trkpt><trkpt lat="43.18361375828226" lon="13.022114214318007"><ele>347.5</ele><time>2026-05-02T14:59:38.999Z</time></trkpt><trkpt lat="43.18355246479466" lon="13.021985008670775"><ele>348.0</ele><time>2026-05-02T14:59:39.999Z</time></trkpt><trkpt lat="43.183513510901264" lon="13.021888846983922"><ele>348.0</ele><time>2026-05-02T14:59:40.999Z</time></trkpt><trkpt lat="43.18346724271187" lon="13.021767052682828"><ele>348.0</ele><time>2026-05-02T14:59:42.999Z</time></trkpt><trkpt lat="43.18343093601388" lon="13.02169153638292"><ele>348.0</ele><time>2026-05-02T14:59:45.999Z</time></trkpt></trkseg></trk></gpx>